<?xml version='1.0' encoding='UTF-8'?><gpx version="1.1" creator="JPX - https://github.com/jenetics/jpx" xmlns="http://www.topografix.com/GPX/1/1"><trk><trkseg><trkpt lat="44.534134" lon="10.8632825"><ele>121.99999999999999</ele><time>2026-04-11T07:35:20.387Z</time></trkpt><trkpt lat="44.5340635" lon="10.8632841"><ele>122.0</ele><time>2026-04-11T07:35:25.909Z</time></trkpt><trkpt lat="44.5341666" lon="10.8633574"><ele>122.0</ele><time>2026-04-11T07:42:47.793Z</time></trkpt><trkpt lat="44.534062" lon="10.8634101"><ele>122.0</ele><time>2026-04-11T07:42:49.797Z</time></trkpt><trkpt lat="44.5339917" lon="10.8634418"><ele>121.99999999999999</ele><time>2026-04-11T07:42:50.781Z</time></trkpt><trkpt lat="44.5339284" lon="10.8634739"><ele>122.0</ele><time>2026-04-11T07:42:51.766Z</time></trkpt><trkpt lat="44.533863" lon="10.8635068"><ele>121.83333333333333</ele><time>2026-04-11T07:42:52.783Z</time></trkpt><trkpt lat="44.5337925" lon="10.8635349"><ele>121.66666666666666</ele><time>2026-04-11T07:42:53.794Z</time></trkpt><trkpt lat="44.533717" lon="10.8635679"><ele>121.5</ele><time>2026-04-11T07:42:54.738Z</time></trkpt><trkpt lat="44.5336332" lon="10.8636056"><ele>121.33333333333334</ele><time>2026-04-11T07:42:55.735Z</time></trkpt><trkpt lat="44.533534" lon="10.863648"><ele>121.16666666666667</ele><time>2026-04-11T07:42:56.765Z</time></trkpt><trkpt lat="44.5334399" lon="10.8636908"><ele>121.0</ele><time>2026-04-11T07:42:57.768Z</time></trkpt><trkpt lat="44.5333496" lon="10.8637302"><ele>121.4</ele><time>2026-04-11T07:42:58.806Z</time></trkpt><trkpt lat="44.5332537" lon="10.8637703"><ele>121.8</ele><time>2026-04-11T07:42:59.746Z</time></trkpt><trkpt lat="44.5331573" lon="10.8638112"><ele>122.20000000000002</ele><time>2026-04-11T07:43:00.774Z</time></trkpt><trkpt lat="44.5330571" lon="10.8638539"><ele>122.60000000000001</ele><time>2026-04-11T07:43:01.761Z</time></trkpt><trkpt lat="44.532954" lon="10.8638959"><ele>123.0</ele><time>2026-04-11T07:43:02.755Z</time></trkpt><trkpt lat="44.532854" lon="10.8639333"><ele>123.4</ele><time>2026-04-11T07:43:03.762Z</time></trkpt><trkpt lat="44.5327561" lon="10.8639725"><ele>123.80000000000001</ele><time>2026-04-11T07:43:04.802Z</time></trkpt><trkpt lat="44.5326607" lon="10.8640102"><ele>124.2</ele><time>2026-04-11T07:43:05.768Z</time></trkpt><trkpt lat="44.5325714" lon="10.8640502"><ele>124.6</ele><time>2026-04-11T07:43:06.83Z</time></trkpt><trkpt lat="44.5324756" lon="10.8640894"><ele>125.0</ele><time>2026-04-11T07:43:07.788Z</time></trkpt><trkpt lat="44.532389" lon="10.8641238"><ele>125.0</ele><time>2026-04-11T07:43:08.801Z</time></trkpt><trkpt lat="44.5322967" lon="10.8641602"><ele>125.0</ele><time>2026-04-11T07:43:09.78Z</time></trkpt><trkpt lat="44.532203" lon="10.8641982"><ele>125.0</ele><time>2026-04-11T07:43:10.79Z</time></trkpt><trkpt lat="44.5321095" lon="10.8642394"><ele>125.0</ele><time>2026-04-11T07:43:11.785Z</time></trkpt><trkpt lat="44.5320101" lon="10.8642795"><ele>125.0</ele><time>2026-04-11T07:43:12.76Z</time></trkpt><trkpt lat="44.5319082" lon="10.8643231"><ele>125.5</ele><time>2026-04-11T07:43:13.779Z</time></trkpt><trkpt lat="44.5317978" lon="10.8643742"><ele>126.0</ele><time>2026-04-11T07:43:14.8Z</time></trkpt><trkpt lat="44.5316817" lon="10.8644229"><ele>126.5</ele><time>2026-04-11T07:43:15.791Z</time></trkpt><trkpt lat="44.5315643" lon="10.8644683"><ele>127.0</ele><time>2026-04-11T07:43:16.798Z</time></trkpt><trkpt lat="44.5314541" lon="10.8645156"><ele>127.0</ele><time>2026-04-11T07:43:17.787Z</time></trkpt><trkpt lat="44.5313493" lon="10.8645599"><ele>126.99999999999999</ele><time>2026-04-11T07:43:18.834Z</time></trkpt><trkpt lat="44.5312498" lon="10.8646011"><ele>126.99999999999999</ele><time>2026-04-11T07:43:19.804Z</time></trkpt><trkpt lat="44.5311545" lon="10.8646399"><ele>127.0</ele><time>2026-04-11T07:43:20.812Z</time></trkpt><trkpt lat="44.5310635" lon="10.8646775"><ele>127.0</ele><time>2026-04-11T07:43:21.791Z</time></trkpt><trkpt lat="44.5309776" lon="10.8647149"><ele>127.0</ele><time>2026-04-11T07:43:22.749Z</time></trkpt><trkpt lat="44.530894" lon="10.8647511"><ele>126.99999999999999</ele><time>2026-04-11T07:43:23.799Z</time></trkpt><trkpt lat="44.5308093" lon="10.8647877"><ele>126.99999999999999</ele><time>2026-04-11T07:43:24.797Z</time></trkpt><trkpt lat="44.5307183" lon="10.8648258"><ele>127.0</ele><time>2026-04-11T07:43:25.736Z</time></trkpt><trkpt lat="44.5306265" lon="10.8648665"><ele>127.0</ele><time>2026-04-11T07:43:26.762Z</time></trkpt><trkpt lat="44.5305355" lon="10.8649038"><ele>127.00000000000001</ele><time>2026-04-11T07:43:27.801Z</time></trkpt><trkpt lat="44.5304505" lon="10.8649402"><ele>127.0</ele><time>2026-04-11T07:43:28.783Z</time></trkpt><trkpt lat="44.5303756" lon="10.8649745"><ele>127.0</ele><time>2026-04-11T07:43:29.773Z</time></trkpt><trkpt lat="44.530304" lon="10.8650172"><ele>127.0</ele><time>2026-04-11T07:43:30.778Z</time></trkpt><trkpt lat="44.5302368" lon="10.8650445"><ele>127.00000000000001</ele><time>2026-04-11T07:43:31.783Z</time></trkpt><trkpt lat="44.5301668" lon="10.8650716"><ele>127.0</ele><time>2026-04-11T07:43:32.778Z</time></trkpt><trkpt lat="44.5301031" lon="10.8650982"><ele>127.0</ele><time>2026-04-11T07:43:33.79Z</time></trkpt><trkpt lat="44.529986" lon="10.8650906"><ele>126.99999999999999</ele><time>2026-04-11T07:43:35.78Z</time></trkpt><trkpt lat="44.5298778" lon="10.8650593"><ele>126.99999999999999</ele><time>2026-04-11T07:43:37.769Z</time></trkpt><trkpt lat="44.5297759" lon="10.8651574"><ele>127.0</ele><time>2026-04-11T07:43:39.777Z</time></trkpt><trkpt lat="44.5297118" lon="10.8652296"><ele>127.0</ele><time>2026-04-11T07:43:40.759Z</time></trkpt><trkpt lat="44.5296228" lon="10.865296"><ele>127.39999999999999</ele><time>2026-04-11T07:43:41.798Z</time></trkpt><trkpt lat="44.5295295" lon="10.8653432"><ele>127.79999999999998</ele><time>2026-04-11T07:43:42.775Z</time></trkpt><trkpt lat="44.5294402" lon="10.865389"><ele>128.2</ele><time>2026-04-11T07:43:43.767Z</time></trkpt><trkpt lat="44.5293574" lon="10.8654232"><ele>128.6</ele><time>2026-04-11T07:43:44.77Z</time></trkpt><trkpt lat="44.529275" lon="10.865458"><ele>129.0</ele><time>2026-04-11T07:43:45.729Z</time></trkpt><trkpt lat="44.5291955" lon="10.8654923"><ele>129.0</ele><time>2026-04-11T07:43:46.768Z</time></trkpt><trkpt lat="44.5291149" lon="10.8655244"><ele>129.0</ele><time>2026-04-11T07:43:47.773Z</time></trkpt><trkpt lat="44.5290345" lon="10.8655544"><ele>129.0</ele><time>2026-04-11T07:43:48.786Z</time></trkpt><trkpt lat="44.5289503" lon="10.8655881"><ele>129.0</ele><time>2026-04-11T07:43:49.801Z</time></trkpt><trkpt lat="44.5288655" lon="10.8656213"><ele>129.0</ele><time>2026-04-11T07:43:50.767Z</time></trkpt><trkpt lat="44.5287797" lon="10.8656556"><ele>129.0</ele><time>2026-04-11T07:43:51.807Z</time></trkpt><trkpt lat="44.5286966" lon="10.8656913"><ele>129.0</ele><time>2026-04-11T07:43:52.788Z</time></trkpt><trkpt lat="44.5286177" lon="10.8657235"><ele>129.0</ele><time>2026-04-11T07:43:53.772Z</time></trkpt><trkpt lat="44.5285411" lon="10.8657536"><ele>129.0</ele><time>2026-04-11T07:43:54.778Z</time></trkpt><trkpt lat="44.5284627" lon="10.8657844"><ele>129.0</ele><time>2026-04-11T07:43:55.794Z</time></trkpt><trkpt lat="44.5283835" lon="10.8658193"><ele>129.0</ele><time>2026-04-11T07:43:56.754Z</time></trkpt><trkpt lat="44.5282899" lon="10.86586"><ele>129.0</ele><time>2026-04-11T07:43:57.774Z</time></trkpt><trkpt lat="44.5281786" lon="10.8659042"><ele>129.0</ele><time>2026-04-11T07:43:58.766Z</time></trkpt><trkpt lat="44.5280667" lon="10.8659486"><ele>129.0</ele><time>2026-04-11T07:43:59.783Z</time></trkpt><trkpt lat="44.5279543" lon="10.8659971"><ele>129.0</ele><time>2026-04-11T07:44:00.769Z</time></trkpt><trkpt lat="44.5278484" lon="10.8660441"><ele>129.0</ele><time>2026-04-11T07:44:01.784Z</time></trkpt><trkpt lat="44.5277499" lon="10.8660865"><ele>129.0</ele><time>2026-04-11T07:44:02.797Z</time></trkpt><trkpt lat="44.5276561" lon="10.8661271"><ele>129.0</ele><time>2026-04-11T07:44:03.715Z</time></trkpt><trkpt lat="44.5275751" lon="10.8661603"><ele>129.0</ele><time>2026-04-11T07:44:04.77Z</time></trkpt><trkpt lat="44.5275053" lon="10.8661879"><ele>129.0</ele><time>2026-04-11T07:44:05.767Z</time></trkpt><trkpt lat="44.5274012" lon="10.8662316"><ele>129.0</ele><time>2026-04-11T07:44:07.744Z</time></trkpt><trkpt lat="44.5273202" lon="10.8662634"><ele>129.0</ele><time>2026-04-11T07:44:09.761Z</time></trkpt><trkpt lat="44.5272443" lon="10.8662974"><ele>129.0</ele><time>2026-04-11T07:44:11.745Z</time></trkpt><trkpt lat="44.5271442" lon="10.8663425"><ele>129.33333333333334</ele><time>2026-04-11T07:44:13.75Z</time></trkpt><trkpt lat="44.5270523" lon="10.8663813"><ele>129.66666666666666</ele><time>2026-04-11T07:44:15.774Z</time></trkpt><trkpt lat="44.5269693" lon="10.8664145"><ele>130.0</ele><time>2026-04-11T07:44:17.776Z</time></trkpt><trkpt lat="44.5269024" lon="10.8664413"><ele>130.33333333333331</ele><time>2026-04-11T07:44:19.826Z</time></trkpt><trkpt lat="44.5268326" lon="10.8664608"><ele>130.66666666666666</ele><time>2026-04-11T07:44:22.749Z</time></trkpt><trkpt lat="44.5267593" lon="10.8664869"><ele>131.0</ele><time>2026-04-11T07:44:30.738Z</time></trkpt><trkpt lat="44.5266958" lon="10.8665158"><ele>131.0</ele><time>2026-04-11T07:44:34.775Z</time></trkpt><trkpt lat="44.5266004" lon="10.8665719"><ele>131.0</ele><time>2026-04-11T07:44:44.775Z</time></trkpt><trkpt lat="44.5265162" lon="10.8665838"><ele>131.0</ele><time>2026-04-11T07:44:46.769Z</time></trkpt><trkpt lat="44.5264317" lon="10.8665742"><ele>131.0</ele><time>2026-04-11T07:44:49.769Z</time></trkpt><trkpt lat="44.5263486" lon="10.8665832"><ele>131.0</ele><time>2026-04-11T07:44:51.765Z</time></trkpt><trkpt lat="44.526266" lon="10.8666137"><ele>131.0</ele><time>2026-04-11T07:44:53.779Z</time></trkpt><trkpt lat="44.526174" lon="10.8666257"><ele>131.2</ele><time>2026-04-11T07:44:55.785Z</time></trkpt><trkpt lat="44.5260974" lon="10.8666018"><ele>131.39999999999998</ele><time>2026-04-11T07:44:57.756Z</time></trkpt><trkpt lat="44.5259984" lon="10.8665724"><ele>131.6</ele><time>2026-04-11T07:45:00.762Z</time></trkpt><trkpt lat="44.5259094" lon="10.8665298"><ele>131.79999999999998</ele><time>2026-04-11T07:45:02.768Z</time></trkpt><trkpt lat="44.5258531" lon="10.8664832"><ele>132.0</ele><time>2026-04-11T07:45:05.766Z</time></trkpt><trkpt lat="44.525748" lon="10.8664323"><ele>132.0</ele><time>2026-04-11T07:45:08.767Z</time></trkpt><trkpt lat="44.525672" lon="10.866394"><ele>132.0</ele><time>2026-04-11T07:45:09.797Z</time></trkpt><trkpt lat="44.5255799" lon="10.8663372"><ele>132.0</ele><time>2026-04-11T07:45:10.789Z</time></trkpt><trkpt lat="44.5254929" lon="10.8662784"><ele>132.0</ele><time>2026-04-11T07:45:11.803Z</time></trkpt><trkpt lat="44.5254144" lon="10.8662248"><ele>132.0</ele><time>2026-04-11T07:45:12.808Z</time></trkpt><trkpt lat="44.525343" lon="10.8661743"><ele>132.0</ele><time>2026-04-11T07:45:13.791Z</time></trkpt><trkpt lat="44.5252755" lon="10.8661134"><ele>132.4</ele><time>2026-04-11T07:45:14.78Z</time></trkpt><trkpt lat="44.5252035" lon="10.8660441"><ele>132.79999999999998</ele><time>2026-04-11T07:45:15.792Z</time></trkpt><trkpt lat="44.5251105" lon="10.8659761"><ele>133.2</ele><time>2026-04-11T07:45:16.775Z</time></trkpt><trkpt lat="44.5250192" lon="10.8659054"><ele>133.6</ele><time>2026-04-11T07:45:17.792Z</time></trkpt><trkpt lat="44.5249366" lon="10.8658094"><ele>134.0</ele><time>2026-04-11T07:45:18.754Z</time></trkpt><trkpt lat="44.5248744" lon="10.865676"><ele>134.5</ele><time>2026-04-11T07:45:19.778Z</time></trkpt><trkpt lat="44.5248339" lon="10.8655074"><ele>135.0</ele><time>2026-04-11T07:45:20.809Z</time></trkpt><trkpt lat="44.5248138" lon="10.8653169"><ele>135.5</ele><time>2026-04-11T07:45:21.81Z</time></trkpt><trkpt lat="44.5248066" lon="10.8651153"><ele>136.0</ele><time>2026-04-11T07:45:22.768Z</time></trkpt><trkpt lat="44.524797" lon="10.8648916"><ele>136.66666666666669</ele><time>2026-04-11T07:45:23.797Z</time></trkpt><trkpt lat="44.5247857" lon="10.8646637"><ele>137.33333333333334</ele><time>2026-04-11T07:45:24.805Z</time></trkpt><trkpt lat="44.5247715" lon="10.8644397"><ele>138.0</ele><time>2026-04-11T07:45:25.802Z</time></trkpt><trkpt lat="44.524753" lon="10.8642334"><ele>138.75</ele><time>2026-04-11T07:45:26.8Z</time></trkpt><trkpt lat="44.5247215" lon="10.8640441"><ele>139.5</ele><time>2026-04-11T07:45:27.798Z</time></trkpt><trkpt lat="44.5246713" lon="10.8638666"><ele>140.25</ele><time>2026-04-11T07:45:28.796Z</time></trkpt><trkpt lat="44.524603" lon="10.8637025"><ele>141.0</ele><time>2026-04-11T07:45:29.795Z</time></trkpt><trkpt lat="44.5245364" lon="10.8635557"><ele>142.75</ele><time>2026-04-11T07:45:30.749Z</time></trkpt><trkpt lat="44.5244575" lon="10.8634136"><ele>144.5</ele><time>2026-04-11T07:45:31.81Z</time></trkpt><trkpt lat="44.5243682" lon="10.8632667"><ele>146.25</ele><time>2026-04-11T07:45:32.772Z</time></trkpt><trkpt lat="44.5242758" lon="10.863117"><ele>148.0</ele><time>2026-04-11T07:45:33.779Z</time></trkpt><trkpt lat="44.524185" lon="10.8629557"><ele>148.0</ele><time>2026-04-11T07:45:34.801Z</time></trkpt><trkpt lat="44.524093" lon="10.8627882"><ele>148.0</ele><time>2026-04-11T07:45:35.802Z</time></trkpt><trkpt lat="44.5240053" lon="10.8626208"><ele>148.0</ele><time>2026-04-11T07:45:36.795Z</time></trkpt><trkpt lat="44.5239252" lon="10.8624463"><ele>148.0</ele><time>2026-04-11T07:45:37.793Z</time></trkpt><trkpt lat="44.5238556" lon="10.8622932"><ele>148.0</ele><time>2026-04-11T07:45:38.762Z</time></trkpt><trkpt lat="44.5237897" lon="10.8621595"><ele>148.0</ele><time>2026-04-11T07:45:39.796Z</time></trkpt><trkpt lat="44.5237283" lon="10.8620354"><ele>148.0</ele><time>2026-04-11T07:45:40.81Z</time></trkpt><trkpt lat="44.5236667" lon="10.8619096"><ele>148.0</ele><time>2026-04-11T07:45:41.789Z</time></trkpt><trkpt lat="44.5236062" lon="10.8617873"><ele>148.0</ele><time>2026-04-11T07:45:42.798Z</time></trkpt><trkpt lat="44.5235395" lon="10.8616594"><ele>149.4</ele><time>2026-04-11T07:45:43.794Z</time></trkpt><trkpt lat="44.5234738" lon="10.8615389"><ele>150.8</ele><time>2026-04-11T07:45:44.805Z</time></trkpt><trkpt lat="44.5234097" lon="10.8614325"><ele>152.2</ele><time>2026-04-11T07:45:45.809Z</time></trkpt><trkpt lat="44.5233397" lon="10.8613202"><ele>153.6</ele><time>2026-04-11T07:45:46.797Z</time></trkpt><trkpt lat="44.5232764" lon="10.8612176"><ele>155.0</ele><time>2026-04-11T07:45:47.784Z</time></trkpt><trkpt lat="44.523221" lon="10.8611261"><ele>155.0</ele><time>2026-04-11T07:45:48.787Z</time></trkpt><trkpt lat="44.5231644" lon="10.8610387"><ele>155.0</ele><time>2026-04-11T07:45:49.788Z</time></trkpt><trkpt lat="44.5231108" lon="10.860955"><ele>155.0</ele><time>2026-04-11T07:45:50.803Z</time></trkpt><trkpt lat="44.5230558" lon="10.860883"><ele>155.0</ele><time>2026-04-11T07:45:51.801Z</time></trkpt><trkpt lat="44.5230078" lon="10.8608083"><ele>155.0</ele><time>2026-04-11T07:45:52.809Z</time></trkpt><trkpt lat="44.5229646" lon="10.8607355"><ele>155.0</ele><time>2026-04-11T07:45:53.809Z</time></trkpt><trkpt lat="44.5229276" lon="10.8606612"><ele>155.0</ele><time>2026-04-11T07:45:54.768Z</time></trkpt><trkpt lat="44.5229028" lon="10.8605686"><ele>155.16666666666666</ele><time>2026-04-11T07:45:55.797Z</time></trkpt><trkpt lat="44.5228887" lon="10.8604694"><ele>155.33333333333331</ele><time>2026-04-11T07:45:56.804Z</time></trkpt><trkpt lat="44.5228904" lon="10.8603651"><ele>155.5</ele><time>2026-04-11T07:45:57.791Z</time></trkpt><trkpt lat="44.5229113" lon="10.8602573"><ele>155.66666666666666</ele><time>2026-04-11T07:45:58.798Z</time></trkpt><trkpt lat="44.5229505" lon="10.8601554"><ele>155.83333333333334</ele><time>2026-04-11T07:45:59.844Z</time></trkpt><trkpt lat="44.523005" lon="10.8600595"><ele>156.0</ele><time>2026-04-11T07:46:00.776Z</time></trkpt><trkpt lat="44.5230734" lon="10.8599711"><ele>155.6</ele><time>2026-04-11T07:46:01.772Z</time></trkpt><trkpt lat="44.52315" lon="10.8598948"><ele>155.2</ele><time>2026-04-11T07:46:02.8Z</time></trkpt><trkpt lat="44.5232307" lon="10.8598257"><ele>154.8</ele><time>2026-04-11T07:46:03.784Z</time></trkpt><trkpt lat="44.5233121" lon="10.859759"><ele>154.4</ele><time>2026-04-11T07:46:04.773Z</time></trkpt><trkpt lat="44.5233918" lon="10.8596937"><ele>154.0</ele><time>2026-04-11T07:46:05.825Z</time></trkpt><trkpt lat="44.5234704" lon="10.8596323"><ele>154.0</ele><time>2026-04-11T07:46:06.778Z</time></trkpt><trkpt lat="44.5235475" lon="10.8595801"><ele>154.0</ele><time>2026-04-11T07:46:07.808Z</time></trkpt><trkpt lat="44.5236224" lon="10.8595347"><ele>154.0</ele><time>2026-04-11T07:46:08.765Z</time></trkpt><trkpt lat="44.5236893" lon="10.8594936"><ele>154.0</ele><time>2026-04-11T07:46:09.795Z</time></trkpt><trkpt lat="44.5237524" lon="10.8594573"><ele>154.0</ele><time>2026-04-11T07:46:10.791Z</time></trkpt><trkpt lat="44.5238547" lon="10.8593834"><ele>154.0</ele><time>2026-04-11T07:46:12.8Z</time></trkpt><trkpt lat="44.5239329" lon="10.8592738"><ele>153.2</ele><time>2026-04-11T07:46:14.784Z</time></trkpt><trkpt lat="44.5239623" lon="10.8591462"><ele>152.4</ele><time>2026-04-11T07:46:16.804Z</time></trkpt><trkpt lat="44.5239152" lon="10.8590432"><ele>151.6</ele><time>2026-04-11T07:46:18.768Z</time></trkpt><trkpt lat="44.5238117" lon="10.8590329"><ele>150.8</ele><time>2026-04-11T07:46:20.779Z</time></trkpt><trkpt lat="44.5237324" lon="10.8590256"><ele>150.0</ele><time>2026-04-11T07:46:21.803Z</time></trkpt><trkpt lat="44.5236407" lon="10.8589889"><ele>150.0</ele><time>2026-04-11T07:46:22.776Z</time></trkpt><trkpt lat="44.5235573" lon="10.8589362"><ele>150.0</ele><time>2026-04-11T07:46:23.771Z</time></trkpt><trkpt lat="44.523481" lon="10.8588721"><ele>150.0</ele><time>2026-04-11T07:46:24.804Z</time></trkpt><trkpt lat="44.5234187" lon="10.8587989"><ele>150.0</ele><time>2026-04-11T07:46:25.794Z</time></trkpt><trkpt lat="44.5233691" lon="10.8587299"><ele>150.0</ele><time>2026-04-11T07:46:26.787Z</time></trkpt><trkpt lat="44.5233207" lon="10.8586623"><ele>150.0</ele><time>2026-04-11T07:46:27.8Z</time></trkpt><trkpt lat="44.52328" lon="10.858586"><ele>150.0</ele><time>2026-04-11T07:46:28.804Z</time></trkpt><trkpt lat="44.5232522" lon="10.8584995"><ele>150.0</ele><time>2026-04-11T07:46:29.799Z</time></trkpt><trkpt lat="44.5232332" lon="10.8584002"><ele>150.0</ele><time>2026-04-11T07:46:30.808Z</time></trkpt><trkpt lat="44.5232222" lon="10.8582903"><ele>150.0</ele><time>2026-04-11T07:46:31.773Z</time></trkpt><trkpt lat="44.5232168" lon="10.8581797"><ele>150.0</ele><time>2026-04-11T07:46:32.799Z</time></trkpt><trkpt lat="44.5232179" lon="10.8580623"><ele>150.0</ele><time>2026-04-11T07:46:33.792Z</time></trkpt><trkpt lat="44.5232247" lon="10.8579357"><ele>149.5</ele><time>2026-04-11T07:46:34.812Z</time></trkpt><trkpt lat="44.5232322" lon="10.8578173"><ele>149.0</ele><time>2026-04-11T07:46:35.798Z</time></trkpt><trkpt lat="44.5232377" lon="10.8577068"><ele>148.5</ele><time>2026-04-11T07:46:36.783Z</time></trkpt><trkpt lat="44.5232397" lon="10.8576071"><ele>148.0</ele><time>2026-04-11T07:46:37.805Z</time></trkpt><trkpt lat="44.523252" lon="10.8574623"><ele>147.5</ele><time>2026-04-11T07:46:39.782Z</time></trkpt><trkpt lat="44.5232888" lon="10.8573231"><ele>147.0</ele><time>2026-04-11T07:46:41.781Z</time></trkpt><trkpt lat="44.5232632" lon="10.8572068"><ele>146.4</ele><time>2026-04-11T07:46:43.791Z</time></trkpt><trkpt lat="44.5231526" lon="10.857225"><ele>145.79999999999998</ele><time>2026-04-11T07:46:45.748Z</time></trkpt><trkpt lat="44.5230723" lon="10.8572778"><ele>145.2</ele><time>2026-04-11T07:46:46.782Z</time></trkpt><trkpt lat="44.5229886" lon="10.8573354"><ele>144.6</ele><time>2026-04-11T07:46:47.768Z</time></trkpt><trkpt lat="44.5228743" lon="10.8573436"><ele>144.0</ele><time>2026-04-11T07:46:48.789Z</time></trkpt><trkpt lat="44.5227633" lon="10.857334"><ele>144.0</ele><time>2026-04-11T07:46:49.787Z</time></trkpt><trkpt lat="44.5226506" lon="10.8573039"><ele>144.0</ele><time>2026-04-11T07:46:50.758Z</time></trkpt><trkpt lat="44.5225302" lon="10.8572633"><ele>144.0</ele><time>2026-04-11T07:46:51.801Z</time></trkpt><trkpt lat="44.5224034" lon="10.8572062"><ele>144.0</ele><time>2026-04-11T07:46:52.8Z</time></trkpt><trkpt lat="44.5222727" lon="10.8571347"><ele>144.0</ele><time>2026-04-11T07:46:53.786Z</time></trkpt><trkpt lat="44.5221486" lon="10.8570554"><ele>144.0</ele><time>2026-04-11T07:46:54.768Z</time></trkpt><trkpt lat="44.5220333" lon="10.8569796"><ele>144.0</ele><time>2026-04-11T07:46:55.828Z</time></trkpt><trkpt lat="44.5219151" lon="10.856902"><ele>144.0</ele><time>2026-04-11T07:46:56.811Z</time></trkpt><trkpt lat="44.5218039" lon="10.856828"><ele>144.6</ele><time>2026-04-11T07:46:57.776Z</time></trkpt><trkpt lat="44.5216988" lon="10.8567563"><ele>145.2</ele><time>2026-04-11T07:46:58.788Z</time></trkpt><trkpt lat="44.5216002" lon="10.8566857"><ele>145.79999999999998</ele><time>2026-04-11T07:46:59.776Z</time></trkpt><trkpt lat="44.5215061" lon="10.8566227"><ele>146.4</ele><time>2026-04-11T07:47:00.793Z</time></trkpt><trkpt lat="44.5214172" lon="10.856566"><ele>147.0</ele><time>2026-04-11T07:47:01.802Z</time></trkpt><trkpt lat="44.5213366" lon="10.8565061"><ele>147.0</ele><time>2026-04-11T07:47:02.797Z</time></trkpt><trkpt lat="44.5212548" lon="10.8564632"><ele>147.0</ele><time>2026-04-11T07:47:03.772Z</time></trkpt><trkpt lat="44.521175" lon="10.8564292"><ele>147.0</ele><time>2026-04-11T07:47:04.802Z</time></trkpt><trkpt lat="44.5211031" lon="10.8564028"><ele>147.0</ele><time>2026-04-11T07:47:05.795Z</time></trkpt><trkpt lat="44.5210321" lon="10.8563784"><ele>147.0</ele><time>2026-04-11T07:47:06.777Z</time></trkpt><trkpt lat="44.5209639" lon="10.8563639"><ele>147.0</ele><time>2026-04-11T07:47:07.801Z</time></trkpt><trkpt lat="44.520875" lon="10.8563626"><ele>146.83333333333334</ele><time>2026-04-11T07:47:09.791Z</time></trkpt><trkpt lat="44.5207986" lon="10.8563133"><ele>146.66666666666666</ele><time>2026-04-11T07:47:12.757Z</time></trkpt><trkpt lat="44.5207759" lon="10.856161"><ele>146.5</ele><time>2026-04-11T07:47:14.793Z</time></trkpt><trkpt lat="44.5207878" lon="10.8560675"><ele>146.33333333333331</ele><time>2026-04-11T07:47:15.788Z</time></trkpt><trkpt lat="44.5208021" lon="10.8559491"><ele>146.16666666666666</ele><time>2026-04-11T07:47:16.786Z</time></trkpt><trkpt lat="44.520815" lon="10.8558369"><ele>146.0</ele><time>2026-04-11T07:47:17.799Z</time></trkpt><trkpt lat="44.5208246" lon="10.8557405"><ele>145.83333333333331</ele><time>2026-04-11T07:47:18.789Z</time></trkpt><trkpt lat="44.5208351" lon="10.855639"><ele>145.66666666666666</ele><time>2026-04-11T07:47:19.779Z</time></trkpt><trkpt lat="44.5208441" lon="10.8555312"><ele>145.5</ele><time>2026-04-11T07:47:20.802Z</time></trkpt><trkpt lat="44.5208506" lon="10.8554194"><ele>145.33333333333334</ele><time>2026-04-11T07:47:21.807Z</time></trkpt><trkpt lat="44.5208577" lon="10.8553135"><ele>145.16666666666669</ele><time>2026-04-11T07:47:22.799Z</time></trkpt><trkpt lat="44.5208568" lon="10.8552112"><ele>145.0</ele><time>2026-04-11T07:47:23.801Z</time></trkpt><trkpt lat="44.5208596" lon="10.8551099"><ele>146.33333333333334</ele><time>2026-04-11T07:47:24.825Z</time></trkpt><trkpt lat="44.5208518" lon="10.8550144"><ele>147.66666666666669</ele><time>2026-04-11T07:47:25.774Z</time></trkpt><trkpt lat="44.5208292" lon="10.8549317"><ele>149.0</ele><time>2026-04-11T07:47:26.782Z</time></trkpt><trkpt lat="44.5207403" lon="10.8548193"><ele>150.33333333333334</ele><time>2026-04-11T07:47:28.8Z</time></trkpt><trkpt lat="44.5207014" lon="10.8546718"><ele>151.66666666666666</ele><time>2026-04-11T07:47:30.83Z</time></trkpt><trkpt lat="44.5207044" lon="10.8545786"><ele>153.0</ele><time>2026-04-11T07:47:31.78Z</time></trkpt><trkpt lat="44.520709" lon="10.8544667"><ele>153.0</ele><time>2026-04-11T07:47:32.795Z</time></trkpt><trkpt lat="44.5207186" lon="10.8543516"><ele>153.0</ele><time>2026-04-11T07:47:33.798Z</time></trkpt><trkpt lat="44.5207337" lon="10.8542293"><ele>153.0</ele><time>2026-04-11T07:47:34.804Z</time></trkpt><trkpt lat="44.5207416" lon="10.8541042"><ele>153.0</ele><time>2026-04-11T07:47:35.793Z</time></trkpt><trkpt lat="44.5207569" lon="10.8539813"><ele>153.0</ele><time>2026-04-11T07:47:36.857Z</time></trkpt><trkpt lat="44.5207739" lon="10.8538512"><ele>153.0</ele><time>2026-04-11T07:47:37.788Z</time></trkpt><trkpt lat="44.5208031" lon="10.8537106"><ele>154.33333333333334</ele><time>2026-04-11T07:47:38.795Z</time></trkpt><trkpt lat="44.5208272" lon="10.8535701"><ele>155.66666666666666</ele><time>2026-04-11T07:47:39.774Z</time></trkpt><trkpt lat="44.5208479" lon="10.8534425"><ele>157.0</ele><time>2026-04-11T07:47:40.741Z</time></trkpt><trkpt lat="44.5208671" lon="10.8533294"><ele>158.33333333333331</ele><time>2026-04-11T07:47:41.79Z</time></trkpt><trkpt lat="44.5208887" lon="10.8532179"><ele>159.66666666666666</ele><time>2026-04-11T07:47:42.804Z</time></trkpt><trkpt lat="44.5209116" lon="10.8531062"><ele>161.0</ele><time>2026-04-11T07:47:43.804Z</time></trkpt><trkpt lat="44.5209328" lon="10.8529861"><ele>162.16666666666666</ele><time>2026-04-11T07:47:44.813Z</time></trkpt><trkpt lat="44.5209527" lon="10.8528695"><ele>163.33333333333331</ele><time>2026-04-11T07:47:45.788Z</time></trkpt><trkpt lat="44.5209727" lon="10.852762"><ele>164.5</ele><time>2026-04-11T07:47:46.798Z</time></trkpt><trkpt lat="44.5209894" lon="10.8526736"><ele>165.66666666666666</ele><time>2026-04-11T07:47:47.788Z</time></trkpt><trkpt lat="44.5210162" lon="10.8525301"><ele>166.83333333333334</ele><time>2026-04-11T07:47:49.774Z</time></trkpt><trkpt lat="44.5210359" lon="10.8524111"><ele>168.0</ele><time>2026-04-11T07:47:51.784Z</time></trkpt><trkpt lat="44.5210478" lon="10.8523033"><ele>168.33333333333334</ele><time>2026-04-11T07:47:53.785Z</time></trkpt><trkpt lat="44.5210234" lon="10.8522087"><ele>168.66666666666666</ele><time>2026-04-11T07:47:55.742Z</time></trkpt><trkpt lat="44.5209943" lon="10.8521218"><ele>169.0</ele><time>2026-04-11T07:47:57.775Z</time></trkpt><trkpt lat="44.5209844" lon="10.8520192"><ele>169.33333333333331</ele><time>2026-04-11T07:47:59.769Z</time></trkpt><trkpt lat="44.5209107" lon="10.851902"><ele>169.66666666666666</ele><time>2026-04-11T07:48:01.792Z</time></trkpt><trkpt lat="44.5208385" lon="10.8518572"><ele>170.0</ele><time>2026-04-11T07:48:02.794Z</time></trkpt><trkpt lat="44.5207644" lon="10.8518146"><ele>169.66666666666666</ele><time>2026-04-11T07:48:03.802Z</time></trkpt><trkpt lat="44.5206968" lon="10.8517752"><ele>169.33333333333331</ele><time>2026-04-11T07:48:04.782Z</time></trkpt><trkpt lat="44.520635" lon="10.8517476"><ele>169.0</ele><time>2026-04-11T07:48:05.827Z</time></trkpt><trkpt lat="44.520542" lon="10.8517029"><ele>168.66666666666666</ele><time>2026-04-11T07:48:07.778Z</time></trkpt><trkpt lat="44.5204508" lon="10.8516612"><ele>168.33333333333334</ele><time>2026-04-11T07:48:09.793Z</time></trkpt><trkpt lat="44.5203701" lon="10.8516067"><ele>168.0</ele><time>2026-04-11T07:48:11.774Z</time></trkpt><trkpt lat="44.5202753" lon="10.8515898"><ele>168.83333333333334</ele><time>2026-04-11T07:48:13.751Z</time></trkpt><trkpt lat="44.5201648" lon="10.8516456"><ele>169.66666666666666</ele><time>2026-04-11T07:48:15.758Z</time></trkpt><trkpt lat="44.5200589" lon="10.8517078"><ele>170.5</ele><time>2026-04-11T07:48:17.767Z</time></trkpt><trkpt lat="44.5199884" lon="10.8517423"><ele>171.33333333333331</ele><time>2026-04-11T07:48:18.78Z</time></trkpt><trkpt lat="44.5199257" lon="10.8517729"><ele>172.16666666666666</ele><time>2026-04-11T07:48:19.791Z</time></trkpt><trkpt lat="44.5198643" lon="10.8518028"><ele>173.0</ele><time>2026-04-11T07:48:20.765Z</time></trkpt><trkpt lat="44.5198012" lon="10.8518241"><ele>173.0</ele><time>2026-04-11T07:48:21.784Z</time></trkpt><trkpt lat="44.5197361" lon="10.8518336"><ele>173.0</ele><time>2026-04-11T07:48:22.802Z</time></trkpt><trkpt lat="44.5196154" lon="10.8518654"><ele>173.0</ele><time>2026-04-11T07:48:24.813Z</time></trkpt><trkpt lat="44.5194893" lon="10.8518515"><ele>173.0</ele><time>2026-04-11T07:48:26.788Z</time></trkpt><trkpt lat="44.5194215" lon="10.8518436"><ele>173.0</ele><time>2026-04-11T07:48:27.788Z</time></trkpt><trkpt lat="44.5193436" lon="10.8518298"><ele>173.4</ele><time>2026-04-11T07:48:28.774Z</time></trkpt><trkpt lat="44.5192667" lon="10.8518211"><ele>173.8</ele><time>2026-04-11T07:48:29.768Z</time></trkpt><trkpt lat="44.5191991" lon="10.8518128"><ele>174.2</ele><time>2026-04-11T07:48:30.797Z</time></trkpt><trkpt lat="44.5190889" lon="10.851794"><ele>174.6</ele><time>2026-04-11T07:48:32.797Z</time></trkpt><trkpt lat="44.518982" lon="10.8517474"><ele>175.0</ele><time>2026-04-11T07:48:34.78Z</time></trkpt><trkpt lat="44.5188781" lon="10.8517134"><ele>175.5</ele><time>2026-04-11T07:48:36.805Z</time></trkpt><trkpt lat="44.5188151" lon="10.8516874"><ele>176.0</ele><time>2026-04-11T07:48:37.782Z</time></trkpt><trkpt lat="44.5187028" lon="10.8516528"><ele>176.5</ele><time>2026-04-11T07:48:39.834Z</time></trkpt><trkpt lat="44.518619" lon="10.8516295"><ele>177.0</ele><time>2026-04-11T07:48:41.78Z</time></trkpt><trkpt lat="44.5185683" lon="10.8515596"><ele>177.5</ele><time>2026-04-11T07:48:43.788Z</time></trkpt><trkpt lat="44.5185675" lon="10.8514207"><ele>178.0</ele><time>2026-04-11T07:48:45.761Z</time></trkpt><trkpt lat="44.5186123" lon="10.8512939"><ele>178.16666666666669</ele><time>2026-04-11T07:48:47.804Z</time></trkpt><trkpt lat="44.5186128" lon="10.8511899"><ele>178.33333333333334</ele><time>2026-04-11T07:48:49.772Z</time></trkpt><trkpt lat="44.5185209" lon="10.8511147"><ele>178.5</ele><time>2026-04-11T07:48:51.752Z</time></trkpt><trkpt lat="44.5184531" lon="10.8510729"><ele>178.66666666666666</ele><time>2026-04-11T07:48:52.783Z</time></trkpt><trkpt lat="44.5183815" lon="10.8510236"><ele>178.83333333333331</ele><time>2026-04-11T07:48:53.807Z</time></trkpt><trkpt lat="44.5183107" lon="10.8509759"><ele>179.0</ele><time>2026-04-11T07:48:54.804Z</time></trkpt><trkpt lat="44.5182347" lon="10.8509265"><ele>179.0</ele><time>2026-04-11T07:48:55.792Z</time></trkpt><trkpt lat="44.5181574" lon="10.8508781"><ele>179.0</ele><time>2026-04-11T07:48:56.798Z</time></trkpt><trkpt lat="44.5180838" lon="10.8508315"><ele>179.0</ele><time>2026-04-11T07:48:57.802Z</time></trkpt><trkpt lat="44.5180091" lon="10.8507845"><ele>179.0</ele><time>2026-04-11T07:48:58.798Z</time></trkpt><trkpt lat="44.5179419" lon="10.8507416"><ele>179.0</ele><time>2026-04-11T07:48:59.781Z</time></trkpt><trkpt lat="44.5178766" lon="10.8506986"><ele>179.0</ele><time>2026-04-11T07:49:00.766Z</time></trkpt><trkpt lat="44.5178076" lon="10.8506525"><ele>180.16666666666666</ele><time>2026-04-11T07:49:01.794Z</time></trkpt><trkpt lat="44.5177332" lon="10.8506016"><ele>181.33333333333331</ele><time>2026-04-11T07:49:02.812Z</time></trkpt><trkpt lat="44.5176582" lon="10.8505519"><ele>182.5</ele><time>2026-04-11T07:49:03.795Z</time></trkpt><trkpt lat="44.5175866" lon="10.8505039"><ele>183.66666666666666</ele><time>2026-04-11T07:49:04.815Z</time></trkpt><trkpt lat="44.5175127" lon="10.850455"><ele>184.83333333333334</ele><time>2026-04-11T07:49:05.791Z</time></trkpt><trkpt lat="44.5174358" lon="10.8504045"><ele>186.0</ele><time>2026-04-11T07:49:06.804Z</time></trkpt><trkpt lat="44.5173602" lon="10.8503538"><ele>186.00000000000003</ele><time>2026-04-11T07:49:07.798Z</time></trkpt><trkpt lat="44.5172883" lon="10.8503049"><ele>186.0</ele><time>2026-04-11T07:49:08.798Z</time></trkpt><trkpt lat="44.5172231" lon="10.8502591"><ele>186.0</ele><time>2026-04-11T07:49:09.799Z</time></trkpt><trkpt lat="44.5171602" lon="10.8502131"><ele>186.0</ele><time>2026-04-11T07:49:10.789Z</time></trkpt><trkpt lat="44.5170974" lon="10.8501617"><ele>186.0</ele><time>2026-04-11T07:49:11.794Z</time></trkpt><trkpt lat="44.5170413" lon="10.8501"><ele>186.00000000000003</ele><time>2026-04-11T07:49:12.785Z</time></trkpt><trkpt lat="44.5169898" lon="10.8500267"><ele>186.0</ele><time>2026-04-11T07:49:13.791Z</time></trkpt><trkpt lat="44.5169437" lon="10.8499566"><ele>186.60000000000002</ele><time>2026-04-11T07:49:14.792Z</time></trkpt><trkpt lat="44.5168967" lon="10.849897"><ele>187.2</ele><time>2026-04-11T07:49:15.798Z</time></trkpt><trkpt lat="44.5167838" lon="10.8498135"><ele>187.8</ele><time>2026-04-11T07:49:17.78Z</time></trkpt><trkpt lat="44.5166848" lon="10.8497622"><ele>188.39999999999998</ele><time>2026-04-11T07:49:19.798Z</time></trkpt><trkpt lat="44.5166333" lon="10.8496718"><ele>189.0</ele><time>2026-04-11T07:49:21.786Z</time></trkpt><trkpt lat="44.5166366" lon="10.8495464"><ele>189.0</ele><time>2026-04-11T07:49:23.779Z</time></trkpt><trkpt lat="44.5166357" lon="10.849384"><ele>189.0</ele><time>2026-04-11T07:49:25.774Z</time></trkpt><trkpt lat="44.5166206" lon="10.8492963"><ele>189.0</ele><time>2026-04-11T07:49:26.834Z</time></trkpt><trkpt lat="44.5165947" lon="10.8492117"><ele>189.0</ele><time>2026-04-11T07:49:27.813Z</time></trkpt><trkpt lat="44.5165603" lon="10.849134"><ele>189.0</ele><time>2026-04-11T07:49:28.806Z</time></trkpt><trkpt lat="44.5165185" lon="10.8490658"><ele>189.0</ele><time>2026-04-11T07:49:29.792Z</time></trkpt><trkpt lat="44.5164269" lon="10.8489441"><ele>189.5</ele><time>2026-04-11T07:49:31.795Z</time></trkpt><trkpt lat="44.5163313" lon="10.8488301"><ele>190.0</ele><time>2026-04-11T07:49:33.789Z</time></trkpt><trkpt lat="44.5162536" lon="10.848704"><ele>190.5</ele><time>2026-04-11T07:49:35.789Z</time></trkpt><trkpt lat="44.5162285" lon="10.8485287"><ele>191.0</ele><time>2026-04-11T07:49:37.792Z</time></trkpt><trkpt lat="44.5162289" lon="10.8484111"><ele>189.8</ele><time>2026-04-11T07:49:38.803Z</time></trkpt><trkpt lat="44.5162317" lon="10.8482866"><ele>188.60000000000002</ele><time>2026-04-11T07:49:39.775Z</time></trkpt><trkpt lat="44.5162386" lon="10.8481739"><ele>187.4</ele><time>2026-04-11T07:49:40.774Z</time></trkpt><trkpt lat="44.5162508" lon="10.848076"><ele>186.2</ele><time>2026-04-11T07:49:41.749Z</time></trkpt><trkpt lat="44.5162935" lon="10.8479229"><ele>185.0</ele><time>2026-04-11T07:49:43.802Z</time></trkpt><trkpt lat="44.5163569" lon="10.8477775"><ele>184.66666666666666</ele><time>2026-04-11T07:49:45.784Z</time></trkpt><trkpt lat="44.5164103" lon="10.8476963"><ele>184.33333333333331</ele><time>2026-04-11T07:49:46.786Z</time></trkpt><trkpt lat="44.5164723" lon="10.8476484"><ele>184.0</ele><time>2026-04-11T07:49:47.791Z</time></trkpt><trkpt lat="44.5165976" lon="10.8476346"><ele>183.66666666666666</ele><time>2026-04-11T07:49:49.793Z</time></trkpt><trkpt lat="44.5166755" lon="10.8476488"><ele>183.33333333333334</ele><time>2026-04-11T07:49:50.826Z</time></trkpt><trkpt lat="44.5167682" lon="10.8476585"><ele>183.0</ele><time>2026-04-11T07:49:51.799Z</time></trkpt><trkpt lat="44.5168642" lon="10.8476732"><ele>183.0</ele><time>2026-04-11T07:49:52.77Z</time></trkpt><trkpt lat="44.51696" lon="10.8476581"><ele>183.0</ele><time>2026-04-11T07:49:53.847Z</time></trkpt><trkpt lat="44.5170563" lon="10.8476333"><ele>183.0</ele><time>2026-04-11T07:49:54.8Z</time></trkpt><trkpt lat="44.5171525" lon="10.8475946"><ele>183.0</ele><time>2026-04-11T07:49:55.793Z</time></trkpt><trkpt lat="44.5172475" lon="10.8475455"><ele>183.0</ele><time>2026-04-11T07:49:56.783Z</time></trkpt><trkpt lat="44.517335" lon="10.8474866"><ele>184.33333333333334</ele><time>2026-04-11T07:49:57.747Z</time></trkpt><trkpt lat="44.5174072" lon="10.8474197"><ele>185.66666666666666</ele><time>2026-04-11T07:49:58.805Z</time></trkpt><trkpt lat="44.517463" lon="10.847343"><ele>187.0</ele><time>2026-04-11T07:49:59.772Z</time></trkpt><trkpt lat="44.5175038" lon="10.8472583"><ele>188.33333333333331</ele><time>2026-04-11T07:50:00.804Z</time></trkpt><trkpt lat="44.5175262" lon="10.8471634"><ele>189.66666666666666</ele><time>2026-04-11T07:50:01.798Z</time></trkpt><trkpt lat="44.5175308" lon="10.8470471"><ele>191.0</ele><time>2026-04-11T07:50:02.792Z</time></trkpt><trkpt lat="44.517518" lon="10.8469056"><ele>192.4</ele><time>2026-04-11T07:50:03.793Z</time></trkpt><trkpt lat="44.5174993" lon="10.8467418"><ele>193.8</ele><time>2026-04-11T07:50:04.837Z</time></trkpt><trkpt lat="44.517483" lon="10.8465843"><ele>195.20000000000002</ele><time>2026-04-11T07:50:05.809Z</time></trkpt><trkpt lat="44.5174661" lon="10.8464461"><ele>196.60000000000002</ele><time>2026-04-11T07:50:06.793Z</time></trkpt><trkpt lat="44.5174495" lon="10.8463264"><ele>198.0</ele><time>2026-04-11T07:50:07.786Z</time></trkpt><trkpt lat="44.5174358" lon="10.8462227"><ele>198.0</ele><time>2026-04-11T07:50:08.795Z</time></trkpt><trkpt lat="44.5174209" lon="10.8460692"><ele>198.0</ele><time>2026-04-11T07:50:10.765Z</time></trkpt><trkpt lat="44.5174371" lon="10.8459827"><ele>198.0</ele><time>2026-04-11T07:50:12.774Z</time></trkpt><trkpt lat="44.517501" lon="10.8459445"><ele>198.0</ele><time>2026-04-11T07:50:14.77Z</time></trkpt><trkpt lat="44.5176118" lon="10.846018"><ele>198.0</ele><time>2026-04-11T07:50:16.815Z</time></trkpt><trkpt lat="44.5176828" lon="10.8460701"><ele>198.0</ele><time>2026-04-11T07:50:17.785Z</time></trkpt><trkpt lat="44.5177672" lon="10.8461281"><ele>198.0</ele><time>2026-04-11T07:50:18.778Z</time></trkpt><trkpt lat="44.5178625" lon="10.8461856"><ele>198.0</ele><time>2026-04-11T07:50:19.811Z</time></trkpt><trkpt lat="44.5179574" lon="10.8462404"><ele>198.0</ele><time>2026-04-11T07:50:20.79Z</time></trkpt><trkpt lat="44.518052" lon="10.8462955"><ele>198.0</ele><time>2026-04-11T07:50:21.82Z</time></trkpt><trkpt lat="44.5181433" lon="10.8463493"><ele>198.0</ele><time>2026-04-11T07:50:22.79Z</time></trkpt><trkpt lat="44.5182334" lon="10.8464021"><ele>196.60000000000002</ele><time>2026-04-11T07:50:23.799Z</time></trkpt><trkpt lat="44.5183241" lon="10.8464566"><ele>195.20000000000002</ele><time>2026-04-11T07:50:24.784Z</time></trkpt><trkpt lat="44.5184132" lon="10.8465095"><ele>193.8</ele><time>2026-04-11T07:50:25.772Z</time></trkpt><trkpt lat="44.5184986" lon="10.8465596"><ele>192.4</ele><time>2026-04-11T07:50:26.77Z</time></trkpt><trkpt lat="44.518581" lon="10.846608"><ele>191.0</ele><time>2026-04-11T07:50:27.786Z</time></trkpt><trkpt lat="44.5186603" lon="10.8466552"><ele>190.5</ele><time>2026-04-11T07:50:28.761Z</time></trkpt><trkpt lat="44.5187377" lon="10.8467003"><ele>190.0</ele><time>2026-04-11T07:50:29.771Z</time></trkpt><trkpt lat="44.5188115" lon="10.8467425"><ele>189.5</ele><time>2026-04-11T07:50:30.776Z</time></trkpt><trkpt lat="44.5188838" lon="10.8467803"><ele>189.0</ele><time>2026-04-11T07:50:31.802Z</time></trkpt><trkpt lat="44.5189545" lon="10.8468074"><ele>188.5</ele><time>2026-04-11T07:50:32.823Z</time></trkpt><trkpt lat="44.519019" lon="10.846813"><ele>188.0</ele><time>2026-04-11T07:50:33.765Z</time></trkpt><trkpt lat="44.5191263" lon="10.8467372"><ele>188.0</ele><time>2026-04-11T07:50:35.761Z</time></trkpt><trkpt lat="44.5191728" lon="10.8466547"><ele>188.0</ele><time>2026-04-11T07:50:36.783Z</time></trkpt><trkpt lat="44.5192185" lon="10.8465728"><ele>188.0</ele><time>2026-04-11T07:50:37.792Z</time></trkpt><trkpt lat="44.5192461" lon="10.8464819"><ele>188.0</ele><time>2026-04-11T07:50:38.758Z</time></trkpt><trkpt lat="44.5192662" lon="10.8463976"><ele>188.0</ele><time>2026-04-11T07:50:39.777Z</time></trkpt><trkpt lat="44.5192769" lon="10.8462344"><ele>188.0</ele><time>2026-04-11T07:50:41.778Z</time></trkpt><trkpt lat="44.5192655" lon="10.8461417"><ele>188.0</ele><time>2026-04-11T07:50:42.748Z</time></trkpt><trkpt lat="44.5192254" lon="10.8460433"><ele>188.0</ele><time>2026-04-11T07:50:43.786Z</time></trkpt><trkpt lat="44.5191656" lon="10.8459343"><ele>188.0</ele><time>2026-04-11T07:50:44.792Z</time></trkpt><trkpt lat="44.5191069" lon="10.8458318"><ele>188.0</ele><time>2026-04-11T07:50:45.821Z</time></trkpt><trkpt lat="44.5190482" lon="10.8457269"><ele>188.0</ele><time>2026-04-11T07:50:46.803Z</time></trkpt><trkpt lat="44.5189955" lon="10.8456343"><ele>188.0</ele><time>2026-04-11T07:50:47.754Z</time></trkpt><trkpt lat="44.5189458" lon="10.8455497"><ele>188.0</ele><time>2026-04-11T07:50:48.767Z</time></trkpt><trkpt lat="44.5189014" lon="10.8454711"><ele>188.0</ele><time>2026-04-11T07:50:49.785Z</time></trkpt><trkpt lat="44.5188281" lon="10.845343"><ele>188.0</ele><time>2026-04-11T07:50:51.794Z</time></trkpt><trkpt lat="44.5187531" lon="10.8452445"><ele>188.0</ele><time>2026-04-11T07:50:53.804Z</time></trkpt><trkpt lat="44.5186408" lon="10.845175"><ele>188.28571428571428</ele><time>2026-04-11T07:50:55.795Z</time></trkpt><trkpt lat="44.5185759" lon="10.845161"><ele>188.57142857142856</ele><time>2026-04-11T07:50:56.78Z</time></trkpt><trkpt lat="44.5185028" lon="10.8451442"><ele>188.85714285714286</ele><time>2026-04-11T07:50:57.755Z</time></trkpt><trkpt lat="44.5184288" lon="10.8451177"><ele>189.14285714285714</ele><time>2026-04-11T07:50:58.793Z</time></trkpt><trkpt lat="44.5183527" lon="10.8450953"><ele>189.42857142857144</ele><time>2026-04-11T07:50:59.802Z</time></trkpt><trkpt lat="44.5182817" lon="10.8450741"><ele>189.71428571428572</ele><time>2026-04-11T07:51:00.787Z</time></trkpt><trkpt lat="44.5182085" lon="10.845066"><ele>190.0</ele><time>2026-04-11T07:51:01.8Z</time></trkpt><trkpt lat="44.5181273" lon="10.8450597"><ele>190.0</ele><time>2026-04-11T07:51:02.813Z</time></trkpt><trkpt lat="44.5180503" lon="10.8450511"><ele>190.0</ele><time>2026-04-11T07:51:03.792Z</time></trkpt><trkpt lat="44.5179776" lon="10.8450487"><ele>190.0</ele><time>2026-04-11T07:51:04.792Z</time></trkpt><trkpt lat="44.5179105" lon="10.8450463"><ele>190.0</ele><time>2026-04-11T07:51:05.79Z</time></trkpt><trkpt lat="44.5178403" lon="10.8450511"><ele>190.0</ele><time>2026-04-11T07:51:06.784Z</time></trkpt><trkpt lat="44.5177736" lon="10.8450521"><ele>190.0</ele><time>2026-04-11T07:51:07.772Z</time></trkpt><trkpt lat="44.5176692" lon="10.8450473"><ele>191.0</ele><time>2026-04-11T07:51:09.787Z</time></trkpt><trkpt lat="44.5175796" lon="10.8450341"><ele>192.0</ele><time>2026-04-11T07:51:11.774Z</time></trkpt><trkpt lat="44.5174785" lon="10.8450201"><ele>193.0</ele><time>2026-04-11T07:51:13.803Z</time></trkpt><trkpt lat="44.5173616" lon="10.8450174"><ele>194.0</ele><time>2026-04-11T07:51:15.8Z</time></trkpt><trkpt lat="44.5172462" lon="10.8450047"><ele>195.0</ele><time>2026-04-11T07:51:17.774Z</time></trkpt><trkpt lat="44.5171386" lon="10.8449852"><ele>195.83333333333334</ele><time>2026-04-11T07:51:19.792Z</time></trkpt><trkpt lat="44.5170616" lon="10.8449891"><ele>196.66666666666669</ele><time>2026-04-11T07:51:21.794Z</time></trkpt><trkpt lat="44.516974" lon="10.8450175"><ele>197.5</ele><time>2026-04-11T07:51:24.798Z</time></trkpt><trkpt lat="44.5169126" lon="10.8450514"><ele>198.33333333333334</ele><time>2026-04-11T07:51:26.833Z</time></trkpt><trkpt lat="44.5168479" lon="10.845083"><ele>199.16666666666669</ele><time>2026-04-11T07:51:28.772Z</time></trkpt><trkpt lat="44.5167892" lon="10.8451573"><ele>200.0</ele><time>2026-04-11T07:51:31.753Z</time></trkpt><trkpt lat="44.5167418" lon="10.8452483"><ele>200.83333333333334</ele><time>2026-04-11T07:51:34.775Z</time></trkpt><trkpt lat="44.516702" lon="10.8453293"><ele>201.66666666666669</ele><time>2026-04-11T07:51:37.815Z</time></trkpt><trkpt lat="44.5166619" lon="10.8454079"><ele>202.5</ele><time>2026-04-11T07:51:40.801Z</time></trkpt><trkpt lat="44.5166058" lon="10.8454823"><ele>203.33333333333331</ele><time>2026-04-11T07:51:43.845Z</time></trkpt><trkpt lat="44.5165108" lon="10.8454996"><ele>204.16666666666666</ele><time>2026-04-11T07:51:45.78Z</time></trkpt><trkpt lat="44.5164071" lon="10.8454862"><ele>205.0</ele><time>2026-04-11T07:51:47.801Z</time></trkpt><trkpt lat="44.5162852" lon="10.8454891"><ele>205.66666666666666</ele><time>2026-04-11T07:51:49.793Z</time></trkpt><trkpt lat="44.5162217" lon="10.8454941"><ele>206.33333333333331</ele><time>2026-04-11T07:51:50.789Z</time></trkpt><trkpt lat="44.5161588" lon="10.8454999"><ele>207.0</ele><time>2026-04-11T07:51:51.783Z</time></trkpt><trkpt lat="44.5160315" lon="10.8455126"><ele>207.66666666666669</ele><time>2026-04-11T07:51:53.798Z</time></trkpt><trkpt lat="44.5159567" lon="10.84552"><ele>208.33333333333334</ele><time>2026-04-11T07:51:54.788Z</time></trkpt><trkpt lat="44.5158779" lon="10.8455287"><ele>209.0</ele><time>2026-04-11T07:51:55.784Z</time></trkpt><trkpt lat="44.5158003" lon="10.8455388"><ele>209.00000000000003</ele><time>2026-04-11T07:51:56.792Z</time></trkpt><trkpt lat="44.5157256" lon="10.8455526"><ele>209.0</ele><time>2026-04-11T07:51:57.801Z</time></trkpt><trkpt lat="44.5156592" lon="10.84556"><ele>209.0</ele><time>2026-04-11T07:51:58.793Z</time></trkpt><trkpt lat="44.5155777" lon="10.845574"><ele>209.0</ele><time>2026-04-11T07:51:59.804Z</time></trkpt><trkpt lat="44.5155001" lon="10.84559"><ele>209.00000000000003</ele><time>2026-04-11T07:52:00.787Z</time></trkpt><trkpt lat="44.5154146" lon="10.8456124"><ele>209.0</ele><time>2026-04-11T07:52:01.782Z</time></trkpt><trkpt lat="44.5153354" lon="10.8456383"><ele>209.83333333333334</ele><time>2026-04-11T07:52:02.791Z</time></trkpt><trkpt lat="44.515254" lon="10.8456697"><ele>210.66666666666669</ele><time>2026-04-11T07:52:03.797Z</time></trkpt><trkpt lat="44.5151649" lon="10.8457121"><ele>211.5</ele><time>2026-04-11T07:52:04.799Z</time></trkpt><trkpt lat="44.515079" lon="10.8457522"><ele>212.33333333333331</ele><time>2026-04-11T07:52:05.803Z</time></trkpt><trkpt lat="44.5149948" lon="10.8457834"><ele>213.16666666666666</ele><time>2026-04-11T07:52:06.774Z</time></trkpt><trkpt lat="44.5149094" lon="10.8458089"><ele>214.0</ele><time>2026-04-11T07:52:07.805Z</time></trkpt><trkpt lat="44.5148208" lon="10.8458298"><ele>213.99999999999997</ele><time>2026-04-11T07:52:08.803Z</time></trkpt><trkpt lat="44.5147287" lon="10.8458452"><ele>214.0</ele><time>2026-04-11T07:52:09.784Z</time></trkpt><trkpt lat="44.5146435" lon="10.8458575"><ele>214.0</ele><time>2026-04-11T07:52:10.776Z</time></trkpt><trkpt lat="44.5145597" lon="10.8458676"><ele>214.0</ele><time>2026-04-11T07:52:11.771Z</time></trkpt><trkpt lat="44.5144765" lon="10.8458724"><ele>213.99999999999997</ele><time>2026-04-11T07:52:12.75Z</time></trkpt><trkpt lat="44.5143942" lon="10.8458684"><ele>214.0</ele><time>2026-04-11T07:52:13.791Z</time></trkpt><trkpt lat="44.5143167" lon="10.8458543"><ele>214.99999999999997</ele><time>2026-04-11T07:52:14.797Z</time></trkpt><trkpt lat="44.5142396" lon="10.8458285"><ele>216.0</ele><time>2026-04-11T07:52:15.793Z</time></trkpt><trkpt lat="44.5141643" lon="10.8457864"><ele>217.0</ele><time>2026-04-11T07:52:16.806Z</time></trkpt><trkpt lat="44.514092" lon="10.8457434"><ele>218.0</ele><time>2026-04-11T07:52:17.773Z</time></trkpt><trkpt lat="44.5140209" lon="10.8456851"><ele>218.99999999999997</ele><time>2026-04-11T07:52:18.8Z</time></trkpt><trkpt lat="44.5139501" lon="10.845627"><ele>220.0</ele><time>2026-04-11T07:52:19.768Z</time></trkpt><trkpt lat="44.5138846" lon="10.8455695"><ele>219.99999999999997</ele><time>2026-04-11T07:52:20.786Z</time></trkpt><trkpt lat="44.5138196" lon="10.8455108"><ele>220.0</ele><time>2026-04-11T07:52:21.785Z</time></trkpt><trkpt lat="44.5137594" lon="10.8454506"><ele>220.0</ele><time>2026-04-11T07:52:22.806Z</time></trkpt><trkpt lat="44.5136983" lon="10.8453944"><ele>220.0</ele><time>2026-04-11T07:52:23.845Z</time></trkpt><trkpt lat="44.5136421" lon="10.8453376"><ele>219.99999999999997</ele><time>2026-04-11T07:52:24.791Z</time></trkpt><trkpt lat="44.5135335" lon="10.8452431"><ele>220.0</ele><time>2026-04-11T07:52:26.792Z</time></trkpt><trkpt lat="44.5134804" lon="10.8451942"><ele>222.16666666666666</ele><time>2026-04-11T07:52:27.782Z</time></trkpt><trkpt lat="44.5133747" lon="10.8450987"><ele>224.33333333333331</ele><time>2026-04-11T07:52:29.789Z</time></trkpt><trkpt lat="44.5133199" lon="10.8450479"><ele>226.5</ele><time>2026-04-11T07:52:30.801Z</time></trkpt><trkpt lat="44.5132621" lon="10.8449926"><ele>228.66666666666669</ele><time>2026-04-11T07:52:31.77Z</time></trkpt><trkpt lat="44.5131951" lon="10.8449414"><ele>230.83333333333334</ele><time>2026-04-11T07:52:32.783Z</time></trkpt><trkpt lat="44.5131253" lon="10.8448931"><ele>233.0</ele><time>2026-04-11T07:52:33.799Z</time></trkpt><trkpt lat="44.5130484" lon="10.8448349"><ele>233.0</ele><time>2026-04-11T07:52:34.802Z</time></trkpt><trkpt lat="44.512958" lon="10.8447658"><ele>233.0</ele><time>2026-04-11T07:52:35.792Z</time></trkpt><trkpt lat="44.5128663" lon="10.844696"><ele>233.0</ele><time>2026-04-11T07:52:36.795Z</time></trkpt><trkpt lat="44.5127726" lon="10.8446234"><ele>233.0</ele><time>2026-04-11T07:52:37.788Z</time></trkpt><trkpt lat="44.512679" lon="10.8445508"><ele>233.0</ele><time>2026-04-11T07:52:38.79Z</time></trkpt><trkpt lat="44.5126039" lon="10.8444985"><ele>234.83333333333334</ele><time>2026-04-11T07:52:39.779Z</time></trkpt><trkpt lat="44.5125408" lon="10.8444746"><ele>236.66666666666669</ele><time>2026-04-11T07:52:40.803Z</time></trkpt><trkpt lat="44.5124378" lon="10.8444566"><ele>238.5</ele><time>2026-04-11T07:52:42.775Z</time></trkpt><trkpt lat="44.5123472" lon="10.8444503"><ele>240.33333333333331</ele><time>2026-04-11T07:52:44.79Z</time></trkpt><trkpt lat="44.5122487" lon="10.8444641"><ele>242.16666666666666</ele><time>2026-04-11T07:52:46.764Z</time></trkpt><trkpt lat="44.512169" lon="10.844483"><ele>244.0</ele><time>2026-04-11T07:52:48.793Z</time></trkpt><trkpt lat="44.5120401" lon="10.8444879"><ele>245.79999999999998</ele><time>2026-04-11T07:52:50.803Z</time></trkpt><trkpt lat="44.51195" lon="10.8444783"><ele>247.59999999999997</ele><time>2026-04-11T07:52:51.799Z</time></trkpt><trkpt lat="44.5118473" lon="10.8444716"><ele>249.4</ele><time>2026-04-11T07:52:52.775Z</time></trkpt><trkpt lat="44.5117411" lon="10.8444783"><ele>251.2</ele><time>2026-04-11T07:52:53.805Z</time></trkpt><trkpt lat="44.5116378" lon="10.8444856"><ele>253.0</ele><time>2026-04-11T07:52:54.801Z</time></trkpt><trkpt lat="44.5115421" lon="10.8444957"><ele>252.99999999999997</ele><time>2026-04-11T07:52:55.81Z</time></trkpt><trkpt lat="44.5114626" lon="10.8445077"><ele>253.0</ele><time>2026-04-11T07:52:56.8Z</time></trkpt><trkpt lat="44.5113861" lon="10.844517"><ele>253.0</ele><time>2026-04-11T07:52:57.765Z</time></trkpt><trkpt lat="44.5113189" lon="10.8445288"><ele>253.0</ele><time>2026-04-11T07:52:58.794Z</time></trkpt><trkpt lat="44.5112196" lon="10.8445562"><ele>252.99999999999997</ele><time>2026-04-11T07:53:00.793Z</time></trkpt><trkpt lat="44.51114" lon="10.8445644"><ele>253.0</ele><time>2026-04-11T07:53:02.817Z</time></trkpt><trkpt lat="44.5110393" lon="10.84455"><ele>254.99999999999997</ele><time>2026-04-11T07:53:04.811Z</time></trkpt><trkpt lat="44.5109465" lon="10.8445454"><ele>257.0</ele><time>2026-04-11T07:53:06.756Z</time></trkpt><trkpt lat="44.5108456" lon="10.8445551"><ele>259.0</ele><time>2026-04-11T07:53:08.753Z</time></trkpt><trkpt lat="44.5107763" lon="10.8445629"><ele>261.0</ele><time>2026-04-11T07:53:09.751Z</time></trkpt><trkpt lat="44.5106949" lon="10.8445718"><ele>263.0</ele><time>2026-04-11T07:53:10.799Z</time></trkpt><trkpt lat="44.5106073" lon="10.8445842"><ele>265.0</ele><time>2026-04-11T07:53:11.789Z</time></trkpt><trkpt lat="44.5105266" lon="10.8446084"><ele>265.0</ele><time>2026-04-11T07:53:12.775Z</time></trkpt><trkpt lat="44.5104614" lon="10.8446313"><ele>265.0</ele><time>2026-04-11T07:53:13.771Z</time></trkpt><trkpt lat="44.5103377" lon="10.8446833"><ele>265.0</ele><time>2026-04-11T07:53:15.79Z</time></trkpt><trkpt lat="44.5102749" lon="10.8447099"><ele>265.0</ele><time>2026-04-11T07:53:16.812Z</time></trkpt><trkpt lat="44.510212" lon="10.8447259"><ele>265.0</ele><time>2026-04-11T07:53:17.793Z</time></trkpt><trkpt lat="44.5100932" lon="10.8447295"><ele>265.0</ele><time>2026-04-11T07:53:19.75Z</time></trkpt><trkpt lat="44.5099876" lon="10.8447089"><ele>265.16666666666663</ele><time>2026-04-11T07:53:21.793Z</time></trkpt><trkpt lat="44.5098927" lon="10.8446824"><ele>265.3333333333333</ele><time>2026-04-11T07:53:23.8Z</time></trkpt><trkpt lat="44.5097977" lon="10.8446464"><ele>265.5</ele><time>2026-04-11T07:53:25.787Z</time></trkpt><trkpt lat="44.5097104" lon="10.844604"><ele>265.6666666666667</ele><time>2026-04-11T07:53:27.791Z</time></trkpt><trkpt lat="44.509632" lon="10.8445618"><ele>265.83333333333337</ele><time>2026-04-11T07:53:29.844Z</time></trkpt><trkpt lat="44.509564" lon="10.8445274"><ele>266.0</ele><time>2026-04-11T07:53:31.777Z</time></trkpt><trkpt lat="44.5094909" lon="10.8444601"><ele>266.0</ele><time>2026-04-11T07:53:34.803Z</time></trkpt><trkpt lat="44.5094655" lon="10.8443778"><ele>266.0</ele><time>2026-04-11T07:53:36.766Z</time></trkpt><trkpt lat="44.5094547" lon="10.844237"><ele>266.0</ele><time>2026-04-11T07:53:38.812Z</time></trkpt><trkpt lat="44.509434" lon="10.8440652"><ele>266.0</ele><time>2026-04-11T07:53:40.835Z</time></trkpt><trkpt lat="44.5094064" lon="10.8438892"><ele>266.0</ele><time>2026-04-11T07:53:42.795Z</time></trkpt><trkpt lat="44.5093809" lon="10.8437267"><ele>265.8</ele><time>2026-04-11T07:53:44.798Z</time></trkpt><trkpt lat="44.5093638" lon="10.8435875"><ele>265.6</ele><time>2026-04-11T07:53:46.834Z</time></trkpt><trkpt lat="44.5093599" lon="10.8434567"><ele>265.4</ele><time>2026-04-11T07:53:48.775Z</time></trkpt><trkpt lat="44.5093635" lon="10.8432853"><ele>265.2</ele><time>2026-04-11T07:53:50.761Z</time></trkpt><trkpt lat="44.5093668" lon="10.8431229"><ele>265.0</ele><time>2026-04-11T07:53:52.76Z</time></trkpt><trkpt lat="44.5093522" lon="10.843029"><ele>265.0</ele><time>2026-04-11T07:53:53.795Z</time></trkpt><trkpt lat="44.5093351" lon="10.8429361"><ele>265.0</ele><time>2026-04-11T07:53:54.795Z</time></trkpt><trkpt lat="44.5093183" lon="10.842757"><ele>265.0</ele><time>2026-04-11T07:53:56.807Z</time></trkpt><trkpt lat="44.5093198" lon="10.8426579"><ele>265.0</ele><time>2026-04-11T07:53:57.805Z</time></trkpt><trkpt lat="44.5093187" lon="10.8424755"><ele>265.0</ele><time>2026-04-11T07:53:59.756Z</time></trkpt><trkpt lat="44.509316" lon="10.8423739"><ele>262.6</ele><time>2026-04-11T07:54:00.775Z</time></trkpt><trkpt lat="44.5093105" lon="10.8422814"><ele>260.2</ele><time>2026-04-11T07:54:01.78Z</time></trkpt><trkpt lat="44.5092691" lon="10.8421325"><ele>257.8</ele><time>2026-04-11T07:54:03.799Z</time></trkpt><trkpt lat="44.5091968" lon="10.8419882"><ele>255.4</ele><time>2026-04-11T07:54:05.795Z</time></trkpt><trkpt lat="44.5091106" lon="10.841861"><ele>253.0</ele><time>2026-04-11T07:54:07.768Z</time></trkpt><trkpt lat="44.5090188" lon="10.841757"><ele>252.42857142857144</ele><time>2026-04-11T07:54:09.794Z</time></trkpt><trkpt lat="44.5089621" lon="10.841709"><ele>251.85714285714286</ele><time>2026-04-11T07:54:10.79Z</time></trkpt><trkpt lat="44.5088961" lon="10.8416544"><ele>251.28571428571428</ele><time>2026-04-11T07:54:11.788Z</time></trkpt><trkpt lat="44.5088279" lon="10.8415949"><ele>250.71428571428572</ele><time>2026-04-11T07:54:12.795Z</time></trkpt><trkpt lat="44.5087606" lon="10.8415376"><ele>250.1428571428571</ele><time>2026-04-11T07:54:13.774Z</time></trkpt><trkpt lat="44.5086946" lon="10.8414797"><ele>249.57142857142856</ele><time>2026-04-11T07:54:14.799Z</time></trkpt><trkpt lat="44.5086386" lon="10.8414353"><ele>249.0</ele><time>2026-04-11T07:54:15.793Z</time></trkpt><trkpt lat="44.5085289" lon="10.8413452"><ele>249.0</ele><time>2026-04-11T07:54:17.756Z</time></trkpt><trkpt lat="44.5084654" lon="10.8413022"><ele>249.0</ele><time>2026-04-11T07:54:18.753Z</time></trkpt><trkpt lat="44.5084069" lon="10.8412656"><ele>249.0</ele><time>2026-04-11T07:54:19.754Z</time></trkpt><trkpt lat="44.5083456" lon="10.8412333"><ele>249.0</ele><time>2026-04-11T07:54:20.791Z</time></trkpt><trkpt lat="44.5082806" lon="10.8412088"><ele>249.0</ele><time>2026-04-11T07:54:21.747Z</time></trkpt><trkpt lat="44.5081644" lon="10.8411657"><ele>249.0</ele><time>2026-04-11T07:54:23.809Z</time></trkpt><trkpt lat="44.5080624" lon="10.8411043"><ele>249.0</ele><time>2026-04-11T07:54:25.807Z</time></trkpt><trkpt lat="44.5079595" lon="10.8410085"><ele>248.99999999999997</ele><time>2026-04-11T07:54:27.771Z</time></trkpt><trkpt lat="44.5078983" lon="10.8409003"><ele>248.99999999999997</ele><time>2026-04-11T07:54:29.844Z</time></trkpt><trkpt lat="44.5079161" lon="10.8407731"><ele>249.0</ele><time>2026-04-11T07:54:31.779Z</time></trkpt><trkpt lat="44.507971" lon="10.8407007"><ele>249.0</ele><time>2026-04-11T07:54:32.789Z</time></trkpt><trkpt lat="44.5080346" lon="10.8406423"><ele>246.33333333333334</ele><time>2026-04-11T07:54:33.798Z</time></trkpt><trkpt lat="44.5081063" lon="10.8405936"><ele>243.66666666666669</ele><time>2026-04-11T07:54:34.793Z</time></trkpt><trkpt lat="44.5081727" lon="10.8405596"><ele>241.0</ele><time>2026-04-11T07:54:35.796Z</time></trkpt><trkpt lat="44.5082351" lon="10.8405319"><ele>238.33333333333334</ele><time>2026-04-11T07:54:36.786Z</time></trkpt><trkpt lat="44.5082866" lon="10.8404806"><ele>235.66666666666669</ele><time>2026-04-11T07:54:37.784Z</time></trkpt><trkpt lat="44.50837" lon="10.8403734"><ele>233.0</ele><time>2026-04-11T07:54:39.802Z</time></trkpt><trkpt lat="44.508423" lon="10.8402213"><ele>228.8</ele><time>2026-04-11T07:54:41.803Z</time></trkpt><trkpt lat="44.5084609" lon="10.8400715"><ele>224.60000000000002</ele><time>2026-04-11T07:54:43.812Z</time></trkpt><trkpt lat="44.5084997" lon="10.839909"><ele>220.39999999999998</ele><time>2026-04-11T07:54:45.799Z</time></trkpt><trkpt lat="44.5085217" lon="10.8398181"><ele>216.2</ele><time>2026-04-11T07:54:46.8Z</time></trkpt><trkpt lat="44.5085459" lon="10.8397298"><ele>212.0</ele><time>2026-04-11T07:54:47.753Z</time></trkpt><trkpt lat="44.5085875" lon="10.8395706"><ele>212.0</ele><time>2026-04-11T07:54:49.793Z</time></trkpt><trkpt lat="44.5086267" lon="10.8394038"><ele>212.0</ele><time>2026-04-11T07:54:51.788Z</time></trkpt><trkpt lat="44.5086691" lon="10.8392511"><ele>212.0</ele><time>2026-04-11T07:54:53.784Z</time></trkpt><trkpt lat="44.5087005" lon="10.8391066"><ele>212.0</ele><time>2026-04-11T07:54:55.785Z</time></trkpt><trkpt lat="44.5087386" lon="10.838959"><ele>209.25</ele><time>2026-04-11T07:54:57.784Z</time></trkpt><trkpt lat="44.5087795" lon="10.8387956"><ele>206.5</ele><time>2026-04-11T07:54:59.799Z</time></trkpt><trkpt lat="44.5088227" lon="10.838643"><ele>203.75</ele><time>2026-04-11T07:55:01.785Z</time></trkpt><trkpt lat="44.5088643" lon="10.8384831"><ele>201.0</ele><time>2026-04-11T07:55:03.771Z</time></trkpt><trkpt lat="44.508903" lon="10.8383519"><ele>199.33333333333334</ele><time>2026-04-11T07:55:05.798Z</time></trkpt><trkpt lat="44.5089357" lon="10.8382427"><ele>197.66666666666666</ele><time>2026-04-11T07:55:07.782Z</time></trkpt><trkpt lat="44.5089659" lon="10.8381294"><ele>196.0</ele><time>2026-04-11T07:55:09.772Z</time></trkpt><trkpt lat="44.5089914" lon="10.8380282"><ele>194.33333333333331</ele><time>2026-04-11T07:55:11.781Z</time></trkpt><trkpt lat="44.5090203" lon="10.8379203"><ele>192.66666666666666</ele><time>2026-04-11T07:55:13.797Z</time></trkpt><trkpt lat="44.509057" lon="10.8377783"><ele>191.0</ele><time>2026-04-11T07:55:15.738Z</time></trkpt><trkpt lat="44.509095" lon="10.8376214"><ele>189.60000000000002</ele><time>2026-04-11T07:55:17.815Z</time></trkpt><trkpt lat="44.509131" lon="10.8374597"><ele>188.2</ele><time>2026-04-11T07:55:19.794Z</time></trkpt><trkpt lat="44.5091635" lon="10.8372827"><ele>186.8</ele><time>2026-04-11T07:55:21.809Z</time></trkpt><trkpt lat="44.5091887" lon="10.8371617"><ele>185.39999999999998</ele><time>2026-04-11T07:55:22.75Z</time></trkpt><trkpt lat="44.5092171" lon="10.8370317"><ele>184.0</ele><time>2026-04-11T07:55:23.81Z</time></trkpt><trkpt lat="44.5092532" lon="10.8369056"><ele>182.39999999999998</ele><time>2026-04-11T07:55:24.795Z</time></trkpt><trkpt lat="44.5092884" lon="10.8367748"><ele>180.8</ele><time>2026-04-11T07:55:25.784Z</time></trkpt><trkpt lat="44.5093226" lon="10.8366498"><ele>179.2</ele><time>2026-04-11T07:55:26.791Z</time></trkpt><trkpt lat="44.509354" lon="10.836523"><ele>177.60000000000002</ele><time>2026-04-11T07:55:27.767Z</time></trkpt><trkpt lat="44.5093853" lon="10.8364097"><ele>176.0</ele><time>2026-04-11T07:55:28.79Z</time></trkpt><trkpt lat="44.5094146" lon="10.8363051"><ele>176.0</ele><time>2026-04-11T07:55:29.786Z</time></trkpt><trkpt lat="44.5094425" lon="10.8362023"><ele>176.0</ele><time>2026-04-11T07:55:30.812Z</time></trkpt><trkpt lat="44.5094705" lon="10.8361033"><ele>176.0</ele><time>2026-04-11T07:55:31.791Z</time></trkpt><trkpt lat="44.5094957" lon="10.8360084"><ele>176.0</ele><time>2026-04-11T07:55:32.761Z</time></trkpt><trkpt lat="44.5095195" lon="10.8359151"><ele>176.0</ele><time>2026-04-11T07:55:33.79Z</time></trkpt><trkpt lat="44.5095437" lon="10.8358256"><ele>176.0</ele><time>2026-04-11T07:55:34.778Z</time></trkpt><trkpt lat="44.5095662" lon="10.8357345"><ele>176.0</ele><time>2026-04-11T07:55:35.802Z</time></trkpt><trkpt lat="44.5095913" lon="10.8356387"><ele>174.60000000000002</ele><time>2026-04-11T07:55:36.78Z</time></trkpt><trkpt lat="44.5096153" lon="10.8355421"><ele>173.2</ele><time>2026-04-11T07:55:37.794Z</time></trkpt><trkpt lat="44.509641" lon="10.8354492"><ele>171.8</ele><time>2026-04-11T07:55:38.804Z</time></trkpt><trkpt lat="44.509712" lon="10.8353176"><ele>170.39999999999998</ele><time>2026-04-11T07:55:40.791Z</time></trkpt><trkpt lat="44.5098144" lon="10.8352603"><ele>169.0</ele><time>2026-04-11T07:55:42.794Z</time></trkpt><trkpt lat="44.509904" lon="10.835246"><ele>169.0</ele><time>2026-04-11T07:55:44.742Z</time></trkpt><trkpt lat="44.5099923" lon="10.8352849"><ele>169.0</ele><time>2026-04-11T07:55:46.773Z</time></trkpt><trkpt lat="44.5100451" lon="10.8353356"><ele>169.0</ele><time>2026-04-11T07:55:47.788Z</time></trkpt><trkpt lat="44.5100975" lon="10.8353961"><ele>169.0</ele><time>2026-04-11T07:55:48.782Z</time></trkpt><trkpt lat="44.5101457" lon="10.8354582"><ele>169.0</ele><time>2026-04-11T07:55:49.792Z</time></trkpt><trkpt lat="44.5101936" lon="10.835518"><ele>169.0</ele><time>2026-04-11T07:55:50.809Z</time></trkpt><trkpt lat="44.5102497" lon="10.8355891"><ele>169.0</ele><time>2026-04-11T07:55:51.817Z</time></trkpt><trkpt lat="44.5103088" lon="10.835673"><ele>169.0</ele><time>2026-04-11T07:55:52.795Z</time></trkpt><trkpt lat="44.5103717" lon="10.8357617"><ele>169.0</ele><time>2026-04-11T07:55:53.798Z</time></trkpt><trkpt lat="44.5104332" lon="10.8358461"><ele>169.0</ele><time>2026-04-11T07:55:54.762Z</time></trkpt><trkpt lat="44.5104949" lon="10.8359315"><ele>169.0</ele><time>2026-04-11T07:55:55.763Z</time></trkpt><trkpt lat="44.5105525" lon="10.8360142"><ele>169.0</ele><time>2026-04-11T07:55:56.785Z</time></trkpt><trkpt lat="44.5106076" lon="10.8360935"><ele>169.0</ele><time>2026-04-11T07:55:57.789Z</time></trkpt><trkpt lat="44.5106612" lon="10.8361668"><ele>168.5</ele><time>2026-04-11T07:55:58.799Z</time></trkpt><trkpt lat="44.5107134" lon="10.8362334"><ele>168.0</ele><time>2026-04-11T07:55:59.797Z</time></trkpt><trkpt lat="44.5107704" lon="10.8363"><ele>167.5</ele><time>2026-04-11T07:56:00.798Z</time></trkpt><trkpt lat="44.5108339" lon="10.8363707"><ele>167.0</ele><time>2026-04-11T07:56:01.809Z</time></trkpt><trkpt lat="44.5109036" lon="10.8364449"><ele>166.5</ele><time>2026-04-11T07:56:02.787Z</time></trkpt><trkpt lat="44.5109731" lon="10.836516"><ele>166.0</ele><time>2026-04-11T07:56:03.79Z</time></trkpt><trkpt lat="44.5110431" lon="10.836579"><ele>166.0</ele><time>2026-04-11T07:56:04.792Z</time></trkpt><trkpt lat="44.5111161" lon="10.8366251"><ele>166.0</ele><time>2026-04-11T07:56:05.777Z</time></trkpt><trkpt lat="44.5111978" lon="10.8366466"><ele>166.0</ele><time>2026-04-11T07:56:06.788Z</time></trkpt><trkpt lat="44.5112883" lon="10.8366383"><ele>166.0</ele><time>2026-04-11T07:56:07.793Z</time></trkpt><trkpt lat="44.511383" lon="10.8366156"><ele>166.0</ele><time>2026-04-11T07:56:08.766Z</time></trkpt><trkpt lat="44.5114763" lon="10.8365985"><ele>166.0</ele><time>2026-04-11T07:56:09.781Z</time></trkpt><trkpt lat="44.5115672" lon="10.8365818"><ele>165.4</ele><time>2026-04-11T07:56:10.801Z</time></trkpt><trkpt lat="44.5116597" lon="10.8365692"><ele>164.8</ele><time>2026-04-11T07:56:11.79Z</time></trkpt><trkpt lat="44.5117524" lon="10.8365606"><ele>164.20000000000002</ele><time>2026-04-11T07:56:12.815Z</time></trkpt><trkpt lat="44.5118488" lon="10.8365611"><ele>163.60000000000002</ele><time>2026-04-11T07:56:13.782Z</time></trkpt><trkpt lat="44.5119425" lon="10.8365677"><ele>163.0</ele><time>2026-04-11T07:56:14.812Z</time></trkpt><trkpt lat="44.5120353" lon="10.8365769"><ele>162.20000000000002</ele><time>2026-04-11T07:56:15.781Z</time></trkpt><trkpt lat="44.5121285" lon="10.8365883"><ele>161.4</ele><time>2026-04-11T07:56:16.788Z</time></trkpt><trkpt lat="44.5122247" lon="10.8366014"><ele>160.60000000000002</ele><time>2026-04-11T07:56:17.8Z</time></trkpt><trkpt lat="44.5123203" lon="10.8366126"><ele>159.8</ele><time>2026-04-11T07:56:18.792Z</time></trkpt><trkpt lat="44.5124141" lon="10.8366279"><ele>159.0</ele><time>2026-04-11T07:56:19.789Z</time></trkpt><trkpt lat="44.5125058" lon="10.8366396"><ele>159.0</ele><time>2026-04-11T07:56:20.789Z</time></trkpt><trkpt lat="44.5125905" lon="10.8366507"><ele>159.0</ele><time>2026-04-11T07:56:21.794Z</time></trkpt><trkpt lat="44.5126713" lon="10.8366618"><ele>159.0</ele><time>2026-04-11T07:56:22.778Z</time></trkpt><trkpt lat="44.5127486" lon="10.836678"><ele>159.0</ele><time>2026-04-11T07:56:23.781Z</time></trkpt><trkpt lat="44.5128151" lon="10.836693"><ele>159.0</ele><time>2026-04-11T07:56:24.796Z</time></trkpt><trkpt lat="44.512932" lon="10.8366876"><ele>159.0</ele><time>2026-04-11T07:56:26.809Z</time></trkpt><trkpt lat="44.513014" lon="10.8365692"><ele>159.0</ele><time>2026-04-11T07:56:28.812Z</time></trkpt><trkpt lat="44.5130405" lon="10.8364806"><ele>159.0</ele><time>2026-04-11T07:56:29.789Z</time></trkpt><trkpt lat="44.5130632" lon="10.8363948"><ele>159.0</ele><time>2026-04-11T07:56:30.784Z</time></trkpt><trkpt lat="44.5131053" lon="10.8362368"><ele>159.0</ele><time>2026-04-11T07:56:32.784Z</time></trkpt><trkpt lat="44.5131386" lon="10.8361096"><ele>159.0</ele><time>2026-04-11T07:56:34.792Z</time></trkpt><trkpt lat="44.5131431" lon="10.8360171"><ele>159.0</ele><time>2026-04-11T07:56:36.787Z</time></trkpt><trkpt lat="44.5130543" lon="10.8359013"><ele>159.0</ele><time>2026-04-11T07:56:38.799Z</time></trkpt><trkpt lat="44.5129738" lon="10.8358353"><ele>159.0</ele><time>2026-04-11T07:56:39.795Z</time></trkpt><trkpt lat="44.5128912" lon="10.835766"><ele>159.0</ele><time>2026-04-11T07:56:40.795Z</time></trkpt><trkpt lat="44.512804" lon="10.8356885"><ele>159.0</ele><time>2026-04-11T07:56:41.794Z</time></trkpt><trkpt lat="44.5127173" lon="10.8356125"><ele>159.0</ele><time>2026-04-11T07:56:42.787Z</time></trkpt><trkpt lat="44.512636" lon="10.8355374"><ele>159.0</ele><time>2026-04-11T07:56:43.797Z</time></trkpt><trkpt lat="44.5125549" lon="10.8354583"><ele>159.0</ele><time>2026-04-11T07:56:44.799Z</time></trkpt><trkpt lat="44.512473" lon="10.8353749"><ele>159.0</ele><time>2026-04-11T07:56:45.793Z</time></trkpt><trkpt lat="44.5123939" lon="10.835284"><ele>159.0</ele><time>2026-04-11T07:56:46.801Z</time></trkpt><trkpt lat="44.5123218" lon="10.8351827"><ele>159.0</ele><time>2026-04-11T07:56:47.785Z</time></trkpt><trkpt lat="44.512254" lon="10.835077"><ele>159.0</ele><time>2026-04-11T07:56:48.799Z</time></trkpt><trkpt lat="44.512189" lon="10.8349744"><ele>159.0</ele><time>2026-04-11T07:56:49.809Z</time></trkpt><trkpt lat="44.5121287" lon="10.8348769"><ele>159.0</ele><time>2026-04-11T07:56:50.797Z</time></trkpt><trkpt lat="44.5120761" lon="10.8347912"><ele>159.0</ele><time>2026-04-11T07:56:51.794Z</time></trkpt><trkpt lat="44.5120314" lon="10.8347127"><ele>159.0</ele><time>2026-04-11T07:56:52.791Z</time></trkpt><trkpt lat="44.5119936" lon="10.8346343"><ele>159.0</ele><time>2026-04-11T07:56:53.807Z</time></trkpt><trkpt lat="44.5119614" lon="10.8345575"><ele>158.85714285714286</ele><time>2026-04-11T07:56:54.793Z</time></trkpt><trkpt lat="44.5119332" lon="10.8344733"><ele>158.71428571428572</ele><time>2026-04-11T07:56:55.789Z</time></trkpt><trkpt lat="44.511914" lon="10.8343776"><ele>158.57142857142858</ele><time>2026-04-11T07:56:56.786Z</time></trkpt><trkpt lat="44.5119056" lon="10.8342781"><ele>158.42857142857144</ele><time>2026-04-11T07:56:57.784Z</time></trkpt><trkpt lat="44.5119068" lon="10.8341781"><ele>158.28571428571428</ele><time>2026-04-11T07:56:58.783Z</time></trkpt><trkpt lat="44.5119168" lon="10.8340791"><ele>158.14285714285717</ele><time>2026-04-11T07:56:59.823Z</time></trkpt><trkpt lat="44.5119327" lon="10.8339798"><ele>158.0</ele><time>2026-04-11T07:57:00.808Z</time></trkpt><trkpt lat="44.5119495" lon="10.8338891"><ele>158.60000000000002</ele><time>2026-04-11T07:57:01.797Z</time></trkpt><trkpt lat="44.5119844" lon="10.8337307"><ele>159.20000000000002</ele><time>2026-04-11T07:57:03.792Z</time></trkpt><trkpt lat="44.5120139" lon="10.8336002"><ele>159.8</ele><time>2026-04-11T07:57:05.792Z</time></trkpt><trkpt lat="44.5120454" lon="10.833464"><ele>160.4</ele><time>2026-04-11T07:57:07.786Z</time></trkpt><trkpt lat="44.5120874" lon="10.8332988"><ele>161.0</ele><time>2026-04-11T07:57:09.794Z</time></trkpt><trkpt lat="44.512111" lon="10.8331989"><ele>162.5</ele><time>2026-04-11T07:57:10.79Z</time></trkpt><trkpt lat="44.5121353" lon="10.8331021"><ele>164.0</ele><time>2026-04-11T07:57:11.798Z</time></trkpt><trkpt lat="44.5121595" lon="10.8330055"><ele>165.5</ele><time>2026-04-11T07:57:12.791Z</time></trkpt><trkpt lat="44.5121828" lon="10.8329023"><ele>167.0</ele><time>2026-04-11T07:57:13.809Z</time></trkpt><trkpt lat="44.5122066" lon="10.8327925"><ele>168.5</ele><time>2026-04-11T07:57:14.795Z</time></trkpt><trkpt lat="44.5122311" lon="10.832679"><ele>170.0</ele><time>2026-04-11T07:57:15.802Z</time></trkpt><trkpt lat="44.5122534" lon="10.8325676"><ele>170.0</ele><time>2026-04-11T07:57:16.78Z</time></trkpt><trkpt lat="44.5122739" lon="10.8324577"><ele>170.0</ele><time>2026-04-11T07:57:17.777Z</time></trkpt><trkpt lat="44.5122912" lon="10.8323507"><ele>170.0</ele><time>2026-04-11T07:57:18.796Z</time></trkpt><trkpt lat="44.5123031" lon="10.832247"><ele>170.0</ele><time>2026-04-11T07:57:19.799Z</time></trkpt><trkpt lat="44.512311" lon="10.8321411"><ele>170.0</ele><time>2026-04-11T07:57:20.785Z</time></trkpt><trkpt lat="44.5123173" lon="10.8320304"><ele>170.0</ele><time>2026-04-11T07:57:21.78Z</time></trkpt><trkpt lat="44.5123221" lon="10.8319185"><ele>170.0</ele><time>2026-04-11T07:57:22.823Z</time></trkpt><trkpt lat="44.5123225" lon="10.8318113"><ele>170.0</ele><time>2026-04-11T07:57:23.78Z</time></trkpt><trkpt lat="44.5123184" lon="10.8317016"><ele>170.0</ele><time>2026-04-11T07:57:24.781Z</time></trkpt><trkpt lat="44.5123119" lon="10.8315906"><ele>170.0</ele><time>2026-04-11T07:57:25.76Z</time></trkpt><trkpt lat="44.5122998" lon="10.8314766"><ele>170.0</ele><time>2026-04-11T07:57:26.787Z</time></trkpt><trkpt lat="44.5122831" lon="10.8313574"><ele>170.0</ele><time>2026-04-11T07:57:27.77Z</time></trkpt><trkpt lat="44.5122665" lon="10.8312373"><ele>169.83333333333331</ele><time>2026-04-11T07:57:28.827Z</time></trkpt><trkpt lat="44.5122501" lon="10.8311231"><ele>169.66666666666666</ele><time>2026-04-11T07:57:29.784Z</time></trkpt><trkpt lat="44.5122353" lon="10.8310133"><ele>169.5</ele><time>2026-04-11T07:57:30.765Z</time></trkpt><trkpt lat="44.5122181" lon="10.8308938"><ele>169.33333333333334</ele><time>2026-04-11T07:57:31.767Z</time></trkpt><trkpt lat="44.5121973" lon="10.8307696"><ele>169.16666666666669</ele><time>2026-04-11T07:57:32.794Z</time></trkpt><trkpt lat="44.5121718" lon="10.8306438"><ele>169.0</ele><time>2026-04-11T07:57:33.792Z</time></trkpt><trkpt lat="44.5121435" lon="10.8305269"><ele>168.5</ele><time>2026-04-11T07:57:34.774Z</time></trkpt><trkpt lat="44.5121127" lon="10.8304209"><ele>168.0</ele><time>2026-04-11T07:57:35.793Z</time></trkpt><trkpt lat="44.512083" lon="10.8303234"><ele>167.5</ele><time>2026-04-11T07:57:36.784Z</time></trkpt><trkpt lat="44.5120521" lon="10.8302301"><ele>167.0</ele><time>2026-04-11T07:57:37.778Z</time></trkpt><trkpt lat="44.5120178" lon="10.8301321"><ele>166.5</ele><time>2026-04-11T07:57:38.782Z</time></trkpt><trkpt lat="44.5119805" lon="10.8300279"><ele>166.0</ele><time>2026-04-11T07:57:39.757Z</time></trkpt><trkpt lat="44.5119398" lon="10.8299138"><ele>168.20000000000002</ele><time>2026-04-11T07:57:40.778Z</time></trkpt><trkpt lat="44.5118961" lon="10.8297916"><ele>170.4</ele><time>2026-04-11T07:57:41.771Z</time></trkpt><trkpt lat="44.5118535" lon="10.829672"><ele>172.6</ele><time>2026-04-11T07:57:42.736Z</time></trkpt><trkpt lat="44.5118168" lon="10.8295667"><ele>174.8</ele><time>2026-04-11T07:57:43.75Z</time></trkpt><trkpt lat="44.5117875" lon="10.8294798"><ele>177.0</ele><time>2026-04-11T07:57:44.82Z</time></trkpt><trkpt lat="44.5117342" lon="10.8293247"><ele>175.6</ele><time>2026-04-11T07:57:46.843Z</time></trkpt><trkpt lat="44.5116852" lon="10.8291746"><ele>174.2</ele><time>2026-04-11T07:57:48.806Z</time></trkpt><trkpt lat="44.5116499" lon="10.8290537"><ele>172.8</ele><time>2026-04-11T07:57:50.772Z</time></trkpt><trkpt lat="44.5116143" lon="10.8289433"><ele>171.4</ele><time>2026-04-11T07:57:52.79Z</time></trkpt><trkpt lat="44.5115652" lon="10.8287992"><ele>170.0</ele><time>2026-04-11T07:57:54.805Z</time></trkpt><trkpt lat="44.5115334" lon="10.8287037"><ele>170.0</ele><time>2026-04-11T07:57:55.778Z</time></trkpt><trkpt lat="44.5115011" lon="10.8286042"><ele>170.0</ele><time>2026-04-11T07:57:56.786Z</time></trkpt><trkpt lat="44.5114673" lon="10.8284966"><ele>170.0</ele><time>2026-04-11T07:57:57.772Z</time></trkpt><trkpt lat="44.5114292" lon="10.8283823"><ele>170.0</ele><time>2026-04-11T07:57:58.776Z</time></trkpt><trkpt lat="44.5113932" lon="10.8282737"><ele>170.0</ele><time>2026-04-11T07:57:59.783Z</time></trkpt><trkpt lat="44.5113593" lon="10.8281698"><ele>170.0</ele><time>2026-04-11T07:58:00.792Z</time></trkpt><trkpt lat="44.5113276" lon="10.8280724"><ele>170.83333333333331</ele><time>2026-04-11T07:58:01.776Z</time></trkpt><trkpt lat="44.5112948" lon="10.8279759"><ele>171.66666666666666</ele><time>2026-04-11T07:58:02.794Z</time></trkpt><trkpt lat="44.5112659" lon="10.8278828"><ele>172.5</ele><time>2026-04-11T07:58:03.773Z</time></trkpt><trkpt lat="44.5112378" lon="10.8277919"><ele>173.33333333333334</ele><time>2026-04-11T07:58:04.782Z</time></trkpt><trkpt lat="44.511215" lon="10.8277071"><ele>174.16666666666669</ele><time>2026-04-11T07:58:05.799Z</time></trkpt><trkpt lat="44.5111871" lon="10.8275553"><ele>175.0</ele><time>2026-04-11T07:58:07.829Z</time></trkpt><trkpt lat="44.5111955" lon="10.8274428"><ele>175.0</ele><time>2026-04-11T07:58:09.864Z</time></trkpt><trkpt lat="44.511216" lon="10.8273524"><ele>175.0</ele><time>2026-04-11T07:58:13.774Z</time></trkpt><trkpt lat="44.511254" lon="10.8272708"><ele>175.0</ele><time>2026-04-11T07:58:17.786Z</time></trkpt><trkpt lat="44.5112813" lon="10.8271862"><ele>175.0</ele><time>2026-04-11T07:59:24.8Z</time></trkpt><trkpt lat="44.5113341" lon="10.8270824"><ele>175.0</ele><time>2026-04-11T07:59:26.802Z</time></trkpt><trkpt lat="44.5114179" lon="10.8269325"><ele>175.0</ele><time>2026-04-11T07:59:28.791Z</time></trkpt><trkpt lat="44.5114656" lon="10.826844"><ele>175.4</ele><time>2026-04-11T07:59:29.794Z</time></trkpt><trkpt lat="44.511517" lon="10.8267491"><ele>175.8</ele><time>2026-04-11T07:59:30.761Z</time></trkpt><trkpt lat="44.5115739" lon="10.8266603"><ele>176.2</ele><time>2026-04-11T07:59:31.792Z</time></trkpt><trkpt lat="44.511646" lon="10.8265729"><ele>176.6</ele><time>2026-04-11T07:59:32.77Z</time></trkpt><trkpt lat="44.5117346" lon="10.8264862"><ele>177.0</ele><time>2026-04-11T07:59:33.762Z</time></trkpt><trkpt lat="44.5118243" lon="10.826406"><ele>177.0</ele><time>2026-04-11T07:59:34.789Z</time></trkpt><trkpt lat="44.5119062" lon="10.8263294"><ele>177.0</ele><time>2026-04-11T07:59:35.781Z</time></trkpt><trkpt lat="44.5119786" lon="10.8262523"><ele>177.0</ele><time>2026-04-11T07:59:36.772Z</time></trkpt><trkpt lat="44.5120448" lon="10.8261801"><ele>177.0</ele><time>2026-04-11T07:59:37.779Z</time></trkpt><trkpt lat="44.5120841" lon="10.8260997"><ele>177.0</ele><time>2026-04-11T07:59:38.764Z</time></trkpt><trkpt lat="44.512089" lon="10.825997"><ele>177.0</ele><time>2026-04-11T07:59:39.756Z</time></trkpt><trkpt lat="44.5120772" lon="10.8258681"><ele>179.2</ele><time>2026-04-11T07:59:40.792Z</time></trkpt><trkpt lat="44.5120522" lon="10.8257421"><ele>181.39999999999998</ele><time>2026-04-11T07:59:41.778Z</time></trkpt><trkpt lat="44.512028" lon="10.8256169"><ele>183.60000000000002</ele><time>2026-04-11T07:59:42.784Z</time></trkpt><trkpt lat="44.5120065" lon="10.8255139"><ele>185.8</ele><time>2026-04-11T07:59:43.826Z</time></trkpt><trkpt lat="44.5119781" lon="10.8253641"><ele>188.0</ele><time>2026-04-11T07:59:45.795Z</time></trkpt><trkpt lat="44.5120216" lon="10.8252412"><ele>187.60000000000002</ele><time>2026-04-11T07:59:47.792Z</time></trkpt><trkpt lat="44.5121032" lon="10.8252571"><ele>187.20000000000002</ele><time>2026-04-11T07:59:49.774Z</time></trkpt><trkpt lat="44.5121983" lon="10.8253955"><ele>186.8</ele><time>2026-04-11T07:59:51.777Z</time></trkpt><trkpt lat="44.5122486" lon="10.8255153"><ele>186.4</ele><time>2026-04-11T07:59:52.787Z</time></trkpt><trkpt lat="44.512301" lon="10.8256315"><ele>186.0</ele><time>2026-04-11T07:59:53.781Z</time></trkpt><trkpt lat="44.5123594" lon="10.8257402"><ele>186.0</ele><time>2026-04-11T07:59:54.793Z</time></trkpt><trkpt lat="44.5124343" lon="10.8258375"><ele>186.0</ele><time>2026-04-11T07:59:55.793Z</time></trkpt><trkpt lat="44.5125223" lon="10.8259227"><ele>186.0</ele><time>2026-04-11T07:59:56.773Z</time></trkpt><trkpt lat="44.5126192" lon="10.8259976"><ele>186.0</ele><time>2026-04-11T07:59:57.773Z</time></trkpt><trkpt lat="44.5127133" lon="10.8260616"><ele>186.0</ele><time>2026-04-11T07:59:58.782Z</time></trkpt><trkpt lat="44.5128025" lon="10.8261204"><ele>185.8</ele><time>2026-04-11T07:59:59.831Z</time></trkpt><trkpt lat="44.5128909" lon="10.8261784"><ele>185.60000000000002</ele><time>2026-04-11T08:00:00.776Z</time></trkpt><trkpt lat="44.5129801" lon="10.8262365"><ele>185.4</ele><time>2026-04-11T08:00:01.781Z</time></trkpt><trkpt lat="44.513065" lon="10.8262888"><ele>185.2</ele><time>2026-04-11T08:00:02.792Z</time></trkpt><trkpt lat="44.5131518" lon="10.8263179"><ele>185.0</ele><time>2026-04-11T08:00:03.743Z</time></trkpt><trkpt lat="44.5132436" lon="10.8263171"><ele>186.6</ele><time>2026-04-11T08:00:04.802Z</time></trkpt><trkpt lat="44.5133404" lon="10.8262882"><ele>188.2</ele><time>2026-04-11T08:00:05.765Z</time></trkpt><trkpt lat="44.5134443" lon="10.8262387"><ele>189.8</ele><time>2026-04-11T08:00:06.787Z</time></trkpt><trkpt lat="44.5135554" lon="10.8261824"><ele>191.4</ele><time>2026-04-11T08:00:07.791Z</time></trkpt><trkpt lat="44.5136706" lon="10.8261269"><ele>193.0</ele><time>2026-04-11T08:00:08.772Z</time></trkpt><trkpt lat="44.5137814" lon="10.8260675"><ele>195.2</ele><time>2026-04-11T08:00:09.779Z</time></trkpt><trkpt lat="44.5138837" lon="10.8260019"><ele>197.4</ele><time>2026-04-11T08:00:10.778Z</time></trkpt><trkpt lat="44.5139821" lon="10.8259319"><ele>199.6</ele><time>2026-04-11T08:00:11.781Z</time></trkpt><trkpt lat="44.5140765" lon="10.8258582"><ele>201.79999999999998</ele><time>2026-04-11T08:00:12.795Z</time></trkpt><trkpt lat="44.5141698" lon="10.8257856"><ele>204.0</ele><time>2026-04-11T08:00:13.784Z</time></trkpt><trkpt lat="44.5142633" lon="10.8257144"><ele>204.0</ele><time>2026-04-11T08:00:14.78Z</time></trkpt><trkpt lat="44.5143561" lon="10.8256435"><ele>204.0</ele><time>2026-04-11T08:00:15.792Z</time></trkpt><trkpt lat="44.5144435" lon="10.8255774"><ele>204.0</ele><time>2026-04-11T08:00:16.786Z</time></trkpt><trkpt lat="44.5145227" lon="10.8255127"><ele>204.0</ele><time>2026-04-11T08:00:17.783Z</time></trkpt><trkpt lat="44.5145936" lon="10.8254468"><ele>204.0</ele><time>2026-04-11T08:00:18.796Z</time></trkpt><trkpt lat="44.5146563" lon="10.8253665"><ele>206.0</ele><time>2026-04-11T08:00:19.773Z</time></trkpt><trkpt lat="44.5147055" lon="10.8252697"><ele>208.0</ele><time>2026-04-11T08:00:20.787Z</time></trkpt><trkpt lat="44.5147391" lon="10.825156"><ele>209.99999999999997</ele><time>2026-04-11T08:00:21.768Z</time></trkpt><trkpt lat="44.5147636" lon="10.8250299"><ele>212.0</ele><time>2026-04-11T08:00:22.797Z</time></trkpt><trkpt lat="44.5147846" lon="10.8248921"><ele>214.0</ele><time>2026-04-11T08:00:23.772Z</time></trkpt><trkpt lat="44.5148067" lon="10.8247531"><ele>214.0</ele><time>2026-04-11T08:00:24.784Z</time></trkpt><trkpt lat="44.5148327" lon="10.8246164"><ele>213.99999999999997</ele><time>2026-04-11T08:00:25.794Z</time></trkpt><trkpt lat="44.5148614" lon="10.8244841"><ele>213.99999999999997</ele><time>2026-04-11T08:00:26.779Z</time></trkpt><trkpt lat="44.5148928" lon="10.8243578"><ele>214.0</ele><time>2026-04-11T08:00:27.789Z</time></trkpt><trkpt lat="44.5149286" lon="10.8242264"><ele>214.0</ele><time>2026-04-11T08:00:28.796Z</time></trkpt><trkpt lat="44.5149609" lon="10.8240812"><ele>213.79999999999998</ele><time>2026-04-11T08:00:29.765Z</time></trkpt><trkpt lat="44.5149904" lon="10.823948"><ele>213.59999999999997</ele><time>2026-04-11T08:00:30.789Z</time></trkpt><trkpt lat="44.5150144" lon="10.8238229"><ele>213.4</ele><time>2026-04-11T08:00:31.786Z</time></trkpt><trkpt lat="44.515024" lon="10.8236859"><ele>213.2</ele><time>2026-04-11T08:00:32.765Z</time></trkpt><trkpt lat="44.5150306" lon="10.8235504"><ele>213.0</ele><time>2026-04-11T08:00:33.799Z</time></trkpt><trkpt lat="44.5150368" lon="10.8234128"><ele>213.0</ele><time>2026-04-11T08:00:34.801Z</time></trkpt><trkpt lat="44.5150395" lon="10.8232729"><ele>213.0</ele><time>2026-04-11T08:00:35.818Z</time></trkpt><trkpt lat="44.515037" lon="10.8231311"><ele>213.0</ele><time>2026-04-11T08:00:36.803Z</time></trkpt><trkpt lat="44.5150311" lon="10.8229925"><ele>213.0</ele><time>2026-04-11T08:00:37.793Z</time></trkpt><trkpt lat="44.515022" lon="10.8228536"><ele>213.0</ele><time>2026-04-11T08:00:38.796Z</time></trkpt><trkpt lat="44.5150107" lon="10.8227155"><ele>213.0</ele><time>2026-04-11T08:00:39.797Z</time></trkpt><trkpt lat="44.515" lon="10.8225792"><ele>213.0</ele><time>2026-04-11T08:00:40.799Z</time></trkpt><trkpt lat="44.5149896" lon="10.8224427"><ele>213.0</ele><time>2026-04-11T08:00:41.792Z</time></trkpt><trkpt lat="44.5149742" lon="10.8223076"><ele>213.0</ele><time>2026-04-11T08:00:42.806Z</time></trkpt><trkpt lat="44.5149587" lon="10.8221672"><ele>213.0</ele><time>2026-04-11T08:00:43.802Z</time></trkpt><trkpt lat="44.5149405" lon="10.8220268"><ele>213.0</ele><time>2026-04-11T08:00:44.78Z</time></trkpt><trkpt lat="44.5149222" lon="10.8218978"><ele>213.0</ele><time>2026-04-11T08:00:45.781Z</time></trkpt><trkpt lat="44.5149026" lon="10.8217574"><ele>213.0</ele><time>2026-04-11T08:00:46.792Z</time></trkpt><trkpt lat="44.5148845" lon="10.8216111"><ele>213.0</ele><time>2026-04-11T08:00:47.79Z</time></trkpt><trkpt lat="44.5148668" lon="10.8214598"><ele>213.0</ele><time>2026-04-11T08:00:48.785Z</time></trkpt><trkpt lat="44.5148491" lon="10.8213217"><ele>214.16666666666666</ele><time>2026-04-11T08:00:49.763Z</time></trkpt><trkpt lat="44.5148302" lon="10.8212006"><ele>215.33333333333331</ele><time>2026-04-11T08:00:50.78Z</time></trkpt><trkpt lat="44.5148097" lon="10.8210865"><ele>216.5</ele><time>2026-04-11T08:00:51.799Z</time></trkpt><trkpt lat="44.5147933" lon="10.8209777"><ele>217.66666666666666</ele><time>2026-04-11T08:00:52.788Z</time></trkpt><trkpt lat="44.5147934" lon="10.8208714"><ele>218.83333333333331</ele><time>2026-04-11T08:00:53.771Z</time></trkpt><trkpt lat="44.5148158" lon="10.8207726"><ele>220.0</ele><time>2026-04-11T08:00:54.768Z</time></trkpt><trkpt lat="44.5148609" lon="10.8206827"><ele>220.99999999999997</ele><time>2026-04-11T08:00:55.767Z</time></trkpt><trkpt lat="44.5149258" lon="10.8206048"><ele>222.0</ele><time>2026-04-11T08:00:56.779Z</time></trkpt><trkpt lat="44.5150078" lon="10.8205409"><ele>223.0</ele><time>2026-04-11T08:00:57.78Z</time></trkpt><trkpt lat="44.515095" lon="10.8204899"><ele>224.0</ele><time>2026-04-11T08:00:58.775Z</time></trkpt><trkpt lat="44.5151761" lon="10.8204455"><ele>224.99999999999997</ele><time>2026-04-11T08:00:59.827Z</time></trkpt><trkpt lat="44.5152472" lon="10.8204061"><ele>226.0</ele><time>2026-04-11T08:01:00.787Z</time></trkpt><trkpt lat="44.515303" lon="10.8203637"><ele>225.99999999999997</ele><time>2026-04-11T08:01:01.782Z</time></trkpt><trkpt lat="44.5153651" lon="10.8202695"><ele>226.0</ele><time>2026-04-11T08:01:03.782Z</time></trkpt><trkpt lat="44.5153254" lon="10.8201582"><ele>226.0</ele><time>2026-04-11T08:01:05.757Z</time></trkpt><trkpt lat="44.5152618" lon="10.8201526"><ele>226.0</ele><time>2026-04-11T08:01:06.756Z</time></trkpt><trkpt lat="44.5151777" lon="10.82015"><ele>225.99999999999997</ele><time>2026-04-11T08:01:07.772Z</time></trkpt><trkpt lat="44.5150925" lon="10.8201378"><ele>226.0</ele><time>2026-04-11T08:01:08.786Z</time></trkpt><trkpt lat="44.5150105" lon="10.8201058"><ele>227.83333333333331</ele><time>2026-04-11T08:01:09.789Z</time></trkpt><trkpt lat="44.5149349" lon="10.820048"><ele>229.66666666666666</ele><time>2026-04-11T08:01:10.759Z</time></trkpt><trkpt lat="44.5148766" lon="10.8199776"><ele>231.5</ele><time>2026-04-11T08:01:11.823Z</time></trkpt><trkpt lat="44.5148275" lon="10.8198956"><ele>233.33333333333331</ele><time>2026-04-11T08:01:12.777Z</time></trkpt><trkpt lat="44.514779" lon="10.8198076"><ele>235.16666666666666</ele><time>2026-04-11T08:01:13.775Z</time></trkpt><trkpt lat="44.5147313" lon="10.8197043"><ele>237.0</ele><time>2026-04-11T08:01:14.801Z</time></trkpt><trkpt lat="44.5146793" lon="10.8196002"><ele>237.0</ele><time>2026-04-11T08:01:15.802Z</time></trkpt><trkpt lat="44.5146306" lon="10.8195034"><ele>237.0</ele><time>2026-04-11T08:01:16.804Z</time></trkpt><trkpt lat="44.5145894" lon="10.8194201"><ele>237.0</ele><time>2026-04-11T08:01:17.74Z</time></trkpt><trkpt lat="44.5145478" lon="10.8193395"><ele>237.0</ele><time>2026-04-11T08:01:18.774Z</time></trkpt><trkpt lat="44.5144955" lon="10.8192542"><ele>237.0</ele><time>2026-04-11T08:01:19.775Z</time></trkpt><trkpt lat="44.5144196" lon="10.8191677"><ele>237.0</ele><time>2026-04-11T08:01:20.792Z</time></trkpt><trkpt lat="44.5143532" lon="10.8190876"><ele>237.66666666666666</ele><time>2026-04-11T08:01:21.786Z</time></trkpt><trkpt lat="44.5142903" lon="10.819004"><ele>238.33333333333331</ele><time>2026-04-11T08:01:22.769Z</time></trkpt><trkpt lat="44.5142248" lon="10.8189245"><ele>239.0</ele><time>2026-04-11T08:01:23.792Z</time></trkpt><trkpt lat="44.5141559" lon="10.8188648"><ele>239.66666666666666</ele><time>2026-04-11T08:01:24.791Z</time></trkpt><trkpt lat="44.5140798" lon="10.8188207"><ele>240.33333333333331</ele><time>2026-04-11T08:01:25.802Z</time></trkpt><trkpt lat="44.5139953" lon="10.8187853"><ele>241.0</ele><time>2026-04-11T08:01:26.797Z</time></trkpt><trkpt lat="44.513899" lon="10.8187593"><ele>241.0</ele><time>2026-04-11T08:01:27.777Z</time></trkpt><trkpt lat="44.5137922" lon="10.8187395"><ele>241.00000000000003</ele><time>2026-04-11T08:01:28.783Z</time></trkpt><trkpt lat="44.5136793" lon="10.8187212"><ele>241.00000000000003</ele><time>2026-04-11T08:01:29.793Z</time></trkpt><trkpt lat="44.5135747" lon="10.8187076"><ele>241.0</ele><time>2026-04-11T08:01:30.792Z</time></trkpt><trkpt lat="44.5134743" lon="10.8187006"><ele>241.0</ele><time>2026-04-11T08:01:31.776Z</time></trkpt><trkpt lat="44.5133803" lon="10.8186999"><ele>241.0</ele><time>2026-04-11T08:01:32.803Z</time></trkpt><trkpt lat="44.513283" lon="10.8187065"><ele>241.00000000000003</ele><time>2026-04-11T08:01:33.786Z</time></trkpt><trkpt lat="44.513184" lon="10.8187183"><ele>241.00000000000003</ele><time>2026-04-11T08:01:34.847Z</time></trkpt><trkpt lat="44.5130866" lon="10.8187307"><ele>241.0</ele><time>2026-04-11T08:01:35.811Z</time></trkpt><trkpt lat="44.5129878" lon="10.8187323"><ele>241.0</ele><time>2026-04-11T08:01:36.792Z</time></trkpt><trkpt lat="44.512885" lon="10.8187226"><ele>242.99999999999997</ele><time>2026-04-11T08:01:37.794Z</time></trkpt><trkpt lat="44.5127833" lon="10.8187143"><ele>245.0</ele><time>2026-04-11T08:01:38.784Z</time></trkpt><trkpt lat="44.5126964" lon="10.8187172"><ele>247.0</ele><time>2026-04-11T08:01:39.802Z</time></trkpt><trkpt lat="44.5126271" lon="10.8187299"><ele>249.0</ele><time>2026-04-11T08:01:40.77Z</time></trkpt><trkpt lat="44.512523" lon="10.8187786"><ele>250.99999999999997</ele><time>2026-04-11T08:01:42.76Z</time></trkpt><trkpt lat="44.5124463" lon="10.8188072"><ele>253.0</ele><time>2026-04-11T08:01:44.791Z</time></trkpt><trkpt lat="44.5123746" lon="10.8188046"><ele>252.99999999999997</ele><time>2026-04-11T08:01:48.777Z</time></trkpt><trkpt lat="44.5122996" lon="10.8188225"><ele>253.0</ele><time>2026-04-11T08:01:51.781Z</time></trkpt><trkpt lat="44.5121894" lon="10.8188359"><ele>253.0</ele><time>2026-04-11T08:01:53.789Z</time></trkpt><trkpt lat="44.512117" lon="10.8188455"><ele>253.0</ele><time>2026-04-11T08:01:54.771Z</time></trkpt><trkpt lat="44.5120448" lon="10.8188693"><ele>252.99999999999997</ele><time>2026-04-11T08:01:55.787Z</time></trkpt><trkpt lat="44.5119696" lon="10.8189051"><ele>253.0</ele><time>2026-04-11T08:01:56.775Z</time></trkpt><trkpt lat="44.5118915" lon="10.8189424"><ele>256.4</ele><time>2026-04-11T08:01:57.806Z</time></trkpt><trkpt lat="44.5118036" lon="10.8189847"><ele>259.8</ele><time>2026-04-11T08:01:58.803Z</time></trkpt><trkpt lat="44.5117149" lon="10.8190313"><ele>263.2</ele><time>2026-04-11T08:01:59.762Z</time></trkpt><trkpt lat="44.5116248" lon="10.8190857"><ele>266.6</ele><time>2026-04-11T08:02:00.796Z</time></trkpt><trkpt lat="44.5115352" lon="10.8191451"><ele>270.0</ele><time>2026-04-11T08:02:01.771Z</time></trkpt><trkpt lat="44.5114498" lon="10.8192037"><ele>270.0</ele><time>2026-04-11T08:02:02.771Z</time></trkpt><trkpt lat="44.5113661" lon="10.819263"><ele>270.0</ele><time>2026-04-11T08:02:03.773Z</time></trkpt><trkpt lat="44.5112906" lon="10.8193154"><ele>270.0</ele><time>2026-04-11T08:02:04.778Z</time></trkpt><trkpt lat="44.511221" lon="10.8193595"><ele>270.0</ele><time>2026-04-11T08:02:05.777Z</time></trkpt><trkpt lat="44.5111503" lon="10.8193915"><ele>270.0</ele><time>2026-04-11T08:02:06.774Z</time></trkpt><trkpt lat="44.5110688" lon="10.8194246"><ele>270.0</ele><time>2026-04-11T08:02:07.798Z</time></trkpt><trkpt lat="44.510979" lon="10.8194582"><ele>272.1666666666667</ele><time>2026-04-11T08:02:08.758Z</time></trkpt><trkpt lat="44.510896" lon="10.8194857"><ele>274.3333333333333</ele><time>2026-04-11T08:02:09.86Z</time></trkpt><trkpt lat="44.5107527" lon="10.8195263"><ele>276.5</ele><time>2026-04-11T08:02:11.77Z</time></trkpt><trkpt lat="44.5106853" lon="10.8195354"><ele>278.66666666666663</ele><time>2026-04-11T08:02:12.781Z</time></trkpt><trkpt lat="44.5106173" lon="10.8195381"><ele>280.8333333333333</ele><time>2026-04-11T08:02:13.787Z</time></trkpt><trkpt lat="44.5105521" lon="10.8195358"><ele>283.0</ele><time>2026-04-11T08:02:14.78Z</time></trkpt><trkpt lat="44.5104347" lon="10.8195048"><ele>283.8333333333333</ele><time>2026-04-11T08:02:16.793Z</time></trkpt><trkpt lat="44.5103204" lon="10.8194392"><ele>284.66666666666663</ele><time>2026-04-11T08:02:18.789Z</time></trkpt><trkpt lat="44.5102611" lon="10.8193945"><ele>285.5</ele><time>2026-04-11T08:02:19.791Z</time></trkpt><trkpt lat="44.5101915" lon="10.8193411"><ele>286.3333333333333</ele><time>2026-04-11T08:02:20.784Z</time></trkpt><trkpt lat="44.5101183" lon="10.8192876"><ele>287.1666666666667</ele><time>2026-04-11T08:02:21.787Z</time></trkpt><trkpt lat="44.5100535" lon="10.8192399"><ele>288.0</ele><time>2026-04-11T08:02:22.798Z</time></trkpt><trkpt lat="44.5099955" lon="10.8191988"><ele>288.1666666666667</ele><time>2026-04-11T08:02:23.794Z</time></trkpt><trkpt lat="44.5098987" lon="10.819122"><ele>288.3333333333333</ele><time>2026-04-11T08:02:25.756Z</time></trkpt><trkpt lat="44.5098407" lon="10.8190446"><ele>288.5</ele><time>2026-04-11T08:02:27.789Z</time></trkpt><trkpt lat="44.5098028" lon="10.8189526"><ele>288.66666666666663</ele><time>2026-04-11T08:02:29.782Z</time></trkpt><trkpt lat="44.5097683" lon="10.8188533"><ele>288.8333333333333</ele><time>2026-04-11T08:02:31.766Z</time></trkpt><trkpt lat="44.5097365" lon="10.8187605"><ele>289.0</ele><time>2026-04-11T08:02:33.803Z</time></trkpt><trkpt lat="44.509697" lon="10.8186483"><ele>289.0</ele><time>2026-04-11T08:02:36.806Z</time></trkpt><trkpt lat="44.509662" lon="10.8185607"><ele>289.0</ele><time>2026-04-11T08:02:45.754Z</time></trkpt><trkpt lat="44.5096454" lon="10.8184712"><ele>289.0</ele><time>2026-04-11T08:02:48.781Z</time></trkpt><trkpt lat="44.5096214" lon="10.818378"><ele>289.0</ele><time>2026-04-11T08:02:52.79Z</time></trkpt><trkpt lat="44.5096125" lon="10.8182431"><ele>289.0</ele><time>2026-04-11T08:02:56.803Z</time></trkpt><trkpt lat="44.5096287" lon="10.8181235"><ele>289.0</ele><time>2026-04-11T08:02:58.751Z</time></trkpt><trkpt lat="44.509646" lon="10.8180123"><ele>287.16666666666663</ele><time>2026-04-11T08:03:00.78Z</time></trkpt><trkpt lat="44.5096404" lon="10.8178977"><ele>285.3333333333333</ele><time>2026-04-11T08:03:02.801Z</time></trkpt><trkpt lat="44.5096248" lon="10.8177878"><ele>283.5</ele><time>2026-04-11T08:03:04.765Z</time></trkpt><trkpt lat="44.5096089" lon="10.8176694"><ele>281.6666666666667</ele><time>2026-04-11T08:03:06.78Z</time></trkpt><trkpt lat="44.5095939" lon="10.817543"><ele>279.83333333333337</ele><time>2026-04-11T08:03:08.79Z</time></trkpt><trkpt lat="44.5095928" lon="10.8173932"><ele>278.0</ele><time>2026-04-11T08:03:10.771Z</time></trkpt><trkpt lat="44.5095853" lon="10.8172669"><ele>277.83333333333337</ele><time>2026-04-11T08:03:12.788Z</time></trkpt><trkpt lat="44.5095467" lon="10.8171679"><ele>277.6666666666667</ele><time>2026-04-11T08:03:14.783Z</time></trkpt><trkpt lat="44.5094803" lon="10.8170377"><ele>277.5</ele><time>2026-04-11T08:03:16.787Z</time></trkpt><trkpt lat="44.5094369" lon="10.8169561"><ele>277.3333333333333</ele><time>2026-04-11T08:03:17.774Z</time></trkpt><trkpt lat="44.5093936" lon="10.8168672"><ele>277.16666666666663</ele><time>2026-04-11T08:03:18.774Z</time></trkpt><trkpt lat="44.5093528" lon="10.8167886"><ele>277.0</ele><time>2026-04-11T08:03:19.769Z</time></trkpt><trkpt lat="44.5093121" lon="10.816704"><ele>277.3333333333333</ele><time>2026-04-11T08:03:20.773Z</time></trkpt><trkpt lat="44.5092692" lon="10.8166186"><ele>277.66666666666663</ele><time>2026-04-11T08:03:21.792Z</time></trkpt><trkpt lat="44.5092187" lon="10.816529"><ele>278.0</ele><time>2026-04-11T08:03:22.743Z</time></trkpt><trkpt lat="44.5091653" lon="10.8164451"><ele>278.3333333333333</ele><time>2026-04-11T08:03:23.775Z</time></trkpt><trkpt lat="44.5091127" lon="10.8163606"><ele>278.6666666666667</ele><time>2026-04-11T08:03:24.785Z</time></trkpt><trkpt lat="44.5090618" lon="10.8162793"><ele>279.0</ele><time>2026-04-11T08:03:25.778Z</time></trkpt><trkpt lat="44.5090072" lon="10.8161873"><ele>279.0</ele><time>2026-04-11T08:03:26.773Z</time></trkpt><trkpt lat="44.5089485" lon="10.8160829"><ele>279.0</ele><time>2026-04-11T08:03:27.759Z</time></trkpt><trkpt lat="44.50889" lon="10.815979"><ele>279.0</ele><time>2026-04-11T08:03:28.782Z</time></trkpt><trkpt lat="44.5088348" lon="10.815881"><ele>279.0</ele><time>2026-04-11T08:03:29.82Z</time></trkpt><trkpt lat="44.508776" lon="10.8157848"><ele>279.0</ele><time>2026-04-11T08:03:30.784Z</time></trkpt><trkpt lat="44.5087106" lon="10.8156945"><ele>278.4</ele><time>2026-04-11T08:03:31.775Z</time></trkpt><trkpt lat="44.508641" lon="10.8156159"><ele>277.79999999999995</ele><time>2026-04-11T08:03:32.753Z</time></trkpt><trkpt lat="44.5085657" lon="10.8155465"><ele>277.20000000000005</ele><time>2026-04-11T08:03:33.795Z</time></trkpt><trkpt lat="44.5084806" lon="10.8154838"><ele>276.6</ele><time>2026-04-11T08:03:34.764Z</time></trkpt><trkpt lat="44.508387" lon="10.8154259"><ele>276.0</ele><time>2026-04-11T08:03:35.776Z</time></trkpt><trkpt lat="44.5082871" lon="10.8153671"><ele>276.0</ele><time>2026-04-11T08:03:36.783Z</time></trkpt><trkpt lat="44.5081917" lon="10.815309"><ele>276.0</ele><time>2026-04-11T08:03:37.774Z</time></trkpt><trkpt lat="44.5081037" lon="10.8152471"><ele>276.0</ele><time>2026-04-11T08:03:38.782Z</time></trkpt><trkpt lat="44.5080264" lon="10.8151846"><ele>276.0</ele><time>2026-04-11T08:03:39.793Z</time></trkpt><trkpt lat="44.5079519" lon="10.8151149"><ele>276.0</ele><time>2026-04-11T08:03:40.781Z</time></trkpt><trkpt lat="44.5078744" lon="10.8150402"><ele>278.0</ele><time>2026-04-11T08:03:41.777Z</time></trkpt><trkpt lat="44.5078007" lon="10.8149493"><ele>280.0</ele><time>2026-04-11T08:03:42.785Z</time></trkpt><trkpt lat="44.5077331" lon="10.8148554"><ele>282.0</ele><time>2026-04-11T08:03:43.773Z</time></trkpt><trkpt lat="44.5076696" lon="10.8147603"><ele>284.0</ele><time>2026-04-11T08:03:44.786Z</time></trkpt><trkpt lat="44.5076038" lon="10.8146579"><ele>286.0</ele><time>2026-04-11T08:03:45.789Z</time></trkpt><trkpt lat="44.5075332" lon="10.8145592"><ele>286.0</ele><time>2026-04-11T08:03:46.781Z</time></trkpt><trkpt lat="44.5074646" lon="10.8144591"><ele>286.0</ele><time>2026-04-11T08:03:47.826Z</time></trkpt><trkpt lat="44.5073957" lon="10.8143592"><ele>286.0</ele><time>2026-04-11T08:03:48.783Z</time></trkpt><trkpt lat="44.507337" lon="10.8142586"><ele>286.0</ele><time>2026-04-11T08:03:49.79Z</time></trkpt><trkpt lat="44.5072835" lon="10.8141545"><ele>286.0</ele><time>2026-04-11T08:03:50.769Z</time></trkpt><trkpt lat="44.5072333" lon="10.8140536"><ele>285.8333333333333</ele><time>2026-04-11T08:03:51.77Z</time></trkpt><trkpt lat="44.5071901" lon="10.8139617"><ele>285.66666666666663</ele><time>2026-04-11T08:03:52.764Z</time></trkpt><trkpt lat="44.5071504" lon="10.8138787"><ele>285.5</ele><time>2026-04-11T08:03:53.747Z</time></trkpt><trkpt lat="44.5071091" lon="10.8138025"><ele>285.3333333333333</ele><time>2026-04-11T08:03:54.793Z</time></trkpt><trkpt lat="44.5070621" lon="10.8137111"><ele>285.1666666666667</ele><time>2026-04-11T08:03:55.785Z</time></trkpt><trkpt lat="44.5070109" lon="10.8136161"><ele>285.0</ele><time>2026-04-11T08:03:56.784Z</time></trkpt><trkpt lat="44.5069475" lon="10.8135175"><ele>287.6</ele><time>2026-04-11T08:03:57.759Z</time></trkpt><trkpt lat="44.5068773" lon="10.8134246"><ele>290.2</ele><time>2026-04-11T08:03:58.754Z</time></trkpt><trkpt lat="44.5067989" lon="10.8133347"><ele>292.8</ele><time>2026-04-11T08:03:59.772Z</time></trkpt><trkpt lat="44.5067233" lon="10.8132497"><ele>295.4</ele><time>2026-04-11T08:04:00.749Z</time></trkpt><trkpt lat="44.5066474" lon="10.8131699"><ele>298.0</ele><time>2026-04-11T08:04:01.77Z</time></trkpt><trkpt lat="44.5065705" lon="10.8130908"><ele>298.0</ele><time>2026-04-11T08:04:02.768Z</time></trkpt><trkpt lat="44.5064892" lon="10.8130181"><ele>298.0</ele><time>2026-04-11T08:04:03.75Z</time></trkpt><trkpt lat="44.5064052" lon="10.8129528"><ele>298.0</ele><time>2026-04-11T08:04:04.826Z</time></trkpt><trkpt lat="44.50632" lon="10.8128859"><ele>298.0</ele><time>2026-04-11T08:04:05.762Z</time></trkpt><trkpt lat="44.5062309" lon="10.812813"><ele>298.0</ele><time>2026-04-11T08:04:06.785Z</time></trkpt><trkpt lat="44.5061428" lon="10.8127363"><ele>298.5</ele><time>2026-04-11T08:04:07.801Z</time></trkpt><trkpt lat="44.5060625" lon="10.812666"><ele>299.0</ele><time>2026-04-11T08:04:08.778Z</time></trkpt><trkpt lat="44.505993" lon="10.8125972"><ele>299.5</ele><time>2026-04-11T08:04:09.762Z</time></trkpt><trkpt lat="44.5059415" lon="10.8125315"><ele>300.0</ele><time>2026-04-11T08:04:10.816Z</time></trkpt><trkpt lat="44.5058881" lon="10.8124728"><ele>300.5</ele><time>2026-04-11T08:04:11.778Z</time></trkpt><trkpt lat="44.5058075" lon="10.8123549"><ele>301.0</ele><time>2026-04-11T08:04:13.787Z</time></trkpt><trkpt lat="44.5057654" lon="10.8122813"><ele>301.16666666666663</ele><time>2026-04-11T08:04:14.789Z</time></trkpt><trkpt lat="44.505711" lon="10.8122008"><ele>301.3333333333333</ele><time>2026-04-11T08:04:15.783Z</time></trkpt><trkpt lat="44.5056448" lon="10.8121209"><ele>301.5</ele><time>2026-04-11T08:04:16.773Z</time></trkpt><trkpt lat="44.5055696" lon="10.8120428"><ele>301.6666666666667</ele><time>2026-04-11T08:04:17.777Z</time></trkpt><trkpt lat="44.505493" lon="10.8119698"><ele>301.83333333333337</ele><time>2026-04-11T08:04:18.766Z</time></trkpt><trkpt lat="44.5054209" lon="10.8118991"><ele>302.0</ele><time>2026-04-11T08:04:19.77Z</time></trkpt><trkpt lat="44.5053485" lon="10.8118403"><ele>303.1666666666667</ele><time>2026-04-11T08:04:20.779Z</time></trkpt><trkpt lat="44.5052789" lon="10.8117858"><ele>304.33333333333337</ele><time>2026-04-11T08:04:21.785Z</time></trkpt><trkpt lat="44.5052129" lon="10.8117323"><ele>305.5</ele><time>2026-04-11T08:04:22.823Z</time></trkpt><trkpt lat="44.5051428" lon="10.8116774"><ele>306.6666666666667</ele><time>2026-04-11T08:04:23.77Z</time></trkpt><trkpt lat="44.5050808" lon="10.8116241"><ele>307.8333333333333</ele><time>2026-04-11T08:04:24.775Z</time></trkpt><trkpt lat="44.5050273" lon="10.8115332"><ele>309.0</ele><time>2026-04-11T08:04:25.777Z</time></trkpt><trkpt lat="44.5049809" lon="10.8114214"><ele>309.0</ele><time>2026-04-11T08:04:26.769Z</time></trkpt><trkpt lat="44.5049313" lon="10.8112996"><ele>309.0</ele><time>2026-04-11T08:04:27.76Z</time></trkpt><trkpt lat="44.5048851" lon="10.8111844"><ele>309.0</ele><time>2026-04-11T08:04:28.729Z</time></trkpt><trkpt lat="44.5048389" lon="10.8110767"><ele>309.0</ele><time>2026-04-11T08:04:29.718Z</time></trkpt><trkpt lat="44.5047955" lon="10.8109674"><ele>309.0</ele><time>2026-04-11T08:04:30.741Z</time></trkpt><trkpt lat="44.5047578" lon="10.8108829"><ele>309.0</ele><time>2026-04-11T08:04:31.718Z</time></trkpt><trkpt lat="44.504721" lon="10.8108051"><ele>309.3333333333333</ele><time>2026-04-11T08:04:32.73Z</time></trkpt><trkpt lat="44.5046624" lon="10.8106777"><ele>309.6666666666667</ele><time>2026-04-11T08:04:34.764Z</time></trkpt><trkpt lat="44.5046167" lon="10.8105559"><ele>310.0</ele><time>2026-04-11T08:04:36.773Z</time></trkpt><trkpt lat="44.5046029" lon="10.8104656"><ele>310.33333333333337</ele><time>2026-04-11T08:04:37.773Z</time></trkpt><trkpt lat="44.5045798" lon="10.8103496"><ele>310.6666666666667</ele><time>2026-04-11T08:04:38.775Z</time></trkpt><trkpt lat="44.5045622" lon="10.810237"><ele>311.0</ele><time>2026-04-11T08:04:39.761Z</time></trkpt><trkpt lat="44.5045501" lon="10.8101342"><ele>311.0</ele><time>2026-04-11T08:04:40.786Z</time></trkpt><trkpt lat="44.5045391" lon="10.810042"><ele>311.0</ele><time>2026-04-11T08:04:41.776Z</time></trkpt><trkpt lat="44.5045226" lon="10.809948"><ele>311.0</ele><time>2026-04-11T08:04:42.779Z</time></trkpt><trkpt lat="44.5045051" lon="10.8098532"><ele>311.0</ele><time>2026-04-11T08:04:43.792Z</time></trkpt><trkpt lat="44.5044855" lon="10.8097539"><ele>311.0</ele><time>2026-04-11T08:04:44.8Z</time></trkpt><trkpt lat="44.5044668" lon="10.8096515"><ele>311.0</ele><time>2026-04-11T08:04:45.74Z</time></trkpt><trkpt lat="44.5044458" lon="10.8095331"><ele>311.0</ele><time>2026-04-11T08:04:46.74Z</time></trkpt><trkpt lat="44.5044238" lon="10.8093906"><ele>313.25</ele><time>2026-04-11T08:04:47.775Z</time></trkpt><trkpt lat="44.5043976" lon="10.8092289"><ele>315.5</ele><time>2026-04-11T08:04:48.782Z</time></trkpt><trkpt lat="44.504368" lon="10.8090566"><ele>317.75</ele><time>2026-04-11T08:04:49.741Z</time></trkpt><trkpt lat="44.5043306" lon="10.8088844"><ele>320.0</ele><time>2026-04-11T08:04:50.763Z</time></trkpt><trkpt lat="44.5042971" lon="10.8087262"><ele>320.0</ele><time>2026-04-11T08:04:51.79Z</time></trkpt><trkpt lat="44.5042505" lon="10.8085807"><ele>320.0</ele><time>2026-04-11T08:04:52.777Z</time></trkpt><trkpt lat="44.5042014" lon="10.8084515"><ele>320.0</ele><time>2026-04-11T08:04:53.785Z</time></trkpt><trkpt lat="44.5041648" lon="10.8083305"><ele>320.0</ele><time>2026-04-11T08:04:54.77Z</time></trkpt><trkpt lat="44.5041409" lon="10.8082206"><ele>320.0</ele><time>2026-04-11T08:04:55.824Z</time></trkpt><trkpt lat="44.5041234" lon="10.8081213"><ele>320.8</ele><time>2026-04-11T08:04:56.765Z</time></trkpt><trkpt lat="44.5040619" lon="10.8079845"><ele>321.6</ele><time>2026-04-11T08:04:58.771Z</time></trkpt><trkpt lat="44.5039366" lon="10.8079048"><ele>322.4</ele><time>2026-04-11T08:05:00.78Z</time></trkpt><trkpt lat="44.5038566" lon="10.8078641"><ele>323.2</ele><time>2026-04-11T08:05:01.783Z</time></trkpt><trkpt lat="44.5037736" lon="10.8078351"><ele>324.0</ele><time>2026-04-11T08:05:02.753Z</time></trkpt><trkpt lat="44.5036762" lon="10.8078265"><ele>325.2</ele><time>2026-04-11T08:05:03.755Z</time></trkpt><trkpt lat="44.5035974" lon="10.8078057"><ele>326.4</ele><time>2026-04-11T08:05:04.769Z</time></trkpt><trkpt lat="44.503528" lon="10.8077733"><ele>327.6</ele><time>2026-04-11T08:05:05.782Z</time></trkpt><trkpt lat="44.5034464" lon="10.8077331"><ele>328.8</ele><time>2026-04-11T08:05:06.75Z</time></trkpt><trkpt lat="44.5033713" lon="10.8076653"><ele>330.0</ele><time>2026-04-11T08:05:07.766Z</time></trkpt><trkpt lat="44.5032519" lon="10.807561"><ele>330.6</ele><time>2026-04-11T08:05:08.787Z</time></trkpt><trkpt lat="44.5031432" lon="10.8074518"><ele>331.2</ele><time>2026-04-11T08:05:09.762Z</time></trkpt><trkpt lat="44.5030454" lon="10.8073559"><ele>331.79999999999995</ele><time>2026-04-11T08:05:10.767Z</time></trkpt><trkpt lat="44.5029742" lon="10.8072876"><ele>332.4</ele><time>2026-04-11T08:05:11.761Z</time></trkpt><trkpt lat="44.5029044" lon="10.8072094"><ele>333.0</ele><time>2026-04-11T08:05:12.716Z</time></trkpt><trkpt lat="44.5028348" lon="10.8071426"><ele>333.0</ele><time>2026-04-11T08:05:13.796Z</time></trkpt><trkpt lat="44.5027754" lon="10.8070801"><ele>333.0</ele><time>2026-04-11T08:05:14.759Z</time></trkpt><trkpt lat="44.5027085" lon="10.8069916"><ele>333.0</ele><time>2026-04-11T08:05:15.814Z</time></trkpt><trkpt lat="44.5026579" lon="10.80689"><ele>333.0</ele><time>2026-04-11T08:05:16.763Z</time></trkpt><trkpt lat="44.5026122" lon="10.8067957"><ele>333.0</ele><time>2026-04-11T08:05:17.791Z</time></trkpt><trkpt lat="44.5025726" lon="10.8067031"><ele>333.0</ele><time>2026-04-11T08:05:18.762Z</time></trkpt><trkpt lat="44.5025463" lon="10.8066112"><ele>335.59999999999997</ele><time>2026-04-11T08:05:19.779Z</time></trkpt><trkpt lat="44.502513" lon="10.8064507"><ele>338.2</ele><time>2026-04-11T08:05:21.739Z</time></trkpt><trkpt lat="44.502475" lon="10.8062747"><ele>340.8</ele><time>2026-04-11T08:05:23.837Z</time></trkpt><trkpt lat="44.5024586" lon="10.8061862"><ele>343.4</ele><time>2026-04-11T08:05:24.773Z</time></trkpt><trkpt lat="44.5024398" lon="10.8060557"><ele>346.0</ele><time>2026-04-11T08:05:26.781Z</time></trkpt><trkpt lat="44.502424" lon="10.8059638"><ele>346.0</ele><time>2026-04-11T08:05:33.785Z</time></trkpt><trkpt lat="44.5024107" lon="10.8058601"><ele>346.0</ele><time>2026-04-11T08:05:35.81Z</time></trkpt><trkpt lat="44.5023789" lon="10.8057015"><ele>346.0</ele><time>2026-04-11T08:05:37.78Z</time></trkpt><trkpt lat="44.5023499" lon="10.805605"><ele>346.0</ele><time>2026-04-11T08:05:38.782Z</time></trkpt><trkpt lat="44.5023156" lon="10.8055039"><ele>346.0</ele><time>2026-04-11T08:05:39.78Z</time></trkpt><trkpt lat="44.5022777" lon="10.8054081"><ele>346.0</ele><time>2026-04-11T08:05:40.79Z</time></trkpt><trkpt lat="44.5022376" lon="10.8053165"><ele>346.0</ele><time>2026-04-11T08:05:41.792Z</time></trkpt><trkpt lat="44.5021981" lon="10.8052274"><ele>346.0</ele><time>2026-04-11T08:05:42.796Z</time></trkpt><trkpt lat="44.5021586" lon="10.8051418"><ele>346.0</ele><time>2026-04-11T08:05:43.781Z</time></trkpt><trkpt lat="44.502117" lon="10.8050543"><ele>346.0</ele><time>2026-04-11T08:05:44.777Z</time></trkpt><trkpt lat="44.5020756" lon="10.8049712"><ele>346.0</ele><time>2026-04-11T08:05:45.775Z</time></trkpt><trkpt lat="44.5020383" lon="10.8048921"><ele>346.0</ele><time>2026-04-11T08:05:46.779Z</time></trkpt><trkpt lat="44.502003" lon="10.8048155"><ele>346.0</ele><time>2026-04-11T08:05:47.773Z</time></trkpt><trkpt lat="44.5019684" lon="10.8047371"><ele>344.20000000000005</ele><time>2026-04-11T08:05:48.782Z</time></trkpt><trkpt lat="44.5019002" lon="10.8045946"><ele>342.40000000000003</ele><time>2026-04-11T08:05:50.799Z</time></trkpt><trkpt lat="44.5018377" lon="10.8044778"><ele>340.6</ele><time>2026-04-11T08:05:52.791Z</time></trkpt><trkpt lat="44.5017795" lon="10.8043837"><ele>338.8</ele><time>2026-04-11T08:05:54.78Z</time></trkpt><trkpt lat="44.5017082" lon="10.8042985"><ele>337.0</ele><time>2026-04-11T08:05:56.741Z</time></trkpt><trkpt lat="44.5016207" lon="10.8042179"><ele>336.7142857142857</ele><time>2026-04-11T08:05:58.782Z</time></trkpt><trkpt lat="44.5015196" lon="10.8041381"><ele>336.42857142857144</ele><time>2026-04-11T08:06:00.799Z</time></trkpt><trkpt lat="44.5014628" lon="10.8040989"><ele>336.1428571428571</ele><time>2026-04-11T08:06:01.786Z</time></trkpt><trkpt lat="44.5014034" lon="10.8040602"><ele>335.8571428571429</ele><time>2026-04-11T08:06:02.77Z</time></trkpt><trkpt lat="44.5013427" lon="10.8040195"><ele>335.57142857142856</ele><time>2026-04-11T08:06:03.772Z</time></trkpt><trkpt lat="44.5012812" lon="10.8039784"><ele>335.2857142857143</ele><time>2026-04-11T08:06:04.742Z</time></trkpt><trkpt lat="44.5012235" lon="10.8039397"><ele>335.0</ele><time>2026-04-11T08:06:05.781Z</time></trkpt><trkpt lat="44.5011655" lon="10.8039036"><ele>332.2</ele><time>2026-04-11T08:06:06.781Z</time></trkpt><trkpt lat="44.5011076" lon="10.8038678"><ele>329.4</ele><time>2026-04-11T08:06:07.782Z</time></trkpt><trkpt lat="44.5009981" lon="10.8038059"><ele>326.6</ele><time>2026-04-11T08:06:09.774Z</time></trkpt><trkpt lat="44.5008834" lon="10.8037348"><ele>323.8</ele><time>2026-04-11T08:06:11.775Z</time></trkpt><trkpt lat="44.5008197" lon="10.8036937"><ele>321.0</ele><time>2026-04-11T08:06:12.798Z</time></trkpt><trkpt lat="44.5007514" lon="10.8036486"><ele>321.0</ele><time>2026-04-11T08:06:13.785Z</time></trkpt><trkpt lat="44.5006816" lon="10.8036008"><ele>321.0</ele><time>2026-04-11T08:06:14.797Z</time></trkpt><trkpt lat="44.5006106" lon="10.8035515"><ele>321.0</ele><time>2026-04-11T08:06:15.757Z</time></trkpt><trkpt lat="44.5005411" lon="10.8035001"><ele>321.0</ele><time>2026-04-11T08:06:16.763Z</time></trkpt><trkpt lat="44.5004705" lon="10.8034474"><ele>321.0</ele><time>2026-04-11T08:06:17.785Z</time></trkpt><trkpt lat="44.5003994" lon="10.8033939"><ele>321.0</ele><time>2026-04-11T08:06:18.778Z</time></trkpt><trkpt lat="44.5003335" lon="10.8033393"><ele>317.3333333333333</ele><time>2026-04-11T08:06:19.783Z</time></trkpt><trkpt lat="44.5002625" lon="10.8032814"><ele>313.6666666666667</ele><time>2026-04-11T08:06:20.766Z</time></trkpt><trkpt lat="44.5001963" lon="10.8032282"><ele>310.0</ele><time>2026-04-11T08:06:21.77Z</time></trkpt><trkpt lat="44.5001338" lon="10.8031781"><ele>306.33333333333337</ele><time>2026-04-11T08:06:22.783Z</time></trkpt><trkpt lat="44.5000669" lon="10.8031244"><ele>302.6666666666667</ele><time>2026-04-11T08:06:23.747Z</time></trkpt><trkpt lat="44.4999846" lon="10.8030549"><ele>299.0</ele><time>2026-04-11T08:06:24.773Z</time></trkpt><trkpt lat="44.4998768" lon="10.8029694"><ele>299.0</ele><time>2026-04-11T08:06:25.766Z</time></trkpt><trkpt lat="44.4997646" lon="10.8028749"><ele>299.0</ele><time>2026-04-11T08:06:26.781Z</time></trkpt><trkpt lat="44.4996607" lon="10.8027791"><ele>299.0</ele><time>2026-04-11T08:06:27.79Z</time></trkpt><trkpt lat="44.4995646" lon="10.8026888"><ele>299.0</ele><time>2026-04-11T08:06:28.772Z</time></trkpt><trkpt lat="44.4994848" lon="10.802603"><ele>298.0</ele><time>2026-04-11T08:06:29.758Z</time></trkpt><trkpt lat="44.4994205" lon="10.8025061"><ele>297.0</ele><time>2026-04-11T08:06:30.785Z</time></trkpt><trkpt lat="44.4993625" lon="10.8023889"><ele>296.0</ele><time>2026-04-11T08:06:31.779Z</time></trkpt><trkpt lat="44.4993085" lon="10.8022752"><ele>295.0</ele><time>2026-04-11T08:06:32.782Z</time></trkpt><trkpt lat="44.4992536" lon="10.8021825"><ele>294.0</ele><time>2026-04-11T08:06:33.748Z</time></trkpt><trkpt lat="44.4991816" lon="10.8021098"><ele>294.0</ele><time>2026-04-11T08:06:34.766Z</time></trkpt><trkpt lat="44.4990798" lon="10.8020468"><ele>294.0</ele><time>2026-04-11T08:06:35.766Z</time></trkpt><trkpt lat="44.4989795" lon="10.8019917"><ele>294.0</ele><time>2026-04-11T08:06:36.776Z</time></trkpt><trkpt lat="44.4989001" lon="10.8019365"><ele>294.0</ele><time>2026-04-11T08:06:37.774Z</time></trkpt><trkpt lat="44.4988269" lon="10.801863"><ele>294.0</ele><time>2026-04-11T08:06:38.763Z</time></trkpt><trkpt lat="44.4987629" lon="10.8017797"><ele>295.5</ele><time>2026-04-11T08:06:39.807Z</time></trkpt><trkpt lat="44.4987067" lon="10.801687"><ele>297.0</ele><time>2026-04-11T08:06:40.765Z</time></trkpt><trkpt lat="44.4986573" lon="10.8015793"><ele>298.5</ele><time>2026-04-11T08:06:41.785Z</time></trkpt><trkpt lat="44.4986084" lon="10.8014693"><ele>300.0</ele><time>2026-04-11T08:06:42.793Z</time></trkpt><trkpt lat="44.498579" lon="10.8013495"><ele>301.5</ele><time>2026-04-11T08:06:43.772Z</time></trkpt><trkpt lat="44.4985583" lon="10.8012411"><ele>303.0</ele><time>2026-04-11T08:06:44.767Z</time></trkpt><trkpt lat="44.4985361" lon="10.80115"><ele>303.0</ele><time>2026-04-11T08:06:45.774Z</time></trkpt><trkpt lat="44.4985088" lon="10.8010637"><ele>303.0</ele><time>2026-04-11T08:06:46.783Z</time></trkpt><trkpt lat="44.4984731" lon="10.8009874"><ele>303.0</ele><time>2026-04-11T08:06:47.782Z</time></trkpt><trkpt lat="44.4984312" lon="10.8009173"><ele>303.0</ele><time>2026-04-11T08:06:48.773Z</time></trkpt><trkpt lat="44.4983851" lon="10.8008538"><ele>303.0</ele><time>2026-04-11T08:06:49.821Z</time></trkpt><trkpt lat="44.4983349" lon="10.8007973"><ele>303.0</ele><time>2026-04-11T08:06:50.838Z</time></trkpt><trkpt lat="44.4982793" lon="10.8007467"><ele>303.0</ele><time>2026-04-11T08:06:51.764Z</time></trkpt><trkpt lat="44.4982217" lon="10.8006997"><ele>304.0</ele><time>2026-04-11T08:06:52.782Z</time></trkpt><trkpt lat="44.4981611" lon="10.8006367"><ele>305.0</ele><time>2026-04-11T08:06:53.739Z</time></trkpt><trkpt lat="44.4980946" lon="10.8005352"><ele>306.0</ele><time>2026-04-11T08:06:54.764Z</time></trkpt><trkpt lat="44.498024" lon="10.8004262"><ele>307.0</ele><time>2026-04-11T08:06:55.78Z</time></trkpt><trkpt lat="44.4979569" lon="10.8003029"><ele>308.0</ele><time>2026-04-11T08:06:56.809Z</time></trkpt><trkpt lat="44.4978836" lon="10.8001759"><ele>308.83333333333337</ele><time>2026-04-11T08:06:57.768Z</time></trkpt><trkpt lat="44.4978134" lon="10.800063"><ele>309.6666666666667</ele><time>2026-04-11T08:06:58.767Z</time></trkpt><trkpt lat="44.4977529" lon="10.7999737"><ele>310.5</ele><time>2026-04-11T08:06:59.785Z</time></trkpt><trkpt lat="44.4977002" lon="10.7998904"><ele>311.3333333333333</ele><time>2026-04-11T08:07:00.775Z</time></trkpt><trkpt lat="44.4976513" lon="10.7998042"><ele>312.16666666666663</ele><time>2026-04-11T08:07:01.769Z</time></trkpt><trkpt lat="44.4976072" lon="10.7997044"><ele>313.0</ele><time>2026-04-11T08:07:02.723Z</time></trkpt><trkpt lat="44.4975735" lon="10.7996069"><ele>313.0</ele><time>2026-04-11T08:07:03.764Z</time></trkpt><trkpt lat="44.4975353" lon="10.7994956"><ele>313.0</ele><time>2026-04-11T08:07:04.797Z</time></trkpt><trkpt lat="44.4974945" lon="10.7993779"><ele>313.0</ele><time>2026-04-11T08:07:05.766Z</time></trkpt><trkpt lat="44.4974545" lon="10.7992653"><ele>313.0</ele><time>2026-04-11T08:07:06.754Z</time></trkpt><trkpt lat="44.4974128" lon="10.7991516"><ele>313.0</ele><time>2026-04-11T08:07:07.77Z</time></trkpt><trkpt lat="44.4973737" lon="10.7990394"><ele>313.5</ele><time>2026-04-11T08:07:08.764Z</time></trkpt><trkpt lat="44.49734" lon="10.7989272"><ele>314.0</ele><time>2026-04-11T08:07:09.774Z</time></trkpt><trkpt lat="44.4973192" lon="10.7988179"><ele>314.5</ele><time>2026-04-11T08:07:10.778Z</time></trkpt><trkpt lat="44.4973179" lon="10.7987051"><ele>315.0</ele><time>2026-04-11T08:07:11.77Z</time></trkpt><trkpt lat="44.4973413" lon="10.7985826"><ele>315.5</ele><time>2026-04-11T08:07:12.756Z</time></trkpt><trkpt lat="44.4973707" lon="10.7984493"><ele>316.0</ele><time>2026-04-11T08:07:13.76Z</time></trkpt><trkpt lat="44.4974133" lon="10.7983194"><ele>318.0</ele><time>2026-04-11T08:07:14.793Z</time></trkpt><trkpt lat="44.4974486" lon="10.7981978"><ele>320.0</ele><time>2026-04-11T08:07:15.774Z</time></trkpt><trkpt lat="44.4974495" lon="10.7980673"><ele>322.0</ele><time>2026-04-11T08:07:16.769Z</time></trkpt><trkpt lat="44.4974061" lon="10.7979341"><ele>324.0</ele><time>2026-04-11T08:07:17.775Z</time></trkpt><trkpt lat="44.4973666" lon="10.7978144"><ele>326.0</ele><time>2026-04-11T08:07:18.761Z</time></trkpt><trkpt lat="44.4973688" lon="10.7976678"><ele>327.4</ele><time>2026-04-11T08:07:19.779Z</time></trkpt><trkpt lat="44.4973882" lon="10.7974984"><ele>328.8</ele><time>2026-04-11T08:07:20.789Z</time></trkpt><trkpt lat="44.4974179" lon="10.7973302"><ele>330.2</ele><time>2026-04-11T08:07:21.77Z</time></trkpt><trkpt lat="44.4974348" lon="10.797209"><ele>331.59999999999997</ele><time>2026-04-11T08:07:22.776Z</time></trkpt><trkpt lat="44.4974356" lon="10.7971148"><ele>333.0</ele><time>2026-04-11T08:07:23.772Z</time></trkpt><trkpt lat="44.4973667" lon="10.7969606"><ele>333.0</ele><time>2026-04-11T08:07:25.784Z</time></trkpt><trkpt lat="44.4972928" lon="10.7968812"><ele>333.0</ele><time>2026-04-11T08:07:26.79Z</time></trkpt><trkpt lat="44.4972231" lon="10.7967658"><ele>333.0</ele><time>2026-04-11T08:07:27.786Z</time></trkpt><trkpt lat="44.4971536" lon="10.7966261"><ele>333.0</ele><time>2026-04-11T08:07:28.762Z</time></trkpt><trkpt lat="44.497078" lon="10.7964782"><ele>332.0</ele><time>2026-04-11T08:07:29.773Z</time></trkpt><trkpt lat="44.4970103" lon="10.7963209"><ele>331.0</ele><time>2026-04-11T08:07:30.777Z</time></trkpt><trkpt lat="44.496954" lon="10.7961742"><ele>330.0</ele><time>2026-04-11T08:07:31.786Z</time></trkpt><trkpt lat="44.4969052" lon="10.7960409"><ele>329.0</ele><time>2026-04-11T08:07:32.759Z</time></trkpt><trkpt lat="44.4968575" lon="10.7959182"><ele>329.0</ele><time>2026-04-11T08:07:33.727Z</time></trkpt><trkpt lat="44.4968112" lon="10.7958012"><ele>329.0</ele><time>2026-04-11T08:07:34.714Z</time></trkpt><trkpt lat="44.4967554" lon="10.7956857"><ele>329.0</ele><time>2026-04-11T08:07:35.744Z</time></trkpt><trkpt lat="44.4966948" lon="10.7955744"><ele>329.0</ele><time>2026-04-11T08:07:36.794Z</time></trkpt><trkpt lat="44.4966039" lon="10.7954734"><ele>329.0</ele><time>2026-04-11T08:07:37.797Z</time></trkpt><trkpt lat="44.4965209" lon="10.7953788"><ele>329.0</ele><time>2026-04-11T08:07:38.762Z</time></trkpt><trkpt lat="44.496466" lon="10.7953059"><ele>329.0</ele><time>2026-04-11T08:07:39.771Z</time></trkpt><trkpt lat="44.4964008" lon="10.7951728"><ele>329.0</ele><time>2026-04-11T08:07:41.758Z</time></trkpt><trkpt lat="44.4963483" lon="10.7950221"><ele>329.0</ele><time>2026-04-11T08:07:43.778Z</time></trkpt><trkpt lat="44.4963231" lon="10.7949318"><ele>329.0</ele><time>2026-04-11T08:07:44.778Z</time></trkpt><trkpt lat="44.4962936" lon="10.7948363"><ele>329.33333333333337</ele><time>2026-04-11T08:07:45.78Z</time></trkpt><trkpt lat="44.4962549" lon="10.7947323"><ele>329.6666666666667</ele><time>2026-04-11T08:07:46.757Z</time></trkpt><trkpt lat="44.4962165" lon="10.7946257"><ele>330.0</ele><time>2026-04-11T08:07:47.752Z</time></trkpt><trkpt lat="44.496184" lon="10.7945301"><ele>330.3333333333333</ele><time>2026-04-11T08:07:48.772Z</time></trkpt><trkpt lat="44.496152" lon="10.7944504"><ele>330.66666666666663</ele><time>2026-04-11T08:07:49.775Z</time></trkpt><trkpt lat="44.4960751" lon="10.7943183"><ele>331.0</ele><time>2026-04-11T08:07:51.765Z</time></trkpt><trkpt lat="44.4959834" lon="10.7942216"><ele>333.66666666666663</ele><time>2026-04-11T08:07:53.788Z</time></trkpt><trkpt lat="44.4959187" lon="10.7941897"><ele>336.3333333333333</ele><time>2026-04-11T08:07:54.767Z</time></trkpt><trkpt lat="44.4958369" lon="10.7941496"><ele>339.0</ele><time>2026-04-11T08:07:55.758Z</time></trkpt><trkpt lat="44.49574" lon="10.7941097"><ele>341.6666666666667</ele><time>2026-04-11T08:07:56.781Z</time></trkpt><trkpt lat="44.4956508" lon="10.7940827"><ele>344.33333333333337</ele><time>2026-04-11T08:07:57.793Z</time></trkpt><trkpt lat="44.4955782" lon="10.7940579"><ele>347.0</ele><time>2026-04-11T08:07:58.775Z</time></trkpt><trkpt lat="44.4954718" lon="10.7940065"><ele>348.6666666666667</ele><time>2026-04-11T08:08:00.754Z</time></trkpt><trkpt lat="44.4954136" lon="10.7939672"><ele>350.33333333333337</ele><time>2026-04-11T08:08:01.774Z</time></trkpt><trkpt lat="44.4953563" lon="10.793918"><ele>352.0</ele><time>2026-04-11T08:08:02.783Z</time></trkpt><trkpt lat="44.4953006" lon="10.7938647"><ele>353.6666666666667</ele><time>2026-04-11T08:08:03.767Z</time></trkpt><trkpt lat="44.4951928" lon="10.7937814"><ele>355.3333333333333</ele><time>2026-04-11T08:08:05.72Z</time></trkpt><trkpt lat="44.4951249" lon="10.7937484"><ele>357.0</ele><time>2026-04-11T08:08:06.721Z</time></trkpt><trkpt lat="44.4950581" lon="10.7937088"><ele>357.0</ele><time>2026-04-11T08:08:07.76Z</time></trkpt><trkpt lat="44.4949814" lon="10.7936297"><ele>357.0</ele><time>2026-04-11T08:08:09.791Z</time></trkpt><trkpt lat="44.4949318" lon="10.793515"><ele>357.0</ele><time>2026-04-11T08:08:11.8Z</time></trkpt><trkpt lat="44.4948881" lon="10.7934182"><ele>357.0</ele><time>2026-04-11T08:08:13.771Z</time></trkpt><trkpt lat="44.4948157" lon="10.7933106"><ele>357.0</ele><time>2026-04-11T08:08:15.742Z</time></trkpt><trkpt lat="44.4947574" lon="10.7932268"><ele>357.5</ele><time>2026-04-11T08:08:16.767Z</time></trkpt><trkpt lat="44.494694" lon="10.7931392"><ele>358.0</ele><time>2026-04-11T08:08:17.742Z</time></trkpt><trkpt lat="44.4946359" lon="10.7930527"><ele>358.5</ele><time>2026-04-11T08:08:18.762Z</time></trkpt><trkpt lat="44.4945846" lon="10.7929658"><ele>359.0</ele><time>2026-04-11T08:08:19.774Z</time></trkpt><trkpt lat="44.4945401" lon="10.7928792"><ele>359.5</ele><time>2026-04-11T08:08:20.797Z</time></trkpt><trkpt lat="44.4945027" lon="10.7927935"><ele>360.0</ele><time>2026-04-11T08:08:21.762Z</time></trkpt><trkpt lat="44.4944714" lon="10.7927019"><ele>362.0</ele><time>2026-04-11T08:08:22.776Z</time></trkpt><trkpt lat="44.4944425" lon="10.7926078"><ele>364.0</ele><time>2026-04-11T08:08:23.786Z</time></trkpt><trkpt lat="44.4944151" lon="10.792518"><ele>366.0</ele><time>2026-04-11T08:08:24.791Z</time></trkpt><trkpt lat="44.4943913" lon="10.792429"><ele>368.0</ele><time>2026-04-11T08:08:25.783Z</time></trkpt><trkpt lat="44.4943646" lon="10.7923343"><ele>370.0</ele><time>2026-04-11T08:08:26.805Z</time></trkpt><trkpt lat="44.4943367" lon="10.7922346"><ele>372.0</ele><time>2026-04-11T08:08:27.785Z</time></trkpt><trkpt lat="44.4943058" lon="10.7921374"><ele>374.0</ele><time>2026-04-11T08:08:28.782Z</time></trkpt><trkpt lat="44.4942693" lon="10.7920433"><ele>374.0</ele><time>2026-04-11T08:08:29.765Z</time></trkpt><trkpt lat="44.4942328" lon="10.7919497"><ele>374.0</ele><time>2026-04-11T08:08:30.744Z</time></trkpt><trkpt lat="44.4941981" lon="10.7918482"><ele>374.0</ele><time>2026-04-11T08:08:31.772Z</time></trkpt><trkpt lat="44.4941619" lon="10.791759"><ele>374.0</ele><time>2026-04-11T08:08:32.783Z</time></trkpt><trkpt lat="44.4941117" lon="10.7916247"><ele>374.0</ele><time>2026-04-11T08:08:34.77Z</time></trkpt><trkpt lat="44.4940799" lon="10.7914998"><ele>374.0</ele><time>2026-04-11T08:08:37.803Z</time></trkpt><trkpt lat="44.4940195" lon="10.791392"><ele>388.0</ele><time>2026-04-11T08:08:39.778Z</time></trkpt><trkpt lat="44.4939632" lon="10.7913383"><ele>388.0</ele><time>2026-04-11T08:08:40.791Z</time></trkpt><trkpt lat="44.4939048" lon="10.7912817"><ele>388.0</ele><time>2026-04-11T08:08:41.791Z</time></trkpt><trkpt lat="44.4938346" lon="10.7912024"><ele>388.0</ele><time>2026-04-11T08:08:43.785Z</time></trkpt></trkseg><trkseg><trkpt lat="44.3992498" lon="10.7595513"><ele>694.5</ele><time>2026-04-11T11:05:54.656Z</time></trkpt></trkseg><trkseg><trkpt lat="44.3994723" lon="10.7594111"><ele>653.0</ele><time>2026-04-11T12:44:45.437Z</time></trkpt><trkpt lat="44.3995232" lon="10.7594702"><ele>653.0</ele><time>2026-04-11T12:53:01.485Z</time></trkpt><trkpt lat="44.3995917" lon="10.7595168"><ele>653.0</ele><time>2026-04-11T12:53:05.497Z</time></trkpt><trkpt lat="44.3996775" lon="10.7595729"><ele>653.0</ele><time>2026-04-11T12:54:28.504Z</time></trkpt><trkpt lat="44.3997072" lon="10.7598008"><ele>653.0</ele><time>2026-04-11T12:54:31.464Z</time></trkpt><trkpt lat="44.3997838" lon="10.7599326"><ele>653.3333333333333</ele><time>2026-04-11T12:54:33.5Z</time></trkpt><trkpt lat="44.3999182" lon="10.7600117"><ele>653.6666666666666</ele><time>2026-04-11T12:54:35.5Z</time></trkpt><trkpt lat="44.3999992" lon="10.7600441"><ele>654.0</ele><time>2026-04-11T12:54:36.486Z</time></trkpt><trkpt lat="44.400071" lon="10.7600646"><ele>654.3333333333334</ele><time>2026-04-11T12:54:37.502Z</time></trkpt><trkpt lat="44.4001378" lon="10.7600829"><ele>654.6666666666667</ele><time>2026-04-11T12:54:38.471Z</time></trkpt><trkpt lat="44.4002062" lon="10.7601012"><ele>655.0</ele><time>2026-04-11T12:54:39.515Z</time></trkpt><trkpt lat="44.4003144" lon="10.7601252"><ele>655.0</ele><time>2026-04-11T12:54:41.494Z</time></trkpt><trkpt lat="44.400394" lon="10.7601366"><ele>655.0</ele><time>2026-04-11T12:54:43.498Z</time></trkpt><trkpt lat="44.4004804" lon="10.7601818"><ele>655.0</ele><time>2026-04-11T12:54:46.467Z</time></trkpt><trkpt lat="44.4005318" lon="10.7602949"><ele>655.0</ele><time>2026-04-11T12:54:48.495Z</time></trkpt><trkpt lat="44.4005904" lon="10.7603965"><ele>655.0</ele><time>2026-04-11T12:54:50.497Z</time></trkpt><trkpt lat="44.400691" lon="10.760499"><ele>656.8</ele><time>2026-04-11T12:54:52.479Z</time></trkpt><trkpt lat="44.4007884" lon="10.7605703"><ele>658.6</ele><time>2026-04-11T12:54:54.478Z</time></trkpt><trkpt lat="44.4008665" lon="10.7606732"><ele>660.4000000000001</ele><time>2026-04-11T12:54:56.506Z</time></trkpt><trkpt lat="44.4009021" lon="10.7607952"><ele>662.2</ele><time>2026-04-11T12:54:58.491Z</time></trkpt><trkpt lat="44.4009074" lon="10.7609516"><ele>664.0</ele><time>2026-04-11T12:55:00.508Z</time></trkpt><trkpt lat="44.4009059" lon="10.7611163"><ele>665.6</ele><time>2026-04-11T12:55:02.606Z</time></trkpt><trkpt lat="44.400918" lon="10.7612769"><ele>667.2</ele><time>2026-04-11T12:55:04.482Z</time></trkpt><trkpt lat="44.4009425" lon="10.7614218"><ele>668.8000000000001</ele><time>2026-04-11T12:55:06.511Z</time></trkpt><trkpt lat="44.4009663" lon="10.7615465"><ele>670.4000000000001</ele><time>2026-04-11T12:55:08.483Z</time></trkpt><trkpt lat="44.4009816" lon="10.7616675"><ele>672.0</ele><time>2026-04-11T12:55:10.468Z</time></trkpt><trkpt lat="44.4010036" lon="10.7617866"><ele>673.6</ele><time>2026-04-11T12:55:12.476Z</time></trkpt><trkpt lat="44.4010254" lon="10.7619141"><ele>675.2</ele><time>2026-04-11T12:55:14.51Z</time></trkpt><trkpt lat="44.401043" lon="10.7620479"><ele>676.8</ele><time>2026-04-11T12:55:16.501Z</time></trkpt><trkpt lat="44.4010612" lon="10.7622028"><ele>678.4</ele><time>2026-04-11T12:55:18.498Z</time></trkpt><trkpt lat="44.401083" lon="10.7623501"><ele>680.0</ele><time>2026-04-11T12:55:20.505Z</time></trkpt><trkpt lat="44.4011055" lon="10.7625097"><ele>680.0</ele><time>2026-04-11T12:55:22.517Z</time></trkpt><trkpt lat="44.4011169" lon="10.7626738"><ele>680.0</ele><time>2026-04-11T12:55:24.481Z</time></trkpt><trkpt lat="44.4011323" lon="10.7628353"><ele>680.0</ele><time>2026-04-11T12:55:26.469Z</time></trkpt><trkpt lat="44.4011503" lon="10.7630024"><ele>680.0</ele><time>2026-04-11T12:55:28.493Z</time></trkpt><trkpt lat="44.4011895" lon="10.7630855"><ele>680.0</ele><time>2026-04-11T12:55:29.493Z</time></trkpt><trkpt lat="44.4012395" lon="10.7631676"><ele>681.1666666666666</ele><time>2026-04-11T12:55:30.495Z</time></trkpt><trkpt lat="44.4012966" lon="10.7632591"><ele>682.3333333333333</ele><time>2026-04-11T12:55:31.49Z</time></trkpt><trkpt lat="44.4013443" lon="10.7633539"><ele>683.5</ele><time>2026-04-11T12:55:32.498Z</time></trkpt><trkpt lat="44.4013734" lon="10.76346"><ele>684.6666666666666</ele><time>2026-04-11T12:55:33.514Z</time></trkpt><trkpt lat="44.4013889" lon="10.7635851"><ele>685.8333333333334</ele><time>2026-04-11T12:55:34.484Z</time></trkpt><trkpt lat="44.4014043" lon="10.7637141"><ele>687.0</ele><time>2026-04-11T12:55:35.482Z</time></trkpt><trkpt lat="44.4014261" lon="10.7638545"><ele>690.2</ele><time>2026-04-11T12:55:36.529Z</time></trkpt><trkpt lat="44.401445" lon="10.7639937"><ele>693.4000000000001</ele><time>2026-04-11T12:55:37.495Z</time></trkpt><trkpt lat="44.4014559" lon="10.7641252"><ele>696.5999999999999</ele><time>2026-04-11T12:55:38.486Z</time></trkpt><trkpt lat="44.4014687" lon="10.764264"><ele>699.8</ele><time>2026-04-11T12:55:39.473Z</time></trkpt><trkpt lat="44.4014764" lon="10.7644177"><ele>703.0</ele><time>2026-04-11T12:55:40.505Z</time></trkpt><trkpt lat="44.4014876" lon="10.7645647"><ele>705.2</ele><time>2026-04-11T12:55:41.508Z</time></trkpt><trkpt lat="44.4015112" lon="10.7647096"><ele>707.4</ele><time>2026-04-11T12:55:42.495Z</time></trkpt><trkpt lat="44.4015508" lon="10.764853"><ele>709.6</ele><time>2026-04-11T12:55:43.484Z</time></trkpt><trkpt lat="44.4015946" lon="10.7649941"><ele>711.8000000000001</ele><time>2026-04-11T12:55:44.488Z</time></trkpt><trkpt lat="44.4016293" lon="10.7651572"><ele>714.0</ele><time>2026-04-11T12:55:45.509Z</time></trkpt><trkpt lat="44.4016574" lon="10.7653053"><ele>715.6666666666666</ele><time>2026-04-11T12:55:46.503Z</time></trkpt><trkpt lat="44.4016762" lon="10.7654388"><ele>717.3333333333334</ele><time>2026-04-11T12:55:47.487Z</time></trkpt><trkpt lat="44.401691" lon="10.7655501"><ele>719.0</ele><time>2026-04-11T12:55:48.452Z</time></trkpt><trkpt lat="44.4016965" lon="10.7656928"><ele>720.6666666666667</ele><time>2026-04-11T12:55:50.492Z</time></trkpt><trkpt lat="44.4017043" lon="10.7657806"><ele>722.3333333333334</ele><time>2026-04-11T12:55:53.509Z</time></trkpt><trkpt lat="44.4017663" lon="10.7657964"><ele>724.0</ele><time>2026-04-11T12:55:56.491Z</time></trkpt><trkpt lat="44.401848" lon="10.7658019"><ele>724.0</ele><time>2026-04-11T12:56:10.539Z</time></trkpt><trkpt lat="44.4017849" lon="10.7657856"><ele>724.0</ele><time>2026-04-11T12:56:18.467Z</time></trkpt><trkpt lat="44.4017186" lon="10.7657841"><ele>724.0</ele><time>2026-04-11T12:56:24.492Z</time></trkpt><trkpt lat="44.4016169" lon="10.76577"><ele>724.0</ele><time>2026-04-11T12:56:26.487Z</time></trkpt><trkpt lat="44.4014815" lon="10.7657533"><ele>724.0</ele><time>2026-04-11T12:56:28.474Z</time></trkpt><trkpt lat="44.401404" lon="10.765751"><ele>724.0</ele><time>2026-04-11T12:56:29.499Z</time></trkpt><trkpt lat="44.4013248" lon="10.765749"><ele>724.6666666666667</ele><time>2026-04-11T12:56:30.519Z</time></trkpt><trkpt lat="44.4012372" lon="10.7657525"><ele>725.3333333333334</ele><time>2026-04-11T12:56:31.476Z</time></trkpt><trkpt lat="44.4011546" lon="10.7657595"><ele>726.0</ele><time>2026-04-11T12:56:32.489Z</time></trkpt><trkpt lat="44.4010736" lon="10.7657725"><ele>726.6666666666666</ele><time>2026-04-11T12:56:33.513Z</time></trkpt><trkpt lat="44.4009932" lon="10.7657962"><ele>727.3333333333333</ele><time>2026-04-11T12:56:34.498Z</time></trkpt><trkpt lat="44.4009182" lon="10.7658341"><ele>728.0</ele><time>2026-04-11T12:56:35.504Z</time></trkpt><trkpt lat="44.4008461" lon="10.7658807"><ele>728.0</ele><time>2026-04-11T12:56:36.474Z</time></trkpt><trkpt lat="44.400774" lon="10.7659311"><ele>728.0</ele><time>2026-04-11T12:56:37.487Z</time></trkpt><trkpt lat="44.4006967" lon="10.7659735"><ele>728.0</ele><time>2026-04-11T12:56:38.456Z</time></trkpt><trkpt lat="44.4006159" lon="10.7660009"><ele>728.0</ele><time>2026-04-11T12:56:39.514Z</time></trkpt><trkpt lat="44.4005424" lon="10.7660198"><ele>728.0</ele><time>2026-04-11T12:56:40.507Z</time></trkpt><trkpt lat="44.4004775" lon="10.7660352"><ele>728.0</ele><time>2026-04-11T12:56:41.495Z</time></trkpt><trkpt lat="44.400367" lon="10.7660725"><ele>729.0</ele><time>2026-04-11T12:56:43.528Z</time></trkpt><trkpt lat="44.4002683" lon="10.7661321"><ele>730.0</ele><time>2026-04-11T12:56:45.498Z</time></trkpt><trkpt lat="44.4001683" lon="10.7662136"><ele>731.0</ele><time>2026-04-11T12:56:47.479Z</time></trkpt><trkpt lat="44.4001118" lon="10.7662585"><ele>732.0</ele><time>2026-04-11T12:56:48.488Z</time></trkpt><trkpt lat="44.4000504" lon="10.7662934"><ele>733.0</ele><time>2026-04-11T12:56:49.495Z</time></trkpt><trkpt lat="44.3999833" lon="10.7663229"><ele>734.0</ele><time>2026-04-11T12:56:50.513Z</time></trkpt><trkpt lat="44.3999123" lon="10.7663485"><ele>734.0</ele><time>2026-04-11T12:56:51.473Z</time></trkpt><trkpt lat="44.3998402" lon="10.7663681"><ele>734.0</ele><time>2026-04-11T12:56:52.546Z</time></trkpt><trkpt lat="44.3997636" lon="10.766378"><ele>734.0</ele><time>2026-04-11T12:56:53.484Z</time></trkpt><trkpt lat="44.3996839" lon="10.7663803"><ele>734.0</ele><time>2026-04-11T12:56:54.486Z</time></trkpt><trkpt lat="44.3995982" lon="10.766381"><ele>734.0</ele><time>2026-04-11T12:56:55.505Z</time></trkpt><trkpt lat="44.3995124" lon="10.7663835"><ele>734.0</ele><time>2026-04-11T12:56:56.503Z</time></trkpt><trkpt lat="44.3994268" lon="10.7663849"><ele>733.6</ele><time>2026-04-11T12:56:57.515Z</time></trkpt><trkpt lat="44.3993336" lon="10.7663834"><ele>733.2</ele><time>2026-04-11T12:56:58.475Z</time></trkpt><trkpt lat="44.3992347" lon="10.766369"><ele>732.8000000000001</ele><time>2026-04-11T12:56:59.493Z</time></trkpt><trkpt lat="44.3991298" lon="10.766345"><ele>732.4000000000001</ele><time>2026-04-11T12:57:00.451Z</time></trkpt><trkpt lat="44.3990205" lon="10.7663188"><ele>732.0</ele><time>2026-04-11T12:57:01.482Z</time></trkpt><trkpt lat="44.3989064" lon="10.7663011"><ele>732.0</ele><time>2026-04-11T12:57:02.503Z</time></trkpt><trkpt lat="44.3987967" lon="10.766299"><ele>732.0</ele><time>2026-04-11T12:57:03.548Z</time></trkpt><trkpt lat="44.3986981" lon="10.7663049"><ele>732.0</ele><time>2026-04-11T12:57:04.481Z</time></trkpt><trkpt lat="44.3986158" lon="10.7663093"><ele>732.0</ele><time>2026-04-11T12:57:05.482Z</time></trkpt><trkpt lat="44.3985518" lon="10.7663139"><ele>732.0</ele><time>2026-04-11T12:57:06.489Z</time></trkpt><trkpt lat="44.3984608" lon="10.7663567"><ele>732.0</ele><time>2026-04-11T12:57:08.505Z</time></trkpt><trkpt lat="44.3983914" lon="10.7664511"><ele>732.0</ele><time>2026-04-11T12:57:10.483Z</time></trkpt><trkpt lat="44.3983349" lon="10.7665467"><ele>732.0</ele><time>2026-04-11T12:57:12.475Z</time></trkpt><trkpt lat="44.3982769" lon="10.7666573"><ele>732.0</ele><time>2026-04-11T12:57:14.502Z</time></trkpt><trkpt lat="44.3982116" lon="10.766792"><ele>732.0</ele><time>2026-04-11T12:57:16.512Z</time></trkpt><trkpt lat="44.3981788" lon="10.7668708"><ele>731.0</ele><time>2026-04-11T12:57:17.472Z</time></trkpt><trkpt lat="44.3981501" lon="10.7669524"><ele>730.0</ele><time>2026-04-11T12:57:18.514Z</time></trkpt><trkpt lat="44.3981151" lon="10.7670889"><ele>729.0</ele><time>2026-04-11T12:57:20.566Z</time></trkpt><trkpt lat="44.3981092" lon="10.7671935"><ele>728.0</ele><time>2026-04-11T12:57:22.48Z</time></trkpt><trkpt lat="44.3981199" lon="10.7673053"><ele>727.0</ele><time>2026-04-11T12:57:25.503Z</time></trkpt><trkpt lat="44.3981359" lon="10.7674021"><ele>726.0</ele><time>2026-04-11T12:57:28.503Z</time></trkpt><trkpt lat="44.3981581" lon="10.7674896"><ele>726.0</ele><time>2026-04-11T12:57:30.481Z</time></trkpt><trkpt lat="44.3981933" lon="10.7676038"><ele>726.0</ele><time>2026-04-11T12:57:33.487Z</time></trkpt><trkpt lat="44.3982319" lon="10.7676878"><ele>726.0</ele><time>2026-04-11T12:57:35.483Z</time></trkpt><trkpt lat="44.3982744" lon="10.7677685"><ele>726.0</ele><time>2026-04-11T12:57:37.477Z</time></trkpt><trkpt lat="44.3983486" lon="10.7678592"><ele>726.0</ele><time>2026-04-11T12:57:40.495Z</time></trkpt><trkpt lat="44.3984383" lon="10.7679138"><ele>726.0</ele><time>2026-04-11T12:57:42.47Z</time></trkpt><trkpt lat="44.3985159" lon="10.7679623"><ele>726.0</ele><time>2026-04-11T12:57:44.459Z</time></trkpt><trkpt lat="44.3986142" lon="10.7680499"><ele>726.0</ele><time>2026-04-11T12:57:46.484Z</time></trkpt><trkpt lat="44.3987128" lon="10.7681439"><ele>726.0</ele><time>2026-04-11T12:57:48.476Z</time></trkpt><trkpt lat="44.3987574" lon="10.7682202"><ele>726.0</ele><time>2026-04-11T12:57:49.503Z</time></trkpt><trkpt lat="44.3988033" lon="10.7682928"><ele>726.0</ele><time>2026-04-11T12:57:50.472Z</time></trkpt><trkpt lat="44.3988494" lon="10.768364"><ele>726.0</ele><time>2026-04-11T12:57:51.486Z</time></trkpt><trkpt lat="44.398933" lon="10.7684613"><ele>728.1999999999999</ele><time>2026-04-11T12:57:53.492Z</time></trkpt><trkpt lat="44.3990072" lon="10.7685738"><ele>730.4</ele><time>2026-04-11T12:57:55.479Z</time></trkpt><trkpt lat="44.3990546" lon="10.7686943"><ele>732.6</ele><time>2026-04-11T12:57:57.496Z</time></trkpt><trkpt lat="44.3991389" lon="10.7688026"><ele>734.8</ele><time>2026-04-11T12:57:59.493Z</time></trkpt><trkpt lat="44.3992406" lon="10.7689095"><ele>737.0</ele><time>2026-04-11T12:58:01.5Z</time></trkpt><trkpt lat="44.3992908" lon="10.7689731"><ele>737.0</ele><time>2026-04-11T12:58:02.49Z</time></trkpt><trkpt lat="44.3993522" lon="10.76905"><ele>737.0</ele><time>2026-04-11T12:58:04.504Z</time></trkpt><trkpt lat="44.3993851" lon="10.7692442"><ele>737.0</ele><time>2026-04-11T12:58:06.476Z</time></trkpt><trkpt lat="44.3993674" lon="10.7693677"><ele>737.0</ele><time>2026-04-11T12:58:07.496Z</time></trkpt><trkpt lat="44.3993686" lon="10.7695114"><ele>737.0</ele><time>2026-04-11T12:58:08.479Z</time></trkpt><trkpt lat="44.3993678" lon="10.7696417"><ele>738.8333333333333</ele><time>2026-04-11T12:58:09.494Z</time></trkpt><trkpt lat="44.3993682" lon="10.7697795"><ele>740.6666666666666</ele><time>2026-04-11T12:58:10.508Z</time></trkpt><trkpt lat="44.3993543" lon="10.7698801"><ele>742.5</ele><time>2026-04-11T12:58:11.535Z</time></trkpt><trkpt lat="44.3993397" lon="10.7699872"><ele>744.3333333333334</ele><time>2026-04-11T12:58:12.49Z</time></trkpt><trkpt lat="44.3993125" lon="10.770097"><ele>746.1666666666667</ele><time>2026-04-11T12:58:13.501Z</time></trkpt><trkpt lat="44.399293" lon="10.7701824"><ele>748.0</ele><time>2026-04-11T12:58:14.486Z</time></trkpt><trkpt lat="44.3992829" lon="10.7702862"><ele>749.6666666666667</ele><time>2026-04-11T12:58:15.505Z</time></trkpt><trkpt lat="44.3992715" lon="10.7703828"><ele>751.3333333333334</ele><time>2026-04-11T12:58:16.504Z</time></trkpt><trkpt lat="44.3992614" lon="10.770471"><ele>753.0</ele><time>2026-04-11T12:58:17.53Z</time></trkpt><trkpt lat="44.3992579" lon="10.7705591"><ele>754.6666666666666</ele><time>2026-04-11T12:58:18.451Z</time></trkpt><trkpt lat="44.3992706" lon="10.7706634"><ele>756.3333333333333</ele><time>2026-04-11T12:58:19.439Z</time></trkpt><trkpt lat="44.3992839" lon="10.7708221"><ele>758.0</ele><time>2026-04-11T12:58:21.481Z</time></trkpt><trkpt lat="44.3992785" lon="10.7709817"><ele>758.5</ele><time>2026-04-11T12:58:23.474Z</time></trkpt><trkpt lat="44.399275" lon="10.7711379"><ele>759.0</ele><time>2026-04-11T12:58:25.441Z</time></trkpt><trkpt lat="44.3992748" lon="10.7712295"><ele>759.5</ele><time>2026-04-11T12:58:26.49Z</time></trkpt><trkpt lat="44.3992573" lon="10.7713295"><ele>760.0</ele><time>2026-04-11T12:58:27.473Z</time></trkpt><trkpt lat="44.399243" lon="10.7714257"><ele>760.5</ele><time>2026-04-11T12:58:28.456Z</time></trkpt><trkpt lat="44.3992291" lon="10.7715198"><ele>761.0</ele><time>2026-04-11T12:58:29.491Z</time></trkpt><trkpt lat="44.3991828" lon="10.7716868"><ele>761.0</ele><time>2026-04-11T12:58:31.472Z</time></trkpt><trkpt lat="44.3991604" lon="10.7717824"><ele>761.0</ele><time>2026-04-11T12:58:32.483Z</time></trkpt><trkpt lat="44.3991534" lon="10.7718822"><ele>761.0</ele><time>2026-04-11T12:58:33.509Z</time></trkpt><trkpt lat="44.3991568" lon="10.7719887"><ele>761.0</ele><time>2026-04-11T12:58:34.488Z</time></trkpt><trkpt lat="44.3991689" lon="10.7720944"><ele>761.0</ele><time>2026-04-11T12:58:35.487Z</time></trkpt><trkpt lat="44.3991878" lon="10.7721954"><ele>761.0</ele><time>2026-04-11T12:58:36.479Z</time></trkpt><trkpt lat="44.3992164" lon="10.7722988"><ele>761.1666666666666</ele><time>2026-04-11T12:58:37.478Z</time></trkpt><trkpt lat="44.3992477" lon="10.7724089"><ele>761.3333333333333</ele><time>2026-04-11T12:58:38.485Z</time></trkpt><trkpt lat="44.3992735" lon="10.7725137"><ele>761.5</ele><time>2026-04-11T12:58:39.474Z</time></trkpt><trkpt lat="44.3992887" lon="10.7725997"><ele>761.6666666666666</ele><time>2026-04-11T12:58:40.464Z</time></trkpt><trkpt lat="44.3993176" lon="10.7727233"><ele>761.8333333333334</ele><time>2026-04-11T12:58:42.487Z</time></trkpt><trkpt lat="44.3993631" lon="10.7727908"><ele>762.0</ele><time>2026-04-11T12:58:44.484Z</time></trkpt><trkpt lat="44.3994154" lon="10.7728454"><ele>762.6</ele><time>2026-04-11T12:58:46.468Z</time></trkpt><trkpt lat="44.3994117" lon="10.7729646"><ele>763.2</ele><time>2026-04-11T12:58:48.473Z</time></trkpt><trkpt lat="44.3993466" lon="10.7730169"><ele>763.8</ele><time>2026-04-11T12:58:49.455Z</time></trkpt><trkpt lat="44.3992667" lon="10.7731047"><ele>764.4</ele><time>2026-04-11T12:58:50.478Z</time></trkpt><trkpt lat="44.3991747" lon="10.7731994"><ele>765.0</ele><time>2026-04-11T12:58:51.506Z</time></trkpt><trkpt lat="44.3990904" lon="10.7732924"><ele>765.0</ele><time>2026-04-11T12:58:52.469Z</time></trkpt><trkpt lat="44.3990023" lon="10.7733894"><ele>765.0</ele><time>2026-04-11T12:58:53.463Z</time></trkpt><trkpt lat="44.3989196" lon="10.7734967"><ele>765.0</ele><time>2026-04-11T12:58:54.469Z</time></trkpt><trkpt lat="44.3988301" lon="10.7736009"><ele>765.0</ele><time>2026-04-11T12:58:55.474Z</time></trkpt><trkpt lat="44.3987353" lon="10.773706"><ele>766.8333333333334</ele><time>2026-04-11T12:58:56.478Z</time></trkpt><trkpt lat="44.3986419" lon="10.7738025"><ele>768.6666666666667</ele><time>2026-04-11T12:58:57.492Z</time></trkpt><trkpt lat="44.3985884" lon="10.7738758"><ele>770.5</ele><time>2026-04-11T12:58:58.509Z</time></trkpt><trkpt lat="44.398515" lon="10.7739765"><ele>772.3333333333334</ele><time>2026-04-11T12:59:00.502Z</time></trkpt><trkpt lat="44.3984895" lon="10.7740627"><ele>774.1666666666667</ele><time>2026-04-11T12:59:03.464Z</time></trkpt><trkpt lat="44.3985402" lon="10.774117"><ele>776.0</ele><time>2026-04-11T12:59:05.507Z</time></trkpt><trkpt lat="44.3986494" lon="10.7741586"><ele>776.0000000000001</ele><time>2026-04-11T12:59:07.439Z</time></trkpt><trkpt lat="44.3987201" lon="10.7741949"><ele>776.0</ele><time>2026-04-11T12:59:08.472Z</time></trkpt><trkpt lat="44.398795" lon="10.7742422"><ele>776.0</ele><time>2026-04-11T12:59:09.477Z</time></trkpt><trkpt lat="44.3988693" lon="10.7743082"><ele>776.0</ele><time>2026-04-11T12:59:10.497Z</time></trkpt><trkpt lat="44.398941" lon="10.7743921"><ele>776.0000000000001</ele><time>2026-04-11T12:59:11.491Z</time></trkpt><trkpt lat="44.3990124" lon="10.7744756"><ele>776.0</ele><time>2026-04-11T12:59:12.485Z</time></trkpt><trkpt lat="44.3990737" lon="10.7745712"><ele>776.8333333333334</ele><time>2026-04-11T12:59:13.489Z</time></trkpt><trkpt lat="44.3991224" lon="10.7746593"><ele>777.6666666666667</ele><time>2026-04-11T12:59:14.485Z</time></trkpt><trkpt lat="44.3991603" lon="10.774732"><ele>778.5</ele><time>2026-04-11T12:59:15.503Z</time></trkpt><trkpt lat="44.399196" lon="10.7748175"><ele>779.3333333333333</ele><time>2026-04-11T12:59:22.477Z</time></trkpt><trkpt lat="44.3992356" lon="10.7749053"><ele>780.1666666666666</ele><time>2026-04-11T12:59:24.48Z</time></trkpt><trkpt lat="44.3992826" lon="10.7750098"><ele>781.0</ele><time>2026-04-11T12:59:26.489Z</time></trkpt><trkpt lat="44.399323" lon="10.7751258"><ele>780.8</ele><time>2026-04-11T12:59:28.506Z</time></trkpt><trkpt lat="44.3993477" lon="10.7752642"><ele>780.5999999999999</ele><time>2026-04-11T12:59:30.476Z</time></trkpt><trkpt lat="44.3993335" lon="10.7753526"><ele>780.4</ele><time>2026-04-11T12:59:31.455Z</time></trkpt><trkpt lat="44.3993164" lon="10.7754716"><ele>780.2</ele><time>2026-04-11T12:59:32.437Z</time></trkpt><trkpt lat="44.3992954" lon="10.7756062"><ele>780.0</ele><time>2026-04-11T12:59:33.468Z</time></trkpt><trkpt lat="44.3992737" lon="10.7757483"><ele>780.0</ele><time>2026-04-11T12:59:34.471Z</time></trkpt><trkpt lat="44.3992567" lon="10.7758908"><ele>780.0</ele><time>2026-04-11T12:59:35.541Z</time></trkpt><trkpt lat="44.3992382" lon="10.7760183"><ele>780.0</ele><time>2026-04-11T12:59:36.499Z</time></trkpt><trkpt lat="44.3992215" lon="10.7761321"><ele>780.0</ele><time>2026-04-11T12:59:37.497Z</time></trkpt><trkpt lat="44.3992073" lon="10.7762273"><ele>780.0</ele><time>2026-04-11T12:59:38.499Z</time></trkpt><trkpt lat="44.3991824" lon="10.7763821"><ele>780.2</ele><time>2026-04-11T12:59:40.51Z</time></trkpt><trkpt lat="44.399163" lon="10.7764936"><ele>780.4</ele><time>2026-04-11T12:59:42.495Z</time></trkpt><trkpt lat="44.3991478" lon="10.7766241"><ele>780.5999999999999</ele><time>2026-04-11T12:59:45.493Z</time></trkpt><trkpt lat="44.3991733" lon="10.7767223"><ele>780.8</ele><time>2026-04-11T12:59:47.475Z</time></trkpt><trkpt lat="44.3991797" lon="10.7768565"><ele>781.0</ele><time>2026-04-11T12:59:49.487Z</time></trkpt><trkpt lat="44.3991489" lon="10.7770212"><ele>781.4</ele><time>2026-04-11T12:59:51.484Z</time></trkpt><trkpt lat="44.3991167" lon="10.777178"><ele>781.8</ele><time>2026-04-11T12:59:53.455Z</time></trkpt><trkpt lat="44.3990906" lon="10.7772615"><ele>782.1999999999999</ele><time>2026-04-11T12:59:54.487Z</time></trkpt><trkpt lat="44.3990607" lon="10.7774053"><ele>782.5999999999999</ele><time>2026-04-11T12:59:56.485Z</time></trkpt><trkpt lat="44.3990556" lon="10.7775549"><ele>783.0</ele><time>2026-04-11T12:59:58.49Z</time></trkpt><trkpt lat="44.3990442" lon="10.7777063"><ele>784.4</ele><time>2026-04-11T13:00:00.489Z</time></trkpt><trkpt lat="44.3990246" lon="10.7778593"><ele>785.8</ele><time>2026-04-11T13:00:02.493Z</time></trkpt><trkpt lat="44.3990102" lon="10.7780086"><ele>787.2</ele><time>2026-04-11T13:00:04.516Z</time></trkpt><trkpt lat="44.3990037" lon="10.7781601"><ele>788.6</ele><time>2026-04-11T13:00:06.472Z</time></trkpt><trkpt lat="44.3990111" lon="10.7783122"><ele>790.0</ele><time>2026-04-11T13:00:08.501Z</time></trkpt><trkpt lat="44.3990205" lon="10.7784503"><ele>789.9999999999999</ele><time>2026-04-11T13:00:10.537Z</time></trkpt><trkpt lat="44.3990347" lon="10.7785733"><ele>790.0</ele><time>2026-04-11T13:00:12.467Z</time></trkpt><trkpt lat="44.3991053" lon="10.7787003"><ele>790.0</ele><time>2026-04-11T13:00:14.497Z</time></trkpt><trkpt lat="44.3991496" lon="10.778766"><ele>790.0</ele><time>2026-04-11T13:00:15.484Z</time></trkpt><trkpt lat="44.3991937" lon="10.7788314"><ele>789.9999999999999</ele><time>2026-04-11T13:00:16.543Z</time></trkpt><trkpt lat="44.3992413" lon="10.7789086"><ele>790.0</ele><time>2026-04-11T13:00:17.464Z</time></trkpt><trkpt lat="44.3992884" lon="10.7789829"><ele>790.0</ele><time>2026-04-11T13:00:18.503Z</time></trkpt><trkpt lat="44.3993324" lon="10.7790588"><ele>790.0</ele><time>2026-04-11T13:00:19.485Z</time></trkpt><trkpt lat="44.3993746" lon="10.7791316"><ele>790.0</ele><time>2026-04-11T13:00:20.485Z</time></trkpt><trkpt lat="44.3994158" lon="10.7792012"><ele>790.0</ele><time>2026-04-11T13:00:21.473Z</time></trkpt><trkpt lat="44.3994549" lon="10.7792704"><ele>790.0</ele><time>2026-04-11T13:00:22.535Z</time></trkpt><trkpt lat="44.3995194" lon="10.7793674"><ele>790.0</ele><time>2026-04-11T13:00:24.492Z</time></trkpt><trkpt lat="44.3995667" lon="10.7794308"><ele>790.0</ele><time>2026-04-11T13:00:26.505Z</time></trkpt><trkpt lat="44.3996385" lon="10.7795434"><ele>790.3333333333333</ele><time>2026-04-11T13:03:00.488Z</time></trkpt><trkpt lat="44.3996767" lon="10.7796561"><ele>790.6666666666666</ele><time>2026-04-11T13:03:02.492Z</time></trkpt><trkpt lat="44.399684" lon="10.7797576"><ele>791.0</ele><time>2026-04-11T13:03:03.479Z</time></trkpt><trkpt lat="44.399686" lon="10.7798818"><ele>791.3333333333333</ele><time>2026-04-11T13:03:04.479Z</time></trkpt><trkpt lat="44.3996871" lon="10.7800114"><ele>791.6666666666666</ele><time>2026-04-11T13:03:05.496Z</time></trkpt><trkpt lat="44.3996896" lon="10.7801237"><ele>792.0</ele><time>2026-04-11T13:03:06.507Z</time></trkpt><trkpt lat="44.3996943" lon="10.7802228"><ele>792.1666666666666</ele><time>2026-04-11T13:03:07.452Z</time></trkpt><trkpt lat="44.3996986" lon="10.7803208"><ele>792.3333333333333</ele><time>2026-04-11T13:03:08.51Z</time></trkpt><trkpt lat="44.3997036" lon="10.7804283"><ele>792.5</ele><time>2026-04-11T13:03:09.49Z</time></trkpt><trkpt lat="44.3997072" lon="10.7805342"><ele>792.6666666666666</ele><time>2026-04-11T13:03:10.507Z</time></trkpt><trkpt lat="44.3997106" lon="10.7806455"><ele>792.8333333333333</ele><time>2026-04-11T13:03:11.491Z</time></trkpt><trkpt lat="44.3997135" lon="10.7807595"><ele>793.0</ele><time>2026-04-11T13:03:12.484Z</time></trkpt><trkpt lat="44.3997175" lon="10.7808811"><ele>792.9999999999999</ele><time>2026-04-11T13:03:13.492Z</time></trkpt><trkpt lat="44.3997223" lon="10.7809979"><ele>793.0</ele><time>2026-04-11T13:03:14.495Z</time></trkpt><trkpt lat="44.3997272" lon="10.7811069"><ele>793.0</ele><time>2026-04-11T13:03:15.469Z</time></trkpt><trkpt lat="44.3997323" lon="10.7812178"><ele>793.0</ele><time>2026-04-11T13:03:16.477Z</time></trkpt><trkpt lat="44.3997391" lon="10.781335"><ele>792.9999999999999</ele><time>2026-04-11T13:03:17.493Z</time></trkpt><trkpt lat="44.3997468" lon="10.781454"><ele>793.0</ele><time>2026-04-11T13:03:18.491Z</time></trkpt><trkpt lat="44.399755" lon="10.7815725"><ele>793.3333333333333</ele><time>2026-04-11T13:03:19.511Z</time></trkpt><trkpt lat="44.3997624" lon="10.7816861"><ele>793.6666666666666</ele><time>2026-04-11T13:03:20.507Z</time></trkpt><trkpt lat="44.3997692" lon="10.7817949"><ele>794.0</ele><time>2026-04-11T13:03:21.476Z</time></trkpt><trkpt lat="44.3997765" lon="10.7818977"><ele>794.3333333333333</ele><time>2026-04-11T13:03:22.496Z</time></trkpt><trkpt lat="44.399784" lon="10.7819896"><ele>794.6666666666666</ele><time>2026-04-11T13:03:23.471Z</time></trkpt><trkpt lat="44.3997961" lon="10.7821548"><ele>795.0</ele><time>2026-04-11T13:03:25.492Z</time></trkpt><trkpt lat="44.3998042" lon="10.782307"><ele>795.0</ele><time>2026-04-11T13:03:27.472Z</time></trkpt><trkpt lat="44.3998128" lon="10.7824316"><ele>795.0</ele><time>2026-04-11T13:03:29.497Z</time></trkpt><trkpt lat="44.3998175" lon="10.7825219"><ele>795.0</ele><time>2026-04-11T13:03:31.502Z</time></trkpt><trkpt lat="44.3998271" lon="10.7826163"><ele>795.0</ele><time>2026-04-11T13:03:33.461Z</time></trkpt><trkpt lat="44.3998339" lon="10.7827429"><ele>795.0</ele><time>2026-04-11T13:03:36.496Z</time></trkpt><trkpt lat="44.3998392" lon="10.7828443"><ele>795.0</ele><time>2026-04-11T13:03:39.457Z</time></trkpt><trkpt lat="44.3998563" lon="10.7829413"><ele>795.0</ele><time>2026-04-11T13:04:16.474Z</time></trkpt><trkpt lat="44.3998712" lon="10.7831164"><ele>795.0</ele><time>2026-04-11T13:04:18.472Z</time></trkpt><trkpt lat="44.3998776" lon="10.78324"><ele>795.0</ele><time>2026-04-11T13:04:19.521Z</time></trkpt><trkpt lat="44.3998831" lon="10.7833683"><ele>795.0</ele><time>2026-04-11T13:04:20.486Z</time></trkpt><trkpt lat="44.3998914" lon="10.7834818"><ele>795.0</ele><time>2026-04-11T13:04:21.521Z</time></trkpt><trkpt lat="44.3998986" lon="10.7835882"><ele>795.4</ele><time>2026-04-11T13:04:22.499Z</time></trkpt><trkpt lat="44.3999033" lon="10.7836851"><ele>795.8</ele><time>2026-04-11T13:04:23.45Z</time></trkpt><trkpt lat="44.3999056" lon="10.7838446"><ele>796.2</ele><time>2026-04-11T13:04:25.492Z</time></trkpt><trkpt lat="44.3998753" lon="10.7839845"><ele>796.6</ele><time>2026-04-11T13:04:27.529Z</time></trkpt><trkpt lat="44.3998143" lon="10.7841049"><ele>797.0</ele><time>2026-04-11T13:04:29.466Z</time></trkpt><trkpt lat="44.3998019" lon="10.7842705"><ele>797.1666666666667</ele><time>2026-04-11T13:04:31.533Z</time></trkpt><trkpt lat="44.3998092" lon="10.7843891"><ele>797.3333333333334</ele><time>2026-04-11T13:04:32.466Z</time></trkpt><trkpt lat="44.3998204" lon="10.7845156"><ele>797.5</ele><time>2026-04-11T13:04:33.473Z</time></trkpt><trkpt lat="44.399833" lon="10.7846453"><ele>797.6666666666667</ele><time>2026-04-11T13:04:34.453Z</time></trkpt><trkpt lat="44.3998441" lon="10.7847699"><ele>797.8333333333334</ele><time>2026-04-11T13:04:35.476Z</time></trkpt><trkpt lat="44.3998553" lon="10.7848865"><ele>798.0</ele><time>2026-04-11T13:04:36.494Z</time></trkpt><trkpt lat="44.3998686" lon="10.7849915"><ele>798.0</ele><time>2026-04-11T13:04:37.524Z</time></trkpt><trkpt lat="44.399889" lon="10.7851377"><ele>798.0</ele><time>2026-04-11T13:04:39.496Z</time></trkpt><trkpt lat="44.3998624" lon="10.7852575"><ele>798.0</ele><time>2026-04-11T13:04:41.489Z</time></trkpt><trkpt lat="44.3997723" lon="10.7853797"><ele>798.0</ele><time>2026-04-11T13:04:43.48Z</time></trkpt><trkpt lat="44.3997343" lon="10.7854521"><ele>798.0</ele><time>2026-04-11T13:04:44.49Z</time></trkpt><trkpt lat="44.3997191" lon="10.7855387"><ele>798.0</ele><time>2026-04-11T13:04:45.484Z</time></trkpt><trkpt lat="44.3997194" lon="10.7856357"><ele>797.7142857142857</ele><time>2026-04-11T13:04:46.452Z</time></trkpt><trkpt lat="44.3997298" lon="10.7857279"><ele>797.4285714285714</ele><time>2026-04-11T13:04:47.461Z</time></trkpt><trkpt lat="44.3997564" lon="10.7858436"><ele>797.1428571428571</ele><time>2026-04-11T13:04:49.463Z</time></trkpt><trkpt lat="44.3997948" lon="10.7859222"><ele>796.8571428571429</ele><time>2026-04-11T13:05:17.443Z</time></trkpt><trkpt lat="44.3997713" lon="10.7858247"><ele>796.5714285714286</ele><time>2026-04-11T13:05:22.486Z</time></trkpt><trkpt lat="44.3997401" lon="10.7857357"><ele>796.2857142857142</ele><time>2026-04-11T13:05:24.489Z</time></trkpt><trkpt lat="44.3996882" lon="10.7856842"><ele>796.0</ele><time>2026-04-11T13:05:26.483Z</time></trkpt><trkpt lat="44.3996115" lon="10.7856194"><ele>794.9999999999999</ele><time>2026-04-11T13:05:29.491Z</time></trkpt><trkpt lat="44.3995359" lon="10.7856463"><ele>794.0</ele><time>2026-04-11T13:05:32.49Z</time></trkpt><trkpt lat="44.3994936" lon="10.7857164"><ele>793.0</ele><time>2026-04-11T13:05:35.468Z</time></trkpt><trkpt lat="44.3994368" lon="10.7858024"><ele>792.0</ele><time>2026-04-11T13:05:38.482Z</time></trkpt><trkpt lat="44.3993894" lon="10.7858772"><ele>790.9999999999999</ele><time>2026-04-11T13:05:40.51Z</time></trkpt><trkpt lat="44.3993294" lon="10.7859746"><ele>790.0</ele><time>2026-04-11T13:05:42.488Z</time></trkpt><trkpt lat="44.3992553" lon="10.7860936"><ele>789.1428571428571</ele><time>2026-04-11T13:05:44.469Z</time></trkpt><trkpt lat="44.3992132" lon="10.7861623"><ele>788.2857142857143</ele><time>2026-04-11T13:05:45.459Z</time></trkpt><trkpt lat="44.3991699" lon="10.7862331"><ele>787.4285714285714</ele><time>2026-04-11T13:05:46.464Z</time></trkpt><trkpt lat="44.3991255" lon="10.7863043"><ele>786.5714285714286</ele><time>2026-04-11T13:05:47.494Z</time></trkpt><trkpt lat="44.3990819" lon="10.7863782"><ele>785.7142857142858</ele><time>2026-04-11T13:05:48.484Z</time></trkpt><trkpt lat="44.3990402" lon="10.7864538"><ele>784.8571428571429</ele><time>2026-04-11T13:05:49.512Z</time></trkpt><trkpt lat="44.3990011" lon="10.7865289"><ele>784.0</ele><time>2026-04-11T13:05:50.51Z</time></trkpt><trkpt lat="44.3989653" lon="10.7866022"><ele>784.0</ele><time>2026-04-11T13:05:51.463Z</time></trkpt><trkpt lat="44.3989004" lon="10.7867459"><ele>784.0</ele><time>2026-04-11T13:05:53.472Z</time></trkpt><trkpt lat="44.3988364" lon="10.7868966"><ele>784.0</ele><time>2026-04-11T13:05:55.496Z</time></trkpt><trkpt lat="44.3987767" lon="10.7870411"><ele>784.0</ele><time>2026-04-11T13:05:57.485Z</time></trkpt><trkpt lat="44.3987148" lon="10.787186"><ele>781.2</ele><time>2026-04-11T13:05:59.475Z</time></trkpt><trkpt lat="44.3986573" lon="10.7873244"><ele>778.4000000000001</ele><time>2026-04-11T13:06:01.499Z</time></trkpt><trkpt lat="44.3985998" lon="10.7874589"><ele>775.6</ele><time>2026-04-11T13:06:03.513Z</time></trkpt><trkpt lat="44.3985441" lon="10.7875966"><ele>772.8</ele><time>2026-04-11T13:06:05.486Z</time></trkpt><trkpt lat="44.3984906" lon="10.7877287"><ele>770.0</ele><time>2026-04-11T13:06:07.506Z</time></trkpt><trkpt lat="44.3984347" lon="10.7878532"><ele>768.0</ele><time>2026-04-11T13:06:09.469Z</time></trkpt><trkpt lat="44.3983818" lon="10.7879765"><ele>766.0</ele><time>2026-04-11T13:06:11.481Z</time></trkpt><trkpt lat="44.3983275" lon="10.7881075"><ele>764.0</ele><time>2026-04-11T13:06:13.476Z</time></trkpt><trkpt lat="44.3982664" lon="10.788239"><ele>762.0</ele><time>2026-04-11T13:06:15.49Z</time></trkpt><trkpt lat="44.3982154" lon="10.7883649"><ele>760.0</ele><time>2026-04-11T13:06:17.482Z</time></trkpt><trkpt lat="44.3981613" lon="10.7884944"><ele>758.0</ele><time>2026-04-11T13:06:19.518Z</time></trkpt><trkpt lat="44.3981041" lon="10.7886344"><ele>756.0</ele><time>2026-04-11T13:06:21.49Z</time></trkpt><trkpt lat="44.3980305" lon="10.7887707"><ele>754.0</ele><time>2026-04-11T13:06:23.505Z</time></trkpt><trkpt lat="44.3979423" lon="10.7888787"><ele>752.0</ele><time>2026-04-11T13:06:25.534Z</time></trkpt><trkpt lat="44.3978535" lon="10.7889635"><ele>750.2</ele><time>2026-04-11T13:06:27.494Z</time></trkpt><trkpt lat="44.3977588" lon="10.7890294"><ele>748.4000000000001</ele><time>2026-04-11T13:06:29.493Z</time></trkpt><trkpt lat="44.397669" lon="10.7891092"><ele>746.5999999999999</ele><time>2026-04-11T13:06:31.47Z</time></trkpt><trkpt lat="44.3976374" lon="10.7892422"><ele>744.8</ele><time>2026-04-11T13:06:33.487Z</time></trkpt><trkpt lat="44.3976364" lon="10.7893978"><ele>743.0</ele><time>2026-04-11T13:06:35.481Z</time></trkpt><trkpt lat="44.3976292" lon="10.7895572"><ele>742.8333333333333</ele><time>2026-04-11T13:06:37.462Z</time></trkpt><trkpt lat="44.3976202" lon="10.789694"><ele>742.6666666666666</ele><time>2026-04-11T13:06:39.504Z</time></trkpt><trkpt lat="44.3976052" lon="10.7898376"><ele>742.5</ele><time>2026-04-11T13:06:41.508Z</time></trkpt><trkpt lat="44.3975978" lon="10.7899265"><ele>742.3333333333334</ele><time>2026-04-11T13:06:42.478Z</time></trkpt><trkpt lat="44.39759" lon="10.7900196"><ele>742.1666666666667</ele><time>2026-04-11T13:06:43.531Z</time></trkpt><trkpt lat="44.3975726" lon="10.7901172"><ele>742.0</ele><time>2026-04-11T13:06:44.462Z</time></trkpt><trkpt lat="44.3975515" lon="10.790228"><ele>742.0</ele><time>2026-04-11T13:06:45.474Z</time></trkpt><trkpt lat="44.3975208" lon="10.7903578"><ele>742.0</ele><time>2026-04-11T13:06:46.46Z</time></trkpt><trkpt lat="44.3974986" lon="10.7904688"><ele>742.0</ele><time>2026-04-11T13:06:47.474Z</time></trkpt><trkpt lat="44.3974679" lon="10.790582"><ele>742.0</ele><time>2026-04-11T13:06:48.487Z</time></trkpt><trkpt lat="44.3974379" lon="10.7906934"><ele>742.0</ele><time>2026-04-11T13:06:49.475Z</time></trkpt><trkpt lat="44.3974104" lon="10.7907858"><ele>742.0</ele><time>2026-04-11T13:06:50.496Z</time></trkpt><trkpt lat="44.3973683" lon="10.7909212"><ele>742.6666666666667</ele><time>2026-04-11T13:06:52.482Z</time></trkpt><trkpt lat="44.3973303" lon="10.7910526"><ele>743.3333333333334</ele><time>2026-04-11T13:06:54.481Z</time></trkpt><trkpt lat="44.3972865" lon="10.7911196"><ele>744.0</ele><time>2026-04-11T13:06:55.505Z</time></trkpt><trkpt lat="44.3972347" lon="10.7911842"><ele>744.6666666666666</ele><time>2026-04-11T13:06:56.485Z</time></trkpt><trkpt lat="44.3971822" lon="10.7912531"><ele>745.3333333333333</ele><time>2026-04-11T13:06:57.496Z</time></trkpt><trkpt lat="44.3971246" lon="10.7913213"><ele>746.0</ele><time>2026-04-11T13:06:58.477Z</time></trkpt><trkpt lat="44.3970607" lon="10.79139"><ele>743.2857142857143</ele><time>2026-04-11T13:06:59.545Z</time></trkpt><trkpt lat="44.3969971" lon="10.7914463"><ele>740.5714285714287</ele><time>2026-04-11T13:07:00.487Z</time></trkpt><trkpt lat="44.396935" lon="10.7914947"><ele>737.8571428571429</ele><time>2026-04-11T13:07:01.498Z</time></trkpt><trkpt lat="44.396874" lon="10.7915365"><ele>735.1428571428571</ele><time>2026-04-11T13:07:02.477Z</time></trkpt><trkpt lat="44.3968126" lon="10.7915761"><ele>732.4285714285714</ele><time>2026-04-11T13:07:03.487Z</time></trkpt><trkpt lat="44.3967474" lon="10.7916107"><ele>729.7142857142857</ele><time>2026-04-11T13:07:04.451Z</time></trkpt><trkpt lat="44.3966754" lon="10.7916483"><ele>727.0</ele><time>2026-04-11T13:07:05.498Z</time></trkpt><trkpt lat="44.3966081" lon="10.7916824"><ele>727.0</ele><time>2026-04-11T13:07:06.477Z</time></trkpt><trkpt lat="44.3965446" lon="10.7917153"><ele>727.0</ele><time>2026-04-11T13:07:07.484Z</time></trkpt><trkpt lat="44.3964819" lon="10.7917489"><ele>727.0</ele><time>2026-04-11T13:07:08.506Z</time></trkpt><trkpt lat="44.3964221" lon="10.7917833"><ele>727.0</ele><time>2026-04-11T13:07:09.474Z</time></trkpt><trkpt lat="44.396317" lon="10.7918387"><ele>727.0</ele><time>2026-04-11T13:07:11.485Z</time></trkpt><trkpt lat="44.396214" lon="10.7918883"><ele>727.0</ele><time>2026-04-11T13:07:13.496Z</time></trkpt><trkpt lat="44.3961037" lon="10.7919338"><ele>725.6666666666667</ele><time>2026-04-11T13:07:15.464Z</time></trkpt><trkpt lat="44.3960394" lon="10.7919568"><ele>724.3333333333334</ele><time>2026-04-11T13:07:16.554Z</time></trkpt><trkpt lat="44.3959752" lon="10.7919808"><ele>723.0</ele><time>2026-04-11T13:07:17.47Z</time></trkpt><trkpt lat="44.3959063" lon="10.7920051"><ele>721.6666666666666</ele><time>2026-04-11T13:07:18.481Z</time></trkpt><trkpt lat="44.3958383" lon="10.7920265"><ele>720.3333333333333</ele><time>2026-04-11T13:07:19.45Z</time></trkpt><trkpt lat="44.3957751" lon="10.7920418"><ele>719.0</ele><time>2026-04-11T13:07:20.482Z</time></trkpt><trkpt lat="44.3956589" lon="10.7920617"><ele>719.0</ele><time>2026-04-11T13:07:22.518Z</time></trkpt><trkpt lat="44.3955562" lon="10.7921053"><ele>719.0</ele><time>2026-04-11T13:07:24.493Z</time></trkpt><trkpt lat="44.3954909" lon="10.7921965"><ele>719.0</ele><time>2026-04-11T13:07:26.478Z</time></trkpt><trkpt lat="44.3954663" lon="10.7923054"><ele>719.0</ele><time>2026-04-11T13:07:28.486Z</time></trkpt><trkpt lat="44.3954949" lon="10.7924463"><ele>719.0</ele><time>2026-04-11T13:07:30.478Z</time></trkpt><trkpt lat="44.3955302" lon="10.7925271"><ele>719.0</ele><time>2026-04-11T13:07:31.477Z</time></trkpt><trkpt lat="44.3955748" lon="10.7926129"><ele>719.0</ele><time>2026-04-11T13:07:32.471Z</time></trkpt><trkpt lat="44.3956181" lon="10.7927001"><ele>719.0</ele><time>2026-04-11T13:07:33.462Z</time></trkpt><trkpt lat="44.3956592" lon="10.7927928"><ele>719.0</ele><time>2026-04-11T13:07:34.471Z</time></trkpt><trkpt lat="44.3957013" lon="10.792881"><ele>719.0</ele><time>2026-04-11T13:07:35.473Z</time></trkpt><trkpt lat="44.3957376" lon="10.7929642"><ele>719.0</ele><time>2026-04-11T13:07:36.494Z</time></trkpt><trkpt lat="44.3957773" lon="10.7930615"><ele>718.4285714285713</ele><time>2026-04-11T13:07:37.473Z</time></trkpt><trkpt lat="44.3958117" lon="10.7931418"><ele>717.8571428571429</ele><time>2026-04-11T13:07:38.464Z</time></trkpt><trkpt lat="44.3958472" lon="10.7932161"><ele>717.2857142857142</ele><time>2026-04-11T13:07:39.508Z</time></trkpt><trkpt lat="44.3958826" lon="10.7932931"><ele>716.7142857142857</ele><time>2026-04-11T13:07:40.458Z</time></trkpt><trkpt lat="44.3959209" lon="10.7933762"><ele>716.1428571428571</ele><time>2026-04-11T13:07:41.481Z</time></trkpt><trkpt lat="44.3959551" lon="10.7934553"><ele>715.5714285714286</ele><time>2026-04-11T13:07:42.488Z</time></trkpt><trkpt lat="44.3960156" lon="10.7935915"><ele>715.0</ele><time>2026-04-11T13:07:44.478Z</time></trkpt><trkpt lat="44.396068" lon="10.7937566"><ele>714.0</ele><time>2026-04-11T13:07:46.48Z</time></trkpt><trkpt lat="44.3960996" lon="10.7938515"><ele>713.0</ele><time>2026-04-11T13:07:47.474Z</time></trkpt><trkpt lat="44.3961304" lon="10.7939455"><ele>712.0</ele><time>2026-04-11T13:07:48.45Z</time></trkpt><trkpt lat="44.3961621" lon="10.7940556"><ele>711.0</ele><time>2026-04-11T13:07:49.467Z</time></trkpt><trkpt lat="44.3962007" lon="10.7941529"><ele>710.0</ele><time>2026-04-11T13:07:50.545Z</time></trkpt><trkpt lat="44.3962373" lon="10.794244"><ele>709.0</ele><time>2026-04-11T13:07:51.47Z</time></trkpt><trkpt lat="44.3962833" lon="10.7943377"><ele>707.8000000000001</ele><time>2026-04-11T13:07:52.488Z</time></trkpt><trkpt lat="44.396329" lon="10.7944295"><ele>706.6</ele><time>2026-04-11T13:07:53.453Z</time></trkpt><trkpt lat="44.3963869" lon="10.7945231"><ele>705.4</ele><time>2026-04-11T13:07:54.469Z</time></trkpt><trkpt lat="44.3964485" lon="10.7946173"><ele>704.2</ele><time>2026-04-11T13:07:55.494Z</time></trkpt><trkpt lat="44.3965162" lon="10.7947197"><ele>703.0</ele><time>2026-04-11T13:07:56.503Z</time></trkpt><trkpt lat="44.3965929" lon="10.7948296"><ele>704.0</ele><time>2026-04-11T13:07:57.48Z</time></trkpt><trkpt lat="44.3966744" lon="10.794939"><ele>705.0</ele><time>2026-04-11T13:07:58.466Z</time></trkpt><trkpt lat="44.3967635" lon="10.7950488"><ele>706.0</ele><time>2026-04-11T13:07:59.49Z</time></trkpt><trkpt lat="44.3968641" lon="10.7951574"><ele>707.0</ele><time>2026-04-11T13:08:00.45Z</time></trkpt><trkpt lat="44.3969763" lon="10.7952675"><ele>707.0</ele><time>2026-04-11T13:08:01.463Z</time></trkpt><trkpt lat="44.3971041" lon="10.7953786"><ele>707.0</ele><time>2026-04-11T13:08:02.434Z</time></trkpt><trkpt lat="44.3972305" lon="10.7954873"><ele>707.0</ele><time>2026-04-11T13:08:03.5Z</time></trkpt><trkpt lat="44.3973542" lon="10.7955947"><ele>707.0</ele><time>2026-04-11T13:08:04.464Z</time></trkpt><trkpt lat="44.3974726" lon="10.7956961"><ele>707.5</ele><time>2026-04-11T13:08:05.487Z</time></trkpt><trkpt lat="44.3975829" lon="10.795796"><ele>708.0</ele><time>2026-04-11T13:08:06.479Z</time></trkpt><trkpt lat="44.3976975" lon="10.7959037"><ele>708.5</ele><time>2026-04-11T13:08:07.443Z</time></trkpt><trkpt lat="44.3978104" lon="10.7960052"><ele>709.0</ele><time>2026-04-11T13:08:08.475Z</time></trkpt><trkpt lat="44.3979216" lon="10.796111"><ele>710.0</ele><time>2026-04-11T13:08:09.496Z</time></trkpt><trkpt lat="44.398029" lon="10.7962213"><ele>711.0</ele><time>2026-04-11T13:08:10.492Z</time></trkpt><trkpt lat="44.398134" lon="10.7963324"><ele>712.0</ele><time>2026-04-11T13:08:11.496Z</time></trkpt><trkpt lat="44.3982303" lon="10.7964398"><ele>713.0</ele><time>2026-04-11T13:08:12.475Z</time></trkpt><trkpt lat="44.3983287" lon="10.7965461"><ele>713.0</ele><time>2026-04-11T13:08:13.479Z</time></trkpt><trkpt lat="44.3984207" lon="10.7966458"><ele>713.0</ele><time>2026-04-11T13:08:14.475Z</time></trkpt><trkpt lat="44.3985055" lon="10.7967383"><ele>713.0</ele><time>2026-04-11T13:08:15.482Z</time></trkpt><trkpt lat="44.3985818" lon="10.7968259"><ele>713.0</ele><time>2026-04-11T13:08:16.5Z</time></trkpt><trkpt lat="44.3986585" lon="10.7969078"><ele>713.0</ele><time>2026-04-11T13:08:17.484Z</time></trkpt><trkpt lat="44.3987335" lon="10.7969946"><ele>712.8</ele><time>2026-04-11T13:08:18.466Z</time></trkpt><trkpt lat="44.3988057" lon="10.7970888"><ele>712.5999999999999</ele><time>2026-04-11T13:08:19.482Z</time></trkpt><trkpt lat="44.3988762" lon="10.7971995"><ele>712.4000000000001</ele><time>2026-04-11T13:08:20.495Z</time></trkpt><trkpt lat="44.3989438" lon="10.7973221"><ele>712.2</ele><time>2026-04-11T13:08:21.458Z</time></trkpt><trkpt lat="44.3990114" lon="10.7974609"><ele>712.0</ele><time>2026-04-11T13:08:22.486Z</time></trkpt><trkpt lat="44.3990759" lon="10.7976045"><ele>711.75</ele><time>2026-04-11T13:08:23.489Z</time></trkpt><trkpt lat="44.3991426" lon="10.797757"><ele>711.5</ele><time>2026-04-11T13:08:24.491Z</time></trkpt><trkpt lat="44.3992127" lon="10.7979161"><ele>711.25</ele><time>2026-04-11T13:08:25.482Z</time></trkpt><trkpt lat="44.3992878" lon="10.7980824"><ele>711.0</ele><time>2026-04-11T13:08:26.496Z</time></trkpt><trkpt lat="44.3993594" lon="10.7982429"><ele>711.0</ele><time>2026-04-11T13:08:27.493Z</time></trkpt><trkpt lat="44.3994265" lon="10.7983947"><ele>711.0</ele><time>2026-04-11T13:08:28.526Z</time></trkpt><trkpt lat="44.3994919" lon="10.7985392"><ele>711.0</ele><time>2026-04-11T13:08:29.499Z</time></trkpt><trkpt lat="44.3995601" lon="10.7986844"><ele>711.0</ele><time>2026-04-11T13:08:30.475Z</time></trkpt><trkpt lat="44.3996297" lon="10.7988334"><ele>711.5</ele><time>2026-04-11T13:08:31.49Z</time></trkpt><trkpt lat="44.3997019" lon="10.7989883"><ele>712.0</ele><time>2026-04-11T13:08:32.484Z</time></trkpt><trkpt lat="44.3997759" lon="10.7991481"><ele>712.5</ele><time>2026-04-11T13:08:33.499Z</time></trkpt><trkpt lat="44.3998529" lon="10.7993163"><ele>713.0</ele><time>2026-04-11T13:08:34.479Z</time></trkpt><trkpt lat="44.3999235" lon="10.7994762"><ele>713.0</ele><time>2026-04-11T13:08:35.437Z</time></trkpt><trkpt lat="44.3999956" lon="10.7996284"><ele>713.0</ele><time>2026-04-11T13:08:36.472Z</time></trkpt><trkpt lat="44.4000706" lon="10.7997722"><ele>713.0</ele><time>2026-04-11T13:08:37.509Z</time></trkpt><trkpt lat="44.4001506" lon="10.7999113"><ele>713.0</ele><time>2026-04-11T13:08:38.489Z</time></trkpt><trkpt lat="44.4002359" lon="10.8000488"><ele>712.75</ele><time>2026-04-11T13:08:39.535Z</time></trkpt><trkpt lat="44.4003237" lon="10.8001855"><ele>712.5</ele><time>2026-04-11T13:08:40.477Z</time></trkpt><trkpt lat="44.4004149" lon="10.8003226"><ele>712.25</ele><time>2026-04-11T13:08:41.495Z</time></trkpt><trkpt lat="44.4005057" lon="10.800454"><ele>712.0</ele><time>2026-04-11T13:08:42.481Z</time></trkpt><trkpt lat="44.4005917" lon="10.8005806"><ele>712.0</ele><time>2026-04-11T13:08:43.485Z</time></trkpt><trkpt lat="44.400667" lon="10.8007065"><ele>712.0</ele><time>2026-04-11T13:08:44.48Z</time></trkpt><trkpt lat="44.4007266" lon="10.8008353"><ele>712.0</ele><time>2026-04-11T13:08:45.506Z</time></trkpt><trkpt lat="44.4007644" lon="10.8009626"><ele>712.0</ele><time>2026-04-11T13:08:46.499Z</time></trkpt><trkpt lat="44.4007775" lon="10.8010869"><ele>712.0</ele><time>2026-04-11T13:08:47.553Z</time></trkpt><trkpt lat="44.4007665" lon="10.8011967"><ele>711.6</ele><time>2026-04-11T13:08:48.48Z</time></trkpt><trkpt lat="44.4007366" lon="10.8012872"><ele>711.2</ele><time>2026-04-11T13:08:49.487Z</time></trkpt><trkpt lat="44.4006629" lon="10.801414"><ele>710.8</ele><time>2026-04-11T13:08:51.496Z</time></trkpt><trkpt lat="44.400607" lon="10.8014986"><ele>710.4</ele><time>2026-04-11T13:08:53.501Z</time></trkpt><trkpt lat="44.4005846" lon="10.8016217"><ele>710.0</ele><time>2026-04-11T13:08:56.478Z</time></trkpt><trkpt lat="44.4006796" lon="10.8017336"><ele>710.0</ele><time>2026-04-11T13:08:58.482Z</time></trkpt><trkpt lat="44.4007515" lon="10.8017852"><ele>710.0</ele><time>2026-04-11T13:08:59.493Z</time></trkpt><trkpt lat="44.4008351" lon="10.8018367"><ele>710.0</ele><time>2026-04-11T13:09:00.494Z</time></trkpt><trkpt lat="44.4009313" lon="10.8018935"><ele>710.0</ele><time>2026-04-11T13:09:01.499Z</time></trkpt><trkpt lat="44.4010337" lon="10.8019472"><ele>710.0</ele><time>2026-04-11T13:09:02.525Z</time></trkpt><trkpt lat="44.4011427" lon="10.8019975"><ele>709.5</ele><time>2026-04-11T13:09:03.484Z</time></trkpt><trkpt lat="44.4012615" lon="10.8020475"><ele>709.0</ele><time>2026-04-11T13:09:04.494Z</time></trkpt><trkpt lat="44.4013889" lon="10.8021005"><ele>708.5</ele><time>2026-04-11T13:09:05.477Z</time></trkpt><trkpt lat="44.4015256" lon="10.802154"><ele>708.0</ele><time>2026-04-11T13:09:06.493Z</time></trkpt><trkpt lat="44.4016652" lon="10.8022052"><ele>708.0</ele><time>2026-04-11T13:09:07.476Z</time></trkpt><trkpt lat="44.4018103" lon="10.8022571"><ele>708.0</ele><time>2026-04-11T13:09:08.545Z</time></trkpt><trkpt lat="44.4019605" lon="10.8023102"><ele>708.0</ele><time>2026-04-11T13:09:09.504Z</time></trkpt><trkpt lat="44.4021119" lon="10.8023622"><ele>707.6666666666666</ele><time>2026-04-11T13:09:10.488Z</time></trkpt><trkpt lat="44.4022676" lon="10.8024192"><ele>707.3333333333333</ele><time>2026-04-11T13:09:11.456Z</time></trkpt><trkpt lat="44.4024319" lon="10.8024702"><ele>707.0</ele><time>2026-04-11T13:09:12.485Z</time></trkpt><trkpt lat="44.4025929" lon="10.8025191"><ele>707.0</ele><time>2026-04-11T13:09:13.508Z</time></trkpt><trkpt lat="44.4027486" lon="10.8025798"><ele>707.0</ele><time>2026-04-11T13:09:14.455Z</time></trkpt><trkpt lat="44.4028914" lon="10.8026268"><ele>707.0</ele><time>2026-04-11T13:09:15.502Z</time></trkpt><trkpt lat="44.4030377" lon="10.8026601"><ele>707.25</ele><time>2026-04-11T13:09:16.464Z</time></trkpt><trkpt lat="44.4031679" lon="10.8026657"><ele>707.5</ele><time>2026-04-11T13:09:17.497Z</time></trkpt><trkpt lat="44.4032927" lon="10.802641"><ele>707.75</ele><time>2026-04-11T13:09:18.501Z</time></trkpt><trkpt lat="44.4034122" lon="10.8025808"><ele>708.0</ele><time>2026-04-11T13:09:19.519Z</time></trkpt><trkpt lat="44.4035263" lon="10.8024862"><ele>708.0</ele><time>2026-04-11T13:09:20.459Z</time></trkpt><trkpt lat="44.4036385" lon="10.8023676"><ele>708.0</ele><time>2026-04-11T13:09:21.525Z</time></trkpt><trkpt lat="44.4037502" lon="10.8022302"><ele>708.0</ele><time>2026-04-11T13:09:22.492Z</time></trkpt><trkpt lat="44.4038653" lon="10.8020833"><ele>708.0</ele><time>2026-04-11T13:09:23.472Z</time></trkpt><trkpt lat="44.4039875" lon="10.8019344"><ele>709.25</ele><time>2026-04-11T13:09:24.468Z</time></trkpt><trkpt lat="44.4041089" lon="10.8017836"><ele>710.5</ele><time>2026-04-11T13:09:25.525Z</time></trkpt><trkpt lat="44.4042206" lon="10.801653"><ele>711.75</ele><time>2026-04-11T13:09:26.497Z</time></trkpt><trkpt lat="44.4043244" lon="10.8015185"><ele>713.0</ele><time>2026-04-11T13:09:27.488Z</time></trkpt><trkpt lat="44.4044112" lon="10.801383"><ele>713.0</ele><time>2026-04-11T13:09:28.511Z</time></trkpt><trkpt lat="44.4044965" lon="10.8012306"><ele>713.0</ele><time>2026-04-11T13:09:29.501Z</time></trkpt><trkpt lat="44.4045775" lon="10.801074"><ele>713.0</ele><time>2026-04-11T13:09:30.478Z</time></trkpt><trkpt lat="44.4046531" lon="10.8009094"><ele>713.0</ele><time>2026-04-11T13:09:31.473Z</time></trkpt><trkpt lat="44.4047238" lon="10.8007447"><ele>712.5</ele><time>2026-04-11T13:09:32.494Z</time></trkpt><trkpt lat="44.4047872" lon="10.8005742"><ele>712.0</ele><time>2026-04-11T13:09:33.47Z</time></trkpt><trkpt lat="44.4048418" lon="10.8004041"><ele>711.5</ele><time>2026-04-11T13:09:34.463Z</time></trkpt><trkpt lat="44.4048913" lon="10.8002392"><ele>711.0</ele><time>2026-04-11T13:09:35.448Z</time></trkpt><trkpt lat="44.4049458" lon="10.8000812"><ele>711.0</ele><time>2026-04-11T13:09:36.49Z</time></trkpt><trkpt lat="44.4050131" lon="10.7999367"><ele>711.0</ele><time>2026-04-11T13:09:37.551Z</time></trkpt><trkpt lat="44.4051032" lon="10.7998066"><ele>711.0</ele><time>2026-04-11T13:09:38.472Z</time></trkpt><trkpt lat="44.4052129" lon="10.7996979"><ele>711.0</ele><time>2026-04-11T13:09:39.494Z</time></trkpt><trkpt lat="44.4053371" lon="10.7996106"><ele>711.0</ele><time>2026-04-11T13:09:40.493Z</time></trkpt><trkpt lat="44.4054653" lon="10.799535"><ele>711.0</ele><time>2026-04-11T13:09:41.467Z</time></trkpt><trkpt lat="44.4055942" lon="10.799461"><ele>711.0</ele><time>2026-04-11T13:09:42.477Z</time></trkpt><trkpt lat="44.4057235" lon="10.799386"><ele>711.0</ele><time>2026-04-11T13:09:43.531Z</time></trkpt><trkpt lat="44.4058531" lon="10.7993105"><ele>710.75</ele><time>2026-04-11T13:09:44.486Z</time></trkpt><trkpt lat="44.4059861" lon="10.7992342"><ele>710.5</ele><time>2026-04-11T13:09:45.48Z</time></trkpt><trkpt lat="44.4061185" lon="10.7991564"><ele>710.25</ele><time>2026-04-11T13:09:46.494Z</time></trkpt><trkpt lat="44.4062438" lon="10.7990778"><ele>710.0</ele><time>2026-04-11T13:09:47.472Z</time></trkpt><trkpt lat="44.4063596" lon="10.7989926"><ele>709.25</ele><time>2026-04-11T13:09:48.494Z</time></trkpt><trkpt lat="44.4064686" lon="10.7988928"><ele>708.5</ele><time>2026-04-11T13:09:49.49Z</time></trkpt><trkpt lat="44.406572" lon="10.7987764"><ele>707.75</ele><time>2026-04-11T13:09:50.509Z</time></trkpt><trkpt lat="44.4066677" lon="10.7986413"><ele>707.0</ele><time>2026-04-11T13:09:51.473Z</time></trkpt><trkpt lat="44.4067598" lon="10.7984858"><ele>708.5</ele><time>2026-04-11T13:09:52.495Z</time></trkpt><trkpt lat="44.4068536" lon="10.7983233"><ele>710.0</ele><time>2026-04-11T13:09:53.495Z</time></trkpt><trkpt lat="44.4069523" lon="10.7981697"><ele>711.5</ele><time>2026-04-11T13:09:54.549Z</time></trkpt><trkpt lat="44.4070539" lon="10.7980311"><ele>713.0</ele><time>2026-04-11T13:09:55.486Z</time></trkpt><trkpt lat="44.4071559" lon="10.797907"><ele>712.0</ele><time>2026-04-11T13:09:56.493Z</time></trkpt><trkpt lat="44.4072582" lon="10.7977947"><ele>711.0</ele><time>2026-04-11T13:09:57.487Z</time></trkpt><trkpt lat="44.4073593" lon="10.7976943"><ele>710.0</ele><time>2026-04-11T13:09:58.511Z</time></trkpt><trkpt lat="44.4074622" lon="10.7975898"><ele>709.0</ele><time>2026-04-11T13:09:59.492Z</time></trkpt><trkpt lat="44.4075726" lon="10.7974762"><ele>709.0</ele><time>2026-04-11T13:10:00.52Z</time></trkpt><trkpt lat="44.4076855" lon="10.7973575"><ele>709.0</ele><time>2026-04-11T13:10:01.477Z</time></trkpt><trkpt lat="44.4077993" lon="10.7972358"><ele>709.0</ele><time>2026-04-11T13:10:02.507Z</time></trkpt><trkpt lat="44.4079088" lon="10.7970951"><ele>709.0</ele><time>2026-04-11T13:10:03.506Z</time></trkpt><trkpt lat="44.4080144" lon="10.7969352"><ele>710.0</ele><time>2026-04-11T13:10:04.474Z</time></trkpt><trkpt lat="44.4081076" lon="10.7967591"><ele>711.0</ele><time>2026-04-11T13:10:05.497Z</time></trkpt><trkpt lat="44.4081845" lon="10.7965874"><ele>712.0</ele><time>2026-04-11T13:10:06.537Z</time></trkpt><trkpt lat="44.4082587" lon="10.7964242"><ele>713.0</ele><time>2026-04-11T13:10:07.497Z</time></trkpt><trkpt lat="44.4083439" lon="10.7962745"><ele>713.0</ele><time>2026-04-11T13:10:08.46Z</time></trkpt><trkpt lat="44.4084319" lon="10.7961454"><ele>713.0</ele><time>2026-04-11T13:10:09.498Z</time></trkpt><trkpt lat="44.4085279" lon="10.7960379"><ele>713.0</ele><time>2026-04-11T13:10:10.508Z</time></trkpt><trkpt lat="44.4086437" lon="10.7959724"><ele>713.0</ele><time>2026-04-11T13:10:11.485Z</time></trkpt><trkpt lat="44.4087753" lon="10.7959347"><ele>712.5</ele><time>2026-04-11T13:10:12.473Z</time></trkpt><trkpt lat="44.4089111" lon="10.7959096"><ele>712.0</ele><time>2026-04-11T13:10:13.491Z</time></trkpt><trkpt lat="44.4090375" lon="10.7958787"><ele>711.5</ele><time>2026-04-11T13:10:14.484Z</time></trkpt><trkpt lat="44.4091626" lon="10.79583"><ele>711.0</ele><time>2026-04-11T13:10:15.477Z</time></trkpt><trkpt lat="44.4092817" lon="10.7957514"><ele>711.0</ele><time>2026-04-11T13:10:16.497Z</time></trkpt><trkpt lat="44.4094092" lon="10.7956331"><ele>711.0</ele><time>2026-04-11T13:10:17.482Z</time></trkpt><trkpt lat="44.4095286" lon="10.7955028"><ele>711.0</ele><time>2026-04-11T13:10:18.54Z</time></trkpt><trkpt lat="44.4096428" lon="10.7953675"><ele>710.5</ele><time>2026-04-11T13:10:19.508Z</time></trkpt><trkpt lat="44.4097462" lon="10.7952309"><ele>710.0</ele><time>2026-04-11T13:10:20.461Z</time></trkpt><trkpt lat="44.4098541" lon="10.7951141"><ele>709.5</ele><time>2026-04-11T13:10:21.439Z</time></trkpt><trkpt lat="44.4099412" lon="10.7949726"><ele>709.0</ele><time>2026-04-11T13:10:22.483Z</time></trkpt><trkpt lat="44.410033" lon="10.794834"><ele>709.0</ele><time>2026-04-11T13:10:23.476Z</time></trkpt><trkpt lat="44.4101335" lon="10.7947029"><ele>709.0</ele><time>2026-04-11T13:10:24.492Z</time></trkpt><trkpt lat="44.4102253" lon="10.7945711"><ele>709.0</ele><time>2026-04-11T13:10:25.478Z</time></trkpt><trkpt lat="44.4103103" lon="10.7944469"><ele>709.0</ele><time>2026-04-11T13:10:26.5Z</time></trkpt><trkpt lat="44.4104048" lon="10.7943485"><ele>709.75</ele><time>2026-04-11T13:10:27.506Z</time></trkpt><trkpt lat="44.4104854" lon="10.7942512"><ele>710.5</ele><time>2026-04-11T13:10:28.502Z</time></trkpt><trkpt lat="44.4105896" lon="10.7941972"><ele>711.25</ele><time>2026-04-11T13:10:29.483Z</time></trkpt><trkpt lat="44.410705" lon="10.7941858"><ele>712.0</ele><time>2026-04-11T13:10:30.5Z</time></trkpt><trkpt lat="44.4108339" lon="10.7942003"><ele>712.0</ele><time>2026-04-11T13:10:31.474Z</time></trkpt><trkpt lat="44.4109539" lon="10.7942449"><ele>712.0</ele><time>2026-04-11T13:10:32.486Z</time></trkpt><trkpt lat="44.4110874" lon="10.794278"><ele>712.0</ele><time>2026-04-11T13:10:33.486Z</time></trkpt><trkpt lat="44.4112361" lon="10.7942776"><ele>712.0</ele><time>2026-04-11T13:10:34.482Z</time></trkpt><trkpt lat="44.4113489" lon="10.7943157"><ele>709.75</ele><time>2026-04-11T13:10:35.482Z</time></trkpt><trkpt lat="44.411467" lon="10.7943408"><ele>707.5</ele><time>2026-04-11T13:10:36.506Z</time></trkpt><trkpt lat="44.4115856" lon="10.7943764"><ele>705.25</ele><time>2026-04-11T13:10:37.461Z</time></trkpt><trkpt lat="44.4117032" lon="10.7944138"><ele>703.0</ele><time>2026-04-11T13:10:38.494Z</time></trkpt><trkpt lat="44.4118176" lon="10.7944743"><ele>703.0</ele><time>2026-04-11T13:10:39.493Z</time></trkpt><trkpt lat="44.4119255" lon="10.7945666"><ele>703.0</ele><time>2026-04-11T13:10:40.467Z</time></trkpt><trkpt lat="44.4120286" lon="10.7946827"><ele>703.0</ele><time>2026-04-11T13:10:41.504Z</time></trkpt><trkpt lat="44.4121335" lon="10.7948112"><ele>703.0</ele><time>2026-04-11T13:10:42.492Z</time></trkpt><trkpt lat="44.4122414" lon="10.7949412"><ele>703.6666666666667</ele><time>2026-04-11T13:10:43.57Z</time></trkpt><trkpt lat="44.4123566" lon="10.7950764"><ele>704.3333333333334</ele><time>2026-04-11T13:10:44.474Z</time></trkpt><trkpt lat="44.4124749" lon="10.7952104"><ele>705.0</ele><time>2026-04-11T13:10:45.486Z</time></trkpt><trkpt lat="44.4125947" lon="10.7953398"><ele>705.0</ele><time>2026-04-11T13:10:46.501Z</time></trkpt><trkpt lat="44.4127041" lon="10.7954544"><ele>705.0</ele><time>2026-04-11T13:10:47.498Z</time></trkpt><trkpt lat="44.4128004" lon="10.7955544"><ele>705.0</ele><time>2026-04-11T13:10:48.502Z</time></trkpt><trkpt lat="44.4128839" lon="10.7956417"><ele>705.0</ele><time>2026-04-11T13:10:49.477Z</time></trkpt><trkpt lat="44.4129579" lon="10.7957191"><ele>705.0</ele><time>2026-04-11T13:10:50.486Z</time></trkpt><trkpt lat="44.4130197" lon="10.7957934"><ele>705.0</ele><time>2026-04-11T13:10:51.453Z</time></trkpt><trkpt lat="44.4130641" lon="10.7958659"><ele>705.0</ele><time>2026-04-11T13:10:52.473Z</time></trkpt><trkpt lat="44.4131189" lon="10.7959902"><ele>705.0</ele><time>2026-04-11T13:10:54.533Z</time></trkpt><trkpt lat="44.4131703" lon="10.7960625"><ele>705.0</ele><time>2026-04-11T13:10:56.477Z</time></trkpt><trkpt lat="44.4132334" lon="10.7961355"><ele>705.0</ele><time>2026-04-11T13:10:59.496Z</time></trkpt><trkpt lat="44.4133424" lon="10.7961536"><ele>704.9999999999999</ele><time>2026-04-11T13:16:12.467Z</time></trkpt><trkpt lat="44.4133522" lon="10.7962496"><ele>705.0</ele><time>2026-04-11T13:16:33.458Z</time></trkpt><trkpt lat="44.4132884" lon="10.7962823"><ele>705.0</ele><time>2026-04-11T13:16:46.484Z</time></trkpt><trkpt lat="44.4132209" lon="10.7962275"><ele>705.0</ele><time>2026-04-11T13:16:49.479Z</time></trkpt><trkpt lat="44.4131552" lon="10.796171"><ele>705.0</ele><time>2026-04-11T13:16:51.471Z</time></trkpt><trkpt lat="44.4131278" lon="10.7960869"><ele>704.9999999999999</ele><time>2026-04-11T13:16:53.474Z</time></trkpt><trkpt lat="44.4131539" lon="10.7959834"><ele>705.0</ele><time>2026-04-11T13:16:56.448Z</time></trkpt><trkpt lat="44.4132246" lon="10.7960147"><ele>705.6</ele><time>2026-04-11T13:16:58.472Z</time></trkpt><trkpt lat="44.413306" lon="10.7960893"><ele>706.2</ele><time>2026-04-11T13:17:00.489Z</time></trkpt><trkpt lat="44.4134071" lon="10.7961949"><ele>706.8</ele><time>2026-04-11T13:17:02.491Z</time></trkpt><trkpt lat="44.4134649" lon="10.7962528"><ele>707.4</ele><time>2026-04-11T13:17:03.515Z</time></trkpt><trkpt lat="44.4135223" lon="10.796305"><ele>708.0</ele><time>2026-04-11T13:17:04.437Z</time></trkpt><trkpt lat="44.4136221" lon="10.796389"><ele>708.0</ele><time>2026-04-11T13:17:06.483Z</time></trkpt><trkpt lat="44.4137005" lon="10.7964605"><ele>708.0</ele><time>2026-04-11T13:17:08.468Z</time></trkpt><trkpt lat="44.4137632" lon="10.7965139"><ele>708.0</ele><time>2026-04-11T13:17:10.466Z</time></trkpt><trkpt lat="44.4138106" lon="10.7965857"><ele>708.0</ele><time>2026-04-11T13:17:12.494Z</time></trkpt><trkpt lat="44.4138035" lon="10.7966995"><ele>708.0</ele><time>2026-04-11T13:17:14.452Z</time></trkpt><trkpt lat="44.4137618" lon="10.7968552"><ele>708.0</ele><time>2026-04-11T13:17:16.479Z</time></trkpt><trkpt lat="44.4137449" lon="10.7969515"><ele>707.8333333333334</ele><time>2026-04-11T13:17:17.474Z</time></trkpt><trkpt lat="44.4137265" lon="10.7970512"><ele>707.6666666666666</ele><time>2026-04-11T13:17:18.491Z</time></trkpt><trkpt lat="44.4137133" lon="10.797159"><ele>707.5</ele><time>2026-04-11T13:17:19.495Z</time></trkpt><trkpt lat="44.4136992" lon="10.7972682"><ele>707.3333333333333</ele><time>2026-04-11T13:17:20.445Z</time></trkpt><trkpt lat="44.4136813" lon="10.7973741"><ele>707.1666666666666</ele><time>2026-04-11T13:17:21.483Z</time></trkpt><trkpt lat="44.4136642" lon="10.7974806"><ele>707.0</ele><time>2026-04-11T13:17:22.498Z</time></trkpt><trkpt lat="44.4136441" lon="10.797586"><ele>707.2</ele><time>2026-04-11T13:17:23.48Z</time></trkpt><trkpt lat="44.4136258" lon="10.7976897"><ele>707.4000000000001</ele><time>2026-04-11T13:17:24.464Z</time></trkpt><trkpt lat="44.4136065" lon="10.7978129"><ele>707.5999999999999</ele><time>2026-04-11T13:17:25.483Z</time></trkpt><trkpt lat="44.4135841" lon="10.7979521"><ele>707.8</ele><time>2026-04-11T13:17:26.498Z</time></trkpt><trkpt lat="44.4135605" lon="10.7980926"><ele>708.0</ele><time>2026-04-11T13:17:27.463Z</time></trkpt><trkpt lat="44.41354" lon="10.7982279"><ele>708.0</ele><time>2026-04-11T13:17:28.501Z</time></trkpt><trkpt lat="44.4135194" lon="10.798361"><ele>708.0</ele><time>2026-04-11T13:17:29.487Z</time></trkpt><trkpt lat="44.4134992" lon="10.7984893"><ele>708.0</ele><time>2026-04-11T13:17:30.487Z</time></trkpt><trkpt lat="44.4134808" lon="10.7986149"><ele>708.0</ele><time>2026-04-11T13:17:31.494Z</time></trkpt><trkpt lat="44.4134641" lon="10.7987378"><ele>708.0</ele><time>2026-04-11T13:17:32.475Z</time></trkpt><trkpt lat="44.4134441" lon="10.7988568"><ele>707.4</ele><time>2026-04-11T13:17:33.523Z</time></trkpt><trkpt lat="44.4134256" lon="10.7989823"><ele>706.8</ele><time>2026-04-11T13:17:34.497Z</time></trkpt><trkpt lat="44.4134077" lon="10.7991144"><ele>706.2</ele><time>2026-04-11T13:17:35.493Z</time></trkpt><trkpt lat="44.4133897" lon="10.7992493"><ele>705.6</ele><time>2026-04-11T13:17:36.484Z</time></trkpt><trkpt lat="44.4133709" lon="10.7993824"><ele>705.0</ele><time>2026-04-11T13:17:37.476Z</time></trkpt><trkpt lat="44.4133518" lon="10.7995144"><ele>705.0</ele><time>2026-04-11T13:17:38.499Z</time></trkpt><trkpt lat="44.4133331" lon="10.7996491"><ele>705.0</ele><time>2026-04-11T13:17:39.478Z</time></trkpt><trkpt lat="44.4133137" lon="10.7997837"><ele>705.0</ele><time>2026-04-11T13:17:40.5Z</time></trkpt><trkpt lat="44.4132955" lon="10.7999177"><ele>705.0</ele><time>2026-04-11T13:17:41.494Z</time></trkpt><trkpt lat="44.4132747" lon="10.8000511"><ele>705.0</ele><time>2026-04-11T13:17:42.486Z</time></trkpt><trkpt lat="44.4132477" lon="10.8001826"><ele>704.8</ele><time>2026-04-11T13:17:43.501Z</time></trkpt><trkpt lat="44.4132119" lon="10.8003139"><ele>704.6</ele><time>2026-04-11T13:17:44.493Z</time></trkpt><trkpt lat="44.4131672" lon="10.8004383"><ele>704.4000000000001</ele><time>2026-04-11T13:17:45.48Z</time></trkpt><trkpt lat="44.4131219" lon="10.8005631"><ele>704.2</ele><time>2026-04-11T13:17:46.501Z</time></trkpt><trkpt lat="44.4130752" lon="10.8006802"><ele>704.0</ele><time>2026-04-11T13:17:47.488Z</time></trkpt><trkpt lat="44.4130305" lon="10.8007956"><ele>703.3333333333333</ele><time>2026-04-11T13:17:48.467Z</time></trkpt><trkpt lat="44.4129884" lon="10.8009033"><ele>702.6666666666666</ele><time>2026-04-11T13:17:49.494Z</time></trkpt><trkpt lat="44.4129489" lon="10.8010054"><ele>702.0</ele><time>2026-04-11T13:17:50.518Z</time></trkpt><trkpt lat="44.4129101" lon="10.8011014"><ele>701.3333333333334</ele><time>2026-04-11T13:17:51.495Z</time></trkpt><trkpt lat="44.4128742" lon="10.8011938"><ele>700.6666666666667</ele><time>2026-04-11T13:17:52.472Z</time></trkpt><trkpt lat="44.4128424" lon="10.8012822"><ele>700.0</ele><time>2026-04-11T13:17:53.494Z</time></trkpt><trkpt lat="44.4128098" lon="10.8013709"><ele>700.0</ele><time>2026-04-11T13:17:54.471Z</time></trkpt><trkpt lat="44.4127765" lon="10.8014589"><ele>700.0</ele><time>2026-04-11T13:17:55.498Z</time></trkpt><trkpt lat="44.4127444" lon="10.8015448"><ele>700.0</ele><time>2026-04-11T13:17:56.488Z</time></trkpt><trkpt lat="44.4127125" lon="10.801627"><ele>700.0</ele><time>2026-04-11T13:17:57.5Z</time></trkpt><trkpt lat="44.4126821" lon="10.8017092"><ele>700.0</ele><time>2026-04-11T13:17:58.481Z</time></trkpt><trkpt lat="44.4126481" lon="10.8017941"><ele>700.0</ele><time>2026-04-11T13:17:59.487Z</time></trkpt><trkpt lat="44.4126129" lon="10.8018738"><ele>700.0</ele><time>2026-04-11T13:18:00.508Z</time></trkpt><trkpt lat="44.4125798" lon="10.8019591"><ele>700.1666666666667</ele><time>2026-04-11T13:18:01.541Z</time></trkpt><trkpt lat="44.4125465" lon="10.8020516"><ele>700.3333333333334</ele><time>2026-04-11T13:18:02.499Z</time></trkpt><trkpt lat="44.4125141" lon="10.8021483"><ele>700.5</ele><time>2026-04-11T13:18:03.497Z</time></trkpt><trkpt lat="44.4124785" lon="10.8022429"><ele>700.6666666666666</ele><time>2026-04-11T13:18:04.494Z</time></trkpt><trkpt lat="44.4124393" lon="10.8023566"><ele>700.8333333333333</ele><time>2026-04-11T13:18:05.491Z</time></trkpt><trkpt lat="44.412402" lon="10.8024655"><ele>701.0</ele><time>2026-04-11T13:18:06.479Z</time></trkpt><trkpt lat="44.4123664" lon="10.8025742"><ele>700.8333333333333</ele><time>2026-04-11T13:18:07.529Z</time></trkpt><trkpt lat="44.4123323" lon="10.802678"><ele>700.6666666666666</ele><time>2026-04-11T13:18:08.483Z</time></trkpt><trkpt lat="44.4122916" lon="10.8027655"><ele>700.5</ele><time>2026-04-11T13:18:09.477Z</time></trkpt><trkpt lat="44.4122365" lon="10.8028495"><ele>700.3333333333334</ele><time>2026-04-11T13:18:10.466Z</time></trkpt><trkpt lat="44.4121809" lon="10.8029271"><ele>700.1666666666667</ele><time>2026-04-11T13:18:11.5Z</time></trkpt><trkpt lat="44.4121314" lon="10.802994"><ele>700.0</ele><time>2026-04-11T13:18:12.48Z</time></trkpt><trkpt lat="44.4120387" lon="10.8031027"><ele>699.2</ele><time>2026-04-11T13:18:14.487Z</time></trkpt><trkpt lat="44.4119436" lon="10.8031792"><ele>698.4</ele><time>2026-04-11T13:18:16.478Z</time></trkpt><trkpt lat="44.4118464" lon="10.8032539"><ele>697.5999999999999</ele><time>2026-04-11T13:18:18.492Z</time></trkpt><trkpt lat="44.4117928" lon="10.8034074"><ele>696.8</ele><time>2026-04-11T13:18:20.495Z</time></trkpt><trkpt lat="44.4117788" lon="10.8035159"><ele>696.0</ele><time>2026-04-11T13:18:21.488Z</time></trkpt><trkpt lat="44.4117658" lon="10.8036317"><ele>696.0</ele><time>2026-04-11T13:18:22.494Z</time></trkpt><trkpt lat="44.4117506" lon="10.8037483"><ele>696.0</ele><time>2026-04-11T13:18:23.474Z</time></trkpt><trkpt lat="44.4117367" lon="10.8038681"><ele>696.0</ele><time>2026-04-11T13:18:24.465Z</time></trkpt><trkpt lat="44.4117305" lon="10.8039845"><ele>696.0</ele><time>2026-04-11T13:18:25.486Z</time></trkpt><trkpt lat="44.411727" lon="10.8040906"><ele>696.0</ele><time>2026-04-11T13:18:26.5Z</time></trkpt><trkpt lat="44.4117184" lon="10.8041872"><ele>696.0</ele><time>2026-04-11T13:18:27.49Z</time></trkpt><trkpt lat="44.411704" lon="10.8042791"><ele>696.0</ele><time>2026-04-11T13:18:28.489Z</time></trkpt><trkpt lat="44.4116734" lon="10.8044226"><ele>696.0</ele><time>2026-04-11T13:18:30.482Z</time></trkpt><trkpt lat="44.4116469" lon="10.8045079"><ele>696.0</ele><time>2026-04-11T13:18:32.48Z</time></trkpt><trkpt lat="44.4115674" lon="10.8045214"><ele>696.0</ele><time>2026-04-11T13:18:36.506Z</time></trkpt><trkpt lat="44.4114748" lon="10.8044763"><ele>696.0</ele><time>2026-04-11T13:18:38.515Z</time></trkpt><trkpt lat="44.4113527" lon="10.8044198"><ele>695.0</ele><time>2026-04-11T13:18:40.473Z</time></trkpt><trkpt lat="44.4112684" lon="10.8043752"><ele>694.0</ele><time>2026-04-11T13:18:41.48Z</time></trkpt><trkpt lat="44.4111828" lon="10.8043308"><ele>693.0</ele><time>2026-04-11T13:18:42.489Z</time></trkpt><trkpt lat="44.4110849" lon="10.8042823"><ele>692.0</ele><time>2026-04-11T13:18:43.472Z</time></trkpt><trkpt lat="44.4109865" lon="10.8042354"><ele>691.0</ele><time>2026-04-11T13:18:44.491Z</time></trkpt><trkpt lat="44.4108989" lon="10.8041876"><ele>690.6666666666667</ele><time>2026-04-11T13:18:45.48Z</time></trkpt><trkpt lat="44.410814" lon="10.8041451"><ele>690.3333333333334</ele><time>2026-04-11T13:18:46.491Z</time></trkpt><trkpt lat="44.4107359" lon="10.8041048"><ele>690.0</ele><time>2026-04-11T13:18:47.528Z</time></trkpt><trkpt lat="44.410662" lon="10.8040641"><ele>689.6666666666666</ele><time>2026-04-11T13:18:48.446Z</time></trkpt><trkpt lat="44.4105851" lon="10.8040311"><ele>689.3333333333333</ele><time>2026-04-11T13:18:49.494Z</time></trkpt><trkpt lat="44.4105094" lon="10.8040071"><ele>689.0</ele><time>2026-04-11T13:18:50.5Z</time></trkpt><trkpt lat="44.4104348" lon="10.8039849"><ele>688.1666666666666</ele><time>2026-04-11T13:18:51.491Z</time></trkpt><trkpt lat="44.4103681" lon="10.8039665"><ele>687.3333333333333</ele><time>2026-04-11T13:18:52.48Z</time></trkpt><trkpt lat="44.4102985" lon="10.8039473"><ele>686.5</ele><time>2026-04-11T13:18:53.512Z</time></trkpt><trkpt lat="44.4102227" lon="10.8039262"><ele>685.6666666666666</ele><time>2026-04-11T13:18:54.494Z</time></trkpt><trkpt lat="44.4101413" lon="10.8039043"><ele>684.8333333333334</ele><time>2026-04-11T13:18:55.509Z</time></trkpt><trkpt lat="44.4100514" lon="10.8038725"><ele>684.0</ele><time>2026-04-11T13:18:56.481Z</time></trkpt><trkpt lat="44.4099706" lon="10.803846"><ele>684.0</ele><time>2026-04-11T13:18:57.482Z</time></trkpt><trkpt lat="44.4098945" lon="10.8038157"><ele>684.0</ele><time>2026-04-11T13:18:58.495Z</time></trkpt><trkpt lat="44.4098242" lon="10.8037953"><ele>684.0</ele><time>2026-04-11T13:18:59.484Z</time></trkpt><trkpt lat="44.4097613" lon="10.8038047"><ele>684.0</ele><time>2026-04-11T13:19:00.478Z</time></trkpt><trkpt lat="44.4096973" lon="10.8038285"><ele>684.0</ele><time>2026-04-11T13:19:01.495Z</time></trkpt><trkpt lat="44.4096009" lon="10.8038517"><ele>684.0</ele><time>2026-04-11T13:19:03.488Z</time></trkpt><trkpt lat="44.4095224" lon="10.8038431"><ele>683.3333333333334</ele><time>2026-04-11T13:19:05.444Z</time></trkpt><trkpt lat="44.4094509" lon="10.8038195"><ele>682.6666666666666</ele><time>2026-04-11T13:19:07.44Z</time></trkpt><trkpt lat="44.4093412" lon="10.8037948"><ele>682.0</ele><time>2026-04-11T13:19:09.443Z</time></trkpt><trkpt lat="44.4092763" lon="10.8037621"><ele>681.3333333333333</ele><time>2026-04-11T13:19:10.465Z</time></trkpt><trkpt lat="44.4092201" lon="10.8037176"><ele>680.6666666666666</ele><time>2026-04-11T13:19:11.504Z</time></trkpt><trkpt lat="44.4091191" lon="10.8036112"><ele>680.0</ele><time>2026-04-11T13:19:13.46Z</time></trkpt><trkpt lat="44.4090746" lon="10.803534"><ele>680.6</ele><time>2026-04-11T13:19:14.489Z</time></trkpt><trkpt lat="44.4090319" lon="10.8034579"><ele>681.2</ele><time>2026-04-11T13:19:15.5Z</time></trkpt><trkpt lat="44.4089412" lon="10.8033498"><ele>681.8</ele><time>2026-04-11T13:19:17.508Z</time></trkpt><trkpt lat="44.4088148" lon="10.8032852"><ele>682.4</ele><time>2026-04-11T13:19:19.456Z</time></trkpt><trkpt lat="44.4087449" lon="10.8032591"><ele>683.0</ele><time>2026-04-11T13:19:20.496Z</time></trkpt><trkpt lat="44.40863" lon="10.8032229"><ele>683.5</ele><time>2026-04-11T13:19:22.473Z</time></trkpt><trkpt lat="44.4085648" lon="10.8032315"><ele>684.0</ele><time>2026-04-11T13:19:23.485Z</time></trkpt><trkpt lat="44.408487" lon="10.8032762"><ele>684.5</ele><time>2026-04-11T13:19:24.473Z</time></trkpt><trkpt lat="44.408422" lon="10.8033301"><ele>685.0</ele><time>2026-04-11T13:19:25.494Z</time></trkpt><trkpt lat="44.4083585" lon="10.8033736"><ele>685.5</ele><time>2026-04-11T13:19:26.464Z</time></trkpt><trkpt lat="44.4082588" lon="10.8034406"><ele>686.0</ele><time>2026-04-11T13:19:34.489Z</time></trkpt><trkpt lat="44.4082307" lon="10.8035227"><ele>686.0</ele><time>2026-04-11T13:19:37.463Z</time></trkpt><trkpt lat="44.4082133" lon="10.8036488"><ele>686.0</ele><time>2026-04-11T13:19:40.507Z</time></trkpt><trkpt lat="44.4081576" lon="10.8036963"><ele>686.0</ele><time>2026-04-11T13:19:42.509Z</time></trkpt><trkpt lat="44.408053" lon="10.8037479"><ele>686.0</ele><time>2026-04-11T13:19:44.464Z</time></trkpt><trkpt lat="44.4079465" lon="10.8038211"><ele>686.0</ele><time>2026-04-11T13:19:46.477Z</time></trkpt><trkpt lat="44.4078882" lon="10.803863"><ele>686.0</ele><time>2026-04-11T13:19:47.465Z</time></trkpt><trkpt lat="44.4078295" lon="10.8038991"><ele>686.0</ele><time>2026-04-11T13:19:48.48Z</time></trkpt><trkpt lat="44.4077672" lon="10.8039282"><ele>686.0</ele><time>2026-04-11T13:19:49.494Z</time></trkpt><trkpt lat="44.4077042" lon="10.8039483"><ele>686.0</ele><time>2026-04-11T13:19:50.468Z</time></trkpt><trkpt lat="44.4076371" lon="10.8039579"><ele>686.0</ele><time>2026-04-11T13:19:51.486Z</time></trkpt><trkpt lat="44.4075137" lon="10.8039618"><ele>686.0</ele><time>2026-04-11T13:19:53.478Z</time></trkpt><trkpt lat="44.4073935" lon="10.8039523"><ele>686.0</ele><time>2026-04-11T13:19:55.47Z</time></trkpt><trkpt lat="44.4072852" lon="10.8039491"><ele>686.0</ele><time>2026-04-11T13:19:57.492Z</time></trkpt><trkpt lat="44.4072275" lon="10.8038961"><ele>686.0</ele><time>2026-04-11T13:19:59.482Z</time></trkpt><trkpt lat="44.4071725" lon="10.8038215"><ele>686.0</ele><time>2026-04-11T13:20:03.503Z</time></trkpt><trkpt lat="44.4071031" lon="10.8038302"><ele>686.0</ele><time>2026-04-11T13:20:06.47Z</time></trkpt><trkpt lat="44.4070133" lon="10.803885"><ele>686.0</ele><time>2026-04-11T13:20:08.494Z</time></trkpt><trkpt lat="44.4069418" lon="10.8039348"><ele>687.4</ele><time>2026-04-11T13:20:09.53Z</time></trkpt><trkpt lat="44.4068684" lon="10.8039837"><ele>688.8</ele><time>2026-04-11T13:20:10.479Z</time></trkpt><trkpt lat="44.4067797" lon="10.8040404"><ele>690.1999999999999</ele><time>2026-04-11T13:20:11.477Z</time></trkpt><trkpt lat="44.4067073" lon="10.8041438"><ele>691.5999999999999</ele><time>2026-04-11T13:20:13.505Z</time></trkpt><trkpt lat="44.4067047" lon="10.8042876"><ele>693.0</ele><time>2026-04-11T13:20:15.533Z</time></trkpt><trkpt lat="44.4066451" lon="10.8044258"><ele>693.8</ele><time>2026-04-11T13:20:17.474Z</time></trkpt><trkpt lat="44.4065588" lon="10.8045642"><ele>694.5999999999999</ele><time>2026-04-11T13:20:19.499Z</time></trkpt><trkpt lat="44.4065039" lon="10.8046322"><ele>695.4000000000001</ele><time>2026-04-11T13:20:20.474Z</time></trkpt><trkpt lat="44.4064249" lon="10.8046995"><ele>696.2</ele><time>2026-04-11T13:20:21.468Z</time></trkpt><trkpt lat="44.4063578" lon="10.8047382"><ele>697.0</ele><time>2026-04-11T13:20:22.493Z</time></trkpt><trkpt lat="44.4062583" lon="10.8047879"><ele>697.0</ele><time>2026-04-11T13:20:24.479Z</time></trkpt><trkpt lat="44.4062496" lon="10.8049095"><ele>697.0</ele><time>2026-04-11T13:20:28.496Z</time></trkpt><trkpt lat="44.406289" lon="10.804986"><ele>697.0</ele><time>2026-04-11T13:20:29.47Z</time></trkpt><trkpt lat="44.4063351" lon="10.8051183"><ele>697.0</ele><time>2026-04-11T13:20:31.494Z</time></trkpt><trkpt lat="44.4063567" lon="10.8052511"><ele>697.0</ele><time>2026-04-11T13:20:33.472Z</time></trkpt><trkpt lat="44.4063738" lon="10.8053452"><ele>697.0</ele><time>2026-04-11T13:20:35.513Z</time></trkpt><trkpt lat="44.4064027" lon="10.8054307"><ele>697.0</ele><time>2026-04-11T13:20:37.512Z</time></trkpt><trkpt lat="44.4064552" lon="10.8055332"><ele>697.0</ele><time>2026-04-11T13:20:40.503Z</time></trkpt><trkpt lat="44.4065073" lon="10.8056247"><ele>697.0</ele><time>2026-04-11T13:20:43.511Z</time></trkpt><trkpt lat="44.4065812" lon="10.805757"><ele>697.0</ele><time>2026-04-11T13:20:45.515Z</time></trkpt><trkpt lat="44.4066359" lon="10.8058898"><ele>697.0</ele><time>2026-04-11T13:20:47.498Z</time></trkpt><trkpt lat="44.4066798" lon="10.806034"><ele>696.4000000000001</ele><time>2026-04-11T13:20:49.47Z</time></trkpt><trkpt lat="44.4067213" lon="10.8061072"><ele>695.8000000000001</ele><time>2026-04-11T13:20:50.488Z</time></trkpt><trkpt lat="44.4067814" lon="10.8062265"><ele>695.2</ele><time>2026-04-11T13:20:52.456Z</time></trkpt><trkpt lat="44.4068285" lon="10.8063308"><ele>694.6</ele><time>2026-04-11T13:20:54.464Z</time></trkpt><trkpt lat="44.4068755" lon="10.8064497"><ele>694.0</ele><time>2026-04-11T13:20:56.515Z</time></trkpt><trkpt lat="44.4069256" lon="10.8065822"><ele>694.0</ele><time>2026-04-11T13:20:58.468Z</time></trkpt><trkpt lat="44.4069642" lon="10.8066725"><ele>694.0</ele><time>2026-04-11T13:21:00.46Z</time></trkpt><trkpt lat="44.4070398" lon="10.8067573"><ele>694.0</ele><time>2026-04-11T13:21:02.499Z</time></trkpt><trkpt lat="44.4071102" lon="10.8068348"><ele>694.0</ele><time>2026-04-11T13:21:04.476Z</time></trkpt><trkpt lat="44.4071748" lon="10.8068875"><ele>694.0</ele><time>2026-04-11T13:21:06.506Z</time></trkpt><trkpt lat="44.4072451" lon="10.8069289"><ele>694.0</ele><time>2026-04-11T13:21:08.508Z</time></trkpt><trkpt lat="44.4073105" lon="10.8069691"><ele>692.1666666666667</ele><time>2026-04-11T13:21:10.456Z</time></trkpt><trkpt lat="44.4073716" lon="10.8070023"><ele>690.3333333333334</ele><time>2026-04-11T13:21:12.484Z</time></trkpt><trkpt lat="44.4074423" lon="10.8070353"><ele>688.5</ele><time>2026-04-11T13:21:14.469Z</time></trkpt><trkpt lat="44.4075122" lon="10.8070537"><ele>686.6666666666666</ele><time>2026-04-11T13:21:16.499Z</time></trkpt><trkpt lat="44.407578" lon="10.8070764"><ele>684.8333333333333</ele><time>2026-04-11T13:21:18.481Z</time></trkpt><trkpt lat="44.4076739" lon="10.8071141"><ele>683.0</ele><time>2026-04-11T13:21:21.508Z</time></trkpt><trkpt lat="44.4077674" lon="10.8071408"><ele>683.0</ele><time>2026-04-11T13:21:25.494Z</time></trkpt><trkpt lat="44.407834" lon="10.8071649"><ele>683.0</ele><time>2026-04-11T13:21:29.491Z</time></trkpt><trkpt lat="44.4078879" lon="10.8072936"><ele>683.0</ele><time>2026-04-11T13:22:02.498Z</time></trkpt><trkpt lat="44.407853" lon="10.8074154"><ele>683.0</ele><time>2026-04-11T13:22:04.458Z</time></trkpt><trkpt lat="44.407848" lon="10.8075509"><ele>683.0</ele><time>2026-04-11T13:22:06.453Z</time></trkpt><trkpt lat="44.4078837" lon="10.8076236"><ele>683.0</ele><time>2026-04-11T13:22:07.499Z</time></trkpt><trkpt lat="44.4079307" lon="10.8077098"><ele>682.4</ele><time>2026-04-11T13:22:08.514Z</time></trkpt><trkpt lat="44.4080265" lon="10.8077814"><ele>681.8</ele><time>2026-04-11T13:22:09.485Z</time></trkpt><trkpt lat="44.4081341" lon="10.8078536"><ele>681.2</ele><time>2026-04-11T13:22:10.471Z</time></trkpt><trkpt lat="44.408228" lon="10.8079173"><ele>680.6</ele><time>2026-04-11T13:22:11.481Z</time></trkpt><trkpt lat="44.4083032" lon="10.8079673"><ele>680.0</ele><time>2026-04-11T13:22:12.497Z</time></trkpt><trkpt lat="44.4083617" lon="10.8080182"><ele>680.0</ele><time>2026-04-11T13:22:13.47Z</time></trkpt><trkpt lat="44.4084371" lon="10.8081247"><ele>680.0</ele><time>2026-04-11T13:22:15.542Z</time></trkpt><trkpt lat="44.4084694" lon="10.8082347"><ele>680.0</ele><time>2026-04-11T13:22:17.494Z</time></trkpt><trkpt lat="44.408472" lon="10.8083372"><ele>680.0</ele><time>2026-04-11T13:22:19.467Z</time></trkpt><trkpt lat="44.4084318" lon="10.8085031"><ele>680.0</ele><time>2026-04-11T13:22:21.534Z</time></trkpt><trkpt lat="44.4084038" lon="10.808624"><ele>682.0</ele><time>2026-04-11T13:22:22.496Z</time></trkpt><trkpt lat="44.4083842" lon="10.8087242"><ele>684.0</ele><time>2026-04-11T13:22:23.503Z</time></trkpt><trkpt lat="44.4083908" lon="10.8088979"><ele>686.0</ele><time>2026-04-11T13:22:25.468Z</time></trkpt><trkpt lat="44.4083924" lon="10.8090022"><ele>688.0</ele><time>2026-04-11T13:22:26.449Z</time></trkpt><trkpt lat="44.4083944" lon="10.8091625"><ele>690.0</ele><time>2026-04-11T13:22:27.486Z</time></trkpt><trkpt lat="44.4083916" lon="10.8092875"><ele>691.0</ele><time>2026-04-11T13:22:28.489Z</time></trkpt><trkpt lat="44.4083836" lon="10.8094073"><ele>692.0</ele><time>2026-04-11T13:22:29.505Z</time></trkpt><trkpt lat="44.4083612" lon="10.8095404"><ele>693.0</ele><time>2026-04-11T13:22:30.485Z</time></trkpt><trkpt lat="44.4083359" lon="10.8096562"><ele>694.0</ele><time>2026-04-11T13:22:31.465Z</time></trkpt><trkpt lat="44.4083006" lon="10.8098237"><ele>695.0</ele><time>2026-04-11T13:22:32.468Z</time></trkpt><trkpt lat="44.4082842" lon="10.8099545"><ele>695.0</ele><time>2026-04-11T13:22:33.454Z</time></trkpt><trkpt lat="44.4082754" lon="10.8100576"><ele>695.0</ele><time>2026-04-11T13:22:34.482Z</time></trkpt><trkpt lat="44.4082704" lon="10.8101566"><ele>695.0</ele><time>2026-04-11T13:22:35.466Z</time></trkpt><trkpt lat="44.4082838" lon="10.8102536"><ele>695.0</ele><time>2026-04-11T13:22:36.473Z</time></trkpt><trkpt lat="44.4083266" lon="10.8103633"><ele>695.0</ele><time>2026-04-11T13:22:37.472Z</time></trkpt><trkpt lat="44.4083768" lon="10.8104604"><ele>695.0</ele><time>2026-04-11T13:22:38.501Z</time></trkpt><trkpt lat="44.4084295" lon="10.8105488"><ele>694.4</ele><time>2026-04-11T13:22:39.478Z</time></trkpt><trkpt lat="44.4085195" lon="10.810639"><ele>693.8</ele><time>2026-04-11T13:22:41.508Z</time></trkpt><trkpt lat="44.4085921" lon="10.8106577"><ele>693.2</ele><time>2026-04-11T13:22:43.457Z</time></trkpt><trkpt lat="44.4086063" lon="10.8105264"><ele>692.6</ele><time>2026-04-11T13:22:46.489Z</time></trkpt><trkpt lat="44.408645" lon="10.8104381"><ele>692.0</ele><time>2026-04-11T13:22:47.477Z</time></trkpt><trkpt lat="44.4086952" lon="10.8103072"><ele>692.0</ele><time>2026-04-11T13:22:48.454Z</time></trkpt><trkpt lat="44.4087524" lon="10.8101994"><ele>692.0</ele><time>2026-04-11T13:22:49.464Z</time></trkpt><trkpt lat="44.4088045" lon="10.8101088"><ele>692.0</ele><time>2026-04-11T13:22:50.455Z</time></trkpt><trkpt lat="44.4088456" lon="10.8100245"><ele>692.0</ele><time>2026-04-11T13:22:51.472Z</time></trkpt><trkpt lat="44.4089179" lon="10.809944"><ele>692.0</ele><time>2026-04-11T13:22:53.467Z</time></trkpt><trkpt lat="44.409027" lon="10.8098776"><ele>693.5</ele><time>2026-04-11T13:22:55.465Z</time></trkpt><trkpt lat="44.4091244" lon="10.8098717"><ele>695.0</ele><time>2026-04-11T13:22:57.523Z</time></trkpt><trkpt lat="44.409191" lon="10.8098722"><ele>696.5</ele><time>2026-04-11T13:22:58.444Z</time></trkpt><trkpt lat="44.4092631" lon="10.8098666"><ele>698.0</ele><time>2026-04-11T13:22:59.455Z</time></trkpt><trkpt lat="44.4093448" lon="10.8098842"><ele>699.5</ele><time>2026-04-11T13:23:00.484Z</time></trkpt><trkpt lat="44.4094149" lon="10.8099085"><ele>701.0</ele><time>2026-04-11T13:23:01.509Z</time></trkpt><trkpt lat="44.4095216" lon="10.8099036"><ele>701.0</ele><time>2026-04-11T13:23:03.497Z</time></trkpt><trkpt lat="44.4095854" lon="10.8098087"><ele>701.0</ele><time>2026-04-11T13:23:05.454Z</time></trkpt><trkpt lat="44.4096365" lon="10.8096384"><ele>701.0</ele><time>2026-04-11T13:23:07.467Z</time></trkpt><trkpt lat="44.4096913" lon="10.8095625"><ele>701.0</ele><time>2026-04-11T13:23:08.502Z</time></trkpt><trkpt lat="44.4097923" lon="10.809474"><ele>701.0</ele><time>2026-04-11T13:23:10.496Z</time></trkpt><trkpt lat="44.4099053" lon="10.8094169"><ele>700.5</ele><time>2026-04-11T13:23:12.487Z</time></trkpt><trkpt lat="44.4099693" lon="10.8093205"><ele>700.0</ele><time>2026-04-11T13:23:14.495Z</time></trkpt><trkpt lat="44.4099741" lon="10.8092281"><ele>699.5</ele><time>2026-04-11T13:23:15.492Z</time></trkpt><trkpt lat="44.409956" lon="10.8091013"><ele>699.0</ele><time>2026-04-11T13:23:16.504Z</time></trkpt><trkpt lat="44.4099442" lon="10.8089806"><ele>698.5</ele><time>2026-04-11T13:23:17.488Z</time></trkpt><trkpt lat="44.4099345" lon="10.8088813"><ele>698.0</ele><time>2026-04-11T13:23:18.489Z</time></trkpt><trkpt lat="44.4099313" lon="10.8087534"><ele>698.0</ele><time>2026-04-11T13:23:20.489Z</time></trkpt><trkpt lat="44.4100111" lon="10.8087378"><ele>698.0</ele><time>2026-04-11T13:23:23.496Z</time></trkpt><trkpt lat="44.4101051" lon="10.8088588"><ele>698.0</ele><time>2026-04-11T13:23:25.469Z</time></trkpt><trkpt lat="44.410157" lon="10.808943"><ele>698.0</ele><time>2026-04-11T13:23:26.495Z</time></trkpt><trkpt lat="44.4102068" lon="10.80902"><ele>698.0</ele><time>2026-04-11T13:23:27.481Z</time></trkpt><trkpt lat="44.4102686" lon="10.8090833"><ele>698.0</ele><time>2026-04-11T13:23:28.468Z</time></trkpt><trkpt lat="44.4103458" lon="10.8091482"><ele>698.0</ele><time>2026-04-11T13:23:29.467Z</time></trkpt><trkpt lat="44.410424" lon="10.8092185"><ele>698.0</ele><time>2026-04-11T13:23:30.471Z</time></trkpt><trkpt lat="44.4105094" lon="10.8093118"><ele>698.0</ele><time>2026-04-11T13:23:31.468Z</time></trkpt><trkpt lat="44.4105934" lon="10.8093935"><ele>698.0</ele><time>2026-04-11T13:23:32.459Z</time></trkpt><trkpt lat="44.41068" lon="10.8095031"><ele>698.0</ele><time>2026-04-11T13:23:33.462Z</time></trkpt><trkpt lat="44.4107707" lon="10.8096125"><ele>700.6666666666666</ele><time>2026-04-11T13:23:34.498Z</time></trkpt><trkpt lat="44.4108648" lon="10.8097293"><ele>703.3333333333333</ele><time>2026-04-11T13:23:35.487Z</time></trkpt><trkpt lat="44.4109268" lon="10.8098151"><ele>706.0</ele><time>2026-04-11T13:23:36.496Z</time></trkpt><trkpt lat="44.4109608" lon="10.8098945"><ele>708.6666666666666</ele><time>2026-04-11T13:23:37.524Z</time></trkpt><trkpt lat="44.4110123" lon="10.8099839"><ele>711.3333333333334</ele><time>2026-04-11T13:23:38.48Z</time></trkpt><trkpt lat="44.4110569" lon="10.8100527"><ele>714.0</ele><time>2026-04-11T13:23:39.492Z</time></trkpt><trkpt lat="44.4111081" lon="10.8101176"><ele>714.6666666666666</ele><time>2026-04-11T13:23:40.493Z</time></trkpt><trkpt lat="44.411176" lon="10.8101669"><ele>715.3333333333334</ele><time>2026-04-11T13:23:41.476Z</time></trkpt><trkpt lat="44.4112399" lon="10.8102171"><ele>716.0</ele><time>2026-04-11T13:23:42.501Z</time></trkpt><trkpt lat="44.4113205" lon="10.8103493"><ele>716.6666666666667</ele><time>2026-04-11T13:23:44.482Z</time></trkpt><trkpt lat="44.4113552" lon="10.8104338"><ele>717.3333333333334</ele><time>2026-04-11T13:23:45.499Z</time></trkpt><trkpt lat="44.411355" lon="10.8105501"><ele>718.0</ele><time>2026-04-11T13:23:46.495Z</time></trkpt><trkpt lat="44.4113584" lon="10.8106394"><ele>720.1666666666667</ele><time>2026-04-11T13:23:47.479Z</time></trkpt><trkpt lat="44.411397" lon="10.8108012"><ele>722.3333333333334</ele><time>2026-04-11T13:23:49.515Z</time></trkpt><trkpt lat="44.4114379" lon="10.8108786"><ele>724.5</ele><time>2026-04-11T13:23:50.478Z</time></trkpt><trkpt lat="44.4114797" lon="10.810956"><ele>726.6666666666666</ele><time>2026-04-11T13:23:51.483Z</time></trkpt><trkpt lat="44.411519" lon="10.811028"><ele>728.8333333333333</ele><time>2026-04-11T13:23:52.495Z</time></trkpt><trkpt lat="44.4115638" lon="10.8111058"><ele>731.0</ele><time>2026-04-11T13:23:53.492Z</time></trkpt><trkpt lat="44.411615" lon="10.8111877"><ele>731.5999999999999</ele><time>2026-04-11T13:23:54.492Z</time></trkpt><trkpt lat="44.4116688" lon="10.8112808"><ele>732.2</ele><time>2026-04-11T13:23:55.502Z</time></trkpt><trkpt lat="44.4117276" lon="10.8113774"><ele>732.8</ele><time>2026-04-11T13:23:56.51Z</time></trkpt><trkpt lat="44.4117787" lon="10.8114661"><ele>733.4000000000001</ele><time>2026-04-11T13:23:57.473Z</time></trkpt><trkpt lat="44.4118352" lon="10.8115763"><ele>734.0</ele><time>2026-04-11T13:23:59.49Z</time></trkpt><trkpt lat="44.4118326" lon="10.8117123"><ele>734.0</ele><time>2026-04-11T13:24:01.485Z</time></trkpt><trkpt lat="44.4118137" lon="10.8118123"><ele>734.0</ele><time>2026-04-11T13:24:02.452Z</time></trkpt><trkpt lat="44.411789" lon="10.8119269"><ele>734.0</ele><time>2026-04-11T13:24:03.434Z</time></trkpt><trkpt lat="44.4117646" lon="10.8120406"><ele>734.0</ele><time>2026-04-11T13:24:04.494Z</time></trkpt><trkpt lat="44.4117411" lon="10.8121524"><ele>734.0</ele><time>2026-04-11T13:24:05.488Z</time></trkpt><trkpt lat="44.4117176" lon="10.8122618"><ele>734.0</ele><time>2026-04-11T13:24:06.545Z</time></trkpt><trkpt lat="44.4116928" lon="10.812372"><ele>733.8333333333333</ele><time>2026-04-11T13:24:07.477Z</time></trkpt><trkpt lat="44.4116649" lon="10.8124761"><ele>733.6666666666666</ele><time>2026-04-11T13:24:08.439Z</time></trkpt><trkpt lat="44.4116358" lon="10.8125861"><ele>733.5</ele><time>2026-04-11T13:24:09.454Z</time></trkpt><trkpt lat="44.4116047" lon="10.8126939"><ele>733.3333333333334</ele><time>2026-04-11T13:24:10.505Z</time></trkpt><trkpt lat="44.4115693" lon="10.8128035"><ele>733.1666666666667</ele><time>2026-04-11T13:24:11.492Z</time></trkpt><trkpt lat="44.4115305" lon="10.8129125"><ele>733.0</ele><time>2026-04-11T13:24:12.497Z</time></trkpt><trkpt lat="44.4114879" lon="10.8130269"><ele>733.8</ele><time>2026-04-11T13:24:13.494Z</time></trkpt><trkpt lat="44.4114372" lon="10.8131424"><ele>734.5999999999999</ele><time>2026-04-11T13:24:14.482Z</time></trkpt><trkpt lat="44.4113748" lon="10.8132711"><ele>735.4000000000001</ele><time>2026-04-11T13:24:15.498Z</time></trkpt><trkpt lat="44.411311" lon="10.8134124"><ele>736.2</ele><time>2026-04-11T13:24:16.487Z</time></trkpt><trkpt lat="44.4112566" lon="10.8135473"><ele>737.0</ele><time>2026-04-11T13:24:17.487Z</time></trkpt><trkpt lat="44.4112105" lon="10.8136696"><ele>735.4000000000001</ele><time>2026-04-11T13:24:18.495Z</time></trkpt><trkpt lat="44.4111665" lon="10.8137864"><ele>733.8000000000001</ele><time>2026-04-11T13:24:19.505Z</time></trkpt><trkpt lat="44.4111192" lon="10.813909"><ele>732.2</ele><time>2026-04-11T13:24:20.488Z</time></trkpt><trkpt lat="44.4110722" lon="10.8140352"><ele>730.6</ele><time>2026-04-11T13:24:21.487Z</time></trkpt><trkpt lat="44.4110313" lon="10.8141596"><ele>729.0</ele><time>2026-04-11T13:24:22.442Z</time></trkpt><trkpt lat="44.4109953" lon="10.814283"><ele>729.8333333333334</ele><time>2026-04-11T13:24:23.461Z</time></trkpt><trkpt lat="44.410959" lon="10.8144058"><ele>730.6666666666666</ele><time>2026-04-11T13:24:24.503Z</time></trkpt><trkpt lat="44.4109225" lon="10.8145282"><ele>731.5</ele><time>2026-04-11T13:24:25.442Z</time></trkpt><trkpt lat="44.4108849" lon="10.814644"><ele>732.3333333333333</ele><time>2026-04-11T13:24:26.454Z</time></trkpt><trkpt lat="44.4108483" lon="10.8147541"><ele>733.1666666666666</ele><time>2026-04-11T13:24:27.466Z</time></trkpt><trkpt lat="44.4108151" lon="10.8148541"><ele>734.0</ele><time>2026-04-11T13:24:28.448Z</time></trkpt><trkpt lat="44.4107877" lon="10.8149347"><ele>734.0</ele><time>2026-04-11T13:24:29.465Z</time></trkpt><trkpt lat="44.4107557" lon="10.8150234"><ele>734.0</ele><time>2026-04-11T13:24:31.45Z</time></trkpt><trkpt lat="44.4107093" lon="10.8151176"><ele>734.0</ele><time>2026-04-11T13:24:38.495Z</time></trkpt><trkpt lat="44.4107388" lon="10.8152188"><ele>734.0</ele><time>2026-04-11T13:24:41.479Z</time></trkpt><trkpt lat="44.4106532" lon="10.8152404"><ele>734.0</ele><time>2026-04-11T13:24:45.497Z</time></trkpt><trkpt lat="44.410539" lon="10.8152238"><ele>734.0</ele><time>2026-04-11T13:24:47.507Z</time></trkpt><trkpt lat="44.4104196" lon="10.8151716"><ele>733.2</ele><time>2026-04-11T13:24:49.498Z</time></trkpt><trkpt lat="44.4103533" lon="10.8151512"><ele>732.4000000000001</ele><time>2026-04-11T13:24:50.475Z</time></trkpt><trkpt lat="44.4102728" lon="10.8151355"><ele>731.6</ele><time>2026-04-11T13:24:51.471Z</time></trkpt><trkpt lat="44.41017" lon="10.8151107"><ele>730.8</ele><time>2026-04-11T13:24:53.484Z</time></trkpt><trkpt lat="44.410087" lon="10.8151488"><ele>730.0</ele><time>2026-04-11T13:24:55.464Z</time></trkpt><trkpt lat="44.4100472" lon="10.815306"><ele>730.0</ele><time>2026-04-11T13:24:57.485Z</time></trkpt><trkpt lat="44.410043" lon="10.8154293"><ele>730.0</ele><time>2026-04-11T13:24:58.487Z</time></trkpt><trkpt lat="44.4100395" lon="10.8155756"><ele>730.0</ele><time>2026-04-11T13:24:59.533Z</time></trkpt><trkpt lat="44.410034" lon="10.8157404"><ele>730.0</ele><time>2026-04-11T13:25:00.493Z</time></trkpt><trkpt lat="44.4100289" lon="10.8159052"><ele>730.0</ele><time>2026-04-11T13:25:01.493Z</time></trkpt><trkpt lat="44.4100253" lon="10.8160658"><ele>730.0</ele><time>2026-04-11T13:25:02.477Z</time></trkpt><trkpt lat="44.4100137" lon="10.8162172"><ele>730.0</ele><time>2026-04-11T13:25:03.488Z</time></trkpt><trkpt lat="44.4099936" lon="10.8163621"><ele>730.0</ele><time>2026-04-11T13:25:04.493Z</time></trkpt><trkpt lat="44.4099697" lon="10.8165123"><ele>730.0</ele><time>2026-04-11T13:25:05.488Z</time></trkpt><trkpt lat="44.4099449" lon="10.8166554"><ele>730.0</ele><time>2026-04-11T13:25:06.494Z</time></trkpt><trkpt lat="44.4099256" lon="10.816784"><ele>731.0</ele><time>2026-04-11T13:25:07.502Z</time></trkpt><trkpt lat="44.4099142" lon="10.8169068"><ele>732.0</ele><time>2026-04-11T13:25:08.475Z</time></trkpt><trkpt lat="44.4099017" lon="10.8170237"><ele>733.0</ele><time>2026-04-11T13:25:09.494Z</time></trkpt><trkpt lat="44.4098863" lon="10.8171445"><ele>734.0</ele><time>2026-04-11T13:25:10.505Z</time></trkpt><trkpt lat="44.4098609" lon="10.8172723"><ele>735.0</ele><time>2026-04-11T13:25:11.492Z</time></trkpt><trkpt lat="44.4098288" lon="10.8173948"><ele>736.0</ele><time>2026-04-11T13:25:12.513Z</time></trkpt><trkpt lat="44.4097903" lon="10.81751"><ele>736.0</ele><time>2026-04-11T13:25:13.485Z</time></trkpt><trkpt lat="44.4097491" lon="10.8176254"><ele>736.0</ele><time>2026-04-11T13:25:14.486Z</time></trkpt><trkpt lat="44.4097077" lon="10.8177373"><ele>736.0</ele><time>2026-04-11T13:25:15.497Z</time></trkpt><trkpt lat="44.4096733" lon="10.8178529"><ele>736.0</ele><time>2026-04-11T13:25:16.483Z</time></trkpt><trkpt lat="44.4096472" lon="10.8179639"><ele>736.0</ele><time>2026-04-11T13:25:17.491Z</time></trkpt><trkpt lat="44.4096281" lon="10.8180724"><ele>736.0</ele><time>2026-04-11T13:25:18.486Z</time></trkpt><trkpt lat="44.4096192" lon="10.81818"><ele>734.6666666666667</ele><time>2026-04-11T13:25:19.544Z</time></trkpt><trkpt lat="44.4096234" lon="10.8182922"><ele>733.3333333333334</ele><time>2026-04-11T13:25:20.488Z</time></trkpt><trkpt lat="44.409644" lon="10.8184209"><ele>732.0</ele><time>2026-04-11T13:25:21.465Z</time></trkpt><trkpt lat="44.4096636" lon="10.818548"><ele>730.6666666666666</ele><time>2026-04-11T13:25:22.454Z</time></trkpt><trkpt lat="44.4096809" lon="10.8186612"><ele>729.3333333333333</ele><time>2026-04-11T13:25:23.491Z</time></trkpt><trkpt lat="44.4096831" lon="10.8187652"><ele>728.0</ele><time>2026-04-11T13:25:24.465Z</time></trkpt><trkpt lat="44.4096727" lon="10.8189122"><ele>728.0</ele><time>2026-04-11T13:25:26.465Z</time></trkpt><trkpt lat="44.4096459" lon="10.8190722"><ele>728.0</ele><time>2026-04-11T13:25:28.496Z</time></trkpt><trkpt lat="44.409624" lon="10.8191834"><ele>728.0</ele><time>2026-04-11T13:25:29.489Z</time></trkpt><trkpt lat="44.409598" lon="10.8193065"><ele>728.0</ele><time>2026-04-11T13:25:30.486Z</time></trkpt><trkpt lat="44.4095706" lon="10.8194228"><ele>728.0</ele><time>2026-04-11T13:25:31.463Z</time></trkpt><trkpt lat="44.4095477" lon="10.8195241"><ele>728.0</ele><time>2026-04-11T13:25:32.477Z</time></trkpt><trkpt lat="44.4095335" lon="10.8196232"><ele>728.0</ele><time>2026-04-11T13:25:33.434Z</time></trkpt><trkpt lat="44.4095213" lon="10.8197282"><ele>728.0</ele><time>2026-04-11T13:25:34.487Z</time></trkpt><trkpt lat="44.4095144" lon="10.8198361"><ele>728.0</ele><time>2026-04-11T13:25:35.473Z</time></trkpt><trkpt lat="44.4095082" lon="10.819963"><ele>728.0</ele><time>2026-04-11T13:25:36.464Z</time></trkpt><trkpt lat="44.4095061" lon="10.8201008"><ele>728.0</ele><time>2026-04-11T13:25:37.495Z</time></trkpt><trkpt lat="44.4095011" lon="10.8202397"><ele>727.5999999999999</ele><time>2026-04-11T13:25:38.5Z</time></trkpt><trkpt lat="44.4094947" lon="10.8203768"><ele>727.1999999999999</ele><time>2026-04-11T13:25:39.498Z</time></trkpt><trkpt lat="44.4094812" lon="10.8205126"><ele>726.8</ele><time>2026-04-11T13:25:40.495Z</time></trkpt><trkpt lat="44.4094609" lon="10.820646"><ele>726.4</ele><time>2026-04-11T13:25:41.536Z</time></trkpt><trkpt lat="44.4094328" lon="10.8207841"><ele>726.0</ele><time>2026-04-11T13:25:42.506Z</time></trkpt><trkpt lat="44.4094031" lon="10.8209191"><ele>726.8</ele><time>2026-04-11T13:25:43.487Z</time></trkpt><trkpt lat="44.4093706" lon="10.8210492"><ele>727.5999999999999</ele><time>2026-04-11T13:25:44.488Z</time></trkpt><trkpt lat="44.4093398" lon="10.8211751"><ele>728.4</ele><time>2026-04-11T13:25:45.478Z</time></trkpt><trkpt lat="44.4093107" lon="10.8212952"><ele>729.2</ele><time>2026-04-11T13:25:46.49Z</time></trkpt><trkpt lat="44.4092932" lon="10.8214411"><ele>730.0</ele><time>2026-04-11T13:25:47.504Z</time></trkpt><trkpt lat="44.409273" lon="10.8215817"><ele>730.0</ele><time>2026-04-11T13:25:48.5Z</time></trkpt><trkpt lat="44.4092445" lon="10.8217292"><ele>730.0</ele><time>2026-04-11T13:25:49.512Z</time></trkpt><trkpt lat="44.4092178" lon="10.8218787"><ele>730.0</ele><time>2026-04-11T13:25:50.502Z</time></trkpt><trkpt lat="44.4091916" lon="10.8220375"><ele>730.0</ele><time>2026-04-11T13:25:51.489Z</time></trkpt><trkpt lat="44.4091674" lon="10.8222016"><ele>730.8</ele><time>2026-04-11T13:25:52.497Z</time></trkpt><trkpt lat="44.4091442" lon="10.8223593"><ele>731.6</ele><time>2026-04-11T13:25:53.494Z</time></trkpt><trkpt lat="44.409118" lon="10.8225061"><ele>732.4000000000001</ele><time>2026-04-11T13:25:54.507Z</time></trkpt><trkpt lat="44.4090829" lon="10.8226382"><ele>733.2</ele><time>2026-04-11T13:25:55.456Z</time></trkpt><trkpt lat="44.4090327" lon="10.8227552"><ele>734.0</ele><time>2026-04-11T13:25:56.504Z</time></trkpt><trkpt lat="44.4089667" lon="10.8228625"><ele>735.4000000000001</ele><time>2026-04-11T13:25:57.501Z</time></trkpt><trkpt lat="44.4088936" lon="10.8229629"><ele>736.8</ele><time>2026-04-11T13:25:58.497Z</time></trkpt><trkpt lat="44.4088225" lon="10.8230616"><ele>738.2</ele><time>2026-04-11T13:25:59.499Z</time></trkpt><trkpt lat="44.4087555" lon="10.8231627"><ele>739.5999999999999</ele><time>2026-04-11T13:26:00.491Z</time></trkpt><trkpt lat="44.4087038" lon="10.8232659"><ele>741.0</ele><time>2026-04-11T13:26:01.503Z</time></trkpt><trkpt lat="44.4086678" lon="10.8233685"><ele>739.1666666666666</ele><time>2026-04-11T13:26:02.486Z</time></trkpt><trkpt lat="44.4086447" lon="10.8234731"><ele>737.3333333333334</ele><time>2026-04-11T13:26:03.5Z</time></trkpt><trkpt lat="44.4086261" lon="10.8235885"><ele>735.5</ele><time>2026-04-11T13:26:04.536Z</time></trkpt><trkpt lat="44.4086121" lon="10.8237129"><ele>733.6666666666667</ele><time>2026-04-11T13:26:05.492Z</time></trkpt><trkpt lat="44.4085986" lon="10.8238358"><ele>731.8333333333334</ele><time>2026-04-11T13:26:06.493Z</time></trkpt><trkpt lat="44.4085743" lon="10.8239586"><ele>730.0</ele><time>2026-04-11T13:26:07.485Z</time></trkpt><trkpt lat="44.4085274" lon="10.824071"><ele>730.0</ele><time>2026-04-11T13:26:08.493Z</time></trkpt><trkpt lat="44.4084627" lon="10.8241777"><ele>730.0</ele><time>2026-04-11T13:26:09.47Z</time></trkpt><trkpt lat="44.4083819" lon="10.8242872"><ele>730.0</ele><time>2026-04-11T13:26:10.492Z</time></trkpt><trkpt lat="44.408293" lon="10.8244095"><ele>730.0</ele><time>2026-04-11T13:26:11.507Z</time></trkpt><trkpt lat="44.4082141" lon="10.8245275"><ele>732.2</ele><time>2026-04-11T13:26:12.482Z</time></trkpt><trkpt lat="44.4081432" lon="10.8246321"><ele>734.4</ele><time>2026-04-11T13:26:13.468Z</time></trkpt><trkpt lat="44.4080948" lon="10.8247445"><ele>736.5999999999999</ele><time>2026-04-11T13:26:14.426Z</time></trkpt><trkpt lat="44.4080602" lon="10.8248591"><ele>738.8</ele><time>2026-04-11T13:26:15.492Z</time></trkpt><trkpt lat="44.408037" lon="10.824979"><ele>741.0</ele><time>2026-04-11T13:26:16.463Z</time></trkpt><trkpt lat="44.4080245" lon="10.8251132"><ele>741.75</ele><time>2026-04-11T13:26:17.497Z</time></trkpt><trkpt lat="44.4080107" lon="10.825247"><ele>742.5</ele><time>2026-04-11T13:26:18.475Z</time></trkpt><trkpt lat="44.4080119" lon="10.8254116"><ele>743.25</ele><time>2026-04-11T13:26:19.481Z</time></trkpt><trkpt lat="44.4080077" lon="10.8255816"><ele>744.0</ele><time>2026-04-11T13:26:20.485Z</time></trkpt><trkpt lat="44.4080151" lon="10.8257636"><ele>744.0</ele><time>2026-04-11T13:26:21.509Z</time></trkpt><trkpt lat="44.408015" lon="10.8259357"><ele>744.0</ele><time>2026-04-11T13:26:22.477Z</time></trkpt><trkpt lat="44.4080176" lon="10.8260887"><ele>744.0</ele><time>2026-04-11T13:26:23.494Z</time></trkpt><trkpt lat="44.4080216" lon="10.8262153"><ele>744.0</ele><time>2026-04-11T13:26:24.489Z</time></trkpt><trkpt lat="44.408028" lon="10.8263238"><ele>744.0</ele><time>2026-04-11T13:26:25.45Z</time></trkpt><trkpt lat="44.4080486" lon="10.826431"><ele>743.8333333333334</ele><time>2026-04-11T13:26:26.51Z</time></trkpt><trkpt lat="44.4080713" lon="10.8265395"><ele>743.6666666666666</ele><time>2026-04-11T13:26:27.51Z</time></trkpt><trkpt lat="44.4080905" lon="10.826641"><ele>743.5</ele><time>2026-04-11T13:26:28.424Z</time></trkpt><trkpt lat="44.4081126" lon="10.8267863"><ele>743.3333333333333</ele><time>2026-04-11T13:26:30.491Z</time></trkpt><trkpt lat="44.4081517" lon="10.8268767"><ele>743.1666666666666</ele><time>2026-04-11T13:26:33.461Z</time></trkpt><trkpt lat="44.4081916" lon="10.8269672"><ele>743.0</ele><time>2026-04-11T13:26:35.484Z</time></trkpt><trkpt lat="44.4082198" lon="10.8271456"><ele>741.5999999999999</ele><time>2026-04-11T13:26:37.47Z</time></trkpt><trkpt lat="44.4082318" lon="10.8272567"><ele>740.1999999999999</ele><time>2026-04-11T13:26:38.497Z</time></trkpt><trkpt lat="44.408248" lon="10.8273759"><ele>738.8</ele><time>2026-04-11T13:26:39.506Z</time></trkpt><trkpt lat="44.4082674" lon="10.827506"><ele>737.4</ele><time>2026-04-11T13:26:40.502Z</time></trkpt><trkpt lat="44.4082895" lon="10.8276508"><ele>736.0</ele><time>2026-04-11T13:26:41.463Z</time></trkpt><trkpt lat="44.4083139" lon="10.8277967"><ele>734.1999999999999</ele><time>2026-04-11T13:26:42.495Z</time></trkpt><trkpt lat="44.4083376" lon="10.8279408"><ele>732.4</ele><time>2026-04-11T13:26:43.47Z</time></trkpt><trkpt lat="44.4083616" lon="10.8280836"><ele>730.6</ele><time>2026-04-11T13:26:44.473Z</time></trkpt><trkpt lat="44.4083893" lon="10.8282219"><ele>728.8</ele><time>2026-04-11T13:26:45.486Z</time></trkpt><trkpt lat="44.4084187" lon="10.8283555"><ele>727.0</ele><time>2026-04-11T13:26:46.486Z</time></trkpt><trkpt lat="44.4084503" lon="10.8284813"><ele>725.0</ele><time>2026-04-11T13:26:47.472Z</time></trkpt><trkpt lat="44.4084853" lon="10.8286032"><ele>723.0</ele><time>2026-04-11T13:26:48.466Z</time></trkpt><trkpt lat="44.4085266" lon="10.8287199"><ele>721.0</ele><time>2026-04-11T13:26:49.531Z</time></trkpt><trkpt lat="44.4085736" lon="10.8288307"><ele>719.0</ele><time>2026-04-11T13:26:50.51Z</time></trkpt><trkpt lat="44.4086303" lon="10.8289319"><ele>717.0</ele><time>2026-04-11T13:26:51.487Z</time></trkpt><trkpt lat="44.4086976" lon="10.8290206"><ele>717.0</ele><time>2026-04-11T13:26:52.497Z</time></trkpt><trkpt lat="44.408766" lon="10.8291075"><ele>717.0</ele><time>2026-04-11T13:26:53.487Z</time></trkpt><trkpt lat="44.4088417" lon="10.8291808"><ele>717.0</ele><time>2026-04-11T13:26:54.48Z</time></trkpt><trkpt lat="44.4089137" lon="10.8292539"><ele>717.0</ele><time>2026-04-11T13:26:55.48Z</time></trkpt><trkpt lat="44.4089905" lon="10.8293295"><ele>717.0</ele><time>2026-04-11T13:26:56.496Z</time></trkpt><trkpt lat="44.4090647" lon="10.8294148"><ele>716.8</ele><time>2026-04-11T13:26:57.496Z</time></trkpt><trkpt lat="44.4091387" lon="10.8295094"><ele>716.6</ele><time>2026-04-11T13:26:58.496Z</time></trkpt><trkpt lat="44.4092101" lon="10.8296211"><ele>716.4</ele><time>2026-04-11T13:26:59.49Z</time></trkpt><trkpt lat="44.4092761" lon="10.8297433"><ele>716.1999999999999</ele><time>2026-04-11T13:27:00.488Z</time></trkpt><trkpt lat="44.4093389" lon="10.829869"><ele>716.0</ele><time>2026-04-11T13:27:01.491Z</time></trkpt><trkpt lat="44.4094021" lon="10.8299973"><ele>716.0</ele><time>2026-04-11T13:27:02.492Z</time></trkpt><trkpt lat="44.409466" lon="10.8301277"><ele>716.0</ele><time>2026-04-11T13:27:03.49Z</time></trkpt><trkpt lat="44.40953" lon="10.830261"><ele>716.0</ele><time>2026-04-11T13:27:04.501Z</time></trkpt><trkpt lat="44.4095934" lon="10.830395"><ele>716.0</ele><time>2026-04-11T13:27:05.488Z</time></trkpt><trkpt lat="44.4096561" lon="10.8305332"><ele>714.5</ele><time>2026-04-11T13:27:06.481Z</time></trkpt><trkpt lat="44.4097134" lon="10.8306733"><ele>713.0</ele><time>2026-04-11T13:27:07.491Z</time></trkpt><trkpt lat="44.4097637" lon="10.830823"><ele>711.5</ele><time>2026-04-11T13:27:08.508Z</time></trkpt><trkpt lat="44.4098183" lon="10.8309699"><ele>710.0</ele><time>2026-04-11T13:27:09.469Z</time></trkpt><trkpt lat="44.4098471" lon="10.8311345"><ele>710.0</ele><time>2026-04-11T13:27:10.475Z</time></trkpt><trkpt lat="44.4098716" lon="10.8312966"><ele>710.0</ele><time>2026-04-11T13:27:11.534Z</time></trkpt><trkpt lat="44.4098972" lon="10.8314566"><ele>710.0</ele><time>2026-04-11T13:27:12.493Z</time></trkpt><trkpt lat="44.4099273" lon="10.8316127"><ele>710.0</ele><time>2026-04-11T13:27:13.475Z</time></trkpt><trkpt lat="44.4099648" lon="10.83176"><ele>706.5</ele><time>2026-04-11T13:27:14.503Z</time></trkpt><trkpt lat="44.4100176" lon="10.8318954"><ele>703.0</ele><time>2026-04-11T13:27:15.473Z</time></trkpt><trkpt lat="44.4100865" lon="10.8320142"><ele>699.5</ele><time>2026-04-11T13:27:16.473Z</time></trkpt><trkpt lat="44.4101704" lon="10.8321177"><ele>696.0</ele><time>2026-04-11T13:27:17.534Z</time></trkpt><trkpt lat="44.4102665" lon="10.832219"><ele>696.0</ele><time>2026-04-11T13:27:18.497Z</time></trkpt><trkpt lat="44.4103631" lon="10.8323279"><ele>696.0</ele><time>2026-04-11T13:27:19.479Z</time></trkpt><trkpt lat="44.410453" lon="10.8324451"><ele>696.0</ele><time>2026-04-11T13:27:20.477Z</time></trkpt><trkpt lat="44.4105334" lon="10.8325772"><ele>696.0</ele><time>2026-04-11T13:27:21.472Z</time></trkpt><trkpt lat="44.4106028" lon="10.8327198"><ele>696.75</ele><time>2026-04-11T13:27:22.475Z</time></trkpt><trkpt lat="44.4106665" lon="10.8328673"><ele>697.5</ele><time>2026-04-11T13:27:23.528Z</time></trkpt><trkpt lat="44.4107279" lon="10.8330141"><ele>698.25</ele><time>2026-04-11T13:27:24.484Z</time></trkpt><trkpt lat="44.4107848" lon="10.8331573"><ele>699.0</ele><time>2026-04-11T13:27:25.47Z</time></trkpt><trkpt lat="44.4108403" lon="10.8332927"><ele>699.0</ele><time>2026-04-11T13:27:26.494Z</time></trkpt><trkpt lat="44.4108967" lon="10.8334188"><ele>699.0</ele><time>2026-04-11T13:27:27.477Z</time></trkpt><trkpt lat="44.4109559" lon="10.8335356"><ele>699.0</ele><time>2026-04-11T13:27:28.495Z</time></trkpt><trkpt lat="44.4110177" lon="10.8336369"><ele>699.0</ele><time>2026-04-11T13:27:29.543Z</time></trkpt><trkpt lat="44.4110798" lon="10.8337255"><ele>699.0</ele><time>2026-04-11T13:27:30.487Z</time></trkpt><trkpt lat="44.4111403" lon="10.8338077"><ele>697.2857142857142</ele><time>2026-04-11T13:27:31.493Z</time></trkpt><trkpt lat="44.411195" lon="10.8338885"><ele>695.5714285714287</ele><time>2026-04-11T13:27:32.494Z</time></trkpt><trkpt lat="44.4112364" lon="10.8339714"><ele>693.8571428571429</ele><time>2026-04-11T13:27:33.507Z</time></trkpt><trkpt lat="44.4112575" lon="10.8340605"><ele>692.1428571428571</ele><time>2026-04-11T13:27:34.481Z</time></trkpt><trkpt lat="44.4112492" lon="10.8341515"><ele>690.4285714285713</ele><time>2026-04-11T13:27:35.485Z</time></trkpt><trkpt lat="44.4112099" lon="10.8342286"><ele>688.7142857142858</ele><time>2026-04-11T13:27:36.469Z</time></trkpt><trkpt lat="44.4111483" lon="10.8342754"><ele>687.0</ele><time>2026-04-11T13:27:37.488Z</time></trkpt><trkpt lat="44.4110763" lon="10.8342759"><ele>687.0</ele><time>2026-04-11T13:27:38.477Z</time></trkpt><trkpt lat="44.4110008" lon="10.8342268"><ele>687.0</ele><time>2026-04-11T13:27:39.487Z</time></trkpt><trkpt lat="44.4109312" lon="10.8341457"><ele>687.0</ele><time>2026-04-11T13:27:40.48Z</time></trkpt><trkpt lat="44.4108565" lon="10.8340438"><ele>687.0</ele><time>2026-04-11T13:27:41.48Z</time></trkpt><trkpt lat="44.4107766" lon="10.8339323"><ele>687.0</ele><time>2026-04-11T13:27:42.467Z</time></trkpt><trkpt lat="44.4106966" lon="10.8338189"><ele>687.0</ele><time>2026-04-11T13:27:43.484Z</time></trkpt><trkpt lat="44.4106162" lon="10.8337034"><ele>687.0</ele><time>2026-04-11T13:27:44.445Z</time></trkpt><trkpt lat="44.4105301" lon="10.8335817"><ele>687.0</ele><time>2026-04-11T13:27:45.477Z</time></trkpt><trkpt lat="44.4104376" lon="10.833461"><ele>687.0</ele><time>2026-04-11T13:27:46.535Z</time></trkpt><trkpt lat="44.4103397" lon="10.8333528"><ele>686.5</ele><time>2026-04-11T13:27:47.489Z</time></trkpt><trkpt lat="44.4102358" lon="10.8332601"><ele>686.0</ele><time>2026-04-11T13:27:48.493Z</time></trkpt><trkpt lat="44.410126" lon="10.8331888"><ele>685.5</ele><time>2026-04-11T13:27:49.463Z</time></trkpt><trkpt lat="44.4100151" lon="10.833139"><ele>685.0</ele><time>2026-04-11T13:27:50.485Z</time></trkpt><trkpt lat="44.4099097" lon="10.833109"><ele>685.0</ele><time>2026-04-11T13:27:51.496Z</time></trkpt><trkpt lat="44.4098134" lon="10.8331041"><ele>685.0</ele><time>2026-04-11T13:27:52.483Z</time></trkpt><trkpt lat="44.4097332" lon="10.8331304"><ele>685.0</ele><time>2026-04-11T13:27:53.429Z</time></trkpt><trkpt lat="44.4096772" lon="10.8331883"><ele>685.0</ele><time>2026-04-11T13:27:54.482Z</time></trkpt><trkpt lat="44.4096507" lon="10.833271"><ele>685.0</ele><time>2026-04-11T13:27:55.498Z</time></trkpt><trkpt lat="44.4096571" lon="10.8333669"><ele>685.0</ele><time>2026-04-11T13:27:56.487Z</time></trkpt><trkpt lat="44.4096989" lon="10.8334635"><ele>681.25</ele><time>2026-04-11T13:27:57.453Z</time></trkpt><trkpt lat="44.4097719" lon="10.8335608"><ele>677.5</ele><time>2026-04-11T13:27:58.472Z</time></trkpt><trkpt lat="44.4098668" lon="10.8336681"><ele>673.75</ele><time>2026-04-11T13:27:59.48Z</time></trkpt><trkpt lat="44.40997" lon="10.8337906"><ele>670.0</ele><time>2026-04-11T13:28:00.491Z</time></trkpt><trkpt lat="44.4100671" lon="10.83392"><ele>670.0</ele><time>2026-04-11T13:28:01.489Z</time></trkpt><trkpt lat="44.4101575" lon="10.8340567"><ele>670.0</ele><time>2026-04-11T13:28:02.511Z</time></trkpt><trkpt lat="44.4102383" lon="10.8342028"><ele>670.0</ele><time>2026-04-11T13:28:03.464Z</time></trkpt><trkpt lat="44.4103102" lon="10.8343639"><ele>670.0</ele><time>2026-04-11T13:28:04.5Z</time></trkpt><trkpt lat="44.4103767" lon="10.8345372"><ele>671.25</ele><time>2026-04-11T13:28:05.483Z</time></trkpt><trkpt lat="44.4104404" lon="10.8347094"><ele>672.5</ele><time>2026-04-11T13:28:06.48Z</time></trkpt><trkpt lat="44.4105021" lon="10.8348795"><ele>673.75</ele><time>2026-04-11T13:28:07.486Z</time></trkpt><trkpt lat="44.4105632" lon="10.8350482"><ele>675.0</ele><time>2026-04-11T13:28:08.513Z</time></trkpt><trkpt lat="44.4106212" lon="10.8352088"><ele>671.75</ele><time>2026-04-11T13:28:09.474Z</time></trkpt><trkpt lat="44.4106795" lon="10.8353729"><ele>668.5</ele><time>2026-04-11T13:28:10.482Z</time></trkpt><trkpt lat="44.4107344" lon="10.8355285"><ele>665.25</ele><time>2026-04-11T13:28:11.473Z</time></trkpt><trkpt lat="44.4107864" lon="10.8356789"><ele>662.0</ele><time>2026-04-11T13:28:12.495Z</time></trkpt><trkpt lat="44.4108387" lon="10.8358269"><ele>662.0</ele><time>2026-04-11T13:28:13.493Z</time></trkpt><trkpt lat="44.4108953" lon="10.8359602"><ele>662.0</ele><time>2026-04-11T13:28:14.453Z</time></trkpt><trkpt lat="44.4109621" lon="10.8360761"><ele>662.0</ele><time>2026-04-11T13:28:15.487Z</time></trkpt><trkpt lat="44.4110439" lon="10.8361666"><ele>662.0</ele><time>2026-04-11T13:28:16.47Z</time></trkpt><trkpt lat="44.4111356" lon="10.8362361"><ele>662.0</ele><time>2026-04-11T13:28:17.476Z</time></trkpt><trkpt lat="44.411231" lon="10.8363006"><ele>659.8</ele><time>2026-04-11T13:28:18.507Z</time></trkpt><trkpt lat="44.411321" lon="10.8363702"><ele>657.6</ele><time>2026-04-11T13:28:19.531Z</time></trkpt><trkpt lat="44.4113955" lon="10.8364487"><ele>655.4</ele><time>2026-04-11T13:28:20.499Z</time></trkpt><trkpt lat="44.4114482" lon="10.8365401"><ele>653.1999999999999</ele><time>2026-04-11T13:28:21.501Z</time></trkpt><trkpt lat="44.4114764" lon="10.8366482"><ele>651.0</ele><time>2026-04-11T13:28:22.484Z</time></trkpt><trkpt lat="44.411486" lon="10.8367816"><ele>649.0</ele><time>2026-04-11T13:28:23.499Z</time></trkpt><trkpt lat="44.4114811" lon="10.8369238"><ele>647.0</ele><time>2026-04-11T13:28:24.483Z</time></trkpt><trkpt lat="44.4114653" lon="10.8370635"><ele>645.0</ele><time>2026-04-11T13:28:25.502Z</time></trkpt><trkpt lat="44.4114352" lon="10.8371924"><ele>643.0</ele><time>2026-04-11T13:28:26.44Z</time></trkpt><trkpt lat="44.4113852" lon="10.837305"><ele>641.0</ele><time>2026-04-11T13:28:27.497Z</time></trkpt><trkpt lat="44.4113116" lon="10.8373951"><ele>640.5999999999999</ele><time>2026-04-11T13:28:28.493Z</time></trkpt><trkpt lat="44.4112201" lon="10.8374568"><ele>640.1999999999999</ele><time>2026-04-11T13:28:29.495Z</time></trkpt><trkpt lat="44.4111189" lon="10.8374831"><ele>639.8</ele><time>2026-04-11T13:28:30.463Z</time></trkpt><trkpt lat="44.4110141" lon="10.8374753"><ele>639.4</ele><time>2026-04-11T13:28:31.468Z</time></trkpt><trkpt lat="44.4109106" lon="10.8374363"><ele>639.0</ele><time>2026-04-11T13:28:32.475Z</time></trkpt><trkpt lat="44.4108153" lon="10.8373633"><ele>639.0</ele><time>2026-04-11T13:28:33.494Z</time></trkpt><trkpt lat="44.4107378" lon="10.8372545"><ele>639.0</ele><time>2026-04-11T13:28:34.482Z</time></trkpt><trkpt lat="44.4106734" lon="10.8371176"><ele>639.0</ele><time>2026-04-11T13:28:35.449Z</time></trkpt><trkpt lat="44.4106114" lon="10.8369642"><ele>639.0</ele><time>2026-04-11T13:28:36.467Z</time></trkpt><trkpt lat="44.4105456" lon="10.8368119"><ele>636.75</ele><time>2026-04-11T13:28:37.502Z</time></trkpt><trkpt lat="44.4104698" lon="10.8366662"><ele>634.5</ele><time>2026-04-11T13:28:38.51Z</time></trkpt><trkpt lat="44.4103838" lon="10.8365337"><ele>632.25</ele><time>2026-04-11T13:28:39.485Z</time></trkpt><trkpt lat="44.4102844" lon="10.8364175"><ele>630.0</ele><time>2026-04-11T13:28:40.484Z</time></trkpt><trkpt lat="44.4101754" lon="10.8363238"><ele>630.0</ele><time>2026-04-11T13:28:41.498Z</time></trkpt><trkpt lat="44.4100687" lon="10.8362354"><ele>630.0</ele><time>2026-04-11T13:28:42.466Z</time></trkpt><trkpt lat="44.4099511" lon="10.8361733"><ele>630.0</ele><time>2026-04-11T13:28:43.484Z</time></trkpt><trkpt lat="44.4098359" lon="10.8361106"><ele>630.0</ele><time>2026-04-11T13:28:44.467Z</time></trkpt><trkpt lat="44.4097243" lon="10.8360464"><ele>630.0</ele><time>2026-04-11T13:28:45.515Z</time></trkpt><trkpt lat="44.4096147" lon="10.8359829"><ele>630.0</ele><time>2026-04-11T13:28:46.482Z</time></trkpt><trkpt lat="44.4095116" lon="10.8359234"><ele>630.0</ele><time>2026-04-11T13:28:47.508Z</time></trkpt><trkpt lat="44.4094121" lon="10.8358704"><ele>630.0</ele><time>2026-04-11T13:28:48.533Z</time></trkpt><trkpt lat="44.4093184" lon="10.8358298"><ele>630.0</ele><time>2026-04-11T13:28:49.498Z</time></trkpt><trkpt lat="44.4092295" lon="10.8358082"><ele>630.0</ele><time>2026-04-11T13:28:50.496Z</time></trkpt><trkpt lat="44.4091478" lon="10.8358196"><ele>630.0</ele><time>2026-04-11T13:28:51.497Z</time></trkpt><trkpt lat="44.4090767" lon="10.8358686"><ele>630.0</ele><time>2026-04-11T13:28:52.502Z</time></trkpt><trkpt lat="44.4090121" lon="10.8359212"><ele>630.0</ele><time>2026-04-11T13:28:53.495Z</time></trkpt><trkpt lat="44.408992" lon="10.8360306"><ele>630.0</ele><time>2026-04-11T13:28:54.492Z</time></trkpt><trkpt lat="44.409002" lon="10.8361558"><ele>630.0</ele><time>2026-04-11T13:28:55.496Z</time></trkpt><trkpt lat="44.4090344" lon="10.8362826"><ele>627.8</ele><time>2026-04-11T13:28:56.522Z</time></trkpt><trkpt lat="44.4090797" lon="10.83641"><ele>625.6</ele><time>2026-04-11T13:28:57.469Z</time></trkpt><trkpt lat="44.409134" lon="10.8365431"><ele>623.4</ele><time>2026-04-11T13:28:58.505Z</time></trkpt><trkpt lat="44.4091876" lon="10.836683"><ele>621.2</ele><time>2026-04-11T13:28:59.471Z</time></trkpt><trkpt lat="44.4092385" lon="10.8368252"><ele>619.0</ele><time>2026-04-11T13:29:00.482Z</time></trkpt><trkpt lat="44.4092795" lon="10.8369752"><ele>618.0</ele><time>2026-04-11T13:29:01.491Z</time></trkpt><trkpt lat="44.4093017" lon="10.8371341"><ele>617.0</ele><time>2026-04-11T13:29:02.469Z</time></trkpt><trkpt lat="44.409309" lon="10.8372998"><ele>616.0</ele><time>2026-04-11T13:29:03.472Z</time></trkpt><trkpt lat="44.4093127" lon="10.8374682"><ele>615.0</ele><time>2026-04-11T13:29:04.461Z</time></trkpt><trkpt lat="44.4093175" lon="10.8376365"><ele>613.4</ele><time>2026-04-11T13:29:05.495Z</time></trkpt><trkpt lat="44.4093247" lon="10.8377999"><ele>611.8</ele><time>2026-04-11T13:29:06.498Z</time></trkpt><trkpt lat="44.40933" lon="10.8379549"><ele>610.2</ele><time>2026-04-11T13:29:07.485Z</time></trkpt><trkpt lat="44.4093363" lon="10.8380984"><ele>608.6</ele><time>2026-04-11T13:29:08.501Z</time></trkpt><trkpt lat="44.4093341" lon="10.8382255"><ele>607.0</ele><time>2026-04-11T13:29:09.506Z</time></trkpt><trkpt lat="44.4093217" lon="10.8383383"><ele>607.0</ele><time>2026-04-11T13:29:10.474Z</time></trkpt><trkpt lat="44.4092886" lon="10.8384404"><ele>607.0</ele><time>2026-04-11T13:29:11.497Z</time></trkpt><trkpt lat="44.4092328" lon="10.838519"><ele>607.0</ele><time>2026-04-11T13:29:12.498Z</time></trkpt><trkpt lat="44.4091618" lon="10.8385708"><ele>607.0</ele><time>2026-04-11T13:29:13.466Z</time></trkpt><trkpt lat="44.4090811" lon="10.8386081"><ele>607.0</ele><time>2026-04-11T13:29:14.504Z</time></trkpt><trkpt lat="44.4089974" lon="10.8386423"><ele>607.0</ele><time>2026-04-11T13:29:15.545Z</time></trkpt><trkpt lat="44.4089117" lon="10.8386787"><ele>605.8333333333334</ele><time>2026-04-11T13:29:16.494Z</time></trkpt><trkpt lat="44.4088254" lon="10.8387148"><ele>604.6666666666667</ele><time>2026-04-11T13:29:17.49Z</time></trkpt><trkpt lat="44.4087418" lon="10.8387494"><ele>603.5</ele><time>2026-04-11T13:29:18.478Z</time></trkpt><trkpt lat="44.4086627" lon="10.83878"><ele>602.3333333333334</ele><time>2026-04-11T13:29:19.49Z</time></trkpt><trkpt lat="44.4085897" lon="10.8388075"><ele>601.1666666666666</ele><time>2026-04-11T13:29:20.491Z</time></trkpt><trkpt lat="44.4085207" lon="10.8388339"><ele>600.0</ele><time>2026-04-11T13:29:21.546Z</time></trkpt><trkpt lat="44.4084556" lon="10.8388559"><ele>600.0</ele><time>2026-04-11T13:29:22.467Z</time></trkpt><trkpt lat="44.4083929" lon="10.838875"><ele>600.0</ele><time>2026-04-11T13:29:23.446Z</time></trkpt><trkpt lat="44.4082705" lon="10.8388934"><ele>600.0</ele><time>2026-04-11T13:29:25.511Z</time></trkpt><trkpt lat="44.4081611" lon="10.83886"><ele>600.0</ele><time>2026-04-11T13:29:27.539Z</time></trkpt><trkpt lat="44.4080734" lon="10.8387507"><ele>600.0</ele><time>2026-04-11T13:29:29.493Z</time></trkpt><trkpt lat="44.4080489" lon="10.8386639"><ele>600.0</ele><time>2026-04-11T13:29:30.452Z</time></trkpt><trkpt lat="44.4080415" lon="10.8385748"><ele>600.0</ele><time>2026-04-11T13:29:31.496Z</time></trkpt><trkpt lat="44.4080454" lon="10.838412"><ele>600.0</ele><time>2026-04-11T13:29:33.493Z</time></trkpt><trkpt lat="44.40805" lon="10.8382678"><ele>600.0</ele><time>2026-04-11T13:29:35.497Z</time></trkpt><trkpt lat="44.4080516" lon="10.8381579"><ele>600.0</ele><time>2026-04-11T13:29:37.441Z</time></trkpt><trkpt lat="44.4080438" lon="10.8380577"><ele>600.0</ele><time>2026-04-11T13:29:39.502Z</time></trkpt><trkpt lat="44.4080034" lon="10.8379562"><ele>599.0</ele><time>2026-04-11T13:29:42.486Z</time></trkpt><trkpt lat="44.4079457" lon="10.8378875"><ele>598.0</ele><time>2026-04-11T13:29:49.475Z</time></trkpt><trkpt lat="44.4078861" lon="10.8378224"><ele>597.0</ele><time>2026-04-11T13:29:52.436Z</time></trkpt><trkpt lat="44.4078115" lon="10.8378359"><ele>596.0</ele><time>2026-04-11T13:29:54.477Z</time></trkpt><trkpt lat="44.4077556" lon="10.8379906"><ele>595.0</ele><time>2026-04-11T13:29:56.486Z</time></trkpt><trkpt lat="44.4077435" lon="10.8381026"><ele>594.0</ele><time>2026-04-11T13:29:57.472Z</time></trkpt><trkpt lat="44.4077413" lon="10.8382224"><ele>594.0</ele><time>2026-04-11T13:29:58.483Z</time></trkpt><trkpt lat="44.4077355" lon="10.8383513"><ele>594.0</ele><time>2026-04-11T13:29:59.509Z</time></trkpt><trkpt lat="44.4077251" lon="10.838478"><ele>594.0</ele><time>2026-04-11T13:30:00.504Z</time></trkpt><trkpt lat="44.4077149" lon="10.8385956"><ele>594.0</ele><time>2026-04-11T13:30:01.489Z</time></trkpt><trkpt lat="44.4077015" lon="10.8387099"><ele>594.0</ele><time>2026-04-11T13:30:02.456Z</time></trkpt><trkpt lat="44.4076815" lon="10.8388185"><ele>594.0</ele><time>2026-04-11T13:30:03.505Z</time></trkpt><trkpt lat="44.4076501" lon="10.8389214"><ele>593.8</ele><time>2026-04-11T13:30:04.486Z</time></trkpt><trkpt lat="44.4076011" lon="10.8390162"><ele>593.5999999999999</ele><time>2026-04-11T13:30:05.476Z</time></trkpt><trkpt lat="44.4075358" lon="10.8391081"><ele>593.4</ele><time>2026-04-11T13:30:06.445Z</time></trkpt><trkpt lat="44.4074691" lon="10.8392158"><ele>593.1999999999999</ele><time>2026-04-11T13:30:07.506Z</time></trkpt><trkpt lat="44.4074151" lon="10.8393382"><ele>593.0</ele><time>2026-04-11T13:30:08.497Z</time></trkpt><trkpt lat="44.407378" lon="10.8394665"><ele>593.0</ele><time>2026-04-11T13:30:09.488Z</time></trkpt><trkpt lat="44.4073528" lon="10.8395957"><ele>593.0</ele><time>2026-04-11T13:30:10.483Z</time></trkpt><trkpt lat="44.4073366" lon="10.8397224"><ele>593.0</ele><time>2026-04-11T13:30:11.492Z</time></trkpt><trkpt lat="44.4073231" lon="10.8398436"><ele>593.0</ele><time>2026-04-11T13:30:12.496Z</time></trkpt><trkpt lat="44.4073129" lon="10.8399617"><ele>593.0</ele><time>2026-04-11T13:30:13.496Z</time></trkpt><trkpt lat="44.4073061" lon="10.8400763"><ele>593.0</ele><time>2026-04-11T13:30:14.497Z</time></trkpt><trkpt lat="44.4073066" lon="10.8401928"><ele>592.0</ele><time>2026-04-11T13:30:15.466Z</time></trkpt><trkpt lat="44.4073171" lon="10.8403089"><ele>591.0</ele><time>2026-04-11T13:30:16.521Z</time></trkpt><trkpt lat="44.4073345" lon="10.8404255"><ele>590.0</ele><time>2026-04-11T13:30:17.501Z</time></trkpt><trkpt lat="44.4073571" lon="10.840551"><ele>589.0</ele><time>2026-04-11T13:30:18.499Z</time></trkpt><trkpt lat="44.4073825" lon="10.8406809"><ele>588.0</ele><time>2026-04-11T13:30:19.545Z</time></trkpt><trkpt lat="44.4074097" lon="10.8408108"><ele>588.0</ele><time>2026-04-11T13:30:20.5Z</time></trkpt><trkpt lat="44.4074362" lon="10.8409383"><ele>588.0</ele><time>2026-04-11T13:30:21.501Z</time></trkpt><trkpt lat="44.4074632" lon="10.8410637"><ele>588.0</ele><time>2026-04-11T13:30:22.502Z</time></trkpt><trkpt lat="44.407491" lon="10.8411859"><ele>588.0</ele><time>2026-04-11T13:30:23.5Z</time></trkpt><trkpt lat="44.4075194" lon="10.8413026"><ele>588.0</ele><time>2026-04-11T13:30:24.489Z</time></trkpt><trkpt lat="44.4075415" lon="10.8414124"><ele>588.0</ele><time>2026-04-11T13:30:25.503Z</time></trkpt><trkpt lat="44.4075437" lon="10.8415088"><ele>588.0</ele><time>2026-04-11T13:30:26.481Z</time></trkpt><trkpt lat="44.4075147" lon="10.841593"><ele>588.0</ele><time>2026-04-11T13:30:27.498Z</time></trkpt><trkpt lat="44.4074583" lon="10.8416646"><ele>588.0</ele><time>2026-04-11T13:30:28.505Z</time></trkpt><trkpt lat="44.4073923" lon="10.8417243"><ele>588.0</ele><time>2026-04-11T13:30:29.509Z</time></trkpt><trkpt lat="44.4073217" lon="10.8417803"><ele>588.0</ele><time>2026-04-11T13:30:30.448Z</time></trkpt><trkpt lat="44.4072435" lon="10.841846"><ele>585.8</ele><time>2026-04-11T13:30:31.444Z</time></trkpt><trkpt lat="44.4071602" lon="10.84192"><ele>583.5999999999999</ele><time>2026-04-11T13:30:32.514Z</time></trkpt><trkpt lat="44.4070763" lon="10.841994"><ele>581.4000000000001</ele><time>2026-04-11T13:30:33.478Z</time></trkpt><trkpt lat="44.4069919" lon="10.8420674"><ele>579.2</ele><time>2026-04-11T13:30:34.478Z</time></trkpt><trkpt lat="44.4069087" lon="10.8421453"><ele>577.0</ele><time>2026-04-11T13:30:35.479Z</time></trkpt><trkpt lat="44.4068328" lon="10.8422323"><ele>577.0</ele><time>2026-04-11T13:30:36.465Z</time></trkpt><trkpt lat="44.4067733" lon="10.842332"><ele>577.0</ele><time>2026-04-11T13:30:37.486Z</time></trkpt><trkpt lat="44.4067353" lon="10.8424434"><ele>577.0</ele><time>2026-04-11T13:30:38.475Z</time></trkpt><trkpt lat="44.4067174" lon="10.8425636"><ele>577.0</ele><time>2026-04-11T13:30:39.493Z</time></trkpt><trkpt lat="44.4067133" lon="10.8426871"><ele>577.0</ele><time>2026-04-11T13:30:40.502Z</time></trkpt><trkpt lat="44.4067129" lon="10.8428124"><ele>577.0</ele><time>2026-04-11T13:30:41.468Z</time></trkpt><trkpt lat="44.4067099" lon="10.8429392"><ele>577.1666666666667</ele><time>2026-04-11T13:30:42.478Z</time></trkpt><trkpt lat="44.4067053" lon="10.8430653"><ele>577.3333333333334</ele><time>2026-04-11T13:30:43.465Z</time></trkpt><trkpt lat="44.4067025" lon="10.843187"><ele>577.5</ele><time>2026-04-11T13:30:44.495Z</time></trkpt><trkpt lat="44.4066992" lon="10.8433017"><ele>577.6666666666666</ele><time>2026-04-11T13:30:45.482Z</time></trkpt><trkpt lat="44.4066897" lon="10.8434083"><ele>577.8333333333333</ele><time>2026-04-11T13:30:46.524Z</time></trkpt><trkpt lat="44.4066707" lon="10.8435017"><ele>578.0</ele><time>2026-04-11T13:30:47.59Z</time></trkpt><trkpt lat="44.4065949" lon="10.8436285"><ele>578.0</ele><time>2026-04-11T13:30:49.494Z</time></trkpt><trkpt lat="44.4064945" lon="10.8436003"><ele>578.0</ele><time>2026-04-11T13:30:51.48Z</time></trkpt><trkpt lat="44.406469" lon="10.8434269"><ele>578.0</ele><time>2026-04-11T13:30:53.498Z</time></trkpt><trkpt lat="44.4064832" lon="10.8433021"><ele>578.0</ele><time>2026-04-11T13:30:54.499Z</time></trkpt><trkpt lat="44.4064904" lon="10.8431633"><ele>578.0</ele><time>2026-04-11T13:30:55.493Z</time></trkpt><trkpt lat="44.4064785" lon="10.8430217"><ele>578.0</ele><time>2026-04-11T13:30:56.499Z</time></trkpt><trkpt lat="44.4064454" lon="10.8428787"><ele>578.0</ele><time>2026-04-11T13:30:57.481Z</time></trkpt><trkpt lat="44.4063938" lon="10.8427367"><ele>578.0</ele><time>2026-04-11T13:30:58.482Z</time></trkpt><trkpt lat="44.4063349" lon="10.8425991"><ele>578.0</ele><time>2026-04-11T13:30:59.504Z</time></trkpt><trkpt lat="44.4062751" lon="10.842461"><ele>572.5</ele><time>2026-04-11T13:31:00.479Z</time></trkpt><trkpt lat="44.4062136" lon="10.8423224"><ele>567.0</ele><time>2026-04-11T13:31:01.492Z</time></trkpt><trkpt lat="44.4061472" lon="10.8421866"><ele>561.5</ele><time>2026-04-11T13:31:02.471Z</time></trkpt><trkpt lat="44.4060754" lon="10.8420529"><ele>556.0</ele><time>2026-04-11T13:31:03.499Z</time></trkpt><trkpt lat="44.4059966" lon="10.8419239"><ele>556.0</ele><time>2026-04-11T13:31:04.469Z</time></trkpt><trkpt lat="44.4059123" lon="10.8418008"><ele>556.0</ele><time>2026-04-11T13:31:05.489Z</time></trkpt><trkpt lat="44.4058296" lon="10.8416835"><ele>556.0</ele><time>2026-04-11T13:31:06.463Z</time></trkpt><trkpt lat="44.4057576" lon="10.8415664"><ele>556.0</ele><time>2026-04-11T13:31:07.462Z</time></trkpt><trkpt lat="44.405697" lon="10.8414426"><ele>556.6</ele><time>2026-04-11T13:31:08.493Z</time></trkpt><trkpt lat="44.4056548" lon="10.8413109"><ele>557.2</ele><time>2026-04-11T13:31:09.494Z</time></trkpt><trkpt lat="44.4056339" lon="10.8411705"><ele>557.8</ele><time>2026-04-11T13:31:10.469Z</time></trkpt><trkpt lat="44.4056276" lon="10.8410259"><ele>558.4</ele><time>2026-04-11T13:31:11.465Z</time></trkpt><trkpt lat="44.4056275" lon="10.8408788"><ele>559.0</ele><time>2026-04-11T13:31:12.502Z</time></trkpt><trkpt lat="44.4056288" lon="10.8407365"><ele>559.0</ele><time>2026-04-11T13:31:13.497Z</time></trkpt><trkpt lat="44.4056301" lon="10.8406059"><ele>559.0</ele><time>2026-04-11T13:31:14.492Z</time></trkpt><trkpt lat="44.4056242" lon="10.8404981"><ele>559.0</ele><time>2026-04-11T13:31:15.492Z</time></trkpt><trkpt lat="44.4056008" lon="10.8404103"><ele>559.0</ele><time>2026-04-11T13:31:16.474Z</time></trkpt><trkpt lat="44.4055558" lon="10.8403485"><ele>559.0</ele><time>2026-04-11T13:31:17.498Z</time></trkpt><trkpt lat="44.4054389" lon="10.840356"><ele>559.0</ele><time>2026-04-11T13:31:19.489Z</time></trkpt><trkpt lat="44.4053952" lon="10.8404334"><ele>554.6</ele><time>2026-04-11T13:31:20.467Z</time></trkpt><trkpt lat="44.4053716" lon="10.840544"><ele>550.2</ele><time>2026-04-11T13:31:21.509Z</time></trkpt><trkpt lat="44.4053633" lon="10.8406784"><ele>545.8000000000001</ele><time>2026-04-11T13:31:22.503Z</time></trkpt><trkpt lat="44.4053547" lon="10.8408282"><ele>541.4</ele><time>2026-04-11T13:31:23.488Z</time></trkpt><trkpt lat="44.405333" lon="10.8409882"><ele>537.0</ele><time>2026-04-11T13:31:24.481Z</time></trkpt><trkpt lat="44.4052992" lon="10.8411456"><ele>536.8000000000001</ele><time>2026-04-11T13:31:25.481Z</time></trkpt><trkpt lat="44.4052581" lon="10.8412974"><ele>536.6</ele><time>2026-04-11T13:31:26.504Z</time></trkpt><trkpt lat="44.4052224" lon="10.8414498"><ele>536.4000000000001</ele><time>2026-04-11T13:31:27.488Z</time></trkpt><trkpt lat="44.4052059" lon="10.8415975"><ele>536.2</ele><time>2026-04-11T13:31:28.467Z</time></trkpt><trkpt lat="44.4052135" lon="10.8417376"><ele>536.0</ele><time>2026-04-11T13:31:29.518Z</time></trkpt><trkpt lat="44.4052218" lon="10.8418723"><ele>535.5</ele><time>2026-04-11T13:31:30.478Z</time></trkpt><trkpt lat="44.4052702" lon="10.8419978"><ele>535.0</ele><time>2026-04-11T13:31:31.49Z</time></trkpt><trkpt lat="44.4053192" lon="10.8421104"><ele>534.5</ele><time>2026-04-11T13:31:32.454Z</time></trkpt><trkpt lat="44.4053504" lon="10.8422103"><ele>534.0</ele><time>2026-04-11T13:31:33.469Z</time></trkpt><trkpt lat="44.4053599" lon="10.8423014"><ele>533.5</ele><time>2026-04-11T13:31:34.47Z</time></trkpt><trkpt lat="44.4052966" lon="10.8424161"><ele>533.0</ele><time>2026-04-11T13:31:36.476Z</time></trkpt><trkpt lat="44.4051853" lon="10.8423348"><ele>533.0</ele><time>2026-04-11T13:31:38.519Z</time></trkpt><trkpt lat="44.4051323" lon="10.8422245"><ele>533.0</ele><time>2026-04-11T13:31:39.481Z</time></trkpt><trkpt lat="44.4050722" lon="10.8420953"><ele>533.0</ele><time>2026-04-11T13:31:40.497Z</time></trkpt><trkpt lat="44.405003" lon="10.8419661"><ele>533.0</ele><time>2026-04-11T13:31:41.502Z</time></trkpt><trkpt lat="44.4049352" lon="10.8418374"><ele>533.0</ele><time>2026-04-11T13:31:42.507Z</time></trkpt><trkpt lat="44.4048805" lon="10.8416967"><ele>533.6</ele><time>2026-04-11T13:31:43.481Z</time></trkpt><trkpt lat="44.404826" lon="10.8415577"><ele>534.1999999999999</ele><time>2026-04-11T13:31:44.54Z</time></trkpt><trkpt lat="44.4047951" lon="10.8414201"><ele>534.8</ele><time>2026-04-11T13:31:45.495Z</time></trkpt><trkpt lat="44.4047701" lon="10.8412833"><ele>535.4</ele><time>2026-04-11T13:31:46.494Z</time></trkpt><trkpt lat="44.4047459" lon="10.8411505"><ele>536.0</ele><time>2026-04-11T13:31:47.496Z</time></trkpt><trkpt lat="44.4047268" lon="10.8410221"><ele>536.2</ele><time>2026-04-11T13:31:48.495Z</time></trkpt><trkpt lat="44.4047106" lon="10.840893"><ele>536.4000000000001</ele><time>2026-04-11T13:31:49.489Z</time></trkpt><trkpt lat="44.4046961" lon="10.8407647"><ele>536.6</ele><time>2026-04-11T13:31:50.479Z</time></trkpt><trkpt lat="44.4046913" lon="10.8406325"><ele>536.8000000000001</ele><time>2026-04-11T13:31:51.47Z</time></trkpt><trkpt lat="44.4046844" lon="10.8404991"><ele>537.0</ele><time>2026-04-11T13:31:52.487Z</time></trkpt><trkpt lat="44.404679" lon="10.8403669"><ele>537.0</ele><time>2026-04-11T13:31:53.493Z</time></trkpt><trkpt lat="44.4046747" lon="10.8402336"><ele>537.0</ele><time>2026-04-11T13:31:54.492Z</time></trkpt><trkpt lat="44.4046716" lon="10.8401064"><ele>537.0</ele><time>2026-04-11T13:31:55.474Z</time></trkpt><trkpt lat="44.404662" lon="10.8399903"><ele>537.0</ele><time>2026-04-11T13:31:56.472Z</time></trkpt><trkpt lat="44.4046381" lon="10.8398909"><ele>537.0</ele><time>2026-04-11T13:31:57.488Z</time></trkpt><trkpt lat="44.4045909" lon="10.8398243"><ele>537.0</ele><time>2026-04-11T13:31:58.49Z</time></trkpt><trkpt lat="44.4045259" lon="10.8398065"><ele>533.5</ele><time>2026-04-11T13:31:59.487Z</time></trkpt><trkpt lat="44.4044591" lon="10.8398406"><ele>530.0</ele><time>2026-04-11T13:32:00.482Z</time></trkpt><trkpt lat="44.404405" lon="10.8399141"><ele>526.5</ele><time>2026-04-11T13:32:01.449Z</time></trkpt><trkpt lat="44.404366" lon="10.8400202"><ele>523.0</ele><time>2026-04-11T13:32:02.497Z</time></trkpt><trkpt lat="44.4043338" lon="10.8401461"><ele>519.5</ele><time>2026-04-11T13:32:03.489Z</time></trkpt><trkpt lat="44.4043034" lon="10.8402845"><ele>516.0</ele><time>2026-04-11T13:32:04.497Z</time></trkpt><trkpt lat="44.4042719" lon="10.8404221"><ele>516.0</ele><time>2026-04-11T13:32:05.477Z</time></trkpt><trkpt lat="44.4042392" lon="10.8405576"><ele>516.0</ele><time>2026-04-11T13:32:06.496Z</time></trkpt><trkpt lat="44.4042119" lon="10.8406972"><ele>516.0</ele><time>2026-04-11T13:32:07.493Z</time></trkpt><trkpt lat="44.4041942" lon="10.840839"><ele>516.0</ele><time>2026-04-11T13:32:08.491Z</time></trkpt><trkpt lat="44.4041819" lon="10.8409807"><ele>516.0</ele><time>2026-04-11T13:32:09.473Z</time></trkpt><trkpt lat="44.4041708" lon="10.84112"><ele>516.2</ele><time>2026-04-11T13:32:10.494Z</time></trkpt><trkpt lat="44.4041602" lon="10.8412491"><ele>516.4000000000001</ele><time>2026-04-11T13:32:11.491Z</time></trkpt><trkpt lat="44.4041389" lon="10.8413531"><ele>516.6</ele><time>2026-04-11T13:32:12.494Z</time></trkpt><trkpt lat="44.4041027" lon="10.8414259"><ele>516.8000000000001</ele><time>2026-04-11T13:32:13.455Z</time></trkpt><trkpt lat="44.4040056" lon="10.8415139"><ele>517.0</ele><time>2026-04-11T13:32:15.479Z</time></trkpt><trkpt lat="44.4039236" lon="10.8416154"><ele>517.0</ele><time>2026-04-11T13:32:17.465Z</time></trkpt><trkpt lat="44.4038359" lon="10.8417747"><ele>517.0</ele><time>2026-04-11T13:32:19.537Z</time></trkpt><trkpt lat="44.4037862" lon="10.8418792"><ele>517.0</ele><time>2026-04-11T13:32:20.51Z</time></trkpt><trkpt lat="44.4037429" lon="10.8419844"><ele>517.0</ele><time>2026-04-11T13:32:21.484Z</time></trkpt><trkpt lat="44.4037049" lon="10.8420798"><ele>517.0</ele><time>2026-04-11T13:32:22.486Z</time></trkpt><trkpt lat="44.4036694" lon="10.8421722"><ele>514.5714285714286</ele><time>2026-04-11T13:32:23.492Z</time></trkpt><trkpt lat="44.4036358" lon="10.842262"><ele>512.1428571428572</ele><time>2026-04-11T13:32:24.467Z</time></trkpt><trkpt lat="44.4035994" lon="10.8423543"><ele>509.7142857142857</ele><time>2026-04-11T13:32:25.498Z</time></trkpt><trkpt lat="44.4035588" lon="10.8424405"><ele>507.28571428571433</ele><time>2026-04-11T13:32:26.482Z</time></trkpt><trkpt lat="44.4035112" lon="10.8425131"><ele>504.8571428571429</ele><time>2026-04-11T13:32:27.48Z</time></trkpt><trkpt lat="44.4034578" lon="10.8425757"><ele>502.42857142857144</ele><time>2026-04-11T13:32:28.499Z</time></trkpt><trkpt lat="44.4033973" lon="10.8426308"><ele>500.0</ele><time>2026-04-11T13:32:29.488Z</time></trkpt><trkpt lat="44.4033298" lon="10.8426861"><ele>499.49999999999994</ele><time>2026-04-11T13:32:30.489Z</time></trkpt><trkpt lat="44.4032655" lon="10.8427526"><ele>499.0</ele><time>2026-04-11T13:32:31.428Z</time></trkpt><trkpt lat="44.4032081" lon="10.8428404"><ele>498.5</ele><time>2026-04-11T13:32:32.464Z</time></trkpt><trkpt lat="44.4031659" lon="10.8429432"><ele>498.0</ele><time>2026-04-11T13:32:33.487Z</time></trkpt><trkpt lat="44.4031375" lon="10.8430513"><ele>497.49999999999994</ele><time>2026-04-11T13:32:34.503Z</time></trkpt><trkpt lat="44.4031233" lon="10.8431593"><ele>497.0</ele><time>2026-04-11T13:32:35.49Z</time></trkpt><trkpt lat="44.4031242" lon="10.8432683"><ele>497.0</ele><time>2026-04-11T13:32:36.491Z</time></trkpt><trkpt lat="44.4031333" lon="10.8433774"><ele>497.00000000000006</ele><time>2026-04-11T13:32:37.497Z</time></trkpt><trkpt lat="44.4031474" lon="10.8434728"><ele>497.00000000000006</ele><time>2026-04-11T13:32:38.489Z</time></trkpt><trkpt lat="44.4031848" lon="10.8436409"><ele>497.0</ele><time>2026-04-11T13:32:40.484Z</time></trkpt><trkpt lat="44.4032196" lon="10.8437299"><ele>497.0</ele><time>2026-04-11T13:32:41.541Z</time></trkpt><trkpt lat="44.4032968" lon="10.8439218"><ele>496.2857142857143</ele><time>2026-04-11T13:32:43.424Z</time></trkpt><trkpt lat="44.4033362" lon="10.8440085"><ele>495.57142857142856</ele><time>2026-04-11T13:32:44.471Z</time></trkpt><trkpt lat="44.4033623" lon="10.8440943"><ele>494.8571428571429</ele><time>2026-04-11T13:32:45.501Z</time></trkpt><trkpt lat="44.4033656" lon="10.8441883"><ele>494.14285714285717</ele><time>2026-04-11T13:32:46.497Z</time></trkpt><trkpt lat="44.403357" lon="10.8442867"><ele>493.42857142857144</ele><time>2026-04-11T13:32:47.462Z</time></trkpt><trkpt lat="44.4033433" lon="10.8443915"><ele>492.7142857142858</ele><time>2026-04-11T13:32:48.471Z</time></trkpt><trkpt lat="44.4033213" lon="10.844493"><ele>492.00000000000006</ele><time>2026-04-11T13:32:49.474Z</time></trkpt><trkpt lat="44.4032915" lon="10.8445961"><ele>491.5</ele><time>2026-04-11T13:32:50.449Z</time></trkpt><trkpt lat="44.4032521" lon="10.8446922"><ele>491.0</ele><time>2026-04-11T13:32:51.48Z</time></trkpt><trkpt lat="44.403203" lon="10.8447818"><ele>490.5</ele><time>2026-04-11T13:32:52.503Z</time></trkpt><trkpt lat="44.4031516" lon="10.8448693"><ele>490.0</ele><time>2026-04-11T13:32:53.465Z</time></trkpt><trkpt lat="44.4031001" lon="10.8449609"><ele>489.5</ele><time>2026-04-11T13:32:54.482Z</time></trkpt><trkpt lat="44.4030516" lon="10.8450573"><ele>489.0</ele><time>2026-04-11T13:32:55.497Z</time></trkpt><trkpt lat="44.4030072" lon="10.8451516"><ele>486.6666666666667</ele><time>2026-04-11T13:32:56.466Z</time></trkpt><trkpt lat="44.4029719" lon="10.8452441"><ele>484.33333333333337</ele><time>2026-04-11T13:32:57.474Z</time></trkpt><trkpt lat="44.4029495" lon="10.8453421"><ele>482.0</ele><time>2026-04-11T13:32:58.532Z</time></trkpt><trkpt lat="44.4029428" lon="10.8454489"><ele>479.6666666666667</ele><time>2026-04-11T13:32:59.479Z</time></trkpt><trkpt lat="44.4029495" lon="10.8455719"><ele>477.33333333333337</ele><time>2026-04-11T13:33:00.451Z</time></trkpt><trkpt lat="44.402959" lon="10.8456985"><ele>475.0</ele><time>2026-04-11T13:33:01.459Z</time></trkpt><trkpt lat="44.4029627" lon="10.8458199"><ele>475.00000000000006</ele><time>2026-04-11T13:33:02.464Z</time></trkpt><trkpt lat="44.4029552" lon="10.8459301"><ele>475.0</ele><time>2026-04-11T13:33:03.436Z</time></trkpt><trkpt lat="44.4029361" lon="10.8460341"><ele>475.0</ele><time>2026-04-11T13:33:04.475Z</time></trkpt><trkpt lat="44.4029046" lon="10.8461332"><ele>475.0</ele><time>2026-04-11T13:33:05.466Z</time></trkpt><trkpt lat="44.4028649" lon="10.8462265"><ele>475.00000000000006</ele><time>2026-04-11T13:33:06.498Z</time></trkpt><trkpt lat="44.402817" lon="10.8463243"><ele>475.0</ele><time>2026-04-11T13:33:07.428Z</time></trkpt><trkpt lat="44.4027665" lon="10.8464187"><ele>474.6666666666667</ele><time>2026-04-11T13:33:08.489Z</time></trkpt><trkpt lat="44.4027153" lon="10.846515"><ele>474.33333333333337</ele><time>2026-04-11T13:33:09.472Z</time></trkpt><trkpt lat="44.4026645" lon="10.8466079"><ele>474.0</ele><time>2026-04-11T13:33:10.491Z</time></trkpt><trkpt lat="44.402613" lon="10.8466996"><ele>473.66666666666663</ele><time>2026-04-11T13:33:11.475Z</time></trkpt><trkpt lat="44.4025635" lon="10.8467873"><ele>473.3333333333333</ele><time>2026-04-11T13:33:12.473Z</time></trkpt><trkpt lat="44.402508" lon="10.8468667"><ele>473.0</ele><time>2026-04-11T13:33:13.497Z</time></trkpt><trkpt lat="44.4024486" lon="10.8469389"><ele>473.0</ele><time>2026-04-11T13:33:14.466Z</time></trkpt><trkpt lat="44.4023892" lon="10.8470081"><ele>473.0</ele><time>2026-04-11T13:33:15.48Z</time></trkpt><trkpt lat="44.402328" lon="10.847079"><ele>473.0</ele><time>2026-04-11T13:33:16.483Z</time></trkpt><trkpt lat="44.4022708" lon="10.8471482"><ele>473.0</ele><time>2026-04-11T13:33:17.492Z</time></trkpt><trkpt lat="44.4022255" lon="10.8472203"><ele>473.0</ele><time>2026-04-11T13:33:18.483Z</time></trkpt><trkpt lat="44.4021968" lon="10.8473034"><ele>473.0</ele><time>2026-04-11T13:33:19.505Z</time></trkpt><trkpt lat="44.4021768" lon="10.8473958"><ele>473.0</ele><time>2026-04-11T13:33:20.447Z</time></trkpt><trkpt lat="44.4021646" lon="10.8475053"><ele>470.66666666666663</ele><time>2026-04-11T13:33:21.529Z</time></trkpt><trkpt lat="44.4021569" lon="10.8476217"><ele>468.3333333333333</ele><time>2026-04-11T13:33:22.504Z</time></trkpt><trkpt lat="44.4021512" lon="10.8477399"><ele>466.0</ele><time>2026-04-11T13:33:23.492Z</time></trkpt><trkpt lat="44.4021457" lon="10.8478484"><ele>463.66666666666663</ele><time>2026-04-11T13:33:24.478Z</time></trkpt><trkpt lat="44.4021301" lon="10.8479493"><ele>461.3333333333333</ele><time>2026-04-11T13:33:25.499Z</time></trkpt><trkpt lat="44.4020991" lon="10.8480411"><ele>459.0</ele><time>2026-04-11T13:33:26.481Z</time></trkpt><trkpt lat="44.4020514" lon="10.8481203"><ele>459.0</ele><time>2026-04-11T13:33:27.474Z</time></trkpt><trkpt lat="44.4020055" lon="10.8481951"><ele>459.0</ele><time>2026-04-11T13:33:28.483Z</time></trkpt><trkpt lat="44.4019462" lon="10.8482493"><ele>459.0</ele><time>2026-04-11T13:33:29.468Z</time></trkpt><trkpt lat="44.4018861" lon="10.8483059"><ele>459.0</ele><time>2026-04-11T13:33:30.464Z</time></trkpt><trkpt lat="44.4018266" lon="10.8483703"><ele>459.0</ele><time>2026-04-11T13:33:31.482Z</time></trkpt><trkpt lat="44.4017731" lon="10.848436"><ele>459.0</ele><time>2026-04-11T13:33:32.474Z</time></trkpt><trkpt lat="44.4017258" lon="10.8485066"><ele>459.0</ele><time>2026-04-11T13:33:33.475Z</time></trkpt><trkpt lat="44.4016819" lon="10.848585"><ele>459.2</ele><time>2026-04-11T13:33:34.453Z</time></trkpt><trkpt lat="44.4016459" lon="10.8486655"><ele>459.4</ele><time>2026-04-11T13:33:35.469Z</time></trkpt><trkpt lat="44.4016065" lon="10.8487374"><ele>459.6</ele><time>2026-04-11T13:33:36.492Z</time></trkpt><trkpt lat="44.4015299" lon="10.8488752"><ele>459.8</ele><time>2026-04-11T13:33:38.458Z</time></trkpt><trkpt lat="44.4014618" lon="10.8490263"><ele>460.0</ele><time>2026-04-11T13:33:40.464Z</time></trkpt><trkpt lat="44.4014342" lon="10.8491169"><ele>460.0</ele><time>2026-04-11T13:33:41.478Z</time></trkpt><trkpt lat="44.4014012" lon="10.8492232"><ele>460.0</ele><time>2026-04-11T13:33:42.497Z</time></trkpt><trkpt lat="44.4013679" lon="10.8493402"><ele>460.0</ele><time>2026-04-11T13:33:43.466Z</time></trkpt><trkpt lat="44.4013369" lon="10.8494601"><ele>460.0</ele><time>2026-04-11T13:33:44.483Z</time></trkpt><trkpt lat="44.4013007" lon="10.849586"><ele>460.0</ele><time>2026-04-11T13:33:45.49Z</time></trkpt><trkpt lat="44.401261" lon="10.8497111"><ele>456.6</ele><time>2026-04-11T13:33:46.487Z</time></trkpt><trkpt lat="44.4012203" lon="10.8498396"><ele>453.2</ele><time>2026-04-11T13:33:47.492Z</time></trkpt><trkpt lat="44.4011824" lon="10.8499638"><ele>449.79999999999995</ele><time>2026-04-11T13:33:48.463Z</time></trkpt><trkpt lat="44.4011445" lon="10.8500878"><ele>446.4</ele><time>2026-04-11T13:33:49.472Z</time></trkpt><trkpt lat="44.4011043" lon="10.8502083"><ele>443.0</ele><time>2026-04-11T13:33:50.531Z</time></trkpt><trkpt lat="44.4010607" lon="10.850323"><ele>443.0</ele><time>2026-04-11T13:33:51.479Z</time></trkpt><trkpt lat="44.4010171" lon="10.8504399"><ele>442.99999999999994</ele><time>2026-04-11T13:33:52.49Z</time></trkpt><trkpt lat="44.400975" lon="10.850557"><ele>442.99999999999994</ele><time>2026-04-11T13:33:53.503Z</time></trkpt><trkpt lat="44.4009366" lon="10.8506732"><ele>443.0</ele><time>2026-04-11T13:33:54.491Z</time></trkpt><trkpt lat="44.4008949" lon="10.8507899"><ele>443.0</ele><time>2026-04-11T13:33:55.496Z</time></trkpt><trkpt lat="44.4008515" lon="10.8509044"><ele>442.99999999999994</ele><time>2026-04-11T13:33:56.528Z</time></trkpt><trkpt lat="44.4008076" lon="10.8510155"><ele>443.0</ele><time>2026-04-11T13:33:57.477Z</time></trkpt><trkpt lat="44.4007705" lon="10.8511267"><ele>443.0</ele><time>2026-04-11T13:33:58.479Z</time></trkpt><trkpt lat="44.4007461" lon="10.8512439"><ele>443.0</ele><time>2026-04-11T13:33:59.456Z</time></trkpt><trkpt lat="44.4007341" lon="10.8513646"><ele>442.99999999999994</ele><time>2026-04-11T13:34:00.502Z</time></trkpt><trkpt lat="44.4007283" lon="10.8514874"><ele>443.0</ele><time>2026-04-11T13:34:01.492Z</time></trkpt><trkpt lat="44.4007246" lon="10.8516146"><ele>443.0</ele><time>2026-04-11T13:34:02.536Z</time></trkpt><trkpt lat="44.4007169" lon="10.8517479"><ele>442.99999999999994</ele><time>2026-04-11T13:34:03.492Z</time></trkpt><trkpt lat="44.4007063" lon="10.8518795"><ele>442.99999999999994</ele><time>2026-04-11T13:34:04.483Z</time></trkpt><trkpt lat="44.4006915" lon="10.8520086"><ele>443.0</ele><time>2026-04-11T13:34:05.482Z</time></trkpt><trkpt lat="44.400669" lon="10.8521337"><ele>443.0</ele><time>2026-04-11T13:34:06.486Z</time></trkpt><trkpt lat="44.4006369" lon="10.8522533"><ele>442.66666666666663</ele><time>2026-04-11T13:34:07.488Z</time></trkpt><trkpt lat="44.4006025" lon="10.8523707"><ele>442.3333333333333</ele><time>2026-04-11T13:34:08.464Z</time></trkpt><trkpt lat="44.4005708" lon="10.8524833"><ele>442.0</ele><time>2026-04-11T13:34:09.481Z</time></trkpt><trkpt lat="44.4005368" lon="10.8525811"><ele>441.66666666666663</ele><time>2026-04-11T13:34:10.496Z</time></trkpt><trkpt lat="44.4004909" lon="10.8526641"><ele>441.3333333333333</ele><time>2026-04-11T13:34:11.455Z</time></trkpt><trkpt lat="44.4004306" lon="10.8527247"><ele>441.0</ele><time>2026-04-11T13:34:12.478Z</time></trkpt><trkpt lat="44.4003578" lon="10.8527619"><ele>438.6666666666667</ele><time>2026-04-11T13:34:13.484Z</time></trkpt><trkpt lat="44.4002682" lon="10.852788"><ele>436.33333333333337</ele><time>2026-04-11T13:34:14.486Z</time></trkpt><trkpt lat="44.400179" lon="10.8528147"><ele>434.0</ele><time>2026-04-11T13:34:15.501Z</time></trkpt><trkpt lat="44.4000934" lon="10.8528513"><ele>431.6666666666667</ele><time>2026-04-11T13:34:16.498Z</time></trkpt><trkpt lat="44.4000165" lon="10.8529061"><ele>429.33333333333337</ele><time>2026-04-11T13:34:17.448Z</time></trkpt><trkpt lat="44.3999496" lon="10.8529809"><ele>427.0</ele><time>2026-04-11T13:34:18.493Z</time></trkpt><trkpt lat="44.3998924" lon="10.8530766"><ele>427.0</ele><time>2026-04-11T13:34:19.485Z</time></trkpt><trkpt lat="44.3998426" lon="10.8531896"><ele>427.00000000000006</ele><time>2026-04-11T13:34:20.48Z</time></trkpt><trkpt lat="44.3997906" lon="10.853308"><ele>427.00000000000006</ele><time>2026-04-11T13:34:21.493Z</time></trkpt><trkpt lat="44.3997477" lon="10.8534382"><ele>427.0</ele><time>2026-04-11T13:34:22.487Z</time></trkpt><trkpt lat="44.3997095" lon="10.853563"><ele>427.0</ele><time>2026-04-11T13:34:23.486Z</time></trkpt><trkpt lat="44.3996705" lon="10.8536868"><ele>424.20000000000005</ele><time>2026-04-11T13:34:24.49Z</time></trkpt><trkpt lat="44.3996327" lon="10.853812"><ele>421.40000000000003</ele><time>2026-04-11T13:34:25.534Z</time></trkpt><trkpt lat="44.399597" lon="10.8539428"><ele>418.6</ele><time>2026-04-11T13:34:26.466Z</time></trkpt><trkpt lat="44.3995594" lon="10.854063"><ele>415.79999999999995</ele><time>2026-04-11T13:34:27.492Z</time></trkpt><trkpt lat="44.3995234" lon="10.8541687"><ele>413.0</ele><time>2026-04-11T13:34:28.471Z</time></trkpt><trkpt lat="44.3994833" lon="10.8542658"><ele>412.8333333333333</ele><time>2026-04-11T13:34:29.495Z</time></trkpt><trkpt lat="44.3994368" lon="10.8543555"><ele>412.66666666666663</ele><time>2026-04-11T13:34:30.489Z</time></trkpt><trkpt lat="44.3993848" lon="10.8544331"><ele>412.5</ele><time>2026-04-11T13:34:31.519Z</time></trkpt><trkpt lat="44.399326" lon="10.8544986"><ele>412.33333333333337</ele><time>2026-04-11T13:34:32.491Z</time></trkpt><trkpt lat="44.3992607" lon="10.8545449"><ele>412.1666666666667</ele><time>2026-04-11T13:34:33.457Z</time></trkpt><trkpt lat="44.3991928" lon="10.8545894"><ele>412.0</ele><time>2026-04-11T13:34:34.468Z</time></trkpt><trkpt lat="44.3991192" lon="10.8546373"><ele>412.00000000000006</ele><time>2026-04-11T13:34:35.479Z</time></trkpt><trkpt lat="44.3990399" lon="10.8546981"><ele>412.0</ele><time>2026-04-11T13:34:36.491Z</time></trkpt><trkpt lat="44.3989634" lon="10.8547688"><ele>412.0</ele><time>2026-04-11T13:34:37.476Z</time></trkpt><trkpt lat="44.3988911" lon="10.854844"><ele>412.0</ele><time>2026-04-11T13:34:38.475Z</time></trkpt><trkpt lat="44.3988227" lon="10.854925"><ele>412.00000000000006</ele><time>2026-04-11T13:34:39.49Z</time></trkpt><trkpt lat="44.3987633" lon="10.8550144"><ele>412.0</ele><time>2026-04-11T13:34:40.482Z</time></trkpt><trkpt lat="44.3987127" lon="10.8551131"><ele>410.0</ele><time>2026-04-11T13:34:41.435Z</time></trkpt><trkpt lat="44.3986696" lon="10.8552193"><ele>408.0</ele><time>2026-04-11T13:34:42.42Z</time></trkpt><trkpt lat="44.3986342" lon="10.8553338"><ele>406.0</ele><time>2026-04-11T13:34:43.433Z</time></trkpt><trkpt lat="44.3986008" lon="10.8554647"><ele>404.0</ele><time>2026-04-11T13:34:44.428Z</time></trkpt><trkpt lat="44.3985673" lon="10.8555988"><ele>402.0</ele><time>2026-04-11T13:34:45.433Z</time></trkpt><trkpt lat="44.3985317" lon="10.8557289"><ele>402.0</ele><time>2026-04-11T13:34:46.435Z</time></trkpt><trkpt lat="44.3984922" lon="10.8558523"><ele>402.0</ele><time>2026-04-11T13:34:47.471Z</time></trkpt><trkpt lat="44.3984546" lon="10.8559674"><ele>402.0</ele><time>2026-04-11T13:34:48.456Z</time></trkpt><trkpt lat="44.398417" lon="10.85608"><ele>402.0</ele><time>2026-04-11T13:34:49.491Z</time></trkpt><trkpt lat="44.3983782" lon="10.8561891"><ele>402.0</ele><time>2026-04-11T13:34:50.475Z</time></trkpt><trkpt lat="44.3983391" lon="10.8562952"><ele>402.0</ele><time>2026-04-11T13:34:51.477Z</time></trkpt><trkpt lat="44.3982945" lon="10.8563975"><ele>402.0</ele><time>2026-04-11T13:34:52.473Z</time></trkpt><trkpt lat="44.3982409" lon="10.8564897"><ele>402.0</ele><time>2026-04-11T13:34:53.454Z</time></trkpt><trkpt lat="44.3981816" lon="10.8565755"><ele>402.0</ele><time>2026-04-11T13:34:54.446Z</time></trkpt><trkpt lat="44.3981218" lon="10.8566588"><ele>402.0</ele><time>2026-04-11T13:34:55.486Z</time></trkpt><trkpt lat="44.3980598" lon="10.85674"><ele>402.0</ele><time>2026-04-11T13:34:56.465Z</time></trkpt><trkpt lat="44.3979936" lon="10.8568167"><ele>402.0</ele><time>2026-04-11T13:34:57.489Z</time></trkpt><trkpt lat="44.3979243" lon="10.8568882"><ele>399.1666666666667</ele><time>2026-04-11T13:34:58.483Z</time></trkpt><trkpt lat="44.3978583" lon="10.856954"><ele>396.33333333333337</ele><time>2026-04-11T13:34:59.492Z</time></trkpt><trkpt lat="44.3978033" lon="10.85701"><ele>393.5</ele><time>2026-04-11T13:35:00.458Z</time></trkpt><trkpt lat="44.3977251" lon="10.8570909"><ele>390.6666666666667</ele><time>2026-04-11T13:35:02.468Z</time></trkpt><trkpt lat="44.3976709" lon="10.8571429"><ele>387.83333333333337</ele><time>2026-04-11T13:35:04.467Z</time></trkpt><trkpt lat="44.3976029" lon="10.8572147"><ele>385.0</ele><time>2026-04-11T13:35:29.506Z</time></trkpt><trkpt lat="44.3975486" lon="10.8573391"><ele>385.00000000000006</ele><time>2026-04-11T13:35:32.442Z</time></trkpt><trkpt lat="44.3975136" lon="10.8574166"><ele>385.0</ele><time>2026-04-11T13:35:33.496Z</time></trkpt><trkpt lat="44.3974656" lon="10.8575206"><ele>385.0</ele><time>2026-04-11T13:35:34.483Z</time></trkpt><trkpt lat="44.3974102" lon="10.8576371"><ele>385.0</ele><time>2026-04-11T13:35:35.435Z</time></trkpt><trkpt lat="44.3973603" lon="10.8577493"><ele>385.00000000000006</ele><time>2026-04-11T13:35:36.486Z</time></trkpt><trkpt lat="44.3973136" lon="10.8578579"><ele>385.0</ele><time>2026-04-11T13:35:37.49Z</time></trkpt><trkpt lat="44.3972699" lon="10.8579621"><ele>384.4</ele><time>2026-04-11T13:35:38.485Z</time></trkpt><trkpt lat="44.3972294" lon="10.8580578"><ele>383.8</ele><time>2026-04-11T13:35:39.473Z</time></trkpt><trkpt lat="44.3971734" lon="10.8582073"><ele>383.20000000000005</ele><time>2026-04-11T13:35:41.474Z</time></trkpt><trkpt lat="44.3971946" lon="10.858389"><ele>382.6</ele><time>2026-04-11T13:35:43.425Z</time></trkpt><trkpt lat="44.3972104" lon="10.8585013"><ele>382.0</ele><time>2026-04-11T13:35:44.46Z</time></trkpt><trkpt lat="44.3972187" lon="10.858611"><ele>382.0</ele><time>2026-04-11T13:35:45.472Z</time></trkpt><trkpt lat="44.3972128" lon="10.8587191"><ele>382.0</ele><time>2026-04-11T13:35:46.46Z</time></trkpt><trkpt lat="44.3972044" lon="10.8588302"><ele>382.0</ele><time>2026-04-11T13:35:47.471Z</time></trkpt><trkpt lat="44.3971748" lon="10.8589406"><ele>382.0</ele><time>2026-04-11T13:35:48.463Z</time></trkpt><trkpt lat="44.3971513" lon="10.8590482"><ele>382.0</ele><time>2026-04-11T13:35:49.473Z</time></trkpt><trkpt lat="44.3971308" lon="10.859171"><ele>382.0</ele><time>2026-04-11T13:35:50.446Z</time></trkpt><trkpt lat="44.3971262" lon="10.8592828"><ele>381.42857142857144</ele><time>2026-04-11T13:35:51.469Z</time></trkpt><trkpt lat="44.3971413" lon="10.8593843"><ele>380.85714285714283</ele><time>2026-04-11T13:35:52.462Z</time></trkpt><trkpt lat="44.3971655" lon="10.8594688"><ele>380.2857142857143</ele><time>2026-04-11T13:35:53.47Z</time></trkpt><trkpt lat="44.3971928" lon="10.8595567"><ele>379.7142857142857</ele><time>2026-04-11T13:35:54.472Z</time></trkpt><trkpt lat="44.3972232" lon="10.8596478"><ele>379.1428571428571</ele><time>2026-04-11T13:35:55.462Z</time></trkpt><trkpt lat="44.3972571" lon="10.859748"><ele>378.57142857142856</ele><time>2026-04-11T13:35:56.473Z</time></trkpt><trkpt lat="44.3972902" lon="10.8598504"><ele>378.0</ele><time>2026-04-11T13:35:57.473Z</time></trkpt><trkpt lat="44.397327" lon="10.8599429"><ele>378.0</ele><time>2026-04-11T13:35:58.477Z</time></trkpt><trkpt lat="44.3973756" lon="10.8600229"><ele>378.0</ele><time>2026-04-11T13:35:59.472Z</time></trkpt><trkpt lat="44.3974323" lon="10.8600845"><ele>378.0</ele><time>2026-04-11T13:36:00.459Z</time></trkpt><trkpt lat="44.397491" lon="10.8601344"><ele>378.0</ele><time>2026-04-11T13:36:01.479Z</time></trkpt><trkpt lat="44.3975494" lon="10.8601822"><ele>378.0</ele><time>2026-04-11T13:36:02.501Z</time></trkpt><trkpt lat="44.3975993" lon="10.8602401"><ele>378.0</ele><time>2026-04-11T13:36:03.487Z</time></trkpt><trkpt lat="44.3976586" lon="10.860393"><ele>379.1666666666667</ele><time>2026-04-11T13:36:05.461Z</time></trkpt><trkpt lat="44.3976828" lon="10.8604776"><ele>380.33333333333337</ele><time>2026-04-11T13:36:06.447Z</time></trkpt><trkpt lat="44.3977027" lon="10.8605662"><ele>381.5</ele><time>2026-04-11T13:36:07.484Z</time></trkpt><trkpt lat="44.3977411" lon="10.8606604"><ele>382.6666666666667</ele><time>2026-04-11T13:36:08.468Z</time></trkpt><trkpt lat="44.3977908" lon="10.8607658"><ele>383.83333333333337</ele><time>2026-04-11T13:36:09.471Z</time></trkpt><trkpt lat="44.397839" lon="10.8608757"><ele>385.0</ele><time>2026-04-11T13:36:10.474Z</time></trkpt><trkpt lat="44.3978759" lon="10.8609888"><ele>385.1666666666667</ele><time>2026-04-11T13:36:11.468Z</time></trkpt><trkpt lat="44.3978988" lon="10.8610971"><ele>385.33333333333337</ele><time>2026-04-11T13:36:12.487Z</time></trkpt><trkpt lat="44.3979121" lon="10.8612127"><ele>385.5</ele><time>2026-04-11T13:36:13.481Z</time></trkpt><trkpt lat="44.3979244" lon="10.8613278"><ele>385.66666666666663</ele><time>2026-04-11T13:36:14.486Z</time></trkpt><trkpt lat="44.3979354" lon="10.8614486"><ele>385.8333333333333</ele><time>2026-04-11T13:36:15.474Z</time></trkpt><trkpt lat="44.3979487" lon="10.8615594"><ele>386.0</ele><time>2026-04-11T13:36:16.477Z</time></trkpt><trkpt lat="44.3979746" lon="10.8616561"><ele>383.49999999999994</ele><time>2026-04-11T13:36:17.484Z</time></trkpt><trkpt lat="44.3980018" lon="10.8617526"><ele>381.0</ele><time>2026-04-11T13:36:18.478Z</time></trkpt><trkpt lat="44.3980708" lon="10.8618282"><ele>378.5</ele><time>2026-04-11T13:36:19.462Z</time></trkpt><trkpt lat="44.3981293" lon="10.8619007"><ele>376.0</ele><time>2026-04-11T13:36:20.485Z</time></trkpt><trkpt lat="44.3981902" lon="10.8619785"><ele>373.5</ele><time>2026-04-11T13:36:21.463Z</time></trkpt><trkpt lat="44.3982387" lon="10.8620936"><ele>371.0</ele><time>2026-04-11T13:36:22.486Z</time></trkpt><trkpt lat="44.3982886" lon="10.8622147"><ele>371.1666666666667</ele><time>2026-04-11T13:36:23.482Z</time></trkpt><trkpt lat="44.3983355" lon="10.8623276"><ele>371.33333333333337</ele><time>2026-04-11T13:36:24.48Z</time></trkpt><trkpt lat="44.3983887" lon="10.8624351"><ele>371.5</ele><time>2026-04-11T13:36:25.476Z</time></trkpt><trkpt lat="44.3984483" lon="10.8625372"><ele>371.6666666666667</ele><time>2026-04-11T13:36:26.484Z</time></trkpt><trkpt lat="44.3985011" lon="10.8626316"><ele>371.8333333333333</ele><time>2026-04-11T13:36:27.477Z</time></trkpt><trkpt lat="44.39854" lon="10.8627289"><ele>372.0</ele><time>2026-04-11T13:36:28.482Z</time></trkpt><trkpt lat="44.3985646" lon="10.8628328"><ele>372.0</ele><time>2026-04-11T13:36:29.481Z</time></trkpt><trkpt lat="44.3985784" lon="10.8629422"><ele>372.0</ele><time>2026-04-11T13:36:30.429Z</time></trkpt><trkpt lat="44.398583" lon="10.8630558"><ele>372.0</ele><time>2026-04-11T13:36:31.484Z</time></trkpt><trkpt lat="44.3985803" lon="10.8631627"><ele>372.0</ele><time>2026-04-11T13:36:32.5Z</time></trkpt><trkpt lat="44.3985735" lon="10.8632672"><ele>372.0</ele><time>2026-04-11T13:36:33.447Z</time></trkpt><trkpt lat="44.3985564" lon="10.8633712"><ele>372.0</ele><time>2026-04-11T13:36:34.482Z</time></trkpt><trkpt lat="44.3985361" lon="10.8634726"><ele>372.8333333333333</ele><time>2026-04-11T13:36:35.462Z</time></trkpt><trkpt lat="44.3985222" lon="10.8635719"><ele>373.6666666666667</ele><time>2026-04-11T13:36:36.477Z</time></trkpt><trkpt lat="44.3985178" lon="10.8636694"><ele>374.5</ele><time>2026-04-11T13:36:37.48Z</time></trkpt><trkpt lat="44.3985316" lon="10.8638397"><ele>375.33333333333337</ele><time>2026-04-11T13:36:39.479Z</time></trkpt><trkpt lat="44.3985635" lon="10.863945"><ele>376.1666666666667</ele><time>2026-04-11T13:36:40.486Z</time></trkpt><trkpt lat="44.3986006" lon="10.8640385"><ele>377.0</ele><time>2026-04-11T13:36:41.477Z</time></trkpt><trkpt lat="44.3986469" lon="10.8641355"><ele>377.0</ele><time>2026-04-11T13:36:42.461Z</time></trkpt><trkpt lat="44.3987038" lon="10.8642088"><ele>377.0</ele><time>2026-04-11T13:36:43.49Z</time></trkpt><trkpt lat="44.3987742" lon="10.8642982"><ele>377.0</ele><time>2026-04-11T13:36:44.456Z</time></trkpt><trkpt lat="44.3988448" lon="10.8643871"><ele>377.0</ele><time>2026-04-11T13:36:45.485Z</time></trkpt><trkpt lat="44.3989058" lon="10.8644628"><ele>377.0</ele><time>2026-04-11T13:36:46.475Z</time></trkpt><trkpt lat="44.3989691" lon="10.8645353"><ele>377.0</ele><time>2026-04-11T13:36:47.483Z</time></trkpt><trkpt lat="44.399033" lon="10.8646047"><ele>375.0</ele><time>2026-04-11T13:36:48.47Z</time></trkpt><trkpt lat="44.3990918" lon="10.8646723"><ele>373.0</ele><time>2026-04-11T13:36:49.474Z</time></trkpt><trkpt lat="44.3991484" lon="10.8647401"><ele>371.0</ele><time>2026-04-11T13:36:50.514Z</time></trkpt><trkpt lat="44.3992006" lon="10.8648148"><ele>369.0</ele><time>2026-04-11T13:36:51.479Z</time></trkpt><trkpt lat="44.3992466" lon="10.8648936"><ele>367.0</ele><time>2026-04-11T13:36:52.478Z</time></trkpt><trkpt lat="44.3992881" lon="10.8649806"><ele>365.0</ele><time>2026-04-11T13:36:53.466Z</time></trkpt><trkpt lat="44.3993272" lon="10.8650771"><ele>365.2</ele><time>2026-04-11T13:36:54.472Z</time></trkpt><trkpt lat="44.3993777" lon="10.8651617"><ele>365.4</ele><time>2026-04-11T13:36:55.467Z</time></trkpt><trkpt lat="44.3993924" lon="10.8652899"><ele>365.6</ele><time>2026-04-11T13:36:56.475Z</time></trkpt><trkpt lat="44.3994024" lon="10.8654423"><ele>365.8</ele><time>2026-04-11T13:36:57.476Z</time></trkpt><trkpt lat="44.3994017" lon="10.8656036"><ele>366.0</ele><time>2026-04-11T13:36:58.483Z</time></trkpt><trkpt lat="44.3993969" lon="10.8657639"><ele>366.0</ele><time>2026-04-11T13:36:59.489Z</time></trkpt><trkpt lat="44.3993919" lon="10.8659171"><ele>366.0</ele><time>2026-04-11T13:37:00.498Z</time></trkpt><trkpt lat="44.399388" lon="10.866067"><ele>366.0</ele><time>2026-04-11T13:37:01.498Z</time></trkpt><trkpt lat="44.3993873" lon="10.8662119"><ele>366.0</ele><time>2026-04-11T13:37:02.53Z</time></trkpt><trkpt lat="44.3993869" lon="10.8663535"><ele>366.0</ele><time>2026-04-11T13:37:03.479Z</time></trkpt><trkpt lat="44.3993874" lon="10.8664873"><ele>366.0</ele><time>2026-04-11T13:37:04.468Z</time></trkpt><trkpt lat="44.3993928" lon="10.8666051"><ele>366.0</ele><time>2026-04-11T13:37:05.49Z</time></trkpt><trkpt lat="44.3994024" lon="10.8667177"><ele>366.0</ele><time>2026-04-11T13:37:06.457Z</time></trkpt><trkpt lat="44.3994219" lon="10.8668317"><ele>366.0</ele><time>2026-04-11T13:37:07.485Z</time></trkpt><trkpt lat="44.3994539" lon="10.8669349"><ele>366.0</ele><time>2026-04-11T13:37:08.455Z</time></trkpt><trkpt lat="44.3994909" lon="10.8670171"><ele>366.0</ele><time>2026-04-11T13:37:09.473Z</time></trkpt><trkpt lat="44.3995566" lon="10.8671409"><ele>366.0</ele><time>2026-04-11T13:37:11.486Z</time></trkpt><trkpt lat="44.3996286" lon="10.8672777"><ele>366.0</ele><time>2026-04-11T13:37:13.471Z</time></trkpt><trkpt lat="44.3996679" lon="10.86735"><ele>366.0</ele><time>2026-04-11T13:37:14.478Z</time></trkpt><trkpt lat="44.3997164" lon="10.8674408"><ele>366.0</ele><time>2026-04-11T13:37:15.479Z</time></trkpt><trkpt lat="44.3997622" lon="10.867528"><ele>366.0</ele><time>2026-04-11T13:37:16.475Z</time></trkpt><trkpt lat="44.3998134" lon="10.8676109"><ele>366.0</ele><time>2026-04-11T13:37:17.467Z</time></trkpt><trkpt lat="44.3998619" lon="10.8676894"><ele>364.14285714285717</ele><time>2026-04-11T13:37:18.552Z</time></trkpt><trkpt lat="44.399929" lon="10.8677417"><ele>362.28571428571433</ele><time>2026-04-11T13:37:19.466Z</time></trkpt><trkpt lat="44.4000023" lon="10.8677854"><ele>360.42857142857144</ele><time>2026-04-11T13:37:20.458Z</time></trkpt><trkpt lat="44.4000722" lon="10.8678252"><ele>358.57142857142856</ele><time>2026-04-11T13:37:21.473Z</time></trkpt><trkpt lat="44.400135" lon="10.8678664"><ele>356.7142857142857</ele><time>2026-04-11T13:37:22.485Z</time></trkpt><trkpt lat="44.400191" lon="10.8679208"><ele>354.85714285714283</ele><time>2026-04-11T13:37:23.475Z</time></trkpt><trkpt lat="44.4002414" lon="10.8679964"><ele>353.0</ele><time>2026-04-11T13:37:24.481Z</time></trkpt><trkpt lat="44.4002851" lon="10.8680859"><ele>353.0</ele><time>2026-04-11T13:37:25.482Z</time></trkpt><trkpt lat="44.4003319" lon="10.8681826"><ele>353.0</ele><time>2026-04-11T13:37:26.467Z</time></trkpt><trkpt lat="44.4003786" lon="10.868307"><ele>353.0</ele><time>2026-04-11T13:37:27.47Z</time></trkpt><trkpt lat="44.4004381" lon="10.8684383"><ele>353.0</ele><time>2026-04-11T13:37:28.467Z</time></trkpt><trkpt lat="44.4004973" lon="10.8685654"><ele>353.0</ele><time>2026-04-11T13:37:29.469Z</time></trkpt><trkpt lat="44.4005482" lon="10.8686739"><ele>351.0</ele><time>2026-04-11T13:37:30.462Z</time></trkpt><trkpt lat="44.4005965" lon="10.8687788"><ele>349.0</ele><time>2026-04-11T13:37:31.481Z</time></trkpt><trkpt lat="44.4006404" lon="10.8688661"><ele>347.0</ele><time>2026-04-11T13:37:32.524Z</time></trkpt><trkpt lat="44.4006788" lon="10.8689451"><ele>345.0</ele><time>2026-04-11T13:37:33.47Z</time></trkpt><trkpt lat="44.400716" lon="10.8690162"><ele>343.0</ele><time>2026-04-11T13:37:34.471Z</time></trkpt><trkpt lat="44.4007549" lon="10.8691"><ele>341.0</ele><time>2026-04-11T13:37:35.487Z</time></trkpt><trkpt lat="44.4007943" lon="10.8691931"><ele>339.0</ele><time>2026-04-11T13:37:36.474Z</time></trkpt><trkpt lat="44.4008244" lon="10.8692854"><ele>339.0</ele><time>2026-04-11T13:37:37.497Z</time></trkpt><trkpt lat="44.4008189" lon="10.869435"><ele>339.0</ele><time>2026-04-11T13:37:39.49Z</time></trkpt><trkpt lat="44.4008169" lon="10.869603"><ele>339.0</ele><time>2026-04-11T13:37:41.462Z</time></trkpt><trkpt lat="44.4008319" lon="10.8697375"><ele>339.0</ele><time>2026-04-11T13:37:43.512Z</time></trkpt><trkpt lat="44.4008654" lon="10.8698156"><ele>339.0</ele><time>2026-04-11T13:37:44.482Z</time></trkpt><trkpt lat="44.4009326" lon="10.8699566"><ele>339.0</ele><time>2026-04-11T13:37:46.492Z</time></trkpt><trkpt lat="44.4010036" lon="10.8701013"><ele>339.0</ele><time>2026-04-11T13:37:48.475Z</time></trkpt><trkpt lat="44.4010674" lon="10.8702448"><ele>339.0</ele><time>2026-04-11T13:37:50.483Z</time></trkpt><trkpt lat="44.4010932" lon="10.8703279"><ele>339.0</ele><time>2026-04-11T13:37:51.458Z</time></trkpt><trkpt lat="44.4011174" lon="10.8704804"><ele>339.0</ele><time>2026-04-11T13:37:53.489Z</time></trkpt><trkpt lat="44.4011639" lon="10.8705722"><ele>339.79999999999995</ele><time>2026-04-11T13:37:55.528Z</time></trkpt><trkpt lat="44.401249" lon="10.870673"><ele>340.59999999999997</ele><time>2026-04-11T13:37:57.48Z</time></trkpt><trkpt lat="44.4013336" lon="10.8707663"><ele>341.4</ele><time>2026-04-11T13:37:59.46Z</time></trkpt><trkpt lat="44.4014012" lon="10.8708431"><ele>342.2</ele><time>2026-04-11T13:38:01.485Z</time></trkpt><trkpt lat="44.4014708" lon="10.8709367"><ele>343.0</ele><time>2026-04-11T13:38:03.453Z</time></trkpt><trkpt lat="44.4015258" lon="10.8710763"><ele>340.25</ele><time>2026-04-11T13:38:05.462Z</time></trkpt><trkpt lat="44.4015769" lon="10.8712078"><ele>337.5</ele><time>2026-04-11T13:38:07.449Z</time></trkpt><trkpt lat="44.4016439" lon="10.8713467"><ele>334.75</ele><time>2026-04-11T13:38:09.461Z</time></trkpt><trkpt lat="44.4016967" lon="10.871503"><ele>332.0</ele><time>2026-04-11T13:38:11.477Z</time></trkpt><trkpt lat="44.4017409" lon="10.87163"><ele>332.0</ele><time>2026-04-11T13:38:13.484Z</time></trkpt><trkpt lat="44.4018295" lon="10.8717439"><ele>332.0</ele><time>2026-04-11T13:38:15.469Z</time></trkpt><trkpt lat="44.4019154" lon="10.8717755"><ele>332.0</ele><time>2026-04-11T13:38:17.465Z</time></trkpt><trkpt lat="44.4020207" lon="10.8717957"><ele>332.0</ele><time>2026-04-11T13:38:19.461Z</time></trkpt><trkpt lat="44.4021332" lon="10.8718312"><ele>332.0</ele><time>2026-04-11T13:38:21.469Z</time></trkpt><trkpt lat="44.4022012" lon="10.8718395"><ele>331.8</ele><time>2026-04-11T13:38:22.493Z</time></trkpt><trkpt lat="44.4022678" lon="10.871853"><ele>331.6</ele><time>2026-04-11T13:38:23.485Z</time></trkpt><trkpt lat="44.4023783" lon="10.871916"><ele>331.40000000000003</ele><time>2026-04-11T13:38:25.481Z</time></trkpt><trkpt lat="44.4024446" lon="10.8719827"><ele>331.20000000000005</ele><time>2026-04-11T13:38:27.477Z</time></trkpt><trkpt lat="44.4024851" lon="10.8721837"><ele>331.0</ele><time>2026-04-11T13:38:29.478Z</time></trkpt><trkpt lat="44.4025041" lon="10.8723356"><ele>331.0</ele><time>2026-04-11T13:38:30.485Z</time></trkpt><trkpt lat="44.4025237" lon="10.8724687"><ele>331.0</ele><time>2026-04-11T13:38:31.471Z</time></trkpt><trkpt lat="44.4025463" lon="10.8725855"><ele>331.0</ele><time>2026-04-11T13:38:32.475Z</time></trkpt><trkpt lat="44.4025944" lon="10.8726997"><ele>331.0</ele><time>2026-04-11T13:38:33.486Z</time></trkpt><trkpt lat="44.4026434" lon="10.8728174"><ele>331.0</ele><time>2026-04-11T13:38:34.438Z</time></trkpt><trkpt lat="44.4027132" lon="10.8729289"><ele>332.4</ele><time>2026-04-11T13:38:35.48Z</time></trkpt><trkpt lat="44.402786" lon="10.8730461"><ele>333.8</ele><time>2026-04-11T13:38:36.526Z</time></trkpt><trkpt lat="44.4028621" lon="10.8731614"><ele>335.2</ele><time>2026-04-11T13:38:37.451Z</time></trkpt><trkpt lat="44.4029288" lon="10.8732682"><ele>336.59999999999997</ele><time>2026-04-11T13:38:38.413Z</time></trkpt><trkpt lat="44.4029898" lon="10.8733696"><ele>338.0</ele><time>2026-04-11T13:38:39.463Z</time></trkpt><trkpt lat="44.4030331" lon="10.8734633"><ele>335.2</ele><time>2026-04-11T13:38:40.448Z</time></trkpt><trkpt lat="44.4030738" lon="10.8735463"><ele>332.4</ele><time>2026-04-11T13:38:41.478Z</time></trkpt><trkpt lat="44.403123" lon="10.8737002"><ele>329.59999999999997</ele><time>2026-04-11T13:38:43.477Z</time></trkpt><trkpt lat="44.4031561" lon="10.8737808"><ele>326.79999999999995</ele><time>2026-04-11T13:38:44.485Z</time></trkpt><trkpt lat="44.4032136" lon="10.8739188"><ele>324.0</ele><time>2026-04-11T13:38:46.481Z</time></trkpt><trkpt lat="44.4033072" lon="10.8740329"><ele>324.0</ele><time>2026-04-11T13:38:48.466Z</time></trkpt><trkpt lat="44.4033707" lon="10.8740816"><ele>324.0</ele><time>2026-04-11T13:38:49.471Z</time></trkpt><trkpt lat="44.4034363" lon="10.8741307"><ele>324.0</ele><time>2026-04-11T13:38:50.479Z</time></trkpt><trkpt lat="44.4035054" lon="10.8741836"><ele>324.0</ele><time>2026-04-11T13:38:51.458Z</time></trkpt><trkpt lat="44.4035739" lon="10.8742407"><ele>324.0</ele><time>2026-04-11T13:38:52.479Z</time></trkpt><trkpt lat="44.4036344" lon="10.8743044"><ele>324.0</ele><time>2026-04-11T13:38:53.445Z</time></trkpt><trkpt lat="44.4036864" lon="10.8743634"><ele>324.0</ele><time>2026-04-11T13:38:54.495Z</time></trkpt><trkpt lat="44.4037093" lon="10.8744522"><ele>326.0</ele><time>2026-04-11T13:38:55.512Z</time></trkpt><trkpt lat="44.4037268" lon="10.8745921"><ele>328.0</ele><time>2026-04-11T13:38:57.49Z</time></trkpt><trkpt lat="44.403747" lon="10.8747142"><ele>330.0</ele><time>2026-04-11T13:38:59.471Z</time></trkpt><trkpt lat="44.4038158" lon="10.8748101"><ele>332.0</ele><time>2026-04-11T13:39:01.474Z</time></trkpt><trkpt lat="44.4039132" lon="10.8749257"><ele>334.0</ele><time>2026-04-11T13:39:03.492Z</time></trkpt><trkpt lat="44.4039621" lon="10.8749901"><ele>331.66666666666663</ele><time>2026-04-11T13:39:04.481Z</time></trkpt><trkpt lat="44.4040076" lon="10.8750525"><ele>329.3333333333333</ele><time>2026-04-11T13:39:05.473Z</time></trkpt><trkpt lat="44.4040939" lon="10.8751776"><ele>327.0</ele><time>2026-04-11T13:39:07.499Z</time></trkpt><trkpt lat="44.4041431" lon="10.8752477"><ele>324.6666666666667</ele><time>2026-04-11T13:39:08.454Z</time></trkpt><trkpt lat="44.4041957" lon="10.875317"><ele>322.33333333333337</ele><time>2026-04-11T13:39:09.482Z</time></trkpt><trkpt lat="44.4042471" lon="10.8753853"><ele>320.0</ele><time>2026-04-11T13:39:10.47Z</time></trkpt><trkpt lat="44.4043006" lon="10.8754498"><ele>320.0</ele><time>2026-04-11T13:39:11.49Z</time></trkpt><trkpt lat="44.4043593" lon="10.8755145"><ele>320.0</ele><time>2026-04-11T13:39:12.492Z</time></trkpt><trkpt lat="44.40442" lon="10.8755797"><ele>320.0</ele><time>2026-04-11T13:39:13.504Z</time></trkpt><trkpt lat="44.4044756" lon="10.8756391"><ele>320.0</ele><time>2026-04-11T13:39:14.513Z</time></trkpt><trkpt lat="44.404527" lon="10.87569"><ele>320.0</ele><time>2026-04-11T13:39:15.452Z</time></trkpt><trkpt lat="44.4045847" lon="10.8757509"><ele>320.0</ele><time>2026-04-11T13:39:16.472Z</time></trkpt><trkpt lat="44.4046381" lon="10.8758203"><ele>320.0</ele><time>2026-04-11T13:39:17.476Z</time></trkpt><trkpt lat="44.4046784" lon="10.8758898"><ele>318.1666666666667</ele><time>2026-04-11T13:39:18.475Z</time></trkpt><trkpt lat="44.4047483" lon="10.8760401"><ele>316.33333333333337</ele><time>2026-04-11T13:39:20.47Z</time></trkpt><trkpt lat="44.4047796" lon="10.8761222"><ele>314.5</ele><time>2026-04-11T13:39:21.478Z</time></trkpt><trkpt lat="44.4048208" lon="10.8762082"><ele>312.6666666666667</ele><time>2026-04-11T13:39:22.467Z</time></trkpt><trkpt lat="44.4048634" lon="10.8762923"><ele>310.8333333333333</ele><time>2026-04-11T13:39:23.476Z</time></trkpt><trkpt lat="44.404895" lon="10.8763732"><ele>309.0</ele><time>2026-04-11T13:39:24.462Z</time></trkpt><trkpt lat="44.4049318" lon="10.8764495"><ele>309.0</ele><time>2026-04-11T13:39:25.492Z</time></trkpt><trkpt lat="44.4050124" lon="10.8765668"><ele>309.0</ele><time>2026-04-11T13:39:27.472Z</time></trkpt><trkpt lat="44.4051269" lon="10.8765375"><ele>309.0</ele><time>2026-04-11T13:39:29.472Z</time></trkpt><trkpt lat="44.4052076" lon="10.8765779"><ele>309.0</ele><time>2026-04-11T13:39:31.429Z</time></trkpt><trkpt lat="44.4052706" lon="10.8766783"><ele>309.0</ele><time>2026-04-11T13:39:33.471Z</time></trkpt><trkpt lat="44.4053155" lon="10.8767413"><ele>308.8</ele><time>2026-04-11T13:39:34.517Z</time></trkpt><trkpt lat="44.4054241" lon="10.8768332"><ele>308.59999999999997</ele><time>2026-04-11T13:39:36.481Z</time></trkpt><trkpt lat="44.405522" lon="10.8768694"><ele>308.4</ele><time>2026-04-11T13:39:38.475Z</time></trkpt><trkpt lat="44.4056233" lon="10.8768406"><ele>308.2</ele><time>2026-04-11T13:39:40.493Z</time></trkpt><trkpt lat="44.4057265" lon="10.8768243"><ele>308.0</ele><time>2026-04-11T13:39:42.473Z</time></trkpt><trkpt lat="44.4058452" lon="10.8768265"><ele>308.0</ele><time>2026-04-11T13:39:44.474Z</time></trkpt><trkpt lat="44.4059552" lon="10.87688"><ele>308.0</ele><time>2026-04-11T13:39:46.489Z</time></trkpt><trkpt lat="44.4060395" lon="10.8770056"><ele>308.0</ele><time>2026-04-11T13:39:48.457Z</time></trkpt><trkpt lat="44.4060738" lon="10.877084"><ele>308.0</ele><time>2026-04-11T13:39:49.485Z</time></trkpt><trkpt lat="44.4061056" lon="10.8771667"><ele>308.0</ele><time>2026-04-11T13:39:50.464Z</time></trkpt><trkpt lat="44.4061394" lon="10.8772646"><ele>308.0</ele><time>2026-04-11T13:39:51.521Z</time></trkpt><trkpt lat="44.4061707" lon="10.8773624"><ele>308.0</ele><time>2026-04-11T13:39:52.525Z</time></trkpt><trkpt lat="44.4062011" lon="10.8774525"><ele>308.0</ele><time>2026-04-11T13:39:53.473Z</time></trkpt><trkpt lat="44.406231" lon="10.8775378"><ele>308.0</ele><time>2026-04-11T13:39:54.461Z</time></trkpt><trkpt lat="44.4063032" lon="10.8776382"><ele>308.0</ele><time>2026-04-11T13:39:56.477Z</time></trkpt><trkpt lat="44.4063966" lon="10.8777072"><ele>308.0</ele><time>2026-04-11T13:39:58.48Z</time></trkpt><trkpt lat="44.4064595" lon="10.8777919"><ele>306.2</ele><time>2026-04-11T13:40:00.477Z</time></trkpt><trkpt lat="44.4064447" lon="10.8779211"><ele>304.4</ele><time>2026-04-11T13:40:02.436Z</time></trkpt><trkpt lat="44.406487" lon="10.8780529"><ele>302.59999999999997</ele><time>2026-04-11T13:40:04.472Z</time></trkpt><trkpt lat="44.406543" lon="10.8781674"><ele>300.8</ele><time>2026-04-11T13:40:06.479Z</time></trkpt><trkpt lat="44.4065955" lon="10.8782441"><ele>299.0</ele><time>2026-04-11T13:40:08.463Z</time></trkpt><trkpt lat="44.4066816" lon="10.8782422"><ele>299.0</ele><time>2026-04-11T13:40:11.46Z</time></trkpt><trkpt lat="44.4067471" lon="10.8781595"><ele>299.0</ele><time>2026-04-11T13:40:13.531Z</time></trkpt><trkpt lat="44.4068125" lon="10.8781396"><ele>299.0</ele><time>2026-04-11T13:40:15.476Z</time></trkpt><trkpt lat="44.4068796" lon="10.8782168"><ele>299.0</ele><time>2026-04-11T13:40:17.488Z</time></trkpt><trkpt lat="44.4068823" lon="10.878379"><ele>299.0</ele><time>2026-04-11T13:40:19.489Z</time></trkpt><trkpt lat="44.4068618" lon="10.8784726"><ele>299.0</ele><time>2026-04-11T13:40:20.478Z</time></trkpt><trkpt lat="44.4068352" lon="10.8785757"><ele>301.2</ele><time>2026-04-11T13:40:21.483Z</time></trkpt><trkpt lat="44.406822" lon="10.878668"><ele>303.4</ele><time>2026-04-11T13:40:22.485Z</time></trkpt><trkpt lat="44.4068245" lon="10.8788237"><ele>305.6</ele><time>2026-04-11T13:40:24.484Z</time></trkpt><trkpt lat="44.4068936" lon="10.8789107"><ele>307.8</ele><time>2026-04-11T13:40:26.444Z</time></trkpt><trkpt lat="44.4070226" lon="10.8789495"><ele>310.0</ele><time>2026-04-11T13:40:28.476Z</time></trkpt><trkpt lat="44.407085" lon="10.8789685"><ele>310.0</ele><time>2026-04-11T13:40:29.474Z</time></trkpt><trkpt lat="44.4071492" lon="10.8789816"><ele>310.0</ele><time>2026-04-11T13:40:30.484Z</time></trkpt><trkpt lat="44.4072175" lon="10.8789952"><ele>310.0</ele><time>2026-04-11T13:40:31.484Z</time></trkpt><trkpt lat="44.4072836" lon="10.8790017"><ele>310.0</ele><time>2026-04-11T13:40:32.473Z</time></trkpt><trkpt lat="44.4073937" lon="10.8789778"><ele>310.0</ele><time>2026-04-11T13:40:34.467Z</time></trkpt><trkpt lat="44.4074632" lon="10.87888"><ele>310.0</ele><time>2026-04-11T13:40:36.497Z</time></trkpt><trkpt lat="44.4075285" lon="10.8787958"><ele>307.8</ele><time>2026-04-11T13:40:38.477Z</time></trkpt><trkpt lat="44.4076021" lon="10.8788166"><ele>305.6</ele><time>2026-04-11T13:40:40.501Z</time></trkpt><trkpt lat="44.4076624" lon="10.8789328"><ele>303.4</ele><time>2026-04-11T13:40:42.505Z</time></trkpt><trkpt lat="44.4077316" lon="10.8790379"><ele>301.2</ele><time>2026-04-11T13:40:44.473Z</time></trkpt><trkpt lat="44.4078272" lon="10.8790901"><ele>299.0</ele><time>2026-04-11T13:40:46.486Z</time></trkpt><trkpt lat="44.407945" lon="10.8791174"><ele>297.2</ele><time>2026-04-11T13:40:48.487Z</time></trkpt><trkpt lat="44.4080672" lon="10.8791418"><ele>295.4</ele><time>2026-04-11T13:40:50.459Z</time></trkpt><trkpt lat="44.4081745" lon="10.8791691"><ele>293.6</ele><time>2026-04-11T13:40:52.484Z</time></trkpt><trkpt lat="44.4082791" lon="10.879196"><ele>291.8</ele><time>2026-04-11T13:40:54.442Z</time></trkpt><trkpt lat="44.4083789" lon="10.8791974"><ele>290.0</ele><time>2026-04-11T13:40:56.481Z</time></trkpt><trkpt lat="44.4084721" lon="10.8791077"><ele>290.0</ele><time>2026-04-11T13:40:58.487Z</time></trkpt><trkpt lat="44.4085311" lon="10.8789989"><ele>290.0</ele><time>2026-04-11T13:41:00.549Z</time></trkpt><trkpt lat="44.4085632" lon="10.8789147"><ele>290.0</ele><time>2026-04-11T13:41:02.49Z</time></trkpt><trkpt lat="44.4086096" lon="10.8788408"><ele>290.0</ele><time>2026-04-11T13:41:05.477Z</time></trkpt><trkpt lat="44.4086773" lon="10.8788411"><ele>290.0</ele><time>2026-04-11T13:41:17.532Z</time></trkpt><trkpt lat="44.408738" lon="10.8788692"><ele>290.0</ele><time>2026-04-11T13:41:20.488Z</time></trkpt><trkpt lat="44.408812" lon="10.8789001"><ele>290.0</ele><time>2026-04-11T13:41:23.518Z</time></trkpt><trkpt lat="44.408891" lon="10.8789433"><ele>289.0</ele><time>2026-04-11T13:41:25.481Z</time></trkpt><trkpt lat="44.4089484" lon="10.8789951"><ele>288.0</ele><time>2026-04-11T13:41:28.483Z</time></trkpt><trkpt lat="44.4090211" lon="10.8790362"><ele>287.0</ele><time>2026-04-11T13:41:43.456Z</time></trkpt><trkpt lat="44.4091009" lon="10.8790219"><ele>286.0</ele><time>2026-04-11T13:41:45.46Z</time></trkpt><trkpt lat="44.409198" lon="10.8789863"><ele>285.0</ele><time>2026-04-11T13:41:47.49Z</time></trkpt><trkpt lat="44.4092775" lon="10.878937"><ele>284.0</ele><time>2026-04-11T13:41:49.453Z</time></trkpt><trkpt lat="44.4093609" lon="10.8788663"><ele>284.0</ele><time>2026-04-11T13:41:51.46Z</time></trkpt><trkpt lat="44.4094342" lon="10.8788072"><ele>284.0</ele><time>2026-04-11T13:41:53.438Z</time></trkpt><trkpt lat="44.4095193" lon="10.878871"><ele>284.0</ele><time>2026-04-11T13:41:55.477Z</time></trkpt><trkpt lat="44.4095688" lon="10.8789402"><ele>284.0</ele><time>2026-04-11T13:41:56.483Z</time></trkpt><trkpt lat="44.409619" lon="10.8790108"><ele>284.0</ele><time>2026-04-11T13:41:57.51Z</time></trkpt><trkpt lat="44.4096798" lon="10.8790653"><ele>284.0</ele><time>2026-04-11T13:41:58.482Z</time></trkpt><trkpt lat="44.409739" lon="10.8791333"><ele>284.2</ele><time>2026-04-11T13:41:59.444Z</time></trkpt><trkpt lat="44.4097948" lon="10.8792059"><ele>284.4</ele><time>2026-04-11T13:42:00.449Z</time></trkpt><trkpt lat="44.4098517" lon="10.8792807"><ele>284.6</ele><time>2026-04-11T13:42:01.475Z</time></trkpt><trkpt lat="44.4099006" lon="10.8793422"><ele>284.8</ele><time>2026-04-11T13:42:02.485Z</time></trkpt><trkpt lat="44.4099993" lon="10.8794119"><ele>285.0</ele><time>2026-04-11T13:42:04.468Z</time></trkpt><trkpt lat="44.410128" lon="10.8793961"><ele>283.7142857142857</ele><time>2026-04-11T13:42:06.49Z</time></trkpt><trkpt lat="44.4101981" lon="10.8793831"><ele>282.42857142857144</ele><time>2026-04-11T13:42:07.449Z</time></trkpt><trkpt lat="44.4102653" lon="10.8793926"><ele>281.14285714285717</ele><time>2026-04-11T13:42:08.468Z</time></trkpt><trkpt lat="44.410335" lon="10.8794317"><ele>279.8571428571429</ele><time>2026-04-11T13:42:09.462Z</time></trkpt><trkpt lat="44.4104057" lon="10.8794852"><ele>278.5714285714286</ele><time>2026-04-11T13:42:10.478Z</time></trkpt><trkpt lat="44.4104746" lon="10.8795318"><ele>277.2857142857143</ele><time>2026-04-11T13:42:11.482Z</time></trkpt><trkpt lat="44.4105428" lon="10.8795559"><ele>276.0</ele><time>2026-04-11T13:42:12.482Z</time></trkpt><trkpt lat="44.4106164" lon="10.879565"><ele>275.6666666666667</ele><time>2026-04-11T13:42:13.468Z</time></trkpt><trkpt lat="44.4106925" lon="10.8795601"><ele>275.3333333333333</ele><time>2026-04-11T13:42:14.497Z</time></trkpt><trkpt lat="44.4107692" lon="10.8795517"><ele>275.0</ele><time>2026-04-11T13:42:15.489Z</time></trkpt><trkpt lat="44.410842" lon="10.879544"><ele>274.66666666666663</ele><time>2026-04-11T13:42:16.487Z</time></trkpt><trkpt lat="44.4109454" lon="10.8795231"><ele>274.3333333333333</ele><time>2026-04-11T13:42:18.466Z</time></trkpt><trkpt lat="44.4110269" lon="10.879504"><ele>274.0</ele><time>2026-04-11T13:43:36.462Z</time></trkpt><trkpt lat="44.4109596" lon="10.8795365"><ele>274.0</ele><time>2026-04-11T13:43:51.464Z</time></trkpt><trkpt lat="44.4108421" lon="10.8795525"><ele>274.0</ele><time>2026-04-11T13:43:53.481Z</time></trkpt><trkpt lat="44.4107661" lon="10.8795566"><ele>274.0</ele><time>2026-04-11T13:43:54.475Z</time></trkpt><trkpt lat="44.4106942" lon="10.8795629"><ele>274.0</ele><time>2026-04-11T13:43:55.49Z</time></trkpt><trkpt lat="44.4106237" lon="10.8795632"><ele>274.0</ele><time>2026-04-11T13:43:56.466Z</time></trkpt><trkpt lat="44.4105606" lon="10.8795542"><ele>274.0</ele><time>2026-04-11T13:43:57.463Z</time></trkpt><trkpt lat="44.4104358" lon="10.8794847"><ele>274.3333333333333</ele><time>2026-04-11T13:43:59.468Z</time></trkpt><trkpt lat="44.4103665" lon="10.8794352"><ele>274.66666666666663</ele><time>2026-04-11T13:44:00.482Z</time></trkpt><trkpt lat="44.4103014" lon="10.8794005"><ele>275.0</ele><time>2026-04-11T13:44:01.478Z</time></trkpt><trkpt lat="44.4102384" lon="10.8793861"><ele>275.3333333333333</ele><time>2026-04-11T13:44:02.471Z</time></trkpt><trkpt lat="44.4101734" lon="10.879393"><ele>275.6666666666667</ele><time>2026-04-11T13:44:03.474Z</time></trkpt><trkpt lat="44.4100539" lon="10.8794225"><ele>276.0</ele><time>2026-04-11T13:44:05.467Z</time></trkpt><trkpt lat="44.4099427" lon="10.8793984"><ele>276.0</ele><time>2026-04-11T13:44:07.481Z</time></trkpt><trkpt lat="44.4098921" lon="10.8793278"><ele>276.0</ele><time>2026-04-11T13:44:08.457Z</time></trkpt><trkpt lat="44.4098287" lon="10.8792428"><ele>276.0</ele><time>2026-04-11T13:44:09.47Z</time></trkpt><trkpt lat="44.4097666" lon="10.8791629"><ele>276.0</ele><time>2026-04-11T13:44:10.454Z</time></trkpt><trkpt lat="44.4097081" lon="10.8790957"><ele>276.0</ele><time>2026-04-11T13:44:11.452Z</time></trkpt><trkpt lat="44.409647" lon="10.8790323"><ele>276.0</ele><time>2026-04-11T13:44:12.476Z</time></trkpt><trkpt lat="44.4095875" lon="10.878967"><ele>277.6</ele><time>2026-04-11T13:44:13.477Z</time></trkpt><trkpt lat="44.4095416" lon="10.8789035"><ele>279.20000000000005</ele><time>2026-04-11T13:44:14.472Z</time></trkpt><trkpt lat="44.4094618" lon="10.8788409"><ele>280.79999999999995</ele><time>2026-04-11T13:44:16.482Z</time></trkpt><trkpt lat="44.4093591" lon="10.8788857"><ele>282.4</ele><time>2026-04-11T13:44:18.512Z</time></trkpt><trkpt lat="44.4092585" lon="10.8789652"><ele>284.0</ele><time>2026-04-11T13:44:20.466Z</time></trkpt><trkpt lat="44.4091394" lon="10.8790143"><ele>284.0</ele><time>2026-04-11T13:44:22.484Z</time></trkpt><trkpt lat="44.4090423" lon="10.8790245"><ele>284.0</ele><time>2026-04-11T13:44:24.524Z</time></trkpt><trkpt lat="44.4089704" lon="10.8789967"><ele>284.0</ele><time>2026-04-11T13:44:26.47Z</time></trkpt><trkpt lat="44.4088895" lon="10.8789359"><ele>284.0</ele><time>2026-04-11T13:44:29.487Z</time></trkpt><trkpt lat="44.4088124" lon="10.8788977"><ele>284.0</ele><time>2026-04-11T13:44:32.435Z</time></trkpt><trkpt lat="44.4087421" lon="10.8788538"><ele>284.0</ele><time>2026-04-11T13:44:35.475Z</time></trkpt><trkpt lat="44.4086707" lon="10.8788178"><ele>285.2</ele><time>2026-04-11T13:44:37.447Z</time></trkpt><trkpt lat="44.4086031" lon="10.8788569"><ele>286.4</ele><time>2026-04-11T13:44:39.49Z</time></trkpt><trkpt lat="44.4085333" lon="10.8789962"><ele>287.6</ele><time>2026-04-11T13:44:41.481Z</time></trkpt><trkpt lat="44.4084536" lon="10.8791201"><ele>288.8</ele><time>2026-04-11T13:44:43.48Z</time></trkpt><trkpt lat="44.4083662" lon="10.8791747"><ele>290.0</ele><time>2026-04-11T13:44:45.473Z</time></trkpt><trkpt lat="44.408257" lon="10.879167"><ele>290.0</ele><time>2026-04-11T13:44:47.483Z</time></trkpt><trkpt lat="44.4081861" lon="10.8791483"><ele>290.0</ele><time>2026-04-11T13:44:48.488Z</time></trkpt><trkpt lat="44.4081101" lon="10.8791244"><ele>290.0</ele><time>2026-04-11T13:44:49.478Z</time></trkpt><trkpt lat="44.4080354" lon="10.8791079"><ele>290.0</ele><time>2026-04-11T13:44:50.479Z</time></trkpt><trkpt lat="44.4079611" lon="10.8790996"><ele>290.0</ele><time>2026-04-11T13:44:51.441Z</time></trkpt><trkpt lat="44.4078865" lon="10.8790876"><ele>290.0</ele><time>2026-04-11T13:44:52.541Z</time></trkpt><trkpt lat="44.407823" lon="10.8790696"><ele>290.0</ele><time>2026-04-11T13:44:53.477Z</time></trkpt><trkpt lat="44.4077284" lon="10.8790049"><ele>291.8</ele><time>2026-04-11T13:44:55.45Z</time></trkpt><trkpt lat="44.4076511" lon="10.8788644"><ele>293.6</ele><time>2026-04-11T13:44:57.467Z</time></trkpt><trkpt lat="44.4075831" lon="10.8787899"><ele>295.4</ele><time>2026-04-11T13:44:59.482Z</time></trkpt><trkpt lat="44.4075076" lon="10.8788521"><ele>297.2</ele><time>2026-04-11T13:45:01.473Z</time></trkpt><trkpt lat="44.4074685" lon="10.8789215"><ele>299.0</ele><time>2026-04-11T13:45:02.492Z</time></trkpt><trkpt lat="44.4073711" lon="10.8790041"><ele>299.0</ele><time>2026-04-11T13:45:04.464Z</time></trkpt><trkpt lat="44.4073092" lon="10.8790323"><ele>299.0</ele><time>2026-04-11T13:45:05.49Z</time></trkpt><trkpt lat="44.4072266" lon="10.8790229"><ele>299.0</ele><time>2026-04-11T13:45:06.458Z</time></trkpt><trkpt lat="44.407155" lon="10.8790065"><ele>299.0</ele><time>2026-04-11T13:45:07.464Z</time></trkpt><trkpt lat="44.4070811" lon="10.8789894"><ele>299.0</ele><time>2026-04-11T13:45:08.467Z</time></trkpt><trkpt lat="44.4070095" lon="10.8789674"><ele>299.0</ele><time>2026-04-11T13:45:09.472Z</time></trkpt><trkpt lat="44.406939" lon="10.8789423"><ele>299.0</ele><time>2026-04-11T13:45:10.462Z</time></trkpt><trkpt lat="44.4068689" lon="10.8788716"><ele>299.0</ele><time>2026-04-11T13:45:12.464Z</time></trkpt><trkpt lat="44.4068334" lon="10.8787613"><ele>299.0</ele><time>2026-04-11T13:45:14.454Z</time></trkpt><trkpt lat="44.406835" lon="10.8786136"><ele>299.0</ele><time>2026-04-11T13:45:16.47Z</time></trkpt><trkpt lat="44.4068802" lon="10.8784438"><ele>299.0</ele><time>2026-04-11T13:45:18.485Z</time></trkpt><trkpt lat="44.4068932" lon="10.8782749"><ele>299.0</ele><time>2026-04-11T13:45:20.481Z</time></trkpt><trkpt lat="44.4068497" lon="10.8781406"><ele>299.0</ele><time>2026-04-11T13:45:22.479Z</time></trkpt><trkpt lat="44.4067585" lon="10.8781366"><ele>299.0</ele><time>2026-04-11T13:45:24.469Z</time></trkpt><trkpt lat="44.4066772" lon="10.8782512"><ele>299.0</ele><time>2026-04-11T13:45:26.481Z</time></trkpt><trkpt lat="44.4065902" lon="10.8782574"><ele>299.0</ele><time>2026-04-11T13:45:28.475Z</time></trkpt><trkpt lat="44.4065418" lon="10.8781778"><ele>299.0</ele><time>2026-04-11T13:45:29.473Z</time></trkpt><trkpt lat="44.4065083" lon="10.8780907"><ele>299.0</ele><time>2026-04-11T13:45:30.481Z</time></trkpt><trkpt lat="44.4064845" lon="10.8780076"><ele>299.0</ele><time>2026-04-11T13:45:31.48Z</time></trkpt><trkpt lat="44.4064664" lon="10.8778806"><ele>299.0</ele><time>2026-04-11T13:45:33.467Z</time></trkpt><trkpt lat="44.4064844" lon="10.877769"><ele>299.0</ele><time>2026-04-11T13:45:51.444Z</time></trkpt><trkpt lat="44.4064343" lon="10.8776995"><ele>299.0</ele><time>2026-04-11T13:45:53.46Z</time></trkpt><trkpt lat="44.4063357" lon="10.8776501"><ele>299.0</ele><time>2026-04-11T13:45:55.481Z</time></trkpt><trkpt lat="44.4062611" lon="10.8775608"><ele>299.0</ele><time>2026-04-11T13:45:57.468Z</time></trkpt><trkpt lat="44.4062258" lon="10.8774747"><ele>300.5</ele><time>2026-04-11T13:45:58.474Z</time></trkpt><trkpt lat="44.4061926" lon="10.8773761"><ele>302.0</ele><time>2026-04-11T13:45:59.453Z</time></trkpt><trkpt lat="44.4061647" lon="10.8772784"><ele>303.5</ele><time>2026-04-11T13:46:00.472Z</time></trkpt><trkpt lat="44.4061343" lon="10.8771798"><ele>305.0</ele><time>2026-04-11T13:46:01.467Z</time></trkpt><trkpt lat="44.4061037" lon="10.8770853"><ele>306.5</ele><time>2026-04-11T13:46:02.515Z</time></trkpt><trkpt lat="44.4060667" lon="10.8769974"><ele>308.0</ele><time>2026-04-11T13:46:03.462Z</time></trkpt><trkpt lat="44.4060161" lon="10.876918"><ele>308.0</ele><time>2026-04-11T13:46:04.47Z</time></trkpt><trkpt lat="44.4059541" lon="10.8768587"><ele>308.0</ele><time>2026-04-11T13:46:05.476Z</time></trkpt><trkpt lat="44.4058957" lon="10.8768074"><ele>308.0</ele><time>2026-04-11T13:46:06.494Z</time></trkpt><trkpt lat="44.4058206" lon="10.876799"><ele>308.0</ele><time>2026-04-11T13:46:07.498Z</time></trkpt><trkpt lat="44.405732" lon="10.8768063"><ele>308.0</ele><time>2026-04-11T13:46:08.465Z</time></trkpt><trkpt lat="44.4056606" lon="10.8768237"><ele>308.0</ele><time>2026-04-11T13:46:09.483Z</time></trkpt><trkpt lat="44.405601" lon="10.8768521"><ele>308.0</ele><time>2026-04-11T13:46:10.467Z</time></trkpt><trkpt lat="44.4054916" lon="10.8768593"><ele>308.1666666666667</ele><time>2026-04-11T13:46:12.463Z</time></trkpt><trkpt lat="44.4054279" lon="10.8768419"><ele>308.33333333333337</ele><time>2026-04-11T13:46:13.481Z</time></trkpt><trkpt lat="44.4053625" lon="10.8767889"><ele>308.5</ele><time>2026-04-11T13:46:14.463Z</time></trkpt><trkpt lat="44.4053047" lon="10.8767301"><ele>308.6666666666667</ele><time>2026-04-11T13:46:15.468Z</time></trkpt><trkpt lat="44.4052384" lon="10.876606"><ele>308.8333333333333</ele><time>2026-04-11T13:46:17.487Z</time></trkpt><trkpt lat="44.4051624" lon="10.8765523"><ele>309.0</ele><time>2026-04-11T13:46:19.509Z</time></trkpt><trkpt lat="44.4050476" lon="10.8765726"><ele>309.0</ele><time>2026-04-11T13:46:21.464Z</time></trkpt><trkpt lat="44.4049533" lon="10.876497"><ele>309.0</ele><time>2026-04-11T13:46:23.466Z</time></trkpt><trkpt lat="44.404905" lon="10.8763964"><ele>309.0</ele><time>2026-04-11T13:46:24.462Z</time></trkpt><trkpt lat="44.4048591" lon="10.8762893"><ele>309.0</ele><time>2026-04-11T13:46:25.469Z</time></trkpt><trkpt lat="44.4048152" lon="10.8761884"><ele>309.0</ele><time>2026-04-11T13:46:26.465Z</time></trkpt><trkpt lat="44.4047573" lon="10.8760768"><ele>308.4</ele><time>2026-04-11T13:46:28.471Z</time></trkpt><trkpt lat="44.4046875" lon="10.8759348"><ele>307.79999999999995</ele><time>2026-04-11T13:46:45.46Z</time></trkpt><trkpt lat="44.4045939" lon="10.8758047"><ele>307.20000000000005</ele><time>2026-04-11T13:46:47.472Z</time></trkpt><trkpt lat="44.4045249" lon="10.8757352"><ele>306.6</ele><time>2026-04-11T13:46:48.468Z</time></trkpt><trkpt lat="44.4044456" lon="10.8756561"><ele>306.0</ele><time>2026-04-11T13:46:49.489Z</time></trkpt><trkpt lat="44.404384" lon="10.8755749"><ele>307.0</ele><time>2026-04-11T13:46:50.469Z</time></trkpt><trkpt lat="44.4043146" lon="10.8754894"><ele>308.0</ele><time>2026-04-11T13:47:16.471Z</time></trkpt><trkpt lat="44.4043164" lon="10.875397"><ele>309.0</ele><time>2026-04-11T13:47:18.475Z</time></trkpt><trkpt lat="44.4043426" lon="10.8752505"><ele>310.0</ele><time>2026-04-11T13:47:20.48Z</time></trkpt><trkpt lat="44.4043609" lon="10.8751151"><ele>311.0</ele><time>2026-04-11T13:47:22.487Z</time></trkpt><trkpt lat="44.4043906" lon="10.8750045"><ele>312.0</ele><time>2026-04-11T13:47:25.475Z</time></trkpt><trkpt lat="44.4044134" lon="10.8749045"><ele>312.0</ele><time>2026-04-11T13:47:27.467Z</time></trkpt><trkpt lat="44.4044187" lon="10.8747828"><ele>312.0</ele><time>2026-04-11T13:47:30.468Z</time></trkpt><trkpt lat="44.4044318" lon="10.8746861"><ele>312.0</ele><time>2026-04-11T13:47:32.463Z</time></trkpt><trkpt lat="44.4044832" lon="10.8745643"><ele>312.0</ele><time>2026-04-11T13:47:34.488Z</time></trkpt><trkpt lat="44.4045392" lon="10.8744972"><ele>312.0</ele><time>2026-04-11T13:47:35.47Z</time></trkpt><trkpt lat="44.4045859" lon="10.8744191"><ele>312.0</ele><time>2026-04-11T13:47:36.477Z</time></trkpt><trkpt lat="44.4046227" lon="10.874331"><ele>312.1666666666667</ele><time>2026-04-11T13:47:37.463Z</time></trkpt><trkpt lat="44.4046545" lon="10.8742287"><ele>312.3333333333333</ele><time>2026-04-11T13:47:38.466Z</time></trkpt><trkpt lat="44.4046779" lon="10.8741366"><ele>312.5</ele><time>2026-04-11T13:47:39.469Z</time></trkpt><trkpt lat="44.4047053" lon="10.8740435"><ele>312.66666666666663</ele><time>2026-04-11T13:47:40.475Z</time></trkpt><trkpt lat="44.4047355" lon="10.8739641"><ele>312.8333333333333</ele><time>2026-04-11T13:47:41.486Z</time></trkpt><trkpt lat="44.4048133" lon="10.8738904"><ele>313.0</ele><time>2026-04-11T13:47:43.479Z</time></trkpt><trkpt lat="44.4049239" lon="10.8739012"><ele>315.3333333333333</ele><time>2026-04-11T13:47:45.477Z</time></trkpt><trkpt lat="44.4049885" lon="10.8739409"><ele>317.66666666666663</ele><time>2026-04-11T13:47:46.472Z</time></trkpt><trkpt lat="44.4050449" lon="10.8740004"><ele>320.0</ele><time>2026-04-11T13:47:47.47Z</time></trkpt><trkpt lat="44.4050916" lon="10.8740613"><ele>322.3333333333333</ele><time>2026-04-11T13:47:48.477Z</time></trkpt><trkpt lat="44.4051826" lon="10.8741758"><ele>324.6666666666667</ele><time>2026-04-11T13:47:50.476Z</time></trkpt><trkpt lat="44.4052742" lon="10.8742231"><ele>327.0</ele><time>2026-04-11T13:47:52.469Z</time></trkpt><trkpt lat="44.4053877" lon="10.8741643"><ele>327.0</ele><time>2026-04-11T13:47:54.467Z</time></trkpt><trkpt lat="44.4054607" lon="10.8741024"><ele>327.0</ele><time>2026-04-11T13:47:56.47Z</time></trkpt><trkpt lat="44.4055002" lon="10.8739812"><ele>327.0</ele><time>2026-04-11T13:47:58.462Z</time></trkpt><trkpt lat="44.4055161" lon="10.8737956"><ele>327.0</ele><time>2026-04-11T13:48:00.438Z</time></trkpt><trkpt lat="44.4055096" lon="10.8736965"><ele>327.0</ele><time>2026-04-11T13:48:01.47Z</time></trkpt><trkpt lat="44.4055025" lon="10.8736013"><ele>330.40000000000003</ele><time>2026-04-11T13:48:02.464Z</time></trkpt><trkpt lat="44.4055" lon="10.8735108"><ele>333.8</ele><time>2026-04-11T13:48:03.434Z</time></trkpt><trkpt lat="44.4055214" lon="10.8733461"><ele>337.2</ele><time>2026-04-11T13:48:05.462Z</time></trkpt><trkpt lat="44.4055579" lon="10.8732515"><ele>340.6</ele><time>2026-04-11T13:48:06.465Z</time></trkpt><trkpt lat="44.4056006" lon="10.8731364"><ele>344.0</ele><time>2026-04-11T13:48:07.473Z</time></trkpt><trkpt lat="44.4056419" lon="10.873"><ele>346.0</ele><time>2026-04-11T13:48:08.469Z</time></trkpt><trkpt lat="44.4056897" lon="10.8728616"><ele>348.0</ele><time>2026-04-11T13:48:09.497Z</time></trkpt><trkpt lat="44.4057244" lon="10.8727574"><ele>350.0</ele><time>2026-04-11T13:48:10.465Z</time></trkpt><trkpt lat="44.4057467" lon="10.8726603"><ele>352.0</ele><time>2026-04-11T13:48:11.474Z</time></trkpt><trkpt lat="44.4057622" lon="10.8725526"><ele>354.0</ele><time>2026-04-11T13:48:12.522Z</time></trkpt><trkpt lat="44.4057786" lon="10.872449"><ele>356.0</ele><time>2026-04-11T13:48:13.48Z</time></trkpt><trkpt lat="44.4057876" lon="10.87235"><ele>357.6666666666667</ele><time>2026-04-11T13:48:14.475Z</time></trkpt><trkpt lat="44.4057819" lon="10.8722523"><ele>359.33333333333337</ele><time>2026-04-11T13:48:15.483Z</time></trkpt><trkpt lat="44.4057752" lon="10.8721627"><ele>361.0</ele><time>2026-04-11T13:48:16.479Z</time></trkpt><trkpt lat="44.4057576" lon="10.8720746"><ele>362.6666666666667</ele><time>2026-04-11T13:48:17.479Z</time></trkpt><trkpt lat="44.4057334" lon="10.8719186"><ele>364.3333333333333</ele><time>2026-04-11T13:48:19.473Z</time></trkpt><trkpt lat="44.405744" lon="10.8718262"><ele>366.0</ele><time>2026-04-11T13:48:20.441Z</time></trkpt><trkpt lat="44.405775" lon="10.8717096"><ele>368.5</ele><time>2026-04-11T13:48:21.472Z</time></trkpt><trkpt lat="44.4058137" lon="10.871603"><ele>371.0</ele><time>2026-04-11T13:48:22.492Z</time></trkpt><trkpt lat="44.4058625" lon="10.8714879"><ele>373.5</ele><time>2026-04-11T13:48:23.455Z</time></trkpt><trkpt lat="44.4059084" lon="10.8713867"><ele>376.0</ele><time>2026-04-11T13:48:24.47Z</time></trkpt><trkpt lat="44.405939" lon="10.8713017"><ele>378.5</ele><time>2026-04-11T13:48:25.463Z</time></trkpt><trkpt lat="44.4059755" lon="10.8711625"><ele>381.0</ele><time>2026-04-11T13:48:27.465Z</time></trkpt><trkpt lat="44.4059702" lon="10.8710262"><ele>383.6666666666667</ele><time>2026-04-11T13:48:29.522Z</time></trkpt><trkpt lat="44.4059538" lon="10.8709347"><ele>386.33333333333337</ele><time>2026-04-11T13:48:30.481Z</time></trkpt><trkpt lat="44.4059436" lon="10.8708222"><ele>389.0</ele><time>2026-04-11T13:48:31.47Z</time></trkpt><trkpt lat="44.4059336" lon="10.8707139"><ele>391.6666666666667</ele><time>2026-04-11T13:48:32.459Z</time></trkpt><trkpt lat="44.4059146" lon="10.8705851"><ele>394.33333333333337</ele><time>2026-04-11T13:48:34.468Z</time></trkpt><trkpt lat="44.4058299" lon="10.8704944"><ele>397.0</ele><time>2026-04-11T13:48:36.439Z</time></trkpt><trkpt lat="44.4057814" lon="10.8703549"><ele>397.0</ele><time>2026-04-11T13:48:38.466Z</time></trkpt><trkpt lat="44.4057764" lon="10.8701802"><ele>397.0</ele><time>2026-04-11T13:48:40.468Z</time></trkpt><trkpt lat="44.4057817" lon="10.8700715"><ele>397.0</ele><time>2026-04-11T13:48:41.465Z</time></trkpt><trkpt lat="44.4057918" lon="10.8699782"><ele>397.0</ele><time>2026-04-11T13:48:42.46Z</time></trkpt><trkpt lat="44.405838" lon="10.8698375"><ele>397.0</ele><time>2026-04-11T13:48:44.47Z</time></trkpt><trkpt lat="44.4059539" lon="10.8697244"><ele>399.50000000000006</ele><time>2026-04-11T13:48:46.456Z</time></trkpt><trkpt lat="44.4060138" lon="10.869655"><ele>402.0</ele><time>2026-04-11T13:48:47.433Z</time></trkpt><trkpt lat="44.4060717" lon="10.8695876"><ele>404.5</ele><time>2026-04-11T13:48:48.482Z</time></trkpt><trkpt lat="44.4061074" lon="10.8695142"><ele>407.0</ele><time>2026-04-11T13:48:49.476Z</time></trkpt><trkpt lat="44.4061377" lon="10.8693736"><ele>409.50000000000006</ele><time>2026-04-11T13:48:51.478Z</time></trkpt><trkpt lat="44.4061289" lon="10.8692551"><ele>412.0</ele><time>2026-04-11T13:48:53.479Z</time></trkpt><trkpt lat="44.406093" lon="10.8690752"><ele>415.00000000000006</ele><time>2026-04-11T13:48:55.483Z</time></trkpt><trkpt lat="44.4060589" lon="10.8689913"><ele>418.0</ele><time>2026-04-11T13:48:56.434Z</time></trkpt><trkpt lat="44.4060274" lon="10.868915"><ele>421.0</ele><time>2026-04-11T13:48:57.489Z</time></trkpt><trkpt lat="44.405999" lon="10.8688245"><ele>424.0</ele><time>2026-04-11T13:48:58.454Z</time></trkpt><trkpt lat="44.4059679" lon="10.8687044"><ele>427.00000000000006</ele><time>2026-04-11T13:48:59.497Z</time></trkpt><trkpt lat="44.4059408" lon="10.868602"><ele>430.0</ele><time>2026-04-11T13:49:00.484Z</time></trkpt><trkpt lat="44.4059036" lon="10.8684776"><ele>430.00000000000006</ele><time>2026-04-11T13:49:02.447Z</time></trkpt><trkpt lat="44.4058252" lon="10.8684625"><ele>430.0</ele><time>2026-04-11T13:49:04.469Z</time></trkpt><trkpt lat="44.4057587" lon="10.8684697"><ele>430.0</ele><time>2026-04-11T13:49:05.476Z</time></trkpt><trkpt lat="44.4056935" lon="10.868477"><ele>430.0</ele><time>2026-04-11T13:49:07.494Z</time></trkpt><trkpt lat="44.4056728" lon="10.8683851"><ele>430.00000000000006</ele><time>2026-04-11T13:49:10.526Z</time></trkpt><trkpt lat="44.4057527" lon="10.8682765"><ele>430.0</ele><time>2026-04-11T13:49:12.487Z</time></trkpt><trkpt lat="44.4058059" lon="10.8682291"><ele>432.83333333333337</ele><time>2026-04-11T13:49:13.488Z</time></trkpt><trkpt lat="44.4058721" lon="10.8681764"><ele>435.6666666666667</ele><time>2026-04-11T13:49:14.493Z</time></trkpt><trkpt lat="44.4059432" lon="10.8681222"><ele>438.5</ele><time>2026-04-11T13:49:15.477Z</time></trkpt><trkpt lat="44.4060083" lon="10.86807"><ele>441.33333333333337</ele><time>2026-04-11T13:49:16.466Z</time></trkpt><trkpt lat="44.4060768" lon="10.8680144"><ele>444.1666666666667</ele><time>2026-04-11T13:49:17.487Z</time></trkpt><trkpt lat="44.4061416" lon="10.8679593"><ele>447.0</ele><time>2026-04-11T13:49:18.473Z</time></trkpt><trkpt lat="44.4062067" lon="10.8679034"><ele>446.99999999999994</ele><time>2026-04-11T13:49:19.471Z</time></trkpt><trkpt lat="44.4062708" lon="10.8678528"><ele>447.0</ele><time>2026-04-11T13:49:20.468Z</time></trkpt><trkpt lat="44.406333" lon="10.8678035"><ele>447.0</ele><time>2026-04-11T13:49:21.482Z</time></trkpt><trkpt lat="44.4063948" lon="10.8677591"><ele>447.0</ele><time>2026-04-11T13:49:22.494Z</time></trkpt><trkpt lat="44.4064565" lon="10.8677182"><ele>447.0</ele><time>2026-04-11T13:49:23.5Z</time></trkpt><trkpt lat="44.4065213" lon="10.8676765"><ele>446.99999999999994</ele><time>2026-04-11T13:49:24.525Z</time></trkpt><trkpt lat="44.4065881" lon="10.8676288"><ele>447.0</ele><time>2026-04-11T13:49:25.497Z</time></trkpt><trkpt lat="44.4066505" lon="10.8675814"><ele>450.0</ele><time>2026-04-11T13:49:26.486Z</time></trkpt><trkpt lat="44.4067132" lon="10.8675329"><ele>453.0</ele><time>2026-04-11T13:49:27.481Z</time></trkpt><trkpt lat="44.4067754" lon="10.8674828"><ele>456.0</ele><time>2026-04-11T13:49:28.49Z</time></trkpt><trkpt lat="44.4068364" lon="10.8674326"><ele>459.0</ele><time>2026-04-11T13:49:29.476Z</time></trkpt><trkpt lat="44.4068964" lon="10.8673866"><ele>462.0</ele><time>2026-04-11T13:49:30.498Z</time></trkpt><trkpt lat="44.4069583" lon="10.8673423"><ele>465.0</ele><time>2026-04-11T13:49:31.477Z</time></trkpt><trkpt lat="44.4070597" lon="10.8672738"><ele>465.0</ele><time>2026-04-11T13:49:33.483Z</time></trkpt><trkpt lat="44.4071293" lon="10.8672401"><ele>465.0</ele><time>2026-04-11T13:49:36.505Z</time></trkpt><trkpt lat="44.407185" lon="10.8671918"><ele>465.0</ele><time>2026-04-11T13:50:04.532Z</time></trkpt><trkpt lat="44.4071618" lon="10.8670705"><ele>465.0</ele><time>2026-04-11T13:50:06.458Z</time></trkpt><trkpt lat="44.407143" lon="10.8668968"><ele>465.0</ele><time>2026-04-11T13:50:08.492Z</time></trkpt><trkpt lat="44.4071427" lon="10.866778"><ele>465.0</ele><time>2026-04-11T13:50:09.493Z</time></trkpt><trkpt lat="44.407143" lon="10.8666472"><ele>465.8</ele><time>2026-04-11T13:50:10.518Z</time></trkpt><trkpt lat="44.4071438" lon="10.8665055"><ele>466.6</ele><time>2026-04-11T13:50:11.471Z</time></trkpt><trkpt lat="44.4071437" lon="10.8663686"><ele>467.4</ele><time>2026-04-11T13:50:12.48Z</time></trkpt><trkpt lat="44.4071454" lon="10.8662376"><ele>468.2</ele><time>2026-04-11T13:50:13.486Z</time></trkpt><trkpt lat="44.4071473" lon="10.8661197"><ele>469.0</ele><time>2026-04-11T13:50:14.455Z</time></trkpt><trkpt lat="44.4071492" lon="10.8659949"><ele>468.83333333333337</ele><time>2026-04-11T13:50:15.48Z</time></trkpt><trkpt lat="44.4071545" lon="10.8658647"><ele>468.6666666666667</ele><time>2026-04-11T13:50:16.449Z</time></trkpt><trkpt lat="44.4071583" lon="10.8657362"><ele>468.5</ele><time>2026-04-11T13:50:17.494Z</time></trkpt><trkpt lat="44.4071604" lon="10.8656111"><ele>468.33333333333337</ele><time>2026-04-11T13:50:18.476Z</time></trkpt><trkpt lat="44.4071642" lon="10.86549"><ele>468.1666666666667</ele><time>2026-04-11T13:50:19.483Z</time></trkpt><trkpt lat="44.4071675" lon="10.8653747"><ele>468.0</ele><time>2026-04-11T13:50:20.479Z</time></trkpt><trkpt lat="44.4071721" lon="10.8652583"><ele>468.0</ele><time>2026-04-11T13:50:21.492Z</time></trkpt><trkpt lat="44.4071763" lon="10.8651369"><ele>467.99999999999994</ele><time>2026-04-11T13:50:22.483Z</time></trkpt><trkpt lat="44.407184" lon="10.8650074"><ele>467.99999999999994</ele><time>2026-04-11T13:50:23.455Z</time></trkpt><trkpt lat="44.4071919" lon="10.8648753"><ele>468.0</ele><time>2026-04-11T13:50:24.486Z</time></trkpt><trkpt lat="44.4071967" lon="10.8647404"><ele>468.0</ele><time>2026-04-11T13:50:25.472Z</time></trkpt><trkpt lat="44.407202" lon="10.8646012"><ele>468.6666666666667</ele><time>2026-04-11T13:50:26.476Z</time></trkpt><trkpt lat="44.4072073" lon="10.8644734"><ele>469.33333333333337</ele><time>2026-04-11T13:50:27.453Z</time></trkpt><trkpt lat="44.407212" lon="10.8643589"><ele>470.0</ele><time>2026-04-11T13:50:28.474Z</time></trkpt><trkpt lat="44.4072345" lon="10.864242"><ele>470.6666666666667</ele><time>2026-04-11T13:50:29.481Z</time></trkpt><trkpt lat="44.4072704" lon="10.8641316"><ele>471.33333333333337</ele><time>2026-04-11T13:50:30.48Z</time></trkpt><trkpt lat="44.4073212" lon="10.8640401"><ele>472.0</ele><time>2026-04-11T13:50:31.477Z</time></trkpt><trkpt lat="44.4073881" lon="10.8639412"><ele>472.25</ele><time>2026-04-11T13:50:32.484Z</time></trkpt><trkpt lat="44.4074653" lon="10.8638419"><ele>472.5</ele><time>2026-04-11T13:50:33.519Z</time></trkpt><trkpt lat="44.4075521" lon="10.8637278"><ele>472.75</ele><time>2026-04-11T13:50:34.488Z</time></trkpt><trkpt lat="44.4076438" lon="10.8636017"><ele>473.0</ele><time>2026-04-11T13:50:35.481Z</time></trkpt><trkpt lat="44.4077336" lon="10.8634705"><ele>473.0</ele><time>2026-04-11T13:50:36.479Z</time></trkpt><trkpt lat="44.4078289" lon="10.8633275"><ele>473.0</ele><time>2026-04-11T13:50:37.486Z</time></trkpt><trkpt lat="44.4079268" lon="10.8631812"><ele>473.0</ele><time>2026-04-11T13:50:38.477Z</time></trkpt><trkpt lat="44.4080259" lon="10.8630301"><ele>473.0</ele><time>2026-04-11T13:50:39.46Z</time></trkpt><trkpt lat="44.4081206" lon="10.862876"><ele>473.75</ele><time>2026-04-11T13:50:40.488Z</time></trkpt><trkpt lat="44.4082129" lon="10.8627364"><ele>474.5</ele><time>2026-04-11T13:50:41.469Z</time></trkpt><trkpt lat="44.408299" lon="10.8626048"><ele>475.25</ele><time>2026-04-11T13:50:42.504Z</time></trkpt><trkpt lat="44.4083765" lon="10.8624721"><ele>476.0</ele><time>2026-04-11T13:50:43.481Z</time></trkpt><trkpt lat="44.4084533" lon="10.8623436"><ele>477.5</ele><time>2026-04-11T13:50:44.484Z</time></trkpt><trkpt lat="44.408535" lon="10.8622145"><ele>479.0</ele><time>2026-04-11T13:50:45.478Z</time></trkpt><trkpt lat="44.4086147" lon="10.8620841"><ele>480.5</ele><time>2026-04-11T13:50:46.467Z</time></trkpt><trkpt lat="44.4086906" lon="10.8619611"><ele>482.0</ele><time>2026-04-11T13:50:47.478Z</time></trkpt><trkpt lat="44.4087582" lon="10.8618452"><ele>482.8</ele><time>2026-04-11T13:50:48.468Z</time></trkpt><trkpt lat="44.4088197" lon="10.8617381"><ele>483.6</ele><time>2026-04-11T13:50:49.461Z</time></trkpt><trkpt lat="44.4088596" lon="10.8616259"><ele>484.40000000000003</ele><time>2026-04-11T13:50:50.479Z</time></trkpt><trkpt lat="44.4088925" lon="10.861496"><ele>485.20000000000005</ele><time>2026-04-11T13:50:51.477Z</time></trkpt><trkpt lat="44.4089241" lon="10.8613624"><ele>486.0</ele><time>2026-04-11T13:50:52.49Z</time></trkpt><trkpt lat="44.4089592" lon="10.8612175"><ele>486.25</ele><time>2026-04-11T13:50:53.47Z</time></trkpt><trkpt lat="44.4089958" lon="10.8610568"><ele>486.5</ele><time>2026-04-11T13:50:54.476Z</time></trkpt><trkpt lat="44.4090332" lon="10.8608992"><ele>486.75</ele><time>2026-04-11T13:50:55.472Z</time></trkpt><trkpt lat="44.4090742" lon="10.8607545"><ele>487.0</ele><time>2026-04-11T13:50:56.478Z</time></trkpt><trkpt lat="44.4091113" lon="10.8606051"><ele>486.75</ele><time>2026-04-11T13:50:57.495Z</time></trkpt><trkpt lat="44.4091471" lon="10.8604513"><ele>486.5</ele><time>2026-04-11T13:50:58.48Z</time></trkpt><trkpt lat="44.409185" lon="10.8602966"><ele>486.25</ele><time>2026-04-11T13:50:59.493Z</time></trkpt><trkpt lat="44.4092303" lon="10.8601321"><ele>486.0</ele><time>2026-04-11T13:51:00.494Z</time></trkpt><trkpt lat="44.4092838" lon="10.8599684"><ele>486.0</ele><time>2026-04-11T13:51:01.486Z</time></trkpt><trkpt lat="44.4093381" lon="10.8598054"><ele>486.0</ele><time>2026-04-11T13:51:02.492Z</time></trkpt><trkpt lat="44.409407" lon="10.8596445"><ele>486.0</ele><time>2026-04-11T13:51:03.488Z</time></trkpt><trkpt lat="44.40947" lon="10.8595051"><ele>486.0</ele><time>2026-04-11T13:51:04.487Z</time></trkpt><trkpt lat="44.4095345" lon="10.8593811"><ele>486.20000000000005</ele><time>2026-04-11T13:51:05.449Z</time></trkpt><trkpt lat="44.4096011" lon="10.8592657"><ele>486.40000000000003</ele><time>2026-04-11T13:51:06.471Z</time></trkpt><trkpt lat="44.4096747" lon="10.8591642"><ele>486.6</ele><time>2026-04-11T13:51:07.506Z</time></trkpt><trkpt lat="44.4097541" lon="10.8590816"><ele>486.8</ele><time>2026-04-11T13:51:08.478Z</time></trkpt><trkpt lat="44.4098354" lon="10.8590278"><ele>487.0</ele><time>2026-04-11T13:51:09.497Z</time></trkpt><trkpt lat="44.4099067" lon="10.8590103"><ele>487.00000000000006</ele><time>2026-04-11T13:51:10.437Z</time></trkpt><trkpt lat="44.4099665" lon="10.8590396"><ele>487.0</ele><time>2026-04-11T13:51:11.479Z</time></trkpt><trkpt lat="44.410025" lon="10.8591103"><ele>487.0</ele><time>2026-04-11T13:51:12.478Z</time></trkpt><trkpt lat="44.4100792" lon="10.8592112"><ele>487.0</ele><time>2026-04-11T13:51:13.491Z</time></trkpt><trkpt lat="44.4101272" lon="10.8593151"><ele>487.00000000000006</ele><time>2026-04-11T13:51:14.498Z</time></trkpt><trkpt lat="44.4101787" lon="10.8594066"><ele>487.0</ele><time>2026-04-11T13:51:15.481Z</time></trkpt><trkpt lat="44.4102405" lon="10.8594881"><ele>488.0</ele><time>2026-04-11T13:51:16.46Z</time></trkpt><trkpt lat="44.4103121" lon="10.8595603"><ele>489.00000000000006</ele><time>2026-04-11T13:51:17.492Z</time></trkpt><trkpt lat="44.4103935" lon="10.859622"><ele>490.00000000000006</ele><time>2026-04-11T13:51:18.455Z</time></trkpt><trkpt lat="44.4104845" lon="10.859668"><ele>491.0</ele><time>2026-04-11T13:51:19.492Z</time></trkpt><trkpt lat="44.4105785" lon="10.8597141"><ele>492.0</ele><time>2026-04-11T13:51:20.495Z</time></trkpt><trkpt lat="44.4106876" lon="10.8597342"><ele>492.0</ele><time>2026-04-11T13:51:21.476Z</time></trkpt><trkpt lat="44.4108135" lon="10.8597457"><ele>492.0</ele><time>2026-04-11T13:51:22.483Z</time></trkpt><trkpt lat="44.4109572" lon="10.8597499"><ele>492.0</ele><time>2026-04-11T13:51:23.476Z</time></trkpt><trkpt lat="44.4111033" lon="10.8597556"><ele>492.0</ele><time>2026-04-11T13:51:24.463Z</time></trkpt><trkpt lat="44.4112317" lon="10.8597631"><ele>495.0</ele><time>2026-04-11T13:51:25.475Z</time></trkpt><trkpt lat="44.4113347" lon="10.8597616"><ele>498.00000000000006</ele><time>2026-04-11T13:51:26.463Z</time></trkpt><trkpt lat="44.411422" lon="10.8597359"><ele>501.00000000000006</ele><time>2026-04-11T13:51:27.478Z</time></trkpt><trkpt lat="44.4115083" lon="10.8597043"><ele>504.0</ele><time>2026-04-11T13:51:28.472Z</time></trkpt><trkpt lat="44.4115709" lon="10.859619"><ele>507.0</ele><time>2026-04-11T13:51:29.483Z</time></trkpt><trkpt lat="44.4116297" lon="10.8595084"><ele>507.0</ele><time>2026-04-11T13:51:30.524Z</time></trkpt><trkpt lat="44.4116853" lon="10.8593882"><ele>507.00000000000006</ele><time>2026-04-11T13:51:31.481Z</time></trkpt><trkpt lat="44.4117488" lon="10.8592719"><ele>507.00000000000006</ele><time>2026-04-11T13:51:32.502Z</time></trkpt><trkpt lat="44.4118262" lon="10.8591822"><ele>507.0</ele><time>2026-04-11T13:51:33.478Z</time></trkpt><trkpt lat="44.4119049" lon="10.8591114"><ele>507.0</ele><time>2026-04-11T13:51:34.444Z</time></trkpt><trkpt lat="44.4119647" lon="10.8590574"><ele>508.6</ele><time>2026-04-11T13:51:35.474Z</time></trkpt><trkpt lat="44.4120387" lon="10.8589919"><ele>510.20000000000005</ele><time>2026-04-11T13:51:37.485Z</time></trkpt><trkpt lat="44.4121056" lon="10.8589673"><ele>511.8</ele><time>2026-04-11T13:51:39.464Z</time></trkpt><trkpt lat="44.4122257" lon="10.8590128"><ele>513.4</ele><time>2026-04-11T13:51:41.522Z</time></trkpt><trkpt lat="44.4123028" lon="10.8590632"><ele>515.0</ele><time>2026-04-11T13:51:42.474Z</time></trkpt><trkpt lat="44.4123803" lon="10.8591196"><ele>516.8</ele><time>2026-04-11T13:51:43.482Z</time></trkpt><trkpt lat="44.4124613" lon="10.8591755"><ele>518.6</ele><time>2026-04-11T13:51:44.472Z</time></trkpt><trkpt lat="44.4125476" lon="10.8592315"><ele>520.4</ele><time>2026-04-11T13:51:45.479Z</time></trkpt><trkpt lat="44.4126332" lon="10.8592881"><ele>522.2</ele><time>2026-04-11T13:51:46.464Z</time></trkpt><trkpt lat="44.4127134" lon="10.8593514"><ele>524.0</ele><time>2026-04-11T13:51:47.521Z</time></trkpt><trkpt lat="44.4127923" lon="10.8594302"><ele>524.0</ele><time>2026-04-11T13:51:48.483Z</time></trkpt><trkpt lat="44.4128796" lon="10.8595369"><ele>524.0</ele><time>2026-04-11T13:51:49.5Z</time></trkpt><trkpt lat="44.4129666" lon="10.8596517"><ele>524.0</ele><time>2026-04-11T13:51:50.441Z</time></trkpt><trkpt lat="44.4130478" lon="10.8597629"><ele>524.0</ele><time>2026-04-11T13:51:51.446Z</time></trkpt><trkpt lat="44.4131295" lon="10.8598658"><ele>524.75</ele><time>2026-04-11T13:51:52.475Z</time></trkpt><trkpt lat="44.4132187" lon="10.8599645"><ele>525.5</ele><time>2026-04-11T13:51:53.504Z</time></trkpt><trkpt lat="44.4133202" lon="10.8600626"><ele>526.25</ele><time>2026-04-11T13:51:54.473Z</time></trkpt><trkpt lat="44.4134221" lon="10.860154"><ele>527.0</ele><time>2026-04-11T13:51:55.476Z</time></trkpt><trkpt lat="44.413522" lon="10.8602416"><ele>525.8000000000001</ele><time>2026-04-11T13:51:56.47Z</time></trkpt><trkpt lat="44.4136183" lon="10.8603297"><ele>524.6</ele><time>2026-04-11T13:51:57.437Z</time></trkpt><trkpt lat="44.4137101" lon="10.860421"><ele>523.4000000000001</ele><time>2026-04-11T13:51:58.499Z</time></trkpt><trkpt lat="44.4138007" lon="10.8605097"><ele>522.2</ele><time>2026-04-11T13:51:59.458Z</time></trkpt><trkpt lat="44.4138941" lon="10.8605913"><ele>521.0</ele><time>2026-04-11T13:52:00.463Z</time></trkpt><trkpt lat="44.4139822" lon="10.8606569"><ele>520.6</ele><time>2026-04-11T13:52:01.472Z</time></trkpt><trkpt lat="44.4140602" lon="10.8607064"><ele>520.2</ele><time>2026-04-11T13:52:02.475Z</time></trkpt><trkpt lat="44.4141279" lon="10.8607389"><ele>519.8</ele><time>2026-04-11T13:52:03.482Z</time></trkpt><trkpt lat="44.4142343" lon="10.8607194"><ele>519.4</ele><time>2026-04-11T13:52:05.511Z</time></trkpt><trkpt lat="44.414271" lon="10.8605522"><ele>519.0</ele><time>2026-04-11T13:52:07.485Z</time></trkpt><trkpt lat="44.4142667" lon="10.8604211"><ele>519.0</ele><time>2026-04-11T13:52:08.483Z</time></trkpt><trkpt lat="44.4142663" lon="10.8602786"><ele>519.0</ele><time>2026-04-11T13:52:09.487Z</time></trkpt><trkpt lat="44.4142722" lon="10.8601293"><ele>519.0</ele><time>2026-04-11T13:52:10.487Z</time></trkpt><trkpt lat="44.414281" lon="10.8599819"><ele>519.0</ele><time>2026-04-11T13:52:11.437Z</time></trkpt><trkpt lat="44.4142895" lon="10.8598374"><ele>519.0</ele><time>2026-04-11T13:52:12.471Z</time></trkpt><trkpt lat="44.4142981" lon="10.8596879"><ele>519.0</ele><time>2026-04-11T13:52:13.485Z</time></trkpt><trkpt lat="44.414309" lon="10.8595231"><ele>519.0</ele><time>2026-04-11T13:52:14.467Z</time></trkpt><trkpt lat="44.4143247" lon="10.8593457"><ele>519.0</ele><time>2026-04-11T13:52:15.472Z</time></trkpt><trkpt lat="44.4143435" lon="10.8591749"><ele>519.0</ele><time>2026-04-11T13:52:16.511Z</time></trkpt><trkpt lat="44.4143626" lon="10.8590102"><ele>518.2</ele><time>2026-04-11T13:52:17.514Z</time></trkpt><trkpt lat="44.414383" lon="10.8588521"><ele>517.4</ele><time>2026-04-11T13:52:18.509Z</time></trkpt><trkpt lat="44.4144101" lon="10.8587035"><ele>516.6</ele><time>2026-04-11T13:52:19.5Z</time></trkpt><trkpt lat="44.414448" lon="10.858578"><ele>515.8</ele><time>2026-04-11T13:52:20.481Z</time></trkpt><trkpt lat="44.4145023" lon="10.8584718"><ele>515.0</ele><time>2026-04-11T13:52:21.519Z</time></trkpt><trkpt lat="44.4145625" lon="10.8583744"><ele>514.6</ele><time>2026-04-11T13:52:22.489Z</time></trkpt><trkpt lat="44.4146135" lon="10.8582709"><ele>514.2</ele><time>2026-04-11T13:52:23.5Z</time></trkpt><trkpt lat="44.4146489" lon="10.8581548"><ele>513.8</ele><time>2026-04-11T13:52:24.499Z</time></trkpt><trkpt lat="44.4146677" lon="10.8580301"><ele>513.4</ele><time>2026-04-11T13:52:25.48Z</time></trkpt><trkpt lat="44.4146755" lon="10.8579012"><ele>513.0</ele><time>2026-04-11T13:52:26.488Z</time></trkpt><trkpt lat="44.4146826" lon="10.8577723"><ele>512.5714285714287</ele><time>2026-04-11T13:52:27.505Z</time></trkpt><trkpt lat="44.414688" lon="10.8576536"><ele>512.1428571428571</ele><time>2026-04-11T13:52:28.492Z</time></trkpt><trkpt lat="44.4146848" lon="10.8575485"><ele>511.7142857142858</ele><time>2026-04-11T13:52:29.496Z</time></trkpt><trkpt lat="44.4146671" lon="10.8574577"><ele>511.28571428571433</ele><time>2026-04-11T13:52:30.481Z</time></trkpt><trkpt lat="44.4146284" lon="10.8573854"><ele>510.8571428571429</ele><time>2026-04-11T13:52:31.493Z</time></trkpt><trkpt lat="44.4145665" lon="10.857334"><ele>510.42857142857144</ele><time>2026-04-11T13:52:32.492Z</time></trkpt><trkpt lat="44.4144987" lon="10.8572818"><ele>510.0</ele><time>2026-04-11T13:52:33.503Z</time></trkpt><trkpt lat="44.4144049" lon="10.8572519"><ele>509.5</ele><time>2026-04-11T13:52:34.452Z</time></trkpt><trkpt lat="44.4143072" lon="10.8572097"><ele>509.0</ele><time>2026-04-11T13:52:35.476Z</time></trkpt><trkpt lat="44.4142147" lon="10.8571625"><ele>508.5</ele><time>2026-04-11T13:52:36.477Z</time></trkpt><trkpt lat="44.4141323" lon="10.8571071"><ele>508.0</ele><time>2026-04-11T13:52:37.473Z</time></trkpt><trkpt lat="44.4140732" lon="10.8570414"><ele>507.5</ele><time>2026-04-11T13:52:38.454Z</time></trkpt><trkpt lat="44.4140402" lon="10.8569556"><ele>507.0</ele><time>2026-04-11T13:52:39.478Z</time></trkpt><trkpt lat="44.4140367" lon="10.8568541"><ele>506.8333333333333</ele><time>2026-04-11T13:52:40.447Z</time></trkpt><trkpt lat="44.4140604" lon="10.8567414"><ele>506.66666666666663</ele><time>2026-04-11T13:52:41.484Z</time></trkpt><trkpt lat="44.4141045" lon="10.8566275"><ele>506.5</ele><time>2026-04-11T13:52:42.491Z</time></trkpt><trkpt lat="44.4141623" lon="10.8565244"><ele>506.3333333333333</ele><time>2026-04-11T13:52:43.475Z</time></trkpt><trkpt lat="44.4142225" lon="10.8564301"><ele>506.16666666666663</ele><time>2026-04-11T13:52:44.475Z</time></trkpt><trkpt lat="44.4142726" lon="10.8563386"><ele>506.0</ele><time>2026-04-11T13:52:45.466Z</time></trkpt><trkpt lat="44.4143207" lon="10.8562309"><ele>506.0</ele><time>2026-04-11T13:52:46.459Z</time></trkpt><trkpt lat="44.4143608" lon="10.8561046"><ele>506.0</ele><time>2026-04-11T13:52:47.468Z</time></trkpt><trkpt lat="44.4143942" lon="10.8559762"><ele>506.0</ele><time>2026-04-11T13:52:48.487Z</time></trkpt><trkpt lat="44.4144285" lon="10.8558516"><ele>506.0</ele><time>2026-04-11T13:52:49.498Z</time></trkpt><trkpt lat="44.4144689" lon="10.855742"><ele>506.0</ele><time>2026-04-11T13:52:50.482Z</time></trkpt><trkpt lat="44.4145201" lon="10.8556562"><ele>505.8333333333333</ele><time>2026-04-11T13:52:51.542Z</time></trkpt><trkpt lat="44.4145894" lon="10.8556062"><ele>505.66666666666663</ele><time>2026-04-11T13:52:52.487Z</time></trkpt><trkpt lat="44.4146746" lon="10.8555837"><ele>505.5</ele><time>2026-04-11T13:52:53.479Z</time></trkpt><trkpt lat="44.4147623" lon="10.8555757"><ele>505.33333333333337</ele><time>2026-04-11T13:52:54.493Z</time></trkpt><trkpt lat="44.4148386" lon="10.8555653"><ele>505.1666666666667</ele><time>2026-04-11T13:52:55.48Z</time></trkpt><trkpt lat="44.4149006" lon="10.8555319"><ele>505.0</ele><time>2026-04-11T13:52:56.456Z</time></trkpt><trkpt lat="44.4149576" lon="10.8553867"><ele>505.0</ele><time>2026-04-11T13:52:58.488Z</time></trkpt><trkpt lat="44.4149466" lon="10.8552812"><ele>505.0</ele><time>2026-04-11T13:52:59.483Z</time></trkpt><trkpt lat="44.4149329" lon="10.8551611"><ele>505.0</ele><time>2026-04-11T13:53:00.493Z</time></trkpt><trkpt lat="44.4148934" lon="10.8550195"><ele>505.0</ele><time>2026-04-11T13:53:01.486Z</time></trkpt><trkpt lat="44.414851" lon="10.8548631"><ele>505.0</ele><time>2026-04-11T13:53:02.492Z</time></trkpt><trkpt lat="44.4148097" lon="10.8547098"><ele>506.6</ele><time>2026-04-11T13:53:03.474Z</time></trkpt><trkpt lat="44.4147929" lon="10.854564"><ele>508.2</ele><time>2026-04-11T13:53:04.48Z</time></trkpt><trkpt lat="44.4147877" lon="10.8544153"><ele>509.79999999999995</ele><time>2026-04-11T13:53:05.502Z</time></trkpt><trkpt lat="44.4147965" lon="10.8542656"><ele>511.4</ele><time>2026-04-11T13:53:06.451Z</time></trkpt><trkpt lat="44.4148217" lon="10.8541188"><ele>513.0</ele><time>2026-04-11T13:53:07.453Z</time></trkpt><trkpt lat="44.4148663" lon="10.8539807"><ele>515.0</ele><time>2026-04-11T13:53:08.459Z</time></trkpt><trkpt lat="44.4149239" lon="10.853839"><ele>517.0</ele><time>2026-04-11T13:53:09.51Z</time></trkpt><trkpt lat="44.4149896" lon="10.8536986"><ele>519.0</ele><time>2026-04-11T13:53:10.461Z</time></trkpt><trkpt lat="44.4150582" lon="10.853579"><ele>521.0</ele><time>2026-04-11T13:53:11.472Z</time></trkpt><trkpt lat="44.4151219" lon="10.853473"><ele>523.0</ele><time>2026-04-11T13:53:12.454Z</time></trkpt><trkpt lat="44.4151781" lon="10.8533813"><ele>524.1666666666667</ele><time>2026-04-11T13:53:13.481Z</time></trkpt><trkpt lat="44.4152194" lon="10.8532768"><ele>525.3333333333334</ele><time>2026-04-11T13:53:14.497Z</time></trkpt><trkpt lat="44.4152396" lon="10.8531682"><ele>526.5</ele><time>2026-04-11T13:53:15.514Z</time></trkpt><trkpt lat="44.415247" lon="10.8530515"><ele>527.6666666666666</ele><time>2026-04-11T13:53:16.463Z</time></trkpt><trkpt lat="44.415256" lon="10.8529404"><ele>528.8333333333333</ele><time>2026-04-11T13:53:17.486Z</time></trkpt><trkpt lat="44.4152676" lon="10.8528474"><ele>530.0</ele><time>2026-04-11T13:53:18.505Z</time></trkpt><trkpt lat="44.4152956" lon="10.8527662"><ele>530.0</ele><time>2026-04-11T13:53:19.482Z</time></trkpt><trkpt lat="44.4153522" lon="10.8527066"><ele>530.0</ele><time>2026-04-11T13:53:20.458Z</time></trkpt><trkpt lat="44.4154155" lon="10.8526445"><ele>530.0</ele><time>2026-04-11T13:53:21.461Z</time></trkpt><trkpt lat="44.4155126" lon="10.8526152"><ele>530.0</ele><time>2026-04-11T13:53:22.436Z</time></trkpt><trkpt lat="44.4156145" lon="10.8525798"><ele>530.0</ele><time>2026-04-11T13:53:23.45Z</time></trkpt><trkpt lat="44.4157075" lon="10.8525402"><ele>531.3333333333333</ele><time>2026-04-11T13:53:24.478Z</time></trkpt><trkpt lat="44.4157798" lon="10.8524927"><ele>532.6666666666666</ele><time>2026-04-11T13:53:25.476Z</time></trkpt><trkpt lat="44.4158291" lon="10.8524282"><ele>534.0</ele><time>2026-04-11T13:53:26.453Z</time></trkpt><trkpt lat="44.4158473" lon="10.852236"><ele>535.3333333333334</ele><time>2026-04-11T13:53:28.459Z</time></trkpt><trkpt lat="44.4158472" lon="10.8521297"><ele>536.6666666666667</ele><time>2026-04-11T13:53:29.481Z</time></trkpt><trkpt lat="44.4158611" lon="10.8520224"><ele>538.0</ele><time>2026-04-11T13:53:30.453Z</time></trkpt><trkpt lat="44.4158878" lon="10.8519309"><ele>538.0</ele><time>2026-04-11T13:53:31.47Z</time></trkpt><trkpt lat="44.4159484" lon="10.8517925"><ele>538.0</ele><time>2026-04-11T13:53:33.465Z</time></trkpt><trkpt lat="44.4159792" lon="10.8517117"><ele>538.0</ele><time>2026-04-11T13:53:35.464Z</time></trkpt><trkpt lat="44.415902" lon="10.8516093"><ele>538.0</ele><time>2026-04-11T13:53:38.437Z</time></trkpt><trkpt lat="44.4158339" lon="10.8515891"><ele>538.0</ele><time>2026-04-11T13:53:39.485Z</time></trkpt><trkpt lat="44.4157412" lon="10.8515779"><ele>539.1999999999999</ele><time>2026-04-11T13:53:40.486Z</time></trkpt><trkpt lat="44.4156454" lon="10.8515687"><ele>540.4</ele><time>2026-04-11T13:53:41.468Z</time></trkpt><trkpt lat="44.4155392" lon="10.8515566"><ele>541.5999999999999</ele><time>2026-04-11T13:53:42.491Z</time></trkpt><trkpt lat="44.415417" lon="10.8515383"><ele>542.8</ele><time>2026-04-11T13:53:43.477Z</time></trkpt><trkpt lat="44.4153027" lon="10.8515172"><ele>544.0</ele><time>2026-04-11T13:53:44.494Z</time></trkpt><trkpt lat="44.4151888" lon="10.8514935"><ele>544.5</ele><time>2026-04-11T13:53:45.485Z</time></trkpt><trkpt lat="44.4150718" lon="10.851458"><ele>545.0</ele><time>2026-04-11T13:53:46.487Z</time></trkpt><trkpt lat="44.4149508" lon="10.8514085"><ele>545.5</ele><time>2026-04-11T13:53:47.493Z</time></trkpt><trkpt lat="44.414833" lon="10.8513451"><ele>546.0</ele><time>2026-04-11T13:53:48.54Z</time></trkpt><trkpt lat="44.4147149" lon="10.8512638"><ele>545.5</ele><time>2026-04-11T13:53:49.466Z</time></trkpt><trkpt lat="44.414595" lon="10.8511662"><ele>545.0</ele><time>2026-04-11T13:53:50.457Z</time></trkpt><trkpt lat="44.4144868" lon="10.8510608"><ele>544.5</ele><time>2026-04-11T13:53:51.463Z</time></trkpt><trkpt lat="44.4143806" lon="10.8509406"><ele>544.0</ele><time>2026-04-11T13:53:52.47Z</time></trkpt><trkpt lat="44.4142746" lon="10.850809"><ele>545.75</ele><time>2026-04-11T13:53:53.49Z</time></trkpt><trkpt lat="44.4141676" lon="10.8506718"><ele>547.5</ele><time>2026-04-11T13:53:54.511Z</time></trkpt><trkpt lat="44.4140655" lon="10.8505414"><ele>549.25</ele><time>2026-04-11T13:53:55.464Z</time></trkpt><trkpt lat="44.4139711" lon="10.8504183"><ele>551.0</ele><time>2026-04-11T13:53:56.479Z</time></trkpt><trkpt lat="44.4138793" lon="10.8503068"><ele>551.0</ele><time>2026-04-11T13:53:57.495Z</time></trkpt><trkpt lat="44.4137827" lon="10.8502127"><ele>551.0</ele><time>2026-04-11T13:53:58.476Z</time></trkpt><trkpt lat="44.4136726" lon="10.8501385"><ele>551.0</ele><time>2026-04-11T13:53:59.493Z</time></trkpt><trkpt lat="44.4135513" lon="10.8500877"><ele>551.0</ele><time>2026-04-11T13:54:00.483Z</time></trkpt><trkpt lat="44.4134195" lon="10.8500562"><ele>552.5</ele><time>2026-04-11T13:54:01.474Z</time></trkpt><trkpt lat="44.4132929" lon="10.8500216"><ele>554.0</ele><time>2026-04-11T13:54:02.465Z</time></trkpt><trkpt lat="44.4131687" lon="10.8499714"><ele>555.5</ele><time>2026-04-11T13:54:03.494Z</time></trkpt><trkpt lat="44.4130469" lon="10.8499209"><ele>557.0</ele><time>2026-04-11T13:54:04.478Z</time></trkpt><trkpt lat="44.4129414" lon="10.849849"><ele>557.4</ele><time>2026-04-11T13:54:05.482Z</time></trkpt><trkpt lat="44.4128482" lon="10.8497673"><ele>557.8000000000001</ele><time>2026-04-11T13:54:06.483Z</time></trkpt><trkpt lat="44.4127696" lon="10.8496669"><ele>558.2</ele><time>2026-04-11T13:54:07.469Z</time></trkpt><trkpt lat="44.412705" lon="10.8495549"><ele>558.6</ele><time>2026-04-11T13:54:08.472Z</time></trkpt><trkpt lat="44.4126425" lon="10.8494297"><ele>559.0</ele><time>2026-04-11T13:54:09.493Z</time></trkpt><trkpt lat="44.4125818" lon="10.8493112"><ele>559.3333333333334</ele><time>2026-04-11T13:54:10.481Z</time></trkpt><trkpt lat="44.4125236" lon="10.8492062"><ele>559.6666666666667</ele><time>2026-04-11T13:54:11.474Z</time></trkpt><trkpt lat="44.4124594" lon="10.8491197"><ele>560.0</ele><time>2026-04-11T13:54:12.479Z</time></trkpt><trkpt lat="44.4124002" lon="10.8490577"><ele>560.3333333333334</ele><time>2026-04-11T13:54:13.466Z</time></trkpt><trkpt lat="44.4123445" lon="10.8490129"><ele>560.6666666666666</ele><time>2026-04-11T13:54:14.49Z</time></trkpt><trkpt lat="44.4122506" lon="10.8489381"><ele>561.0</ele><time>2026-04-11T13:54:16.473Z</time></trkpt><trkpt lat="44.4121994" lon="10.8488146"><ele>561.0</ele><time>2026-04-11T13:54:18.446Z</time></trkpt><trkpt lat="44.4121511" lon="10.8486526"><ele>561.0</ele><time>2026-04-11T13:54:20.474Z</time></trkpt><trkpt lat="44.4121255" lon="10.8485638"><ele>561.0</ele><time>2026-04-11T13:54:21.46Z</time></trkpt><trkpt lat="44.4120977" lon="10.8484665"><ele>561.0</ele><time>2026-04-11T13:54:22.471Z</time></trkpt><trkpt lat="44.4120673" lon="10.8483693"><ele>561.0</ele><time>2026-04-11T13:54:23.459Z</time></trkpt><trkpt lat="44.4120366" lon="10.8482687"><ele>561.0</ele><time>2026-04-11T13:54:24.459Z</time></trkpt><trkpt lat="44.4120047" lon="10.8481677"><ele>561.0</ele><time>2026-04-11T13:54:25.485Z</time></trkpt><trkpt lat="44.4119725" lon="10.8480706"><ele>561.0</ele><time>2026-04-11T13:54:26.478Z</time></trkpt><trkpt lat="44.4119451" lon="10.8479825"><ele>561.0</ele><time>2026-04-11T13:54:27.476Z</time></trkpt><trkpt lat="44.4119191" lon="10.8479009"><ele>561.0</ele><time>2026-04-11T13:54:28.45Z</time></trkpt><trkpt lat="44.4118718" lon="10.8477427"><ele>561.0</ele><time>2026-04-11T13:54:30.501Z</time></trkpt><trkpt lat="44.4118442" lon="10.8476493"><ele>561.0</ele><time>2026-04-11T13:54:31.507Z</time></trkpt><trkpt lat="44.4118152" lon="10.8475564"><ele>560.0</ele><time>2026-04-11T13:54:32.468Z</time></trkpt><trkpt lat="44.4117836" lon="10.8474647"><ele>559.0</ele><time>2026-04-11T13:54:33.476Z</time></trkpt><trkpt lat="44.4117517" lon="10.84738"><ele>558.0</ele><time>2026-04-11T13:54:34.483Z</time></trkpt><trkpt lat="44.411723" lon="10.8472916"><ele>557.0</ele><time>2026-04-11T13:54:35.491Z</time></trkpt><trkpt lat="44.4117006" lon="10.8472012"><ele>556.0</ele><time>2026-04-11T13:54:36.477Z</time></trkpt><trkpt lat="44.4116783" lon="10.8470973"><ele>555.0</ele><time>2026-04-11T13:54:37.461Z</time></trkpt><trkpt lat="44.4116522" lon="10.8469879"><ele>554.0</ele><time>2026-04-11T13:54:38.476Z</time></trkpt><trkpt lat="44.4116256" lon="10.8468839"><ele>553.1428571428571</ele><time>2026-04-11T13:54:39.456Z</time></trkpt><trkpt lat="44.4115971" lon="10.8467934"><ele>552.2857142857142</ele><time>2026-04-11T13:54:40.463Z</time></trkpt><trkpt lat="44.4115704" lon="10.8467058"><ele>551.4285714285714</ele><time>2026-04-11T13:54:41.485Z</time></trkpt><trkpt lat="44.4115403" lon="10.8466148"><ele>550.5714285714286</ele><time>2026-04-11T13:54:42.497Z</time></trkpt><trkpt lat="44.4115072" lon="10.8465196"><ele>549.7142857142858</ele><time>2026-04-11T13:54:43.461Z</time></trkpt><trkpt lat="44.4114604" lon="10.8464286"><ele>548.8571428571429</ele><time>2026-04-11T13:54:44.508Z</time></trkpt><trkpt lat="44.4114166" lon="10.8463338"><ele>548.0</ele><time>2026-04-11T13:54:45.478Z</time></trkpt><trkpt lat="44.4113768" lon="10.8462394"><ele>548.0</ele><time>2026-04-11T13:54:46.486Z</time></trkpt><trkpt lat="44.4113399" lon="10.8461523"><ele>548.0</ele><time>2026-04-11T13:54:47.503Z</time></trkpt><trkpt lat="44.4113089" lon="10.8460733"><ele>548.0</ele><time>2026-04-11T13:54:48.487Z</time></trkpt><trkpt lat="44.4112734" lon="10.8459234"><ele>548.0</ele><time>2026-04-11T13:54:50.476Z</time></trkpt><trkpt lat="44.4113646" lon="10.8457887"><ele>548.0</ele><time>2026-04-11T13:54:52.473Z</time></trkpt><trkpt lat="44.4114469" lon="10.8457274"><ele>547.5</ele><time>2026-04-11T13:54:53.493Z</time></trkpt><trkpt lat="44.4115304" lon="10.8456663"><ele>547.0</ele><time>2026-04-11T13:54:54.489Z</time></trkpt><trkpt lat="44.4115975" lon="10.8456152"><ele>546.5</ele><time>2026-04-11T13:54:55.503Z</time></trkpt><trkpt lat="44.4116549" lon="10.8455755"><ele>546.0</ele><time>2026-04-11T13:54:56.49Z</time></trkpt><trkpt lat="44.4117403" lon="10.8455102"><ele>545.5</ele><time>2026-04-11T13:54:58.475Z</time></trkpt><trkpt lat="44.4118079" lon="10.8454558"><ele>545.0</ele><time>2026-04-11T13:55:04.494Z</time></trkpt><trkpt lat="44.4118652" lon="10.8453626"><ele>545.0</ele><time>2026-04-11T13:55:06.455Z</time></trkpt><trkpt lat="44.4119698" lon="10.8452136"><ele>545.0</ele><time>2026-04-11T13:55:08.473Z</time></trkpt><trkpt lat="44.412057" lon="10.8451229"><ele>545.0</ele><time>2026-04-11T13:55:09.474Z</time></trkpt><trkpt lat="44.4121468" lon="10.8450323"><ele>545.0</ele><time>2026-04-11T13:55:10.474Z</time></trkpt><trkpt lat="44.4122367" lon="10.8449384"><ele>547.25</ele><time>2026-04-11T13:55:11.477Z</time></trkpt><trkpt lat="44.41233" lon="10.8448488"><ele>549.5</ele><time>2026-04-11T13:55:12.476Z</time></trkpt><trkpt lat="44.4124404" lon="10.844773"><ele>551.75</ele><time>2026-04-11T13:55:13.514Z</time></trkpt><trkpt lat="44.4125452" lon="10.8446888"><ele>554.0</ele><time>2026-04-11T13:55:14.476Z</time></trkpt><trkpt lat="44.4126502" lon="10.8446317"><ele>554.0</ele><time>2026-04-11T13:55:15.485Z</time></trkpt><trkpt lat="44.4127441" lon="10.8445841"><ele>554.0</ele><time>2026-04-11T13:55:16.479Z</time></trkpt><trkpt lat="44.4128406" lon="10.8445578"><ele>554.0</ele><time>2026-04-11T13:55:17.489Z</time></trkpt><trkpt lat="44.4129603" lon="10.8445762"><ele>554.0</ele><time>2026-04-11T13:55:18.482Z</time></trkpt><trkpt lat="44.4130817" lon="10.8446146"><ele>554.0</ele><time>2026-04-11T13:55:19.521Z</time></trkpt><trkpt lat="44.413194" lon="10.8446528"><ele>555.0</ele><time>2026-04-11T13:55:20.481Z</time></trkpt><trkpt lat="44.4133058" lon="10.8446915"><ele>556.0</ele><time>2026-04-11T13:55:21.482Z</time></trkpt><trkpt lat="44.4134078" lon="10.8447273"><ele>557.0</ele><time>2026-04-11T13:55:22.47Z</time></trkpt><trkpt lat="44.4135021" lon="10.8447614"><ele>558.0</ele><time>2026-04-11T13:55:23.486Z</time></trkpt><trkpt lat="44.4135836" lon="10.8447872"><ele>559.0</ele><time>2026-04-11T13:55:24.466Z</time></trkpt><trkpt lat="44.4136858" lon="10.8447435"><ele>559.0</ele><time>2026-04-11T13:55:26.465Z</time></trkpt><trkpt lat="44.4137222" lon="10.8445558"><ele>559.0</ele><time>2026-04-11T13:55:28.466Z</time></trkpt><trkpt lat="44.4137133" lon="10.8444156"><ele>559.0</ele><time>2026-04-11T13:55:29.489Z</time></trkpt><trkpt lat="44.413707" lon="10.8442777"><ele>559.0</ele><time>2026-04-11T13:55:30.489Z</time></trkpt><trkpt lat="44.4137001" lon="10.8441434"><ele>559.0</ele><time>2026-04-11T13:55:31.492Z</time></trkpt><trkpt lat="44.4136959" lon="10.8440136"><ele>560.6</ele><time>2026-04-11T13:55:32.481Z</time></trkpt><trkpt lat="44.4136959" lon="10.8438804"><ele>562.2</ele><time>2026-04-11T13:55:33.476Z</time></trkpt><trkpt lat="44.4137036" lon="10.84374"><ele>563.8000000000001</ele><time>2026-04-11T13:55:34.477Z</time></trkpt><trkpt lat="44.4137261" lon="10.8435976"><ele>565.4</ele><time>2026-04-11T13:55:35.48Z</time></trkpt><trkpt lat="44.4137488" lon="10.8434581"><ele>567.0</ele><time>2026-04-11T13:55:36.475Z</time></trkpt><trkpt lat="44.413788" lon="10.8433326"><ele>567.8571428571429</ele><time>2026-04-11T13:55:37.475Z</time></trkpt><trkpt lat="44.4138212" lon="10.8432188"><ele>568.7142857142858</ele><time>2026-04-11T13:55:38.479Z</time></trkpt><trkpt lat="44.413848" lon="10.8431226"><ele>569.5714285714286</ele><time>2026-04-11T13:55:39.478Z</time></trkpt><trkpt lat="44.4138693" lon="10.8430348"><ele>570.4285714285714</ele><time>2026-04-11T13:55:40.48Z</time></trkpt><trkpt lat="44.4139097" lon="10.8429481"><ele>571.2857142857143</ele><time>2026-04-11T13:55:41.493Z</time></trkpt><trkpt lat="44.41395" lon="10.8428685"><ele>572.1428571428571</ele><time>2026-04-11T13:55:42.472Z</time></trkpt><trkpt lat="44.4140114" lon="10.8428222"><ele>573.0</ele><time>2026-04-11T13:55:43.503Z</time></trkpt><trkpt lat="44.4140805" lon="10.8427873"><ele>573.0</ele><time>2026-04-11T13:55:44.472Z</time></trkpt><trkpt lat="44.4141541" lon="10.8427559"><ele>573.0</ele><time>2026-04-11T13:55:45.471Z</time></trkpt><trkpt lat="44.4142262" lon="10.8427352"><ele>573.0</ele><time>2026-04-11T13:55:46.467Z</time></trkpt><trkpt lat="44.4142936" lon="10.8427108"><ele>573.0</ele><time>2026-04-11T13:55:47.493Z</time></trkpt><trkpt lat="44.4143563" lon="10.8426839"><ele>573.0</ele><time>2026-04-11T13:55:48.479Z</time></trkpt><trkpt lat="44.4144179" lon="10.8426526"><ele>573.0</ele><time>2026-04-11T13:55:49.478Z</time></trkpt><trkpt lat="44.4144867" lon="10.8425985"><ele>573.0</ele><time>2026-04-11T13:55:50.464Z</time></trkpt><trkpt lat="44.4145514" lon="10.8425452"><ele>575.1666666666666</ele><time>2026-04-11T13:55:51.468Z</time></trkpt><trkpt lat="44.4146173" lon="10.8425242"><ele>577.3333333333334</ele><time>2026-04-11T13:55:52.461Z</time></trkpt><trkpt lat="44.4147033" lon="10.8425404"><ele>579.5</ele><time>2026-04-11T13:55:53.483Z</time></trkpt><trkpt lat="44.4147979" lon="10.842562"><ele>581.6666666666667</ele><time>2026-04-11T13:55:54.476Z</time></trkpt><trkpt lat="44.4149025" lon="10.8425865"><ele>583.8333333333334</ele><time>2026-04-11T13:55:55.467Z</time></trkpt><trkpt lat="44.4149861" lon="10.8425947"><ele>586.0</ele><time>2026-04-11T13:55:56.485Z</time></trkpt><trkpt lat="44.415064" lon="10.8425898"><ele>586.3333333333334</ele><time>2026-04-11T13:55:57.49Z</time></trkpt><trkpt lat="44.415141" lon="10.8425765"><ele>586.6666666666667</ele><time>2026-04-11T13:55:58.471Z</time></trkpt><trkpt lat="44.4152306" lon="10.8425183"><ele>587.0</ele><time>2026-04-11T13:55:59.467Z</time></trkpt><trkpt lat="44.415308" lon="10.8424612"><ele>587.3333333333334</ele><time>2026-04-11T13:56:00.475Z</time></trkpt><trkpt lat="44.4153714" lon="10.8424124"><ele>587.6666666666666</ele><time>2026-04-11T13:56:01.451Z</time></trkpt><trkpt lat="44.4154642" lon="10.8423466"><ele>588.0</ele><time>2026-04-11T13:56:03.473Z</time></trkpt><trkpt lat="44.4154566" lon="10.8422478"><ele>588.0</ele><time>2026-04-11T13:56:07.475Z</time></trkpt><trkpt lat="44.4153924" lon="10.8422665"><ele>588.0</ele><time>2026-04-11T13:56:08.477Z</time></trkpt><trkpt lat="44.4153215" lon="10.8422725"><ele>588.0</ele><time>2026-04-11T13:56:09.464Z</time></trkpt><trkpt lat="44.415253" lon="10.8422612"><ele>588.0</ele><time>2026-04-11T13:56:10.474Z</time></trkpt><trkpt lat="44.4151907" lon="10.8422354"><ele>588.0</ele><time>2026-04-11T13:56:11.455Z</time></trkpt><trkpt lat="44.4150991" lon="10.8421449"><ele>588.0</ele><time>2026-04-11T13:56:13.471Z</time></trkpt><trkpt lat="44.4150708" lon="10.8419824"><ele>588.0</ele><time>2026-04-11T13:56:15.462Z</time></trkpt><trkpt lat="44.415073" lon="10.8418796"><ele>588.0</ele><time>2026-04-11T13:56:16.457Z</time></trkpt><trkpt lat="44.4150924" lon="10.8417622"><ele>588.0</ele><time>2026-04-11T13:56:17.457Z</time></trkpt><trkpt lat="44.4151211" lon="10.8416364"><ele>588.0</ele><time>2026-04-11T13:56:18.483Z</time></trkpt><trkpt lat="44.4151484" lon="10.8415312"><ele>588.0</ele><time>2026-04-11T13:56:19.493Z</time></trkpt><trkpt lat="44.4151814" lon="10.8414324"><ele>588.0</ele><time>2026-04-11T13:56:20.475Z</time></trkpt><trkpt lat="44.41522" lon="10.8413385"><ele>590.5714285714286</ele><time>2026-04-11T13:56:21.487Z</time></trkpt><trkpt lat="44.4152623" lon="10.8412671"><ele>593.1428571428571</ele><time>2026-04-11T13:56:22.474Z</time></trkpt><trkpt lat="44.4153103" lon="10.8412039"><ele>595.7142857142858</ele><time>2026-04-11T13:56:23.47Z</time></trkpt><trkpt lat="44.4153666" lon="10.8411634"><ele>598.2857142857142</ele><time>2026-04-11T13:56:24.483Z</time></trkpt><trkpt lat="44.4154283" lon="10.84111"><ele>600.8571428571429</ele><time>2026-04-11T13:56:25.456Z</time></trkpt><trkpt lat="44.4154981" lon="10.841056"><ele>603.4285714285714</ele><time>2026-04-11T13:56:26.518Z</time></trkpt><trkpt lat="44.4155604" lon="10.841018"><ele>606.0</ele><time>2026-04-11T13:56:27.473Z</time></trkpt><trkpt lat="44.415664" lon="10.8409866"><ele>609.2</ele><time>2026-04-11T13:56:29.484Z</time></trkpt><trkpt lat="44.4157467" lon="10.8410419"><ele>612.4000000000001</ele><time>2026-04-11T13:56:31.482Z</time></trkpt><trkpt lat="44.4158108" lon="10.8410864"><ele>615.6</ele><time>2026-04-11T13:56:34.471Z</time></trkpt><trkpt lat="44.4157706" lon="10.8409799"><ele>618.8000000000001</ele><time>2026-04-11T13:56:38.412Z</time></trkpt><trkpt lat="44.4157042" lon="10.8408863"><ele>622.0</ele><time>2026-04-11T13:56:40.434Z</time></trkpt><trkpt lat="44.415641" lon="10.8407479"><ele>622.0</ele><time>2026-04-11T13:56:42.437Z</time></trkpt><trkpt lat="44.4155718" lon="10.8406064"><ele>622.0</ele><time>2026-04-11T13:56:44.446Z</time></trkpt><trkpt lat="44.4154948" lon="10.8404781"><ele>622.0</ele><time>2026-04-11T13:56:46.416Z</time></trkpt><trkpt lat="44.4154536" lon="10.8404093"><ele>622.0</ele><time>2026-04-11T13:56:47.467Z</time></trkpt><trkpt lat="44.4154138" lon="10.8403378"><ele>622.0</ele><time>2026-04-11T13:56:48.439Z</time></trkpt><trkpt lat="44.4153722" lon="10.8402706"><ele>622.0</ele><time>2026-04-11T13:56:49.434Z</time></trkpt><trkpt lat="44.4153278" lon="10.8401606"><ele>625.1428571428571</ele><time>2026-04-11T13:56:51.465Z</time></trkpt><trkpt lat="44.4152832" lon="10.8400742"><ele>628.2857142857143</ele><time>2026-04-11T13:56:57.426Z</time></trkpt><trkpt lat="44.4152372" lon="10.8400131"><ele>631.4285714285714</ele><time>2026-04-11T13:57:00.432Z</time></trkpt><trkpt lat="44.4151869" lon="10.8399373"><ele>634.5714285714286</ele><time>2026-04-11T13:57:02.463Z</time></trkpt><trkpt lat="44.4151233" lon="10.8398876"><ele>637.7142857142858</ele><time>2026-04-11T13:57:04.451Z</time></trkpt><trkpt lat="44.4150604" lon="10.8398713"><ele>640.8571428571429</ele><time>2026-04-11T13:57:06.501Z</time></trkpt><trkpt lat="44.4149743" lon="10.8398441"><ele>644.0</ele><time>2026-04-11T13:57:08.424Z</time></trkpt><trkpt lat="44.4148879" lon="10.8398241"><ele>644.0</ele><time>2026-04-11T13:57:10.478Z</time></trkpt><trkpt lat="44.4147994" lon="10.839789"><ele>644.0</ele><time>2026-04-11T13:57:13.46Z</time></trkpt><trkpt lat="44.4147155" lon="10.8397402"><ele>644.0</ele><time>2026-04-11T13:57:16.479Z</time></trkpt><trkpt lat="44.4146377" lon="10.8396862"><ele>644.0</ele><time>2026-04-11T13:57:19.469Z</time></trkpt><trkpt lat="44.4145604" lon="10.8396908"><ele>644.0</ele><time>2026-04-11T13:57:22.472Z</time></trkpt><trkpt lat="44.4145002" lon="10.839773"><ele>644.0</ele><time>2026-04-11T13:57:24.455Z</time></trkpt><trkpt lat="44.4144275" lon="10.8398511"><ele>643.6</ele><time>2026-04-11T13:57:26.479Z</time></trkpt><trkpt lat="44.4143443" lon="10.839932"><ele>643.2</ele><time>2026-04-11T13:57:28.446Z</time></trkpt><trkpt lat="44.4142433" lon="10.8400226"><ele>642.8000000000001</ele><time>2026-04-11T13:57:30.467Z</time></trkpt><trkpt lat="44.4141625" lon="10.8401"><ele>642.4000000000001</ele><time>2026-04-11T13:57:32.456Z</time></trkpt><trkpt lat="44.4140726" lon="10.8401962"><ele>642.0</ele><time>2026-04-11T13:57:34.444Z</time></trkpt><trkpt lat="44.4140006" lon="10.8402617"><ele>640.0</ele><time>2026-04-11T13:57:36.471Z</time></trkpt><trkpt lat="44.4139149" lon="10.8402579"><ele>638.0</ele><time>2026-04-11T13:57:38.457Z</time></trkpt><trkpt lat="44.413813" lon="10.8401871"><ele>636.0</ele><time>2026-04-11T13:57:40.544Z</time></trkpt><trkpt lat="44.4137609" lon="10.8401368"><ele>634.0</ele><time>2026-04-11T13:57:41.49Z</time></trkpt><trkpt lat="44.4137072" lon="10.8400711"><ele>632.0</ele><time>2026-04-11T13:57:42.479Z</time></trkpt><trkpt lat="44.4136516" lon="10.8399946"><ele>630.0</ele><time>2026-04-11T13:57:43.485Z</time></trkpt><trkpt lat="44.4135946" lon="10.8399106"><ele>630.0</ele><time>2026-04-11T13:57:44.478Z</time></trkpt><trkpt lat="44.4135384" lon="10.8398271"><ele>630.0</ele><time>2026-04-11T13:57:45.467Z</time></trkpt><trkpt lat="44.4134791" lon="10.8397399"><ele>630.0</ele><time>2026-04-11T13:57:46.522Z</time></trkpt><trkpt lat="44.4134211" lon="10.8396513"><ele>630.0</ele><time>2026-04-11T13:57:47.486Z</time></trkpt><trkpt lat="44.4133645" lon="10.8395652"><ele>630.0</ele><time>2026-04-11T13:57:48.489Z</time></trkpt><trkpt lat="44.4133058" lon="10.8394813"><ele>630.0</ele><time>2026-04-11T13:57:49.485Z</time></trkpt><trkpt lat="44.4132513" lon="10.8394029"><ele>630.0</ele><time>2026-04-11T13:57:50.429Z</time></trkpt><trkpt lat="44.4131977" lon="10.8393166"><ele>630.0</ele><time>2026-04-11T13:57:51.478Z</time></trkpt><trkpt lat="44.4131429" lon="10.839226"><ele>630.0</ele><time>2026-04-11T13:57:52.477Z</time></trkpt><trkpt lat="44.4130904" lon="10.8391355"><ele>630.0</ele><time>2026-04-11T13:57:53.49Z</time></trkpt><trkpt lat="44.4130404" lon="10.83905"><ele>630.0</ele><time>2026-04-11T13:57:54.466Z</time></trkpt><trkpt lat="44.412986" lon="10.8389583"><ele>630.0</ele><time>2026-04-11T13:57:55.498Z</time></trkpt><trkpt lat="44.4129324" lon="10.8388683"><ele>629.0</ele><time>2026-04-11T13:57:56.451Z</time></trkpt><trkpt lat="44.4128781" lon="10.8387858"><ele>628.0</ele><time>2026-04-11T13:57:57.429Z</time></trkpt><trkpt lat="44.4128215" lon="10.8387245"><ele>627.0</ele><time>2026-04-11T13:57:58.464Z</time></trkpt><trkpt lat="44.4127595" lon="10.8386771"><ele>626.0</ele><time>2026-04-11T13:57:59.434Z</time></trkpt><trkpt lat="44.4126936" lon="10.8386524"><ele>625.0</ele><time>2026-04-11T13:58:00.441Z</time></trkpt><trkpt lat="44.4126186" lon="10.8386364"><ele>624.0</ele><time>2026-04-11T13:58:01.447Z</time></trkpt><trkpt lat="44.4125336" lon="10.8386255"><ele>624.0</ele><time>2026-04-11T13:58:02.471Z</time></trkpt><trkpt lat="44.4124523" lon="10.8386172"><ele>624.0</ele><time>2026-04-11T13:58:03.498Z</time></trkpt><trkpt lat="44.4123753" lon="10.8386137"><ele>624.0</ele><time>2026-04-11T13:58:04.476Z</time></trkpt><trkpt lat="44.4123067" lon="10.8386073"><ele>624.0</ele><time>2026-04-11T13:58:05.478Z</time></trkpt><trkpt lat="44.4121915" lon="10.8385928"><ele>624.0</ele><time>2026-04-11T13:58:07.458Z</time></trkpt><trkpt lat="44.4121028" lon="10.8385509"><ele>624.0</ele><time>2026-04-11T13:58:09.458Z</time></trkpt><trkpt lat="44.4120052" lon="10.8384374"><ele>624.8333333333334</ele><time>2026-04-11T13:58:11.439Z</time></trkpt><trkpt lat="44.4119584" lon="10.8383418"><ele>625.6666666666666</ele><time>2026-04-11T13:58:12.478Z</time></trkpt><trkpt lat="44.4119076" lon="10.8382534"><ele>626.5</ele><time>2026-04-11T13:58:13.468Z</time></trkpt><trkpt lat="44.411843" lon="10.8381949"><ele>627.3333333333333</ele><time>2026-04-11T13:58:14.489Z</time></trkpt><trkpt lat="44.4117706" lon="10.8381368"><ele>628.1666666666666</ele><time>2026-04-11T13:58:15.527Z</time></trkpt><trkpt lat="44.4116729" lon="10.8381264"><ele>629.0</ele><time>2026-04-11T13:58:16.432Z</time></trkpt><trkpt lat="44.4115651" lon="10.8381153"><ele>629.0</ele><time>2026-04-11T13:58:17.433Z</time></trkpt><trkpt lat="44.4114494" lon="10.838113"><ele>629.0</ele><time>2026-04-11T13:58:18.462Z</time></trkpt><trkpt lat="44.4113387" lon="10.8381305"><ele>629.0</ele><time>2026-04-11T13:58:19.443Z</time></trkpt><trkpt lat="44.4112464" lon="10.8381629"><ele>629.0</ele><time>2026-04-11T13:58:20.441Z</time></trkpt><trkpt lat="44.4111635" lon="10.8381958"><ele>629.0</ele><time>2026-04-11T13:58:21.444Z</time></trkpt><trkpt lat="44.4110892" lon="10.8382273"><ele>629.1666666666666</ele><time>2026-04-11T13:58:22.456Z</time></trkpt><trkpt lat="44.4110214" lon="10.8382467"><ele>629.3333333333333</ele><time>2026-04-11T13:58:23.478Z</time></trkpt><trkpt lat="44.4109578" lon="10.8382426"><ele>629.5</ele><time>2026-04-11T13:58:24.469Z</time></trkpt><trkpt lat="44.410862" lon="10.8381776"><ele>629.6666666666666</ele><time>2026-04-11T13:58:26.525Z</time></trkpt><trkpt lat="44.41084" lon="10.8380839"><ele>629.8333333333334</ele><time>2026-04-11T13:58:27.471Z</time></trkpt><trkpt lat="44.4108166" lon="10.837961"><ele>630.0</ele><time>2026-04-11T13:58:28.47Z</time></trkpt><trkpt lat="44.4107967" lon="10.8378372"><ele>630.0</ele><time>2026-04-11T13:58:29.463Z</time></trkpt><trkpt lat="44.4107778" lon="10.8377303"><ele>630.0</ele><time>2026-04-11T13:58:30.487Z</time></trkpt><trkpt lat="44.4107624" lon="10.8376404"><ele>630.0</ele><time>2026-04-11T13:58:31.481Z</time></trkpt><trkpt lat="44.4107397" lon="10.8375023"><ele>630.0</ele><time>2026-04-11T13:58:33.458Z</time></trkpt><trkpt lat="44.4107501" lon="10.8373978"><ele>630.0</ele><time>2026-04-11T13:58:36.454Z</time></trkpt><trkpt lat="44.4108237" lon="10.8374203"><ele>630.0</ele><time>2026-04-11T13:58:38.47Z</time></trkpt><trkpt lat="44.4109531" lon="10.8374925"><ele>631.8</ele><time>2026-04-11T13:58:40.453Z</time></trkpt><trkpt lat="44.4110431" lon="10.8375122"><ele>633.6</ele><time>2026-04-11T13:58:41.494Z</time></trkpt><trkpt lat="44.411141" lon="10.8375071"><ele>635.4</ele><time>2026-04-11T13:58:42.446Z</time></trkpt><trkpt lat="44.4112391" lon="10.8374784"><ele>637.2</ele><time>2026-04-11T13:58:43.438Z</time></trkpt><trkpt lat="44.4113239" lon="10.8374177"><ele>639.0</ele><time>2026-04-11T13:58:44.469Z</time></trkpt><trkpt lat="44.4113947" lon="10.8373227"><ele>639.3333333333334</ele><time>2026-04-11T13:58:45.475Z</time></trkpt><trkpt lat="44.4114488" lon="10.8372043"><ele>639.6666666666666</ele><time>2026-04-11T13:58:46.46Z</time></trkpt><trkpt lat="44.4114856" lon="10.8370779"><ele>640.0</ele><time>2026-04-11T13:58:47.479Z</time></trkpt><trkpt lat="44.4115062" lon="10.8369624"><ele>640.3333333333333</ele><time>2026-04-11T13:58:48.479Z</time></trkpt><trkpt lat="44.4115198" lon="10.8368597"><ele>640.6666666666666</ele><time>2026-04-11T13:58:49.515Z</time></trkpt><trkpt lat="44.4115244" lon="10.8367593"><ele>641.0</ele><time>2026-04-11T13:58:50.478Z</time></trkpt><trkpt lat="44.4115183" lon="10.8366607"><ele>642.6666666666666</ele><time>2026-04-11T13:58:51.463Z</time></trkpt><trkpt lat="44.4115074" lon="10.8365736"><ele>644.3333333333333</ele><time>2026-04-11T13:58:52.465Z</time></trkpt><trkpt lat="44.4115109" lon="10.8364035"><ele>646.0</ele><time>2026-04-11T13:58:54.474Z</time></trkpt><trkpt lat="44.4115392" lon="10.836302"><ele>647.6666666666666</ele><time>2026-04-11T13:58:55.466Z</time></trkpt><trkpt lat="44.4115764" lon="10.8361964"><ele>649.3333333333334</ele><time>2026-04-11T13:58:56.47Z</time></trkpt><trkpt lat="44.4116158" lon="10.8361023"><ele>651.0</ele><time>2026-04-11T13:58:57.474Z</time></trkpt><trkpt lat="44.4116625" lon="10.8360329"><ele>651.0</ele><time>2026-04-11T13:58:58.467Z</time></trkpt><trkpt lat="44.4117244" lon="10.8359944"><ele>651.0</ele><time>2026-04-11T13:58:59.456Z</time></trkpt><trkpt lat="44.4117862" lon="10.8359557"><ele>651.0</ele><time>2026-04-11T13:59:00.467Z</time></trkpt><trkpt lat="44.4118819" lon="10.8359501"><ele>651.0</ele><time>2026-04-11T13:59:01.446Z</time></trkpt><trkpt lat="44.4119922" lon="10.8359409"><ele>651.0</ele><time>2026-04-11T13:59:02.447Z</time></trkpt><trkpt lat="44.4121205" lon="10.8359284"><ele>654.75</ele><time>2026-04-11T13:59:03.431Z</time></trkpt><trkpt lat="44.4122389" lon="10.8359182"><ele>658.5</ele><time>2026-04-11T13:59:04.447Z</time></trkpt><trkpt lat="44.4123563" lon="10.8359088"><ele>662.25</ele><time>2026-04-11T13:59:05.427Z</time></trkpt><trkpt lat="44.4124789" lon="10.8359031"><ele>666.0</ele><time>2026-04-11T13:59:06.45Z</time></trkpt><trkpt lat="44.4125956" lon="10.8359092"><ele>666.0</ele><time>2026-04-11T13:59:07.51Z</time></trkpt><trkpt lat="44.4127024" lon="10.8359254"><ele>666.0</ele><time>2026-04-11T13:59:08.477Z</time></trkpt><trkpt lat="44.4127967" lon="10.8359483"><ele>666.0</ele><time>2026-04-11T13:59:09.479Z</time></trkpt><trkpt lat="44.4128752" lon="10.8359918"><ele>666.0</ele><time>2026-04-11T13:59:10.473Z</time></trkpt><trkpt lat="44.4129513" lon="10.8360385"><ele>666.0</ele><time>2026-04-11T13:59:11.466Z</time></trkpt><trkpt lat="44.4130183" lon="10.8361262"><ele>666.4</ele><time>2026-04-11T13:59:12.482Z</time></trkpt><trkpt lat="44.4131072" lon="10.8362156"><ele>666.8</ele><time>2026-04-11T13:59:13.537Z</time></trkpt><trkpt lat="44.4132075" lon="10.8363051"><ele>667.1999999999999</ele><time>2026-04-11T13:59:14.476Z</time></trkpt><trkpt lat="44.4133012" lon="10.836385"><ele>667.5999999999999</ele><time>2026-04-11T13:59:15.455Z</time></trkpt><trkpt lat="44.4133868" lon="10.8364523"><ele>668.0</ele><time>2026-04-11T13:59:16.46Z</time></trkpt><trkpt lat="44.4134736" lon="10.8365076"><ele>668.0</ele><time>2026-04-11T13:59:17.462Z</time></trkpt><trkpt lat="44.4135747" lon="10.8365425"><ele>668.0</ele><time>2026-04-11T13:59:18.463Z</time></trkpt><trkpt lat="44.4136868" lon="10.8365553"><ele>668.0</ele><time>2026-04-11T13:59:19.504Z</time></trkpt><trkpt lat="44.4138095" lon="10.8365649"><ele>668.0</ele><time>2026-04-11T13:59:20.484Z</time></trkpt><trkpt lat="44.4139201" lon="10.8365812"><ele>668.8</ele><time>2026-04-11T13:59:21.461Z</time></trkpt><trkpt lat="44.4140187" lon="10.8366056"><ele>669.5999999999999</ele><time>2026-04-11T13:59:22.488Z</time></trkpt><trkpt lat="44.4141112" lon="10.8366434"><ele>670.4000000000001</ele><time>2026-04-11T13:59:23.476Z</time></trkpt><trkpt lat="44.414197" lon="10.8366963"><ele>671.2</ele><time>2026-04-11T13:59:24.484Z</time></trkpt><trkpt lat="44.4142831" lon="10.8367577"><ele>672.0</ele><time>2026-04-11T13:59:25.546Z</time></trkpt><trkpt lat="44.4143738" lon="10.8368186"><ele>672.0</ele><time>2026-04-11T13:59:26.495Z</time></trkpt><trkpt lat="44.4144661" lon="10.8368797"><ele>672.0</ele><time>2026-04-11T13:59:27.507Z</time></trkpt><trkpt lat="44.4145761" lon="10.8369235"><ele>672.0</ele><time>2026-04-11T13:59:28.498Z</time></trkpt><trkpt lat="44.4146914" lon="10.8369511"><ele>672.0</ele><time>2026-04-11T13:59:29.475Z</time></trkpt><trkpt lat="44.4148139" lon="10.836961"><ele>672.0</ele><time>2026-04-11T13:59:30.497Z</time></trkpt><trkpt lat="44.4149483" lon="10.8369531"><ele>672.0</ele><time>2026-04-11T13:59:31.48Z</time></trkpt><trkpt lat="44.4150885" lon="10.8369393"><ele>672.0</ele><time>2026-04-11T13:59:32.499Z</time></trkpt><trkpt lat="44.4152163" lon="10.8369233"><ele>672.0</ele><time>2026-04-11T13:59:33.463Z</time></trkpt><trkpt lat="44.4153284" lon="10.8369004"><ele>672.0</ele><time>2026-04-11T13:59:34.458Z</time></trkpt><trkpt lat="44.4154278" lon="10.8368552"><ele>672.0</ele><time>2026-04-11T13:59:35.485Z</time></trkpt><trkpt lat="44.4155294" lon="10.8368068"><ele>672.0</ele><time>2026-04-11T13:59:36.497Z</time></trkpt><trkpt lat="44.4156159" lon="10.8367037"><ele>672.0</ele><time>2026-04-11T13:59:37.481Z</time></trkpt><trkpt lat="44.4157022" lon="10.8366004"><ele>672.0</ele><time>2026-04-11T13:59:38.486Z</time></trkpt><trkpt lat="44.4157776" lon="10.8365093"><ele>674.3333333333334</ele><time>2026-04-11T13:59:39.491Z</time></trkpt><trkpt lat="44.4158403" lon="10.836447"><ele>676.6666666666666</ele><time>2026-04-11T13:59:40.486Z</time></trkpt><trkpt lat="44.4159003" lon="10.8364061"><ele>679.0</ele><time>2026-04-11T13:59:41.483Z</time></trkpt><trkpt lat="44.415959" lon="10.8363688"><ele>681.3333333333333</ele><time>2026-04-11T13:59:42.497Z</time></trkpt><trkpt lat="44.4160297" lon="10.8363513"><ele>683.6666666666666</ele><time>2026-04-11T13:59:43.477Z</time></trkpt><trkpt lat="44.4161066" lon="10.836331"><ele>686.0</ele><time>2026-04-11T13:59:44.47Z</time></trkpt><trkpt lat="44.4161994" lon="10.836311"><ele>686.0</ele><time>2026-04-11T13:59:45.472Z</time></trkpt><trkpt lat="44.4163004" lon="10.8362992"><ele>686.0</ele><time>2026-04-11T13:59:46.469Z</time></trkpt><trkpt lat="44.4164028" lon="10.8362919"><ele>686.0</ele><time>2026-04-11T13:59:47.46Z</time></trkpt><trkpt lat="44.4165291" lon="10.8363037"><ele>686.0</ele><time>2026-04-11T13:59:48.481Z</time></trkpt><trkpt lat="44.4166686" lon="10.8363189"><ele>686.5</ele><time>2026-04-11T13:59:49.521Z</time></trkpt><trkpt lat="44.4168124" lon="10.8363362"><ele>687.0</ele><time>2026-04-11T13:59:50.483Z</time></trkpt><trkpt lat="44.4169443" lon="10.8363461"><ele>687.5</ele><time>2026-04-11T13:59:51.489Z</time></trkpt><trkpt lat="44.4170706" lon="10.8363519"><ele>688.0</ele><time>2026-04-11T13:59:52.476Z</time></trkpt><trkpt lat="44.4171986" lon="10.8363546"><ele>690.5</ele><time>2026-04-11T13:59:53.439Z</time></trkpt><trkpt lat="44.4173307" lon="10.836364"><ele>693.0</ele><time>2026-04-11T13:59:54.484Z</time></trkpt><trkpt lat="44.4174604" lon="10.8363796"><ele>695.5</ele><time>2026-04-11T13:59:55.484Z</time></trkpt><trkpt lat="44.4175821" lon="10.8363906"><ele>698.0</ele><time>2026-04-11T13:59:56.464Z</time></trkpt><trkpt lat="44.4176914" lon="10.8363877"><ele>698.0</ele><time>2026-04-11T13:59:57.46Z</time></trkpt><trkpt lat="44.4177854" lon="10.8363777"><ele>698.0</ele><time>2026-04-11T13:59:58.483Z</time></trkpt><trkpt lat="44.4178686" lon="10.8363688"><ele>698.0</ele><time>2026-04-11T13:59:59.476Z</time></trkpt><trkpt lat="44.4179373" lon="10.8363712"><ele>698.0</ele><time>2026-04-11T14:00:00.474Z</time></trkpt><trkpt lat="44.4180414" lon="10.8363839"><ele>698.0</ele><time>2026-04-11T14:00:02.474Z</time></trkpt><trkpt lat="44.4181271" lon="10.8363253"><ele>698.0</ele><time>2026-04-11T14:00:04.467Z</time></trkpt><trkpt lat="44.4181757" lon="10.8362607"><ele>698.8</ele><time>2026-04-11T14:00:05.46Z</time></trkpt><trkpt lat="44.4182444" lon="10.8361113"><ele>699.5999999999999</ele><time>2026-04-11T14:00:07.516Z</time></trkpt><trkpt lat="44.4182532" lon="10.836023"><ele>700.4000000000001</ele><time>2026-04-11T14:00:08.463Z</time></trkpt><trkpt lat="44.4182321" lon="10.8358587"><ele>701.2</ele><time>2026-04-11T14:00:10.474Z</time></trkpt><trkpt lat="44.4182047" lon="10.8357704"><ele>702.0</ele><time>2026-04-11T14:00:11.453Z</time></trkpt><trkpt lat="44.4181727" lon="10.8356813"><ele>702.0</ele><time>2026-04-11T14:00:12.473Z</time></trkpt><trkpt lat="44.4181289" lon="10.8355877"><ele>702.0</ele><time>2026-04-11T14:00:13.505Z</time></trkpt><trkpt lat="44.4180747" lon="10.8354936"><ele>702.0</ele><time>2026-04-11T14:00:14.466Z</time></trkpt><trkpt lat="44.4180124" lon="10.8354103"><ele>702.0</ele><time>2026-04-11T14:00:15.492Z</time></trkpt><trkpt lat="44.4179532" lon="10.835337"><ele>702.0</ele><time>2026-04-11T14:00:16.493Z</time></trkpt><trkpt lat="44.4178878" lon="10.8352834"><ele>702.0</ele><time>2026-04-11T14:00:17.484Z</time></trkpt><trkpt lat="44.4178277" lon="10.8352317"><ele>702.2857142857143</ele><time>2026-04-11T14:00:18.485Z</time></trkpt><trkpt lat="44.4177652" lon="10.8351853"><ele>702.5714285714286</ele><time>2026-04-11T14:00:19.457Z</time></trkpt><trkpt lat="44.4177065" lon="10.835138"><ele>702.8571428571429</ele><time>2026-04-11T14:00:20.484Z</time></trkpt><trkpt lat="44.4176447" lon="10.8350893"><ele>703.1428571428571</ele><time>2026-04-11T14:00:21.458Z</time></trkpt><trkpt lat="44.4175861" lon="10.8350395"><ele>703.4285714285714</ele><time>2026-04-11T14:00:22.473Z</time></trkpt><trkpt lat="44.4175251" lon="10.8349871"><ele>703.7142857142858</ele><time>2026-04-11T14:00:23.458Z</time></trkpt><trkpt lat="44.4174576" lon="10.8349301"><ele>704.0</ele><time>2026-04-11T14:00:24.485Z</time></trkpt><trkpt lat="44.4173943" lon="10.8348785"><ele>704.4285714285714</ele><time>2026-04-11T14:00:25.469Z</time></trkpt><trkpt lat="44.4173337" lon="10.8348209"><ele>704.8571428571429</ele><time>2026-04-11T14:00:26.481Z</time></trkpt><trkpt lat="44.4172716" lon="10.8347684"><ele>705.2857142857142</ele><time>2026-04-11T14:00:27.474Z</time></trkpt><trkpt lat="44.4172103" lon="10.834714"><ele>705.7142857142858</ele><time>2026-04-11T14:00:28.486Z</time></trkpt><trkpt lat="44.417151" lon="10.8346577"><ele>706.1428571428571</ele><time>2026-04-11T14:00:29.475Z</time></trkpt><trkpt lat="44.4170873" lon="10.8346013"><ele>706.5714285714286</ele><time>2026-04-11T14:00:30.483Z</time></trkpt><trkpt lat="44.417028" lon="10.8345454"><ele>707.0</ele><time>2026-04-11T14:00:31.483Z</time></trkpt><trkpt lat="44.4169681" lon="10.8344873"><ele>707.2857142857143</ele><time>2026-04-11T14:00:32.472Z</time></trkpt><trkpt lat="44.4169101" lon="10.8344304"><ele>707.5714285714286</ele><time>2026-04-11T14:00:33.477Z</time></trkpt><trkpt lat="44.4168516" lon="10.8343905"><ele>707.8571428571429</ele><time>2026-04-11T14:00:34.476Z</time></trkpt><trkpt lat="44.4167995" lon="10.8343387"><ele>708.1428571428571</ele><time>2026-04-11T14:00:35.467Z</time></trkpt><trkpt lat="44.4167436" lon="10.834288"><ele>708.4285714285714</ele><time>2026-04-11T14:00:36.486Z</time></trkpt><trkpt lat="44.4166848" lon="10.8342364"><ele>708.7142857142858</ele><time>2026-04-11T14:00:37.466Z</time></trkpt><trkpt lat="44.4166217" lon="10.8341805"><ele>709.0</ele><time>2026-04-11T14:00:38.457Z</time></trkpt><trkpt lat="44.4165603" lon="10.834126"><ele>709.6666666666667</ele><time>2026-04-11T14:00:39.478Z</time></trkpt><trkpt lat="44.4164968" lon="10.8340697"><ele>710.3333333333334</ele><time>2026-04-11T14:00:40.473Z</time></trkpt><trkpt lat="44.416435" lon="10.8340023"><ele>711.0</ele><time>2026-04-11T14:00:41.488Z</time></trkpt><trkpt lat="44.4163737" lon="10.8339352"><ele>711.6666666666666</ele><time>2026-04-11T14:00:42.473Z</time></trkpt><trkpt lat="44.4163105" lon="10.8338607"><ele>712.3333333333333</ele><time>2026-04-11T14:00:43.484Z</time></trkpt><trkpt lat="44.4162494" lon="10.8337744"><ele>713.0</ele><time>2026-04-11T14:00:44.478Z</time></trkpt><trkpt lat="44.4161881" lon="10.8337014"><ele>713.3333333333333</ele><time>2026-04-11T14:00:45.48Z</time></trkpt><trkpt lat="44.4161286" lon="10.8336233"><ele>713.6666666666666</ele><time>2026-04-11T14:00:46.481Z</time></trkpt><trkpt lat="44.4160656" lon="10.8335422"><ele>714.0</ele><time>2026-04-11T14:00:47.482Z</time></trkpt><trkpt lat="44.4160061" lon="10.8334728"><ele>714.3333333333334</ele><time>2026-04-11T14:00:48.492Z</time></trkpt><trkpt lat="44.4159464" lon="10.8334028"><ele>714.6666666666667</ele><time>2026-04-11T14:00:49.469Z</time></trkpt><trkpt lat="44.4158884" lon="10.833333"><ele>715.0</ele><time>2026-04-11T14:00:50.473Z</time></trkpt><trkpt lat="44.415829" lon="10.8332592"><ele>716.5</ele><time>2026-04-11T14:00:51.477Z</time></trkpt><trkpt lat="44.4157752" lon="10.8331899"><ele>718.0</ele><time>2026-04-11T14:00:52.467Z</time></trkpt><trkpt lat="44.4157233" lon="10.8331039"><ele>719.5</ele><time>2026-04-11T14:00:53.48Z</time></trkpt><trkpt lat="44.4156716" lon="10.8330254"><ele>721.0</ele><time>2026-04-11T14:00:54.478Z</time></trkpt><trkpt lat="44.4156241" lon="10.8329547"><ele>722.5</ele><time>2026-04-11T14:00:55.485Z</time></trkpt><trkpt lat="44.4155731" lon="10.8328874"><ele>724.0</ele><time>2026-04-11T14:00:56.479Z</time></trkpt><trkpt lat="44.4154783" lon="10.8327959"><ele>724.6</ele><time>2026-04-11T14:00:58.488Z</time></trkpt><trkpt lat="44.4154244" lon="10.8327373"><ele>725.2</ele><time>2026-04-11T14:00:59.534Z</time></trkpt><trkpt lat="44.4153311" lon="10.8326236"><ele>725.8000000000001</ele><time>2026-04-11T14:01:01.465Z</time></trkpt><trkpt lat="44.4152725" lon="10.8325557"><ele>726.4000000000001</ele><time>2026-04-11T14:01:02.469Z</time></trkpt><trkpt lat="44.4152058" lon="10.8324698"><ele>727.0</ele><time>2026-04-11T14:01:03.471Z</time></trkpt><trkpt lat="44.4151341" lon="10.8323792"><ele>727.8</ele><time>2026-04-11T14:01:04.489Z</time></trkpt><trkpt lat="44.4150693" lon="10.8323199"><ele>728.6</ele><time>2026-04-11T14:01:05.487Z</time></trkpt><trkpt lat="44.4149685" lon="10.8322488"><ele>729.4</ele><time>2026-04-11T14:01:07.485Z</time></trkpt><trkpt lat="44.4148516" lon="10.8321733"><ele>730.1999999999999</ele><time>2026-04-11T14:01:09.471Z</time></trkpt><trkpt lat="44.4147916" lon="10.8321328"><ele>731.0</ele><time>2026-04-11T14:01:10.465Z</time></trkpt><trkpt lat="44.4147272" lon="10.8320864"><ele>731.0</ele><time>2026-04-11T14:01:11.479Z</time></trkpt><trkpt lat="44.4146638" lon="10.8320367"><ele>731.0</ele><time>2026-04-11T14:01:12.461Z</time></trkpt><trkpt lat="44.414595" lon="10.8319875"><ele>731.0</ele><time>2026-04-11T14:01:13.48Z</time></trkpt><trkpt lat="44.4145211" lon="10.8319423"><ele>731.0</ele><time>2026-04-11T14:01:14.461Z</time></trkpt><trkpt lat="44.4144472" lon="10.8318935"><ele>731.0</ele><time>2026-04-11T14:01:15.471Z</time></trkpt><trkpt lat="44.4143682" lon="10.8318356"><ele>731.0</ele><time>2026-04-11T14:01:16.465Z</time></trkpt><trkpt lat="44.4142913" lon="10.831777"><ele>733.0</ele><time>2026-04-11T14:01:17.484Z</time></trkpt><trkpt lat="44.4142128" lon="10.831717"><ele>735.0</ele><time>2026-04-11T14:01:18.491Z</time></trkpt><trkpt lat="44.4141455" lon="10.8316612"><ele>737.0</ele><time>2026-04-11T14:01:19.49Z</time></trkpt><trkpt lat="44.414084" lon="10.8315975"><ele>739.0</ele><time>2026-04-11T14:01:20.482Z</time></trkpt><trkpt lat="44.4140393" lon="10.8315331"><ele>741.0</ele><time>2026-04-11T14:01:21.459Z</time></trkpt><trkpt lat="44.413963" lon="10.8314115"><ele>743.0</ele><time>2026-04-11T14:01:23.478Z</time></trkpt><trkpt lat="44.4138691" lon="10.8312709"><ele>743.0</ele><time>2026-04-11T14:01:25.457Z</time></trkpt><trkpt lat="44.4138278" lon="10.8311987"><ele>743.0</ele><time>2026-04-11T14:01:26.467Z</time></trkpt><trkpt lat="44.4137717" lon="10.8310986"><ele>743.0</ele><time>2026-04-11T14:01:27.527Z</time></trkpt><trkpt lat="44.4137096" lon="10.8309894"><ele>743.0</ele><time>2026-04-11T14:01:28.475Z</time></trkpt><trkpt lat="44.4136641" lon="10.8309071"><ele>743.0</ele><time>2026-04-11T14:01:29.475Z</time></trkpt><trkpt lat="44.4135928" lon="10.8307716"><ele>743.5</ele><time>2026-04-11T14:01:31.478Z</time></trkpt><trkpt lat="44.4135643" lon="10.8306916"><ele>744.0</ele><time>2026-04-11T14:01:32.473Z</time></trkpt><trkpt lat="44.4135118" lon="10.8305931"><ele>744.5</ele><time>2026-04-11T14:01:34.478Z</time></trkpt><trkpt lat="44.4134766" lon="10.8304962"><ele>745.0</ele><time>2026-04-11T14:01:36.471Z</time></trkpt><trkpt lat="44.413458" lon="10.8303842"><ele>745.5</ele><time>2026-04-11T14:01:38.456Z</time></trkpt><trkpt lat="44.4134482" lon="10.8302533"><ele>746.0</ele><time>2026-04-11T14:01:40.473Z</time></trkpt><trkpt lat="44.4134346" lon="10.8301442"><ele>747.1999999999999</ele><time>2026-04-11T14:01:42.459Z</time></trkpt><trkpt lat="44.4134503" lon="10.8300053"><ele>748.4</ele><time>2026-04-11T14:01:44.482Z</time></trkpt><trkpt lat="44.4134696" lon="10.8299134"><ele>749.6</ele><time>2026-04-11T14:01:45.457Z</time></trkpt><trkpt lat="44.4134845" lon="10.8297734"><ele>750.8</ele><time>2026-04-11T14:01:47.525Z</time></trkpt><trkpt lat="44.4134689" lon="10.829629"><ele>752.0</ele><time>2026-04-11T14:01:49.466Z</time></trkpt><trkpt lat="44.4133864" lon="10.8295477"><ele>752.0</ele><time>2026-04-11T14:01:51.48Z</time></trkpt><trkpt lat="44.4132828" lon="10.8294229"><ele>752.0</ele><time>2026-04-11T14:01:53.474Z</time></trkpt><trkpt lat="44.4132227" lon="10.8293591"><ele>752.0</ele><time>2026-04-11T14:01:54.435Z</time></trkpt><trkpt lat="44.4131559" lon="10.8292861"><ele>752.0</ele><time>2026-04-11T14:01:55.524Z</time></trkpt><trkpt lat="44.4130971" lon="10.8292291"><ele>752.0</ele><time>2026-04-11T14:01:56.469Z</time></trkpt><trkpt lat="44.4130227" lon="10.8291528"><ele>753.8333333333333</ele><time>2026-04-11T14:01:57.459Z</time></trkpt><trkpt lat="44.4129541" lon="10.8290906"><ele>755.6666666666666</ele><time>2026-04-11T14:01:58.473Z</time></trkpt><trkpt lat="44.4128942" lon="10.829032"><ele>757.5</ele><time>2026-04-11T14:01:59.48Z</time></trkpt><trkpt lat="44.4128372" lon="10.8289868"><ele>759.3333333333334</ele><time>2026-04-11T14:02:00.478Z</time></trkpt><trkpt lat="44.4127681" lon="10.8289613"><ele>761.1666666666667</ele><time>2026-04-11T14:02:01.489Z</time></trkpt><trkpt lat="44.4126951" lon="10.8289535"><ele>763.0</ele><time>2026-04-11T14:02:02.479Z</time></trkpt><trkpt lat="44.4125677" lon="10.8288946"><ele>763.0</ele><time>2026-04-11T14:02:04.478Z</time></trkpt><trkpt lat="44.41249" lon="10.8288129"><ele>763.0</ele><time>2026-04-11T14:02:05.467Z</time></trkpt><trkpt lat="44.4124255" lon="10.8287207"><ele>763.0</ele><time>2026-04-11T14:02:06.46Z</time></trkpt><trkpt lat="44.4123739" lon="10.8286239"><ele>763.0</ele><time>2026-04-11T14:02:07.461Z</time></trkpt><trkpt lat="44.4123344" lon="10.8285292"><ele>763.0</ele><time>2026-04-11T14:02:08.484Z</time></trkpt><trkpt lat="44.4123095" lon="10.8284201"><ele>763.0</ele><time>2026-04-11T14:02:09.469Z</time></trkpt><trkpt lat="44.4122955" lon="10.8282809"><ele>764.5999999999999</ele><time>2026-04-11T14:02:10.476Z</time></trkpt><trkpt lat="44.4122836" lon="10.8281478"><ele>766.1999999999999</ele><time>2026-04-11T14:02:11.485Z</time></trkpt><trkpt lat="44.4122711" lon="10.8280196"><ele>767.8</ele><time>2026-04-11T14:02:12.477Z</time></trkpt><trkpt lat="44.4122486" lon="10.8278968"><ele>769.4</ele><time>2026-04-11T14:02:13.461Z</time></trkpt><trkpt lat="44.4122178" lon="10.827781"><ele>771.0</ele><time>2026-04-11T14:02:14.493Z</time></trkpt><trkpt lat="44.4121754" lon="10.8276654"><ele>773.1999999999999</ele><time>2026-04-11T14:02:15.486Z</time></trkpt><trkpt lat="44.4121231" lon="10.827553"><ele>775.4</ele><time>2026-04-11T14:02:16.447Z</time></trkpt><trkpt lat="44.4120748" lon="10.8274561"><ele>777.6</ele><time>2026-04-11T14:02:17.491Z</time></trkpt><trkpt lat="44.4120366" lon="10.8273777"><ele>779.8</ele><time>2026-04-11T14:02:18.473Z</time></trkpt><trkpt lat="44.411999" lon="10.8272309"><ele>782.0</ele><time>2026-04-11T14:02:20.477Z</time></trkpt><trkpt lat="44.4119856" lon="10.8270841"><ele>782.0000000000001</ele><time>2026-04-11T14:02:22.427Z</time></trkpt><trkpt lat="44.4119427" lon="10.8269802"><ele>782.0</ele><time>2026-04-11T14:02:24.442Z</time></trkpt><trkpt lat="44.4118223" lon="10.8269108"><ele>782.0</ele><time>2026-04-11T14:02:26.493Z</time></trkpt><trkpt lat="44.4117542" lon="10.8268787"><ele>782.0</ele><time>2026-04-11T14:02:27.442Z</time></trkpt><trkpt lat="44.4116924" lon="10.8268319"><ele>782.0000000000001</ele><time>2026-04-11T14:02:28.477Z</time></trkpt><trkpt lat="44.4116319" lon="10.8267697"><ele>782.0</ele><time>2026-04-11T14:02:29.488Z</time></trkpt><trkpt lat="44.4115944" lon="10.8266953"><ele>783.0</ele><time>2026-04-11T14:02:30.44Z</time></trkpt><trkpt lat="44.4115685" lon="10.8265471"><ele>784.0</ele><time>2026-04-11T14:02:32.471Z</time></trkpt><trkpt lat="44.4115762" lon="10.8263853"><ele>785.0</ele><time>2026-04-11T14:02:34.476Z</time></trkpt><trkpt lat="44.4115755" lon="10.8262957"><ele>786.0</ele><time>2026-04-11T14:02:35.486Z</time></trkpt><trkpt lat="44.4115771" lon="10.8262053"><ele>787.0</ele><time>2026-04-11T14:02:36.481Z</time></trkpt><trkpt lat="44.4116025" lon="10.8260718"><ele>789.4000000000001</ele><time>2026-04-11T14:02:38.491Z</time></trkpt><trkpt lat="44.41165" lon="10.8259411"><ele>791.8000000000001</ele><time>2026-04-11T14:02:40.489Z</time></trkpt><trkpt lat="44.4117017" lon="10.8258022"><ele>794.2</ele><time>2026-04-11T14:02:42.452Z</time></trkpt><trkpt lat="44.4117327" lon="10.8256869"><ele>796.6</ele><time>2026-04-11T14:02:43.482Z</time></trkpt><trkpt lat="44.4117538" lon="10.825584"><ele>799.0</ele><time>2026-04-11T14:02:44.484Z</time></trkpt><trkpt lat="44.4117883" lon="10.8254715"><ele>798.9999999999999</ele><time>2026-04-11T14:02:45.484Z</time></trkpt><trkpt lat="44.4118219" lon="10.8253655"><ele>799.0</ele><time>2026-04-11T14:02:46.502Z</time></trkpt><trkpt lat="44.411846" lon="10.8252473"><ele>799.0</ele><time>2026-04-11T14:02:47.481Z</time></trkpt><trkpt lat="44.4118745" lon="10.8251361"><ele>799.0</ele><time>2026-04-11T14:02:48.465Z</time></trkpt><trkpt lat="44.4119139" lon="10.8249963"><ele>798.9999999999999</ele><time>2026-04-11T14:02:49.472Z</time></trkpt><trkpt lat="44.4119241" lon="10.8248812"><ele>799.0</ele><time>2026-04-11T14:02:50.476Z</time></trkpt><trkpt lat="44.4119312" lon="10.8247394"><ele>801.0</ele><time>2026-04-11T14:02:51.488Z</time></trkpt><trkpt lat="44.4119316" lon="10.8245909"><ele>803.0</ele><time>2026-04-11T14:02:52.48Z</time></trkpt><trkpt lat="44.4119374" lon="10.8244747"><ele>805.0</ele><time>2026-04-11T14:02:53.454Z</time></trkpt><trkpt lat="44.4119263" lon="10.8243144"><ele>807.0</ele><time>2026-04-11T14:02:55.488Z</time></trkpt><trkpt lat="44.4118827" lon="10.8241695"><ele>809.0</ele><time>2026-04-11T14:02:57.474Z</time></trkpt><trkpt lat="44.4118328" lon="10.824094"><ele>809.0</ele><time>2026-04-11T14:02:58.471Z</time></trkpt><trkpt lat="44.4117884" lon="10.8239748"><ele>809.0</ele><time>2026-04-11T14:03:00.512Z</time></trkpt><trkpt lat="44.4117917" lon="10.8238211"><ele>809.0</ele><time>2026-04-11T14:03:02.462Z</time></trkpt><trkpt lat="44.4118155" lon="10.823681"><ele>809.0</ele><time>2026-04-11T14:03:04.478Z</time></trkpt><trkpt lat="44.4118589" lon="10.8235632"><ele>809.0</ele><time>2026-04-11T14:03:06.458Z</time></trkpt><trkpt lat="44.4118894" lon="10.8234635"><ele>809.4000000000001</ele><time>2026-04-11T14:03:07.496Z</time></trkpt><trkpt lat="44.4119138" lon="10.8233316"><ele>809.8</ele><time>2026-04-11T14:03:08.509Z</time></trkpt><trkpt lat="44.4119282" lon="10.8232176"><ele>810.2</ele><time>2026-04-11T14:03:09.475Z</time></trkpt><trkpt lat="44.4119404" lon="10.8230903"><ele>810.5999999999999</ele><time>2026-04-11T14:03:10.478Z</time></trkpt><trkpt lat="44.4119559" lon="10.8229449"><ele>811.0</ele><time>2026-04-11T14:03:11.488Z</time></trkpt><trkpt lat="44.4119948" lon="10.822792"><ele>811.0</ele><time>2026-04-11T14:03:12.465Z</time></trkpt><trkpt lat="44.4120357" lon="10.822619"><ele>811.0</ele><time>2026-04-11T14:03:13.453Z</time></trkpt><trkpt lat="44.4120791" lon="10.8224309"><ele>811.0</ele><time>2026-04-11T14:03:14.589Z</time></trkpt><trkpt lat="44.4121178" lon="10.8222606"><ele>811.0</ele><time>2026-04-11T14:03:15.494Z</time></trkpt><trkpt lat="44.4121513" lon="10.8221103"><ele>810.4</ele><time>2026-04-11T14:03:16.499Z</time></trkpt><trkpt lat="44.4121877" lon="10.821963"><ele>809.8</ele><time>2026-04-11T14:03:17.495Z</time></trkpt><trkpt lat="44.4122354" lon="10.8218152"><ele>809.1999999999999</ele><time>2026-04-11T14:03:18.485Z</time></trkpt><trkpt lat="44.4122806" lon="10.821683"><ele>808.5999999999999</ele><time>2026-04-11T14:03:19.457Z</time></trkpt><trkpt lat="44.4123218" lon="10.82155"><ele>808.0</ele><time>2026-04-11T14:03:20.549Z</time></trkpt><trkpt lat="44.4123551" lon="10.8214085"><ele>809.8</ele><time>2026-04-11T14:03:21.485Z</time></trkpt><trkpt lat="44.4123814" lon="10.8212715"><ele>811.5999999999999</ele><time>2026-04-11T14:03:22.501Z</time></trkpt><trkpt lat="44.412405" lon="10.8211466"><ele>813.4000000000001</ele><time>2026-04-11T14:03:23.473Z</time></trkpt><trkpt lat="44.412428" lon="10.8210288"><ele>815.2</ele><time>2026-04-11T14:03:24.484Z</time></trkpt><trkpt lat="44.4124564" lon="10.8209209"><ele>817.0</ele><time>2026-04-11T14:03:25.489Z</time></trkpt><trkpt lat="44.4124857" lon="10.8208008"><ele>817.0</ele><time>2026-04-11T14:03:26.53Z</time></trkpt><trkpt lat="44.412542" lon="10.8206766"><ele>817.0</ele><time>2026-04-11T14:03:27.497Z</time></trkpt><trkpt lat="44.4125932" lon="10.8205198"><ele>817.0</ele><time>2026-04-11T14:03:28.47Z</time></trkpt><trkpt lat="44.4126487" lon="10.8203371"><ele>817.0</ele><time>2026-04-11T14:03:29.487Z</time></trkpt><trkpt lat="44.4127027" lon="10.8201648"><ele>817.25</ele><time>2026-04-11T14:03:30.455Z</time></trkpt><trkpt lat="44.4127488" lon="10.8200107"><ele>817.5</ele><time>2026-04-11T14:03:31.473Z</time></trkpt><trkpt lat="44.412793" lon="10.8198566"><ele>817.75</ele><time>2026-04-11T14:03:32.475Z</time></trkpt><trkpt lat="44.4128357" lon="10.8197133"><ele>818.0</ele><time>2026-04-11T14:03:33.483Z</time></trkpt><trkpt lat="44.4128909" lon="10.8195808"><ele>818.0</ele><time>2026-04-11T14:03:34.435Z</time></trkpt><trkpt lat="44.4129593" lon="10.8194392"><ele>818.0</ele><time>2026-04-11T14:03:35.448Z</time></trkpt><trkpt lat="44.4130297" lon="10.8192924"><ele>818.0</ele><time>2026-04-11T14:03:36.429Z</time></trkpt><trkpt lat="44.4131069" lon="10.8191482"><ele>818.0</ele><time>2026-04-11T14:03:37.533Z</time></trkpt><trkpt lat="44.4131848" lon="10.8190119"><ele>818.75</ele><time>2026-04-11T14:03:38.472Z</time></trkpt><trkpt lat="44.4132626" lon="10.8188802"><ele>819.5</ele><time>2026-04-11T14:03:39.459Z</time></trkpt><trkpt lat="44.4133388" lon="10.8187511"><ele>820.25</ele><time>2026-04-11T14:03:40.451Z</time></trkpt><trkpt lat="44.4134107" lon="10.818623"><ele>821.0</ele><time>2026-04-11T14:03:41.505Z</time></trkpt><trkpt lat="44.4134814" lon="10.8184969"><ele>821.1999999999999</ele><time>2026-04-11T14:03:42.45Z</time></trkpt><trkpt lat="44.4135477" lon="10.8183692"><ele>821.4</ele><time>2026-04-11T14:03:43.522Z</time></trkpt><trkpt lat="44.4135972" lon="10.8182319"><ele>821.6</ele><time>2026-04-11T14:03:44.459Z</time></trkpt><trkpt lat="44.4136487" lon="10.8180991"><ele>821.8</ele><time>2026-04-11T14:03:45.487Z</time></trkpt><trkpt lat="44.4137027" lon="10.817966"><ele>822.0</ele><time>2026-04-11T14:03:46.488Z</time></trkpt><trkpt lat="44.4137559" lon="10.8178425"><ele>822.0</ele><time>2026-04-11T14:03:47.443Z</time></trkpt><trkpt lat="44.4138067" lon="10.8177169"><ele>822.0</ele><time>2026-04-11T14:03:48.48Z</time></trkpt><trkpt lat="44.4138522" lon="10.8176014"><ele>822.0</ele><time>2026-04-11T14:03:49.526Z</time></trkpt><trkpt lat="44.4138943" lon="10.8174966"><ele>822.0</ele><time>2026-04-11T14:03:50.486Z</time></trkpt><trkpt lat="44.4139366" lon="10.8173977"><ele>822.0</ele><time>2026-04-11T14:03:51.453Z</time></trkpt><trkpt lat="44.4139866" lon="10.817307"><ele>822.0</ele><time>2026-04-11T14:03:52.475Z</time></trkpt><trkpt lat="44.4140452" lon="10.8172293"><ele>822.5</ele><time>2026-04-11T14:03:53.492Z</time></trkpt><trkpt lat="44.4141156" lon="10.8171471"><ele>823.0</ele><time>2026-04-11T14:03:54.49Z</time></trkpt><trkpt lat="44.4141816" lon="10.8170695"><ele>823.5</ele><time>2026-04-11T14:03:55.48Z</time></trkpt><trkpt lat="44.4142416" lon="10.8169712"><ele>824.0</ele><time>2026-04-11T14:03:56.479Z</time></trkpt><trkpt lat="44.414295" lon="10.8168697"><ele>824.5</ele><time>2026-04-11T14:03:57.456Z</time></trkpt><trkpt lat="44.4143398" lon="10.8167664"><ele>825.0</ele><time>2026-04-11T14:03:58.49Z</time></trkpt><trkpt lat="44.4143849" lon="10.8166708"><ele>825.0</ele><time>2026-04-11T14:03:59.492Z</time></trkpt><trkpt lat="44.4144395" lon="10.8165647"><ele>825.0</ele><time>2026-04-11T14:04:00.484Z</time></trkpt><trkpt lat="44.4144958" lon="10.816454"><ele>825.0</ele><time>2026-04-11T14:04:01.459Z</time></trkpt><trkpt lat="44.4145511" lon="10.8163452"><ele>825.0</ele><time>2026-04-11T14:04:02.476Z</time></trkpt><trkpt lat="44.4146053" lon="10.8162413"><ele>825.0</ele><time>2026-04-11T14:04:03.476Z</time></trkpt><trkpt lat="44.4146556" lon="10.8161406"><ele>825.0</ele><time>2026-04-11T14:04:04.451Z</time></trkpt><trkpt lat="44.4147004" lon="10.8160479"><ele>825.0</ele><time>2026-04-11T14:04:05.45Z</time></trkpt><trkpt lat="44.4147356" lon="10.8159619"><ele>825.0</ele><time>2026-04-11T14:04:06.476Z</time></trkpt><trkpt lat="44.4147612" lon="10.8158779"><ele>825.0</ele><time>2026-04-11T14:04:07.503Z</time></trkpt><trkpt lat="44.4148007" lon="10.8157172"><ele>825.0</ele><time>2026-04-11T14:04:09.477Z</time></trkpt><trkpt lat="44.4148402" lon="10.8156326"><ele>825.0</ele><time>2026-04-11T14:04:10.49Z</time></trkpt><trkpt lat="44.414886" lon="10.8155514"><ele>826.0</ele><time>2026-04-11T14:04:11.463Z</time></trkpt><trkpt lat="44.4149295" lon="10.815477"><ele>827.0</ele><time>2026-04-11T14:04:12.494Z</time></trkpt><trkpt lat="44.4149946" lon="10.8153563"><ele>828.0</ele><time>2026-04-11T14:04:14.489Z</time></trkpt><trkpt lat="44.4150283" lon="10.8152576"><ele>829.0</ele><time>2026-04-11T14:04:16.467Z</time></trkpt><trkpt lat="44.4150541" lon="10.815134"><ele>830.0</ele><time>2026-04-11T14:04:18.487Z</time></trkpt><trkpt lat="44.4150722" lon="10.8150125"><ele>831.0</ele><time>2026-04-11T14:04:20.507Z</time></trkpt><trkpt lat="44.4151416" lon="10.8149731"><ele>831.1666666666666</ele><time>2026-04-11T14:04:23.473Z</time></trkpt><trkpt lat="44.4151973" lon="10.8150188"><ele>831.3333333333333</ele><time>2026-04-11T14:04:25.454Z</time></trkpt><trkpt lat="44.4152527" lon="10.8150753"><ele>831.5</ele><time>2026-04-11T14:04:28.48Z</time></trkpt><trkpt lat="44.4153183" lon="10.8150797"><ele>831.6666666666666</ele><time>2026-04-11T14:05:22.475Z</time></trkpt><trkpt lat="44.4153902" lon="10.8150453"><ele>831.8333333333333</ele><time>2026-04-11T14:05:24.48Z</time></trkpt><trkpt lat="44.4155005" lon="10.8149706"><ele>832.0</ele><time>2026-04-11T14:05:26.51Z</time></trkpt><trkpt lat="44.4155707" lon="10.8149146"><ele>833.2</ele><time>2026-04-11T14:05:27.494Z</time></trkpt><trkpt lat="44.4156436" lon="10.8148571"><ele>834.4000000000001</ele><time>2026-04-11T14:05:28.495Z</time></trkpt><trkpt lat="44.4157218" lon="10.8148006"><ele>835.5999999999999</ele><time>2026-04-11T14:05:29.472Z</time></trkpt><trkpt lat="44.4158114" lon="10.8147575"><ele>836.8</ele><time>2026-04-11T14:05:30.473Z</time></trkpt><trkpt lat="44.4159108" lon="10.8147444"><ele>838.0</ele><time>2026-04-11T14:05:31.503Z</time></trkpt><trkpt lat="44.4160083" lon="10.8147327"><ele>838.0</ele><time>2026-04-11T14:05:32.487Z</time></trkpt><trkpt lat="44.4161044" lon="10.8147603"><ele>838.0</ele><time>2026-04-11T14:05:33.485Z</time></trkpt><trkpt lat="44.4161926" lon="10.8147839"><ele>838.0</ele><time>2026-04-11T14:05:34.466Z</time></trkpt><trkpt lat="44.4162857" lon="10.8147675"><ele>838.0</ele><time>2026-04-11T14:05:35.499Z</time></trkpt><trkpt lat="44.4163792" lon="10.8147269"><ele>838.0</ele><time>2026-04-11T14:05:36.458Z</time></trkpt><trkpt lat="44.4164775" lon="10.8146621"><ele>835.75</ele><time>2026-04-11T14:05:37.515Z</time></trkpt><trkpt lat="44.4165692" lon="10.814581"><ele>833.5</ele><time>2026-04-11T14:05:38.496Z</time></trkpt><trkpt lat="44.4166604" lon="10.8144862"><ele>831.25</ele><time>2026-04-11T14:05:39.499Z</time></trkpt><trkpt lat="44.4167471" lon="10.8143787"><ele>829.0</ele><time>2026-04-11T14:05:40.48Z</time></trkpt><trkpt lat="44.4168296" lon="10.8142731"><ele>832.2</ele><time>2026-04-11T14:05:41.453Z</time></trkpt><trkpt lat="44.4169108" lon="10.8141847"><ele>835.4000000000001</ele><time>2026-04-11T14:05:42.488Z</time></trkpt><trkpt lat="44.4169919" lon="10.8141285"><ele>838.6</ele><time>2026-04-11T14:05:43.486Z</time></trkpt><trkpt lat="44.4170774" lon="10.814107"><ele>841.8</ele><time>2026-04-11T14:05:44.459Z</time></trkpt><trkpt lat="44.4171692" lon="10.8141052"><ele>845.0</ele><time>2026-04-11T14:05:45.473Z</time></trkpt><trkpt lat="44.4172597" lon="10.8141172"><ele>845.0</ele><time>2026-04-11T14:05:46.465Z</time></trkpt><trkpt lat="44.4173556" lon="10.8141517"><ele>845.0</ele><time>2026-04-11T14:05:47.479Z</time></trkpt><trkpt lat="44.417461" lon="10.8142056"><ele>845.0</ele><time>2026-04-11T14:05:48.458Z</time></trkpt><trkpt lat="44.4175803" lon="10.8142684"><ele>845.0</ele><time>2026-04-11T14:05:49.466Z</time></trkpt><trkpt lat="44.4177018" lon="10.8143351"><ele>843.25</ele><time>2026-04-11T14:05:50.478Z</time></trkpt><trkpt lat="44.4178174" lon="10.8144126"><ele>841.5</ele><time>2026-04-11T14:05:51.448Z</time></trkpt><trkpt lat="44.4179291" lon="10.8145043"><ele>839.75</ele><time>2026-04-11T14:05:52.466Z</time></trkpt><trkpt lat="44.4180449" lon="10.8146155"><ele>838.0</ele><time>2026-04-11T14:05:53.479Z</time></trkpt><trkpt lat="44.4181613" lon="10.8147399"><ele>838.0</ele><time>2026-04-11T14:05:54.476Z</time></trkpt><trkpt lat="44.4182719" lon="10.8148605"><ele>838.0</ele><time>2026-04-11T14:05:55.457Z</time></trkpt><trkpt lat="44.4183678" lon="10.8149766"><ele>838.0</ele><time>2026-04-11T14:05:56.443Z</time></trkpt><trkpt lat="44.4184578" lon="10.8150834"><ele>838.0</ele><time>2026-04-11T14:05:57.482Z</time></trkpt><trkpt lat="44.4185457" lon="10.8151755"><ele>836.8</ele><time>2026-04-11T14:05:58.486Z</time></trkpt><trkpt lat="44.4186394" lon="10.8152566"><ele>835.5999999999999</ele><time>2026-04-11T14:05:59.481Z</time></trkpt><trkpt lat="44.4187318" lon="10.815329"><ele>834.4000000000001</ele><time>2026-04-11T14:06:00.489Z</time></trkpt><trkpt lat="44.4188327" lon="10.8153709"><ele>833.2</ele><time>2026-04-11T14:06:01.498Z</time></trkpt><trkpt lat="44.4189428" lon="10.8154015"><ele>832.0</ele><time>2026-04-11T14:06:02.482Z</time></trkpt><trkpt lat="44.4190476" lon="10.8154244"><ele>832.0</ele><time>2026-04-11T14:06:03.469Z</time></trkpt><trkpt lat="44.4191493" lon="10.8154411"><ele>832.0</ele><time>2026-04-11T14:06:04.49Z</time></trkpt><trkpt lat="44.4192528" lon="10.8154568"><ele>832.0</ele><time>2026-04-11T14:06:05.486Z</time></trkpt><trkpt lat="44.4193539" lon="10.8154707"><ele>832.0</ele><time>2026-04-11T14:06:06.47Z</time></trkpt><trkpt lat="44.4194533" lon="10.8154855"><ele>832.0</ele><time>2026-04-11T14:06:07.482Z</time></trkpt><trkpt lat="44.4195552" lon="10.8155035"><ele>832.4000000000001</ele><time>2026-04-11T14:06:08.495Z</time></trkpt><trkpt lat="44.4196683" lon="10.8155207"><ele>832.8000000000001</ele><time>2026-04-11T14:06:09.477Z</time></trkpt><trkpt lat="44.4197741" lon="10.8155357"><ele>833.2</ele><time>2026-04-11T14:06:10.476Z</time></trkpt><trkpt lat="44.4198752" lon="10.8155574"><ele>833.6</ele><time>2026-04-11T14:06:11.507Z</time></trkpt><trkpt lat="44.4199687" lon="10.8155922"><ele>834.0</ele><time>2026-04-11T14:06:12.488Z</time></trkpt><trkpt lat="44.4200558" lon="10.8156413"><ele>834.0</ele><time>2026-04-11T14:06:13.467Z</time></trkpt><trkpt lat="44.4201351" lon="10.8157057"><ele>834.0</ele><time>2026-04-11T14:06:14.485Z</time></trkpt><trkpt lat="44.4202092" lon="10.8157748"><ele>834.0</ele><time>2026-04-11T14:06:15.49Z</time></trkpt><trkpt lat="44.42028" lon="10.81585"><ele>834.0</ele><time>2026-04-11T14:06:16.475Z</time></trkpt><trkpt lat="44.4203482" lon="10.8159253"><ele>834.0</ele><time>2026-04-11T14:06:17.525Z</time></trkpt><trkpt lat="44.4204068" lon="10.8159956"><ele>834.0</ele><time>2026-04-11T14:06:18.475Z</time></trkpt><trkpt lat="44.4204556" lon="10.816061"><ele>832.8000000000001</ele><time>2026-04-11T14:06:19.487Z</time></trkpt><trkpt lat="44.420487" lon="10.8162035"><ele>831.6</ele><time>2026-04-11T14:06:21.486Z</time></trkpt><trkpt lat="44.4204619" lon="10.816285"><ele>830.4</ele><time>2026-04-11T14:06:22.489Z</time></trkpt><trkpt lat="44.4204085" lon="10.816379"><ele>829.2</ele><time>2026-04-11T14:06:23.537Z</time></trkpt><trkpt lat="44.4203401" lon="10.8164809"><ele>828.0</ele><time>2026-04-11T14:06:24.502Z</time></trkpt><trkpt lat="44.4202694" lon="10.8165765"><ele>827.6666666666666</ele><time>2026-04-11T14:06:25.484Z</time></trkpt><trkpt lat="44.4201963" lon="10.8166489"><ele>827.3333333333333</ele><time>2026-04-11T14:06:26.443Z</time></trkpt><trkpt lat="44.4201196" lon="10.8166926"><ele>827.0</ele><time>2026-04-11T14:06:27.42Z</time></trkpt><trkpt lat="44.4200434" lon="10.8167351"><ele>826.6666666666666</ele><time>2026-04-11T14:06:28.423Z</time></trkpt><trkpt lat="44.4199611" lon="10.8167395"><ele>826.3333333333333</ele><time>2026-04-11T14:06:29.435Z</time></trkpt><trkpt lat="44.4198667" lon="10.8167401"><ele>826.0</ele><time>2026-04-11T14:06:30.439Z</time></trkpt><trkpt lat="44.4197582" lon="10.8167459"><ele>824.5</ele><time>2026-04-11T14:06:31.457Z</time></trkpt><trkpt lat="44.4196408" lon="10.8167627"><ele>823.0</ele><time>2026-04-11T14:06:32.469Z</time></trkpt><trkpt lat="44.4195089" lon="10.8167881"><ele>821.5</ele><time>2026-04-11T14:06:33.472Z</time></trkpt><trkpt lat="44.4193926" lon="10.8168075"><ele>820.0</ele><time>2026-04-11T14:06:34.498Z</time></trkpt><trkpt lat="44.4192799" lon="10.8168191"><ele>817.9999999999999</ele><time>2026-04-11T14:06:35.489Z</time></trkpt><trkpt lat="44.4191814" lon="10.8168272"><ele>816.0</ele><time>2026-04-11T14:06:36.491Z</time></trkpt><trkpt lat="44.4190935" lon="10.8168443"><ele>814.0</ele><time>2026-04-11T14:06:37.483Z</time></trkpt><trkpt lat="44.4190271" lon="10.8168891"><ele>812.0</ele><time>2026-04-11T14:06:38.475Z</time></trkpt><trkpt lat="44.4189831" lon="10.8169636"><ele>809.9999999999999</ele><time>2026-04-11T14:06:39.498Z</time></trkpt><trkpt lat="44.4189623" lon="10.817056"><ele>808.0</ele><time>2026-04-11T14:06:40.487Z</time></trkpt><trkpt lat="44.4189637" lon="10.8171552"><ele>808.0</ele><time>2026-04-11T14:06:41.436Z</time></trkpt><trkpt lat="44.4189841" lon="10.8172435"><ele>808.0</ele><time>2026-04-11T14:06:42.47Z</time></trkpt><trkpt lat="44.4190687" lon="10.8173604"><ele>808.0</ele><time>2026-04-11T14:06:44.465Z</time></trkpt><trkpt lat="44.4191498" lon="10.8173653"><ele>808.0</ele><time>2026-04-11T14:06:45.471Z</time></trkpt><trkpt lat="44.4192511" lon="10.8173605"><ele>808.0</ele><time>2026-04-11T14:06:46.473Z</time></trkpt><trkpt lat="44.4193621" lon="10.8173621"><ele>808.0</ele><time>2026-04-11T14:06:47.453Z</time></trkpt><trkpt lat="44.4194752" lon="10.8173855"><ele>808.0</ele><time>2026-04-11T14:06:48.453Z</time></trkpt><trkpt lat="44.419594" lon="10.8174239"><ele>808.0</ele><time>2026-04-11T14:06:49.475Z</time></trkpt><trkpt lat="44.4197187" lon="10.8174696"><ele>808.0</ele><time>2026-04-11T14:06:50.483Z</time></trkpt><trkpt lat="44.4198423" lon="10.8175116"><ele>808.4</ele><time>2026-04-11T14:06:51.453Z</time></trkpt><trkpt lat="44.4199616" lon="10.8175537"><ele>808.8</ele><time>2026-04-11T14:06:52.496Z</time></trkpt><trkpt lat="44.4200722" lon="10.8175972"><ele>809.2</ele><time>2026-04-11T14:06:53.461Z</time></trkpt><trkpt lat="44.4201701" lon="10.817648"><ele>809.6</ele><time>2026-04-11T14:06:54.476Z</time></trkpt><trkpt lat="44.4202539" lon="10.817714"><ele>810.0</ele><time>2026-04-11T14:06:55.456Z</time></trkpt><trkpt lat="44.4203363" lon="10.8178153"><ele>806.75</ele><time>2026-04-11T14:06:56.47Z</time></trkpt><trkpt lat="44.4204134" lon="10.8179296"><ele>803.5</ele><time>2026-04-11T14:06:57.474Z</time></trkpt><trkpt lat="44.4204835" lon="10.818048"><ele>800.25</ele><time>2026-04-11T14:06:58.513Z</time></trkpt><trkpt lat="44.4205513" lon="10.8181788"><ele>797.0</ele><time>2026-04-11T14:06:59.47Z</time></trkpt><trkpt lat="44.4206211" lon="10.8183132"><ele>797.0</ele><time>2026-04-11T14:07:00.51Z</time></trkpt><trkpt lat="44.4206918" lon="10.8184527"><ele>797.0</ele><time>2026-04-11T14:07:01.48Z</time></trkpt><trkpt lat="44.4207607" lon="10.8185835"><ele>797.0</ele><time>2026-04-11T14:07:02.473Z</time></trkpt><trkpt lat="44.4208269" lon="10.8187027"><ele>797.0</ele><time>2026-04-11T14:07:03.479Z</time></trkpt><trkpt lat="44.420895" lon="10.8188019"><ele>797.0</ele><time>2026-04-11T14:07:04.534Z</time></trkpt><trkpt lat="44.4209733" lon="10.8188804"><ele>795.2</ele><time>2026-04-11T14:07:05.449Z</time></trkpt><trkpt lat="44.4210612" lon="10.8189356"><ele>793.4000000000001</ele><time>2026-04-11T14:07:06.466Z</time></trkpt><trkpt lat="44.4211571" lon="10.8189725"><ele>791.5999999999999</ele><time>2026-04-11T14:07:07.483Z</time></trkpt><trkpt lat="44.4212562" lon="10.8190079"><ele>789.8</ele><time>2026-04-11T14:07:08.474Z</time></trkpt><trkpt lat="44.421354" lon="10.8190502"><ele>788.0</ele><time>2026-04-11T14:07:09.47Z</time></trkpt><trkpt lat="44.421439" lon="10.8190971"><ele>788.0</ele><time>2026-04-11T14:07:10.452Z</time></trkpt><trkpt lat="44.4215098" lon="10.8191467"><ele>788.0</ele><time>2026-04-11T14:07:11.481Z</time></trkpt><trkpt lat="44.4215697" lon="10.8192027"><ele>788.0</ele><time>2026-04-11T14:07:12.475Z</time></trkpt><trkpt lat="44.4216149" lon="10.8192725"><ele>788.0</ele><time>2026-04-11T14:07:13.459Z</time></trkpt><trkpt lat="44.4216419" lon="10.8193611"><ele>788.0</ele><time>2026-04-11T14:07:14.433Z</time></trkpt><trkpt lat="44.4216446" lon="10.8194626"><ele>788.0</ele><time>2026-04-11T14:07:15.492Z</time></trkpt><trkpt lat="44.4216169" lon="10.8195646"><ele>788.0</ele><time>2026-04-11T14:07:16.554Z</time></trkpt><trkpt lat="44.4215646" lon="10.8196565"><ele>783.6666666666667</ele><time>2026-04-11T14:07:17.477Z</time></trkpt><trkpt lat="44.4214926" lon="10.8197352"><ele>779.3333333333334</ele><time>2026-04-11T14:07:18.473Z</time></trkpt><trkpt lat="44.4214095" lon="10.8197956"><ele>775.0</ele><time>2026-04-11T14:07:19.478Z</time></trkpt><trkpt lat="44.4213214" lon="10.8198306"><ele>770.6666666666667</ele><time>2026-04-11T14:07:20.461Z</time></trkpt><trkpt lat="44.4212382" lon="10.8198386"><ele>766.3333333333334</ele><time>2026-04-11T14:07:21.471Z</time></trkpt><trkpt lat="44.4211617" lon="10.819818"><ele>762.0</ele><time>2026-04-11T14:07:22.498Z</time></trkpt><trkpt lat="44.4210878" lon="10.8197705"><ele>761.0</ele><time>2026-04-11T14:07:23.478Z</time></trkpt><trkpt lat="44.4210082" lon="10.8196979"><ele>760.0</ele><time>2026-04-11T14:07:24.475Z</time></trkpt><trkpt lat="44.4209229" lon="10.8196204"><ele>759.0</ele><time>2026-04-11T14:07:25.481Z</time></trkpt><trkpt lat="44.4208348" lon="10.8195512"><ele>758.0</ele><time>2026-04-11T14:07:26.531Z</time></trkpt><trkpt lat="44.4207487" lon="10.819487"><ele>757.0</ele><time>2026-04-11T14:07:27.442Z</time></trkpt><trkpt lat="44.4206616" lon="10.8194634"><ele>757.0</ele><time>2026-04-11T14:07:28.467Z</time></trkpt><trkpt lat="44.4205763" lon="10.8194404"><ele>757.0</ele><time>2026-04-11T14:07:29.462Z</time></trkpt><trkpt lat="44.4205029" lon="10.8194551"><ele>757.0</ele><time>2026-04-11T14:07:30.434Z</time></trkpt><trkpt lat="44.4204347" lon="10.819533"><ele>757.0</ele><time>2026-04-11T14:07:31.443Z</time></trkpt><trkpt lat="44.4203786" lon="10.819625"><ele>757.0</ele><time>2026-04-11T14:07:32.427Z</time></trkpt><trkpt lat="44.4203272" lon="10.8197218"><ele>757.0</ele><time>2026-04-11T14:07:33.438Z</time></trkpt><trkpt lat="44.4202903" lon="10.8198231"><ele>757.3333333333334</ele><time>2026-04-11T14:07:34.448Z</time></trkpt><trkpt lat="44.4202792" lon="10.819927"><ele>757.6666666666667</ele><time>2026-04-11T14:07:35.473Z</time></trkpt><trkpt lat="44.4202665" lon="10.8200331"><ele>758.0</ele><time>2026-04-11T14:07:36.45Z</time></trkpt><trkpt lat="44.4202691" lon="10.8201455"><ele>758.3333333333334</ele><time>2026-04-11T14:07:37.447Z</time></trkpt><trkpt lat="44.4202968" lon="10.8202773"><ele>758.6666666666666</ele><time>2026-04-11T14:07:38.493Z</time></trkpt><trkpt lat="44.4203215" lon="10.8204187"><ele>759.0</ele><time>2026-04-11T14:07:39.467Z</time></trkpt><trkpt lat="44.4203411" lon="10.8205554"><ele>757.1666666666666</ele><time>2026-04-11T14:07:40.468Z</time></trkpt><trkpt lat="44.4203533" lon="10.8206893"><ele>755.3333333333334</ele><time>2026-04-11T14:07:41.454Z</time></trkpt><trkpt lat="44.4203532" lon="10.8208109"><ele>753.5</ele><time>2026-04-11T14:07:42.474Z</time></trkpt><trkpt lat="44.4203428" lon="10.8209206"><ele>751.6666666666667</ele><time>2026-04-11T14:07:43.468Z</time></trkpt><trkpt lat="44.4203146" lon="10.8210265"><ele>749.8333333333334</ele><time>2026-04-11T14:07:44.5Z</time></trkpt><trkpt lat="44.4202699" lon="10.8211194"><ele>748.0</ele><time>2026-04-11T14:07:45.473Z</time></trkpt><trkpt lat="44.4202107" lon="10.8211979"><ele>745.1666666666667</ele><time>2026-04-11T14:07:46.479Z</time></trkpt><trkpt lat="44.420146" lon="10.8212658"><ele>742.3333333333334</ele><time>2026-04-11T14:07:47.469Z</time></trkpt><trkpt lat="44.4200901" lon="10.8213265"><ele>739.5</ele><time>2026-04-11T14:07:48.454Z</time></trkpt><trkpt lat="44.4200504" lon="10.821405"><ele>736.6666666666666</ele><time>2026-04-11T14:07:49.437Z</time></trkpt><trkpt lat="44.4200448" lon="10.8215085"><ele>733.8333333333333</ele><time>2026-04-11T14:07:50.483Z</time></trkpt><trkpt lat="44.4200607" lon="10.8216269"><ele>731.0</ele><time>2026-04-11T14:07:51.465Z</time></trkpt><trkpt lat="44.4200988" lon="10.8217507"><ele>728.0</ele><time>2026-04-11T14:07:52.462Z</time></trkpt><trkpt lat="44.4201492" lon="10.8218683"><ele>725.0</ele><time>2026-04-11T14:07:53.471Z</time></trkpt><trkpt lat="44.4202029" lon="10.8219989"><ele>722.0</ele><time>2026-04-11T14:07:54.51Z</time></trkpt><trkpt lat="44.4202589" lon="10.8221262"><ele>719.0</ele><time>2026-04-11T14:07:55.457Z</time></trkpt><trkpt lat="44.4203127" lon="10.822247"><ele>716.0</ele><time>2026-04-11T14:07:56.517Z</time></trkpt><trkpt lat="44.4203678" lon="10.8223487"><ele>716.0</ele><time>2026-04-11T14:07:57.476Z</time></trkpt><trkpt lat="44.4204231" lon="10.8224366"><ele>716.0</ele><time>2026-04-11T14:07:58.47Z</time></trkpt><trkpt lat="44.4204746" lon="10.8225221"><ele>716.0</ele><time>2026-04-11T14:07:59.459Z</time></trkpt><trkpt lat="44.4205313" lon="10.8225927"><ele>716.0</ele><time>2026-04-11T14:08:00.458Z</time></trkpt><trkpt lat="44.4205874" lon="10.8226586"><ele>716.0</ele><time>2026-04-11T14:08:01.433Z</time></trkpt><trkpt lat="44.4206441" lon="10.8227172"><ele>716.0</ele><time>2026-04-11T14:08:02.468Z</time></trkpt><trkpt lat="44.4207045" lon="10.8227749"><ele>715.0</ele><time>2026-04-11T14:08:03.423Z</time></trkpt><trkpt lat="44.4207661" lon="10.8228325"><ele>714.0</ele><time>2026-04-11T14:08:04.463Z</time></trkpt><trkpt lat="44.4208293" lon="10.8228915"><ele>713.0</ele><time>2026-04-11T14:08:05.445Z</time></trkpt><trkpt lat="44.4209018" lon="10.8229575"><ele>712.0</ele><time>2026-04-11T14:08:06.461Z</time></trkpt><trkpt lat="44.4209775" lon="10.8230242"><ele>711.0</ele><time>2026-04-11T14:08:07.456Z</time></trkpt><trkpt lat="44.4210551" lon="10.8230942"><ele>710.0</ele><time>2026-04-11T14:08:08.452Z</time></trkpt><trkpt lat="44.4211358" lon="10.8231609"><ele>710.0</ele><time>2026-04-11T14:08:09.466Z</time></trkpt><trkpt lat="44.4212155" lon="10.8232261"><ele>710.0</ele><time>2026-04-11T14:08:10.459Z</time></trkpt><trkpt lat="44.4212984" lon="10.8232864"><ele>710.0</ele><time>2026-04-11T14:08:11.451Z</time></trkpt><trkpt lat="44.4213827" lon="10.8233501"><ele>710.0</ele><time>2026-04-11T14:08:12.463Z</time></trkpt><trkpt lat="44.4214658" lon="10.8234205"><ele>710.0</ele><time>2026-04-11T14:08:13.495Z</time></trkpt><trkpt lat="44.4215479" lon="10.823497"><ele>707.2</ele><time>2026-04-11T14:08:14.463Z</time></trkpt><trkpt lat="44.4216305" lon="10.823582"><ele>704.4</ele><time>2026-04-11T14:08:15.464Z</time></trkpt><trkpt lat="44.421714" lon="10.8236713"><ele>701.5999999999999</ele><time>2026-04-11T14:08:16.454Z</time></trkpt><trkpt lat="44.4217976" lon="10.823759"><ele>698.8</ele><time>2026-04-11T14:08:17.458Z</time></trkpt><trkpt lat="44.4218825" lon="10.8238495"><ele>696.0</ele><time>2026-04-11T14:08:18.453Z</time></trkpt><trkpt lat="44.4219633" lon="10.8239404"><ele>696.0</ele><time>2026-04-11T14:08:19.451Z</time></trkpt><trkpt lat="44.4220395" lon="10.8240317"><ele>696.0</ele><time>2026-04-11T14:08:20.462Z</time></trkpt><trkpt lat="44.4221116" lon="10.8241217"><ele>696.0</ele><time>2026-04-11T14:08:21.449Z</time></trkpt><trkpt lat="44.4221813" lon="10.8242074"><ele>696.0</ele><time>2026-04-11T14:08:22.453Z</time></trkpt><trkpt lat="44.4222486" lon="10.8242918"><ele>696.0</ele><time>2026-04-11T14:08:23.458Z</time></trkpt><trkpt lat="44.4223141" lon="10.8243788"><ele>695.6666666666666</ele><time>2026-04-11T14:08:24.468Z</time></trkpt><trkpt lat="44.4223735" lon="10.8244648"><ele>695.3333333333334</ele><time>2026-04-11T14:08:25.499Z</time></trkpt><trkpt lat="44.4224171" lon="10.8245526"><ele>695.0</ele><time>2026-04-11T14:08:26.458Z</time></trkpt><trkpt lat="44.4224423" lon="10.8246424"><ele>694.6666666666667</ele><time>2026-04-11T14:08:27.47Z</time></trkpt><trkpt lat="44.4224489" lon="10.8247326"><ele>694.3333333333334</ele><time>2026-04-11T14:08:28.457Z</time></trkpt><trkpt lat="44.4224387" lon="10.82482"><ele>694.0</ele><time>2026-04-11T14:08:29.46Z</time></trkpt><trkpt lat="44.4223714" lon="10.8249423"><ele>694.0</ele><time>2026-04-11T14:08:31.501Z</time></trkpt><trkpt lat="44.4222859" lon="10.8249564"><ele>694.0</ele><time>2026-04-11T14:08:33.444Z</time></trkpt><trkpt lat="44.4221856" lon="10.8249093"><ele>694.0</ele><time>2026-04-11T14:08:35.462Z</time></trkpt><trkpt lat="44.4220744" lon="10.8248539"><ele>694.0</ele><time>2026-04-11T14:08:37.479Z</time></trkpt><trkpt lat="44.4219518" lon="10.8248079"><ele>694.0</ele><time>2026-04-11T14:08:39.464Z</time></trkpt><trkpt lat="44.4218874" lon="10.8247876"><ele>691.8000000000001</ele><time>2026-04-11T14:08:40.494Z</time></trkpt><trkpt lat="44.4218199" lon="10.8247681"><ele>689.6</ele><time>2026-04-11T14:08:41.484Z</time></trkpt><trkpt lat="44.4217573" lon="10.8247501"><ele>687.4</ele><time>2026-04-11T14:08:42.432Z</time></trkpt><trkpt lat="44.421632" lon="10.8247646"><ele>685.2</ele><time>2026-04-11T14:08:44.474Z</time></trkpt><trkpt lat="44.4215142" lon="10.8248016"><ele>683.0</ele><time>2026-04-11T14:08:46.477Z</time></trkpt><trkpt lat="44.4214061" lon="10.8248291"><ele>683.0</ele><time>2026-04-11T14:08:48.48Z</time></trkpt><trkpt lat="44.4213358" lon="10.8248331"><ele>683.0</ele><time>2026-04-11T14:08:49.473Z</time></trkpt><trkpt lat="44.4212572" lon="10.8248329"><ele>683.0</ele><time>2026-04-11T14:08:50.475Z</time></trkpt><trkpt lat="44.4211809" lon="10.8248315"><ele>683.0</ele><time>2026-04-11T14:08:51.464Z</time></trkpt><trkpt lat="44.4211052" lon="10.8248361"><ele>683.0</ele><time>2026-04-11T14:08:52.43Z</time></trkpt><trkpt lat="44.4210262" lon="10.8248488"><ele>683.0</ele><time>2026-04-11T14:08:53.477Z</time></trkpt><trkpt lat="44.4209458" lon="10.8248704"><ele>682.1666666666666</ele><time>2026-04-11T14:08:54.473Z</time></trkpt><trkpt lat="44.4208698" lon="10.8248914"><ele>681.3333333333333</ele><time>2026-04-11T14:08:55.457Z</time></trkpt><trkpt lat="44.4207971" lon="10.8249162"><ele>680.5</ele><time>2026-04-11T14:08:56.479Z</time></trkpt><trkpt lat="44.4207004" lon="10.8249497"><ele>679.6666666666666</ele><time>2026-04-11T14:08:58.478Z</time></trkpt><trkpt lat="44.4206287" lon="10.8249907"><ele>678.8333333333334</ele><time>2026-04-11T14:09:00.495Z</time></trkpt><trkpt lat="44.4206364" lon="10.8251221"><ele>678.0</ele><time>2026-04-11T14:09:03.476Z</time></trkpt><trkpt lat="44.4207005" lon="10.825235"><ele>675.8333333333334</ele><time>2026-04-11T14:09:05.462Z</time></trkpt><trkpt lat="44.4207786" lon="10.8253739"><ele>673.6666666666666</ele><time>2026-04-11T14:09:07.455Z</time></trkpt><trkpt lat="44.420819" lon="10.8254494"><ele>671.5</ele><time>2026-04-11T14:09:08.436Z</time></trkpt><trkpt lat="44.4208631" lon="10.8255375"><ele>669.3333333333333</ele><time>2026-04-11T14:09:09.459Z</time></trkpt><trkpt lat="44.420911" lon="10.8256278"><ele>667.1666666666666</ele><time>2026-04-11T14:09:10.505Z</time></trkpt><trkpt lat="44.4209483" lon="10.8257101"><ele>665.0</ele><time>2026-04-11T14:09:11.455Z</time></trkpt><trkpt lat="44.4210177" lon="10.8258559"><ele>664.0</ele><time>2026-04-11T14:09:13.453Z</time></trkpt><trkpt lat="44.4210817" lon="10.8260053"><ele>663.0</ele><time>2026-04-11T14:09:15.456Z</time></trkpt><trkpt lat="44.4211145" lon="10.8261463"><ele>662.0</ele><time>2026-04-11T14:09:17.459Z</time></trkpt><trkpt lat="44.421137" lon="10.8262449"><ele>661.0</ele><time>2026-04-11T14:09:29.493Z</time></trkpt><trkpt lat="44.4211878" lon="10.8263133"><ele>660.0</ele><time>2026-04-11T14:09:32.466Z</time></trkpt><trkpt lat="44.4212421" lon="10.8263983"><ele>660.0</ele><time>2026-04-11T14:09:36.472Z</time></trkpt><trkpt lat="44.421285" lon="10.8264966"><ele>660.0</ele><time>2026-04-11T14:09:41.482Z</time></trkpt><trkpt lat="44.4213623" lon="10.8265583"><ele>660.0</ele><time>2026-04-11T14:09:46.479Z</time></trkpt><trkpt lat="44.421429" lon="10.8266231"><ele>660.0</ele><time>2026-04-11T14:09:51.486Z</time></trkpt><trkpt lat="44.4215084" lon="10.8266468"><ele>660.0</ele><time>2026-04-11T14:09:54.472Z</time></trkpt><trkpt lat="44.4216163" lon="10.8266499"><ele>660.0</ele><time>2026-04-11T14:09:57.482Z</time></trkpt><trkpt lat="44.4216949" lon="10.826673"><ele>659.0</ele><time>2026-04-11T14:09:59.47Z</time></trkpt><trkpt lat="44.4217512" lon="10.8267474"><ele>658.0</ele><time>2026-04-11T14:10:11.521Z</time></trkpt><trkpt lat="44.4217892" lon="10.8268451"><ele>657.0</ele><time>2026-04-11T14:10:13.489Z</time></trkpt><trkpt lat="44.4218598" lon="10.8269577"><ele>656.0</ele><time>2026-04-11T14:10:15.483Z</time></trkpt><trkpt lat="44.4219482" lon="10.8270762"><ele>655.0</ele><time>2026-04-11T14:10:17.481Z</time></trkpt><trkpt lat="44.422032" lon="10.8272001"><ele>655.0</ele><time>2026-04-11T14:10:19.471Z</time></trkpt><trkpt lat="44.4220681" lon="10.8272795"><ele>655.0</ele><time>2026-04-11T14:10:20.467Z</time></trkpt><trkpt lat="44.4221099" lon="10.8273936"><ele>655.0</ele><time>2026-04-11T14:10:21.454Z</time></trkpt><trkpt lat="44.4221377" lon="10.8274809"><ele>655.0</ele><time>2026-04-11T14:10:22.462Z</time></trkpt><trkpt lat="44.4221721" lon="10.8275739"><ele>655.0</ele><time>2026-04-11T14:10:23.45Z</time></trkpt><trkpt lat="44.4222023" lon="10.8276669"><ele>655.0</ele><time>2026-04-11T14:10:24.484Z</time></trkpt><trkpt lat="44.4222376" lon="10.8277693"><ele>652.6666666666667</ele><time>2026-04-11T14:10:25.474Z</time></trkpt><trkpt lat="44.4222693" lon="10.8278701"><ele>650.3333333333334</ele><time>2026-04-11T14:10:26.466Z</time></trkpt><trkpt lat="44.4223111" lon="10.8279701"><ele>648.0</ele><time>2026-04-11T14:10:27.48Z</time></trkpt><trkpt lat="44.4223525" lon="10.8280581"><ele>645.6666666666666</ele><time>2026-04-11T14:10:28.485Z</time></trkpt><trkpt lat="44.4224087" lon="10.8281484"><ele>643.3333333333333</ele><time>2026-04-11T14:10:29.46Z</time></trkpt><trkpt lat="44.4224626" lon="10.828226"><ele>641.0</ele><time>2026-04-11T14:10:30.461Z</time></trkpt><trkpt lat="44.4225259" lon="10.8282922"><ele>641.0</ele><time>2026-04-11T14:10:31.461Z</time></trkpt><trkpt lat="44.4225966" lon="10.8283517"><ele>641.0</ele><time>2026-04-11T14:10:32.472Z</time></trkpt><trkpt lat="44.4226547" lon="10.8283922"><ele>641.0</ele><time>2026-04-11T14:10:33.473Z</time></trkpt><trkpt lat="44.4227303" lon="10.828452"><ele>641.0</ele><time>2026-04-11T14:10:35.475Z</time></trkpt><trkpt lat="44.4227769" lon="10.8285162"><ele>641.0</ele><time>2026-04-11T14:10:37.517Z</time></trkpt><trkpt lat="44.4227338" lon="10.8285968"><ele>641.0</ele><time>2026-04-11T14:10:39.471Z</time></trkpt><trkpt lat="44.4226631" lon="10.8286753"><ele>638.0</ele><time>2026-04-11T14:10:41.507Z</time></trkpt><trkpt lat="44.4226221" lon="10.8287604"><ele>635.0</ele><time>2026-04-11T14:10:43.476Z</time></trkpt><trkpt lat="44.4226578" lon="10.8288416"><ele>632.0</ele><time>2026-04-11T14:10:46.487Z</time></trkpt><trkpt lat="44.4227855" lon="10.8288428"><ele>629.0</ele><time>2026-04-11T14:10:48.476Z</time></trkpt><trkpt lat="44.4228586" lon="10.8288537"><ele>626.0</ele><time>2026-04-11T14:10:49.471Z</time></trkpt><trkpt lat="44.4229269" lon="10.8288831"><ele>623.0</ele><time>2026-04-11T14:10:50.482Z</time></trkpt><trkpt lat="44.4229827" lon="10.8289327"><ele>623.0</ele><time>2026-04-11T14:10:51.476Z</time></trkpt><trkpt lat="44.4230376" lon="10.8289938"><ele>623.0</ele><time>2026-04-11T14:10:52.47Z</time></trkpt><trkpt lat="44.4230987" lon="10.8290571"><ele>623.0</ele><time>2026-04-11T14:10:53.48Z</time></trkpt><trkpt lat="44.4231689" lon="10.8291169"><ele>623.0</ele><time>2026-04-11T14:10:54.469Z</time></trkpt><trkpt lat="44.4232462" lon="10.8291635"><ele>623.0</ele><time>2026-04-11T14:10:55.463Z</time></trkpt><trkpt lat="44.4233212" lon="10.8291886"><ele>623.0</ele><time>2026-04-11T14:10:56.467Z</time></trkpt><trkpt lat="44.4233944" lon="10.8291945"><ele>623.0</ele><time>2026-04-11T14:10:57.481Z</time></trkpt><trkpt lat="44.4234616" lon="10.8291895"><ele>623.0</ele><time>2026-04-11T14:10:58.481Z</time></trkpt><trkpt lat="44.4235279" lon="10.8291904"><ele>623.0</ele><time>2026-04-11T14:10:59.49Z</time></trkpt><trkpt lat="44.423596" lon="10.8292013"><ele>623.0</ele><time>2026-04-11T14:11:00.476Z</time></trkpt><trkpt lat="44.4236679" lon="10.8292177"><ele>623.0</ele><time>2026-04-11T14:11:01.472Z</time></trkpt><trkpt lat="44.4237426" lon="10.8292355"><ele>623.0</ele><time>2026-04-11T14:11:02.538Z</time></trkpt><trkpt lat="44.4238155" lon="10.8292518"><ele>623.0</ele><time>2026-04-11T14:11:03.47Z</time></trkpt><trkpt lat="44.4238868" lon="10.8292675"><ele>622.1666666666666</ele><time>2026-04-11T14:11:04.479Z</time></trkpt><trkpt lat="44.4239594" lon="10.8292797"><ele>621.3333333333333</ele><time>2026-04-11T14:11:05.469Z</time></trkpt><trkpt lat="44.4240346" lon="10.8292917"><ele>620.5</ele><time>2026-04-11T14:11:06.48Z</time></trkpt><trkpt lat="44.4241139" lon="10.8293078"><ele>619.6666666666666</ele><time>2026-04-11T14:11:07.475Z</time></trkpt><trkpt lat="44.4241938" lon="10.8293272"><ele>618.8333333333334</ele><time>2026-04-11T14:11:08.513Z</time></trkpt><trkpt lat="44.4242679" lon="10.829343"><ele>618.0</ele><time>2026-04-11T14:11:09.492Z</time></trkpt><trkpt lat="44.424339" lon="10.8293551"><ele>614.5</ele><time>2026-04-11T14:11:10.482Z</time></trkpt><trkpt lat="44.4244058" lon="10.8293654"><ele>611.0</ele><time>2026-04-11T14:11:11.452Z</time></trkpt><trkpt lat="44.424472" lon="10.829371"><ele>607.5</ele><time>2026-04-11T14:11:12.479Z</time></trkpt><trkpt lat="44.4245399" lon="10.8293737"><ele>604.0</ele><time>2026-04-11T14:11:13.482Z</time></trkpt><trkpt lat="44.4246033" lon="10.8293822"><ele>600.5</ele><time>2026-04-11T14:11:14.529Z</time></trkpt><trkpt lat="44.4247043" lon="10.8293955"><ele>597.0</ele><time>2026-04-11T14:11:16.498Z</time></trkpt><trkpt lat="44.4248192" lon="10.8294347"><ele>595.6666666666666</ele><time>2026-04-11T14:11:18.492Z</time></trkpt><trkpt lat="44.4249251" lon="10.8294777"><ele>594.3333333333334</ele><time>2026-04-11T14:11:20.436Z</time></trkpt><trkpt lat="44.4249837" lon="10.8295132"><ele>593.0</ele><time>2026-04-11T14:11:21.47Z</time></trkpt><trkpt lat="44.4250482" lon="10.8295572"><ele>591.6666666666667</ele><time>2026-04-11T14:11:22.465Z</time></trkpt><trkpt lat="44.4251094" lon="10.8296023"><ele>590.3333333333334</ele><time>2026-04-11T14:11:23.465Z</time></trkpt><trkpt lat="44.4251744" lon="10.8296559"><ele>589.0</ele><time>2026-04-11T14:11:24.461Z</time></trkpt><trkpt lat="44.4252329" lon="10.8297154"><ele>589.0</ele><time>2026-04-11T14:11:25.464Z</time></trkpt><trkpt lat="44.425302" lon="10.829773"><ele>589.0</ele><time>2026-04-11T14:11:26.529Z</time></trkpt><trkpt lat="44.4253602" lon="10.8298327"><ele>589.0</ele><time>2026-04-11T14:11:27.431Z</time></trkpt><trkpt lat="44.4254212" lon="10.8298999"><ele>589.0</ele><time>2026-04-11T14:11:28.475Z</time></trkpt><trkpt lat="44.425479" lon="10.829982"><ele>589.0</ele><time>2026-04-11T14:11:29.456Z</time></trkpt><trkpt lat="44.4255432" lon="10.8300679"><ele>589.0</ele><time>2026-04-11T14:11:30.458Z</time></trkpt><trkpt lat="44.4256096" lon="10.8301518"><ele>586.5</ele><time>2026-04-11T14:11:31.434Z</time></trkpt><trkpt lat="44.4256717" lon="10.8302283"><ele>584.0</ele><time>2026-04-11T14:11:32.458Z</time></trkpt><trkpt lat="44.4257223" lon="10.8302946"><ele>581.5</ele><time>2026-04-11T14:11:33.45Z</time></trkpt><trkpt lat="44.4257686" lon="10.8303554"><ele>579.0</ele><time>2026-04-11T14:11:34.446Z</time></trkpt><trkpt lat="44.4258414" lon="10.8304502"><ele>576.5</ele><time>2026-04-11T14:11:36.454Z</time></trkpt><trkpt lat="44.425919" lon="10.8305321"><ele>574.0</ele><time>2026-04-11T14:11:38.437Z</time></trkpt><trkpt lat="44.4259711" lon="10.8305925"><ele>574.0</ele><time>2026-04-11T14:11:39.469Z</time></trkpt><trkpt lat="44.4260276" lon="10.8306627"><ele>574.0</ele><time>2026-04-11T14:11:40.471Z</time></trkpt><trkpt lat="44.426074" lon="10.8307514"><ele>574.0</ele><time>2026-04-11T14:11:41.473Z</time></trkpt><trkpt lat="44.4261115" lon="10.8308496"><ele>574.0</ele><time>2026-04-11T14:11:42.528Z</time></trkpt><trkpt lat="44.4261446" lon="10.8309462"><ele>574.0</ele><time>2026-04-11T14:11:43.465Z</time></trkpt><trkpt lat="44.4261843" lon="10.8310618"><ele>574.0</ele><time>2026-04-11T14:11:44.46Z</time></trkpt><trkpt lat="44.4262319" lon="10.8311782"><ele>573.6666666666667</ele><time>2026-04-11T14:11:45.448Z</time></trkpt><trkpt lat="44.4262823" lon="10.8312852"><ele>573.3333333333334</ele><time>2026-04-11T14:11:46.457Z</time></trkpt><trkpt lat="44.426333" lon="10.8313649"><ele>573.0</ele><time>2026-04-11T14:11:47.43Z</time></trkpt><trkpt lat="44.4263841" lon="10.8314418"><ele>572.6666666666666</ele><time>2026-04-11T14:11:48.454Z</time></trkpt><trkpt lat="44.4264358" lon="10.831529"><ele>572.3333333333333</ele><time>2026-04-11T14:11:49.475Z</time></trkpt><trkpt lat="44.4264883" lon="10.8315968"><ele>572.0</ele><time>2026-04-11T14:11:50.466Z</time></trkpt><trkpt lat="44.4265275" lon="10.8316712"><ele>572.0</ele><time>2026-04-11T14:11:51.461Z</time></trkpt><trkpt lat="44.4265438" lon="10.831778"><ele>572.0</ele><time>2026-04-11T14:11:53.482Z</time></trkpt><trkpt lat="44.4265027" lon="10.8318611"><ele>572.0</ele><time>2026-04-11T14:13:26.441Z</time></trkpt><trkpt lat="44.4264769" lon="10.8319909"><ele>572.0</ele><time>2026-04-11T14:13:29.47Z</time></trkpt><trkpt lat="44.4264864" lon="10.8321193"><ele>572.0</ele><time>2026-04-11T14:13:31.486Z</time></trkpt><trkpt lat="44.4265306" lon="10.8322269"><ele>572.0</ele><time>2026-04-11T14:13:33.472Z</time></trkpt><trkpt lat="44.4266379" lon="10.8323305"><ele>568.0</ele><time>2026-04-11T14:13:35.475Z</time></trkpt><trkpt lat="44.4266995" lon="10.8323937"><ele>564.0</ele><time>2026-04-11T14:13:36.473Z</time></trkpt><trkpt lat="44.4267668" lon="10.8324641"><ele>560.0</ele><time>2026-04-11T14:13:37.451Z</time></trkpt><trkpt lat="44.4268314" lon="10.8325171"><ele>556.0</ele><time>2026-04-11T14:13:38.465Z</time></trkpt><trkpt lat="44.4268959" lon="10.8325705"><ele>552.0</ele><time>2026-04-11T14:13:39.448Z</time></trkpt><trkpt lat="44.4269667" lon="10.8326107"><ele>548.0</ele><time>2026-04-11T14:13:40.459Z</time></trkpt><trkpt lat="44.4270486" lon="10.8326308"><ele>541.0</ele><time>2026-04-11T14:13:41.436Z</time></trkpt><trkpt lat="44.4271527" lon="10.8326552"><ele>534.0</ele><time>2026-04-11T14:13:42.473Z</time></trkpt><trkpt lat="44.4272532" lon="10.8326805"><ele>527.0</ele><time>2026-04-11T14:13:43.443Z</time></trkpt><trkpt lat="44.4273515" lon="10.8327041"><ele>520.0</ele><time>2026-04-11T14:13:44.451Z</time></trkpt><trkpt lat="44.4274378" lon="10.8327264"><ele>513.0</ele><time>2026-04-11T14:13:45.454Z</time></trkpt><trkpt lat="44.4275301" lon="10.8327487"><ele>513.0</ele><time>2026-04-11T14:13:46.436Z</time></trkpt><trkpt lat="44.4276195" lon="10.8327711"><ele>513.0</ele><time>2026-04-11T14:13:47.463Z</time></trkpt><trkpt lat="44.4277012" lon="10.8327903"><ele>513.0</ele><time>2026-04-11T14:13:48.42Z</time></trkpt><trkpt lat="44.427774" lon="10.8328082"><ele>513.0</ele><time>2026-04-11T14:13:49.495Z</time></trkpt><trkpt lat="44.4278996" lon="10.8328537"><ele>513.0</ele><time>2026-04-11T14:13:51.456Z</time></trkpt><trkpt lat="44.4279688" lon="10.8328966"><ele>512.8333333333334</ele><time>2026-04-11T14:13:52.462Z</time></trkpt><trkpt lat="44.4280365" lon="10.8329331"><ele>512.6666666666666</ele><time>2026-04-11T14:13:53.481Z</time></trkpt><trkpt lat="44.4281048" lon="10.8329619"><ele>512.5</ele><time>2026-04-11T14:13:54.477Z</time></trkpt><trkpt lat="44.4281938" lon="10.8329796"><ele>512.3333333333333</ele><time>2026-04-11T14:13:55.47Z</time></trkpt><trkpt lat="44.4282847" lon="10.8330028"><ele>512.1666666666666</ele><time>2026-04-11T14:13:56.475Z</time></trkpt><trkpt lat="44.4283706" lon="10.8330244"><ele>512.0</ele><time>2026-04-11T14:13:57.466Z</time></trkpt><trkpt lat="44.4284416" lon="10.8330458"><ele>512.0</ele><time>2026-04-11T14:13:58.48Z</time></trkpt><trkpt lat="44.4285084" lon="10.8330535"><ele>511.99999999999994</ele><time>2026-04-11T14:13:59.483Z</time></trkpt><trkpt lat="44.4285762" lon="10.8330432"><ele>512.0</ele><time>2026-04-11T14:14:00.477Z</time></trkpt><trkpt lat="44.428643" lon="10.8330198"><ele>512.0</ele><time>2026-04-11T14:14:01.468Z</time></trkpt><trkpt lat="44.4287166" lon="10.8329975"><ele>511.99999999999994</ele><time>2026-04-11T14:14:02.475Z</time></trkpt><trkpt lat="44.4287932" lon="10.8329858"><ele>512.0</ele><time>2026-04-11T14:14:03.47Z</time></trkpt><trkpt lat="44.4288787" lon="10.8329845"><ele>512.0</ele><time>2026-04-11T14:14:04.479Z</time></trkpt><trkpt lat="44.4289646" lon="10.832981"><ele>510.49999999999994</ele><time>2026-04-11T14:14:05.475Z</time></trkpt><trkpt lat="44.4290432" lon="10.8329754"><ele>509.0</ele><time>2026-04-11T14:14:06.458Z</time></trkpt><trkpt lat="44.4291312" lon="10.8329685"><ele>507.5</ele><time>2026-04-11T14:14:07.464Z</time></trkpt><trkpt lat="44.4292167" lon="10.8329661"><ele>506.0</ele><time>2026-04-11T14:14:08.468Z</time></trkpt><trkpt lat="44.4292997" lon="10.8329612"><ele>504.49999999999994</ele><time>2026-04-11T14:14:09.464Z</time></trkpt><trkpt lat="44.4293755" lon="10.832962"><ele>503.0</ele><time>2026-04-11T14:14:10.52Z</time></trkpt><trkpt lat="44.4294546" lon="10.8329716"><ele>502.99999999999994</ele><time>2026-04-11T14:14:11.48Z</time></trkpt><trkpt lat="44.4295284" lon="10.8329836"><ele>503.0</ele><time>2026-04-11T14:14:12.486Z</time></trkpt><trkpt lat="44.4296006" lon="10.8329991"><ele>503.0</ele><time>2026-04-11T14:14:13.479Z</time></trkpt><trkpt lat="44.4296721" lon="10.8330138"><ele>503.0</ele><time>2026-04-11T14:14:14.475Z</time></trkpt><trkpt lat="44.4297408" lon="10.8330278"><ele>502.99999999999994</ele><time>2026-04-11T14:14:15.467Z</time></trkpt><trkpt lat="44.4298084" lon="10.8330371"><ele>503.0</ele><time>2026-04-11T14:14:16.528Z</time></trkpt><trkpt lat="44.4299256" lon="10.8330569"><ele>502.99999999999994</ele><time>2026-04-11T14:14:18.488Z</time></trkpt><trkpt lat="44.4300261" lon="10.8330676"><ele>503.0</ele><time>2026-04-11T14:14:20.478Z</time></trkpt><trkpt lat="44.430109" lon="10.8330396"><ele>503.0</ele><time>2026-04-11T14:14:22.485Z</time></trkpt><trkpt lat="44.4301463" lon="10.832917"><ele>503.0</ele><time>2026-04-11T14:14:24.445Z</time></trkpt><trkpt lat="44.4301577" lon="10.8328234"><ele>502.99999999999994</ele><time>2026-04-11T14:14:25.472Z</time></trkpt><trkpt lat="44.4301604" lon="10.8327177"><ele>503.0</ele><time>2026-04-11T14:14:26.488Z</time></trkpt><trkpt lat="44.4301503" lon="10.8326117"><ele>502.99999999999994</ele><time>2026-04-11T14:14:27.534Z</time></trkpt><trkpt lat="44.4301364" lon="10.8325099"><ele>503.0</ele><time>2026-04-11T14:14:28.458Z</time></trkpt><trkpt lat="44.430114" lon="10.8324017"><ele>503.0</ele><time>2026-04-11T14:14:29.496Z</time></trkpt><trkpt lat="44.4300808" lon="10.8322998"><ele>503.0</ele><time>2026-04-11T14:14:30.479Z</time></trkpt><trkpt lat="44.4300406" lon="10.8322121"><ele>502.99999999999994</ele><time>2026-04-11T14:14:31.498Z</time></trkpt><trkpt lat="44.4300018" lon="10.8321404"><ele>503.0</ele><time>2026-04-11T14:14:32.48Z</time></trkpt><trkpt lat="44.4299803" lon="10.8320186"><ele>502.99999999999994</ele><time>2026-04-11T14:14:34.466Z</time></trkpt><trkpt lat="44.4300549" lon="10.8319624"><ele>503.0</ele><time>2026-04-11T14:14:36.445Z</time></trkpt><trkpt lat="44.4301261" lon="10.8319822"><ele>503.0</ele><time>2026-04-11T14:14:37.466Z</time></trkpt><trkpt lat="44.4302088" lon="10.832027"><ele>503.0</ele><time>2026-04-11T14:14:38.462Z</time></trkpt><trkpt lat="44.4302867" lon="10.8320728"><ele>502.99999999999994</ele><time>2026-04-11T14:14:39.501Z</time></trkpt><trkpt lat="44.4303669" lon="10.8321359"><ele>503.0</ele><time>2026-04-11T14:14:40.469Z</time></trkpt><trkpt lat="44.4304359" lon="10.8322075"><ele>500.8333333333333</ele><time>2026-04-11T14:14:41.49Z</time></trkpt><trkpt lat="44.4304982" lon="10.8322969"><ele>498.66666666666663</ele><time>2026-04-11T14:14:42.477Z</time></trkpt><trkpt lat="44.4305516" lon="10.8323993"><ele>496.5</ele><time>2026-04-11T14:14:43.484Z</time></trkpt><trkpt lat="44.4306001" lon="10.8325104"><ele>494.33333333333337</ele><time>2026-04-11T14:14:44.477Z</time></trkpt><trkpt lat="44.4306439" lon="10.8326123"><ele>492.1666666666667</ele><time>2026-04-11T14:14:45.455Z</time></trkpt><trkpt lat="44.4306852" lon="10.8326998"><ele>490.0</ele><time>2026-04-11T14:14:46.468Z</time></trkpt><trkpt lat="44.4307753" lon="10.8327814"><ele>490.00000000000006</ele><time>2026-04-11T14:14:48.441Z</time></trkpt><trkpt lat="44.4308504" lon="10.8326905"><ele>490.0</ele><time>2026-04-11T14:14:50.498Z</time></trkpt><trkpt lat="44.4308394" lon="10.8325959"><ele>490.0</ele><time>2026-04-11T14:14:51.482Z</time></trkpt><trkpt lat="44.4308287" lon="10.8324877"><ele>490.0</ele><time>2026-04-11T14:14:52.43Z</time></trkpt><trkpt lat="44.430794" lon="10.8323558"><ele>490.00000000000006</ele><time>2026-04-11T14:14:53.461Z</time></trkpt><trkpt lat="44.4307608" lon="10.832236"><ele>490.0</ele><time>2026-04-11T14:14:54.469Z</time></trkpt><trkpt lat="44.4307343" lon="10.8321216"><ele>489.33333333333337</ele><time>2026-04-11T14:14:55.453Z</time></trkpt><trkpt lat="44.4307123" lon="10.8320248"><ele>488.6666666666667</ele><time>2026-04-11T14:14:56.469Z</time></trkpt><trkpt lat="44.4306841" lon="10.8319231"><ele>488.0</ele><time>2026-04-11T14:14:57.477Z</time></trkpt><trkpt lat="44.4306494" lon="10.8318321"><ele>487.33333333333337</ele><time>2026-04-11T14:14:58.433Z</time></trkpt><trkpt lat="44.430597" lon="10.8317427"><ele>486.6666666666667</ele><time>2026-04-11T14:14:59.478Z</time></trkpt><trkpt lat="44.4305434" lon="10.8316499"><ele>486.0</ele><time>2026-04-11T14:15:00.492Z</time></trkpt><trkpt lat="44.4304787" lon="10.8315784"><ele>485.6666666666667</ele><time>2026-04-11T14:15:01.46Z</time></trkpt><trkpt lat="44.4304146" lon="10.831502"><ele>485.33333333333337</ele><time>2026-04-11T14:15:02.474Z</time></trkpt><trkpt lat="44.4303647" lon="10.8313997"><ele>485.0</ele><time>2026-04-11T14:15:03.496Z</time></trkpt><trkpt lat="44.4303192" lon="10.8312947"><ele>484.6666666666667</ele><time>2026-04-11T14:15:04.469Z</time></trkpt><trkpt lat="44.4302886" lon="10.8311807"><ele>484.33333333333337</ele><time>2026-04-11T14:15:05.471Z</time></trkpt><trkpt lat="44.430263" lon="10.8310497"><ele>484.0</ele><time>2026-04-11T14:15:06.426Z</time></trkpt><trkpt lat="44.430231" lon="10.8309196"><ele>484.00000000000006</ele><time>2026-04-11T14:15:07.486Z</time></trkpt><trkpt lat="44.4302127" lon="10.8307938"><ele>484.0</ele><time>2026-04-11T14:15:08.473Z</time></trkpt><trkpt lat="44.4302089" lon="10.8306694"><ele>484.0</ele><time>2026-04-11T14:15:09.471Z</time></trkpt><trkpt lat="44.4302193" lon="10.8305503"><ele>484.0</ele><time>2026-04-11T14:15:10.466Z</time></trkpt><trkpt lat="44.4302469" lon="10.8304313"><ele>484.00000000000006</ele><time>2026-04-11T14:15:11.481Z</time></trkpt><trkpt lat="44.4302916" lon="10.8303187"><ele>484.0</ele><time>2026-04-11T14:15:12.468Z</time></trkpt><trkpt lat="44.4303537" lon="10.830199"><ele>487.79999999999995</ele><time>2026-04-11T14:15:13.464Z</time></trkpt><trkpt lat="44.4304142" lon="10.830083"><ele>491.59999999999997</ele><time>2026-04-11T14:15:14.47Z</time></trkpt><trkpt lat="44.430481" lon="10.8299698"><ele>495.4</ele><time>2026-04-11T14:15:15.46Z</time></trkpt><trkpt lat="44.4305587" lon="10.8298594"><ele>499.2</ele><time>2026-04-11T14:15:16.466Z</time></trkpt><trkpt lat="44.4306325" lon="10.8297636"><ele>503.0</ele><time>2026-04-11T14:15:17.468Z</time></trkpt><trkpt lat="44.430705" lon="10.8296714"><ele>495.4</ele><time>2026-04-11T14:15:18.457Z</time></trkpt><trkpt lat="44.4307823" lon="10.8295928"><ele>487.79999999999995</ele><time>2026-04-11T14:15:19.47Z</time></trkpt><trkpt lat="44.4308818" lon="10.8295501"><ele>480.2</ele><time>2026-04-11T14:15:20.449Z</time></trkpt><trkpt lat="44.4309776" lon="10.8295155"><ele>472.6</ele><time>2026-04-11T14:15:21.473Z</time></trkpt><trkpt lat="44.4310745" lon="10.8294894"><ele>465.0</ele><time>2026-04-11T14:15:22.484Z</time></trkpt><trkpt lat="44.4311688" lon="10.8294547"><ele>465.0</ele><time>2026-04-11T14:15:23.495Z</time></trkpt><trkpt lat="44.4312587" lon="10.829415"><ele>465.0</ele><time>2026-04-11T14:15:24.473Z</time></trkpt><trkpt lat="44.4313473" lon="10.8293769"><ele>465.0</ele><time>2026-04-11T14:15:25.473Z</time></trkpt><trkpt lat="44.4314369" lon="10.8293504"><ele>465.0</ele><time>2026-04-11T14:15:26.457Z</time></trkpt><trkpt lat="44.4315239" lon="10.8293245"><ele>465.0</ele><time>2026-04-11T14:15:27.485Z</time></trkpt><trkpt lat="44.4316179" lon="10.8293088"><ele>464.8333333333333</ele><time>2026-04-11T14:15:28.479Z</time></trkpt><trkpt lat="44.4317079" lon="10.8292916"><ele>464.66666666666663</ele><time>2026-04-11T14:15:29.474Z</time></trkpt><trkpt lat="44.4317921" lon="10.8292634"><ele>464.5</ele><time>2026-04-11T14:15:30.479Z</time></trkpt><trkpt lat="44.4318757" lon="10.8292147"><ele>464.3333333333333</ele><time>2026-04-11T14:15:31.469Z</time></trkpt><trkpt lat="44.4319533" lon="10.8291494"><ele>464.16666666666663</ele><time>2026-04-11T14:15:32.45Z</time></trkpt><trkpt lat="44.4320188" lon="10.829079"><ele>464.0</ele><time>2026-04-11T14:15:33.469Z</time></trkpt><trkpt lat="44.4320755" lon="10.8290145"><ele>463.99999999999994</ele><time>2026-04-11T14:15:34.48Z</time></trkpt><trkpt lat="44.4321302" lon="10.8289556"><ele>464.0</ele><time>2026-04-11T14:15:35.471Z</time></trkpt><trkpt lat="44.4322123" lon="10.8288548"><ele>464.0</ele><time>2026-04-11T14:15:37.485Z</time></trkpt><trkpt lat="44.4322741" lon="10.8287716"><ele>464.0</ele><time>2026-04-11T14:15:40.486Z</time></trkpt><trkpt lat="44.4323293" lon="10.8288298"><ele>463.99999999999994</ele><time>2026-04-11T14:15:46.444Z</time></trkpt><trkpt lat="44.4323747" lon="10.8288982"><ele>464.0</ele><time>2026-04-11T14:15:50.46Z</time></trkpt><trkpt lat="44.4324533" lon="10.8288979"><ele>464.0</ele><time>2026-04-11T14:15:55.461Z</time></trkpt><trkpt lat="44.4323395" lon="10.8289118"><ele>464.0</ele><time>2026-04-11T14:16:13.433Z</time></trkpt><trkpt lat="44.4321758" lon="10.8290056"><ele>464.0</ele><time>2026-04-11T14:16:21.467Z</time></trkpt><trkpt lat="44.432094" lon="10.829129"><ele>464.0</ele><time>2026-04-11T14:16:23.471Z</time></trkpt><trkpt lat="44.4320456" lon="10.8291991"><ele>464.00000000000006</ele><time>2026-04-11T14:16:24.512Z</time></trkpt><trkpt lat="44.4319903" lon="10.8292761"><ele>464.0</ele><time>2026-04-11T14:16:25.473Z</time></trkpt><trkpt lat="44.4319348" lon="10.8293523"><ele>464.00000000000006</ele><time>2026-04-11T14:16:26.483Z</time></trkpt><trkpt lat="44.4318816" lon="10.8294294"><ele>464.00000000000006</ele><time>2026-04-11T14:16:27.472Z</time></trkpt><trkpt lat="44.4318272" lon="10.8295051"><ele>464.0</ele><time>2026-04-11T14:16:28.47Z</time></trkpt><trkpt lat="44.4317771" lon="10.8295745"><ele>464.00000000000006</ele><time>2026-04-11T14:16:29.467Z</time></trkpt><trkpt lat="44.4317297" lon="10.8296389"><ele>464.00000000000006</ele><time>2026-04-11T14:16:30.532Z</time></trkpt><trkpt lat="44.431644" lon="10.8297682"><ele>461.8571428571429</ele><time>2026-04-11T14:16:32.472Z</time></trkpt><trkpt lat="44.4316008" lon="10.8298362"><ele>459.7142857142857</ele><time>2026-04-11T14:16:33.464Z</time></trkpt><trkpt lat="44.4315568" lon="10.8299024"><ele>457.57142857142856</ele><time>2026-04-11T14:16:34.459Z</time></trkpt><trkpt lat="44.4315119" lon="10.8299769"><ele>455.42857142857144</ele><time>2026-04-11T14:16:35.472Z</time></trkpt><trkpt lat="44.4314647" lon="10.8300659"><ele>453.2857142857142</ele><time>2026-04-11T14:16:36.455Z</time></trkpt><trkpt lat="44.4314216" lon="10.8301601"><ele>451.1428571428571</ele><time>2026-04-11T14:16:37.469Z</time></trkpt><trkpt lat="44.4313774" lon="10.8302641"><ele>449.0</ele><time>2026-04-11T14:16:38.47Z</time></trkpt><trkpt lat="44.4313323" lon="10.8303762"><ele>451.4</ele><time>2026-04-11T14:16:39.469Z</time></trkpt><trkpt lat="44.4312882" lon="10.8304958"><ele>453.79999999999995</ele><time>2026-04-11T14:16:40.478Z</time></trkpt><trkpt lat="44.4312555" lon="10.8306161"><ele>456.20000000000005</ele><time>2026-04-11T14:16:41.473Z</time></trkpt><trkpt lat="44.4312371" lon="10.8307381"><ele>458.6</ele><time>2026-04-11T14:16:42.448Z</time></trkpt><trkpt lat="44.4312439" lon="10.8308598"><ele>461.0</ele><time>2026-04-11T14:16:43.473Z</time></trkpt><trkpt lat="44.4312763" lon="10.8309761"><ele>458.4</ele><time>2026-04-11T14:16:44.468Z</time></trkpt><trkpt lat="44.431332" lon="10.8310863"><ele>455.8</ele><time>2026-04-11T14:16:45.459Z</time></trkpt><trkpt lat="44.4314076" lon="10.8311895"><ele>453.19999999999993</ele><time>2026-04-11T14:16:46.474Z</time></trkpt><trkpt lat="44.4314908" lon="10.8312924"><ele>450.59999999999997</ele><time>2026-04-11T14:16:47.47Z</time></trkpt><trkpt lat="44.4315672" lon="10.8313947"><ele>448.0</ele><time>2026-04-11T14:16:48.479Z</time></trkpt><trkpt lat="44.4316418" lon="10.8314944"><ele>448.0</ele><time>2026-04-11T14:16:49.467Z</time></trkpt><trkpt lat="44.4317078" lon="10.8316064"><ele>448.0</ele><time>2026-04-11T14:16:50.483Z</time></trkpt><trkpt lat="44.4317639" lon="10.8317616"><ele>448.0</ele><time>2026-04-11T14:16:51.472Z</time></trkpt><trkpt lat="44.4318186" lon="10.8319311"><ele>448.0</ele><time>2026-04-11T14:16:52.472Z</time></trkpt><trkpt lat="44.4318699" lon="10.8321128"><ele>450.25</ele><time>2026-04-11T14:16:53.479Z</time></trkpt><trkpt lat="44.4319203" lon="10.8322922"><ele>452.5</ele><time>2026-04-11T14:16:54.448Z</time></trkpt><trkpt lat="44.4319627" lon="10.8324591"><ele>454.75</ele><time>2026-04-11T14:16:55.475Z</time></trkpt><trkpt lat="44.4320013" lon="10.8326114"><ele>457.0</ele><time>2026-04-11T14:16:56.471Z</time></trkpt><trkpt lat="44.4320362" lon="10.8327478"><ele>457.1666666666667</ele><time>2026-04-11T14:16:57.467Z</time></trkpt><trkpt lat="44.4320665" lon="10.8328667"><ele>457.33333333333337</ele><time>2026-04-11T14:16:58.472Z</time></trkpt><trkpt lat="44.4320915" lon="10.8329681"><ele>457.5</ele><time>2026-04-11T14:16:59.483Z</time></trkpt><trkpt lat="44.4321111" lon="10.8330592"><ele>457.66666666666663</ele><time>2026-04-11T14:17:00.454Z</time></trkpt><trkpt lat="44.4321417" lon="10.8332092"><ele>457.8333333333333</ele><time>2026-04-11T14:17:02.49Z</time></trkpt><trkpt lat="44.4321672" lon="10.8333215"><ele>458.0</ele><time>2026-04-11T14:17:04.477Z</time></trkpt><trkpt lat="44.4322479" lon="10.8333766"><ele>455.99999999999994</ele><time>2026-04-11T14:17:07.479Z</time></trkpt><trkpt lat="44.4323604" lon="10.8334085"><ele>454.0</ele><time>2026-04-11T14:17:09.447Z</time></trkpt><trkpt lat="44.4324185" lon="10.8334572"><ele>452.0</ele><time>2026-04-11T14:17:11.461Z</time></trkpt><trkpt lat="44.4324634" lon="10.8335252"><ele>450.0</ele><time>2026-04-11T14:17:15.475Z</time></trkpt><trkpt lat="44.4324128" lon="10.8334414"><ele>447.99999999999994</ele><time>2026-04-11T14:17:21.474Z</time></trkpt><trkpt lat="44.4323443" lon="10.8333926"><ele>446.0</ele><time>2026-04-11T14:17:23.461Z</time></trkpt><trkpt lat="44.4322727" lon="10.8333758"><ele>445.8333333333333</ele><time>2026-04-11T14:17:25.49Z</time></trkpt><trkpt lat="44.4322035" lon="10.8333617"><ele>445.66666666666663</ele><time>2026-04-11T14:20:32.473Z</time></trkpt><trkpt lat="44.4321483" lon="10.8334065"><ele>445.5</ele><time>2026-04-11T14:20:36.495Z</time></trkpt><trkpt lat="44.432127" lon="10.8335422"><ele>445.33333333333337</ele><time>2026-04-11T14:20:38.453Z</time></trkpt><trkpt lat="44.4321189" lon="10.8336445"><ele>445.1666666666667</ele><time>2026-04-11T14:20:39.463Z</time></trkpt><trkpt lat="44.4321098" lon="10.8337561"><ele>445.0</ele><time>2026-04-11T14:20:40.478Z</time></trkpt><trkpt lat="44.4321001" lon="10.8338819"><ele>446.6</ele><time>2026-04-11T14:20:41.459Z</time></trkpt><trkpt lat="44.4320895" lon="10.8340149"><ele>448.2</ele><time>2026-04-11T14:20:42.461Z</time></trkpt><trkpt lat="44.4320767" lon="10.8341661"><ele>449.79999999999995</ele><time>2026-04-11T14:20:43.439Z</time></trkpt><trkpt lat="44.4320658" lon="10.8343211"><ele>451.4</ele><time>2026-04-11T14:20:44.501Z</time></trkpt><trkpt lat="44.4320548" lon="10.8344728"><ele>453.0</ele><time>2026-04-11T14:20:45.464Z</time></trkpt><trkpt lat="44.4320442" lon="10.8346251"><ele>453.0</ele><time>2026-04-11T14:20:46.477Z</time></trkpt><trkpt lat="44.4320337" lon="10.8347793"><ele>452.99999999999994</ele><time>2026-04-11T14:20:47.482Z</time></trkpt><trkpt lat="44.4320231" lon="10.8349217"><ele>452.99999999999994</ele><time>2026-04-11T14:20:48.477Z</time></trkpt><trkpt lat="44.4320098" lon="10.8350527"><ele>453.0</ele><time>2026-04-11T14:20:49.451Z</time></trkpt><trkpt lat="44.4319904" lon="10.8351637"><ele>453.0</ele><time>2026-04-11T14:20:50.481Z</time></trkpt><trkpt lat="44.4319633" lon="10.8352528"><ele>450.5</ele><time>2026-04-11T14:20:51.477Z</time></trkpt><trkpt lat="44.4319155" lon="10.8353201"><ele>448.0</ele><time>2026-04-11T14:20:52.482Z</time></trkpt><trkpt lat="44.4318459" lon="10.8353628"><ele>445.5</ele><time>2026-04-11T14:20:53.476Z</time></trkpt><trkpt lat="44.4317561" lon="10.8353917"><ele>443.0</ele><time>2026-04-11T14:20:54.49Z</time></trkpt><trkpt lat="44.4316666" lon="10.8354349"><ele>440.5</ele><time>2026-04-11T14:20:55.475Z</time></trkpt><trkpt lat="44.4315867" lon="10.8355074"><ele>438.0</ele><time>2026-04-11T14:20:56.495Z</time></trkpt><trkpt lat="44.4315253" lon="10.8356042"><ele>438.0</ele><time>2026-04-11T14:20:57.499Z</time></trkpt><trkpt lat="44.431487" lon="10.8357192"><ele>437.99999999999994</ele><time>2026-04-11T14:20:58.474Z</time></trkpt><trkpt lat="44.431475" lon="10.8358484"><ele>437.99999999999994</ele><time>2026-04-11T14:20:59.499Z</time></trkpt><trkpt lat="44.4314634" lon="10.8359799"><ele>438.0</ele><time>2026-04-11T14:21:00.485Z</time></trkpt><trkpt lat="44.4314973" lon="10.8361121"><ele>438.0</ele><time>2026-04-11T14:21:01.467Z</time></trkpt><trkpt lat="44.4315222" lon="10.8362441"><ele>435.2</ele><time>2026-04-11T14:21:02.481Z</time></trkpt><trkpt lat="44.4315273" lon="10.8363747"><ele>432.4</ele><time>2026-04-11T14:21:03.49Z</time></trkpt><trkpt lat="44.4315119" lon="10.8365066"><ele>429.59999999999997</ele><time>2026-04-11T14:21:04.483Z</time></trkpt><trkpt lat="44.4314821" lon="10.836652"><ele>426.79999999999995</ele><time>2026-04-11T14:21:05.482Z</time></trkpt><trkpt lat="44.4314433" lon="10.8367943"><ele>424.0</ele><time>2026-04-11T14:21:06.46Z</time></trkpt><trkpt lat="44.4313954" lon="10.8369249"><ele>425.0</ele><time>2026-04-11T14:21:07.447Z</time></trkpt><trkpt lat="44.43134" lon="10.8370416"><ele>426.0</ele><time>2026-04-11T14:21:08.474Z</time></trkpt><trkpt lat="44.4312802" lon="10.8371342"><ele>427.0</ele><time>2026-04-11T14:21:09.489Z</time></trkpt><trkpt lat="44.431211" lon="10.837198"><ele>428.0</ele><time>2026-04-11T14:21:10.459Z</time></trkpt><trkpt lat="44.4311304" lon="10.8372259"><ele>429.0</ele><time>2026-04-11T14:21:11.462Z</time></trkpt><trkpt lat="44.4310357" lon="10.8372339"><ele>429.0</ele><time>2026-04-11T14:21:12.482Z</time></trkpt><trkpt lat="44.4309404" lon="10.8372472"><ele>429.0</ele><time>2026-04-11T14:21:13.502Z</time></trkpt><trkpt lat="44.4308503" lon="10.8372793"><ele>429.0</ele><time>2026-04-11T14:21:14.465Z</time></trkpt><trkpt lat="44.4307761" lon="10.8373381"><ele>429.0</ele><time>2026-04-11T14:21:15.467Z</time></trkpt><trkpt lat="44.4307198" lon="10.8374201"><ele>429.0</ele><time>2026-04-11T14:21:16.469Z</time></trkpt><trkpt lat="44.4306809" lon="10.8375177"><ele>429.0</ele><time>2026-04-11T14:21:17.486Z</time></trkpt><trkpt lat="44.4306603" lon="10.8376197"><ele>428.6</ele><time>2026-04-11T14:21:18.469Z</time></trkpt><trkpt lat="44.4306624" lon="10.8377208"><ele>428.2</ele><time>2026-04-11T14:21:19.509Z</time></trkpt><trkpt lat="44.430681" lon="10.837812"><ele>427.80000000000007</ele><time>2026-04-11T14:21:20.49Z</time></trkpt><trkpt lat="44.4307176" lon="10.8379544"><ele>427.40000000000003</ele><time>2026-04-11T14:21:22.477Z</time></trkpt><trkpt lat="44.4307149" lon="10.8380845"><ele>427.0</ele><time>2026-04-11T14:21:25.475Z</time></trkpt><trkpt lat="44.4306473" lon="10.838206"><ele>427.0</ele><time>2026-04-11T14:21:27.467Z</time></trkpt><trkpt lat="44.4305874" lon="10.8382851"><ele>427.00000000000006</ele><time>2026-04-11T14:21:28.483Z</time></trkpt><trkpt lat="44.4305223" lon="10.838364"><ele>427.00000000000006</ele><time>2026-04-11T14:21:29.48Z</time></trkpt><trkpt lat="44.4304464" lon="10.8384534"><ele>427.0</ele><time>2026-04-11T14:21:30.484Z</time></trkpt><trkpt lat="44.4303629" lon="10.838554"><ele>427.0</ele><time>2026-04-11T14:21:31.464Z</time></trkpt><trkpt lat="44.4302806" lon="10.8386544"><ele>427.8</ele><time>2026-04-11T14:21:32.474Z</time></trkpt><trkpt lat="44.4302023" lon="10.8387499"><ele>428.6</ele><time>2026-04-11T14:21:33.457Z</time></trkpt><trkpt lat="44.4301307" lon="10.838836"><ele>429.40000000000003</ele><time>2026-04-11T14:21:34.487Z</time></trkpt><trkpt lat="44.4300665" lon="10.8389151"><ele>430.20000000000005</ele><time>2026-04-11T14:21:35.479Z</time></trkpt><trkpt lat="44.4300126" lon="10.8389801"><ele>431.0</ele><time>2026-04-11T14:21:36.476Z</time></trkpt><trkpt lat="44.4299405" lon="10.8390701"><ele>430.99999999999994</ele><time>2026-04-11T14:21:38.457Z</time></trkpt><trkpt lat="44.429891" lon="10.8391295"><ele>431.0</ele><time>2026-04-11T14:21:41.471Z</time></trkpt><trkpt lat="44.4298454" lon="10.8392029"><ele>431.0</ele><time>2026-04-11T14:21:44.477Z</time></trkpt><trkpt lat="44.4298456" lon="10.8393384"><ele>431.0</ele><time>2026-04-11T14:21:46.462Z</time></trkpt><trkpt lat="44.4298655" lon="10.8394321"><ele>430.99999999999994</ele><time>2026-04-11T14:21:47.508Z</time></trkpt><trkpt lat="44.4298887" lon="10.8395493"><ele>431.0</ele><time>2026-04-11T14:21:48.484Z</time></trkpt><trkpt lat="44.4299131" lon="10.8396846"><ele>430.8</ele><time>2026-04-11T14:21:49.488Z</time></trkpt><trkpt lat="44.429938" lon="10.8398228"><ele>430.6</ele><time>2026-04-11T14:21:50.481Z</time></trkpt><trkpt lat="44.4299664" lon="10.8399732"><ele>430.4</ele><time>2026-04-11T14:21:51.491Z</time></trkpt><trkpt lat="44.430008" lon="10.8401156"><ele>430.2</ele><time>2026-04-11T14:21:52.48Z</time></trkpt><trkpt lat="44.4300649" lon="10.8402308"><ele>430.0</ele><time>2026-04-11T14:21:53.464Z</time></trkpt><trkpt lat="44.430135" lon="10.8402998"><ele>432.0</ele><time>2026-04-11T14:21:54.475Z</time></trkpt><trkpt lat="44.4302217" lon="10.8403299"><ele>434.0</ele><time>2026-04-11T14:21:55.488Z</time></trkpt><trkpt lat="44.4303232" lon="10.8403361"><ele>436.0</ele><time>2026-04-11T14:21:56.484Z</time></trkpt><trkpt lat="44.4304337" lon="10.8403178"><ele>438.0</ele><time>2026-04-11T14:21:57.491Z</time></trkpt><trkpt lat="44.4305546" lon="10.8402898"><ele>440.0</ele><time>2026-04-11T14:21:58.511Z</time></trkpt><trkpt lat="44.4306865" lon="10.8402643"><ele>438.75</ele><time>2026-04-11T14:21:59.463Z</time></trkpt><trkpt lat="44.4308228" lon="10.8402419"><ele>437.5</ele><time>2026-04-11T14:22:00.469Z</time></trkpt><trkpt lat="44.430945" lon="10.8402126"><ele>436.25</ele><time>2026-04-11T14:22:01.488Z</time></trkpt><trkpt lat="44.4310557" lon="10.8401648"><ele>435.0</ele><time>2026-04-11T14:22:02.492Z</time></trkpt><trkpt lat="44.4311594" lon="10.8400896"><ele>435.0</ele><time>2026-04-11T14:22:03.489Z</time></trkpt><trkpt lat="44.4312583" lon="10.8399889"><ele>435.0</ele><time>2026-04-11T14:22:04.542Z</time></trkpt><trkpt lat="44.4313457" lon="10.8398883"><ele>435.0</ele><time>2026-04-11T14:22:05.486Z</time></trkpt><trkpt lat="44.4314339" lon="10.8398026"><ele>435.0</ele><time>2026-04-11T14:22:06.496Z</time></trkpt><trkpt lat="44.4315331" lon="10.8397433"><ele>437.2</ele><time>2026-04-11T14:22:07.47Z</time></trkpt><trkpt lat="44.4316401" lon="10.8397121"><ele>439.4</ele><time>2026-04-11T14:22:08.485Z</time></trkpt><trkpt lat="44.4317474" lon="10.8397094"><ele>441.6</ele><time>2026-04-11T14:22:09.492Z</time></trkpt><trkpt lat="44.431858" lon="10.8397367"><ele>443.8</ele><time>2026-04-11T14:22:10.439Z</time></trkpt><trkpt lat="44.4319675" lon="10.8397898"><ele>446.0</ele><time>2026-04-11T14:22:11.493Z</time></trkpt><trkpt lat="44.432075" lon="10.8398335"><ele>448.25</ele><time>2026-04-11T14:22:12.491Z</time></trkpt><trkpt lat="44.4321907" lon="10.8398421"><ele>450.5</ele><time>2026-04-11T14:22:13.48Z</time></trkpt><trkpt lat="44.4323116" lon="10.8398154"><ele>452.75</ele><time>2026-04-11T14:22:14.467Z</time></trkpt><trkpt lat="44.4324403" lon="10.8397615"><ele>455.0</ele><time>2026-04-11T14:22:15.494Z</time></trkpt><trkpt lat="44.4325617" lon="10.8397087"><ele>455.0</ele><time>2026-04-11T14:22:16.48Z</time></trkpt><trkpt lat="44.4326766" lon="10.8396815"><ele>455.0</ele><time>2026-04-11T14:22:17.469Z</time></trkpt><trkpt lat="44.4327947" lon="10.8396795"><ele>455.0</ele><time>2026-04-11T14:22:18.456Z</time></trkpt><trkpt lat="44.4329169" lon="10.8396996"><ele>455.0</ele><time>2026-04-11T14:22:19.476Z</time></trkpt><trkpt lat="44.4330438" lon="10.8397344"><ele>456.75</ele><time>2026-04-11T14:22:20.458Z</time></trkpt><trkpt lat="44.4331747" lon="10.8397717"><ele>458.5</ele><time>2026-04-11T14:22:21.472Z</time></trkpt><trkpt lat="44.4333035" lon="10.839802"><ele>460.25</ele><time>2026-04-11T14:22:22.536Z</time></trkpt><trkpt lat="44.4334231" lon="10.8398306"><ele>462.0</ele><time>2026-04-11T14:22:23.475Z</time></trkpt><trkpt lat="44.4335204" lon="10.8398647"><ele>462.0</ele><time>2026-04-11T14:22:24.487Z</time></trkpt><trkpt lat="44.4335969" lon="10.8399122"><ele>462.0</ele><time>2026-04-11T14:22:25.484Z</time></trkpt><trkpt lat="44.4336565" lon="10.8399748"><ele>462.0</ele><time>2026-04-11T14:22:26.493Z</time></trkpt><trkpt lat="44.4337017" lon="10.8400525"><ele>462.0</ele><time>2026-04-11T14:22:27.47Z</time></trkpt><trkpt lat="44.4337312" lon="10.8401486"><ele>462.0</ele><time>2026-04-11T14:22:28.461Z</time></trkpt><trkpt lat="44.4337388" lon="10.8402562"><ele>462.0</ele><time>2026-04-11T14:22:29.475Z</time></trkpt><trkpt lat="44.4337301" lon="10.8403674"><ele>462.8333333333333</ele><time>2026-04-11T14:22:30.481Z</time></trkpt><trkpt lat="44.4337123" lon="10.8404798"><ele>463.66666666666663</ele><time>2026-04-11T14:22:31.483Z</time></trkpt><trkpt lat="44.4336913" lon="10.840594"><ele>464.5</ele><time>2026-04-11T14:22:32.477Z</time></trkpt><trkpt lat="44.4336709" lon="10.8407013"><ele>465.3333333333333</ele><time>2026-04-11T14:22:33.509Z</time></trkpt><trkpt lat="44.4336522" lon="10.8407981"><ele>466.16666666666663</ele><time>2026-04-11T14:22:34.479Z</time></trkpt><trkpt lat="44.4336235" lon="10.8409552"><ele>467.0</ele><time>2026-04-11T14:22:36.489Z</time></trkpt><trkpt lat="44.4336011" lon="10.8410567"><ele>466.99999999999994</ele><time>2026-04-11T14:22:38.495Z</time></trkpt><trkpt lat="44.4336749" lon="10.8410359"><ele>467.0</ele><time>2026-04-11T14:22:43.502Z</time></trkpt><trkpt lat="44.4336997" lon="10.8409512"><ele>467.0</ele><time>2026-04-11T14:22:44.475Z</time></trkpt><trkpt lat="44.4337267" lon="10.840846"><ele>467.0</ele><time>2026-04-11T14:22:45.494Z</time></trkpt><trkpt lat="44.4337604" lon="10.8407263"><ele>466.99999999999994</ele><time>2026-04-11T14:22:46.495Z</time></trkpt><trkpt lat="44.4337984" lon="10.8406069"><ele>467.0</ele><time>2026-04-11T14:22:47.491Z</time></trkpt><trkpt lat="44.4338354" lon="10.8404901"><ele>466.0</ele><time>2026-04-11T14:22:48.498Z</time></trkpt><trkpt lat="44.4338791" lon="10.8403796"><ele>465.00000000000006</ele><time>2026-04-11T14:22:49.493Z</time></trkpt><trkpt lat="44.4339262" lon="10.8402682"><ele>464.00000000000006</ele><time>2026-04-11T14:22:50.549Z</time></trkpt><trkpt lat="44.4339817" lon="10.8401626"><ele>463.0</ele><time>2026-04-11T14:22:51.487Z</time></trkpt><trkpt lat="44.4340422" lon="10.8400636"><ele>462.0</ele><time>2026-04-11T14:22:52.493Z</time></trkpt><trkpt lat="44.4340992" lon="10.8399741"><ele>461.20000000000005</ele><time>2026-04-11T14:22:53.471Z</time></trkpt><trkpt lat="44.4341508" lon="10.8398888"><ele>460.40000000000003</ele><time>2026-04-11T14:22:54.488Z</time></trkpt><trkpt lat="44.4341974" lon="10.8398169"><ele>459.59999999999997</ele><time>2026-04-11T14:22:55.468Z</time></trkpt><trkpt lat="44.4342988" lon="10.839755"><ele>458.79999999999995</ele><time>2026-04-11T14:22:57.478Z</time></trkpt><trkpt lat="44.434427" lon="10.8397878"><ele>458.0</ele><time>2026-04-11T14:22:59.497Z</time></trkpt><trkpt lat="44.4344919" lon="10.8398448"><ele>457.99999999999994</ele><time>2026-04-11T14:23:00.484Z</time></trkpt><trkpt lat="44.43454" lon="10.8399215"><ele>458.0</ele><time>2026-04-11T14:23:01.503Z</time></trkpt><trkpt lat="44.4345785" lon="10.8400137"><ele>458.0</ele><time>2026-04-11T14:23:02.467Z</time></trkpt><trkpt lat="44.4346171" lon="10.8401157"><ele>458.0</ele><time>2026-04-11T14:23:03.489Z</time></trkpt><trkpt lat="44.4346543" lon="10.8402292"><ele>457.99999999999994</ele><time>2026-04-11T14:23:04.479Z</time></trkpt><trkpt lat="44.4346962" lon="10.8403486"><ele>458.0</ele><time>2026-04-11T14:23:05.492Z</time></trkpt><trkpt lat="44.4347427" lon="10.8404638"><ele>457.99999999999994</ele><time>2026-04-11T14:23:06.446Z</time></trkpt><trkpt lat="44.4347943" lon="10.8405681"><ele>458.0</ele><time>2026-04-11T14:23:07.482Z</time></trkpt><trkpt lat="44.4348492" lon="10.8406639"><ele>458.0</ele><time>2026-04-11T14:23:08.484Z</time></trkpt><trkpt lat="44.4348958" lon="10.8407648"><ele>458.0</ele><time>2026-04-11T14:23:09.489Z</time></trkpt><trkpt lat="44.4349293" lon="10.840874"><ele>457.99999999999994</ele><time>2026-04-11T14:23:10.461Z</time></trkpt><trkpt lat="44.4349594" lon="10.8409881"><ele>458.0</ele><time>2026-04-11T14:23:11.49Z</time></trkpt><trkpt lat="44.4349973" lon="10.8410935"><ele>459.0</ele><time>2026-04-11T14:23:12.487Z</time></trkpt><trkpt lat="44.4350487" lon="10.841187"><ele>459.99999999999994</ele><time>2026-04-11T14:23:13.48Z</time></trkpt><trkpt lat="44.4351008" lon="10.8412797"><ele>460.99999999999994</ele><time>2026-04-11T14:23:14.464Z</time></trkpt><trkpt lat="44.4351761" lon="10.8413645"><ele>462.0</ele><time>2026-04-11T14:23:15.498Z</time></trkpt><trkpt lat="44.4352499" lon="10.8414478"><ele>463.0</ele><time>2026-04-11T14:23:16.474Z</time></trkpt><trkpt lat="44.4353264" lon="10.8415324"><ele>463.0</ele><time>2026-04-11T14:23:17.452Z</time></trkpt><trkpt lat="44.4354043" lon="10.8416256"><ele>462.99999999999994</ele><time>2026-04-11T14:23:18.478Z</time></trkpt><trkpt lat="44.4354869" lon="10.8417296"><ele>462.99999999999994</ele><time>2026-04-11T14:23:19.476Z</time></trkpt><trkpt lat="44.4355697" lon="10.8418244"><ele>463.0</ele><time>2026-04-11T14:23:20.485Z</time></trkpt><trkpt lat="44.4356609" lon="10.8419042"><ele>463.0</ele><time>2026-04-11T14:23:21.464Z</time></trkpt><trkpt lat="44.4357576" lon="10.8419683"><ele>463.83333333333337</ele><time>2026-04-11T14:23:22.486Z</time></trkpt><trkpt lat="44.4358469" lon="10.8420161"><ele>464.6666666666667</ele><time>2026-04-11T14:23:23.475Z</time></trkpt><trkpt lat="44.4359289" lon="10.8420559"><ele>465.5</ele><time>2026-04-11T14:23:24.476Z</time></trkpt><trkpt lat="44.4360049" lon="10.8420799"><ele>466.33333333333337</ele><time>2026-04-11T14:23:25.439Z</time></trkpt><trkpt lat="44.4360766" lon="10.8420861"><ele>467.1666666666667</ele><time>2026-04-11T14:23:26.473Z</time></trkpt><trkpt lat="44.4361411" lon="10.8420785"><ele>468.0</ele><time>2026-04-11T14:23:27.468Z</time></trkpt><trkpt lat="44.4362044" lon="10.8420661"><ele>468.0</ele><time>2026-04-11T14:23:28.481Z</time></trkpt><trkpt lat="44.4362784" lon="10.8420633"><ele>468.0</ele><time>2026-04-11T14:23:29.485Z</time></trkpt><trkpt lat="44.436358" lon="10.8420825"><ele>468.0</ele><time>2026-04-11T14:23:30.495Z</time></trkpt><trkpt lat="44.4364399" lon="10.8421189"><ele>468.0</ele><time>2026-04-11T14:23:31.49Z</time></trkpt><trkpt lat="44.4365186" lon="10.8421614"><ele>468.0</ele><time>2026-04-11T14:23:32.478Z</time></trkpt><trkpt lat="44.4365917" lon="10.8421977"><ele>468.0</ele><time>2026-04-11T14:23:33.488Z</time></trkpt><trkpt lat="44.4366659" lon="10.8422117"><ele>467.5</ele><time>2026-04-11T14:23:34.437Z</time></trkpt><trkpt lat="44.4367343" lon="10.8421941"><ele>467.0</ele><time>2026-04-11T14:23:35.532Z</time></trkpt><trkpt lat="44.4367937" lon="10.8421579"><ele>466.5</ele><time>2026-04-11T14:23:36.476Z</time></trkpt><trkpt lat="44.4368912" lon="10.8420844"><ele>466.0</ele><time>2026-04-11T14:23:38.48Z</time></trkpt><trkpt lat="44.436959" lon="10.842062"><ele>465.5</ele><time>2026-04-11T14:23:40.489Z</time></trkpt><trkpt lat="44.4369968" lon="10.8421396"><ele>465.0</ele><time>2026-04-11T14:23:42.495Z</time></trkpt><trkpt lat="44.4370029" lon="10.8422892"><ele>465.0</ele><time>2026-04-11T14:23:44.451Z</time></trkpt><trkpt lat="44.4370074" lon="10.8424245"><ele>465.0</ele><time>2026-04-11T14:23:46.497Z</time></trkpt><trkpt lat="44.4370296" lon="10.8425426"><ele>465.0</ele><time>2026-04-11T14:23:48.49Z</time></trkpt><trkpt lat="44.4370676" lon="10.8426597"><ele>465.0</ele><time>2026-04-11T14:23:50.471Z</time></trkpt><trkpt lat="44.4371107" lon="10.8427403"><ele>465.0</ele><time>2026-04-11T14:23:51.43Z</time></trkpt><trkpt lat="44.4371483" lon="10.8428141"><ele>465.0</ele><time>2026-04-11T14:23:52.436Z</time></trkpt><trkpt lat="44.4371991" lon="10.8429096"><ele>465.6666666666667</ele><time>2026-04-11T14:23:54.444Z</time></trkpt><trkpt lat="44.4372726" lon="10.8429319"><ele>466.33333333333337</ele><time>2026-04-11T14:23:56.43Z</time></trkpt><trkpt lat="44.4373158" lon="10.842853"><ele>467.0</ele><time>2026-04-11T14:23:57.419Z</time></trkpt><trkpt lat="44.4373858" lon="10.8427798"><ele>467.6666666666667</ele><time>2026-04-11T14:23:58.475Z</time></trkpt><trkpt lat="44.4374775" lon="10.8427222"><ele>468.33333333333337</ele><time>2026-04-11T14:23:59.481Z</time></trkpt><trkpt lat="44.4375689" lon="10.8426748"><ele>469.0</ele><time>2026-04-11T14:24:00.47Z</time></trkpt><trkpt lat="44.4376522" lon="10.8426337"><ele>469.50000000000006</ele><time>2026-04-11T14:24:01.445Z</time></trkpt><trkpt lat="44.4377303" lon="10.8426098"><ele>470.0</ele><time>2026-04-11T14:24:02.496Z</time></trkpt><trkpt lat="44.4377952" lon="10.8426007"><ele>470.5</ele><time>2026-04-11T14:24:03.488Z</time></trkpt><trkpt lat="44.437875" lon="10.8425974"><ele>471.0</ele><time>2026-04-11T14:24:04.484Z</time></trkpt><trkpt lat="44.4379618" lon="10.8426008"><ele>471.50000000000006</ele><time>2026-04-11T14:24:05.466Z</time></trkpt><trkpt lat="44.4380521" lon="10.842601"><ele>472.0</ele><time>2026-04-11T14:24:06.48Z</time></trkpt><trkpt lat="44.4381327" lon="10.8426041"><ele>472.00000000000006</ele><time>2026-04-11T14:24:07.489Z</time></trkpt><trkpt lat="44.4382218" lon="10.8425848"><ele>472.0</ele><time>2026-04-11T14:24:08.484Z</time></trkpt><trkpt lat="44.4383045" lon="10.8425638"><ele>472.0</ele><time>2026-04-11T14:24:09.49Z</time></trkpt><trkpt lat="44.4383833" lon="10.8425421"><ele>472.0</ele><time>2026-04-11T14:24:10.464Z</time></trkpt><trkpt lat="44.4384655" lon="10.842526"><ele>472.00000000000006</ele><time>2026-04-11T14:24:11.498Z</time></trkpt><trkpt lat="44.4385501" lon="10.8425193"><ele>472.0</ele><time>2026-04-11T14:24:12.472Z</time></trkpt><trkpt lat="44.4386333" lon="10.8425125"><ele>472.0</ele><time>2026-04-11T14:24:13.465Z</time></trkpt><trkpt lat="44.4387124" lon="10.8425084"><ele>472.00000000000006</ele><time>2026-04-11T14:24:14.462Z</time></trkpt><trkpt lat="44.4387823" lon="10.8425111"><ele>472.00000000000006</ele><time>2026-04-11T14:24:15.473Z</time></trkpt><trkpt lat="44.4388916" lon="10.8425506"><ele>472.0</ele><time>2026-04-11T14:24:17.485Z</time></trkpt><trkpt lat="44.4390075" lon="10.8426259"><ele>472.0</ele><time>2026-04-11T14:24:19.478Z</time></trkpt><trkpt lat="44.4390737" lon="10.8426752"><ele>474.1666666666667</ele><time>2026-04-11T14:24:20.469Z</time></trkpt><trkpt lat="44.4391465" lon="10.8427291"><ele>476.33333333333337</ele><time>2026-04-11T14:24:21.489Z</time></trkpt><trkpt lat="44.4392192" lon="10.8427912"><ele>478.5</ele><time>2026-04-11T14:24:22.478Z</time></trkpt><trkpt lat="44.439288" lon="10.8428612"><ele>480.66666666666663</ele><time>2026-04-11T14:24:23.497Z</time></trkpt><trkpt lat="44.4393516" lon="10.8429361"><ele>482.8333333333333</ele><time>2026-04-11T14:24:24.524Z</time></trkpt><trkpt lat="44.4394112" lon="10.8430217"><ele>485.0</ele><time>2026-04-11T14:24:25.453Z</time></trkpt><trkpt lat="44.4394647" lon="10.8431194"><ele>485.0</ele><time>2026-04-11T14:24:26.422Z</time></trkpt><trkpt lat="44.4395179" lon="10.8432271"><ele>485.0</ele><time>2026-04-11T14:24:27.451Z</time></trkpt><trkpt lat="44.4395755" lon="10.8433425"><ele>485.0</ele><time>2026-04-11T14:24:28.479Z</time></trkpt><trkpt lat="44.439633" lon="10.8434458"><ele>485.0</ele><time>2026-04-11T14:24:29.432Z</time></trkpt><trkpt lat="44.439689" lon="10.8435352"><ele>485.0</ele><time>2026-04-11T14:24:30.448Z</time></trkpt><trkpt lat="44.439747" lon="10.8436164"><ele>485.49999999999994</ele><time>2026-04-11T14:24:31.449Z</time></trkpt><trkpt lat="44.4398086" lon="10.8436926"><ele>486.0</ele><time>2026-04-11T14:24:32.443Z</time></trkpt><trkpt lat="44.439868" lon="10.8437701"><ele>486.5</ele><time>2026-04-11T14:24:33.427Z</time></trkpt><trkpt lat="44.4399213" lon="10.8438533"><ele>487.0</ele><time>2026-04-11T14:24:34.439Z</time></trkpt><trkpt lat="44.4399691" lon="10.8439474"><ele>487.49999999999994</ele><time>2026-04-11T14:24:35.428Z</time></trkpt><trkpt lat="44.440016" lon="10.8440453"><ele>488.0</ele><time>2026-04-11T14:24:36.433Z</time></trkpt><trkpt lat="44.4400614" lon="10.8441421"><ele>488.0</ele><time>2026-04-11T14:24:37.429Z</time></trkpt><trkpt lat="44.4401059" lon="10.8442185"><ele>487.99999999999994</ele><time>2026-04-11T14:24:38.451Z</time></trkpt><trkpt lat="44.4401914" lon="10.8443074"><ele>487.99999999999994</ele><time>2026-04-11T14:24:40.442Z</time></trkpt><trkpt lat="44.4403091" lon="10.844307"><ele>488.0</ele><time>2026-04-11T14:24:42.478Z</time></trkpt><trkpt lat="44.4403854" lon="10.8442876"><ele>488.0</ele><time>2026-04-11T14:24:43.491Z</time></trkpt><trkpt lat="44.440466" lon="10.8442543"><ele>488.8333333333333</ele><time>2026-04-11T14:24:44.471Z</time></trkpt><trkpt lat="44.4405555" lon="10.8442363"><ele>489.66666666666663</ele><time>2026-04-11T14:24:45.485Z</time></trkpt><trkpt lat="44.440648" lon="10.8442148"><ele>490.5</ele><time>2026-04-11T14:24:46.502Z</time></trkpt><trkpt lat="44.4407347" lon="10.8441965"><ele>491.33333333333337</ele><time>2026-04-11T14:24:47.465Z</time></trkpt><trkpt lat="44.4408179" lon="10.8441835"><ele>492.1666666666667</ele><time>2026-04-11T14:24:48.47Z</time></trkpt><trkpt lat="44.4408985" lon="10.844176"><ele>493.0</ele><time>2026-04-11T14:24:49.483Z</time></trkpt><trkpt lat="44.4409872" lon="10.8441818"><ele>493.00000000000006</ele><time>2026-04-11T14:24:50.484Z</time></trkpt><trkpt lat="44.4410682" lon="10.8441897"><ele>493.0</ele><time>2026-04-11T14:24:51.479Z</time></trkpt><trkpt lat="44.4411611" lon="10.844211"><ele>493.0</ele><time>2026-04-11T14:24:52.476Z</time></trkpt><trkpt lat="44.441248" lon="10.8442177"><ele>493.0</ele><time>2026-04-11T14:24:53.474Z</time></trkpt><trkpt lat="44.4413285" lon="10.8442067"><ele>493.00000000000006</ele><time>2026-04-11T14:24:54.48Z</time></trkpt><trkpt lat="44.4414082" lon="10.8441709"><ele>493.0</ele><time>2026-04-11T14:24:55.456Z</time></trkpt><trkpt lat="44.4414736" lon="10.8441531"><ele>494.4</ele><time>2026-04-11T14:24:56.441Z</time></trkpt><trkpt lat="44.4415856" lon="10.844209"><ele>495.79999999999995</ele><time>2026-04-11T14:24:58.472Z</time></trkpt><trkpt lat="44.4416568" lon="10.8442631"><ele>497.2</ele><time>2026-04-11T14:24:59.48Z</time></trkpt><trkpt lat="44.4417399" lon="10.8442746"><ele>498.6</ele><time>2026-04-11T14:25:00.479Z</time></trkpt><trkpt lat="44.4418243" lon="10.8442847"><ele>500.0</ele><time>2026-04-11T14:25:01.485Z</time></trkpt><trkpt lat="44.44191" lon="10.8442852"><ele>499.99999999999994</ele><time>2026-04-11T14:25:02.486Z</time></trkpt><trkpt lat="44.4419919" lon="10.844288"><ele>500.0</ele><time>2026-04-11T14:25:03.471Z</time></trkpt><trkpt lat="44.4420588" lon="10.8442662"><ele>500.0</ele><time>2026-04-11T14:25:04.446Z</time></trkpt><trkpt lat="44.4421132" lon="10.8442107"><ele>500.0</ele><time>2026-04-11T14:25:05.472Z</time></trkpt><trkpt lat="44.4421679" lon="10.8441641"><ele>499.99999999999994</ele><time>2026-04-11T14:25:06.457Z</time></trkpt><trkpt lat="44.4422561" lon="10.8440935"><ele>500.0</ele><time>2026-04-11T14:25:08.514Z</time></trkpt><trkpt lat="44.4423782" lon="10.8441541"><ele>500.16666666666663</ele><time>2026-04-11T14:25:10.466Z</time></trkpt><trkpt lat="44.4424454" lon="10.8442007"><ele>500.3333333333333</ele><time>2026-04-11T14:25:11.462Z</time></trkpt><trkpt lat="44.4424985" lon="10.8442736"><ele>500.5</ele><time>2026-04-11T14:25:12.485Z</time></trkpt><trkpt lat="44.4425676" lon="10.8443455"><ele>500.66666666666663</ele><time>2026-04-11T14:25:13.497Z</time></trkpt><trkpt lat="44.4426446" lon="10.8444045"><ele>500.8333333333333</ele><time>2026-04-11T14:25:14.482Z</time></trkpt><trkpt lat="44.4427247" lon="10.8444518"><ele>501.0</ele><time>2026-04-11T14:25:15.473Z</time></trkpt><trkpt lat="44.4427969" lon="10.8445082"><ele>502.5</ele><time>2026-04-11T14:25:16.472Z</time></trkpt><trkpt lat="44.4428706" lon="10.8445628"><ele>504.0</ele><time>2026-04-11T14:25:17.482Z</time></trkpt><trkpt lat="44.4429381" lon="10.8446098"><ele>505.5</ele><time>2026-04-11T14:25:18.481Z</time></trkpt><trkpt lat="44.4430089" lon="10.8446309"><ele>507.0</ele><time>2026-04-11T14:25:19.48Z</time></trkpt><trkpt lat="44.4431222" lon="10.8446838"><ele>508.5</ele><time>2026-04-11T14:25:21.47Z</time></trkpt><trkpt lat="44.4431788" lon="10.8447569"><ele>510.0</ele><time>2026-04-11T14:25:22.477Z</time></trkpt><trkpt lat="44.4432374" lon="10.8448362"><ele>510.0</ele><time>2026-04-11T14:25:23.459Z</time></trkpt><trkpt lat="44.4432965" lon="10.844939"><ele>510.0</ele><time>2026-04-11T14:25:24.461Z</time></trkpt><trkpt lat="44.4433479" lon="10.8450395"><ele>510.0</ele><time>2026-04-11T14:25:25.452Z</time></trkpt><trkpt lat="44.4433905" lon="10.8451377"><ele>510.0</ele><time>2026-04-11T14:25:26.442Z</time></trkpt><trkpt lat="44.4434268" lon="10.8452291"><ele>510.0</ele><time>2026-04-11T14:25:27.479Z</time></trkpt><trkpt lat="44.44346" lon="10.8453095"><ele>510.0</ele><time>2026-04-11T14:25:28.472Z</time></trkpt><trkpt lat="44.4434882" lon="10.8453961"><ele>511.1666666666667</ele><time>2026-04-11T14:25:29.471Z</time></trkpt><trkpt lat="44.4435146" lon="10.8455015"><ele>512.3333333333334</ele><time>2026-04-11T14:25:30.481Z</time></trkpt><trkpt lat="44.4435328" lon="10.8455961"><ele>513.5</ele><time>2026-04-11T14:25:31.473Z</time></trkpt><trkpt lat="44.4435512" lon="10.845692"><ele>514.6666666666667</ele><time>2026-04-11T14:25:32.458Z</time></trkpt><trkpt lat="44.4435744" lon="10.8457835"><ele>515.8333333333334</ele><time>2026-04-11T14:25:33.473Z</time></trkpt><trkpt lat="44.4435929" lon="10.845874"><ele>517.0</ele><time>2026-04-11T14:25:34.473Z</time></trkpt><trkpt lat="44.4436384" lon="10.8460245"><ele>517.8000000000001</ele><time>2026-04-11T14:25:36.496Z</time></trkpt><trkpt lat="44.4437544" lon="10.8461204"><ele>518.6</ele><time>2026-04-11T14:25:38.437Z</time></trkpt><trkpt lat="44.4438244" lon="10.8461743"><ele>519.4000000000001</ele><time>2026-04-11T14:25:39.469Z</time></trkpt><trkpt lat="44.4439113" lon="10.84622"><ele>520.2</ele><time>2026-04-11T14:25:40.469Z</time></trkpt><trkpt lat="44.4439992" lon="10.8462497"><ele>521.0</ele><time>2026-04-11T14:25:41.465Z</time></trkpt><trkpt lat="44.4440997" lon="10.8462981"><ele>521.0</ele><time>2026-04-11T14:25:42.477Z</time></trkpt><trkpt lat="44.4442028" lon="10.8463473"><ele>521.0</ele><time>2026-04-11T14:25:43.511Z</time></trkpt><trkpt lat="44.444289" lon="10.846388"><ele>521.0</ele><time>2026-04-11T14:25:44.466Z</time></trkpt><trkpt lat="44.4443665" lon="10.8464096"><ele>521.0</ele><time>2026-04-11T14:25:45.45Z</time></trkpt><trkpt lat="44.4444519" lon="10.8464455"><ele>521.0</ele><time>2026-04-11T14:25:46.474Z</time></trkpt><trkpt lat="44.4445362" lon="10.8464897"><ele>521.0</ele><time>2026-04-11T14:25:47.481Z</time></trkpt><trkpt lat="44.4446098" lon="10.8465525"><ele>521.0</ele><time>2026-04-11T14:25:48.469Z</time></trkpt><trkpt lat="44.4446799" lon="10.8466141"><ele>521.0</ele><time>2026-04-11T14:25:49.464Z</time></trkpt><trkpt lat="44.4447528" lon="10.84668"><ele>521.0</ele><time>2026-04-11T14:25:50.484Z</time></trkpt><trkpt lat="44.4448291" lon="10.8467346"><ele>521.0</ele><time>2026-04-11T14:25:51.473Z</time></trkpt><trkpt lat="44.4449192" lon="10.8468189"><ele>520.8333333333333</ele><time>2026-04-11T14:25:52.461Z</time></trkpt><trkpt lat="44.4449908" lon="10.8468831"><ele>520.6666666666666</ele><time>2026-04-11T14:25:53.462Z</time></trkpt><trkpt lat="44.4450434" lon="10.8469447"><ele>520.5</ele><time>2026-04-11T14:25:54.461Z</time></trkpt><trkpt lat="44.4450913" lon="10.8470189"><ele>520.3333333333334</ele><time>2026-04-11T14:25:55.535Z</time></trkpt><trkpt lat="44.4451714" lon="10.8471675"><ele>520.1666666666667</ele><time>2026-04-11T14:25:57.473Z</time></trkpt><trkpt lat="44.4452054" lon="10.8472698"><ele>520.0</ele><time>2026-04-11T14:25:58.466Z</time></trkpt><trkpt lat="44.4452264" lon="10.8473544"><ele>520.0</ele><time>2026-04-11T14:25:59.483Z</time></trkpt><trkpt lat="44.4452334" lon="10.8474857"><ele>520.0</ele><time>2026-04-11T14:26:01.46Z</time></trkpt><trkpt lat="44.4452916" lon="10.84755"><ele>520.0</ele><time>2026-04-11T14:26:03.461Z</time></trkpt><trkpt lat="44.445416" lon="10.8475746"><ele>520.0</ele><time>2026-04-11T14:26:05.472Z</time></trkpt><trkpt lat="44.4454913" lon="10.8475758"><ele>520.0</ele><time>2026-04-11T14:26:06.474Z</time></trkpt><trkpt lat="44.4455638" lon="10.8475865"><ele>520.0</ele><time>2026-04-11T14:26:07.461Z</time></trkpt><trkpt lat="44.4456363" lon="10.8475931"><ele>519.6</ele><time>2026-04-11T14:26:08.485Z</time></trkpt><trkpt lat="44.4457079" lon="10.8476039"><ele>519.2</ele><time>2026-04-11T14:26:09.478Z</time></trkpt><trkpt lat="44.4458148" lon="10.847655"><ele>518.8</ele><time>2026-04-11T14:26:11.475Z</time></trkpt><trkpt lat="44.4458651" lon="10.8477633"><ele>518.4</ele><time>2026-04-11T14:26:13.463Z</time></trkpt><trkpt lat="44.4458493" lon="10.8479094"><ele>518.0</ele><time>2026-04-11T14:26:15.469Z</time></trkpt><trkpt lat="44.4458243" lon="10.848022"><ele>518.0</ele><time>2026-04-11T14:26:17.467Z</time></trkpt><trkpt lat="44.4458788" lon="10.8480748"><ele>518.0</ele><time>2026-04-11T14:26:20.484Z</time></trkpt><trkpt lat="44.4459384" lon="10.8480459"><ele>518.0</ele><time>2026-04-11T14:26:21.456Z</time></trkpt><trkpt lat="44.4460296" lon="10.8480027"><ele>518.0</ele><time>2026-04-11T14:26:23.471Z</time></trkpt><trkpt lat="44.4461215" lon="10.8480512"><ele>518.0</ele><time>2026-04-11T14:26:25.448Z</time></trkpt><trkpt lat="44.4462242" lon="10.8480728"><ele>518.0</ele><time>2026-04-11T14:26:27.47Z</time></trkpt><trkpt lat="44.4463206" lon="10.8480871"><ele>518.0</ele><time>2026-04-11T14:26:30.454Z</time></trkpt><trkpt lat="44.4463905" lon="10.8480903"><ele>518.0</ele><time>2026-04-11T14:26:33.493Z</time></trkpt><trkpt lat="44.4464691" lon="10.8481614"><ele>518.0</ele><time>2026-04-11T14:26:37.495Z</time></trkpt><trkpt lat="44.4464877" lon="10.8482482"><ele>518.0</ele><time>2026-04-11T14:26:39.431Z</time></trkpt><trkpt lat="44.4464927" lon="10.8483837"><ele>518.0</ele><time>2026-04-11T14:26:41.493Z</time></trkpt><trkpt lat="44.446498" lon="10.8485327"><ele>518.0</ele><time>2026-04-11T14:26:43.536Z</time></trkpt><trkpt lat="44.4465086" lon="10.8486351"><ele>520.0</ele><time>2026-04-11T14:26:45.496Z</time></trkpt><trkpt lat="44.4465844" lon="10.8486541"><ele>522.0</ele><time>2026-04-11T14:26:48.47Z</time></trkpt><trkpt lat="44.4466474" lon="10.8486477"><ele>524.0</ele><time>2026-04-11T14:26:49.498Z</time></trkpt><trkpt lat="44.4467103" lon="10.8486346"><ele>526.0</ele><time>2026-04-11T14:26:50.488Z</time></trkpt><trkpt lat="44.4467811" lon="10.8486171"><ele>528.0</ele><time>2026-04-11T14:26:51.461Z</time></trkpt><trkpt lat="44.446855" lon="10.8486118"><ele>530.0</ele><time>2026-04-11T14:26:52.432Z</time></trkpt><trkpt lat="44.4469268" lon="10.8486093"><ele>532.0</ele><time>2026-04-11T14:26:53.487Z</time></trkpt><trkpt lat="44.4470023" lon="10.8486026"><ele>532.0</ele><time>2026-04-11T14:26:54.535Z</time></trkpt><trkpt lat="44.4470714" lon="10.8485969"><ele>532.0</ele><time>2026-04-11T14:26:55.476Z</time></trkpt><trkpt lat="44.4471744" lon="10.8485732"><ele>532.0</ele><time>2026-04-11T14:26:57.441Z</time></trkpt><trkpt lat="44.4472408" lon="10.848546"><ele>532.0</ele><time>2026-04-11T14:26:59.467Z</time></trkpt><trkpt lat="44.4473074" lon="10.8485098"><ele>532.0</ele><time>2026-04-11T14:27:02.497Z</time></trkpt><trkpt lat="44.4472983" lon="10.8485981"><ele>532.0</ele><time>2026-04-11T14:27:11.469Z</time></trkpt><trkpt lat="44.4472251" lon="10.8486594"><ele>532.0</ele><time>2026-04-11T14:27:13.43Z</time></trkpt><trkpt lat="44.4471312" lon="10.848785"><ele>532.0</ele><time>2026-04-11T14:27:15.451Z</time></trkpt><trkpt lat="44.447077" lon="10.8488704"><ele>532.0</ele><time>2026-04-11T14:27:16.49Z</time></trkpt><trkpt lat="44.4470207" lon="10.8489659"><ele>532.0</ele><time>2026-04-11T14:27:17.447Z</time></trkpt><trkpt lat="44.4469631" lon="10.8490644"><ele>532.0</ele><time>2026-04-11T14:27:18.474Z</time></trkpt><trkpt lat="44.4468984" lon="10.8491667"><ele>532.0</ele><time>2026-04-11T14:27:19.49Z</time></trkpt><trkpt lat="44.446832" lon="10.8492683"><ele>532.0</ele><time>2026-04-11T14:27:20.487Z</time></trkpt><trkpt lat="44.4467753" lon="10.8493655"><ele>532.0</ele><time>2026-04-11T14:27:21.482Z</time></trkpt><trkpt lat="44.4467202" lon="10.8494685"><ele>532.0</ele><time>2026-04-11T14:27:22.553Z</time></trkpt><trkpt lat="44.4466617" lon="10.8495729"><ele>532.0</ele><time>2026-04-11T14:27:23.495Z</time></trkpt><trkpt lat="44.446605" lon="10.8496677"><ele>534.3333333333334</ele><time>2026-04-11T14:27:24.489Z</time></trkpt><trkpt lat="44.4465464" lon="10.8497626"><ele>536.6666666666667</ele><time>2026-04-11T14:27:25.473Z</time></trkpt><trkpt lat="44.4464884" lon="10.8498533"><ele>539.0</ele><time>2026-04-11T14:27:26.473Z</time></trkpt><trkpt lat="44.4464318" lon="10.8499499"><ele>541.3333333333334</ele><time>2026-04-11T14:27:27.479Z</time></trkpt><trkpt lat="44.446378" lon="10.8500524"><ele>543.6666666666666</ele><time>2026-04-11T14:27:28.486Z</time></trkpt><trkpt lat="44.4463283" lon="10.8501546"><ele>546.0</ele><time>2026-04-11T14:27:29.488Z</time></trkpt><trkpt lat="44.4462766" lon="10.8502631"><ele>548.4</ele><time>2026-04-11T14:27:30.482Z</time></trkpt><trkpt lat="44.4462234" lon="10.8503715"><ele>550.8</ele><time>2026-04-11T14:27:31.465Z</time></trkpt><trkpt lat="44.4461671" lon="10.8504799"><ele>553.1999999999999</ele><time>2026-04-11T14:27:32.486Z</time></trkpt><trkpt lat="44.4461101" lon="10.850589"><ele>555.6</ele><time>2026-04-11T14:27:33.451Z</time></trkpt><trkpt lat="44.4460495" lon="10.8507008"><ele>558.0</ele><time>2026-04-11T14:27:34.477Z</time></trkpt><trkpt lat="44.4459876" lon="10.8508169"><ele>558.0</ele><time>2026-04-11T14:27:35.44Z</time></trkpt><trkpt lat="44.4459265" lon="10.8509322"><ele>558.0</ele><time>2026-04-11T14:27:36.467Z</time></trkpt><trkpt lat="44.4458772" lon="10.85105"><ele>558.0</ele><time>2026-04-11T14:27:37.49Z</time></trkpt><trkpt lat="44.445825" lon="10.8511704"><ele>558.0</ele><time>2026-04-11T14:27:38.489Z</time></trkpt><trkpt lat="44.4457689" lon="10.8512916"><ele>558.0</ele><time>2026-04-11T14:27:39.511Z</time></trkpt><trkpt lat="44.4457107" lon="10.851409"><ele>560.6666666666666</ele><time>2026-04-11T14:27:40.465Z</time></trkpt><trkpt lat="44.4456551" lon="10.8515179"><ele>563.3333333333334</ele><time>2026-04-11T14:27:41.466Z</time></trkpt><trkpt lat="44.4456013" lon="10.8516188"><ele>566.0</ele><time>2026-04-11T14:27:42.466Z</time></trkpt><trkpt lat="44.4455406" lon="10.8516935"><ele>568.6666666666667</ele><time>2026-04-11T14:27:43.478Z</time></trkpt><trkpt lat="44.4454652" lon="10.8517423"><ele>571.3333333333334</ele><time>2026-04-11T14:27:44.47Z</time></trkpt><trkpt lat="44.4453778" lon="10.8517769"><ele>574.0</ele><time>2026-04-11T14:27:45.512Z</time></trkpt><trkpt lat="44.445306" lon="10.8518171"><ele>576.8</ele><time>2026-04-11T14:27:46.478Z</time></trkpt><trkpt lat="44.4452202" lon="10.8518991"><ele>579.5999999999999</ele><time>2026-04-11T14:27:48.476Z</time></trkpt><trkpt lat="44.4451675" lon="10.8519809"><ele>582.4</ele><time>2026-04-11T14:27:51.455Z</time></trkpt><trkpt lat="44.4451978" lon="10.8520869"><ele>585.1999999999999</ele><time>2026-04-11T14:27:56.505Z</time></trkpt><trkpt lat="44.4452762" lon="10.852125"><ele>588.0</ele><time>2026-04-11T14:27:58.444Z</time></trkpt><trkpt lat="44.4453809" lon="10.8521594"><ele>588.0</ele><time>2026-04-11T14:28:00.456Z</time></trkpt><trkpt lat="44.4454558" lon="10.8521779"><ele>588.0</ele><time>2026-04-11T14:28:01.469Z</time></trkpt><trkpt lat="44.4455367" lon="10.8521901"><ele>588.0</ele><time>2026-04-11T14:28:02.507Z</time></trkpt><trkpt lat="44.4456196" lon="10.8521862"><ele>588.0</ele><time>2026-04-11T14:28:03.469Z</time></trkpt><trkpt lat="44.4457043" lon="10.8521552"><ele>588.0</ele><time>2026-04-11T14:28:04.481Z</time></trkpt><trkpt lat="44.4457885" lon="10.8520956"><ele>588.0</ele><time>2026-04-11T14:28:05.492Z</time></trkpt><trkpt lat="44.4458679" lon="10.8520242"><ele>587.6</ele><time>2026-04-11T14:28:06.471Z</time></trkpt><trkpt lat="44.4459499" lon="10.8519552"><ele>587.1999999999999</ele><time>2026-04-11T14:28:07.567Z</time></trkpt><trkpt lat="44.4460405" lon="10.8519034"><ele>586.8</ele><time>2026-04-11T14:28:08.483Z</time></trkpt><trkpt lat="44.446139" lon="10.8518747"><ele>586.4</ele><time>2026-04-11T14:28:09.488Z</time></trkpt><trkpt lat="44.4462404" lon="10.8518673"><ele>586.0</ele><time>2026-04-11T14:28:10.489Z</time></trkpt><trkpt lat="44.4463425" lon="10.8518711"><ele>583.6</ele><time>2026-04-11T14:28:11.488Z</time></trkpt><trkpt lat="44.4464414" lon="10.8518846"><ele>581.2</ele><time>2026-04-11T14:28:12.485Z</time></trkpt><trkpt lat="44.446528" lon="10.8519195"><ele>578.8</ele><time>2026-04-11T14:28:13.481Z</time></trkpt><trkpt lat="44.4465998" lon="10.8519875"><ele>576.4</ele><time>2026-04-11T14:28:14.474Z</time></trkpt><trkpt lat="44.4466491" lon="10.8520854"><ele>574.0</ele><time>2026-04-11T14:28:15.485Z</time></trkpt><trkpt lat="44.4466729" lon="10.852211"><ele>574.0</ele><time>2026-04-11T14:28:16.478Z</time></trkpt><trkpt lat="44.4466808" lon="10.8523578"><ele>574.0</ele><time>2026-04-11T14:28:17.478Z</time></trkpt><trkpt lat="44.4466946" lon="10.8525082"><ele>574.0</ele><time>2026-04-11T14:28:18.485Z</time></trkpt><trkpt lat="44.4467343" lon="10.8526683"><ele>574.0</ele><time>2026-04-11T14:28:19.482Z</time></trkpt><trkpt lat="44.4467937" lon="10.8528308"><ele>574.25</ele><time>2026-04-11T14:28:20.468Z</time></trkpt><trkpt lat="44.4468698" lon="10.8530026"><ele>574.5</ele><time>2026-04-11T14:28:21.476Z</time></trkpt><trkpt lat="44.4469512" lon="10.8531745"><ele>574.75</ele><time>2026-04-11T14:28:22.484Z</time></trkpt><trkpt lat="44.4470324" lon="10.8533417"><ele>575.0</ele><time>2026-04-11T14:28:23.479Z</time></trkpt><trkpt lat="44.4471116" lon="10.8535056"><ele>572.0</ele><time>2026-04-11T14:28:24.454Z</time></trkpt><trkpt lat="44.4471911" lon="10.8536667"><ele>569.0</ele><time>2026-04-11T14:28:25.489Z</time></trkpt><trkpt lat="44.4472686" lon="10.8538243"><ele>566.0</ele><time>2026-04-11T14:28:26.483Z</time></trkpt><trkpt lat="44.4473434" lon="10.8539764"><ele>563.0</ele><time>2026-04-11T14:28:27.474Z</time></trkpt><trkpt lat="44.4474148" lon="10.8541214"><ele>563.0</ele><time>2026-04-11T14:28:28.451Z</time></trkpt><trkpt lat="44.4474819" lon="10.8542606"><ele>563.0</ele><time>2026-04-11T14:28:29.485Z</time></trkpt><trkpt lat="44.4475456" lon="10.8543935"><ele>563.0</ele><time>2026-04-11T14:28:30.473Z</time></trkpt><trkpt lat="44.4476132" lon="10.8545167"><ele>563.0</ele><time>2026-04-11T14:28:31.465Z</time></trkpt><trkpt lat="44.4476921" lon="10.854623"><ele>560.25</ele><time>2026-04-11T14:28:32.451Z</time></trkpt><trkpt lat="44.4477875" lon="10.8547015"><ele>557.5</ele><time>2026-04-11T14:28:33.47Z</time></trkpt><trkpt lat="44.4479004" lon="10.8547559"><ele>554.75</ele><time>2026-04-11T14:28:34.452Z</time></trkpt><trkpt lat="44.448024" lon="10.8547969"><ele>552.0</ele><time>2026-04-11T14:28:35.477Z</time></trkpt><trkpt lat="44.4481546" lon="10.8548371"><ele>552.0</ele><time>2026-04-11T14:28:36.491Z</time></trkpt><trkpt lat="44.4482926" lon="10.8548783"><ele>552.0</ele><time>2026-04-11T14:28:37.444Z</time></trkpt><trkpt lat="44.448432" lon="10.8549173"><ele>552.0</ele><time>2026-04-11T14:28:38.472Z</time></trkpt><trkpt lat="44.4485715" lon="10.8549538"><ele>552.0</ele><time>2026-04-11T14:28:39.452Z</time></trkpt><trkpt lat="44.4487102" lon="10.8549879"><ele>551.0</ele><time>2026-04-11T14:28:40.466Z</time></trkpt><trkpt lat="44.4488477" lon="10.8550196"><ele>550.0</ele><time>2026-04-11T14:28:41.473Z</time></trkpt><trkpt lat="44.4489791" lon="10.8550483"><ele>549.0</ele><time>2026-04-11T14:28:42.469Z</time></trkpt><trkpt lat="44.4491023" lon="10.8550753"><ele>548.0</ele><time>2026-04-11T14:28:43.463Z</time></trkpt><trkpt lat="44.449224" lon="10.8550994"><ele>548.0</ele><time>2026-04-11T14:28:44.475Z</time></trkpt><trkpt lat="44.449342" lon="10.8551205"><ele>548.0</ele><time>2026-04-11T14:28:45.488Z</time></trkpt><trkpt lat="44.4494583" lon="10.8551438"><ele>548.0</ele><time>2026-04-11T14:28:46.455Z</time></trkpt><trkpt lat="44.4495698" lon="10.8551664"><ele>548.0</ele><time>2026-04-11T14:28:47.509Z</time></trkpt><trkpt lat="44.4496697" lon="10.8551861"><ele>545.6666666666666</ele><time>2026-04-11T14:28:48.473Z</time></trkpt><trkpt lat="44.4497639" lon="10.855204"><ele>543.3333333333333</ele><time>2026-04-11T14:28:49.485Z</time></trkpt><trkpt lat="44.4498494" lon="10.8552226"><ele>541.0</ele><time>2026-04-11T14:28:50.479Z</time></trkpt><trkpt lat="44.4499268" lon="10.8552396"><ele>538.6666666666666</ele><time>2026-04-11T14:28:51.468Z</time></trkpt><trkpt lat="44.4500015" lon="10.8552582"><ele>536.3333333333334</ele><time>2026-04-11T14:28:52.481Z</time></trkpt><trkpt lat="44.4500711" lon="10.8552716"><ele>534.0</ele><time>2026-04-11T14:28:53.499Z</time></trkpt><trkpt lat="44.4501625" lon="10.8552925"><ele>534.0</ele><time>2026-04-11T14:28:55.473Z</time></trkpt><trkpt lat="44.4501762" lon="10.8553944"><ele>534.0</ele><time>2026-04-11T14:28:58.455Z</time></trkpt><trkpt lat="44.450092" lon="10.8554662"><ele>534.0</ele><time>2026-04-11T14:29:00.466Z</time></trkpt><trkpt lat="44.4500331" lon="10.8555035"><ele>534.0</ele><time>2026-04-11T14:29:01.49Z</time></trkpt><trkpt lat="44.4499476" lon="10.8555302"><ele>534.0</ele><time>2026-04-11T14:29:02.493Z</time></trkpt><trkpt lat="44.4498572" lon="10.8555597"><ele>534.0</ele><time>2026-04-11T14:29:03.488Z</time></trkpt><trkpt lat="44.4497694" lon="10.8555869"><ele>534.0</ele><time>2026-04-11T14:29:04.483Z</time></trkpt><trkpt lat="44.4496904" lon="10.8556211"><ele>534.0</ele><time>2026-04-11T14:29:05.513Z</time></trkpt><trkpt lat="44.4496147" lon="10.8556694"><ele>534.0</ele><time>2026-04-11T14:29:06.493Z</time></trkpt><trkpt lat="44.4495316" lon="10.8557292"><ele>534.0</ele><time>2026-04-11T14:29:07.473Z</time></trkpt><trkpt lat="44.4494548" lon="10.8558022"><ele>534.0</ele><time>2026-04-11T14:29:08.487Z</time></trkpt><trkpt lat="44.4493901" lon="10.8558973"><ele>534.0</ele><time>2026-04-11T14:29:09.463Z</time></trkpt><trkpt lat="44.4493303" lon="10.8559866"><ele>532.7142857142858</ele><time>2026-04-11T14:29:10.462Z</time></trkpt><trkpt lat="44.4492768" lon="10.8560699"><ele>531.4285714285714</ele><time>2026-04-11T14:29:11.481Z</time></trkpt><trkpt lat="44.4492251" lon="10.8561572"><ele>530.1428571428571</ele><time>2026-04-11T14:29:12.478Z</time></trkpt><trkpt lat="44.4491818" lon="10.8562496"><ele>528.8571428571429</ele><time>2026-04-11T14:29:13.463Z</time></trkpt><trkpt lat="44.4491349" lon="10.8563272"><ele>527.5714285714286</ele><time>2026-04-11T14:29:14.487Z</time></trkpt><trkpt lat="44.4490801" lon="10.8563915"><ele>526.2857142857143</ele><time>2026-04-11T14:29:15.477Z</time></trkpt><trkpt lat="44.4490208" lon="10.8564237"><ele>525.0</ele><time>2026-04-11T14:29:16.469Z</time></trkpt><trkpt lat="44.4489516" lon="10.8564321"><ele>525.0</ele><time>2026-04-11T14:29:17.461Z</time></trkpt><trkpt lat="44.4488839" lon="10.8564384"><ele>525.0</ele><time>2026-04-11T14:29:18.471Z</time></trkpt><trkpt lat="44.4488101" lon="10.8564372"><ele>525.0</ele><time>2026-04-11T14:29:19.483Z</time></trkpt><trkpt lat="44.4487171" lon="10.8564246"><ele>525.0</ele><time>2026-04-11T14:29:20.49Z</time></trkpt><trkpt lat="44.448622" lon="10.856434"><ele>525.0</ele><time>2026-04-11T14:29:21.492Z</time></trkpt><trkpt lat="44.4485093" lon="10.856454"><ele>525.0</ele><time>2026-04-11T14:29:22.505Z</time></trkpt><trkpt lat="44.4484027" lon="10.856478"><ele>525.0</ele><time>2026-04-11T14:29:23.485Z</time></trkpt><trkpt lat="44.4483103" lon="10.8565074"><ele>525.0</ele><time>2026-04-11T14:29:24.493Z</time></trkpt><trkpt lat="44.4482128" lon="10.8565458"><ele>525.0</ele><time>2026-04-11T14:29:25.474Z</time></trkpt><trkpt lat="44.4481147" lon="10.8565847"><ele>525.0</ele><time>2026-04-11T14:29:26.471Z</time></trkpt><trkpt lat="44.4480183" lon="10.8566247"><ele>525.0</ele><time>2026-04-11T14:29:27.471Z</time></trkpt><trkpt lat="44.4479172" lon="10.8566611"><ele>525.0</ele><time>2026-04-11T14:29:28.481Z</time></trkpt><trkpt lat="44.4478218" lon="10.8566953"><ele>525.0</ele><time>2026-04-11T14:29:29.492Z</time></trkpt><trkpt lat="44.4477266" lon="10.8567234"><ele>525.0</ele><time>2026-04-11T14:29:30.472Z</time></trkpt><trkpt lat="44.4476376" lon="10.8567413"><ele>525.0</ele><time>2026-04-11T14:29:31.456Z</time></trkpt><trkpt lat="44.447554" lon="10.856759"><ele>525.0</ele><time>2026-04-11T14:29:32.481Z</time></trkpt><trkpt lat="44.447458" lon="10.8567499"><ele>525.0</ele><time>2026-04-11T14:29:33.486Z</time></trkpt><trkpt lat="44.447357" lon="10.8567341"><ele>525.0</ele><time>2026-04-11T14:29:34.493Z</time></trkpt><trkpt lat="44.4472525" lon="10.8567174"><ele>525.0</ele><time>2026-04-11T14:29:35.457Z</time></trkpt><trkpt lat="44.447162" lon="10.8567005"><ele>525.0</ele><time>2026-04-11T14:29:36.471Z</time></trkpt><trkpt lat="44.4470822" lon="10.8567043"><ele>525.0</ele><time>2026-04-11T14:29:37.476Z</time></trkpt><trkpt lat="44.4469959" lon="10.8567181"><ele>525.6666666666666</ele><time>2026-04-11T14:29:38.479Z</time></trkpt><trkpt lat="44.4469171" lon="10.856732"><ele>526.3333333333334</ele><time>2026-04-11T14:29:39.466Z</time></trkpt><trkpt lat="44.4468079" lon="10.8567846"><ele>527.0</ele><time>2026-04-11T14:29:41.478Z</time></trkpt><trkpt lat="44.4467478" lon="10.8568255"><ele>527.6666666666667</ele><time>2026-04-11T14:29:42.472Z</time></trkpt><trkpt lat="44.4467082" lon="10.8569038"><ele>528.3333333333334</ele><time>2026-04-11T14:29:43.449Z</time></trkpt><trkpt lat="44.4467049" lon="10.8570249"><ele>529.0</ele><time>2026-04-11T14:29:44.483Z</time></trkpt><trkpt lat="44.4466892" lon="10.8571435"><ele>526.8</ele><time>2026-04-11T14:29:45.479Z</time></trkpt><trkpt lat="44.4466637" lon="10.8572553"><ele>524.5999999999999</ele><time>2026-04-11T14:29:46.475Z</time></trkpt><trkpt lat="44.446621" lon="10.8573618"><ele>522.4</ele><time>2026-04-11T14:29:47.442Z</time></trkpt><trkpt lat="44.4465641" lon="10.8574744"><ele>520.1999999999999</ele><time>2026-04-11T14:29:48.468Z</time></trkpt><trkpt lat="44.446509" lon="10.8575891"><ele>518.0</ele><time>2026-04-11T14:29:49.463Z</time></trkpt><trkpt lat="44.4464591" lon="10.8576965"><ele>519.3333333333333</ele><time>2026-04-11T14:29:50.477Z</time></trkpt><trkpt lat="44.4464218" lon="10.8578121"><ele>520.6666666666666</ele><time>2026-04-11T14:29:51.473Z</time></trkpt><trkpt lat="44.4463839" lon="10.8579164"><ele>522.0</ele><time>2026-04-11T14:29:52.482Z</time></trkpt><trkpt lat="44.4463396" lon="10.8580074"><ele>523.3333333333334</ele><time>2026-04-11T14:29:53.488Z</time></trkpt><trkpt lat="44.4462822" lon="10.8580944"><ele>524.6666666666667</ele><time>2026-04-11T14:29:54.478Z</time></trkpt><trkpt lat="44.4462161" lon="10.8581776"><ele>526.0</ele><time>2026-04-11T14:29:55.471Z</time></trkpt><trkpt lat="44.4461479" lon="10.8582623"><ele>526.0</ele><time>2026-04-11T14:29:56.471Z</time></trkpt><trkpt lat="44.4460885" lon="10.8583608"><ele>526.0</ele><time>2026-04-11T14:29:57.442Z</time></trkpt><trkpt lat="44.4460385" lon="10.8584749"><ele>526.0</ele><time>2026-04-11T14:29:58.448Z</time></trkpt><trkpt lat="44.446001" lon="10.8585934"><ele>526.0</ele><time>2026-04-11T14:29:59.461Z</time></trkpt><trkpt lat="44.445969" lon="10.8586999"><ele>526.0</ele><time>2026-04-11T14:30:00.438Z</time></trkpt><trkpt lat="44.4459456" lon="10.8587885"><ele>526.0</ele><time>2026-04-11T14:30:01.48Z</time></trkpt><trkpt lat="44.4459459" lon="10.8589599"><ele>524.7142857142857</ele><time>2026-04-11T14:30:03.474Z</time></trkpt><trkpt lat="44.4459827" lon="10.8590498"><ele>523.4285714285713</ele><time>2026-04-11T14:30:04.446Z</time></trkpt><trkpt lat="44.446018" lon="10.8591363"><ele>522.1428571428571</ele><time>2026-04-11T14:30:05.47Z</time></trkpt><trkpt lat="44.4460389" lon="10.8592327"><ele>520.8571428571429</ele><time>2026-04-11T14:30:06.48Z</time></trkpt><trkpt lat="44.4460393" lon="10.8593231"><ele>519.5714285714287</ele><time>2026-04-11T14:30:07.46Z</time></trkpt><trkpt lat="44.4460141" lon="10.8594363"><ele>518.2857142857143</ele><time>2026-04-11T14:30:08.46Z</time></trkpt><trkpt lat="44.4459908" lon="10.8595406"><ele>517.0</ele><time>2026-04-11T14:30:09.446Z</time></trkpt><trkpt lat="44.4459585" lon="10.8596177"><ele>516.6</ele><time>2026-04-11T14:30:10.466Z</time></trkpt><trkpt lat="44.4458576" lon="10.859713"><ele>516.2</ele><time>2026-04-11T14:30:12.46Z</time></trkpt><trkpt lat="44.4457944" lon="10.8597392"><ele>515.8</ele><time>2026-04-11T14:30:13.473Z</time></trkpt><trkpt lat="44.445695" lon="10.8598772"><ele>515.4</ele><time>2026-04-11T14:30:15.467Z</time></trkpt><trkpt lat="44.4456603" lon="10.8600116"><ele>515.0</ele><time>2026-04-11T14:30:16.426Z</time></trkpt><trkpt lat="44.4456245" lon="10.8601488"><ele>513.8</ele><time>2026-04-11T14:30:17.473Z</time></trkpt><trkpt lat="44.4456002" lon="10.8602659"><ele>512.6</ele><time>2026-04-11T14:30:18.458Z</time></trkpt><trkpt lat="44.445551" lon="10.8604148"><ele>511.4</ele><time>2026-04-11T14:30:19.481Z</time></trkpt><trkpt lat="44.4455018" lon="10.8605444"><ele>510.2</ele><time>2026-04-11T14:30:20.546Z</time></trkpt><trkpt lat="44.4454526" lon="10.8606611"><ele>509.0</ele><time>2026-04-11T14:30:21.471Z</time></trkpt><trkpt lat="44.445402" lon="10.8607664"><ele>508.66666666666663</ele><time>2026-04-11T14:30:22.466Z</time></trkpt><trkpt lat="44.4453448" lon="10.8608672"><ele>508.3333333333333</ele><time>2026-04-11T14:30:23.458Z</time></trkpt><trkpt lat="44.4452848" lon="10.8609462"><ele>508.0</ele><time>2026-04-11T14:30:24.473Z</time></trkpt><trkpt lat="44.4452256" lon="10.8610195"><ele>507.66666666666663</ele><time>2026-04-11T14:30:25.471Z</time></trkpt><trkpt lat="44.4451679" lon="10.8610852"><ele>507.3333333333333</ele><time>2026-04-11T14:30:26.464Z</time></trkpt><trkpt lat="44.4451039" lon="10.8611231"><ele>507.0</ele><time>2026-04-11T14:30:27.486Z</time></trkpt><trkpt lat="44.4450156" lon="10.8611187"><ele>507.0</ele><time>2026-04-11T14:30:28.472Z</time></trkpt><trkpt lat="44.4449294" lon="10.8611102"><ele>507.00000000000006</ele><time>2026-04-11T14:30:29.474Z</time></trkpt><trkpt lat="44.4448473" lon="10.8611012"><ele>507.00000000000006</ele><time>2026-04-11T14:30:30.433Z</time></trkpt><trkpt lat="44.4447657" lon="10.8611186"><ele>507.0</ele><time>2026-04-11T14:30:31.426Z</time></trkpt><trkpt lat="44.4446868" lon="10.861197"><ele>507.0</ele><time>2026-04-11T14:30:32.449Z</time></trkpt><trkpt lat="44.4446087" lon="10.8613383"><ele>508.0</ele><time>2026-04-11T14:30:33.461Z</time></trkpt><trkpt lat="44.44453" lon="10.8614751"><ele>509.00000000000006</ele><time>2026-04-11T14:30:34.469Z</time></trkpt><trkpt lat="44.4444604" lon="10.8615976"><ele>510.00000000000006</ele><time>2026-04-11T14:30:35.471Z</time></trkpt><trkpt lat="44.4443977" lon="10.8617077"><ele>511.0</ele><time>2026-04-11T14:30:36.472Z</time></trkpt><trkpt lat="44.4443288" lon="10.8618002"><ele>512.0</ele><time>2026-04-11T14:30:37.506Z</time></trkpt><trkpt lat="44.4442663" lon="10.8618709"><ele>511.99999999999994</ele><time>2026-04-11T14:30:38.465Z</time></trkpt><trkpt lat="44.4442067" lon="10.8619245"><ele>512.0</ele><time>2026-04-11T14:30:39.466Z</time></trkpt><trkpt lat="44.4441451" lon="10.8619684"><ele>512.0</ele><time>2026-04-11T14:30:40.473Z</time></trkpt><trkpt lat="44.4440746" lon="10.8619983"><ele>512.0</ele><time>2026-04-11T14:30:41.465Z</time></trkpt><trkpt lat="44.4439834" lon="10.8620123"><ele>511.99999999999994</ele><time>2026-04-11T14:30:42.457Z</time></trkpt><trkpt lat="44.4438719" lon="10.8620177"><ele>512.0</ele><time>2026-04-11T14:30:43.521Z</time></trkpt><trkpt lat="44.4437587" lon="10.8620249"><ele>512.8000000000001</ele><time>2026-04-11T14:30:44.451Z</time></trkpt><trkpt lat="44.4436428" lon="10.8620429"><ele>513.6</ele><time>2026-04-11T14:30:45.448Z</time></trkpt><trkpt lat="44.4435359" lon="10.8620609"><ele>514.4000000000001</ele><time>2026-04-11T14:30:46.48Z</time></trkpt><trkpt lat="44.4434407" lon="10.8621018"><ele>515.2</ele><time>2026-04-11T14:30:47.468Z</time></trkpt><trkpt lat="44.443346" lon="10.8621417"><ele>516.0</ele><time>2026-04-11T14:30:48.469Z</time></trkpt><trkpt lat="44.4432564" lon="10.862172"><ele>516.0</ele><time>2026-04-11T14:30:49.497Z</time></trkpt><trkpt lat="44.4431529" lon="10.8622009"><ele>516.0</ele><time>2026-04-11T14:30:50.484Z</time></trkpt><trkpt lat="44.4430411" lon="10.8622337"><ele>516.0</ele><time>2026-04-11T14:30:51.466Z</time></trkpt><trkpt lat="44.4429334" lon="10.8622663"><ele>516.0</ele><time>2026-04-11T14:30:52.463Z</time></trkpt><trkpt lat="44.4428362" lon="10.8622958"><ele>516.0</ele><time>2026-04-11T14:30:53.466Z</time></trkpt><trkpt lat="44.4427391" lon="10.8623224"><ele>516.2</ele><time>2026-04-11T14:30:54.482Z</time></trkpt><trkpt lat="44.4426406" lon="10.8623485"><ele>516.4000000000001</ele><time>2026-04-11T14:30:55.487Z</time></trkpt><trkpt lat="44.4425386" lon="10.8623724"><ele>516.6</ele><time>2026-04-11T14:30:56.445Z</time></trkpt><trkpt lat="44.442428" lon="10.8624025"><ele>516.8000000000001</ele><time>2026-04-11T14:30:57.468Z</time></trkpt><trkpt lat="44.4423116" lon="10.862441"><ele>517.0</ele><time>2026-04-11T14:30:58.471Z</time></trkpt><trkpt lat="44.4422044" lon="10.8624854"><ele>519.6666666666667</ele><time>2026-04-11T14:30:59.473Z</time></trkpt><trkpt lat="44.4421047" lon="10.8625252"><ele>522.3333333333334</ele><time>2026-04-11T14:31:00.428Z</time></trkpt><trkpt lat="44.4420144" lon="10.8625602"><ele>525.0</ele><time>2026-04-11T14:31:01.508Z</time></trkpt><trkpt lat="44.4419418" lon="10.8625828"><ele>527.6666666666666</ele><time>2026-04-11T14:31:02.445Z</time></trkpt><trkpt lat="44.4418753" lon="10.8625933"><ele>530.3333333333333</ele><time>2026-04-11T14:31:03.476Z</time></trkpt><trkpt lat="44.4418091" lon="10.862591"><ele>533.0</ele><time>2026-04-11T14:31:04.47Z</time></trkpt><trkpt lat="44.4417025" lon="10.8625681"><ele>533.0</ele><time>2026-04-11T14:31:06.479Z</time></trkpt><trkpt lat="44.4416085" lon="10.8625526"><ele>533.0</ele><time>2026-04-11T14:31:08.463Z</time></trkpt><trkpt lat="44.4415379" lon="10.8626049"><ele>533.0</ele><time>2026-04-11T14:31:09.468Z</time></trkpt><trkpt lat="44.4414587" lon="10.8626619"><ele>533.0</ele><time>2026-04-11T14:31:10.463Z</time></trkpt><trkpt lat="44.4413719" lon="10.8626916"><ele>533.0</ele><time>2026-04-11T14:31:11.463Z</time></trkpt><trkpt lat="44.4412866" lon="10.8627249"><ele>533.0</ele><time>2026-04-11T14:31:12.463Z</time></trkpt><trkpt lat="44.4412063" lon="10.862801"><ele>534.1666666666666</ele><time>2026-04-11T14:31:13.46Z</time></trkpt><trkpt lat="44.4411187" lon="10.8628661"><ele>535.3333333333333</ele><time>2026-04-11T14:31:14.46Z</time></trkpt><trkpt lat="44.4410426" lon="10.862911"><ele>536.5</ele><time>2026-04-11T14:31:15.466Z</time></trkpt><trkpt lat="44.4409618" lon="10.8629348"><ele>537.6666666666666</ele><time>2026-04-11T14:31:16.463Z</time></trkpt><trkpt lat="44.4408785" lon="10.8629531"><ele>538.8333333333334</ele><time>2026-04-11T14:31:17.469Z</time></trkpt><trkpt lat="44.4407995" lon="10.8629604"><ele>540.0</ele><time>2026-04-11T14:31:18.513Z</time></trkpt><trkpt lat="44.4407212" lon="10.8629836"><ele>540.0</ele><time>2026-04-11T14:31:19.488Z</time></trkpt><trkpt lat="44.4406518" lon="10.8630294"><ele>540.0</ele><time>2026-04-11T14:31:20.46Z</time></trkpt><trkpt lat="44.4405782" lon="10.8630805"><ele>540.0</ele><time>2026-04-11T14:31:21.472Z</time></trkpt><trkpt lat="44.4405022" lon="10.863163"><ele>540.0</ele><time>2026-04-11T14:31:22.472Z</time></trkpt><trkpt lat="44.440422" lon="10.8632339"><ele>540.0</ele><time>2026-04-11T14:31:23.466Z</time></trkpt><trkpt lat="44.4403295" lon="10.8633062"><ele>539.4</ele><time>2026-04-11T14:31:24.453Z</time></trkpt><trkpt lat="44.4402242" lon="10.863356"><ele>538.8</ele><time>2026-04-11T14:31:25.475Z</time></trkpt><trkpt lat="44.4401148" lon="10.8634308"><ele>538.2</ele><time>2026-04-11T14:31:26.462Z</time></trkpt><trkpt lat="44.4400237" lon="10.863498"><ele>537.6</ele><time>2026-04-11T14:31:27.481Z</time></trkpt><trkpt lat="44.439939" lon="10.8635606"><ele>537.0</ele><time>2026-04-11T14:31:28.455Z</time></trkpt><trkpt lat="44.4398519" lon="10.8636099"><ele>536.9999999999999</ele><time>2026-04-11T14:31:29.453Z</time></trkpt><trkpt lat="44.4397665" lon="10.8636504"><ele>537.0</ele><time>2026-04-11T14:31:30.457Z</time></trkpt><trkpt lat="44.4396914" lon="10.8636874"><ele>537.0</ele><time>2026-04-11T14:31:31.47Z</time></trkpt><trkpt lat="44.4396236" lon="10.8637152"><ele>537.0</ele><time>2026-04-11T14:31:32.483Z</time></trkpt><trkpt lat="44.4395601" lon="10.8637386"><ele>537.0</ele><time>2026-04-11T14:31:33.465Z</time></trkpt><trkpt lat="44.4394898" lon="10.8637613"><ele>536.9999999999999</ele><time>2026-04-11T14:31:34.466Z</time></trkpt><trkpt lat="44.4394228" lon="10.8637722"><ele>537.0</ele><time>2026-04-11T14:31:35.457Z</time></trkpt><trkpt lat="44.4393563" lon="10.8637357"><ele>539.4285714285713</ele><time>2026-04-11T14:31:36.468Z</time></trkpt><trkpt lat="44.4392938" lon="10.8636999"><ele>541.8571428571429</ele><time>2026-04-11T14:31:37.456Z</time></trkpt><trkpt lat="44.4392083" lon="10.863696"><ele>544.2857142857142</ele><time>2026-04-11T14:31:39.458Z</time></trkpt><trkpt lat="44.4391618" lon="10.863769"><ele>546.7142857142857</ele><time>2026-04-11T14:31:40.459Z</time></trkpt><trkpt lat="44.4390969" lon="10.863838"><ele>549.1428571428571</ele><time>2026-04-11T14:31:41.45Z</time></trkpt><trkpt lat="44.4390398" lon="10.8638882"><ele>551.5714285714286</ele><time>2026-04-11T14:31:42.453Z</time></trkpt><trkpt lat="44.4389769" lon="10.863928"><ele>554.0</ele><time>2026-04-11T14:31:43.461Z</time></trkpt><trkpt lat="44.4389004" lon="10.8639464"><ele>554.0</ele><time>2026-04-11T14:31:44.464Z</time></trkpt><trkpt lat="44.4388244" lon="10.8639406"><ele>554.0</ele><time>2026-04-11T14:31:45.455Z</time></trkpt><trkpt lat="44.438752" lon="10.8639464"><ele>554.0</ele><time>2026-04-11T14:31:46.454Z</time></trkpt><trkpt lat="44.4386761" lon="10.8640088"><ele>554.0</ele><time>2026-04-11T14:31:47.566Z</time></trkpt><trkpt lat="44.4386043" lon="10.8640913"><ele>554.0</ele><time>2026-04-11T14:31:48.471Z</time></trkpt><trkpt lat="44.4385356" lon="10.8641881"><ele>554.0</ele><time>2026-04-11T14:31:49.453Z</time></trkpt><trkpt lat="44.4384714" lon="10.8642904"><ele>553.2</ele><time>2026-04-11T14:31:50.465Z</time></trkpt><trkpt lat="44.4384191" lon="10.8644093"><ele>552.4</ele><time>2026-04-11T14:31:51.476Z</time></trkpt><trkpt lat="44.4383628" lon="10.8645227"><ele>551.6</ele><time>2026-04-11T14:31:52.456Z</time></trkpt><trkpt lat="44.4383106" lon="10.8646185"><ele>550.8</ele><time>2026-04-11T14:31:53.469Z</time></trkpt><trkpt lat="44.4382589" lon="10.8647112"><ele>550.0</ele><time>2026-04-11T14:31:54.476Z</time></trkpt><trkpt lat="44.4381859" lon="10.8647953"><ele>550.0</ele><time>2026-04-11T14:31:55.459Z</time></trkpt><trkpt lat="44.4380968" lon="10.8648589"><ele>550.0</ele><time>2026-04-11T14:31:56.463Z</time></trkpt><trkpt lat="44.4380042" lon="10.86492"><ele>550.0</ele><time>2026-04-11T14:31:57.467Z</time></trkpt><trkpt lat="44.4379411" lon="10.8649625"><ele>550.0</ele><time>2026-04-11T14:31:58.533Z</time></trkpt><trkpt lat="44.4378899" lon="10.8650152"><ele>550.0</ele><time>2026-04-11T14:31:59.448Z</time></trkpt><trkpt lat="44.437846" lon="10.8650873"><ele>550.0</ele><time>2026-04-11T14:32:00.466Z</time></trkpt><trkpt lat="44.437786" lon="10.86522"><ele>551.0</ele><time>2026-04-11T14:32:02.463Z</time></trkpt><trkpt lat="44.4377256" lon="10.8652907"><ele>552.0</ele><time>2026-04-11T14:32:03.457Z</time></trkpt><trkpt lat="44.4376539" lon="10.8653625"><ele>553.0</ele><time>2026-04-11T14:32:04.499Z</time></trkpt><trkpt lat="44.4375713" lon="10.8654416"><ele>554.0</ele><time>2026-04-11T14:32:05.464Z</time></trkpt><trkpt lat="44.4374713" lon="10.8655177"><ele>555.0</ele><time>2026-04-11T14:32:06.465Z</time></trkpt><trkpt lat="44.4373723" lon="10.8655683"><ele>555.0</ele><time>2026-04-11T14:32:07.481Z</time></trkpt><trkpt lat="44.4372775" lon="10.8656044"><ele>555.0</ele><time>2026-04-11T14:32:08.481Z</time></trkpt><trkpt lat="44.4372081" lon="10.8656388"><ele>555.0</ele><time>2026-04-11T14:32:09.451Z</time></trkpt><trkpt lat="44.4371418" lon="10.8657046"><ele>555.0</ele><time>2026-04-11T14:32:10.52Z</time></trkpt><trkpt lat="44.4370706" lon="10.8657721"><ele>555.0</ele><time>2026-04-11T14:32:11.421Z</time></trkpt><trkpt lat="44.4369814" lon="10.8658392"><ele>555.0</ele><time>2026-04-11T14:32:12.459Z</time></trkpt><trkpt lat="44.4369029" lon="10.8659013"><ele>554.1666666666666</ele><time>2026-04-11T14:32:13.468Z</time></trkpt><trkpt lat="44.4368332" lon="10.8659603"><ele>553.3333333333334</ele><time>2026-04-11T14:32:14.465Z</time></trkpt><trkpt lat="44.4367579" lon="10.8660402"><ele>552.5</ele><time>2026-04-11T14:32:15.468Z</time></trkpt><trkpt lat="44.436686" lon="10.8660994"><ele>551.6666666666667</ele><time>2026-04-11T14:32:16.483Z</time></trkpt><trkpt lat="44.4366212" lon="10.8661364"><ele>550.8333333333334</ele><time>2026-04-11T14:32:17.449Z</time></trkpt><trkpt lat="44.4365478" lon="10.8661448"><ele>550.0</ele><time>2026-04-11T14:32:18.481Z</time></trkpt><trkpt lat="44.4364631" lon="10.8661303"><ele>550.0</ele><time>2026-04-11T14:32:19.485Z</time></trkpt><trkpt lat="44.4363706" lon="10.8660919"><ele>550.0</ele><time>2026-04-11T14:32:20.472Z</time></trkpt><trkpt lat="44.436274" lon="10.8660387"><ele>550.0</ele><time>2026-04-11T14:32:21.461Z</time></trkpt><trkpt lat="44.4361821" lon="10.8659865"><ele>550.0</ele><time>2026-04-11T14:32:22.504Z</time></trkpt><trkpt lat="44.4361108" lon="10.8659488"><ele>550.0</ele><time>2026-04-11T14:32:23.454Z</time></trkpt><trkpt lat="44.436041" lon="10.8658973"><ele>554.8333333333334</ele><time>2026-04-11T14:32:24.46Z</time></trkpt><trkpt lat="44.4359727" lon="10.8658379"><ele>559.6666666666667</ele><time>2026-04-11T14:32:25.472Z</time></trkpt><trkpt lat="44.4359053" lon="10.8657782"><ele>564.5</ele><time>2026-04-11T14:32:26.466Z</time></trkpt><trkpt lat="44.4358322" lon="10.865726"><ele>569.3333333333334</ele><time>2026-04-11T14:32:27.475Z</time></trkpt><trkpt lat="44.4357587" lon="10.865667"><ele>574.1666666666666</ele><time>2026-04-11T14:32:28.5Z</time></trkpt><trkpt lat="44.4356982" lon="10.8656115"><ele>579.0</ele><time>2026-04-11T14:32:29.448Z</time></trkpt><trkpt lat="44.4356281" lon="10.8655449"><ele>579.0</ele><time>2026-04-11T14:32:30.443Z</time></trkpt><trkpt lat="44.4355454" lon="10.8655032"><ele>579.0</ele><time>2026-04-11T14:32:31.471Z</time></trkpt><trkpt lat="44.435459" lon="10.8654846"><ele>579.0</ele><time>2026-04-11T14:32:32.446Z</time></trkpt><trkpt lat="44.4353798" lon="10.8654754"><ele>579.0</ele><time>2026-04-11T14:32:33.468Z</time></trkpt><trkpt lat="44.4353105" lon="10.8654643"><ele>579.0</ele><time>2026-04-11T14:32:34.495Z</time></trkpt><trkpt lat="44.4352473" lon="10.8654438"><ele>579.0</ele><time>2026-04-11T14:32:35.463Z</time></trkpt><trkpt lat="44.4351478" lon="10.865414"><ele>580.8333333333334</ele><time>2026-04-11T14:32:37.461Z</time></trkpt><trkpt lat="44.4350813" lon="10.8653875"><ele>582.6666666666666</ele><time>2026-04-11T14:32:39.47Z</time></trkpt><trkpt lat="44.4350528" lon="10.8654871"><ele>584.5</ele><time>2026-04-11T14:32:42.465Z</time></trkpt><trkpt lat="44.4351056" lon="10.8656301"><ele>586.3333333333333</ele><time>2026-04-11T14:32:44.467Z</time></trkpt><trkpt lat="44.4351123" lon="10.865752"><ele>588.1666666666666</ele><time>2026-04-11T14:32:45.456Z</time></trkpt><trkpt lat="44.4351268" lon="10.8658797"><ele>590.0</ele><time>2026-04-11T14:32:46.448Z</time></trkpt><trkpt lat="44.4351406" lon="10.8659978"><ele>590.3333333333333</ele><time>2026-04-11T14:32:47.461Z</time></trkpt><trkpt lat="44.4351636" lon="10.8660996"><ele>590.6666666666666</ele><time>2026-04-11T14:32:48.46Z</time></trkpt><trkpt lat="44.4351882" lon="10.866221"><ele>591.0</ele><time>2026-04-11T14:32:49.449Z</time></trkpt><trkpt lat="44.4352201" lon="10.8663545"><ele>591.3333333333334</ele><time>2026-04-11T14:32:50.452Z</time></trkpt><trkpt lat="44.4352504" lon="10.8664565"><ele>591.6666666666667</ele><time>2026-04-11T14:32:51.475Z</time></trkpt><trkpt lat="44.4352893" lon="10.8665727"><ele>592.0</ele><time>2026-04-11T14:32:52.51Z</time></trkpt><trkpt lat="44.4353161" lon="10.8666614"><ele>589.6</ele><time>2026-04-11T14:32:53.482Z</time></trkpt><trkpt lat="44.4352521" lon="10.8667857"><ele>587.2</ele><time>2026-04-11T14:32:55.477Z</time></trkpt><trkpt lat="44.4351863" lon="10.8668235"><ele>584.8</ele><time>2026-04-11T14:32:56.459Z</time></trkpt><trkpt lat="44.435101" lon="10.8668478"><ele>582.4</ele><time>2026-04-11T14:32:57.488Z</time></trkpt><trkpt lat="44.4350232" lon="10.866852"><ele>580.0</ele><time>2026-04-11T14:32:58.467Z</time></trkpt><trkpt lat="44.4349209" lon="10.8668061"><ele>582.0</ele><time>2026-04-11T14:33:00.5Z</time></trkpt><trkpt lat="44.4348425" lon="10.8667158"><ele>584.0</ele><time>2026-04-11T14:33:02.48Z</time></trkpt><trkpt lat="44.434774" lon="10.8667041"><ele>586.0</ele><time>2026-04-11T14:33:03.492Z</time></trkpt><trkpt lat="44.4346868" lon="10.8667175"><ele>588.0</ele><time>2026-04-11T14:33:04.536Z</time></trkpt><trkpt lat="44.4345961" lon="10.8667288"><ele>590.0</ele><time>2026-04-11T14:33:05.484Z</time></trkpt><trkpt lat="44.4345135" lon="10.8667319"><ele>592.0</ele><time>2026-04-11T14:33:06.467Z</time></trkpt><trkpt lat="44.4344302" lon="10.866739"><ele>592.0</ele><time>2026-04-11T14:33:07.486Z</time></trkpt><trkpt lat="44.4343363" lon="10.8667652"><ele>592.0</ele><time>2026-04-11T14:33:08.459Z</time></trkpt><trkpt lat="44.4342337" lon="10.8667963"><ele>592.0</ele><time>2026-04-11T14:33:09.463Z</time></trkpt><trkpt lat="44.4341371" lon="10.8668336"><ele>592.0</ele><time>2026-04-11T14:33:10.484Z</time></trkpt><trkpt lat="44.4340483" lon="10.8668699"><ele>592.0</ele><time>2026-04-11T14:33:11.49Z</time></trkpt><trkpt lat="44.4339721" lon="10.8669063"><ele>592.0</ele><time>2026-04-11T14:33:12.486Z</time></trkpt><trkpt lat="44.4339093" lon="10.8669489"><ele>592.0</ele><time>2026-04-11T14:33:13.461Z</time></trkpt><trkpt lat="44.4338415" lon="10.8670786"><ele>592.0</ele><time>2026-04-11T14:33:15.475Z</time></trkpt><trkpt lat="44.4338363" lon="10.8672138"><ele>592.0</ele><time>2026-04-11T14:33:16.484Z</time></trkpt><trkpt lat="44.433827" lon="10.8673788"><ele>592.0</ele><time>2026-04-11T14:33:17.472Z</time></trkpt><trkpt lat="44.4338182" lon="10.8675438"><ele>591.3333333333334</ele><time>2026-04-11T14:33:18.486Z</time></trkpt><trkpt lat="44.4338197" lon="10.8676876"><ele>590.6666666666667</ele><time>2026-04-11T14:33:19.436Z</time></trkpt><trkpt lat="44.4338288" lon="10.8678216"><ele>590.0</ele><time>2026-04-11T14:33:20.46Z</time></trkpt><trkpt lat="44.4338339" lon="10.8679386"><ele>589.3333333333334</ele><time>2026-04-11T14:33:21.486Z</time></trkpt><trkpt lat="44.4338289" lon="10.8680389"><ele>588.6666666666666</ele><time>2026-04-11T14:33:22.531Z</time></trkpt><trkpt lat="44.433802" lon="10.8681326"><ele>588.0</ele><time>2026-04-11T14:33:23.485Z</time></trkpt><trkpt lat="44.4337626" lon="10.8682446"><ele>589.1999999999999</ele><time>2026-04-11T14:33:24.483Z</time></trkpt><trkpt lat="44.433703" lon="10.8683704"><ele>590.4</ele><time>2026-04-11T14:33:25.469Z</time></trkpt><trkpt lat="44.4336406" lon="10.8684981"><ele>591.5999999999999</ele><time>2026-04-11T14:33:26.478Z</time></trkpt><trkpt lat="44.4335832" lon="10.8686176"><ele>592.8</ele><time>2026-04-11T14:33:27.484Z</time></trkpt><trkpt lat="44.4335329" lon="10.8687272"><ele>594.0</ele><time>2026-04-11T14:33:28.483Z</time></trkpt><trkpt lat="44.4334942" lon="10.8688272"><ele>594.0</ele><time>2026-04-11T14:33:29.489Z</time></trkpt><trkpt lat="44.4334635" lon="10.8689276"><ele>594.0</ele><time>2026-04-11T14:33:30.466Z</time></trkpt><trkpt lat="44.4334326" lon="10.869028"><ele>594.0</ele><time>2026-04-11T14:33:31.49Z</time></trkpt><trkpt lat="44.433408" lon="10.8691222"><ele>594.0</ele><time>2026-04-11T14:33:32.461Z</time></trkpt><trkpt lat="44.4333921" lon="10.8692173"><ele>594.0</ele><time>2026-04-11T14:33:33.496Z</time></trkpt><trkpt lat="44.4333844" lon="10.8693065"><ele>594.0</ele><time>2026-04-11T14:33:34.499Z</time></trkpt><trkpt lat="44.4333714" lon="10.8694619"><ele>594.2</ele><time>2026-04-11T14:33:36.484Z</time></trkpt><trkpt lat="44.4333632" lon="10.8695972"><ele>594.4</ele><time>2026-04-11T14:33:38.481Z</time></trkpt><trkpt lat="44.4333491" lon="10.8697549"><ele>594.6</ele><time>2026-04-11T14:33:40.486Z</time></trkpt><trkpt lat="44.4333351" lon="10.8699419"><ele>594.8</ele><time>2026-04-11T14:33:42.483Z</time></trkpt><trkpt lat="44.4333268" lon="10.8700598"><ele>595.0</ele><time>2026-04-11T14:33:43.489Z</time></trkpt><trkpt lat="44.4333185" lon="10.8701791"><ele>594.0</ele><time>2026-04-11T14:33:44.472Z</time></trkpt><trkpt lat="44.4333117" lon="10.8702888"><ele>593.0</ele><time>2026-04-11T14:33:45.48Z</time></trkpt><trkpt lat="44.4333042" lon="10.8703845"><ele>592.0</ele><time>2026-04-11T14:33:46.484Z</time></trkpt><trkpt lat="44.433289" lon="10.8705342"><ele>591.0</ele><time>2026-04-11T14:33:48.5Z</time></trkpt><trkpt lat="44.4332761" lon="10.870637"><ele>590.0</ele><time>2026-04-11T14:33:50.528Z</time></trkpt><trkpt lat="44.4332616" lon="10.8707234"><ele>589.0</ele><time>2026-04-11T14:33:54.429Z</time></trkpt><trkpt lat="44.4333304" lon="10.8707201"><ele>589.0</ele><time>2026-04-11T14:35:56.489Z</time></trkpt><trkpt lat="44.4334557" lon="10.8707195"><ele>589.0</ele><time>2026-04-11T14:45:15.47Z</time></trkpt><trkpt lat="44.4335387" lon="10.8707037"><ele>589.0</ele><time>2026-04-11T14:45:16.417Z</time></trkpt><trkpt lat="44.4336269" lon="10.8706741"><ele>589.0</ele><time>2026-04-11T14:45:17.451Z</time></trkpt><trkpt lat="44.4337108" lon="10.8706493"><ele>589.0</ele><time>2026-04-11T14:45:18.467Z</time></trkpt><trkpt lat="44.4338055" lon="10.8706354"><ele>588.4</ele><time>2026-04-11T14:45:19.429Z</time></trkpt><trkpt lat="44.4339094" lon="10.8706393"><ele>587.8</ele><time>2026-04-11T14:45:20.421Z</time></trkpt><trkpt lat="44.4340187" lon="10.8706572"><ele>587.2</ele><time>2026-04-11T14:45:21.418Z</time></trkpt><trkpt lat="44.4341297" lon="10.8706852"><ele>586.6</ele><time>2026-04-11T14:45:22.467Z</time></trkpt><trkpt lat="44.4342475" lon="10.870723"><ele>586.0</ele><time>2026-04-11T14:45:23.424Z</time></trkpt><trkpt lat="44.4343638" lon="10.8707593"><ele>586.0</ele><time>2026-04-11T14:45:24.472Z</time></trkpt><trkpt lat="44.4344748" lon="10.8707954"><ele>586.0</ele><time>2026-04-11T14:45:25.476Z</time></trkpt><trkpt lat="44.4345816" lon="10.8708351"><ele>586.0</ele><time>2026-04-11T14:45:26.453Z</time></trkpt><trkpt lat="44.4346876" lon="10.8708826"><ele>586.0</ele><time>2026-04-11T14:45:27.471Z</time></trkpt><trkpt lat="44.4347977" lon="10.8709429"><ele>584.25</ele><time>2026-04-11T14:45:28.468Z</time></trkpt><trkpt lat="44.4349092" lon="10.8710197"><ele>582.5</ele><time>2026-04-11T14:45:29.474Z</time></trkpt><trkpt lat="44.4350185" lon="10.8711065"><ele>580.75</ele><time>2026-04-11T14:45:30.476Z</time></trkpt><trkpt lat="44.4351222" lon="10.8711946"><ele>579.0</ele><time>2026-04-11T14:45:31.59Z</time></trkpt><trkpt lat="44.4353136" lon="10.871363"><ele>579.0</ele><time>2026-04-11T14:45:33.454Z</time></trkpt><trkpt lat="44.4353928" lon="10.8714599"><ele>579.0</ele><time>2026-04-11T14:45:34.477Z</time></trkpt><trkpt lat="44.4354554" lon="10.8715713"><ele>579.0</ele><time>2026-04-11T14:45:35.473Z</time></trkpt><trkpt lat="44.4354943" lon="10.871702"><ele>579.0</ele><time>2026-04-11T14:45:36.467Z</time></trkpt><trkpt lat="44.4355101" lon="10.8718553"><ele>579.0</ele><time>2026-04-11T14:45:37.458Z</time></trkpt><trkpt lat="44.4355062" lon="10.8720244"><ele>577.5</ele><time>2026-04-11T14:45:38.48Z</time></trkpt><trkpt lat="44.4354915" lon="10.8722028"><ele>576.0</ele><time>2026-04-11T14:45:39.467Z</time></trkpt><trkpt lat="44.4354783" lon="10.8723793"><ele>574.5</ele><time>2026-04-11T14:45:40.456Z</time></trkpt><trkpt lat="44.4354693" lon="10.872553"><ele>573.0</ele><time>2026-04-11T14:45:41.47Z</time></trkpt><trkpt lat="44.4354688" lon="10.8727314"><ele>575.0</ele><time>2026-04-11T14:45:42.454Z</time></trkpt><trkpt lat="44.43548" lon="10.8729162"><ele>577.0</ele><time>2026-04-11T14:45:43.477Z</time></trkpt><trkpt lat="44.4355045" lon="10.8731112"><ele>579.0</ele><time>2026-04-11T14:45:44.484Z</time></trkpt><trkpt lat="44.4355372" lon="10.8733134"><ele>581.0</ele><time>2026-04-11T14:45:45.47Z</time></trkpt><trkpt lat="44.4355699" lon="10.8735083"><ele>581.0</ele><time>2026-04-11T14:45:46.451Z</time></trkpt><trkpt lat="44.4356013" lon="10.8736968"><ele>581.0</ele><time>2026-04-11T14:45:47.454Z</time></trkpt><trkpt lat="44.4356302" lon="10.8738806"><ele>581.0</ele><time>2026-04-11T14:45:48.427Z</time></trkpt><trkpt lat="44.4356497" lon="10.8740649"><ele>581.0</ele><time>2026-04-11T14:45:49.462Z</time></trkpt><trkpt lat="44.4356574" lon="10.8742522"><ele>579.75</ele><time>2026-04-11T14:45:50.456Z</time></trkpt><trkpt lat="44.4356522" lon="10.8744417"><ele>578.5</ele><time>2026-04-11T14:45:51.482Z</time></trkpt><trkpt lat="44.435642" lon="10.8746251"><ele>577.25</ele><time>2026-04-11T14:45:52.444Z</time></trkpt><trkpt lat="44.4356412" lon="10.8748105"><ele>576.0</ele><time>2026-04-11T14:45:53.458Z</time></trkpt><trkpt lat="44.4356546" lon="10.8750081"><ele>574.6666666666666</ele><time>2026-04-11T14:45:54.42Z</time></trkpt><trkpt lat="44.4356835" lon="10.8752164"><ele>573.3333333333333</ele><time>2026-04-11T14:45:55.437Z</time></trkpt><trkpt lat="44.435726" lon="10.8754332"><ele>572.0</ele><time>2026-04-11T14:45:56.441Z</time></trkpt><trkpt lat="44.4357751" lon="10.8756546"><ele>572.0</ele><time>2026-04-11T14:45:57.398Z</time></trkpt><trkpt lat="44.4358253" lon="10.8758657"><ele>572.0</ele><time>2026-04-11T14:45:58.432Z</time></trkpt><trkpt lat="44.4358737" lon="10.8760661"><ele>572.0</ele><time>2026-04-11T14:45:59.415Z</time></trkpt><trkpt lat="44.4359243" lon="10.876255"><ele>570.75</ele><time>2026-04-11T14:46:00.451Z</time></trkpt><trkpt lat="44.435972" lon="10.8764376"><ele>569.5</ele><time>2026-04-11T14:46:01.437Z</time></trkpt><trkpt lat="44.4360096" lon="10.8766159"><ele>568.25</ele><time>2026-04-11T14:46:02.455Z</time></trkpt><trkpt lat="44.4360379" lon="10.876779"><ele>567.0</ele><time>2026-04-11T14:46:03.45Z</time></trkpt><trkpt lat="44.4360485" lon="10.8769418"><ele>566.75</ele><time>2026-04-11T14:46:04.442Z</time></trkpt><trkpt lat="44.4360364" lon="10.8771067"><ele>566.5</ele><time>2026-04-11T14:46:05.431Z</time></trkpt><trkpt lat="44.4360046" lon="10.8772702"><ele>566.25</ele><time>2026-04-11T14:46:06.46Z</time></trkpt><trkpt lat="44.4359646" lon="10.8774304"><ele>566.0</ele><time>2026-04-11T14:46:07.459Z</time></trkpt><trkpt lat="44.4359215" lon="10.877595"><ele>566.25</ele><time>2026-04-11T14:46:08.468Z</time></trkpt><trkpt lat="44.4358856" lon="10.8777665"><ele>566.5</ele><time>2026-04-11T14:46:09.472Z</time></trkpt><trkpt lat="44.4358604" lon="10.8779435"><ele>566.75</ele><time>2026-04-11T14:46:10.462Z</time></trkpt><trkpt lat="44.4358412" lon="10.8781232"><ele>567.0</ele><time>2026-04-11T14:46:11.513Z</time></trkpt><trkpt lat="44.435831" lon="10.8783074"><ele>566.5</ele><time>2026-04-11T14:46:12.477Z</time></trkpt><trkpt lat="44.4358305" lon="10.8784892"><ele>566.0</ele><time>2026-04-11T14:46:13.468Z</time></trkpt><trkpt lat="44.4358374" lon="10.8786793"><ele>565.5</ele><time>2026-04-11T14:46:14.429Z</time></trkpt><trkpt lat="44.4358456" lon="10.8788787"><ele>565.0</ele><time>2026-04-11T14:46:15.483Z</time></trkpt><trkpt lat="44.4358567" lon="10.8790809"><ele>564.25</ele><time>2026-04-11T14:46:16.464Z</time></trkpt><trkpt lat="44.4358669" lon="10.8792832"><ele>563.5</ele><time>2026-04-11T14:46:17.478Z</time></trkpt><trkpt lat="44.4358848" lon="10.8794765"><ele>562.75</ele><time>2026-04-11T14:46:18.473Z</time></trkpt><trkpt lat="44.4358971" lon="10.8796589"><ele>562.0</ele><time>2026-04-11T14:46:19.469Z</time></trkpt><trkpt lat="44.4359067" lon="10.8798382"><ele>562.0</ele><time>2026-04-11T14:46:20.448Z</time></trkpt><trkpt lat="44.4359134" lon="10.8800089"><ele>562.0</ele><time>2026-04-11T14:46:21.469Z</time></trkpt><trkpt lat="44.4359107" lon="10.880176"><ele>562.0</ele><time>2026-04-11T14:46:22.482Z</time></trkpt><trkpt lat="44.4359086" lon="10.880328"><ele>562.0</ele><time>2026-04-11T14:46:23.466Z</time></trkpt><trkpt lat="44.4358998" lon="10.8804613"><ele>562.0</ele><time>2026-04-11T14:46:24.448Z</time></trkpt><trkpt lat="44.4358916" lon="10.8805762"><ele>562.0000000000001</ele><time>2026-04-11T14:46:25.448Z</time></trkpt><trkpt lat="44.4358803" lon="10.8806752"><ele>562.0</ele><time>2026-04-11T14:46:26.459Z</time></trkpt><trkpt lat="44.4358619" lon="10.8807639"><ele>562.0</ele><time>2026-04-11T14:46:27.443Z</time></trkpt><trkpt lat="44.435834" lon="10.8808524"><ele>562.0</ele><time>2026-04-11T14:46:28.447Z</time></trkpt><trkpt lat="44.4357982" lon="10.8809488"><ele>562.0</ele><time>2026-04-11T14:46:29.434Z</time></trkpt><trkpt lat="44.4357541" lon="10.881031"><ele>562.0000000000001</ele><time>2026-04-11T14:46:30.441Z</time></trkpt><trkpt lat="44.4357161" lon="10.8811438"><ele>562.0</ele><time>2026-04-11T14:46:31.446Z</time></trkpt><trkpt lat="44.4356705" lon="10.881272"><ele>562.0</ele><time>2026-04-11T14:46:32.456Z</time></trkpt><trkpt lat="44.4356198" lon="10.8814092"><ele>562.0</ele><time>2026-04-11T14:46:33.484Z</time></trkpt><trkpt lat="44.4355567" lon="10.8815895"><ele>562.0</ele><time>2026-04-11T14:46:34.471Z</time></trkpt><trkpt lat="44.4354928" lon="10.8817381"><ele>562.0</ele><time>2026-04-11T14:46:35.45Z</time></trkpt><trkpt lat="44.4354423" lon="10.8818624"><ele>563.4</ele><time>2026-04-11T14:46:36.457Z</time></trkpt><trkpt lat="44.4353912" lon="10.8819834"><ele>564.8000000000001</ele><time>2026-04-11T14:46:37.47Z</time></trkpt><trkpt lat="44.4353387" lon="10.8820858"><ele>566.2</ele><time>2026-04-11T14:46:38.452Z</time></trkpt><trkpt lat="44.435281" lon="10.8821824"><ele>567.6</ele><time>2026-04-11T14:46:39.47Z</time></trkpt><trkpt lat="44.4352232" lon="10.8822843"><ele>569.0</ele><time>2026-04-11T14:46:40.477Z</time></trkpt><trkpt lat="44.4351596" lon="10.8823797"><ele>569.0</ele><time>2026-04-11T14:46:41.437Z</time></trkpt><trkpt lat="44.435103" lon="10.882483"><ele>569.0</ele><time>2026-04-11T14:46:42.437Z</time></trkpt><trkpt lat="44.4350428" lon="10.882587"><ele>569.0</ele><time>2026-04-11T14:46:43.46Z</time></trkpt><trkpt lat="44.4349794" lon="10.8826949"><ele>569.0</ele><time>2026-04-11T14:46:44.46Z</time></trkpt><trkpt lat="44.4349094" lon="10.8828075"><ele>569.0</ele><time>2026-04-11T14:46:45.473Z</time></trkpt><trkpt lat="44.434835" lon="10.8829194"><ele>569.0</ele><time>2026-04-11T14:46:46.459Z</time></trkpt><trkpt lat="44.4347664" lon="10.8830325"><ele>569.0</ele><time>2026-04-11T14:46:47.45Z</time></trkpt><trkpt lat="44.4346971" lon="10.8831415"><ele>569.0</ele><time>2026-04-11T14:46:48.461Z</time></trkpt><trkpt lat="44.4346327" lon="10.8832438"><ele>569.0</ele><time>2026-04-11T14:46:49.488Z</time></trkpt><trkpt lat="44.4345724" lon="10.8833357"><ele>569.0</ele><time>2026-04-11T14:46:50.448Z</time></trkpt><trkpt lat="44.4345128" lon="10.8834257"><ele>569.8333333333333</ele><time>2026-04-11T14:46:51.461Z</time></trkpt><trkpt lat="44.4344531" lon="10.8835195"><ele>570.6666666666666</ele><time>2026-04-11T14:46:52.48Z</time></trkpt><trkpt lat="44.4343958" lon="10.8836164"><ele>571.5</ele><time>2026-04-11T14:46:53.461Z</time></trkpt><trkpt lat="44.4343419" lon="10.8837126"><ele>572.3333333333334</ele><time>2026-04-11T14:46:54.463Z</time></trkpt><trkpt lat="44.4342869" lon="10.8838111"><ele>573.1666666666667</ele><time>2026-04-11T14:46:55.483Z</time></trkpt><trkpt lat="44.4342329" lon="10.8839118"><ele>574.0</ele><time>2026-04-11T14:46:56.473Z</time></trkpt><trkpt lat="44.4341748" lon="10.8840077"><ele>574.0</ele><time>2026-04-11T14:46:57.465Z</time></trkpt><trkpt lat="44.4341344" lon="10.884108"><ele>574.0</ele><time>2026-04-11T14:46:58.467Z</time></trkpt><trkpt lat="44.4340949" lon="10.8842036"><ele>574.0</ele><time>2026-04-11T14:46:59.459Z</time></trkpt><trkpt lat="44.4340645" lon="10.8842921"><ele>574.0</ele><time>2026-04-11T14:47:00.48Z</time></trkpt><trkpt lat="44.4340325" lon="10.8843742"><ele>574.0</ele><time>2026-04-11T14:47:01.473Z</time></trkpt><trkpt lat="44.4339684" lon="10.8844884"><ele>574.0</ele><time>2026-04-11T14:47:03.468Z</time></trkpt><trkpt lat="44.4338831" lon="10.8844842"><ele>573.8</ele><time>2026-04-11T14:47:05.456Z</time></trkpt><trkpt lat="44.4338191" lon="10.8844162"><ele>573.5999999999999</ele><time>2026-04-11T14:47:06.469Z</time></trkpt><trkpt lat="44.4337462" lon="10.8843275"><ele>573.4</ele><time>2026-04-11T14:47:07.496Z</time></trkpt><trkpt lat="44.4336674" lon="10.8842323"><ele>573.1999999999999</ele><time>2026-04-11T14:47:08.468Z</time></trkpt><trkpt lat="44.433583" lon="10.884134"><ele>573.0</ele><time>2026-04-11T14:47:09.467Z</time></trkpt><trkpt lat="44.4335013" lon="10.8840352"><ele>571.4</ele><time>2026-04-11T14:47:10.489Z</time></trkpt><trkpt lat="44.4334243" lon="10.8839535"><ele>569.8</ele><time>2026-04-11T14:47:11.462Z</time></trkpt><trkpt lat="44.433349" lon="10.8838913"><ele>568.2</ele><time>2026-04-11T14:47:12.451Z</time></trkpt><trkpt lat="44.4332614" lon="10.883857"><ele>566.6</ele><time>2026-04-11T14:47:13.46Z</time></trkpt><trkpt lat="44.4331622" lon="10.8838536"><ele>565.0</ele><time>2026-04-11T14:47:14.469Z</time></trkpt><trkpt lat="44.4330506" lon="10.883871"><ele>563.6</ele><time>2026-04-11T14:47:15.469Z</time></trkpt><trkpt lat="44.4329432" lon="10.8838931"><ele>562.2</ele><time>2026-04-11T14:47:16.441Z</time></trkpt><trkpt lat="44.4328397" lon="10.8839135"><ele>560.8</ele><time>2026-04-11T14:47:17.493Z</time></trkpt><trkpt lat="44.4327391" lon="10.8839328"><ele>559.4</ele><time>2026-04-11T14:47:18.475Z</time></trkpt><trkpt lat="44.432641" lon="10.8839519"><ele>558.0</ele><time>2026-04-11T14:47:19.456Z</time></trkpt><trkpt lat="44.4325444" lon="10.8839681"><ele>558.0</ele><time>2026-04-11T14:47:20.469Z</time></trkpt><trkpt lat="44.4324552" lon="10.8839788"><ele>558.0</ele><time>2026-04-11T14:47:21.493Z</time></trkpt><trkpt lat="44.4323687" lon="10.8839898"><ele>558.0</ele><time>2026-04-11T14:47:22.475Z</time></trkpt><trkpt lat="44.4322791" lon="10.8840172"><ele>558.0</ele><time>2026-04-11T14:47:23.47Z</time></trkpt><trkpt lat="44.4321928" lon="10.8840788"><ele>558.0</ele><time>2026-04-11T14:47:24.479Z</time></trkpt><trkpt lat="44.4321101" lon="10.8841779"><ele>556.0</ele><time>2026-04-11T14:47:25.474Z</time></trkpt><trkpt lat="44.4320325" lon="10.8842993"><ele>554.0</ele><time>2026-04-11T14:47:26.476Z</time></trkpt><trkpt lat="44.4319537" lon="10.884421"><ele>552.0</ele><time>2026-04-11T14:47:27.546Z</time></trkpt><trkpt lat="44.4318679" lon="10.8845286"><ele>550.0</ele><time>2026-04-11T14:47:28.478Z</time></trkpt><trkpt lat="44.4317771" lon="10.8846266"><ele>550.0</ele><time>2026-04-11T14:47:29.465Z</time></trkpt><trkpt lat="44.4316906" lon="10.8847292"><ele>550.0</ele><time>2026-04-11T14:47:30.459Z</time></trkpt><trkpt lat="44.4316103" lon="10.884844"><ele>550.0</ele><time>2026-04-11T14:47:31.463Z</time></trkpt><trkpt lat="44.4315323" lon="10.8849777"><ele>550.0</ele><time>2026-04-11T14:47:32.429Z</time></trkpt><trkpt lat="44.4314572" lon="10.8851212"><ele>550.75</ele><time>2026-04-11T14:47:33.477Z</time></trkpt><trkpt lat="44.4313833" lon="10.8852654"><ele>551.5</ele><time>2026-04-11T14:47:34.454Z</time></trkpt><trkpt lat="44.4313101" lon="10.8854083"><ele>552.25</ele><time>2026-04-11T14:47:35.491Z</time></trkpt><trkpt lat="44.4312393" lon="10.8855453"><ele>553.0</ele><time>2026-04-11T14:47:36.455Z</time></trkpt><trkpt lat="44.4311707" lon="10.8856723"><ele>550.4</ele><time>2026-04-11T14:47:37.467Z</time></trkpt><trkpt lat="44.4311069" lon="10.8857815"><ele>547.8</ele><time>2026-04-11T14:47:38.468Z</time></trkpt><trkpt lat="44.4310356" lon="10.8858766"><ele>545.2</ele><time>2026-04-11T14:47:39.489Z</time></trkpt><trkpt lat="44.4309621" lon="10.8859475"><ele>542.6</ele><time>2026-04-11T14:47:40.465Z</time></trkpt><trkpt lat="44.4308776" lon="10.8859774"><ele>540.0</ele><time>2026-04-11T14:47:41.481Z</time></trkpt><trkpt lat="44.4307828" lon="10.8859678"><ele>538.75</ele><time>2026-04-11T14:47:42.461Z</time></trkpt><trkpt lat="44.4306837" lon="10.8859438"><ele>537.5</ele><time>2026-04-11T14:47:43.454Z</time></trkpt><trkpt lat="44.4305717" lon="10.8859422"><ele>536.25</ele><time>2026-04-11T14:47:44.455Z</time></trkpt><trkpt lat="44.4304494" lon="10.8859688"><ele>535.0</ele><time>2026-04-11T14:47:45.513Z</time></trkpt><trkpt lat="44.4303245" lon="10.8860142"><ele>532.75</ele><time>2026-04-11T14:47:46.459Z</time></trkpt><trkpt lat="44.4302034" lon="10.8860647"><ele>530.5</ele><time>2026-04-11T14:47:47.467Z</time></trkpt><trkpt lat="44.4300816" lon="10.886115"><ele>528.25</ele><time>2026-04-11T14:47:48.475Z</time></trkpt><trkpt lat="44.4299716" lon="10.8861607"><ele>526.0</ele><time>2026-04-11T14:47:49.473Z</time></trkpt><trkpt lat="44.4298666" lon="10.8861942"><ele>526.0</ele><time>2026-04-11T14:47:50.474Z</time></trkpt><trkpt lat="44.4297693" lon="10.8862088"><ele>526.0</ele><time>2026-04-11T14:47:51.533Z</time></trkpt><trkpt lat="44.4296743" lon="10.8862096"><ele>526.0</ele><time>2026-04-11T14:47:52.449Z</time></trkpt><trkpt lat="44.4295819" lon="10.886196"><ele>526.0</ele><time>2026-04-11T14:47:53.455Z</time></trkpt><trkpt lat="44.4294975" lon="10.8861706"><ele>526.0</ele><time>2026-04-11T14:47:54.412Z</time></trkpt><trkpt lat="44.4294234" lon="10.8861224"><ele>524.4</ele><time>2026-04-11T14:47:55.497Z</time></trkpt><trkpt lat="44.4293593" lon="10.8860488"><ele>522.8</ele><time>2026-04-11T14:47:56.459Z</time></trkpt><trkpt lat="44.4293081" lon="10.8859459"><ele>521.1999999999999</ele><time>2026-04-11T14:47:57.513Z</time></trkpt><trkpt lat="44.4292692" lon="10.8858218"><ele>519.6</ele><time>2026-04-11T14:47:58.451Z</time></trkpt><trkpt lat="44.4292379" lon="10.8856873"><ele>518.0</ele><time>2026-04-11T14:47:59.479Z</time></trkpt><trkpt lat="44.4291978" lon="10.8855475"><ele>518.0</ele><time>2026-04-11T14:48:00.46Z</time></trkpt><trkpt lat="44.4291322" lon="10.8854448"><ele>518.0</ele><time>2026-04-11T14:48:01.452Z</time></trkpt><trkpt lat="44.4290574" lon="10.8853561"><ele>518.0</ele><time>2026-04-11T14:48:02.456Z</time></trkpt><trkpt lat="44.4289599" lon="10.8853155"><ele>518.0</ele><time>2026-04-11T14:48:03.469Z</time></trkpt><trkpt lat="44.4288608" lon="10.8852985"><ele>518.0</ele><time>2026-04-11T14:48:04.441Z</time></trkpt><trkpt lat="44.4287533" lon="10.8852944"><ele>515.75</ele><time>2026-04-11T14:48:05.481Z</time></trkpt><trkpt lat="44.4286368" lon="10.8852979"><ele>513.5</ele><time>2026-04-11T14:48:06.488Z</time></trkpt><trkpt lat="44.4285216" lon="10.8852996"><ele>511.25</ele><time>2026-04-11T14:48:07.479Z</time></trkpt><trkpt lat="44.428407" lon="10.8852976"><ele>509.0</ele><time>2026-04-11T14:48:08.547Z</time></trkpt><trkpt lat="44.428293" lon="10.8852953"><ele>509.0</ele><time>2026-04-11T14:48:09.477Z</time></trkpt><trkpt lat="44.4281863" lon="10.8852952"><ele>509.0</ele><time>2026-04-11T14:48:10.457Z</time></trkpt><trkpt lat="44.4280822" lon="10.8853043"><ele>509.0</ele><time>2026-04-11T14:48:11.473Z</time></trkpt><trkpt lat="44.4279841" lon="10.8853312"><ele>509.0</ele><time>2026-04-11T14:48:12.467Z</time></trkpt><trkpt lat="44.4278881" lon="10.8853827"><ele>509.0</ele><time>2026-04-11T14:48:13.471Z</time></trkpt><trkpt lat="44.4277994" lon="10.8854569"><ele>507.6</ele><time>2026-04-11T14:48:14.532Z</time></trkpt><trkpt lat="44.4277133" lon="10.8855391"><ele>506.2</ele><time>2026-04-11T14:48:15.477Z</time></trkpt><trkpt lat="44.4276247" lon="10.8856151"><ele>504.80000000000007</ele><time>2026-04-11T14:48:16.468Z</time></trkpt><trkpt lat="44.4275398" lon="10.8856862"><ele>503.40000000000003</ele><time>2026-04-11T14:48:17.459Z</time></trkpt><trkpt lat="44.4274658" lon="10.8857398"><ele>502.0</ele><time>2026-04-11T14:48:18.476Z</time></trkpt><trkpt lat="44.4274057" lon="10.8857816"><ele>502.00000000000006</ele><time>2026-04-11T14:48:19.479Z</time></trkpt><trkpt lat="44.4273201" lon="10.8858709"><ele>502.0</ele><time>2026-04-11T14:48:21.447Z</time></trkpt><trkpt lat="44.4272522" lon="10.8859208"><ele>502.0</ele><time>2026-04-11T14:48:23.453Z</time></trkpt><trkpt lat="44.4271878" lon="10.8859407"><ele>502.0</ele><time>2026-04-11T14:48:26.485Z</time></trkpt><trkpt lat="44.4271331" lon="10.885991"><ele>502.00000000000006</ele><time>2026-04-11T14:48:39.479Z</time></trkpt><trkpt lat="44.4270682" lon="10.8860805"><ele>502.0</ele><time>2026-04-11T14:48:42.49Z</time></trkpt><trkpt lat="44.4269951" lon="10.886133"><ele>498.1666666666667</ele><time>2026-04-11T14:48:44.5Z</time></trkpt><trkpt lat="44.4269253" lon="10.8861802"><ele>494.33333333333337</ele><time>2026-04-11T14:48:46.481Z</time></trkpt><trkpt lat="44.426863" lon="10.8862601"><ele>490.5</ele><time>2026-04-11T14:48:48.47Z</time></trkpt><trkpt lat="44.4268139" lon="10.8863265"><ele>486.66666666666663</ele><time>2026-04-11T14:48:50.464Z</time></trkpt><trkpt lat="44.4267601" lon="10.8863809"><ele>482.8333333333333</ele><time>2026-04-11T14:48:52.462Z</time></trkpt><trkpt lat="44.4266966" lon="10.8864814"><ele>479.0</ele><time>2026-04-11T14:48:55.453Z</time></trkpt><trkpt lat="44.4266656" lon="10.8865686"><ele>478.99999999999994</ele><time>2026-04-11T14:48:57.491Z</time></trkpt><trkpt lat="44.4266303" lon="10.8866545"><ele>479.0</ele><time>2026-04-11T14:48:59.48Z</time></trkpt><trkpt lat="44.4265938" lon="10.8867522"><ele>479.0</ele><time>2026-04-11T14:49:01.447Z</time></trkpt><trkpt lat="44.4265534" lon="10.8868734"><ele>479.0</ele><time>2026-04-11T14:49:03.447Z</time></trkpt><trkpt lat="44.4265097" lon="10.886997"><ele>478.99999999999994</ele><time>2026-04-11T14:49:05.474Z</time></trkpt><trkpt lat="44.4264732" lon="10.8871213"><ele>479.0</ele><time>2026-04-11T14:49:07.459Z</time></trkpt><trkpt lat="44.4264373" lon="10.8872152"><ele>477.3333333333333</ele><time>2026-04-11T14:49:09.488Z</time></trkpt><trkpt lat="44.4263843" lon="10.8872977"><ele>475.66666666666663</ele><time>2026-04-11T14:49:11.477Z</time></trkpt><trkpt lat="44.4263213" lon="10.8873638"><ele>474.0</ele><time>2026-04-11T14:49:13.456Z</time></trkpt><trkpt lat="44.4262566" lon="10.8874215"><ele>472.33333333333337</ele><time>2026-04-11T14:49:15.448Z</time></trkpt><trkpt lat="44.4261959" lon="10.8874807"><ele>470.6666666666667</ele><time>2026-04-11T14:49:17.46Z</time></trkpt><trkpt lat="44.4261387" lon="10.8875442"><ele>469.0</ele><time>2026-04-11T14:49:19.472Z</time></trkpt><trkpt lat="44.4260988" lon="10.8876318"><ele>465.85714285714283</ele><time>2026-04-11T14:49:21.463Z</time></trkpt><trkpt lat="44.4260695" lon="10.8877376"><ele>462.7142857142857</ele><time>2026-04-11T14:49:23.429Z</time></trkpt><trkpt lat="44.426046" lon="10.8878366"><ele>459.57142857142856</ele><time>2026-04-11T14:49:25.474Z</time></trkpt><trkpt lat="44.4260189" lon="10.887927"><ele>456.42857142857144</ele><time>2026-04-11T14:49:27.467Z</time></trkpt><trkpt lat="44.4259803" lon="10.8880154"><ele>453.2857142857143</ele><time>2026-04-11T14:49:29.473Z</time></trkpt><trkpt lat="44.4259211" lon="10.8880663"><ele>450.1428571428571</ele><time>2026-04-11T14:49:31.439Z</time></trkpt><trkpt lat="44.4258485" lon="10.8880869"><ele>447.0</ele><time>2026-04-11T14:49:33.48Z</time></trkpt><trkpt lat="44.4257896" lon="10.8881214"><ele>447.0</ele><time>2026-04-11T14:49:35.465Z</time></trkpt><trkpt lat="44.4257459" lon="10.8881966"><ele>447.0</ele><time>2026-04-11T14:49:37.468Z</time></trkpt><trkpt lat="44.4256986" lon="10.8882832"><ele>447.0</ele><time>2026-04-11T14:49:39.468Z</time></trkpt><trkpt lat="44.425646" lon="10.8883837"><ele>447.0</ele><time>2026-04-11T14:49:41.454Z</time></trkpt><trkpt lat="44.4255986" lon="10.8884871"><ele>447.0</ele><time>2026-04-11T14:49:43.481Z</time></trkpt><trkpt lat="44.4255694" lon="10.8886069"><ele>447.0</ele><time>2026-04-11T14:49:45.514Z</time></trkpt><trkpt lat="44.4255517" lon="10.8887323"><ele>445.3333333333333</ele><time>2026-04-11T14:49:47.477Z</time></trkpt><trkpt lat="44.4255401" lon="10.8888394"><ele>443.66666666666663</ele><time>2026-04-11T14:49:50.468Z</time></trkpt><trkpt lat="44.4254724" lon="10.8888841"><ele>442.0</ele><time>2026-04-11T14:49:52.431Z</time></trkpt><trkpt lat="44.425405" lon="10.8889051"><ele>440.3333333333333</ele><time>2026-04-11T14:49:54.473Z</time></trkpt><trkpt lat="44.4253187" lon="10.8889296"><ele>438.66666666666663</ele><time>2026-04-11T14:49:56.488Z</time></trkpt><trkpt lat="44.4252497" lon="10.8889554"><ele>437.0</ele><time>2026-04-11T14:49:58.466Z</time></trkpt><trkpt lat="44.4251813" lon="10.8889876"><ele>435.0</ele><time>2026-04-11T14:50:01.461Z</time></trkpt><trkpt lat="44.425107" lon="10.8890234"><ele>433.00000000000006</ele><time>2026-04-11T14:50:36.519Z</time></trkpt><trkpt lat="44.425014" lon="10.8890558"><ele>431.00000000000006</ele><time>2026-04-11T14:50:38.414Z</time></trkpt><trkpt lat="44.4249083" lon="10.8890829"><ele>429.0</ele><time>2026-04-11T14:50:40.483Z</time></trkpt><trkpt lat="44.4248109" lon="10.8891036"><ele>427.0</ele><time>2026-04-11T14:50:42.48Z</time></trkpt><trkpt lat="44.4247175" lon="10.8891529"><ele>424.1666666666667</ele><time>2026-04-11T14:50:44.462Z</time></trkpt><trkpt lat="44.4246191" lon="10.8892198"><ele>421.33333333333337</ele><time>2026-04-11T14:50:46.479Z</time></trkpt><trkpt lat="44.4245181" lon="10.8892959"><ele>418.5</ele><time>2026-04-11T14:50:48.479Z</time></trkpt><trkpt lat="44.4244583" lon="10.8893356"><ele>415.66666666666663</ele><time>2026-04-11T14:50:49.478Z</time></trkpt><trkpt lat="44.4243958" lon="10.8893744"><ele>412.8333333333333</ele><time>2026-04-11T14:50:50.468Z</time></trkpt><trkpt lat="44.4243257" lon="10.8894145"><ele>410.0</ele><time>2026-04-11T14:50:51.487Z</time></trkpt><trkpt lat="44.4242545" lon="10.8894527"><ele>408.3333333333333</ele><time>2026-04-11T14:50:52.507Z</time></trkpt><trkpt lat="44.4241813" lon="10.8894862"><ele>406.66666666666663</ele><time>2026-04-11T14:50:53.489Z</time></trkpt><trkpt lat="44.4241021" lon="10.8895242"><ele>405.0</ele><time>2026-04-11T14:50:54.454Z</time></trkpt><trkpt lat="44.424024" lon="10.889563"><ele>403.33333333333337</ele><time>2026-04-11T14:50:55.477Z</time></trkpt><trkpt lat="44.4239479" lon="10.8895981"><ele>401.6666666666667</ele><time>2026-04-11T14:50:56.483Z</time></trkpt><trkpt lat="44.4238737" lon="10.8896394"><ele>400.0</ele><time>2026-04-11T14:50:57.474Z</time></trkpt><trkpt lat="44.4238028" lon="10.8896845"><ele>399.00000000000006</ele><time>2026-04-11T14:50:58.482Z</time></trkpt><trkpt lat="44.4237394" lon="10.8897314"><ele>398.0</ele><time>2026-04-11T14:50:59.464Z</time></trkpt><trkpt lat="44.4236427" lon="10.889805"><ele>397.0</ele><time>2026-04-11T14:51:01.482Z</time></trkpt><trkpt lat="44.4235718" lon="10.8898777"><ele>396.0</ele><time>2026-04-11T14:51:03.435Z</time></trkpt><trkpt lat="44.4235181" lon="10.8899585"><ele>395.00000000000006</ele><time>2026-04-11T14:51:05.461Z</time></trkpt><trkpt lat="44.4234652" lon="10.890036"><ele>394.0</ele><time>2026-04-11T14:51:07.445Z</time></trkpt><trkpt lat="44.4234057" lon="10.8901027"><ele>392.00000000000006</ele><time>2026-04-11T14:51:09.452Z</time></trkpt><trkpt lat="44.4233385" lon="10.8901793"><ele>390.0</ele><time>2026-04-11T14:51:11.432Z</time></trkpt><trkpt lat="44.4232749" lon="10.8902377"><ele>388.0</ele><time>2026-04-11T14:51:13.452Z</time></trkpt><trkpt lat="44.4232109" lon="10.890266"><ele>386.0</ele><time>2026-04-11T14:51:15.474Z</time></trkpt><trkpt lat="44.423148" lon="10.8903114"><ele>384.0</ele><time>2026-04-11T14:51:17.465Z</time></trkpt><trkpt lat="44.4230816" lon="10.8903738"><ele>382.0</ele><time>2026-04-11T14:51:19.486Z</time></trkpt><trkpt lat="44.4230086" lon="10.8904405"><ele>380.3333333333333</ele><time>2026-04-11T14:51:21.477Z</time></trkpt><trkpt lat="44.4229299" lon="10.890501"><ele>378.66666666666663</ele><time>2026-04-11T14:51:23.469Z</time></trkpt><trkpt lat="44.4228385" lon="10.890554"><ele>377.0</ele><time>2026-04-11T14:51:25.458Z</time></trkpt><trkpt lat="44.4227599" lon="10.890617"><ele>375.3333333333333</ele><time>2026-04-11T14:51:27.478Z</time></trkpt><trkpt lat="44.4226914" lon="10.8906892"><ele>373.6666666666667</ele><time>2026-04-11T14:51:29.494Z</time></trkpt><trkpt lat="44.422626" lon="10.890737"><ele>372.0</ele><time>2026-04-11T14:51:31.446Z</time></trkpt><trkpt lat="44.4225643" lon="10.890779"><ele>372.0</ele><time>2026-04-11T14:51:33.427Z</time></trkpt><trkpt lat="44.4224993" lon="10.8908115"><ele>372.0</ele><time>2026-04-11T14:51:35.498Z</time></trkpt><trkpt lat="44.4224279" lon="10.8908678"><ele>372.0</ele><time>2026-04-11T14:51:45.455Z</time></trkpt><trkpt lat="44.4223831" lon="10.8909456"><ele>372.0</ele><time>2026-04-11T14:51:48.462Z</time></trkpt><trkpt lat="44.4223093" lon="10.8910193"><ele>372.0</ele><time>2026-04-11T14:51:51.481Z</time></trkpt><trkpt lat="44.4222421" lon="10.8910631"><ele>372.0</ele><time>2026-04-11T14:51:54.46Z</time></trkpt><trkpt lat="44.4221523" lon="10.8911155"><ele>368.3333333333333</ele><time>2026-04-11T14:51:57.458Z</time></trkpt><trkpt lat="44.4220691" lon="10.8911682"><ele>364.6666666666667</ele><time>2026-04-11T14:51:59.467Z</time></trkpt><trkpt lat="44.4219853" lon="10.8912377"><ele>361.0</ele><time>2026-04-11T14:52:01.49Z</time></trkpt><trkpt lat="44.4219013" lon="10.8912947"><ele>357.33333333333337</ele><time>2026-04-11T14:52:03.451Z</time></trkpt><trkpt lat="44.4218356" lon="10.8913498"><ele>353.6666666666667</ele><time>2026-04-11T14:52:05.463Z</time></trkpt><trkpt lat="44.4217685" lon="10.8913747"><ele>350.0</ele><time>2026-04-11T14:52:07.458Z</time></trkpt><trkpt lat="44.4216933" lon="10.8913703"><ele>350.0</ele><time>2026-04-11T14:52:09.47Z</time></trkpt><trkpt lat="44.4216202" lon="10.891369"><ele>350.0</ele><time>2026-04-11T14:52:11.458Z</time></trkpt><trkpt lat="44.4215366" lon="10.8913913"><ele>350.0</ele><time>2026-04-11T14:52:14.464Z</time></trkpt><trkpt lat="44.4214652" lon="10.8914447"><ele>350.0</ele><time>2026-04-11T14:52:17.465Z</time></trkpt><trkpt lat="44.4214009" lon="10.8914834"><ele>350.0</ele><time>2026-04-11T14:52:19.448Z</time></trkpt><trkpt lat="44.4213292" lon="10.8915178"><ele>350.0</ele><time>2026-04-11T14:52:21.445Z</time></trkpt><trkpt lat="44.4212664" lon="10.8915474"><ele>348.5</ele><time>2026-04-11T14:52:23.48Z</time></trkpt><trkpt lat="44.421193" lon="10.8915987"><ele>347.0</ele><time>2026-04-11T14:52:26.469Z</time></trkpt><trkpt lat="44.4211235" lon="10.8916469"><ele>345.5</ele><time>2026-04-11T14:52:28.451Z</time></trkpt><trkpt lat="44.4210626" lon="10.8916858"><ele>344.0</ele><time>2026-04-11T14:52:30.493Z</time></trkpt><trkpt lat="44.4209884" lon="10.8917306"><ele>342.5</ele><time>2026-04-11T14:52:33.468Z</time></trkpt><trkpt lat="44.420918" lon="10.8917812"><ele>341.0</ele><time>2026-04-11T14:52:36.444Z</time></trkpt><trkpt lat="44.4208638" lon="10.8918285"><ele>338.85714285714283</ele><time>2026-04-11T14:52:39.45Z</time></trkpt><trkpt lat="44.4208104" lon="10.8918773"><ele>336.7142857142857</ele><time>2026-04-11T14:52:42.471Z</time></trkpt><trkpt lat="44.4207527" lon="10.8919242"><ele>334.57142857142856</ele><time>2026-04-11T14:52:45.496Z</time></trkpt><trkpt lat="44.4206976" lon="10.8919892"><ele>332.42857142857144</ele><time>2026-04-11T14:52:49.459Z</time></trkpt><trkpt lat="44.4206427" lon="10.8920357"><ele>330.2857142857143</ele><time>2026-04-11T14:53:07.493Z</time></trkpt><trkpt lat="44.4205604" lon="10.8920489"><ele>328.14285714285717</ele><time>2026-04-11T14:53:11.469Z</time></trkpt><trkpt lat="44.4204797" lon="10.8920536"><ele>326.0</ele><time>2026-04-11T14:53:14.446Z</time></trkpt><trkpt lat="44.4204381" lon="10.8921257"><ele>323.5</ele><time>2026-04-11T14:53:17.465Z</time></trkpt><trkpt lat="44.4203711" lon="10.8921953"><ele>321.0</ele><time>2026-04-11T14:53:19.448Z</time></trkpt><trkpt lat="44.4203109" lon="10.8922559"><ele>318.5</ele><time>2026-04-11T14:53:21.483Z</time></trkpt><trkpt lat="44.4202548" lon="10.8923083"><ele>316.0</ele><time>2026-04-11T14:53:23.464Z</time></trkpt><trkpt lat="44.4202176" lon="10.8924053"><ele>313.5</ele><time>2026-04-11T14:53:26.483Z</time></trkpt><trkpt lat="44.4202048" lon="10.8925142"><ele>311.0</ele><time>2026-04-11T14:53:29.439Z</time></trkpt><trkpt lat="44.4201743" lon="10.89262"><ele>308.2857142857143</ele><time>2026-04-11T14:53:32.436Z</time></trkpt><trkpt lat="44.4201129" lon="10.8926846"><ele>305.5714285714286</ele><time>2026-04-11T14:53:35.458Z</time></trkpt><trkpt lat="44.4200503" lon="10.8927558"><ele>302.8571428571429</ele><time>2026-04-11T14:53:38.464Z</time></trkpt><trkpt lat="44.4199987" lon="10.8928233"><ele>300.1428571428571</ele><time>2026-04-11T14:53:41.484Z</time></trkpt><trkpt lat="44.4199465" lon="10.8929058"><ele>297.42857142857144</ele><time>2026-04-11T14:54:52.478Z</time></trkpt><trkpt lat="44.4199302" lon="10.8930012"><ele>294.7142857142857</ele><time>2026-04-11T14:55:02.454Z</time></trkpt><trkpt lat="44.4199735" lon="10.8930824"><ele>292.0</ele><time>2026-04-11T14:55:08.44Z</time></trkpt><trkpt lat="44.4200333" lon="10.8931427"><ele>292.0</ele><time>2026-04-11T14:55:13.531Z</time></trkpt><trkpt lat="44.4200277" lon="10.8932412"><ele>292.0</ele><time>2026-04-11T14:55:18.525Z</time></trkpt><trkpt lat="44.4199269" lon="10.8932571"><ele>292.0</ele><time>2026-04-11T14:55:23.093Z</time></trkpt><trkpt lat="44.4198609" lon="10.8932793"><ele>292.0</ele><time>2026-04-11T14:55:25.602Z</time></trkpt><trkpt lat="44.4197867" lon="10.8933242"><ele>292.0</ele><time>2026-04-11T14:56:02.45Z</time></trkpt><trkpt lat="44.4197025" lon="10.8933027"><ele>292.0</ele><time>2026-04-11T14:56:06.558Z</time></trkpt><trkpt lat="44.4196551" lon="10.8932365"><ele>288.0</ele><time>2026-04-11T14:56:08.478Z</time></trkpt><trkpt lat="44.4196449" lon="10.8931168"><ele>284.0</ele><time>2026-04-11T14:56:11.598Z</time></trkpt><trkpt lat="44.419601" lon="10.8930247"><ele>280.0</ele><time>2026-04-11T14:57:23.529Z</time></trkpt><trkpt lat="44.4195243" lon="10.8929851"><ele>276.0</ele><time>2026-04-11T14:57:27.489Z</time></trkpt><trkpt lat="44.4194518" lon="10.8929823"><ele>272.0</ele><time>2026-04-11T14:57:28.449Z</time></trkpt><trkpt lat="44.4193452" lon="10.8928083"><ele>272.0</ele><time>2026-04-11T14:57:29.464Z</time></trkpt><trkpt lat="44.4192655" lon="10.8926999"><ele>272.0</ele><time>2026-04-11T14:57:30.442Z</time></trkpt><trkpt lat="44.4192061" lon="10.8926494"><ele>272.0</ele><time>2026-04-11T14:57:31.449Z</time></trkpt><trkpt lat="44.4191463" lon="10.8925998"><ele>272.0</ele><time>2026-04-11T14:57:32.464Z</time></trkpt><trkpt lat="44.4190855" lon="10.8925505"><ele>272.0</ele><time>2026-04-11T14:57:33.468Z</time></trkpt><trkpt lat="44.4190301" lon="10.8925058"><ele>272.0</ele><time>2026-04-11T14:57:34.459Z</time></trkpt><trkpt lat="44.4189312" lon="10.8924601"><ele>272.6</ele><time>2026-04-11T14:57:36.437Z</time></trkpt><trkpt lat="44.4188333" lon="10.8925051"><ele>273.2</ele><time>2026-04-11T14:57:38.443Z</time></trkpt><trkpt lat="44.4187309" lon="10.8925489"><ele>273.8</ele><time>2026-04-11T14:57:40.457Z</time></trkpt><trkpt lat="44.4186089" lon="10.8925289"><ele>274.4</ele><time>2026-04-11T14:57:42.457Z</time></trkpt><trkpt lat="44.4185075" lon="10.8925025"><ele>275.0</ele><time>2026-04-11T14:57:44.457Z</time></trkpt><trkpt lat="44.4184306" lon="10.8924523"><ele>275.0</ele><time>2026-04-11T14:57:47.498Z</time></trkpt><trkpt lat="44.4183744" lon="10.8923588"><ele>275.0</ele><time>2026-04-11T14:57:49.487Z</time></trkpt><trkpt lat="44.4183193" lon="10.892198"><ele>275.0</ele><time>2026-04-11T14:57:51.485Z</time></trkpt><trkpt lat="44.4183146" lon="10.8920848"><ele>275.0</ele><time>2026-04-11T14:57:52.464Z</time></trkpt><trkpt lat="44.4183134" lon="10.8919615"><ele>275.0</ele><time>2026-04-11T14:57:53.476Z</time></trkpt><trkpt lat="44.4183017" lon="10.8918511"><ele>275.0</ele><time>2026-04-11T14:57:54.448Z</time></trkpt><trkpt lat="44.4182709" lon="10.8917627"><ele>275.0</ele><time>2026-04-11T14:57:55.471Z</time></trkpt><trkpt lat="44.4182195" lon="10.8916985"><ele>275.0</ele><time>2026-04-11T14:57:56.456Z</time></trkpt><trkpt lat="44.4181565" lon="10.8916537"><ele>275.0</ele><time>2026-04-11T14:57:57.483Z</time></trkpt><trkpt lat="44.4180855" lon="10.8916306"><ele>275.0</ele><time>2026-04-11T14:57:58.473Z</time></trkpt><trkpt lat="44.4180156" lon="10.8916326"><ele>275.0</ele><time>2026-04-11T14:57:59.509Z</time></trkpt><trkpt lat="44.4179519" lon="10.8916674"><ele>275.0</ele><time>2026-04-11T14:58:00.48Z</time></trkpt><trkpt lat="44.4178979" lon="10.8917336"><ele>271.5</ele><time>2026-04-11T14:58:01.463Z</time></trkpt><trkpt lat="44.4178617" lon="10.8918247"><ele>268.0</ele><time>2026-04-11T14:58:02.472Z</time></trkpt><trkpt lat="44.4178352" lon="10.8919297"><ele>264.5</ele><time>2026-04-11T14:58:03.485Z</time></trkpt><trkpt lat="44.4178139" lon="10.8920442"><ele>261.0</ele><time>2026-04-11T14:58:04.468Z</time></trkpt><trkpt lat="44.417794" lon="10.8921624"><ele>257.5</ele><time>2026-04-11T14:58:05.479Z</time></trkpt><trkpt lat="44.4177703" lon="10.8922774"><ele>254.0</ele><time>2026-04-11T14:58:06.468Z</time></trkpt><trkpt lat="44.4177402" lon="10.8923835"><ele>254.00000000000003</ele><time>2026-04-11T14:58:07.475Z</time></trkpt><trkpt lat="44.4177003" lon="10.8924767"><ele>254.0</ele><time>2026-04-11T14:58:08.465Z</time></trkpt><trkpt lat="44.4176443" lon="10.8925554"><ele>254.0</ele><time>2026-04-11T14:58:09.451Z</time></trkpt><trkpt lat="44.4175722" lon="10.8926133"><ele>254.0</ele><time>2026-04-11T14:58:10.445Z</time></trkpt><trkpt lat="44.4174856" lon="10.8926513"><ele>254.00000000000003</ele><time>2026-04-11T14:58:11.436Z</time></trkpt><trkpt lat="44.4173924" lon="10.8926721"><ele>254.0</ele><time>2026-04-11T14:58:12.469Z</time></trkpt><trkpt lat="44.4172991" lon="10.8926801"><ele>252.28571428571428</ele><time>2026-04-11T14:58:13.484Z</time></trkpt><trkpt lat="44.4172134" lon="10.8926832"><ele>250.57142857142856</ele><time>2026-04-11T14:58:14.453Z</time></trkpt><trkpt lat="44.4171368" lon="10.8926853"><ele>248.85714285714283</ele><time>2026-04-11T14:58:15.459Z</time></trkpt><trkpt lat="44.4170684" lon="10.8926964"><ele>247.14285714285714</ele><time>2026-04-11T14:58:16.465Z</time></trkpt><trkpt lat="44.417011" lon="10.8927326"><ele>245.4285714285714</ele><time>2026-04-11T14:58:17.475Z</time></trkpt><trkpt lat="44.4169629" lon="10.8928001"><ele>243.7142857142857</ele><time>2026-04-11T14:58:18.468Z</time></trkpt><trkpt lat="44.4169243" lon="10.892889"><ele>242.0</ele><time>2026-04-11T14:58:19.467Z</time></trkpt><trkpt lat="44.4168941" lon="10.8929828"><ele>240.57142857142856</ele><time>2026-04-11T14:58:20.471Z</time></trkpt><trkpt lat="44.4168726" lon="10.8930756"><ele>239.1428571428571</ele><time>2026-04-11T14:58:21.462Z</time></trkpt><trkpt lat="44.4168584" lon="10.8931707"><ele>237.71428571428572</ele><time>2026-04-11T14:58:22.469Z</time></trkpt><trkpt lat="44.4168515" lon="10.8932664"><ele>236.28571428571428</ele><time>2026-04-11T14:58:23.449Z</time></trkpt><trkpt lat="44.4168517" lon="10.8933619"><ele>234.85714285714286</ele><time>2026-04-11T14:58:24.462Z</time></trkpt><trkpt lat="44.4168571" lon="10.8934575"><ele>233.42857142857144</ele><time>2026-04-11T14:58:25.452Z</time></trkpt><trkpt lat="44.4168643" lon="10.8935545"><ele>232.00000000000003</ele><time>2026-04-11T14:58:26.457Z</time></trkpt><trkpt lat="44.4168711" lon="10.8936445"><ele>231.0</ele><time>2026-04-11T14:58:27.458Z</time></trkpt><trkpt lat="44.41688" lon="10.8937717"><ele>230.0</ele><time>2026-04-11T14:58:29.473Z</time></trkpt><trkpt lat="44.4169222" lon="10.8939047"><ele>229.0</ele><time>2026-04-11T14:58:31.47Z</time></trkpt><trkpt lat="44.4169721" lon="10.8939774"><ele>228.0</ele><time>2026-04-11T14:58:32.434Z</time></trkpt><trkpt lat="44.4170326" lon="10.8940618"><ele>227.0</ele><time>2026-04-11T14:58:33.447Z</time></trkpt><trkpt lat="44.4170944" lon="10.8941669"><ele>226.0</ele><time>2026-04-11T14:58:34.443Z</time></trkpt><trkpt lat="44.4171605" lon="10.8942984"><ele>225.0</ele><time>2026-04-11T14:58:35.435Z</time></trkpt><trkpt lat="44.417223" lon="10.8944375"><ele>224.0</ele><time>2026-04-11T14:58:36.453Z</time></trkpt><trkpt lat="44.4172856" lon="10.8945835"><ele>223.0</ele><time>2026-04-11T14:58:37.444Z</time></trkpt><trkpt lat="44.4173492" lon="10.8947395"><ele>223.0</ele><time>2026-04-11T14:58:38.446Z</time></trkpt><trkpt lat="44.4174136" lon="10.8949019"><ele>223.0</ele><time>2026-04-11T14:58:39.453Z</time></trkpt><trkpt lat="44.4174754" lon="10.8950597"><ele>223.0</ele><time>2026-04-11T14:58:40.454Z</time></trkpt><trkpt lat="44.4175363" lon="10.8952135"><ele>223.0</ele><time>2026-04-11T14:58:41.452Z</time></trkpt><trkpt lat="44.4175953" lon="10.8953615"><ele>222.5</ele><time>2026-04-11T14:58:42.459Z</time></trkpt><trkpt lat="44.4176527" lon="10.8955036"><ele>222.0</ele><time>2026-04-11T14:58:43.485Z</time></trkpt><trkpt lat="44.4177101" lon="10.895645"><ele>221.5</ele><time>2026-04-11T14:58:44.444Z</time></trkpt><trkpt lat="44.4177674" lon="10.8957843"><ele>221.0</ele><time>2026-04-11T14:58:45.457Z</time></trkpt><trkpt lat="44.4178245" lon="10.8959207"><ele>221.0</ele><time>2026-04-11T14:58:46.482Z</time></trkpt><trkpt lat="44.4178786" lon="10.8960534"><ele>221.00000000000003</ele><time>2026-04-11T14:58:47.46Z</time></trkpt><trkpt lat="44.4179213" lon="10.8961823"><ele>221.00000000000003</ele><time>2026-04-11T14:58:48.471Z</time></trkpt><trkpt lat="44.4179407" lon="10.896311"><ele>221.0</ele><time>2026-04-11T14:58:49.505Z</time></trkpt><trkpt lat="44.417933" lon="10.8964496"><ele>221.0</ele><time>2026-04-11T14:58:50.452Z</time></trkpt><trkpt lat="44.4179066" lon="10.8966039"><ele>221.25</ele><time>2026-04-11T14:58:51.465Z</time></trkpt><trkpt lat="44.4178783" lon="10.8967717"><ele>221.5</ele><time>2026-04-11T14:58:52.469Z</time></trkpt><trkpt lat="44.4178546" lon="10.8969492"><ele>221.75</ele><time>2026-04-11T14:58:53.47Z</time></trkpt><trkpt lat="44.4178364" lon="10.8971266"><ele>222.0</ele><time>2026-04-11T14:58:54.461Z</time></trkpt><trkpt lat="44.4178263" lon="10.8972991"><ele>222.0</ele><time>2026-04-11T14:58:55.47Z</time></trkpt><trkpt lat="44.4178179" lon="10.8974646"><ele>222.0</ele><time>2026-04-11T14:58:56.448Z</time></trkpt><trkpt lat="44.4178314" lon="10.8976293"><ele>222.0</ele><time>2026-04-11T14:58:57.461Z</time></trkpt><trkpt lat="44.4178613" lon="10.8977867"><ele>222.0</ele><time>2026-04-11T14:58:58.474Z</time></trkpt><trkpt lat="44.4179066" lon="10.8979382"><ele>222.39999999999998</ele><time>2026-04-11T14:58:59.477Z</time></trkpt><trkpt lat="44.4179615" lon="10.8980716"><ele>222.79999999999998</ele><time>2026-04-11T14:59:00.46Z</time></trkpt><trkpt lat="44.418017" lon="10.8982012"><ele>223.2</ele><time>2026-04-11T14:59:01.469Z</time></trkpt><trkpt lat="44.4180695" lon="10.8983295"><ele>223.6</ele><time>2026-04-11T14:59:02.456Z</time></trkpt><trkpt lat="44.4181201" lon="10.8984641"><ele>224.0</ele><time>2026-04-11T14:59:03.457Z</time></trkpt><trkpt lat="44.4181677" lon="10.8986061"><ele>221.75</ele><time>2026-04-11T14:59:04.459Z</time></trkpt><trkpt lat="44.4182135" lon="10.8987622"><ele>219.5</ele><time>2026-04-11T14:59:05.455Z</time></trkpt><trkpt lat="44.4182557" lon="10.8989175"><ele>217.25</ele><time>2026-04-11T14:59:06.469Z</time></trkpt><trkpt lat="44.4182923" lon="10.8990706"><ele>215.0</ele><time>2026-04-11T14:59:07.471Z</time></trkpt><trkpt lat="44.4183198" lon="10.8992283"><ele>214.25</ele><time>2026-04-11T14:59:08.458Z</time></trkpt><trkpt lat="44.418335" lon="10.8993945"><ele>213.5</ele><time>2026-04-11T14:59:09.47Z</time></trkpt><trkpt lat="44.4183409" lon="10.899571"><ele>212.75</ele><time>2026-04-11T14:59:10.487Z</time></trkpt><trkpt lat="44.4183429" lon="10.8997587"><ele>212.0</ele><time>2026-04-11T14:59:11.47Z</time></trkpt><trkpt lat="44.4183421" lon="10.8999423"><ele>211.75</ele><time>2026-04-11T14:59:12.434Z</time></trkpt><trkpt lat="44.4183413" lon="10.9001185"><ele>211.5</ele><time>2026-04-11T14:59:13.458Z</time></trkpt><trkpt lat="44.4183448" lon="10.9002883"><ele>211.25</ele><time>2026-04-11T14:59:14.466Z</time></trkpt><trkpt lat="44.4183517" lon="10.9004638"><ele>211.0</ele><time>2026-04-11T14:59:15.457Z</time></trkpt><trkpt lat="44.4183581" lon="10.9006545"><ele>211.0</ele><time>2026-04-11T14:59:16.464Z</time></trkpt><trkpt lat="44.418366" lon="10.9008388"><ele>211.0</ele><time>2026-04-11T14:59:17.49Z</time></trkpt><trkpt lat="44.4183717" lon="10.9010164"><ele>211.0</ele><time>2026-04-11T14:59:18.464Z</time></trkpt><trkpt lat="44.4183746" lon="10.9011887"><ele>211.0</ele><time>2026-04-11T14:59:19.459Z</time></trkpt><trkpt lat="44.4183739" lon="10.9013605"><ele>211.0</ele><time>2026-04-11T14:59:20.463Z</time></trkpt><trkpt lat="44.4183713" lon="10.9015375"><ele>211.0</ele><time>2026-04-11T14:59:21.467Z</time></trkpt><trkpt lat="44.4183754" lon="10.901719"><ele>211.0</ele><time>2026-04-11T14:59:22.473Z</time></trkpt><trkpt lat="44.418389" lon="10.9018947"><ele>211.0</ele><time>2026-04-11T14:59:23.451Z</time></trkpt><trkpt lat="44.4184162" lon="10.9020618"><ele>210.75</ele><time>2026-04-11T14:59:24.475Z</time></trkpt><trkpt lat="44.4184577" lon="10.9022176"><ele>210.5</ele><time>2026-04-11T14:59:25.468Z</time></trkpt><trkpt lat="44.4185055" lon="10.9023671"><ele>210.25</ele><time>2026-04-11T14:59:26.457Z</time></trkpt><trkpt lat="44.4185448" lon="10.9025139"><ele>210.0</ele><time>2026-04-11T14:59:27.467Z</time></trkpt><trkpt lat="44.4185645" lon="10.9026623"><ele>209.5</ele><time>2026-04-11T14:59:28.481Z</time></trkpt><trkpt lat="44.4185641" lon="10.9028152"><ele>209.0</ele><time>2026-04-11T14:59:29.455Z</time></trkpt><trkpt lat="44.4185629" lon="10.9029729"><ele>208.5</ele><time>2026-04-11T14:59:30.479Z</time></trkpt><trkpt lat="44.4185391" lon="10.9031561"><ele>208.0</ele><time>2026-04-11T14:59:31.45Z</time></trkpt><trkpt lat="44.4185117" lon="10.9033542"><ele>208.5</ele><time>2026-04-11T14:59:32.459Z</time></trkpt><trkpt lat="44.4184842" lon="10.9035532"><ele>209.0</ele><time>2026-04-11T14:59:33.464Z</time></trkpt><trkpt lat="44.4184565" lon="10.9037443"><ele>209.5</ele><time>2026-04-11T14:59:34.465Z</time></trkpt><trkpt lat="44.4184307" lon="10.9039239"><ele>210.0</ele><time>2026-04-11T14:59:35.458Z</time></trkpt><trkpt lat="44.4183914" lon="10.9040998"><ele>211.5</ele><time>2026-04-11T14:59:36.45Z</time></trkpt><trkpt lat="44.4183362" lon="10.9042719"><ele>213.0</ele><time>2026-04-11T14:59:37.454Z</time></trkpt><trkpt lat="44.4182697" lon="10.9044435"><ele>214.5</ele><time>2026-04-11T14:59:38.477Z</time></trkpt><trkpt lat="44.4182003" lon="10.9046073"><ele>216.0</ele><time>2026-04-11T14:59:39.479Z</time></trkpt><trkpt lat="44.4181356" lon="10.9047615"><ele>216.0</ele><time>2026-04-11T14:59:40.473Z</time></trkpt><trkpt lat="44.4180728" lon="10.9049092"><ele>216.0</ele><time>2026-04-11T14:59:41.465Z</time></trkpt><trkpt lat="44.4180119" lon="10.9050522"><ele>216.0</ele><time>2026-04-11T14:59:42.443Z</time></trkpt><trkpt lat="44.4179556" lon="10.9051894"><ele>216.0</ele><time>2026-04-11T14:59:43.456Z</time></trkpt><trkpt lat="44.4179081" lon="10.9053219"><ele>212.75</ele><time>2026-04-11T14:59:44.455Z</time></trkpt><trkpt lat="44.4178774" lon="10.9054675"><ele>209.5</ele><time>2026-04-11T14:59:45.534Z</time></trkpt><trkpt lat="44.4178626" lon="10.9056324"><ele>206.25</ele><time>2026-04-11T14:59:46.46Z</time></trkpt><trkpt lat="44.4178537" lon="10.9058005"><ele>203.0</ele><time>2026-04-11T14:59:47.46Z</time></trkpt><trkpt lat="44.4178453" lon="10.9059698"><ele>202.75</ele><time>2026-04-11T14:59:48.472Z</time></trkpt><trkpt lat="44.4178353" lon="10.906132"><ele>202.5</ele><time>2026-04-11T14:59:49.473Z</time></trkpt><trkpt lat="44.4178084" lon="10.9062841"><ele>202.25</ele><time>2026-04-11T14:59:50.45Z</time></trkpt><trkpt lat="44.417764" lon="10.9064266"><ele>202.0</ele><time>2026-04-11T14:59:51.511Z</time></trkpt><trkpt lat="44.4177046" lon="10.9065685"><ele>202.0</ele><time>2026-04-11T14:59:52.486Z</time></trkpt><trkpt lat="44.4176406" lon="10.9067232"><ele>202.0</ele><time>2026-04-11T14:59:53.457Z</time></trkpt><trkpt lat="44.4175859" lon="10.9069007"><ele>202.0</ele><time>2026-04-11T14:59:54.431Z</time></trkpt><trkpt lat="44.4175428" lon="10.9071044"><ele>202.0</ele><time>2026-04-11T14:59:55.461Z</time></trkpt><trkpt lat="44.4174994" lon="10.907317"><ele>203.0</ele><time>2026-04-11T14:59:56.469Z</time></trkpt><trkpt lat="44.4174658" lon="10.9075404"><ele>204.0</ele><time>2026-04-11T14:59:57.46Z</time></trkpt><trkpt lat="44.4174273" lon="10.9077449"><ele>205.0</ele><time>2026-04-11T14:59:58.465Z</time></trkpt><trkpt lat="44.4173923" lon="10.9079507"><ele>205.0</ele><time>2026-04-11T14:59:59.461Z</time></trkpt><trkpt lat="44.4173528" lon="10.9081343"><ele>205.0</ele><time>2026-04-11T15:00:00.456Z</time></trkpt><trkpt lat="44.4173176" lon="10.9082988"><ele>205.0</ele><time>2026-04-11T15:00:01.419Z</time></trkpt><trkpt lat="44.4172863" lon="10.9084405"><ele>205.0</ele><time>2026-04-11T15:00:02.468Z</time></trkpt><trkpt lat="44.4172726" lon="10.9085736"><ele>205.0</ele><time>2026-04-11T15:00:03.511Z</time></trkpt><trkpt lat="44.4172891" lon="10.9087123"><ele>205.0</ele><time>2026-04-11T15:00:04.461Z</time></trkpt><trkpt lat="44.4173289" lon="10.9088653"><ele>205.0</ele><time>2026-04-11T15:00:05.465Z</time></trkpt><trkpt lat="44.4173685" lon="10.9090221"><ele>205.0</ele><time>2026-04-11T15:00:06.454Z</time></trkpt><trkpt lat="44.4173832" lon="10.9091863"><ele>204.25</ele><time>2026-04-11T15:00:07.454Z</time></trkpt><trkpt lat="44.4173738" lon="10.9093699"><ele>203.5</ele><time>2026-04-11T15:00:08.45Z</time></trkpt><trkpt lat="44.4173479" lon="10.9095724"><ele>202.75</ele><time>2026-04-11T15:00:09.444Z</time></trkpt><trkpt lat="44.4173162" lon="10.9097998"><ele>202.0</ele><time>2026-04-11T15:00:10.469Z</time></trkpt><trkpt lat="44.4172855" lon="10.9100229"><ele>203.0</ele><time>2026-04-11T15:00:11.468Z</time></trkpt><trkpt lat="44.4172581" lon="10.9102377"><ele>204.0</ele><time>2026-04-11T15:00:12.458Z</time></trkpt><trkpt lat="44.4172313" lon="10.9104451"><ele>205.0</ele><time>2026-04-11T15:00:13.457Z</time></trkpt><trkpt lat="44.4172055" lon="10.9106448"><ele>205.0</ele><time>2026-04-11T15:00:14.466Z</time></trkpt><trkpt lat="44.4171805" lon="10.9108329"><ele>205.0</ele><time>2026-04-11T15:00:15.464Z</time></trkpt><trkpt lat="44.4171556" lon="10.9110049"><ele>205.0</ele><time>2026-04-11T15:00:16.464Z</time></trkpt><trkpt lat="44.4171228" lon="10.9111611"><ele>205.0</ele><time>2026-04-11T15:00:17.452Z</time></trkpt><trkpt lat="44.4170769" lon="10.9113025"><ele>202.8</ele><time>2026-04-11T15:00:18.473Z</time></trkpt><trkpt lat="44.4170175" lon="10.9114229"><ele>200.6</ele><time>2026-04-11T15:00:19.462Z</time></trkpt><trkpt lat="44.416943" lon="10.911527"><ele>198.39999999999998</ele><time>2026-04-11T15:00:20.455Z</time></trkpt><trkpt lat="44.4168679" lon="10.9116268"><ele>196.2</ele><time>2026-04-11T15:00:21.46Z</time></trkpt><trkpt lat="44.4168065" lon="10.9117374"><ele>194.0</ele><time>2026-04-11T15:00:22.466Z</time></trkpt><trkpt lat="44.4167635" lon="10.9118737"><ele>194.0</ele><time>2026-04-11T15:00:23.478Z</time></trkpt><trkpt lat="44.4167385" lon="10.9120347"><ele>194.0</ele><time>2026-04-11T15:00:24.468Z</time></trkpt><trkpt lat="44.4167278" lon="10.9122183"><ele>194.0</ele><time>2026-04-11T15:00:25.461Z</time></trkpt><trkpt lat="44.4167228" lon="10.9124162"><ele>194.0</ele><time>2026-04-11T15:00:26.521Z</time></trkpt><trkpt lat="44.4167185" lon="10.9126069"><ele>194.5</ele><time>2026-04-11T15:00:27.469Z</time></trkpt><trkpt lat="44.4167129" lon="10.9127844"><ele>195.0</ele><time>2026-04-11T15:00:28.465Z</time></trkpt><trkpt lat="44.4166991" lon="10.9129501"><ele>195.5</ele><time>2026-04-11T15:00:29.464Z</time></trkpt><trkpt lat="44.416669" lon="10.9131033"><ele>196.0</ele><time>2026-04-11T15:00:30.477Z</time></trkpt><trkpt lat="44.416624" lon="10.9132473"><ele>196.0</ele><time>2026-04-11T15:00:31.442Z</time></trkpt><trkpt lat="44.4165652" lon="10.9133907"><ele>196.0</ele><time>2026-04-11T15:00:32.446Z</time></trkpt><trkpt lat="44.4165045" lon="10.9135276"><ele>196.0</ele><time>2026-04-11T15:00:33.553Z</time></trkpt><trkpt lat="44.416444" lon="10.9136614"><ele>196.0</ele><time>2026-04-11T15:00:34.454Z</time></trkpt><trkpt lat="44.4163888" lon="10.9137901"><ele>196.20000000000002</ele><time>2026-04-11T15:00:35.442Z</time></trkpt><trkpt lat="44.4163448" lon="10.9139188"><ele>196.4</ele><time>2026-04-11T15:00:36.465Z</time></trkpt><trkpt lat="44.4163205" lon="10.9140542"><ele>196.6</ele><time>2026-04-11T15:00:37.472Z</time></trkpt><trkpt lat="44.4163144" lon="10.914193"><ele>196.8</ele><time>2026-04-11T15:00:38.452Z</time></trkpt><trkpt lat="44.4163213" lon="10.9143317"><ele>197.0</ele><time>2026-04-11T15:00:39.525Z</time></trkpt><trkpt lat="44.4163339" lon="10.9144694"><ele>197.00000000000003</ele><time>2026-04-11T15:00:40.469Z</time></trkpt><trkpt lat="44.4163479" lon="10.9146061"><ele>197.0</ele><time>2026-04-11T15:00:41.442Z</time></trkpt><trkpt lat="44.4163572" lon="10.9147362"><ele>197.0</ele><time>2026-04-11T15:00:42.47Z</time></trkpt><trkpt lat="44.416355" lon="10.9148604"><ele>197.0</ele><time>2026-04-11T15:00:43.462Z</time></trkpt><trkpt lat="44.4163414" lon="10.9149724"><ele>197.00000000000003</ele><time>2026-04-11T15:00:44.461Z</time></trkpt><trkpt lat="44.416319" lon="10.9150727"><ele>197.0</ele><time>2026-04-11T15:00:45.435Z</time></trkpt><trkpt lat="44.4162913" lon="10.9151642"><ele>194.66666666666669</ele><time>2026-04-11T15:00:46.462Z</time></trkpt><trkpt lat="44.4162609" lon="10.9152532"><ele>192.33333333333334</ele><time>2026-04-11T15:00:47.462Z</time></trkpt><trkpt lat="44.4162329" lon="10.9153402"><ele>190.0</ele><time>2026-04-11T15:00:48.461Z</time></trkpt><trkpt lat="44.4162081" lon="10.915422"><ele>187.66666666666669</ele><time>2026-04-11T15:00:49.468Z</time></trkpt><trkpt lat="44.4161766" lon="10.9155275"><ele>185.33333333333334</ele><time>2026-04-11T15:00:51.464Z</time></trkpt><trkpt lat="44.4161594" lon="10.9156355"><ele>183.0</ele><time>2026-04-11T15:00:54.429Z</time></trkpt><trkpt lat="44.4161241" lon="10.9158377"><ele>183.0</ele><time>2026-04-11T15:01:06.462Z</time></trkpt><trkpt lat="44.4161163" lon="10.915943"><ele>183.0</ele><time>2026-04-11T15:01:09.477Z</time></trkpt><trkpt lat="44.4161961" lon="10.9159542"><ele>183.0</ele><time>2026-04-11T15:01:13.465Z</time></trkpt><trkpt lat="44.4162629" lon="10.9159029"><ele>183.0</ele><time>2026-04-11T15:01:15.458Z</time></trkpt><trkpt lat="44.4163394" lon="10.915851"><ele>183.0</ele><time>2026-04-11T15:01:18.45Z</time></trkpt><trkpt lat="44.4164134" lon="10.9158576"><ele>183.0</ele><time>2026-04-11T15:01:21.48Z</time></trkpt><trkpt lat="44.4164495" lon="10.9159682"><ele>186.0</ele><time>2026-04-11T15:01:23.452Z</time></trkpt><trkpt lat="44.416473" lon="10.9161067"><ele>189.0</ele><time>2026-04-11T15:01:25.42Z</time></trkpt><trkpt lat="44.4165016" lon="10.9162175"><ele>192.0</ele><time>2026-04-11T15:01:27.439Z</time></trkpt><trkpt lat="44.416531" lon="10.916301"><ele>195.0</ele><time>2026-04-11T15:01:29.453Z</time></trkpt><trkpt lat="44.4165879" lon="10.9164123"><ele>198.0</ele><time>2026-04-11T15:01:34.452Z</time></trkpt><trkpt lat="44.4166138" lon="10.9165233"><ele>201.0</ele><time>2026-04-11T15:01:37.426Z</time></trkpt><trkpt lat="44.4166261" lon="10.9166373"><ele>202.0</ele><time>2026-04-11T15:01:40.424Z</time></trkpt><trkpt lat="44.4166353" lon="10.9167718"><ele>203.0</ele><time>2026-04-11T15:01:47.452Z</time></trkpt><trkpt lat="44.4166337" lon="10.9168809"><ele>204.0</ele><time>2026-04-11T15:01:51.464Z</time></trkpt><trkpt lat="44.4166363" lon="10.9169801"><ele>205.0</ele><time>2026-04-11T15:01:55.429Z</time></trkpt><trkpt lat="44.4166462" lon="10.9170899"><ele>206.0</ele><time>2026-04-11T15:01:58.464Z</time></trkpt><trkpt lat="44.4166552" lon="10.917186"><ele>207.0</ele><time>2026-04-11T15:02:00.482Z</time></trkpt><trkpt lat="44.4166562" lon="10.917281"><ele>207.0</ele><time>2026-04-11T15:02:02.453Z</time></trkpt><trkpt lat="44.4166608" lon="10.917426"><ele>207.0</ele><time>2026-04-11T15:02:04.44Z</time></trkpt><trkpt lat="44.4166712" lon="10.9175894"><ele>207.0</ele><time>2026-04-11T15:02:06.465Z</time></trkpt><trkpt lat="44.4166761" lon="10.9176803"><ele>207.0</ele><time>2026-04-11T15:02:07.469Z</time></trkpt><trkpt lat="44.4166802" lon="10.9177801"><ele>207.0</ele><time>2026-04-11T15:02:08.471Z</time></trkpt><trkpt lat="44.4166896" lon="10.9178674"><ele>207.0</ele><time>2026-04-11T15:02:09.47Z</time></trkpt><trkpt lat="44.4167033" lon="10.9179554"><ele>207.5</ele><time>2026-04-11T15:02:10.458Z</time></trkpt><trkpt lat="44.4167233" lon="10.9180518"><ele>208.0</ele><time>2026-04-11T15:02:11.473Z</time></trkpt><trkpt lat="44.4167441" lon="10.9181533"><ele>208.5</ele><time>2026-04-11T15:02:12.466Z</time></trkpt><trkpt lat="44.4167635" lon="10.9182572"><ele>209.0</ele><time>2026-04-11T15:02:13.458Z</time></trkpt><trkpt lat="44.4167833" lon="10.9183637"><ele>209.5</ele><time>2026-04-11T15:02:14.461Z</time></trkpt><trkpt lat="44.4167979" lon="10.9184566"><ele>210.0</ele><time>2026-04-11T15:02:15.477Z</time></trkpt><trkpt lat="44.4168453" lon="10.9185873"><ele>210.0</ele><time>2026-04-11T15:02:17.461Z</time></trkpt><trkpt lat="44.4169018" lon="10.9186354"><ele>210.0</ele><time>2026-04-11T15:02:19.476Z</time></trkpt><trkpt lat="44.4169663" lon="10.9185959"><ele>210.0</ele><time>2026-04-11T15:02:54.481Z</time></trkpt><trkpt lat="44.4170437" lon="10.9185568"><ele>210.0</ele><time>2026-04-11T15:02:56.455Z</time></trkpt><trkpt lat="44.4171374" lon="10.9185282"><ele>210.0</ele><time>2026-04-11T15:02:58.464Z</time></trkpt><trkpt lat="44.4172621" lon="10.9185201"><ele>210.0</ele><time>2026-04-11T15:03:00.478Z</time></trkpt><trkpt lat="44.4173328" lon="10.9185087"><ele>211.66666666666666</ele><time>2026-04-11T15:03:01.454Z</time></trkpt><trkpt lat="44.4174121" lon="10.9184929"><ele>213.33333333333331</ele><time>2026-04-11T15:03:02.452Z</time></trkpt><trkpt lat="44.417494" lon="10.9184621"><ele>215.0</ele><time>2026-04-11T15:03:03.466Z</time></trkpt><trkpt lat="44.4175741" lon="10.9184208"><ele>216.66666666666666</ele><time>2026-04-11T15:03:04.459Z</time></trkpt><trkpt lat="44.4176585" lon="10.9183777"><ele>218.33333333333331</ele><time>2026-04-11T15:03:05.446Z</time></trkpt><trkpt lat="44.4177394" lon="10.9183407"><ele>220.0</ele><time>2026-04-11T15:03:06.445Z</time></trkpt><trkpt lat="44.4178074" lon="10.9183118"><ele>223.6</ele><time>2026-04-11T15:03:07.464Z</time></trkpt><trkpt lat="44.4179223" lon="10.9182552"><ele>227.2</ele><time>2026-04-11T15:03:09.465Z</time></trkpt><trkpt lat="44.4180151" lon="10.918197"><ele>230.8</ele><time>2026-04-11T15:03:11.457Z</time></trkpt><trkpt lat="44.4181144" lon="10.918079"><ele>234.4</ele><time>2026-04-11T15:03:13.458Z</time></trkpt><trkpt lat="44.4181537" lon="10.9180016"><ele>238.0</ele><time>2026-04-11T15:03:14.441Z</time></trkpt><trkpt lat="44.418191" lon="10.9179204"><ele>240.2</ele><time>2026-04-11T15:03:15.46Z</time></trkpt><trkpt lat="44.418214" lon="10.9178208"><ele>242.4</ele><time>2026-04-11T15:03:16.466Z</time></trkpt><trkpt lat="44.4182616" lon="10.9177257"><ele>244.59999999999997</ele><time>2026-04-11T15:03:17.467Z</time></trkpt><trkpt lat="44.4183161" lon="10.917626"><ele>246.79999999999998</ele><time>2026-04-11T15:03:18.509Z</time></trkpt><trkpt lat="44.41839" lon="10.9175138"><ele>249.0</ele><time>2026-04-11T15:03:19.465Z</time></trkpt><trkpt lat="44.4184661" lon="10.9174042"><ele>251.39999999999998</ele><time>2026-04-11T15:03:20.469Z</time></trkpt><trkpt lat="44.4185468" lon="10.9172991"><ele>253.79999999999998</ele><time>2026-04-11T15:03:21.462Z</time></trkpt><trkpt lat="44.4186146" lon="10.9172067"><ele>256.20000000000005</ele><time>2026-04-11T15:03:22.479Z</time></trkpt><trkpt lat="44.4186743" lon="10.9171305"><ele>258.6</ele><time>2026-04-11T15:03:23.465Z</time></trkpt><trkpt lat="44.418731" lon="10.9170676"><ele>261.0</ele><time>2026-04-11T15:03:24.46Z</time></trkpt><trkpt lat="44.4188207" lon="10.9169461"><ele>263.1666666666667</ele><time>2026-04-11T15:03:26.482Z</time></trkpt><trkpt lat="44.4188785" lon="10.9168888"><ele>265.3333333333333</ele><time>2026-04-11T15:03:27.466Z</time></trkpt><trkpt lat="44.4189307" lon="10.9168273"><ele>267.5</ele><time>2026-04-11T15:03:28.477Z</time></trkpt><trkpt lat="44.4189891" lon="10.9166749"><ele>269.66666666666663</ele><time>2026-04-11T15:03:30.455Z</time></trkpt><trkpt lat="44.4190129" lon="10.9165912"><ele>271.8333333333333</ele><time>2026-04-11T15:03:31.474Z</time></trkpt><trkpt lat="44.4190582" lon="10.9164817"><ele>274.0</ele><time>2026-04-11T15:03:33.454Z</time></trkpt><trkpt lat="44.4191166" lon="10.9163916"><ele>277.4</ele><time>2026-04-11T15:06:08.477Z</time></trkpt><trkpt lat="44.4191722" lon="10.9162888"><ele>280.79999999999995</ele><time>2026-04-11T15:06:10.438Z</time></trkpt><trkpt lat="44.4192152" lon="10.9162235"><ele>284.20000000000005</ele><time>2026-04-11T15:06:11.46Z</time></trkpt><trkpt lat="44.4192612" lon="10.9161586"><ele>287.6</ele><time>2026-04-11T15:06:12.464Z</time></trkpt><trkpt lat="44.4193455" lon="10.9160516"><ele>291.0</ele><time>2026-04-11T15:06:14.462Z</time></trkpt><trkpt lat="44.4194481" lon="10.9159308"><ele>291.6</ele><time>2026-04-11T15:06:16.458Z</time></trkpt><trkpt lat="44.419531" lon="10.9158278"><ele>292.20000000000005</ele><time>2026-04-11T15:06:18.447Z</time></trkpt><trkpt lat="44.419608" lon="10.9157103"><ele>292.79999999999995</ele><time>2026-04-11T15:06:20.472Z</time></trkpt><trkpt lat="44.4196761" lon="10.915678"><ele>293.4</ele><time>2026-04-11T15:06:21.469Z</time></trkpt><trkpt lat="44.4197629" lon="10.9156498"><ele>294.0</ele><time>2026-04-11T15:06:22.491Z</time></trkpt><trkpt lat="44.4198667" lon="10.9156336"><ele>297.8333333333333</ele><time>2026-04-11T15:06:24.471Z</time></trkpt><trkpt lat="44.4199517" lon="10.9156157"><ele>301.6666666666667</ele><time>2026-04-11T15:06:26.48Z</time></trkpt><trkpt lat="44.4200293" lon="10.9156386"><ele>305.5</ele><time>2026-04-11T15:06:29.48Z</time></trkpt><trkpt lat="44.420105" lon="10.9156678"><ele>309.33333333333337</ele><time>2026-04-11T15:07:30.464Z</time></trkpt><trkpt lat="44.4202171" lon="10.9156232"><ele>313.1666666666667</ele><time>2026-04-11T15:07:32.449Z</time></trkpt><trkpt lat="44.4203005" lon="10.9156105"><ele>317.0</ele><time>2026-04-11T15:07:33.471Z</time></trkpt><trkpt lat="44.4203999" lon="10.9156145"><ele>321.5</ele><time>2026-04-11T15:07:34.417Z</time></trkpt><trkpt lat="44.4205077" lon="10.9156335"><ele>326.0</ele><time>2026-04-11T15:07:35.45Z</time></trkpt><trkpt lat="44.4206162" lon="10.9156536"><ele>330.5</ele><time>2026-04-11T15:07:36.467Z</time></trkpt><trkpt lat="44.4207345" lon="10.9156688"><ele>335.0</ele><time>2026-04-11T15:07:37.571Z</time></trkpt><trkpt lat="44.4209485" lon="10.9156613"><ele>335.0</ele><time>2026-04-11T15:07:39.471Z</time></trkpt><trkpt lat="44.4210283" lon="10.9156523"><ele>335.0</ele><time>2026-04-11T15:07:40.457Z</time></trkpt><trkpt lat="44.4211493" lon="10.9156102"><ele>335.0</ele><time>2026-04-11T15:07:42.438Z</time></trkpt><trkpt lat="44.4212067" lon="10.9155228"><ele>335.0</ele><time>2026-04-11T15:07:43.439Z</time></trkpt><trkpt lat="44.4212639" lon="10.9154035"><ele>335.0</ele><time>2026-04-11T15:07:44.466Z</time></trkpt><trkpt lat="44.4213221" lon="10.9152845"><ele>335.6666666666667</ele><time>2026-04-11T15:07:45.467Z</time></trkpt><trkpt lat="44.4213612" lon="10.9151658"><ele>336.33333333333337</ele><time>2026-04-11T15:07:46.465Z</time></trkpt><trkpt lat="44.4213956" lon="10.9150405"><ele>337.0</ele><time>2026-04-11T15:07:47.463Z</time></trkpt><trkpt lat="44.4214258" lon="10.9149209"><ele>337.6666666666667</ele><time>2026-04-11T15:07:48.515Z</time></trkpt><trkpt lat="44.4214345" lon="10.9148105"><ele>338.3333333333333</ele><time>2026-04-11T15:07:49.471Z</time></trkpt><trkpt lat="44.4214505" lon="10.9147132"><ele>339.0</ele><time>2026-04-11T15:07:50.438Z</time></trkpt><trkpt lat="44.4214826" lon="10.9146159"><ele>340.4</ele><time>2026-04-11T15:07:51.468Z</time></trkpt><trkpt lat="44.4215277" lon="10.9145223"><ele>341.79999999999995</ele><time>2026-04-11T15:07:52.442Z</time></trkpt><trkpt lat="44.4215868" lon="10.914429"><ele>343.20000000000005</ele><time>2026-04-11T15:07:53.454Z</time></trkpt><trkpt lat="44.4216577" lon="10.9143335"><ele>344.6</ele><time>2026-04-11T15:07:54.458Z</time></trkpt><trkpt lat="44.4217353" lon="10.9142294"><ele>346.0</ele><time>2026-04-11T15:07:55.474Z</time></trkpt><trkpt lat="44.4218126" lon="10.9141206"><ele>347.3333333333333</ele><time>2026-04-11T15:07:56.434Z</time></trkpt><trkpt lat="44.4218764" lon="10.9140283"><ele>348.66666666666663</ele><time>2026-04-11T15:07:57.466Z</time></trkpt><trkpt lat="44.421924" lon="10.9139282"><ele>350.0</ele><time>2026-04-11T15:07:58.469Z</time></trkpt><trkpt lat="44.4219615" lon="10.9138066"><ele>351.3333333333333</ele><time>2026-04-11T15:07:59.477Z</time></trkpt><trkpt lat="44.421991" lon="10.9136981"><ele>352.6666666666667</ele><time>2026-04-11T15:08:00.447Z</time></trkpt><trkpt lat="44.4220136" lon="10.9135981"><ele>354.0</ele><time>2026-04-11T15:08:01.459Z</time></trkpt><trkpt lat="44.4220341" lon="10.9135054"><ele>353.79999999999995</ele><time>2026-04-11T15:08:02.452Z</time></trkpt><trkpt lat="44.4221068" lon="10.9133573"><ele>353.59999999999997</ele><time>2026-04-11T15:08:04.488Z</time></trkpt><trkpt lat="44.4221771" lon="10.9132808"><ele>353.4</ele><time>2026-04-11T15:08:05.449Z</time></trkpt><trkpt lat="44.4222594" lon="10.9132071"><ele>353.2</ele><time>2026-04-11T15:08:06.469Z</time></trkpt><trkpt lat="44.4223464" lon="10.9131451"><ele>353.0</ele><time>2026-04-11T15:08:07.474Z</time></trkpt><trkpt lat="44.4224308" lon="10.9130923"><ele>355.6666666666667</ele><time>2026-04-11T15:08:08.459Z</time></trkpt><trkpt lat="44.4225043" lon="10.9130433"><ele>358.33333333333337</ele><time>2026-04-11T15:08:09.463Z</time></trkpt><trkpt lat="44.4225695" lon="10.9129979"><ele>361.0</ele><time>2026-04-11T15:08:10.475Z</time></trkpt><trkpt lat="44.4226192" lon="10.9129428"><ele>363.6666666666667</ele><time>2026-04-11T15:08:11.52Z</time></trkpt><trkpt lat="44.4226779" lon="10.9128685"><ele>366.3333333333333</ele><time>2026-04-11T15:08:12.462Z</time></trkpt><trkpt lat="44.4227526" lon="10.9127689"><ele>369.0</ele><time>2026-04-11T15:08:13.459Z</time></trkpt><trkpt lat="44.4228353" lon="10.9126538"><ele>370.25</ele><time>2026-04-11T15:08:14.465Z</time></trkpt><trkpt lat="44.4229337" lon="10.9125217"><ele>371.5</ele><time>2026-04-11T15:08:15.431Z</time></trkpt><trkpt lat="44.4230302" lon="10.9123934"><ele>372.75</ele><time>2026-04-11T15:08:16.461Z</time></trkpt><trkpt lat="44.4231105" lon="10.9122879"><ele>374.0</ele><time>2026-04-11T15:08:17.455Z</time></trkpt><trkpt lat="44.4231915" lon="10.9121877"><ele>376.2</ele><time>2026-04-11T15:08:18.46Z</time></trkpt><trkpt lat="44.4232691" lon="10.9120987"><ele>378.4</ele><time>2026-04-11T15:08:19.436Z</time></trkpt><trkpt lat="44.4233432" lon="10.912017"><ele>380.6</ele><time>2026-04-11T15:08:20.423Z</time></trkpt><trkpt lat="44.4234199" lon="10.9119298"><ele>382.8</ele><time>2026-04-11T15:08:21.467Z</time></trkpt><trkpt lat="44.423512" lon="10.9118289"><ele>385.0</ele><time>2026-04-11T15:08:22.422Z</time></trkpt><trkpt lat="44.4236135" lon="10.9117289"><ele>386.4</ele><time>2026-04-11T15:08:23.422Z</time></trkpt><trkpt lat="44.4237056" lon="10.9116392"><ele>387.8</ele><time>2026-04-11T15:08:24.419Z</time></trkpt><trkpt lat="44.4237939" lon="10.9115825"><ele>389.20000000000005</ele><time>2026-04-11T15:08:25.454Z</time></trkpt><trkpt lat="44.4238858" lon="10.911534"><ele>390.6</ele><time>2026-04-11T15:08:26.449Z</time></trkpt><trkpt lat="44.4239716" lon="10.911487"><ele>392.0</ele><time>2026-04-11T15:08:27.456Z</time></trkpt><trkpt lat="44.4240506" lon="10.9114314"><ele>393.49999999999994</ele><time>2026-04-11T15:08:28.446Z</time></trkpt><trkpt lat="44.424136" lon="10.9113554"><ele>395.0</ele><time>2026-04-11T15:08:29.478Z</time></trkpt><trkpt lat="44.4242167" lon="10.9112779"><ele>396.5</ele><time>2026-04-11T15:08:30.45Z</time></trkpt><trkpt lat="44.424289" lon="10.911209"><ele>398.0</ele><time>2026-04-11T15:08:31.462Z</time></trkpt><trkpt lat="44.4243579" lon="10.9111517"><ele>399.49999999999994</ele><time>2026-04-11T15:08:32.461Z</time></trkpt><trkpt lat="44.4244268" lon="10.9111046"><ele>401.0</ele><time>2026-04-11T15:08:33.451Z</time></trkpt><trkpt lat="44.4244962" lon="10.911069"><ele>400.99999999999994</ele><time>2026-04-11T15:08:34.446Z</time></trkpt><trkpt lat="44.424572" lon="10.9110401"><ele>401.0</ele><time>2026-04-11T15:08:35.46Z</time></trkpt><trkpt lat="44.4246556" lon="10.9110115"><ele>401.0</ele><time>2026-04-11T15:08:36.513Z</time></trkpt><trkpt lat="44.4247484" lon="10.9109797"><ele>401.0</ele><time>2026-04-11T15:08:37.46Z</time></trkpt><trkpt lat="44.4248382" lon="10.9109498"><ele>400.99999999999994</ele><time>2026-04-11T15:08:38.448Z</time></trkpt><trkpt lat="44.424922" lon="10.9109212"><ele>401.0</ele><time>2026-04-11T15:08:39.476Z</time></trkpt><trkpt lat="44.4250078" lon="10.9108927"><ele>402.4</ele><time>2026-04-11T15:08:40.472Z</time></trkpt><trkpt lat="44.4251002" lon="10.9108712"><ele>403.8</ele><time>2026-04-11T15:08:41.472Z</time></trkpt><trkpt lat="44.4251987" lon="10.9108595"><ele>405.2</ele><time>2026-04-11T15:08:42.506Z</time></trkpt><trkpt lat="44.4252994" lon="10.9108503"><ele>406.59999999999997</ele><time>2026-04-11T15:08:43.477Z</time></trkpt><trkpt lat="44.4253905" lon="10.9108428"><ele>408.0</ele><time>2026-04-11T15:08:44.473Z</time></trkpt><trkpt lat="44.4254709" lon="10.9108308"><ele>408.0</ele><time>2026-04-11T15:08:45.483Z</time></trkpt><trkpt lat="44.4255437" lon="10.9108063"><ele>408.0</ele><time>2026-04-11T15:08:46.472Z</time></trkpt><trkpt lat="44.4256169" lon="10.9107638"><ele>408.0</ele><time>2026-04-11T15:08:47.479Z</time></trkpt><trkpt lat="44.4256978" lon="10.9107151"><ele>408.0</ele><time>2026-04-11T15:08:48.474Z</time></trkpt><trkpt lat="44.4258028" lon="10.9106219"><ele>408.0</ele><time>2026-04-11T15:08:49.486Z</time></trkpt><trkpt lat="44.425915" lon="10.9105265"><ele>408.0</ele><time>2026-04-11T15:08:50.466Z</time></trkpt><trkpt lat="44.426024" lon="10.910425"><ele>408.0</ele><time>2026-04-11T15:08:51.432Z</time></trkpt><trkpt lat="44.4261382" lon="10.9103046"><ele>408.0</ele><time>2026-04-11T15:08:52.476Z</time></trkpt><trkpt lat="44.4262442" lon="10.9101823"><ele>408.0</ele><time>2026-04-11T15:08:53.435Z</time></trkpt><trkpt lat="44.4263451" lon="10.9100654"><ele>410.4</ele><time>2026-04-11T15:08:54.444Z</time></trkpt><trkpt lat="44.4264415" lon="10.9099603"><ele>412.79999999999995</ele><time>2026-04-11T15:08:55.457Z</time></trkpt><trkpt lat="44.4265349" lon="10.9098629"><ele>415.2</ele><time>2026-04-11T15:08:56.478Z</time></trkpt><trkpt lat="44.426612" lon="10.909782"><ele>417.6</ele><time>2026-04-11T15:08:57.451Z</time></trkpt><trkpt lat="44.4266799" lon="10.909711"><ele>420.0</ele><time>2026-04-11T15:08:58.464Z</time></trkpt><trkpt lat="44.4267335" lon="10.9096513"><ele>420.0</ele><time>2026-04-11T15:08:59.494Z</time></trkpt><trkpt lat="44.4267816" lon="10.9095852"><ele>420.0</ele><time>2026-04-11T15:09:00.518Z</time></trkpt><trkpt lat="44.4268637" lon="10.9094681"><ele>420.0</ele><time>2026-04-11T15:09:02.445Z</time></trkpt><trkpt lat="44.4269431" lon="10.9093544"><ele>420.0</ele><time>2026-04-11T15:09:04.482Z</time></trkpt><trkpt lat="44.4269872" lon="10.9092902"><ele>420.0</ele><time>2026-04-11T15:09:05.467Z</time></trkpt><trkpt lat="44.4270392" lon="10.9092205"><ele>420.0</ele><time>2026-04-11T15:09:06.498Z</time></trkpt><trkpt lat="44.4270975" lon="10.9091479"><ele>419.0</ele><time>2026-04-11T15:09:07.461Z</time></trkpt><trkpt lat="44.4271629" lon="10.9090712"><ele>418.0</ele><time>2026-04-11T15:09:08.472Z</time></trkpt><trkpt lat="44.4272323" lon="10.9089927"><ele>417.0</ele><time>2026-04-11T15:09:09.471Z</time></trkpt><trkpt lat="44.4273035" lon="10.9089127"><ele>416.0</ele><time>2026-04-11T15:09:10.489Z</time></trkpt><trkpt lat="44.4273726" lon="10.9088317"><ele>415.0</ele><time>2026-04-11T15:09:11.462Z</time></trkpt><trkpt lat="44.4274351" lon="10.9087479"><ele>414.0</ele><time>2026-04-11T15:09:12.513Z</time></trkpt><trkpt lat="44.4274872" lon="10.9086594"><ele>414.0</ele><time>2026-04-11T15:09:13.482Z</time></trkpt><trkpt lat="44.4275327" lon="10.9085473"><ele>414.0</ele><time>2026-04-11T15:09:14.47Z</time></trkpt><trkpt lat="44.4275819" lon="10.9084084"><ele>414.0</ele><time>2026-04-11T15:09:15.478Z</time></trkpt><trkpt lat="44.4276339" lon="10.9082592"><ele>414.0</ele><time>2026-04-11T15:09:16.462Z</time></trkpt><trkpt lat="44.4276809" lon="10.9081205"><ele>414.0</ele><time>2026-04-11T15:09:17.483Z</time></trkpt><trkpt lat="44.427716" lon="10.907979"><ele>413.5</ele><time>2026-04-11T15:09:18.476Z</time></trkpt><trkpt lat="44.4277409" lon="10.907835"><ele>413.0</ele><time>2026-04-11T15:09:19.478Z</time></trkpt><trkpt lat="44.427763" lon="10.9076855"><ele>412.5</ele><time>2026-04-11T15:09:20.456Z</time></trkpt><trkpt lat="44.4277681" lon="10.907515"><ele>412.0</ele><time>2026-04-11T15:09:21.464Z</time></trkpt><trkpt lat="44.4277662" lon="10.9073434"><ele>413.0</ele><time>2026-04-11T15:09:22.46Z</time></trkpt><trkpt lat="44.4277612" lon="10.907171"><ele>414.0</ele><time>2026-04-11T15:09:23.478Z</time></trkpt><trkpt lat="44.4277537" lon="10.9069991"><ele>415.0</ele><time>2026-04-11T15:09:24.565Z</time></trkpt><trkpt lat="44.4277404" lon="10.9068272"><ele>416.0</ele><time>2026-04-11T15:09:25.471Z</time></trkpt><trkpt lat="44.4277288" lon="10.9066717"><ele>417.49999999999994</ele><time>2026-04-11T15:09:26.469Z</time></trkpt><trkpt lat="44.4277143" lon="10.9065368"><ele>419.0</ele><time>2026-04-11T15:09:27.48Z</time></trkpt><trkpt lat="44.4277074" lon="10.9064252"><ele>420.5</ele><time>2026-04-11T15:09:28.464Z</time></trkpt><trkpt lat="44.4277159" lon="10.9063091"><ele>422.0</ele><time>2026-04-11T15:09:29.481Z</time></trkpt><trkpt lat="44.4277403" lon="10.906196"><ele>423.49999999999994</ele><time>2026-04-11T15:09:30.455Z</time></trkpt><trkpt lat="44.4277828" lon="10.9060828"><ele>425.0</ele><time>2026-04-11T15:09:31.464Z</time></trkpt><trkpt lat="44.4278449" lon="10.9059524"><ele>426.5</ele><time>2026-04-11T15:09:32.482Z</time></trkpt><trkpt lat="44.4279209" lon="10.9058045"><ele>428.0</ele><time>2026-04-11T15:09:33.48Z</time></trkpt><trkpt lat="44.4279929" lon="10.9056646"><ele>429.5</ele><time>2026-04-11T15:09:34.462Z</time></trkpt><trkpt lat="44.4280629" lon="10.9055412"><ele>431.0</ele><time>2026-04-11T15:09:35.505Z</time></trkpt><trkpt lat="44.4281251" lon="10.9054411"><ele>431.49999999999994</ele><time>2026-04-11T15:09:36.472Z</time></trkpt><trkpt lat="44.428185" lon="10.9053628"><ele>432.0</ele><time>2026-04-11T15:09:37.495Z</time></trkpt><trkpt lat="44.4282462" lon="10.9053019"><ele>432.5</ele><time>2026-04-11T15:09:38.477Z</time></trkpt><trkpt lat="44.4283126" lon="10.905239"><ele>433.0</ele><time>2026-04-11T15:09:39.498Z</time></trkpt><trkpt lat="44.4283784" lon="10.9051581"><ele>433.49999999999994</ele><time>2026-04-11T15:09:40.476Z</time></trkpt><trkpt lat="44.4284393" lon="10.9050626"><ele>434.0</ele><time>2026-04-11T15:09:41.464Z</time></trkpt><trkpt lat="44.4284913" lon="10.9049661"><ele>436.2</ele><time>2026-04-11T15:09:42.46Z</time></trkpt><trkpt lat="44.4285429" lon="10.9048617"><ele>438.4</ele><time>2026-04-11T15:09:43.491Z</time></trkpt><trkpt lat="44.4285996" lon="10.9047463"><ele>440.6</ele><time>2026-04-11T15:09:44.486Z</time></trkpt><trkpt lat="44.4286503" lon="10.9046288"><ele>442.8</ele><time>2026-04-11T15:09:45.492Z</time></trkpt><trkpt lat="44.4286946" lon="10.9045032"><ele>445.0</ele><time>2026-04-11T15:09:46.462Z</time></trkpt><trkpt lat="44.4287339" lon="10.9043641"><ele>445.2</ele><time>2026-04-11T15:09:47.457Z</time></trkpt><trkpt lat="44.4287632" lon="10.904203"><ele>445.4</ele><time>2026-04-11T15:09:48.475Z</time></trkpt><trkpt lat="44.428787" lon="10.9040412"><ele>445.6</ele><time>2026-04-11T15:09:49.498Z</time></trkpt><trkpt lat="44.4288104" lon="10.9038954"><ele>445.8</ele><time>2026-04-11T15:09:50.48Z</time></trkpt><trkpt lat="44.4288388" lon="10.903768"><ele>446.0</ele><time>2026-04-11T15:09:51.454Z</time></trkpt><trkpt lat="44.4288749" lon="10.9036453"><ele>446.4</ele><time>2026-04-11T15:09:52.518Z</time></trkpt><trkpt lat="44.4289199" lon="10.9035221"><ele>446.8</ele><time>2026-04-11T15:09:53.466Z</time></trkpt><trkpt lat="44.4289758" lon="10.9033824"><ele>447.19999999999993</ele><time>2026-04-11T15:09:54.413Z</time></trkpt><trkpt lat="44.4290307" lon="10.9032428"><ele>447.59999999999997</ele><time>2026-04-11T15:09:55.411Z</time></trkpt><trkpt lat="44.4290792" lon="10.9031136"><ele>448.0</ele><time>2026-04-11T15:09:56.419Z</time></trkpt><trkpt lat="44.4291228" lon="10.9029971"><ele>448.00000000000006</ele><time>2026-04-11T15:09:57.485Z</time></trkpt><trkpt lat="44.4291628" lon="10.9028941"><ele>448.0</ele><time>2026-04-11T15:09:58.477Z</time></trkpt><trkpt lat="44.429204" lon="10.9028085"><ele>448.0</ele><time>2026-04-11T15:09:59.451Z</time></trkpt><trkpt lat="44.4292525" lon="10.9027388"><ele>448.0</ele><time>2026-04-11T15:10:00.499Z</time></trkpt><trkpt lat="44.4293084" lon="10.9026875"><ele>448.00000000000006</ele><time>2026-04-11T15:10:01.478Z</time></trkpt><trkpt lat="44.4294139" lon="10.9026073"><ele>448.0</ele><time>2026-04-11T15:10:03.468Z</time></trkpt><trkpt lat="44.4294784" lon="10.9024972"><ele>448.33333333333337</ele><time>2026-04-11T15:10:05.473Z</time></trkpt><trkpt lat="44.4295064" lon="10.902378"><ele>448.6666666666667</ele><time>2026-04-11T15:10:07.472Z</time></trkpt><trkpt lat="44.4295006" lon="10.902256"><ele>449.0</ele><time>2026-04-11T15:10:09.476Z</time></trkpt><trkpt lat="44.4294988" lon="10.9021439"><ele>449.33333333333337</ele><time>2026-04-11T15:10:11.441Z</time></trkpt><trkpt lat="44.4295388" lon="10.9019957"><ele>449.6666666666667</ele><time>2026-04-11T15:10:13.465Z</time></trkpt><trkpt lat="44.4295703" lon="10.9019172"><ele>450.0</ele><time>2026-04-11T15:10:14.42Z</time></trkpt><trkpt lat="44.4296048" lon="10.9018244"><ele>449.6</ele><time>2026-04-11T15:10:15.476Z</time></trkpt><trkpt lat="44.4296319" lon="10.9017232"><ele>449.2</ele><time>2026-04-11T15:10:16.493Z</time></trkpt><trkpt lat="44.4296614" lon="10.9016114"><ele>448.79999999999995</ele><time>2026-04-11T15:10:17.477Z</time></trkpt><trkpt lat="44.4296914" lon="10.9014927"><ele>448.4</ele><time>2026-04-11T15:10:18.441Z</time></trkpt><trkpt lat="44.4297207" lon="10.9013699"><ele>448.0</ele><time>2026-04-11T15:10:19.461Z</time></trkpt><trkpt lat="44.4297556" lon="10.901229"><ele>448.0</ele><time>2026-04-11T15:10:20.453Z</time></trkpt><trkpt lat="44.4297965" lon="10.9010594"><ele>448.0</ele><time>2026-04-11T15:10:21.454Z</time></trkpt><trkpt lat="44.4298445" lon="10.9008702"><ele>448.0</ele><time>2026-04-11T15:10:22.463Z</time></trkpt><trkpt lat="44.4298958" lon="10.9006758"><ele>448.0</ele><time>2026-04-11T15:10:23.494Z</time></trkpt><trkpt lat="44.4299489" lon="10.9004634"><ele>450.0</ele><time>2026-04-11T15:10:24.469Z</time></trkpt><trkpt lat="44.4300041" lon="10.9002331"><ele>452.0</ele><time>2026-04-11T15:10:25.49Z</time></trkpt><trkpt lat="44.4300605" lon="10.8999997"><ele>454.0</ele><time>2026-04-11T15:10:26.496Z</time></trkpt><trkpt lat="44.4301181" lon="10.8997729"><ele>456.0</ele><time>2026-04-11T15:10:27.477Z</time></trkpt><trkpt lat="44.4301779" lon="10.8995511"><ele>458.0</ele><time>2026-04-11T15:10:28.487Z</time></trkpt><trkpt lat="44.4302453" lon="10.8993301"><ele>460.0</ele><time>2026-04-11T15:10:29.468Z</time></trkpt><trkpt lat="44.4303236" lon="10.8991066"><ele>461.33333333333337</ele><time>2026-04-11T15:10:30.478Z</time></trkpt><trkpt lat="44.4304134" lon="10.8988728"><ele>462.66666666666663</ele><time>2026-04-11T15:10:31.461Z</time></trkpt><trkpt lat="44.4305104" lon="10.8986243"><ele>464.0</ele><time>2026-04-11T15:10:32.484Z</time></trkpt><trkpt lat="44.4306114" lon="10.8983616"><ele>468.3333333333333</ele><time>2026-04-11T15:10:33.485Z</time></trkpt><trkpt lat="44.4307059" lon="10.8981122"><ele>472.66666666666663</ele><time>2026-04-11T15:10:34.464Z</time></trkpt><trkpt lat="44.4307927" lon="10.8978819"><ele>477.0</ele><time>2026-04-11T15:10:35.465Z</time></trkpt><trkpt lat="44.4308793" lon="10.8976528"><ele>480.0</ele><time>2026-04-11T15:10:36.47Z</time></trkpt><trkpt lat="44.430966" lon="10.8974204"><ele>483.0</ele><time>2026-04-11T15:10:37.462Z</time></trkpt><trkpt lat="44.4310455" lon="10.8971993"><ele>486.0</ele><time>2026-04-11T15:10:38.46Z</time></trkpt><trkpt lat="44.4311183" lon="10.8969871"><ele>486.0</ele><time>2026-04-11T15:10:39.454Z</time></trkpt><trkpt lat="44.4311849" lon="10.8967851"><ele>486.0</ele><time>2026-04-11T15:10:40.49Z</time></trkpt><trkpt lat="44.4312513" lon="10.8965842"><ele>486.0</ele><time>2026-04-11T15:10:41.466Z</time></trkpt><trkpt lat="44.4313155" lon="10.896392"><ele>489.20000000000005</ele><time>2026-04-11T15:10:42.461Z</time></trkpt><trkpt lat="44.4313731" lon="10.8962242"><ele>492.40000000000003</ele><time>2026-04-11T15:10:43.449Z</time></trkpt><trkpt lat="44.4314234" lon="10.8960791"><ele>495.6</ele><time>2026-04-11T15:10:44.467Z</time></trkpt><trkpt lat="44.4314662" lon="10.8959588"><ele>498.8</ele><time>2026-04-11T15:10:45.442Z</time></trkpt><trkpt lat="44.4315016" lon="10.8958618"><ele>502.0</ele><time>2026-04-11T15:10:46.45Z</time></trkpt><trkpt lat="44.4315301" lon="10.8957828"><ele>502.0</ele><time>2026-04-11T15:10:47.465Z</time></trkpt><trkpt lat="44.4315819" lon="10.895692"><ele>502.00000000000006</ele><time>2026-04-11T15:10:49.466Z</time></trkpt><trkpt lat="44.4316696" lon="10.8956774"><ele>502.00000000000006</ele><time>2026-04-11T15:10:51.425Z</time></trkpt><trkpt lat="44.4317611" lon="10.8957625"><ele>502.0</ele><time>2026-04-11T15:10:53.459Z</time></trkpt><trkpt lat="44.4318233" lon="10.8958444"><ele>502.0</ele><time>2026-04-11T15:10:54.464Z</time></trkpt><trkpt lat="44.4319037" lon="10.8959297"><ele>502.0</ele><time>2026-04-11T15:10:55.456Z</time></trkpt><trkpt lat="44.4319986" lon="10.8960058"><ele>502.0</ele><time>2026-04-11T15:10:56.462Z</time></trkpt><trkpt lat="44.4321093" lon="10.8960842"><ele>502.0</ele><time>2026-04-11T15:10:57.458Z</time></trkpt><trkpt lat="44.4322303" lon="10.8961655"><ele>502.0</ele><time>2026-04-11T15:10:58.47Z</time></trkpt><trkpt lat="44.4323499" lon="10.8962321"><ele>504.25</ele><time>2026-04-11T15:10:59.464Z</time></trkpt><trkpt lat="44.432467" lon="10.8962826"><ele>506.5</ele><time>2026-04-11T15:11:00.446Z</time></trkpt><trkpt lat="44.432584" lon="10.896318"><ele>508.75</ele><time>2026-04-11T15:11:01.462Z</time></trkpt><trkpt lat="44.43271" lon="10.8963381"><ele>511.0</ele><time>2026-04-11T15:11:02.443Z</time></trkpt><trkpt lat="44.4328516" lon="10.8963417"><ele>512.5</ele><time>2026-04-11T15:11:03.449Z</time></trkpt><trkpt lat="44.4329915" lon="10.8963392"><ele>514.0</ele><time>2026-04-11T15:11:04.454Z</time></trkpt><trkpt lat="44.4331206" lon="10.896341"><ele>515.5</ele><time>2026-04-11T15:11:05.505Z</time></trkpt><trkpt lat="44.4332394" lon="10.8963381"><ele>517.0</ele><time>2026-04-11T15:11:06.489Z</time></trkpt><trkpt lat="44.4333549" lon="10.8963165"><ele>517.0</ele><time>2026-04-11T15:11:07.488Z</time></trkpt><trkpt lat="44.4334716" lon="10.8962817"><ele>517.0</ele><time>2026-04-11T15:11:08.484Z</time></trkpt><trkpt lat="44.4335946" lon="10.8961983"><ele>517.0</ele><time>2026-04-11T15:11:09.449Z</time></trkpt><trkpt lat="44.4337381" lon="10.8961105"><ele>517.0</ele><time>2026-04-11T15:11:10.477Z</time></trkpt><trkpt lat="44.433875" lon="10.8960227"><ele>516.0</ele><time>2026-04-11T15:11:11.46Z</time></trkpt><trkpt lat="44.4340022" lon="10.8959363"><ele>515.0</ele><time>2026-04-11T15:11:12.481Z</time></trkpt><trkpt lat="44.4341237" lon="10.8958531"><ele>514.0</ele><time>2026-04-11T15:11:13.48Z</time></trkpt><trkpt lat="44.4342419" lon="10.8957733"><ele>513.0</ele><time>2026-04-11T15:11:14.479Z</time></trkpt><trkpt lat="44.4343555" lon="10.8956949"><ele>514.25</ele><time>2026-04-11T15:11:15.47Z</time></trkpt><trkpt lat="44.4344783" lon="10.8956363"><ele>515.5</ele><time>2026-04-11T15:11:16.461Z</time></trkpt><trkpt lat="44.4346001" lon="10.8955904"><ele>516.75</ele><time>2026-04-11T15:11:17.517Z</time></trkpt><trkpt lat="44.4347329" lon="10.8955632"><ele>518.0</ele><time>2026-04-11T15:11:18.472Z</time></trkpt><trkpt lat="44.4348774" lon="10.8955604"><ele>518.0</ele><time>2026-04-11T15:11:19.459Z</time></trkpt><trkpt lat="44.4350334" lon="10.8955751"><ele>518.0</ele><time>2026-04-11T15:11:20.463Z</time></trkpt><trkpt lat="44.4351801" lon="10.8956034"><ele>518.0</ele><time>2026-04-11T15:11:21.486Z</time></trkpt><trkpt lat="44.4353253" lon="10.8956288"><ele>518.0</ele><time>2026-04-11T15:11:22.472Z</time></trkpt><trkpt lat="44.4354684" lon="10.8956504"><ele>518.0</ele><time>2026-04-11T15:11:23.453Z</time></trkpt><trkpt lat="44.4355998" lon="10.8956799"><ele>518.0</ele><time>2026-04-11T15:11:24.45Z</time></trkpt><trkpt lat="44.4357165" lon="10.8957222"><ele>518.0</ele><time>2026-04-11T15:11:25.463Z</time></trkpt><trkpt lat="44.4358435" lon="10.8957859"><ele>519.25</ele><time>2026-04-11T15:11:26.466Z</time></trkpt><trkpt lat="44.4359659" lon="10.8958582"><ele>520.5</ele><time>2026-04-11T15:11:27.463Z</time></trkpt><trkpt lat="44.4360776" lon="10.8959268"><ele>521.75</ele><time>2026-04-11T15:11:28.476Z</time></trkpt><trkpt lat="44.4361882" lon="10.8959953"><ele>523.0</ele><time>2026-04-11T15:11:29.498Z</time></trkpt><trkpt lat="44.4362798" lon="10.8960702"><ele>523.1999999999999</ele><time>2026-04-11T15:11:30.471Z</time></trkpt><trkpt lat="44.4363626" lon="10.8961641"><ele>523.4</ele><time>2026-04-11T15:11:31.45Z</time></trkpt><trkpt lat="44.4364292" lon="10.8962861"><ele>523.5999999999999</ele><time>2026-04-11T15:11:32.462Z</time></trkpt><trkpt lat="44.4364935" lon="10.8964093"><ele>523.8</ele><time>2026-04-11T15:11:33.47Z</time></trkpt><trkpt lat="44.4365663" lon="10.8965238"><ele>524.0</ele><time>2026-04-11T15:11:34.436Z</time></trkpt><trkpt lat="44.4366562" lon="10.8966332"><ele>521.25</ele><time>2026-04-11T15:11:35.469Z</time></trkpt><trkpt lat="44.436754" lon="10.8967547"><ele>518.5</ele><time>2026-04-11T15:11:36.485Z</time></trkpt><trkpt lat="44.4368694" lon="10.8968649"><ele>515.75</ele><time>2026-04-11T15:11:37.467Z</time></trkpt><trkpt lat="44.436973" lon="10.896969"><ele>513.0</ele><time>2026-04-11T15:11:38.455Z</time></trkpt><trkpt lat="44.4370683" lon="10.8970552"><ele>515.6</ele><time>2026-04-11T15:11:39.482Z</time></trkpt><trkpt lat="44.4371602" lon="10.8971232"><ele>518.1999999999999</ele><time>2026-04-11T15:11:40.468Z</time></trkpt><trkpt lat="44.4372592" lon="10.8972059"><ele>520.8</ele><time>2026-04-11T15:11:41.429Z</time></trkpt><trkpt lat="44.4373381" lon="10.8972813"><ele>523.4</ele><time>2026-04-11T15:11:42.487Z</time></trkpt><trkpt lat="44.437418" lon="10.8973242"><ele>526.0</ele><time>2026-04-11T15:11:43.474Z</time></trkpt><trkpt lat="44.4374774" lon="10.897364"><ele>526.0</ele><time>2026-04-11T15:11:44.47Z</time></trkpt><trkpt lat="44.4375415" lon="10.8974022"><ele>526.0</ele><time>2026-04-11T15:11:45.468Z</time></trkpt><trkpt lat="44.4375999" lon="10.8974406"><ele>526.0</ele><time>2026-04-11T15:11:46.473Z</time></trkpt><trkpt lat="44.4376599" lon="10.8974837"><ele>526.0</ele><time>2026-04-11T15:11:47.467Z</time></trkpt><trkpt lat="44.4377281" lon="10.8975318"><ele>526.0</ele><time>2026-04-11T15:11:48.455Z</time></trkpt><trkpt lat="44.4378166" lon="10.8975991"><ele>526.0</ele><time>2026-04-11T15:11:49.495Z</time></trkpt><trkpt lat="44.4379252" lon="10.8976759"><ele>524.25</ele><time>2026-04-11T15:11:50.468Z</time></trkpt><trkpt lat="44.4380358" lon="10.8977551"><ele>522.5</ele><time>2026-04-11T15:11:51.518Z</time></trkpt><trkpt lat="44.4381425" lon="10.8978324"><ele>520.75</ele><time>2026-04-11T15:11:52.485Z</time></trkpt><trkpt lat="44.4382493" lon="10.8979057"><ele>519.0</ele><time>2026-04-11T15:11:53.488Z</time></trkpt><trkpt lat="44.4383455" lon="10.8979748"><ele>519.0</ele><time>2026-04-11T15:11:54.471Z</time></trkpt><trkpt lat="44.4384307" lon="10.8980388"><ele>519.0</ele><time>2026-04-11T15:11:55.455Z</time></trkpt><trkpt lat="44.4385104" lon="10.8980968"><ele>519.0</ele><time>2026-04-11T15:11:56.475Z</time></trkpt><trkpt lat="44.4385829" lon="10.8981504"><ele>519.0</ele><time>2026-04-11T15:11:57.471Z</time></trkpt><trkpt lat="44.4386507" lon="10.8982008"><ele>519.0</ele><time>2026-04-11T15:11:58.48Z</time></trkpt><trkpt lat="44.4387141" lon="10.8982395"><ele>519.0</ele><time>2026-04-11T15:11:59.487Z</time></trkpt><trkpt lat="44.438778" lon="10.8982646"><ele>519.3333333333334</ele><time>2026-04-11T15:12:00.471Z</time></trkpt><trkpt lat="44.4388441" lon="10.8982887"><ele>519.6666666666666</ele><time>2026-04-11T15:12:01.455Z</time></trkpt><trkpt lat="44.4389224" lon="10.8983246"><ele>520.0</ele><time>2026-04-11T15:12:02.471Z</time></trkpt><trkpt lat="44.4390084" lon="10.8983689"><ele>520.3333333333333</ele><time>2026-04-11T15:12:03.458Z</time></trkpt><trkpt lat="44.439098" lon="10.8984165"><ele>520.6666666666666</ele><time>2026-04-11T15:12:04.473Z</time></trkpt><trkpt lat="44.4391797" lon="10.8984637"><ele>521.0</ele><time>2026-04-11T15:12:05.466Z</time></trkpt><trkpt lat="44.4392443" lon="10.8985041"><ele>521.0</ele><time>2026-04-11T15:12:06.462Z</time></trkpt><trkpt lat="44.4393309" lon="10.898551"><ele>521.0</ele><time>2026-04-11T15:12:08.465Z</time></trkpt><trkpt lat="44.4393926" lon="10.8984649"><ele>521.0</ele><time>2026-04-11T15:12:11.469Z</time></trkpt><trkpt lat="44.4394263" lon="10.8983024"><ele>521.0</ele><time>2026-04-11T15:12:13.46Z</time></trkpt><trkpt lat="44.4394398" lon="10.8982138"><ele>521.0</ele><time>2026-04-11T15:12:14.431Z</time></trkpt><trkpt lat="44.4394419" lon="10.8980371"><ele>521.0</ele><time>2026-04-11T15:12:16.471Z</time></trkpt><trkpt lat="44.4394455" lon="10.8979411"><ele>521.0</ele><time>2026-04-11T15:12:17.424Z</time></trkpt><trkpt lat="44.4394452" lon="10.8978415"><ele>521.0</ele><time>2026-04-11T15:12:18.409Z</time></trkpt><trkpt lat="44.4394641" lon="10.8977375"><ele>521.0</ele><time>2026-04-11T15:12:19.424Z</time></trkpt><trkpt lat="44.4394841" lon="10.8976309"><ele>521.0</ele><time>2026-04-11T15:12:20.41Z</time></trkpt><trkpt lat="44.4395008" lon="10.8975253"><ele>521.0</ele><time>2026-04-11T15:12:21.436Z</time></trkpt><trkpt lat="44.4395258" lon="10.8974247"><ele>521.0</ele><time>2026-04-11T15:12:22.476Z</time></trkpt><trkpt lat="44.4395651" lon="10.8973312"><ele>519.7142857142857</ele><time>2026-04-11T15:12:23.434Z</time></trkpt><trkpt lat="44.4396112" lon="10.8972463"><ele>518.4285714285714</ele><time>2026-04-11T15:12:24.443Z</time></trkpt><trkpt lat="44.4396676" lon="10.8971847"><ele>517.1428571428571</ele><time>2026-04-11T15:12:25.462Z</time></trkpt><trkpt lat="44.4397197" lon="10.897104"><ele>515.8571428571429</ele><time>2026-04-11T15:12:26.466Z</time></trkpt><trkpt lat="44.4397643" lon="10.8970339"><ele>514.5714285714286</ele><time>2026-04-11T15:12:27.455Z</time></trkpt><trkpt lat="44.4398239" lon="10.8969729"><ele>513.2857142857142</ele><time>2026-04-11T15:12:28.466Z</time></trkpt><trkpt lat="44.4398909" lon="10.8969312"><ele>512.0</ele><time>2026-04-11T15:12:29.473Z</time></trkpt><trkpt lat="44.4399676" lon="10.8968933"><ele>511.3333333333333</ele><time>2026-04-11T15:12:30.464Z</time></trkpt><trkpt lat="44.4400469" lon="10.8968609"><ele>510.66666666666663</ele><time>2026-04-11T15:12:31.483Z</time></trkpt><trkpt lat="44.4401252" lon="10.89684"><ele>510.0</ele><time>2026-04-11T15:12:32.431Z</time></trkpt><trkpt lat="44.4402008" lon="10.8968241"><ele>509.33333333333337</ele><time>2026-04-11T15:12:33.464Z</time></trkpt><trkpt lat="44.4402681" lon="10.8968062"><ele>508.6666666666667</ele><time>2026-04-11T15:12:34.437Z</time></trkpt><trkpt lat="44.4403879" lon="10.8967738"><ele>508.0</ele><time>2026-04-11T15:12:36.477Z</time></trkpt><trkpt lat="44.4404998" lon="10.8967412"><ele>504.6666666666667</ele><time>2026-04-11T15:12:38.488Z</time></trkpt><trkpt lat="44.4405867" lon="10.8967442"><ele>501.33333333333337</ele><time>2026-04-11T15:12:40.462Z</time></trkpt><trkpt lat="44.4406591" lon="10.8967491"><ele>498.0</ele><time>2026-04-11T15:12:43.457Z</time></trkpt><trkpt lat="44.4407181" lon="10.8966723"><ele>494.66666666666663</ele><time>2026-04-11T15:12:45.45Z</time></trkpt><trkpt lat="44.4407711" lon="10.8965862"><ele>491.3333333333333</ele><time>2026-04-11T15:12:47.442Z</time></trkpt><trkpt lat="44.4408538" lon="10.8965838"><ele>488.0</ele><time>2026-04-11T15:12:49.414Z</time></trkpt><trkpt lat="44.440957" lon="10.8966821"><ele>488.79999999999995</ele><time>2026-04-11T15:12:51.411Z</time></trkpt><trkpt lat="44.4410262" lon="10.8967604"><ele>489.59999999999997</ele><time>2026-04-11T15:12:52.442Z</time></trkpt><trkpt lat="44.4410993" lon="10.8968131"><ele>490.40000000000003</ele><time>2026-04-11T15:12:53.43Z</time></trkpt><trkpt lat="44.4411906" lon="10.8968969"><ele>491.20000000000005</ele><time>2026-04-11T15:12:55.474Z</time></trkpt><trkpt lat="44.4412495" lon="10.8969895"><ele>492.0</ele><time>2026-04-11T15:12:57.442Z</time></trkpt><trkpt lat="44.441357" lon="10.8970782"><ele>492.0</ele><time>2026-04-11T15:12:59.494Z</time></trkpt><trkpt lat="44.441421" lon="10.8970941"><ele>492.0</ele><time>2026-04-11T15:13:00.488Z</time></trkpt><trkpt lat="44.4414943" lon="10.897102"><ele>492.0</ele><time>2026-04-11T15:13:01.478Z</time></trkpt><trkpt lat="44.4415691" lon="10.897088"><ele>492.0</ele><time>2026-04-11T15:13:02.469Z</time></trkpt><trkpt lat="44.4416329" lon="10.8970693"><ele>492.0</ele><time>2026-04-11T15:13:03.487Z</time></trkpt><trkpt lat="44.441743" lon="10.8970227"><ele>492.0</ele><time>2026-04-11T15:13:05.452Z</time></trkpt><trkpt lat="44.4418649" lon="10.8969889"><ele>492.0</ele><time>2026-04-11T15:13:07.477Z</time></trkpt><trkpt lat="44.4419316" lon="10.8969865"><ele>492.0</ele><time>2026-04-11T15:13:08.465Z</time></trkpt><trkpt lat="44.4420011" lon="10.8969896"><ele>492.0</ele><time>2026-04-11T15:13:09.462Z</time></trkpt><trkpt lat="44.4421183" lon="10.8970119"><ele>492.0</ele><time>2026-04-11T15:13:11.455Z</time></trkpt><trkpt lat="44.4422257" lon="10.8970453"><ele>492.0</ele><time>2026-04-11T15:13:13.48Z</time></trkpt><trkpt lat="44.442291" lon="10.8970439"><ele>492.0</ele><time>2026-04-11T15:13:15.44Z</time></trkpt><trkpt lat="44.4423562" lon="10.8970281"><ele>490.6</ele><time>2026-04-11T15:13:17.461Z</time></trkpt><trkpt lat="44.4424421" lon="10.8969834"><ele>489.20000000000005</ele><time>2026-04-11T15:13:19.458Z</time></trkpt><trkpt lat="44.4425616" lon="10.8969013"><ele>487.8</ele><time>2026-04-11T15:13:21.463Z</time></trkpt><trkpt lat="44.4426297" lon="10.8968504"><ele>486.4</ele><time>2026-04-11T15:13:22.456Z</time></trkpt><trkpt lat="44.4426913" lon="10.8968015"><ele>485.0</ele><time>2026-04-11T15:13:23.477Z</time></trkpt><trkpt lat="44.4427896" lon="10.8967145"><ele>482.16666666666663</ele><time>2026-04-11T15:13:25.474Z</time></trkpt><trkpt lat="44.4428507" lon="10.8966666"><ele>479.3333333333333</ele><time>2026-04-11T15:13:26.47Z</time></trkpt><trkpt lat="44.4429062" lon="10.8966239"><ele>476.5</ele><time>2026-04-11T15:13:27.475Z</time></trkpt><trkpt lat="44.4430051" lon="10.8965423"><ele>473.66666666666663</ele><time>2026-04-11T15:13:29.479Z</time></trkpt><trkpt lat="44.4431149" lon="10.8964656"><ele>470.8333333333333</ele><time>2026-04-11T15:13:31.469Z</time></trkpt><trkpt lat="44.4431719" lon="10.8964235"><ele>468.0</ele><time>2026-04-11T15:13:32.409Z</time></trkpt><trkpt lat="44.4432622" lon="10.8963569"><ele>467.0</ele><time>2026-04-11T15:13:34.464Z</time></trkpt><trkpt lat="44.4433625" lon="10.8962596"><ele>465.99999999999994</ele><time>2026-04-11T15:13:36.464Z</time></trkpt><trkpt lat="44.4434491" lon="10.8961678"><ele>464.99999999999994</ele><time>2026-04-11T15:13:38.446Z</time></trkpt><trkpt lat="44.4435224" lon="10.8960924"><ele>464.0</ele><time>2026-04-11T15:13:40.489Z</time></trkpt><trkpt lat="44.4436105" lon="10.8960369"><ele>463.0</ele><time>2026-04-11T15:13:42.452Z</time></trkpt><trkpt lat="44.4436803" lon="10.896004"><ele>463.00000000000006</ele><time>2026-04-11T15:13:43.483Z</time></trkpt><trkpt lat="44.4437924" lon="10.8959606"><ele>463.0</ele><time>2026-04-11T15:13:45.454Z</time></trkpt><trkpt lat="44.4438803" lon="10.8959095"><ele>463.0</ele><time>2026-04-11T15:13:47.44Z</time></trkpt><trkpt lat="44.443943" lon="10.8958456"><ele>463.0</ele><time>2026-04-11T15:13:49.473Z</time></trkpt><trkpt lat="44.4439717" lon="10.8957577"><ele>463.00000000000006</ele><time>2026-04-11T15:13:51.469Z</time></trkpt><trkpt lat="44.4439995" lon="10.895651"><ele>463.0</ele><time>2026-04-11T15:13:54.478Z</time></trkpt><trkpt lat="44.4440335" lon="10.8955328"><ele>458.71428571428567</ele><time>2026-04-11T15:13:57.496Z</time></trkpt><trkpt lat="44.4440683" lon="10.8954028"><ele>454.4285714285714</ele><time>2026-04-11T15:14:00.486Z</time></trkpt><trkpt lat="44.44411" lon="10.8953201"><ele>450.1428571428571</ele><time>2026-04-11T15:14:02.47Z</time></trkpt><trkpt lat="44.4441746" lon="10.8952584"><ele>445.85714285714283</ele><time>2026-04-11T15:14:04.44Z</time></trkpt><trkpt lat="44.4442374" lon="10.8952517"><ele>441.57142857142856</ele><time>2026-04-11T15:14:06.49Z</time></trkpt><trkpt lat="44.4443008" lon="10.8952417"><ele>437.2857142857142</ele><time>2026-04-11T15:14:08.485Z</time></trkpt><trkpt lat="44.4443504" lon="10.8951753"><ele>433.0</ele><time>2026-04-11T15:14:11.498Z</time></trkpt><trkpt lat="44.4443419" lon="10.8950782"><ele>431.1666666666667</ele><time>2026-04-11T15:14:14.462Z</time></trkpt><trkpt lat="44.4442947" lon="10.894987"><ele>429.33333333333337</ele><time>2026-04-11T15:14:17.463Z</time></trkpt><trkpt lat="44.4442339" lon="10.8948898"><ele>427.5</ele><time>2026-04-11T15:14:20.452Z</time></trkpt><trkpt lat="44.4441955" lon="10.8947606"><ele>425.66666666666663</ele><time>2026-04-11T15:14:23.459Z</time></trkpt><trkpt lat="44.4441625" lon="10.8946752"><ele>423.8333333333333</ele><time>2026-04-11T15:14:25.439Z</time></trkpt><trkpt lat="44.4441098" lon="10.8946235"><ele>422.0</ele><time>2026-04-11T15:14:27.455Z</time></trkpt><trkpt lat="44.4440365" lon="10.8946085"><ele>421.99999999999994</ele><time>2026-04-11T15:14:29.449Z</time></trkpt><trkpt lat="44.443974" lon="10.8945892"><ele>422.0</ele><time>2026-04-11T15:14:31.426Z</time></trkpt><trkpt lat="44.4439126" lon="10.8945072"><ele>422.0</ele><time>2026-04-11T15:14:34.464Z</time></trkpt><trkpt lat="44.4439043" lon="10.8943713"><ele>422.0</ele><time>2026-04-11T15:14:36.478Z</time></trkpt><trkpt lat="44.4439208" lon="10.8942615"><ele>421.99999999999994</ele><time>2026-04-11T15:14:38.46Z</time></trkpt><trkpt lat="44.4439322" lon="10.8941483"><ele>422.0</ele><time>2026-04-11T15:14:40.469Z</time></trkpt><trkpt lat="44.4439109" lon="10.8940546"><ele>418.8</ele><time>2026-04-11T15:14:42.477Z</time></trkpt><trkpt lat="44.4438414" lon="10.8940181"><ele>415.6</ele><time>2026-04-11T15:14:44.409Z</time></trkpt><trkpt lat="44.4437572" lon="10.8939781"><ele>412.40000000000003</ele><time>2026-04-11T15:14:46.405Z</time></trkpt><trkpt lat="44.4436753" lon="10.893882"><ele>409.20000000000005</ele><time>2026-04-11T15:14:48.453Z</time></trkpt><trkpt lat="44.443609" lon="10.8937592"><ele>406.0</ele><time>2026-04-11T15:14:50.435Z</time></trkpt><trkpt lat="44.44357" lon="10.8936194"><ele>406.0</ele><time>2026-04-11T15:14:52.446Z</time></trkpt><trkpt lat="44.443557" lon="10.8934921"><ele>406.0</ele><time>2026-04-11T15:14:54.465Z</time></trkpt><trkpt lat="44.4436061" lon="10.8934007"><ele>406.0</ele><time>2026-04-11T15:14:56.465Z</time></trkpt><trkpt lat="44.4437042" lon="10.8933205"><ele>406.0</ele><time>2026-04-11T15:14:58.458Z</time></trkpt><trkpt lat="44.4437913" lon="10.893257"><ele>406.0</ele><time>2026-04-11T15:15:00.446Z</time></trkpt><trkpt lat="44.4438763" lon="10.8932224"><ele>403.20000000000005</ele><time>2026-04-11T15:15:02.46Z</time></trkpt><trkpt lat="44.4439685" lon="10.893159"><ele>400.40000000000003</ele><time>2026-04-11T15:15:04.458Z</time></trkpt><trkpt lat="44.4440582" lon="10.8931089"><ele>397.6</ele><time>2026-04-11T15:15:06.46Z</time></trkpt><trkpt lat="44.4441479" lon="10.89307"><ele>394.8</ele><time>2026-04-11T15:15:08.464Z</time></trkpt><trkpt lat="44.4442573" lon="10.8930491"><ele>392.0</ele><time>2026-04-11T15:15:10.459Z</time></trkpt><trkpt lat="44.4443567" lon="10.893033"><ele>391.99999999999994</ele><time>2026-04-11T15:15:12.466Z</time></trkpt><trkpt lat="44.4444448" lon="10.893016"><ele>392.0</ele><time>2026-04-11T15:15:14.474Z</time></trkpt><trkpt lat="44.4445284" lon="10.8930171"><ele>392.0</ele><time>2026-04-11T15:15:16.461Z</time></trkpt><trkpt lat="44.444599" lon="10.8930599"><ele>392.0</ele><time>2026-04-11T15:15:18.459Z</time></trkpt><trkpt lat="44.4446336" lon="10.8931553"><ele>391.99999999999994</ele><time>2026-04-11T15:15:20.465Z</time></trkpt><trkpt lat="44.444645" lon="10.8932838"><ele>392.0</ele><time>2026-04-11T15:15:22.45Z</time></trkpt><trkpt lat="44.444663" lon="10.8934314"><ele>391.57142857142856</ele><time>2026-04-11T15:15:24.475Z</time></trkpt><trkpt lat="44.4446725" lon="10.8935267"><ele>391.1428571428571</ele><time>2026-04-11T15:15:25.46Z</time></trkpt><trkpt lat="44.4446914" lon="10.8936275"><ele>390.7142857142857</ele><time>2026-04-11T15:15:26.445Z</time></trkpt><trkpt lat="44.4447192" lon="10.8937295"><ele>390.2857142857143</ele><time>2026-04-11T15:15:27.418Z</time></trkpt><trkpt lat="44.4447541" lon="10.893818"><ele>389.85714285714283</ele><time>2026-04-11T15:15:28.469Z</time></trkpt><trkpt lat="44.4447794" lon="10.8939021"><ele>389.42857142857144</ele><time>2026-04-11T15:15:29.462Z</time></trkpt><trkpt lat="44.4448068" lon="10.8940066"><ele>389.0</ele><time>2026-04-11T15:15:30.465Z</time></trkpt><trkpt lat="44.4448356" lon="10.8941097"><ele>388.99999999999994</ele><time>2026-04-11T15:15:31.454Z</time></trkpt><trkpt lat="44.4448631" lon="10.894214"><ele>389.0</ele><time>2026-04-11T15:15:32.453Z</time></trkpt><trkpt lat="44.4448853" lon="10.8943177"><ele>389.0</ele><time>2026-04-11T15:15:33.457Z</time></trkpt><trkpt lat="44.4449019" lon="10.8944041"><ele>389.0</ele><time>2026-04-11T15:15:34.459Z</time></trkpt><trkpt lat="44.4449164" lon="10.8945736"><ele>388.99999999999994</ele><time>2026-04-11T15:15:36.45Z</time></trkpt><trkpt lat="44.4449586" lon="10.8947"><ele>389.0</ele><time>2026-04-11T15:15:38.476Z</time></trkpt><trkpt lat="44.4450186" lon="10.8948055"><ele>391.25</ele><time>2026-04-11T15:15:40.438Z</time></trkpt><trkpt lat="44.4450748" lon="10.8949524"><ele>393.5</ele><time>2026-04-11T15:15:42.452Z</time></trkpt><trkpt lat="44.4451668" lon="10.8950645"><ele>395.75</ele><time>2026-04-11T15:15:44.45Z</time></trkpt><trkpt lat="44.4452647" lon="10.8951449"><ele>398.0</ele><time>2026-04-11T15:15:46.461Z</time></trkpt><trkpt lat="44.4453638" lon="10.8952177"><ele>398.99999999999994</ele><time>2026-04-11T15:15:48.467Z</time></trkpt><trkpt lat="44.4454444" lon="10.8953453"><ele>400.0</ele><time>2026-04-11T15:15:50.461Z</time></trkpt><trkpt lat="44.4454756" lon="10.8954222"><ele>401.0</ele><time>2026-04-11T15:15:51.46Z</time></trkpt><trkpt lat="44.4454937" lon="10.8955181"><ele>402.0</ele><time>2026-04-11T15:15:52.459Z</time></trkpt><trkpt lat="44.4455102" lon="10.8956264"><ele>402.99999999999994</ele><time>2026-04-11T15:15:53.46Z</time></trkpt><trkpt lat="44.445533" lon="10.8957212"><ele>404.0</ele><time>2026-04-11T15:15:54.434Z</time></trkpt><trkpt lat="44.4455551" lon="10.8958135"><ele>399.6</ele><time>2026-04-11T15:15:55.453Z</time></trkpt><trkpt lat="44.4456222" lon="10.8959545"><ele>395.2</ele><time>2026-04-11T15:15:57.463Z</time></trkpt><trkpt lat="44.4457098" lon="10.8960542"><ele>390.8</ele><time>2026-04-11T15:15:59.453Z</time></trkpt><trkpt lat="44.4457886" lon="10.8961153"><ele>386.40000000000003</ele><time>2026-04-11T15:16:01.466Z</time></trkpt><trkpt lat="44.4458533" lon="10.8961328"><ele>382.0</ele><time>2026-04-11T15:16:03.44Z</time></trkpt><trkpt lat="44.4459497" lon="10.8961066"><ele>382.0</ele><time>2026-04-11T15:16:05.475Z</time></trkpt><trkpt lat="44.4460357" lon="10.89604"><ele>382.0</ele><time>2026-04-11T15:16:07.456Z</time></trkpt><trkpt lat="44.4461021" lon="10.8959439"><ele>382.0</ele><time>2026-04-11T15:16:09.514Z</time></trkpt><trkpt lat="44.4461435" lon="10.8958108"><ele>382.0</ele><time>2026-04-11T15:16:11.451Z</time></trkpt><trkpt lat="44.4461915" lon="10.8956684"><ele>382.0</ele><time>2026-04-11T15:16:13.47Z</time></trkpt><trkpt lat="44.4462317" lon="10.8955619"><ele>380.6</ele><time>2026-04-11T15:16:15.464Z</time></trkpt><trkpt lat="44.4462478" lon="10.8954288"><ele>379.20000000000005</ele><time>2026-04-11T15:16:17.476Z</time></trkpt><trkpt lat="44.4462732" lon="10.8952831"><ele>377.8</ele><time>2026-04-11T15:16:19.472Z</time></trkpt><trkpt lat="44.4463153" lon="10.8951683"><ele>376.4</ele><time>2026-04-11T15:16:21.483Z</time></trkpt><trkpt lat="44.4463713" lon="10.895045"><ele>375.0</ele><time>2026-04-11T15:16:23.435Z</time></trkpt><trkpt lat="44.4464536" lon="10.8949496"><ele>371.0</ele><time>2026-04-11T15:16:25.473Z</time></trkpt><trkpt lat="44.4465479" lon="10.8948795"><ele>367.0</ele><time>2026-04-11T15:16:27.454Z</time></trkpt><trkpt lat="44.4466237" lon="10.8948466"><ele>363.0</ele><time>2026-04-11T15:16:29.431Z</time></trkpt><trkpt lat="44.4467107" lon="10.8948728"><ele>359.0</ele><time>2026-04-11T15:16:31.456Z</time></trkpt><trkpt lat="44.4467722" lon="10.8949137"><ele>355.0</ele><time>2026-04-11T15:16:32.445Z</time></trkpt><trkpt lat="44.4468269" lon="10.8949683"><ele>351.0</ele><time>2026-04-11T15:16:33.434Z</time></trkpt><trkpt lat="44.4468919" lon="10.8950233"><ele>351.0</ele><time>2026-04-11T15:16:34.443Z</time></trkpt><trkpt lat="44.446946" lon="10.8950727"><ele>351.0</ele><time>2026-04-11T15:16:35.455Z</time></trkpt><trkpt lat="44.4470439" lon="10.8951336"><ele>351.0</ele><time>2026-04-11T15:16:37.463Z</time></trkpt><trkpt lat="44.4471041" lon="10.8951644"><ele>351.0</ele><time>2026-04-11T15:16:39.43Z</time></trkpt><trkpt lat="44.4471673" lon="10.8951719"><ele>351.0</ele><time>2026-04-11T15:16:41.481Z</time></trkpt><trkpt lat="44.4472508" lon="10.8951237"><ele>351.0</ele><time>2026-04-11T15:16:44.47Z</time></trkpt><trkpt lat="44.4472748" lon="10.8950166"><ele>349.5</ele><time>2026-04-11T15:16:47.467Z</time></trkpt><trkpt lat="44.4473018" lon="10.8949233"><ele>348.0</ele><time>2026-04-11T15:16:49.481Z</time></trkpt><trkpt lat="44.4473195" lon="10.8948355"><ele>346.5</ele><time>2026-04-11T15:16:51.435Z</time></trkpt><trkpt lat="44.4473313" lon="10.8947044"><ele>345.0</ele><time>2026-04-11T15:17:05.466Z</time></trkpt><trkpt lat="44.4473777" lon="10.8946367"><ele>343.5</ele><time>2026-04-11T15:17:07.458Z</time></trkpt><trkpt lat="44.4474964" lon="10.8946565"><ele>342.0</ele><time>2026-04-11T15:17:09.475Z</time></trkpt><trkpt lat="44.4475697" lon="10.8946833"><ele>342.0</ele><time>2026-04-11T15:17:10.447Z</time></trkpt><trkpt lat="44.4476319" lon="10.8947275"><ele>342.0</ele><time>2026-04-11T15:17:11.429Z</time></trkpt><trkpt lat="44.4476868" lon="10.8947715"><ele>342.0</ele><time>2026-04-11T15:17:12.464Z</time></trkpt><trkpt lat="44.4478066" lon="10.8947849"><ele>342.0</ele><time>2026-04-11T15:17:14.451Z</time></trkpt><trkpt lat="44.4478632" lon="10.8946098"><ele>342.0</ele><time>2026-04-11T15:17:16.459Z</time></trkpt><trkpt lat="44.4478766" lon="10.8945059"><ele>342.0</ele><time>2026-04-11T15:17:17.46Z</time></trkpt><trkpt lat="44.4478863" lon="10.8943545"><ele>342.0</ele><time>2026-04-11T15:17:19.47Z</time></trkpt><trkpt lat="44.4478366" lon="10.8942347"><ele>342.0</ele><time>2026-04-11T15:17:22.454Z</time></trkpt><trkpt lat="44.4477203" lon="10.8941893"><ele>342.0</ele><time>2026-04-11T15:17:24.464Z</time></trkpt><trkpt lat="44.4476354" lon="10.8941737"><ele>342.0</ele><time>2026-04-11T15:17:25.459Z</time></trkpt><trkpt lat="44.4475334" lon="10.8941566"><ele>342.8333333333333</ele><time>2026-04-11T15:17:26.458Z</time></trkpt><trkpt lat="44.4474392" lon="10.8941399"><ele>343.6666666666667</ele><time>2026-04-11T15:17:27.511Z</time></trkpt><trkpt lat="44.4473567" lon="10.8941195"><ele>344.5</ele><time>2026-04-11T15:17:28.482Z</time></trkpt><trkpt lat="44.4472892" lon="10.8940828"><ele>345.33333333333337</ele><time>2026-04-11T15:17:29.473Z</time></trkpt><trkpt lat="44.4472399" lon="10.8940195"><ele>346.1666666666667</ele><time>2026-04-11T15:17:30.453Z</time></trkpt><trkpt lat="44.4471993" lon="10.8938627"><ele>347.0</ele><time>2026-04-11T15:17:32.466Z</time></trkpt><trkpt lat="44.4472452" lon="10.8937838"><ele>347.0</ele><time>2026-04-11T15:17:33.452Z</time></trkpt><trkpt lat="44.4473207" lon="10.893718"><ele>347.0</ele><time>2026-04-11T15:17:34.468Z</time></trkpt><trkpt lat="44.4473969" lon="10.8936453"><ele>347.0</ele><time>2026-04-11T15:17:35.474Z</time></trkpt><trkpt lat="44.4474699" lon="10.8935682"><ele>347.0</ele><time>2026-04-11T15:17:36.475Z</time></trkpt><trkpt lat="44.4475247" lon="10.8934522"><ele>347.0</ele><time>2026-04-11T15:17:37.474Z</time></trkpt><trkpt lat="44.4475677" lon="10.8933239"><ele>349.40000000000003</ele><time>2026-04-11T15:17:38.514Z</time></trkpt><trkpt lat="44.4475965" lon="10.8931923"><ele>351.8</ele><time>2026-04-11T15:17:39.456Z</time></trkpt><trkpt lat="44.4476121" lon="10.8930786"><ele>354.2</ele><time>2026-04-11T15:17:40.479Z</time></trkpt><trkpt lat="44.4476285" lon="10.89298"><ele>356.6</ele><time>2026-04-11T15:17:41.487Z</time></trkpt><trkpt lat="44.4476823" lon="10.8928568"><ele>359.0</ele><time>2026-04-11T15:17:43.46Z</time></trkpt><trkpt lat="44.4478202" lon="10.8928666"><ele>359.0</ele><time>2026-04-11T15:17:45.464Z</time></trkpt><trkpt lat="44.4479154" lon="10.8929046"><ele>359.0</ele><time>2026-04-11T15:17:46.453Z</time></trkpt><trkpt lat="44.4480287" lon="10.8929513"><ele>359.0</ele><time>2026-04-11T15:17:47.466Z</time></trkpt><trkpt lat="44.4481468" lon="10.8929986"><ele>359.0</ele><time>2026-04-11T15:17:48.46Z</time></trkpt><trkpt lat="44.4482646" lon="10.8930585"><ele>357.5</ele><time>2026-04-11T15:17:49.49Z</time></trkpt><trkpt lat="44.4483716" lon="10.8931281"><ele>356.0</ele><time>2026-04-11T15:17:50.506Z</time></trkpt><trkpt lat="44.4484773" lon="10.8931995"><ele>354.5</ele><time>2026-04-11T15:17:51.462Z</time></trkpt><trkpt lat="44.4485786" lon="10.8932686"><ele>353.0</ele><time>2026-04-11T15:17:52.456Z</time></trkpt><trkpt lat="44.448675" lon="10.8933389"><ele>353.0</ele><time>2026-04-11T15:17:53.461Z</time></trkpt><trkpt lat="44.4487729" lon="10.8934087"><ele>353.0</ele><time>2026-04-11T15:17:54.445Z</time></trkpt><trkpt lat="44.4488714" lon="10.8934715"><ele>353.0</ele><time>2026-04-11T15:17:55.475Z</time></trkpt><trkpt lat="44.4489727" lon="10.8935289"><ele>353.0</ele><time>2026-04-11T15:17:56.441Z</time></trkpt><trkpt lat="44.4490706" lon="10.8935807"><ele>353.0</ele><time>2026-04-11T15:17:57.472Z</time></trkpt><trkpt lat="44.449164" lon="10.8936302"><ele>350.59999999999997</ele><time>2026-04-11T15:17:58.469Z</time></trkpt><trkpt lat="44.4492555" lon="10.8936793"><ele>348.2</ele><time>2026-04-11T15:17:59.462Z</time></trkpt><trkpt lat="44.4493427" lon="10.8937291"><ele>345.8</ele><time>2026-04-11T15:18:00.468Z</time></trkpt><trkpt lat="44.4494254" lon="10.8937816"><ele>343.4</ele><time>2026-04-11T15:18:01.5Z</time></trkpt><trkpt lat="44.4495049" lon="10.8938377"><ele>341.0</ele><time>2026-04-11T15:18:02.449Z</time></trkpt><trkpt lat="44.4495778" lon="10.8938883"><ele>341.0</ele><time>2026-04-11T15:18:03.467Z</time></trkpt><trkpt lat="44.4496395" lon="10.8939258"><ele>341.0</ele><time>2026-04-11T15:18:04.458Z</time></trkpt><trkpt lat="44.4497194" lon="10.8939885"><ele>341.0</ele><time>2026-04-11T15:18:23.467Z</time></trkpt><trkpt lat="44.4498206" lon="10.8940471"><ele>341.0</ele><time>2026-04-11T15:18:25.475Z</time></trkpt><trkpt lat="44.4498847" lon="10.8940833"><ele>341.0</ele><time>2026-04-11T15:18:26.451Z</time></trkpt><trkpt lat="44.4499521" lon="10.894111"><ele>341.0</ele><time>2026-04-11T15:18:27.454Z</time></trkpt><trkpt lat="44.4500207" lon="10.8941332"><ele>341.0</ele><time>2026-04-11T15:18:28.462Z</time></trkpt><trkpt lat="44.4500877" lon="10.8941598"><ele>341.0</ele><time>2026-04-11T15:18:29.462Z</time></trkpt><trkpt lat="44.4501548" lon="10.8941881"><ele>341.0</ele><time>2026-04-11T15:18:30.463Z</time></trkpt><trkpt lat="44.4502235" lon="10.894216"><ele>341.0</ele><time>2026-04-11T15:18:31.472Z</time></trkpt><trkpt lat="44.4502923" lon="10.8942461"><ele>341.0</ele><time>2026-04-11T15:18:32.453Z</time></trkpt><trkpt lat="44.4503617" lon="10.8942766"><ele>341.0</ele><time>2026-04-11T15:18:33.46Z</time></trkpt><trkpt lat="44.4504317" lon="10.8943054"><ele>341.0</ele><time>2026-04-11T15:18:34.437Z</time></trkpt><trkpt lat="44.4505014" lon="10.8943331"><ele>338.4</ele><time>2026-04-11T15:18:35.449Z</time></trkpt><trkpt lat="44.4505673" lon="10.8943594"><ele>335.8</ele><time>2026-04-11T15:18:36.473Z</time></trkpt><trkpt lat="44.4506297" lon="10.8943873"><ele>333.2</ele><time>2026-04-11T15:18:37.501Z</time></trkpt><trkpt lat="44.4507453" lon="10.8944258"><ele>330.59999999999997</ele><time>2026-04-11T15:18:39.475Z</time></trkpt><trkpt lat="44.4508493" lon="10.8944741"><ele>328.0</ele><time>2026-04-11T15:18:41.455Z</time></trkpt><trkpt lat="44.4509545" lon="10.8945447"><ele>328.0</ele><time>2026-04-11T15:18:43.453Z</time></trkpt><trkpt lat="44.4510576" lon="10.8945917"><ele>328.0</ele><time>2026-04-11T15:18:45.45Z</time></trkpt><trkpt lat="44.4511619" lon="10.8946414"><ele>328.0</ele><time>2026-04-11T15:18:47.457Z</time></trkpt><trkpt lat="44.4512629" lon="10.8947088"><ele>328.0</ele><time>2026-04-11T15:18:49.462Z</time></trkpt><trkpt lat="44.4513518" lon="10.8947988"><ele>328.0</ele><time>2026-04-11T15:18:51.451Z</time></trkpt><trkpt lat="44.4514401" lon="10.8949181"><ele>326.25</ele><time>2026-04-11T15:18:53.539Z</time></trkpt><trkpt lat="44.4515247" lon="10.8950185"><ele>324.5</ele><time>2026-04-11T15:18:55.46Z</time></trkpt><trkpt lat="44.4516266" lon="10.8950863"><ele>322.75</ele><time>2026-04-11T15:18:57.458Z</time></trkpt><trkpt lat="44.4517153" lon="10.8951867"><ele>321.0</ele><time>2026-04-11T15:18:59.451Z</time></trkpt><trkpt lat="44.4517843" lon="10.8953132"><ele>320.40000000000003</ele><time>2026-04-11T15:19:01.479Z</time></trkpt><trkpt lat="44.451879" lon="10.8954113"><ele>319.8</ele><time>2026-04-11T15:19:03.447Z</time></trkpt><trkpt lat="44.4519804" lon="10.8954954"><ele>319.20000000000005</ele><time>2026-04-11T15:19:05.465Z</time></trkpt><trkpt lat="44.452073" lon="10.8955818"><ele>318.6</ele><time>2026-04-11T15:19:07.466Z</time></trkpt><trkpt lat="44.4521461" lon="10.8956535"><ele>318.0</ele><time>2026-04-11T15:19:09.462Z</time></trkpt><trkpt lat="44.4522099" lon="10.8956934"><ele>316.6</ele><time>2026-04-11T15:19:11.437Z</time></trkpt><trkpt lat="44.452269" lon="10.8957463"><ele>315.20000000000005</ele><time>2026-04-11T15:19:13.449Z</time></trkpt><trkpt lat="44.452347" lon="10.8958397"><ele>313.8</ele><time>2026-04-11T15:19:15.461Z</time></trkpt><trkpt lat="44.4524289" lon="10.8959238"><ele>312.40000000000003</ele><time>2026-04-11T15:19:17.455Z</time></trkpt><trkpt lat="44.4525214" lon="10.8959948"><ele>311.0</ele><time>2026-04-11T15:19:19.467Z</time></trkpt><trkpt lat="44.4526212" lon="10.8960609"><ele>310.5</ele><time>2026-04-11T15:19:21.452Z</time></trkpt><trkpt lat="44.4527216" lon="10.8961515"><ele>310.0</ele><time>2026-04-11T15:19:23.459Z</time></trkpt><trkpt lat="44.4528226" lon="10.8962237"><ele>309.5</ele><time>2026-04-11T15:19:25.469Z</time></trkpt><trkpt lat="44.4529318" lon="10.8962773"><ele>309.0</ele><time>2026-04-11T15:19:27.458Z</time></trkpt><trkpt lat="44.4530375" lon="10.8963236"><ele>307.0</ele><time>2026-04-11T15:19:29.467Z</time></trkpt><trkpt lat="44.4531384" lon="10.8964024"><ele>305.0</ele><time>2026-04-11T15:19:31.448Z</time></trkpt><trkpt lat="44.4531946" lon="10.896456"><ele>303.0</ele><time>2026-04-11T15:19:32.445Z</time></trkpt><trkpt lat="44.4532991" lon="10.8965451"><ele>301.0</ele><time>2026-04-11T15:19:34.474Z</time></trkpt><trkpt lat="44.4533872" lon="10.8966177"><ele>299.0</ele><time>2026-04-11T15:19:36.477Z</time></trkpt><trkpt lat="44.4534826" lon="10.8967287"><ele>298.59999999999997</ele><time>2026-04-11T15:19:38.47Z</time></trkpt><trkpt lat="44.4535501" lon="10.8968492"><ele>298.2</ele><time>2026-04-11T15:19:40.45Z</time></trkpt><trkpt lat="44.4536193" lon="10.8969539"><ele>297.79999999999995</ele><time>2026-04-11T15:19:42.477Z</time></trkpt><trkpt lat="44.4536958" lon="10.8970439"><ele>297.4</ele><time>2026-04-11T15:19:44.469Z</time></trkpt><trkpt lat="44.453783" lon="10.8971118"><ele>297.0</ele><time>2026-04-11T15:19:46.455Z</time></trkpt><trkpt lat="44.4538951" lon="10.8971766"><ele>294.75</ele><time>2026-04-11T15:19:48.459Z</time></trkpt><trkpt lat="44.4540068" lon="10.8972381"><ele>292.5</ele><time>2026-04-11T15:19:50.465Z</time></trkpt><trkpt lat="44.454106" lon="10.8973035"><ele>290.25</ele><time>2026-04-11T15:19:52.423Z</time></trkpt><trkpt lat="44.4541961" lon="10.8974063"><ele>288.0</ele><time>2026-04-11T15:19:54.456Z</time></trkpt><trkpt lat="44.4542928" lon="10.8975202"><ele>288.00000000000006</ele><time>2026-04-11T15:19:56.468Z</time></trkpt><trkpt lat="44.4543424" lon="10.8975827"><ele>288.0</ele><time>2026-04-11T15:19:57.469Z</time></trkpt><trkpt lat="44.4543992" lon="10.8976511"><ele>288.0</ele><time>2026-04-11T15:19:58.448Z</time></trkpt><trkpt lat="44.4544596" lon="10.8977214"><ele>288.0</ele><time>2026-04-11T15:19:59.464Z</time></trkpt><trkpt lat="44.4545235" lon="10.8977859"><ele>288.0</ele><time>2026-04-11T15:20:00.427Z</time></trkpt><trkpt lat="44.4545881" lon="10.8978324"><ele>288.00000000000006</ele><time>2026-04-11T15:20:01.482Z</time></trkpt><trkpt lat="44.4546511" lon="10.8978655"><ele>288.0</ele><time>2026-04-11T15:20:02.473Z</time></trkpt><trkpt lat="44.4547116" lon="10.8978985"><ele>286.5714285714286</ele><time>2026-04-11T15:20:03.474Z</time></trkpt><trkpt lat="44.4547679" lon="10.8979387"><ele>285.14285714285717</ele><time>2026-04-11T15:20:04.464Z</time></trkpt><trkpt lat="44.4548209" lon="10.897992"><ele>283.7142857142857</ele><time>2026-04-11T15:20:05.431Z</time></trkpt><trkpt lat="44.4548755" lon="10.8980495"><ele>282.28571428571433</ele><time>2026-04-11T15:20:06.469Z</time></trkpt><trkpt lat="44.4549335" lon="10.8981066"><ele>280.8571428571429</ele><time>2026-04-11T15:20:07.482Z</time></trkpt><trkpt lat="44.4549891" lon="10.8981598"><ele>279.42857142857144</ele><time>2026-04-11T15:20:08.472Z</time></trkpt><trkpt lat="44.4550484" lon="10.8982112"><ele>278.0</ele><time>2026-04-11T15:20:09.481Z</time></trkpt><trkpt lat="44.455106" lon="10.8982634"><ele>278.0</ele><time>2026-04-11T15:20:10.483Z</time></trkpt><trkpt lat="44.4551573" lon="10.8983215"><ele>278.0</ele><time>2026-04-11T15:20:11.48Z</time></trkpt><trkpt lat="44.4552063" lon="10.8983905"><ele>278.0</ele><time>2026-04-11T15:20:12.457Z</time></trkpt><trkpt lat="44.4552542" lon="10.8984694"><ele>278.0</ele><time>2026-04-11T15:20:13.464Z</time></trkpt><trkpt lat="44.455302" lon="10.8985517"><ele>278.0</ele><time>2026-04-11T15:20:14.466Z</time></trkpt><trkpt lat="44.455349" lon="10.8986282"><ele>278.0</ele><time>2026-04-11T15:20:15.438Z</time></trkpt><trkpt lat="44.4553929" lon="10.8986969"><ele>278.0</ele><time>2026-04-11T15:20:16.463Z</time></trkpt><trkpt lat="44.4554809" lon="10.8988049"><ele>275.0</ele><time>2026-04-11T15:20:18.506Z</time></trkpt><trkpt lat="44.4555664" lon="10.8989144"><ele>272.0</ele><time>2026-04-11T15:20:20.478Z</time></trkpt><trkpt lat="44.4556193" lon="10.8990185"><ele>269.0</ele><time>2026-04-11T15:20:22.465Z</time></trkpt><trkpt lat="44.4556492" lon="10.8991104"><ele>266.0</ele><time>2026-04-11T15:20:24.433Z</time></trkpt><trkpt lat="44.4557258" lon="10.899255"><ele>263.0</ele><time>2026-04-11T15:20:26.462Z</time></trkpt><trkpt lat="44.4557816" lon="10.8993471"><ele>262.2</ele><time>2026-04-11T15:20:27.461Z</time></trkpt><trkpt lat="44.4558521" lon="10.8994516"><ele>261.4</ele><time>2026-04-11T15:20:28.46Z</time></trkpt><trkpt lat="44.4559282" lon="10.89956"><ele>260.59999999999997</ele><time>2026-04-11T15:20:29.454Z</time></trkpt><trkpt lat="44.4560071" lon="10.8996716"><ele>259.8</ele><time>2026-04-11T15:20:30.453Z</time></trkpt><trkpt lat="44.4560857" lon="10.8997863"><ele>259.0</ele><time>2026-04-11T15:20:31.417Z</time></trkpt><trkpt lat="44.4561632" lon="10.8998989"><ele>259.0</ele><time>2026-04-11T15:20:32.447Z</time></trkpt><trkpt lat="44.4562407" lon="10.9000088"><ele>259.0</ele><time>2026-04-11T15:20:33.469Z</time></trkpt><trkpt lat="44.4563175" lon="10.900118"><ele>259.0</ele><time>2026-04-11T15:20:34.467Z</time></trkpt><trkpt lat="44.4563938" lon="10.9002273"><ele>259.0</ele><time>2026-04-11T15:20:35.455Z</time></trkpt><trkpt lat="44.4564692" lon="10.9003367"><ele>259.0</ele><time>2026-04-11T15:20:36.436Z</time></trkpt><trkpt lat="44.4565422" lon="10.900447"><ele>258.59999999999997</ele><time>2026-04-11T15:20:37.45Z</time></trkpt><trkpt lat="44.4566112" lon="10.9005601"><ele>258.2</ele><time>2026-04-11T15:20:38.445Z</time></trkpt><trkpt lat="44.456679" lon="10.9006703"><ele>257.79999999999995</ele><time>2026-04-11T15:20:39.45Z</time></trkpt><trkpt lat="44.4567511" lon="10.9007692"><ele>257.4</ele><time>2026-04-11T15:20:40.455Z</time></trkpt><trkpt lat="44.4568281" lon="10.9008531"><ele>257.0</ele><time>2026-04-11T15:20:41.495Z</time></trkpt><trkpt lat="44.4569105" lon="10.9009128"><ele>255.8</ele><time>2026-04-11T15:20:42.439Z</time></trkpt><trkpt lat="44.4569971" lon="10.9009456"><ele>254.6</ele><time>2026-04-11T15:20:43.439Z</time></trkpt><trkpt lat="44.4570783" lon="10.9009599"><ele>253.40000000000003</ele><time>2026-04-11T15:20:44.451Z</time></trkpt><trkpt lat="44.4571467" lon="10.9009696"><ele>252.20000000000002</ele><time>2026-04-11T15:20:45.472Z</time></trkpt><trkpt lat="44.4572592" lon="10.9009768"><ele>251.0</ele><time>2026-04-11T15:20:47.459Z</time></trkpt><trkpt lat="44.4573745" lon="10.900918"><ele>252.50000000000003</ele><time>2026-04-11T15:20:49.49Z</time></trkpt><trkpt lat="44.4574415" lon="10.9008899"><ele>254.0</ele><time>2026-04-11T15:20:50.465Z</time></trkpt><trkpt lat="44.4575132" lon="10.9008717"><ele>255.5</ele><time>2026-04-11T15:20:51.457Z</time></trkpt><trkpt lat="44.4575791" lon="10.9008609"><ele>257.0</ele><time>2026-04-11T15:20:52.513Z</time></trkpt><trkpt lat="44.4576434" lon="10.9008406"><ele>258.5</ele><time>2026-04-11T15:20:53.451Z</time></trkpt><trkpt lat="44.4577195" lon="10.900742"><ele>260.0</ele><time>2026-04-11T15:20:55.449Z</time></trkpt><trkpt lat="44.4577094" lon="10.9006336"><ele>260.0</ele><time>2026-04-11T15:20:57.456Z</time></trkpt><trkpt lat="44.457676" lon="10.9005567"><ele>260.0</ele><time>2026-04-11T15:20:59.429Z</time></trkpt><trkpt lat="44.457631" lon="10.9004782"><ele>260.0</ele><time>2026-04-11T15:21:01.435Z</time></trkpt><trkpt lat="44.4575833" lon="10.9004038"><ele>260.0</ele><time>2026-04-11T15:21:03.455Z</time></trkpt><trkpt lat="44.4575361" lon="10.9003163"><ele>260.0</ele><time>2026-04-11T15:21:05.433Z</time></trkpt><trkpt lat="44.4574855" lon="10.9002182"><ele>260.0</ele><time>2026-04-11T15:21:07.484Z</time></trkpt><trkpt lat="44.4574324" lon="10.9001256"><ele>259.4</ele><time>2026-04-11T15:21:09.457Z</time></trkpt><trkpt lat="44.4573763" lon="10.9000185"><ele>258.8</ele><time>2026-04-11T15:21:11.461Z</time></trkpt><trkpt lat="44.4573124" lon="10.8998882"><ele>258.2</ele><time>2026-04-11T15:21:13.466Z</time></trkpt><trkpt lat="44.4572414" lon="10.8997497"><ele>257.6</ele><time>2026-04-11T15:21:15.48Z</time></trkpt><trkpt lat="44.4572028" lon="10.8996795"><ele>257.0</ele><time>2026-04-11T15:21:16.475Z</time></trkpt><trkpt lat="44.4571586" lon="10.8996134"><ele>257.6666666666667</ele><time>2026-04-11T15:21:17.467Z</time></trkpt><trkpt lat="44.4571042" lon="10.8995577"><ele>258.33333333333337</ele><time>2026-04-11T15:21:18.469Z</time></trkpt><trkpt lat="44.4570421" lon="10.8995046"><ele>259.0</ele><time>2026-04-11T15:21:19.454Z</time></trkpt><trkpt lat="44.4569776" lon="10.8994554"><ele>259.6666666666667</ele><time>2026-04-11T15:21:20.47Z</time></trkpt><trkpt lat="44.456909" lon="10.8994105"><ele>260.3333333333333</ele><time>2026-04-11T15:21:21.458Z</time></trkpt><trkpt lat="44.456842" lon="10.8993777"><ele>261.0</ele><time>2026-04-11T15:21:22.472Z</time></trkpt><trkpt lat="44.4567352" lon="10.8993317"><ele>261.0</ele><time>2026-04-11T15:21:24.451Z</time></trkpt><trkpt lat="44.4566738" lon="10.8992705"><ele>261.0</ele><time>2026-04-11T15:21:26.446Z</time></trkpt><trkpt lat="44.4566483" lon="10.8991662"><ele>261.0</ele><time>2026-04-11T15:21:28.447Z</time></trkpt><trkpt lat="44.4567272" lon="10.8990439"><ele>261.0</ele><time>2026-04-11T15:21:30.453Z</time></trkpt><trkpt lat="44.4567997" lon="10.898986"><ele>261.0</ele><time>2026-04-11T15:21:31.501Z</time></trkpt><trkpt lat="44.4568687" lon="10.8989275"><ele>261.0</ele><time>2026-04-11T15:21:32.431Z</time></trkpt><trkpt lat="44.4569379" lon="10.8988618"><ele>260.1666666666667</ele><time>2026-04-11T15:21:33.47Z</time></trkpt><trkpt lat="44.4570007" lon="10.8987967"><ele>259.3333333333333</ele><time>2026-04-11T15:21:34.445Z</time></trkpt><trkpt lat="44.4570697" lon="10.898721"><ele>258.5</ele><time>2026-04-11T15:21:35.478Z</time></trkpt><trkpt lat="44.4571373" lon="10.8986414"><ele>257.66666666666663</ele><time>2026-04-11T15:21:36.476Z</time></trkpt><trkpt lat="44.4572032" lon="10.8985689"><ele>256.8333333333333</ele><time>2026-04-11T15:21:37.455Z</time></trkpt><trkpt lat="44.4572698" lon="10.898507"><ele>256.0</ele><time>2026-04-11T15:21:38.466Z</time></trkpt><trkpt lat="44.4573387" lon="10.8984591"><ele>255.33333333333331</ele><time>2026-04-11T15:21:39.45Z</time></trkpt><trkpt lat="44.4574137" lon="10.8984298"><ele>254.66666666666666</ele><time>2026-04-11T15:21:40.46Z</time></trkpt><trkpt lat="44.4574934" lon="10.8984172"><ele>254.0</ele><time>2026-04-11T15:21:41.453Z</time></trkpt><trkpt lat="44.457565" lon="10.8984082"><ele>253.33333333333331</ele><time>2026-04-11T15:21:42.434Z</time></trkpt><trkpt lat="44.4576733" lon="10.8984125"><ele>252.66666666666666</ele><time>2026-04-11T15:21:44.466Z</time></trkpt><trkpt lat="44.4577343" lon="10.8983361"><ele>252.0</ele><time>2026-04-11T15:21:46.458Z</time></trkpt><trkpt lat="44.4577308" lon="10.8982237"><ele>254.39999999999998</ele><time>2026-04-11T15:21:48.429Z</time></trkpt><trkpt lat="44.4576206" lon="10.8980915"><ele>256.79999999999995</ele><time>2026-04-11T15:21:50.465Z</time></trkpt><trkpt lat="44.4575503" lon="10.8980093"><ele>259.2</ele><time>2026-04-11T15:21:51.434Z</time></trkpt><trkpt lat="44.4574875" lon="10.8979445"><ele>261.59999999999997</ele><time>2026-04-11T15:21:52.466Z</time></trkpt><trkpt lat="44.4573884" lon="10.897851"><ele>264.0</ele><time>2026-04-11T15:21:54.465Z</time></trkpt><trkpt lat="44.4572941" lon="10.8977562"><ele>264.0</ele><time>2026-04-11T15:21:56.453Z</time></trkpt><trkpt lat="44.4572573" lon="10.8976789"><ele>264.0</ele><time>2026-04-11T15:21:57.454Z</time></trkpt><trkpt lat="44.4572182" lon="10.8975893"><ele>264.0</ele><time>2026-04-11T15:21:58.457Z</time></trkpt><trkpt lat="44.4571334" lon="10.8974654"><ele>264.0</ele><time>2026-04-11T15:22:00.452Z</time></trkpt><trkpt lat="44.4570672" lon="10.8974512"><ele>264.0</ele><time>2026-04-11T15:22:01.472Z</time></trkpt><trkpt lat="44.4569884" lon="10.897453"><ele>264.0</ele><time>2026-04-11T15:22:02.515Z</time></trkpt><trkpt lat="44.4569228" lon="10.8974369"><ele>266.0</ele><time>2026-04-11T15:22:03.48Z</time></trkpt><trkpt lat="44.4568359" lon="10.8973393"><ele>268.0</ele><time>2026-04-11T15:22:05.446Z</time></trkpt><trkpt lat="44.4568084" lon="10.8972357"><ele>270.0</ele><time>2026-04-11T15:22:06.464Z</time></trkpt><trkpt lat="44.4567867" lon="10.8971165"><ele>272.0</ele><time>2026-04-11T15:22:07.469Z</time></trkpt><trkpt lat="44.4567609" lon="10.8970011"><ele>274.0</ele><time>2026-04-11T15:22:08.454Z</time></trkpt><trkpt lat="44.4567303" lon="10.896873"><ele>277.2</ele><time>2026-04-11T15:22:09.461Z</time></trkpt><trkpt lat="44.4566781" lon="10.8967472"><ele>280.4</ele><time>2026-04-11T15:22:10.473Z</time></trkpt><trkpt lat="44.4565931" lon="10.896642"><ele>283.6</ele><time>2026-04-11T15:22:11.47Z</time></trkpt><trkpt lat="44.4565126" lon="10.896545"><ele>286.8</ele><time>2026-04-11T15:22:12.461Z</time></trkpt><trkpt lat="44.4564452" lon="10.8964611"><ele>290.0</ele><time>2026-04-11T15:22:13.527Z</time></trkpt><trkpt lat="44.456388" lon="10.896368"><ele>290.0</ele><time>2026-04-11T15:22:14.481Z</time></trkpt><trkpt lat="44.4563516" lon="10.8962504"><ele>290.0</ele><time>2026-04-11T15:22:15.475Z</time></trkpt><trkpt lat="44.4563131" lon="10.896122"><ele>290.0</ele><time>2026-04-11T15:22:16.469Z</time></trkpt><trkpt lat="44.4562969" lon="10.8959592"><ele>290.0</ele><time>2026-04-11T15:22:17.482Z</time></trkpt><trkpt lat="44.4562856" lon="10.8958146"><ele>290.0</ele><time>2026-04-11T15:22:18.482Z</time></trkpt><trkpt lat="44.4562905" lon="10.895684"><ele>292.6</ele><time>2026-04-11T15:22:19.521Z</time></trkpt><trkpt lat="44.4562953" lon="10.8955526"><ele>295.2</ele><time>2026-04-11T15:22:20.484Z</time></trkpt><trkpt lat="44.4563076" lon="10.8954102"><ele>297.8</ele><time>2026-04-11T15:22:21.472Z</time></trkpt><trkpt lat="44.4563224" lon="10.8952514"><ele>300.4</ele><time>2026-04-11T15:22:22.435Z</time></trkpt><trkpt lat="44.4563361" lon="10.8950933"><ele>303.0</ele><time>2026-04-11T15:22:23.474Z</time></trkpt><trkpt lat="44.4563423" lon="10.8949316"><ele>303.0</ele><time>2026-04-11T15:22:24.462Z</time></trkpt><trkpt lat="44.4563397" lon="10.8947759"><ele>303.0</ele><time>2026-04-11T15:22:25.43Z</time></trkpt><trkpt lat="44.4563264" lon="10.8946322"><ele>303.0</ele><time>2026-04-11T15:22:26.462Z</time></trkpt><trkpt lat="44.4563067" lon="10.8945042"><ele>303.0</ele><time>2026-04-11T15:22:27.431Z</time></trkpt><trkpt lat="44.4562784" lon="10.8943794"><ele>303.0</ele><time>2026-04-11T15:22:28.477Z</time></trkpt><trkpt lat="44.4562445" lon="10.8942477"><ele>305.8333333333333</ele><time>2026-04-11T15:22:29.458Z</time></trkpt><trkpt lat="44.456204" lon="10.894122"><ele>308.6666666666667</ele><time>2026-04-11T15:22:30.488Z</time></trkpt><trkpt lat="44.4561606" lon="10.8940022"><ele>311.5</ele><time>2026-04-11T15:22:31.5Z</time></trkpt><trkpt lat="44.4561295" lon="10.893902"><ele>314.33333333333337</ele><time>2026-04-11T15:22:32.469Z</time></trkpt><trkpt lat="44.456105" lon="10.8938207"><ele>317.1666666666667</ele><time>2026-04-11T15:22:33.482Z</time></trkpt><trkpt lat="44.4561317" lon="10.893727"><ele>320.0</ele><time>2026-04-11T15:22:35.462Z</time></trkpt><trkpt lat="44.4562354" lon="10.8937193"><ele>322.0</ele><time>2026-04-11T15:22:37.464Z</time></trkpt><trkpt lat="44.4563123" lon="10.8937288"><ele>324.0</ele><time>2026-04-11T15:22:38.476Z</time></trkpt><trkpt lat="44.4564034" lon="10.8937447"><ele>326.0</ele><time>2026-04-11T15:22:39.516Z</time></trkpt><trkpt lat="44.4564979" lon="10.8937621"><ele>328.0</ele><time>2026-04-11T15:22:40.469Z</time></trkpt><trkpt lat="44.4565983" lon="10.8937767"><ele>330.0</ele><time>2026-04-11T15:22:41.438Z</time></trkpt><trkpt lat="44.4566958" lon="10.8938031"><ele>330.0</ele><time>2026-04-11T15:22:42.453Z</time></trkpt><trkpt lat="44.4567946" lon="10.8938339"><ele>330.0</ele><time>2026-04-11T15:22:43.5Z</time></trkpt><trkpt lat="44.4568827" lon="10.8938592"><ele>330.0</ele><time>2026-04-11T15:22:44.472Z</time></trkpt><trkpt lat="44.4569605" lon="10.8938561"><ele>330.0</ele><time>2026-04-11T15:22:45.47Z</time></trkpt><trkpt lat="44.4570369" lon="10.893815"><ele>330.0</ele><time>2026-04-11T15:22:46.461Z</time></trkpt><trkpt lat="44.4571245" lon="10.893747"><ele>331.2</ele><time>2026-04-11T15:22:47.485Z</time></trkpt><trkpt lat="44.457216" lon="10.8936749"><ele>332.4</ele><time>2026-04-11T15:22:48.475Z</time></trkpt><trkpt lat="44.4573115" lon="10.8936062"><ele>333.6</ele><time>2026-04-11T15:22:49.501Z</time></trkpt><trkpt lat="44.4574033" lon="10.8935502"><ele>334.8</ele><time>2026-04-11T15:22:50.464Z</time></trkpt><trkpt lat="44.4574906" lon="10.8935148"><ele>336.0</ele><time>2026-04-11T15:22:51.465Z</time></trkpt><trkpt lat="44.4575678" lon="10.8934919"><ele>336.0</ele><time>2026-04-11T15:22:52.427Z</time></trkpt><trkpt lat="44.4576355" lon="10.8934783"><ele>336.0</ele><time>2026-04-11T15:22:53.487Z</time></trkpt><trkpt lat="44.4577238" lon="10.8934563"><ele>336.0</ele><time>2026-04-11T15:22:55.435Z</time></trkpt><trkpt lat="44.4578036" lon="10.8934101"><ele>336.0</ele><time>2026-04-11T15:23:59.467Z</time></trkpt><trkpt lat="44.4578714" lon="10.8933447"><ele>336.0</ele><time>2026-04-11T15:24:02.464Z</time></trkpt><trkpt lat="44.4579174" lon="10.8932503"><ele>336.0</ele><time>2026-04-11T15:24:26.506Z</time></trkpt><trkpt lat="44.4578803" lon="10.8931538"><ele>338.14285714285717</ele><time>2026-04-11T15:24:29.487Z</time></trkpt><trkpt lat="44.4578393" lon="10.8930828"><ele>340.2857142857143</ele><time>2026-04-11T15:24:32.496Z</time></trkpt><trkpt lat="44.45779" lon="10.8929938"><ele>342.42857142857144</ele><time>2026-04-11T15:24:39.466Z</time></trkpt><trkpt lat="44.4577672" lon="10.8929082"><ele>344.57142857142856</ele><time>2026-04-11T15:24:42.464Z</time></trkpt><trkpt lat="44.4577111" lon="10.8928419"><ele>346.7142857142857</ele><time>2026-04-11T15:24:47.468Z</time></trkpt><trkpt lat="44.45769" lon="10.8927358"><ele>348.8571428571429</ele><time>2026-04-11T15:24:50.448Z</time></trkpt><trkpt lat="44.4576951" lon="10.8928326"><ele>351.0</ele><time>2026-04-11T15:24:55.416Z</time></trkpt><trkpt lat="44.457765" lon="10.8929437"><ele>351.0</ele><time>2026-04-11T15:24:57.43Z</time></trkpt><trkpt lat="44.4578425" lon="10.8930784"><ele>351.0</ele><time>2026-04-11T15:24:59.454Z</time></trkpt><trkpt lat="44.4578885" lon="10.8931505"><ele>351.0</ele><time>2026-04-11T15:25:00.456Z</time></trkpt><trkpt lat="44.4579363" lon="10.8932216"><ele>351.0</ele><time>2026-04-11T15:25:01.481Z</time></trkpt><trkpt lat="44.4579835" lon="10.8932965"><ele>351.0</ele><time>2026-04-11T15:25:02.476Z</time></trkpt><trkpt lat="44.4580339" lon="10.8933732"><ele>351.0</ele><time>2026-04-11T15:25:03.446Z</time></trkpt><trkpt lat="44.4580946" lon="10.8934608"><ele>348.8</ele><time>2026-04-11T15:25:04.47Z</time></trkpt><trkpt lat="44.4581609" lon="10.8935572"><ele>346.6</ele><time>2026-04-11T15:25:05.517Z</time></trkpt><trkpt lat="44.4582232" lon="10.8936565"><ele>344.4</ele><time>2026-04-11T15:25:06.468Z</time></trkpt><trkpt lat="44.4582797" lon="10.8937563"><ele>342.2</ele><time>2026-04-11T15:25:07.484Z</time></trkpt><trkpt lat="44.4583322" lon="10.8938561"><ele>340.0</ele><time>2026-04-11T15:25:08.479Z</time></trkpt><trkpt lat="44.4583824" lon="10.893959"><ele>340.0</ele><time>2026-04-11T15:25:09.467Z</time></trkpt><trkpt lat="44.4584348" lon="10.8940679"><ele>340.0</ele><time>2026-04-11T15:25:10.48Z</time></trkpt><trkpt lat="44.4584878" lon="10.894181"><ele>340.0</ele><time>2026-04-11T15:25:11.466Z</time></trkpt><trkpt lat="44.4585402" lon="10.8943041"><ele>340.0</ele><time>2026-04-11T15:25:12.448Z</time></trkpt><trkpt lat="44.4585883" lon="10.8944339"><ele>340.0</ele><time>2026-04-11T15:25:13.469Z</time></trkpt><trkpt lat="44.4586293" lon="10.8945603"><ele>339.0</ele><time>2026-04-11T15:25:14.478Z</time></trkpt><trkpt lat="44.458663" lon="10.894687"><ele>338.0</ele><time>2026-04-11T15:25:15.493Z</time></trkpt><trkpt lat="44.4586879" lon="10.8948283"><ele>337.0</ele><time>2026-04-11T15:25:16.456Z</time></trkpt><trkpt lat="44.458709" lon="10.8949958"><ele>336.0</ele><time>2026-04-11T15:25:17.509Z</time></trkpt><trkpt lat="44.4587282" lon="10.895151"><ele>335.0</ele><time>2026-04-11T15:25:18.464Z</time></trkpt><trkpt lat="44.4587481" lon="10.8952874"><ele>335.6666666666667</ele><time>2026-04-11T15:25:19.482Z</time></trkpt><trkpt lat="44.4587651" lon="10.8954023"><ele>336.33333333333337</ele><time>2026-04-11T15:25:20.45Z</time></trkpt><trkpt lat="44.4587958" lon="10.8954923"><ele>337.0</ele><time>2026-04-11T15:25:21.472Z</time></trkpt><trkpt lat="44.4588337" lon="10.8955703"><ele>337.6666666666667</ele><time>2026-04-11T15:25:22.472Z</time></trkpt><trkpt lat="44.4588861" lon="10.8956522"><ele>338.3333333333333</ele><time>2026-04-11T15:25:23.473Z</time></trkpt><trkpt lat="44.4589563" lon="10.8957359"><ele>339.0</ele><time>2026-04-11T15:25:24.483Z</time></trkpt><trkpt lat="44.4590284" lon="10.8958178"><ele>339.0</ele><time>2026-04-11T15:25:25.457Z</time></trkpt><trkpt lat="44.4590969" lon="10.8959032"><ele>339.0</ele><time>2026-04-11T15:25:26.47Z</time></trkpt><trkpt lat="44.4591608" lon="10.8959963"><ele>339.0</ele><time>2026-04-11T15:25:27.478Z</time></trkpt><trkpt lat="44.4592197" lon="10.8960892"><ele>339.0</ele><time>2026-04-11T15:25:28.508Z</time></trkpt><trkpt lat="44.4592752" lon="10.8961766"><ele>339.0</ele><time>2026-04-11T15:25:29.474Z</time></trkpt><trkpt lat="44.4593301" lon="10.896262"><ele>339.0</ele><time>2026-04-11T15:25:30.472Z</time></trkpt><trkpt lat="44.459388" lon="10.8963465"><ele>337.3333333333333</ele><time>2026-04-11T15:25:31.477Z</time></trkpt><trkpt lat="44.4594486" lon="10.8964301"><ele>335.6666666666667</ele><time>2026-04-11T15:25:32.487Z</time></trkpt><trkpt lat="44.459511" lon="10.8965058"><ele>334.0</ele><time>2026-04-11T15:25:33.479Z</time></trkpt><trkpt lat="44.4595744" lon="10.896579"><ele>332.33333333333337</ele><time>2026-04-11T15:25:34.549Z</time></trkpt><trkpt lat="44.4596406" lon="10.8966481"><ele>330.6666666666667</ele><time>2026-04-11T15:25:35.452Z</time></trkpt><trkpt lat="44.4597069" lon="10.8967128"><ele>329.0</ele><time>2026-04-11T15:25:36.459Z</time></trkpt><trkpt lat="44.4597735" lon="10.8967771"><ele>327.33333333333337</ele><time>2026-04-11T15:25:37.489Z</time></trkpt><trkpt lat="44.4598416" lon="10.8968354"><ele>325.6666666666667</ele><time>2026-04-11T15:25:38.471Z</time></trkpt><trkpt lat="44.4599073" lon="10.8968838"><ele>324.0</ele><time>2026-04-11T15:25:39.479Z</time></trkpt><trkpt lat="44.4599751" lon="10.8969268"><ele>322.3333333333333</ele><time>2026-04-11T15:25:40.512Z</time></trkpt><trkpt lat="44.4600487" lon="10.8969652"><ele>320.66666666666663</ele><time>2026-04-11T15:25:41.48Z</time></trkpt><trkpt lat="44.4601243" lon="10.8970033"><ele>319.0</ele><time>2026-04-11T15:25:42.47Z</time></trkpt><trkpt lat="44.4602001" lon="10.8970413"><ele>319.0</ele><time>2026-04-11T15:25:43.431Z</time></trkpt><trkpt lat="44.4602752" lon="10.8970967"><ele>319.0</ele><time>2026-04-11T15:25:44.476Z</time></trkpt><trkpt lat="44.4603512" lon="10.897178"><ele>319.0</ele><time>2026-04-11T15:25:45.476Z</time></trkpt><trkpt lat="44.460438" lon="10.8972873"><ele>319.0</ele><time>2026-04-11T15:25:46.472Z</time></trkpt><trkpt lat="44.4605244" lon="10.8974016"><ele>319.0</ele><time>2026-04-11T15:25:47.485Z</time></trkpt><trkpt lat="44.4606088" lon="10.8975115"><ele>318.5</ele><time>2026-04-11T15:25:48.472Z</time></trkpt><trkpt lat="44.4606973" lon="10.8976182"><ele>318.0</ele><time>2026-04-11T15:25:49.469Z</time></trkpt><trkpt lat="44.4607926" lon="10.8977258"><ele>317.5</ele><time>2026-04-11T15:25:50.455Z</time></trkpt><trkpt lat="44.4608838" lon="10.8978275"><ele>317.0</ele><time>2026-04-11T15:25:51.477Z</time></trkpt><trkpt lat="44.4609682" lon="10.8979285"><ele>317.0</ele><time>2026-04-11T15:25:52.479Z</time></trkpt><trkpt lat="44.4610451" lon="10.8980315"><ele>317.0</ele><time>2026-04-11T15:25:53.462Z</time></trkpt><trkpt lat="44.4611188" lon="10.8981307"><ele>317.0</ele><time>2026-04-11T15:25:54.454Z</time></trkpt><trkpt lat="44.4611861" lon="10.8982248"><ele>317.0</ele><time>2026-04-11T15:25:55.459Z</time></trkpt><trkpt lat="44.4612512" lon="10.8983161"><ele>317.0</ele><time>2026-04-11T15:25:56.483Z</time></trkpt><trkpt lat="44.4613271" lon="10.8984193"><ele>317.0</ele><time>2026-04-11T15:25:57.463Z</time></trkpt><trkpt lat="44.4614061" lon="10.8985267"><ele>317.0</ele><time>2026-04-11T15:25:58.53Z</time></trkpt><trkpt lat="44.4614791" lon="10.8986293"><ele>317.0</ele><time>2026-04-11T15:25:59.462Z</time></trkpt><trkpt lat="44.4615522" lon="10.8987398"><ele>317.0</ele><time>2026-04-11T15:26:00.481Z</time></trkpt><trkpt lat="44.4616291" lon="10.8988525"><ele>317.0</ele><time>2026-04-11T15:26:01.475Z</time></trkpt><trkpt lat="44.4617014" lon="10.8989518"><ele>317.0</ele><time>2026-04-11T15:26:02.461Z</time></trkpt><trkpt lat="44.4617578" lon="10.8990323"><ele>317.0</ele><time>2026-04-11T15:26:03.452Z</time></trkpt><trkpt lat="44.4618022" lon="10.8990981"><ele>317.0</ele><time>2026-04-11T15:26:04.455Z</time></trkpt><trkpt lat="44.461884" lon="10.8992344"><ele>317.0</ele><time>2026-04-11T15:26:06.467Z</time></trkpt><trkpt lat="44.4619356" lon="10.8993339"><ele>317.0</ele><time>2026-04-11T15:26:07.476Z</time></trkpt><trkpt lat="44.4619988" lon="10.8994521"><ele>317.2</ele><time>2026-04-11T15:26:08.465Z</time></trkpt><trkpt lat="44.4620641" lon="10.8995665"><ele>317.4</ele><time>2026-04-11T15:26:09.477Z</time></trkpt><trkpt lat="44.4621275" lon="10.899674"><ele>317.6</ele><time>2026-04-11T15:26:10.511Z</time></trkpt><trkpt lat="44.4621861" lon="10.8997725"><ele>317.8</ele><time>2026-04-11T15:26:11.465Z</time></trkpt><trkpt lat="44.4622399" lon="10.8998625"><ele>318.0</ele><time>2026-04-11T15:26:12.404Z</time></trkpt><trkpt lat="44.4623004" lon="10.899944"><ele>318.0</ele><time>2026-04-11T15:26:13.439Z</time></trkpt><trkpt lat="44.4623836" lon="10.9000196"><ele>318.0</ele><time>2026-04-11T15:26:14.43Z</time></trkpt><trkpt lat="44.4624714" lon="10.90008"><ele>318.0</ele><time>2026-04-11T15:26:15.434Z</time></trkpt><trkpt lat="44.4625522" lon="10.9001285"><ele>318.0</ele><time>2026-04-11T15:26:16.415Z</time></trkpt><trkpt lat="44.4626444" lon="10.9001746"><ele>318.0</ele><time>2026-04-11T15:26:17.432Z</time></trkpt><trkpt lat="44.4627338" lon="10.9002183"><ele>318.0</ele><time>2026-04-11T15:26:18.436Z</time></trkpt><trkpt lat="44.4628213" lon="10.9002636"><ele>318.0</ele><time>2026-04-11T15:26:19.439Z</time></trkpt><trkpt lat="44.4629237" lon="10.9003112"><ele>318.0</ele><time>2026-04-11T15:26:20.446Z</time></trkpt><trkpt lat="44.463022" lon="10.9003477"><ele>318.0</ele><time>2026-04-11T15:26:21.476Z</time></trkpt><trkpt lat="44.4631118" lon="10.9003738"><ele>318.0</ele><time>2026-04-11T15:26:22.47Z</time></trkpt><trkpt lat="44.4631919" lon="10.9003967"><ele>318.0</ele><time>2026-04-11T15:26:23.484Z</time></trkpt><trkpt lat="44.4632675" lon="10.900435"><ele>318.0</ele><time>2026-04-11T15:26:24.461Z</time></trkpt><trkpt lat="44.4633486" lon="10.9004908"><ele>318.0</ele><time>2026-04-11T15:26:25.462Z</time></trkpt><trkpt lat="44.4634322" lon="10.9005552"><ele>318.0</ele><time>2026-04-11T15:26:26.468Z</time></trkpt><trkpt lat="44.463519" lon="10.9006237"><ele>318.0</ele><time>2026-04-11T15:26:27.466Z</time></trkpt><trkpt lat="44.4636027" lon="10.9006854"><ele>318.0</ele><time>2026-04-11T15:26:28.472Z</time></trkpt><trkpt lat="44.4636761" lon="10.9007396"><ele>318.0</ele><time>2026-04-11T15:26:29.461Z</time></trkpt><trkpt lat="44.4637346" lon="10.9007875"><ele>318.0</ele><time>2026-04-11T15:26:30.472Z</time></trkpt><trkpt lat="44.4638032" lon="10.9008732"><ele>318.0</ele><time>2026-04-11T15:26:32.474Z</time></trkpt><trkpt lat="44.463905" lon="10.9009656"><ele>318.0</ele><time>2026-04-11T15:26:35.458Z</time></trkpt><trkpt lat="44.4639965" lon="10.9010043"><ele>318.2</ele><time>2026-04-11T15:26:36.479Z</time></trkpt><trkpt lat="44.4640796" lon="10.901043"><ele>318.4</ele><time>2026-04-11T15:26:37.465Z</time></trkpt><trkpt lat="44.4641564" lon="10.9010787"><ele>318.59999999999997</ele><time>2026-04-11T15:26:38.453Z</time></trkpt><trkpt lat="44.4642419" lon="10.9011626"><ele>318.8</ele><time>2026-04-11T15:26:40.462Z</time></trkpt><trkpt lat="44.4642784" lon="10.901325"><ele>319.0</ele><time>2026-04-11T15:26:42.453Z</time></trkpt><trkpt lat="44.4642906" lon="10.9014268"><ele>319.0</ele><time>2026-04-11T15:26:43.439Z</time></trkpt><trkpt lat="44.4643008" lon="10.9015227"><ele>319.0</ele><time>2026-04-11T15:26:44.433Z</time></trkpt><trkpt lat="44.4643126" lon="10.9016244"><ele>319.0</ele><time>2026-04-11T15:26:45.442Z</time></trkpt><trkpt lat="44.4643252" lon="10.9017214"><ele>319.0</ele><time>2026-04-11T15:26:46.478Z</time></trkpt><trkpt lat="44.4643466" lon="10.9018763"><ele>319.0</ele><time>2026-04-11T15:26:48.463Z</time></trkpt><trkpt lat="44.4643723" lon="10.9020254"><ele>319.0</ele><time>2026-04-11T15:26:50.46Z</time></trkpt><trkpt lat="44.4643977" lon="10.9021957"><ele>316.8333333333333</ele><time>2026-04-11T15:26:52.471Z</time></trkpt><trkpt lat="44.4644098" lon="10.9022832"><ele>314.66666666666663</ele><time>2026-04-11T15:26:53.479Z</time></trkpt><trkpt lat="44.4644189" lon="10.9023727"><ele>312.5</ele><time>2026-04-11T15:26:54.473Z</time></trkpt><trkpt lat="44.4644292" lon="10.9024629"><ele>310.3333333333333</ele><time>2026-04-11T15:26:55.441Z</time></trkpt><trkpt lat="44.4644552" lon="10.9026277"><ele>308.1666666666667</ele><time>2026-04-11T15:26:57.471Z</time></trkpt><trkpt lat="44.4644909" lon="10.9027942"><ele>306.0</ele><time>2026-04-11T15:26:59.469Z</time></trkpt><trkpt lat="44.464511" lon="10.9028871"><ele>306.42857142857144</ele><time>2026-04-11T15:27:00.437Z</time></trkpt><trkpt lat="44.4645331" lon="10.9029782"><ele>306.8571428571429</ele><time>2026-04-11T15:27:01.463Z</time></trkpt><trkpt lat="44.4645583" lon="10.9030607"><ele>307.28571428571433</ele><time>2026-04-11T15:27:02.471Z</time></trkpt><trkpt lat="44.4645918" lon="10.9031396"><ele>307.7142857142857</ele><time>2026-04-11T15:27:03.465Z</time></trkpt><trkpt lat="44.4646296" lon="10.9032209"><ele>308.14285714285717</ele><time>2026-04-11T15:27:04.47Z</time></trkpt><trkpt lat="44.4646674" lon="10.9033025"><ele>308.5714285714286</ele><time>2026-04-11T15:27:05.467Z</time></trkpt><trkpt lat="44.464703" lon="10.9033836"><ele>309.0</ele><time>2026-04-11T15:27:06.44Z</time></trkpt><trkpt lat="44.4647809" lon="10.903515"><ele>305.8333333333333</ele><time>2026-04-11T15:27:08.418Z</time></trkpt><trkpt lat="44.464891" lon="10.9036081"><ele>302.6666666666667</ele><time>2026-04-11T15:27:10.446Z</time></trkpt><trkpt lat="44.4649545" lon="10.9036506"><ele>299.5</ele><time>2026-04-11T15:27:11.479Z</time></trkpt><trkpt lat="44.4650199" lon="10.9036905"><ele>296.33333333333337</ele><time>2026-04-11T15:27:12.457Z</time></trkpt><trkpt lat="44.4650879" lon="10.903725"><ele>293.1666666666667</ele><time>2026-04-11T15:27:13.469Z</time></trkpt><trkpt lat="44.4651548" lon="10.9037563"><ele>290.0</ele><time>2026-04-11T15:27:14.472Z</time></trkpt><trkpt lat="44.4652189" lon="10.9037826"><ele>290.0</ele><time>2026-04-11T15:27:15.479Z</time></trkpt><trkpt lat="44.4653221" lon="10.9038232"><ele>290.0</ele><time>2026-04-11T15:27:17.5Z</time></trkpt><trkpt lat="44.4653972" lon="10.9038413"><ele>290.0</ele><time>2026-04-11T15:27:19.455Z</time></trkpt><trkpt lat="44.4654647" lon="10.9038638"><ele>290.0</ele><time>2026-04-11T15:27:21.468Z</time></trkpt><trkpt lat="44.4655353" lon="10.9038968"><ele>290.0</ele><time>2026-04-11T15:27:23.447Z</time></trkpt><trkpt lat="44.4656135" lon="10.9039507"><ele>290.0</ele><time>2026-04-11T15:27:25.451Z</time></trkpt><trkpt lat="44.4657032" lon="10.904042"><ele>290.6666666666667</ele><time>2026-04-11T15:27:27.469Z</time></trkpt><trkpt lat="44.4657774" lon="10.9041285"><ele>291.33333333333337</ele><time>2026-04-11T15:27:29.471Z</time></trkpt><trkpt lat="44.4658298" lon="10.904204"><ele>292.0</ele><time>2026-04-11T15:27:31.428Z</time></trkpt><trkpt lat="44.4658769" lon="10.9042905"><ele>292.6666666666667</ele><time>2026-04-11T15:27:33.455Z</time></trkpt><trkpt lat="44.4659204" lon="10.9043731"><ele>293.3333333333333</ele><time>2026-04-11T15:27:35.462Z</time></trkpt><trkpt lat="44.4659571" lon="10.9044663"><ele>294.0</ele><time>2026-04-11T15:27:37.459Z</time></trkpt><trkpt lat="44.4659672" lon="10.9045827"><ele>290.0</ele><time>2026-04-11T15:27:39.449Z</time></trkpt><trkpt lat="44.4659473" lon="10.9047017"><ele>286.0</ele><time>2026-04-11T15:27:41.463Z</time></trkpt><trkpt lat="44.4659118" lon="10.9048176"><ele>282.0</ele><time>2026-04-11T15:27:43.438Z</time></trkpt><trkpt lat="44.465872" lon="10.9049153"><ele>278.0</ele><time>2026-04-11T15:27:45.462Z</time></trkpt><trkpt lat="44.465811" lon="10.9049995"><ele>274.0</ele><time>2026-04-11T15:27:47.49Z</time></trkpt><trkpt lat="44.4657187" lon="10.9051006"><ele>269.0</ele><time>2026-04-11T15:27:49.462Z</time></trkpt><trkpt lat="44.4656246" lon="10.9052029"><ele>264.0</ele><time>2026-04-11T15:27:51.461Z</time></trkpt><trkpt lat="44.4655459" lon="10.905308"><ele>259.0</ele><time>2026-04-11T15:27:53.432Z</time></trkpt><trkpt lat="44.4654652" lon="10.9054078"><ele>254.0</ele><time>2026-04-11T15:27:55.441Z</time></trkpt><trkpt lat="44.4653677" lon="10.9054979"><ele>253.39999999999998</ele><time>2026-04-11T15:27:57.473Z</time></trkpt><trkpt lat="44.4652621" lon="10.9055751"><ele>252.79999999999998</ele><time>2026-04-11T15:27:59.472Z</time></trkpt><trkpt lat="44.4651678" lon="10.9056236"><ele>252.20000000000002</ele><time>2026-04-11T15:28:01.438Z</time></trkpt><trkpt lat="44.4650842" lon="10.9056608"><ele>251.60000000000002</ele><time>2026-04-11T15:28:03.454Z</time></trkpt><trkpt lat="44.4649852" lon="10.9057185"><ele>251.0</ele><time>2026-04-11T15:28:05.446Z</time></trkpt><trkpt lat="44.4648769" lon="10.9057802"><ele>251.0</ele><time>2026-04-11T15:28:07.46Z</time></trkpt><trkpt lat="44.4647683" lon="10.9058277"><ele>251.00000000000003</ele><time>2026-04-11T15:28:09.459Z</time></trkpt><trkpt lat="44.4646609" lon="10.9058731"><ele>251.00000000000003</ele><time>2026-04-11T15:28:11.474Z</time></trkpt><trkpt lat="44.4645764" lon="10.9059053"><ele>251.0</ele><time>2026-04-11T15:28:13.478Z</time></trkpt><trkpt lat="44.4645204" lon="10.9059607"><ele>251.0</ele><time>2026-04-11T15:28:15.46Z</time></trkpt><trkpt lat="44.46451" lon="10.9060827"><ele>245.8</ele><time>2026-04-11T15:28:17.449Z</time></trkpt><trkpt lat="44.4645011" lon="10.9062337"><ele>240.60000000000002</ele><time>2026-04-11T15:28:19.479Z</time></trkpt><trkpt lat="44.4644914" lon="10.906367"><ele>235.4</ele><time>2026-04-11T15:28:21.458Z</time></trkpt><trkpt lat="44.4644804" lon="10.9064898"><ele>230.2</ele><time>2026-04-11T15:28:23.426Z</time></trkpt><trkpt lat="44.4644696" lon="10.9066054"><ele>225.0</ele><time>2026-04-11T15:28:25.482Z</time></trkpt><trkpt lat="44.4644565" lon="10.9067353"><ele>223.4</ele><time>2026-04-11T15:28:27.437Z</time></trkpt><trkpt lat="44.4644385" lon="10.9068986"><ele>221.8</ele><time>2026-04-11T15:28:29.439Z</time></trkpt><trkpt lat="44.4644203" lon="10.9070587"><ele>220.2</ele><time>2026-04-11T15:28:31.464Z</time></trkpt><trkpt lat="44.4644015" lon="10.9071895"><ele>218.6</ele><time>2026-04-11T15:28:33.461Z</time></trkpt><trkpt lat="44.4643868" lon="10.9073083"><ele>217.0</ele><time>2026-04-11T15:28:35.48Z</time></trkpt><trkpt lat="44.4644147" lon="10.9074097"><ele>216.99999999999997</ele><time>2026-04-11T15:28:37.433Z</time></trkpt><trkpt lat="44.4644829" lon="10.907466"><ele>217.0</ele><time>2026-04-11T15:28:39.474Z</time></trkpt><trkpt lat="44.4645212" lon="10.9075809"><ele>217.0</ele><time>2026-04-11T15:28:42.446Z</time></trkpt><trkpt lat="44.4645035" lon="10.9076753"><ele>217.0</ele><time>2026-04-11T15:28:44.445Z</time></trkpt><trkpt lat="44.4644721" lon="10.9077718"><ele>216.99999999999997</ele><time>2026-04-11T15:28:46.469Z</time></trkpt><trkpt lat="44.4643567" lon="10.9078609"><ele>217.0</ele><time>2026-04-11T15:28:48.463Z</time></trkpt><trkpt lat="44.4642746" lon="10.907859"><ele>218.33333333333331</ele><time>2026-04-11T15:28:49.464Z</time></trkpt><trkpt lat="44.4641981" lon="10.907851"><ele>219.66666666666666</ele><time>2026-04-11T15:28:50.49Z</time></trkpt><trkpt lat="44.4641238" lon="10.9078457"><ele>221.0</ele><time>2026-04-11T15:28:51.467Z</time></trkpt><trkpt lat="44.4640562" lon="10.9078642"><ele>222.33333333333331</ele><time>2026-04-11T15:28:52.434Z</time></trkpt><trkpt lat="44.4639917" lon="10.9079031"><ele>223.66666666666666</ele><time>2026-04-11T15:28:53.434Z</time></trkpt><trkpt lat="44.4639377" lon="10.9079577"><ele>225.0</ele><time>2026-04-11T15:28:54.427Z</time></trkpt><trkpt lat="44.4638877" lon="10.9080741"><ele>225.0</ele><time>2026-04-11T15:28:56.48Z</time></trkpt><trkpt lat="44.4638968" lon="10.9081638"><ele>225.0</ele><time>2026-04-11T15:28:59.459Z</time></trkpt><trkpt lat="44.4640049" lon="10.9082106"><ele>225.0</ele><time>2026-04-11T15:29:01.455Z</time></trkpt><trkpt lat="44.4640893" lon="10.9082291"><ele>225.0</ele><time>2026-04-11T15:29:02.457Z</time></trkpt><trkpt lat="44.4642067" lon="10.908246"><ele>225.0</ele><time>2026-04-11T15:29:03.465Z</time></trkpt><trkpt lat="44.4643336" lon="10.9082628"><ele>225.0</ele><time>2026-04-11T15:29:04.474Z</time></trkpt><trkpt lat="44.4644577" lon="10.9082693"><ele>225.0</ele><time>2026-04-11T15:29:05.452Z</time></trkpt><trkpt lat="44.4645856" lon="10.9082789"><ele>225.0</ele><time>2026-04-11T15:29:06.455Z</time></trkpt><trkpt lat="44.4647068" lon="10.9082899"><ele>225.0</ele><time>2026-04-11T15:29:07.464Z</time></trkpt><trkpt lat="44.4648252" lon="10.9083034"><ele>224.2</ele><time>2026-04-11T15:29:08.46Z</time></trkpt><trkpt lat="44.4649373" lon="10.9083164"><ele>223.4</ele><time>2026-04-11T15:29:09.455Z</time></trkpt><trkpt lat="44.465047" lon="10.9083305"><ele>222.60000000000002</ele><time>2026-04-11T15:29:10.453Z</time></trkpt><trkpt lat="44.4651548" lon="10.9083535"><ele>221.8</ele><time>2026-04-11T15:29:11.472Z</time></trkpt><trkpt lat="44.4652623" lon="10.9083867"><ele>221.0</ele><time>2026-04-11T15:29:12.471Z</time></trkpt><trkpt lat="44.4653703" lon="10.9084419"><ele>221.75</ele><time>2026-04-11T15:29:13.473Z</time></trkpt><trkpt lat="44.4654805" lon="10.9085137"><ele>222.5</ele><time>2026-04-11T15:29:14.469Z</time></trkpt><trkpt lat="44.4655909" lon="10.9085871"><ele>223.25</ele><time>2026-04-11T15:29:15.459Z</time></trkpt><trkpt lat="44.4656991" lon="10.9086598"><ele>224.0</ele><time>2026-04-11T15:29:16.446Z</time></trkpt><trkpt lat="44.4658048" lon="10.9087291"><ele>224.0</ele><time>2026-04-11T15:29:17.448Z</time></trkpt><trkpt lat="44.4659094" lon="10.9087909"><ele>223.99999999999997</ele><time>2026-04-11T15:29:18.456Z</time></trkpt><trkpt lat="44.4660124" lon="10.9088411"><ele>223.99999999999997</ele><time>2026-04-11T15:29:19.46Z</time></trkpt><trkpt lat="44.4661189" lon="10.9088802"><ele>224.0</ele><time>2026-04-11T15:29:20.481Z</time></trkpt><trkpt lat="44.4662307" lon="10.9089069"><ele>224.0</ele><time>2026-04-11T15:29:21.468Z</time></trkpt><trkpt lat="44.4663437" lon="10.9089201"><ele>222.0</ele><time>2026-04-11T15:29:22.448Z</time></trkpt><trkpt lat="44.4664568" lon="10.9089242"><ele>220.0</ele><time>2026-04-11T15:29:23.453Z</time></trkpt><trkpt lat="44.4665702" lon="10.9089267"><ele>218.0</ele><time>2026-04-11T15:29:24.467Z</time></trkpt><trkpt lat="44.4666855" lon="10.9089266"><ele>216.0</ele><time>2026-04-11T15:29:25.473Z</time></trkpt><trkpt lat="44.4668024" lon="10.9089259"><ele>216.0</ele><time>2026-04-11T15:29:26.472Z</time></trkpt><trkpt lat="44.4669178" lon="10.9089272"><ele>216.00000000000003</ele><time>2026-04-11T15:29:27.522Z</time></trkpt><trkpt lat="44.4670312" lon="10.9089299"><ele>216.00000000000003</ele><time>2026-04-11T15:29:28.469Z</time></trkpt><trkpt lat="44.4671369" lon="10.9089309"><ele>216.0</ele><time>2026-04-11T15:29:29.484Z</time></trkpt><trkpt lat="44.4672308" lon="10.908933"><ele>216.0</ele><time>2026-04-11T15:29:30.47Z</time></trkpt><trkpt lat="44.467303" lon="10.9089338"><ele>215.5</ele><time>2026-04-11T15:29:31.465Z</time></trkpt><trkpt lat="44.4673955" lon="10.908938"><ele>215.0</ele><time>2026-04-11T15:29:33.484Z</time></trkpt><trkpt lat="44.4674734" lon="10.908934"><ele>214.5</ele><time>2026-04-11T15:29:36.474Z</time></trkpt><trkpt lat="44.4675463" lon="10.9089356"><ele>214.0</ele><time>2026-04-11T15:29:39.457Z</time></trkpt><trkpt lat="44.4676351" lon="10.9089347"><ele>213.5</ele><time>2026-04-11T15:29:41.44Z</time></trkpt><trkpt lat="44.4677128" lon="10.9089326"><ele>213.0</ele><time>2026-04-11T15:29:43.46Z</time></trkpt><trkpt lat="44.4677784" lon="10.9089643"><ele>213.0</ele><time>2026-04-11T15:29:51.476Z</time></trkpt><trkpt lat="44.4678122" lon="10.9091105"><ele>213.0</ele><time>2026-04-11T15:30:47.45Z</time></trkpt><trkpt lat="44.4678621" lon="10.9092517"><ele>213.0</ele><time>2026-04-11T15:30:49.469Z</time></trkpt><trkpt lat="44.4679529" lon="10.9093792"><ele>213.0</ele><time>2026-04-11T15:30:51.455Z</time></trkpt><trkpt lat="44.4680068" lon="10.9094442"><ele>213.0</ele><time>2026-04-11T15:30:52.459Z</time></trkpt><trkpt lat="44.4680659" lon="10.9095195"><ele>216.4</ele><time>2026-04-11T15:30:53.464Z</time></trkpt><trkpt lat="44.4681319" lon="10.9096032"><ele>219.8</ele><time>2026-04-11T15:30:54.478Z</time></trkpt><trkpt lat="44.4682027" lon="10.9097067"><ele>223.2</ele><time>2026-04-11T15:30:55.474Z</time></trkpt><trkpt lat="44.4682747" lon="10.9098093"><ele>226.6</ele><time>2026-04-11T15:30:56.471Z</time></trkpt><trkpt lat="44.4683527" lon="10.9099231"><ele>230.0</ele><time>2026-04-11T15:30:57.469Z</time></trkpt><trkpt lat="44.46843" lon="10.910036"><ele>233.4</ele><time>2026-04-11T15:30:58.519Z</time></trkpt><trkpt lat="44.4685011" lon="10.9101368"><ele>236.8</ele><time>2026-04-11T15:30:59.477Z</time></trkpt><trkpt lat="44.4685608" lon="10.9102326"><ele>240.2</ele><time>2026-04-11T15:31:00.443Z</time></trkpt><trkpt lat="44.4686051" lon="10.9103214"><ele>243.6</ele><time>2026-04-11T15:31:01.479Z</time></trkpt><trkpt lat="44.4686683" lon="10.910456"><ele>247.0</ele><time>2026-04-11T15:31:03.482Z</time></trkpt><trkpt lat="44.4687069" lon="10.9105974"><ele>247.0</ele><time>2026-04-11T15:31:05.488Z</time></trkpt><trkpt lat="44.468719" lon="10.9107552"><ele>247.0</ele><time>2026-04-11T15:31:07.476Z</time></trkpt><trkpt lat="44.4687413" lon="10.9109125"><ele>247.0</ele><time>2026-04-11T15:31:09.499Z</time></trkpt><trkpt lat="44.4687785" lon="10.9110942"><ele>247.0</ele><time>2026-04-11T15:31:11.46Z</time></trkpt><trkpt lat="44.4688036" lon="10.9112038"><ele>247.0</ele><time>2026-04-11T15:31:12.474Z</time></trkpt><trkpt lat="44.4688275" lon="10.911326"><ele>251.0</ele><time>2026-04-11T15:31:13.453Z</time></trkpt><trkpt lat="44.4688427" lon="10.9114458"><ele>255.0</ele><time>2026-04-11T15:31:14.49Z</time></trkpt><trkpt lat="44.4688565" lon="10.9115645"><ele>259.0</ele><time>2026-04-11T15:31:15.48Z</time></trkpt><trkpt lat="44.4688394" lon="10.9116897"><ele>263.0</ele><time>2026-04-11T15:31:16.457Z</time></trkpt><trkpt lat="44.4688093" lon="10.9118356"><ele>267.0</ele><time>2026-04-11T15:31:17.493Z</time></trkpt><trkpt lat="44.4687772" lon="10.9119882"><ele>269.0</ele><time>2026-04-11T15:31:18.478Z</time></trkpt><trkpt lat="44.468728" lon="10.9121356"><ele>271.0</ele><time>2026-04-11T15:31:19.483Z</time></trkpt><trkpt lat="44.4686869" lon="10.9122512"><ele>273.0</ele><time>2026-04-11T15:31:20.441Z</time></trkpt><trkpt lat="44.4686608" lon="10.9123503"><ele>275.0</ele><time>2026-04-11T15:31:21.451Z</time></trkpt><trkpt lat="44.4686475" lon="10.9124544"><ele>277.0</ele><time>2026-04-11T15:31:22.473Z</time></trkpt><trkpt lat="44.4686471" lon="10.9125548"><ele>279.0</ele><time>2026-04-11T15:31:23.488Z</time></trkpt><trkpt lat="44.4686597" lon="10.9126581"><ele>280.8333333333333</ele><time>2026-04-11T15:31:24.451Z</time></trkpt><trkpt lat="44.4686662" lon="10.9127725"><ele>282.6666666666667</ele><time>2026-04-11T15:31:25.464Z</time></trkpt><trkpt lat="44.46867" lon="10.9128949"><ele>284.5</ele><time>2026-04-11T15:31:26.495Z</time></trkpt><trkpt lat="44.4686775" lon="10.9130252"><ele>286.33333333333337</ele><time>2026-04-11T15:31:27.496Z</time></trkpt><trkpt lat="44.4686862" lon="10.9131538"><ele>288.1666666666667</ele><time>2026-04-11T15:31:28.475Z</time></trkpt><trkpt lat="44.4686941" lon="10.9132769"><ele>290.0</ele><time>2026-04-11T15:31:29.468Z</time></trkpt><trkpt lat="44.4687038" lon="10.9133894"><ele>293.8</ele><time>2026-04-11T15:31:30.452Z</time></trkpt><trkpt lat="44.4687132" lon="10.9135001"><ele>297.6</ele><time>2026-04-11T15:31:31.479Z</time></trkpt><trkpt lat="44.4687237" lon="10.9136217"><ele>301.4</ele><time>2026-04-11T15:31:32.485Z</time></trkpt><trkpt lat="44.4687393" lon="10.9137588"><ele>305.2</ele><time>2026-04-11T15:31:33.48Z</time></trkpt><trkpt lat="44.4687526" lon="10.9139158"><ele>309.0</ele><time>2026-04-11T15:31:34.471Z</time></trkpt><trkpt lat="44.4687658" lon="10.9140756"><ele>310.1666666666667</ele><time>2026-04-11T15:31:35.484Z</time></trkpt><trkpt lat="44.4687791" lon="10.914228"><ele>311.3333333333333</ele><time>2026-04-11T15:31:36.488Z</time></trkpt><trkpt lat="44.4687917" lon="10.9143707"><ele>312.5</ele><time>2026-04-11T15:31:37.485Z</time></trkpt><trkpt lat="44.468798" lon="10.9144816"><ele>313.66666666666663</ele><time>2026-04-11T15:31:38.484Z</time></trkpt><trkpt lat="44.4688025" lon="10.9145817"><ele>314.8333333333333</ele><time>2026-04-11T15:31:39.48Z</time></trkpt><trkpt lat="44.4687979" lon="10.9146821"><ele>316.0</ele><time>2026-04-11T15:31:40.434Z</time></trkpt><trkpt lat="44.4687856" lon="10.9147821"><ele>318.0</ele><time>2026-04-11T15:31:41.484Z</time></trkpt><trkpt lat="44.4687674" lon="10.9148749"><ele>320.0</ele><time>2026-04-11T15:31:42.487Z</time></trkpt><trkpt lat="44.4687407" lon="10.9149817"><ele>322.0</ele><time>2026-04-11T15:31:43.5Z</time></trkpt><trkpt lat="44.4687126" lon="10.9150862"><ele>324.0</ele><time>2026-04-11T15:31:44.514Z</time></trkpt><trkpt lat="44.4686824" lon="10.9151888"><ele>326.0</ele><time>2026-04-11T15:31:45.468Z</time></trkpt><trkpt lat="44.4686524" lon="10.9152844"><ele>328.0</ele><time>2026-04-11T15:31:46.475Z</time></trkpt><trkpt lat="44.4686139" lon="10.9153852"><ele>331.0</ele><time>2026-04-11T15:31:47.501Z</time></trkpt><trkpt lat="44.4685675" lon="10.9155045"><ele>334.0</ele><time>2026-04-11T15:31:48.472Z</time></trkpt><trkpt lat="44.468514" lon="10.9156352"><ele>337.0</ele><time>2026-04-11T15:31:49.488Z</time></trkpt><trkpt lat="44.4684589" lon="10.9157707"><ele>340.0</ele><time>2026-04-11T15:31:50.474Z</time></trkpt><trkpt lat="44.468402" lon="10.9159022"><ele>343.0</ele><time>2026-04-11T15:31:51.483Z</time></trkpt><trkpt lat="44.468341" lon="10.9160279"><ele>344.59999999999997</ele><time>2026-04-11T15:31:52.458Z</time></trkpt><trkpt lat="44.4682809" lon="10.9161529"><ele>346.2</ele><time>2026-04-11T15:31:53.465Z</time></trkpt><trkpt lat="44.4682163" lon="10.9162834"><ele>347.8</ele><time>2026-04-11T15:31:54.49Z</time></trkpt><trkpt lat="44.4681532" lon="10.9164014"><ele>349.4</ele><time>2026-04-11T15:31:55.48Z</time></trkpt><trkpt lat="44.4680917" lon="10.9165114"><ele>351.0</ele><time>2026-04-11T15:31:56.491Z</time></trkpt><trkpt lat="44.4680355" lon="10.9166101"><ele>351.0</ele><time>2026-04-11T15:31:57.48Z</time></trkpt><trkpt lat="44.46798" lon="10.9166899"><ele>351.0</ele><time>2026-04-11T15:31:58.487Z</time></trkpt><trkpt lat="44.4679246" lon="10.9167669"><ele>351.0</ele><time>2026-04-11T15:31:59.486Z</time></trkpt><trkpt lat="44.4678629" lon="10.9168569"><ele>351.0</ele><time>2026-04-11T15:32:00.479Z</time></trkpt><trkpt lat="44.467807" lon="10.916955"><ele>351.0</ele><time>2026-04-11T15:32:01.467Z</time></trkpt><trkpt lat="44.4677573" lon="10.9170694"><ele>351.0</ele><time>2026-04-11T15:32:02.47Z</time></trkpt><trkpt lat="44.4677034" lon="10.9172042"><ele>353.6</ele><time>2026-04-11T15:32:03.483Z</time></trkpt><trkpt lat="44.4676472" lon="10.9173458"><ele>356.20000000000005</ele><time>2026-04-11T15:32:04.489Z</time></trkpt><trkpt lat="44.4675927" lon="10.917473"><ele>358.79999999999995</ele><time>2026-04-11T15:32:05.476Z</time></trkpt><trkpt lat="44.4675417" lon="10.9175855"><ele>361.4</ele><time>2026-04-11T15:32:06.508Z</time></trkpt><trkpt lat="44.4674878" lon="10.9177003"><ele>364.0</ele><time>2026-04-11T15:32:07.485Z</time></trkpt><trkpt lat="44.4674405" lon="10.9177871"><ele>364.66666666666663</ele><time>2026-04-11T15:32:08.469Z</time></trkpt><trkpt lat="44.4673913" lon="10.9178573"><ele>365.3333333333333</ele><time>2026-04-11T15:32:09.478Z</time></trkpt><trkpt lat="44.4673413" lon="10.9179267"><ele>366.0</ele><time>2026-04-11T15:32:10.478Z</time></trkpt><trkpt lat="44.4672556" lon="10.9180446"><ele>366.6666666666667</ele><time>2026-04-11T15:32:12.468Z</time></trkpt><trkpt lat="44.4671853" lon="10.9180934"><ele>367.33333333333337</ele><time>2026-04-11T15:32:13.473Z</time></trkpt><trkpt lat="44.4671062" lon="10.9181408"><ele>368.0</ele><time>2026-04-11T15:32:14.489Z</time></trkpt><trkpt lat="44.4670163" lon="10.9182093"><ele>370.0</ele><time>2026-04-11T15:32:15.454Z</time></trkpt><trkpt lat="44.4669331" lon="10.9182677"><ele>372.0</ele><time>2026-04-11T15:32:16.475Z</time></trkpt><trkpt lat="44.466856" lon="10.9183198"><ele>374.0</ele><time>2026-04-11T15:32:17.532Z</time></trkpt><trkpt lat="44.4667895" lon="10.9183677"><ele>376.0</ele><time>2026-04-11T15:32:18.498Z</time></trkpt><trkpt lat="44.4667353" lon="10.9184206"><ele>378.0</ele><time>2026-04-11T15:32:19.481Z</time></trkpt><trkpt lat="44.4666771" lon="10.9184792"><ele>380.0</ele><time>2026-04-11T15:32:20.485Z</time></trkpt><trkpt lat="44.466628" lon="10.9185615"><ele>380.42857142857144</ele><time>2026-04-11T15:32:21.483Z</time></trkpt><trkpt lat="44.4665829" lon="10.9186434"><ele>380.8571428571429</ele><time>2026-04-11T15:32:22.467Z</time></trkpt><trkpt lat="44.4665372" lon="10.9187114"><ele>381.2857142857143</ele><time>2026-04-11T15:32:23.483Z</time></trkpt><trkpt lat="44.466482" lon="10.9187632"><ele>381.7142857142857</ele><time>2026-04-11T15:32:24.487Z</time></trkpt><trkpt lat="44.4664226" lon="10.9188116"><ele>382.1428571428571</ele><time>2026-04-11T15:32:25.479Z</time></trkpt><trkpt lat="44.4663646" lon="10.9188629"><ele>382.57142857142856</ele><time>2026-04-11T15:32:26.476Z</time></trkpt><trkpt lat="44.4662873" lon="10.9189299"><ele>383.0</ele><time>2026-04-11T15:32:27.476Z</time></trkpt><trkpt lat="44.4661939" lon="10.9190127"><ele>384.79999999999995</ele><time>2026-04-11T15:32:28.46Z</time></trkpt><trkpt lat="44.4661055" lon="10.9190999"><ele>386.6</ele><time>2026-04-11T15:32:29.434Z</time></trkpt><trkpt lat="44.4660205" lon="10.9191882"><ele>388.4</ele><time>2026-04-11T15:32:30.444Z</time></trkpt><trkpt lat="44.4659423" lon="10.9192851"><ele>390.20000000000005</ele><time>2026-04-11T15:32:31.456Z</time></trkpt><trkpt lat="44.4658662" lon="10.9193965"><ele>392.0</ele><time>2026-04-11T15:32:32.48Z</time></trkpt><trkpt lat="44.4657937" lon="10.9194943"><ele>393.16666666666663</ele><time>2026-04-11T15:32:33.479Z</time></trkpt><trkpt lat="44.4657431" lon="10.9195908"><ele>394.3333333333333</ele><time>2026-04-11T15:32:34.493Z</time></trkpt><trkpt lat="44.4656979" lon="10.9196738"><ele>395.5</ele><time>2026-04-11T15:32:35.498Z</time></trkpt><trkpt lat="44.4656523" lon="10.9198076"><ele>396.66666666666663</ele><time>2026-04-11T15:32:37.477Z</time></trkpt><trkpt lat="44.4656287" lon="10.9199093"><ele>397.8333333333333</ele><time>2026-04-11T15:32:39.45Z</time></trkpt><trkpt lat="44.4656215" lon="10.9200284"><ele>399.0</ele><time>2026-04-11T15:52:32.463Z</time></trkpt><trkpt lat="44.4655992" lon="10.9199314"><ele>399.0</ele><time>2026-04-11T15:52:50.479Z</time></trkpt><trkpt lat="44.4656427" lon="10.9198162"><ele>399.0</ele><time>2026-04-11T15:52:53.465Z</time></trkpt><trkpt lat="44.4656776" lon="10.9197138"><ele>399.0</ele><time>2026-04-11T15:52:55.473Z</time></trkpt><trkpt lat="44.4657317" lon="10.9195785"><ele>399.0</ele><time>2026-04-11T15:52:57.463Z</time></trkpt><trkpt lat="44.4658065" lon="10.9194461"><ele>399.0</ele><time>2026-04-11T15:52:59.468Z</time></trkpt><trkpt lat="44.4658491" lon="10.9193804"><ele>399.0</ele><time>2026-04-11T15:53:00.474Z</time></trkpt><trkpt lat="44.4658955" lon="10.919316"><ele>399.0</ele><time>2026-04-11T15:53:01.482Z</time></trkpt><trkpt lat="44.4659437" lon="10.9192521"><ele>399.0</ele><time>2026-04-11T15:53:02.49Z</time></trkpt><trkpt lat="44.4659942" lon="10.9191895"><ele>399.0</ele><time>2026-04-11T15:53:03.46Z</time></trkpt><trkpt lat="44.4660496" lon="10.9191281"><ele>399.0</ele><time>2026-04-11T15:53:04.484Z</time></trkpt><trkpt lat="44.4661076" lon="10.9190701"><ele>399.0</ele><time>2026-04-11T15:53:05.463Z</time></trkpt><trkpt lat="44.4661633" lon="10.9190122"><ele>399.0</ele><time>2026-04-11T15:53:06.467Z</time></trkpt><trkpt lat="44.4662173" lon="10.9189603"><ele>397.6</ele><time>2026-04-11T15:53:07.468Z</time></trkpt><trkpt lat="44.4662717" lon="10.9189158"><ele>396.2</ele><time>2026-04-11T15:53:08.446Z</time></trkpt><trkpt lat="44.4663795" lon="10.918841"><ele>394.8</ele><time>2026-04-11T15:53:10.474Z</time></trkpt><trkpt lat="44.4664605" lon="10.9187696"><ele>393.40000000000003</ele><time>2026-04-11T15:53:12.466Z</time></trkpt><trkpt lat="44.4665373" lon="10.9186972"><ele>392.0</ele><time>2026-04-11T15:53:14.474Z</time></trkpt><trkpt lat="44.4666161" lon="10.9185939"><ele>390.20000000000005</ele><time>2026-04-11T15:53:16.484Z</time></trkpt><trkpt lat="44.466691" lon="10.9184789"><ele>388.4</ele><time>2026-04-11T15:53:18.482Z</time></trkpt><trkpt lat="44.4667668" lon="10.9183947"><ele>386.6</ele><time>2026-04-11T15:53:20.434Z</time></trkpt><trkpt lat="44.4668421" lon="10.9183331"><ele>384.79999999999995</ele><time>2026-04-11T15:53:22.446Z</time></trkpt><trkpt lat="44.4669211" lon="10.9182502"><ele>383.0</ele><time>2026-04-11T15:53:24.454Z</time></trkpt><trkpt lat="44.4670303" lon="10.9181621"><ele>382.4</ele><time>2026-04-11T15:53:26.473Z</time></trkpt><trkpt lat="44.4670861" lon="10.918121"><ele>381.79999999999995</ele><time>2026-04-11T15:53:27.469Z</time></trkpt><trkpt lat="44.4671879" lon="10.9180629"><ele>381.2</ele><time>2026-04-11T15:53:29.465Z</time></trkpt><trkpt lat="44.4672823" lon="10.9180359"><ele>380.6</ele><time>2026-04-11T15:53:31.476Z</time></trkpt><trkpt lat="44.4673593" lon="10.9179352"><ele>380.0</ele><time>2026-04-11T15:53:33.472Z</time></trkpt><trkpt lat="44.4674235" lon="10.9177802"><ele>378.0</ele><time>2026-04-11T15:53:35.484Z</time></trkpt><trkpt lat="44.4674632" lon="10.9176984"><ele>376.0</ele><time>2026-04-11T15:53:36.463Z</time></trkpt><trkpt lat="44.4675062" lon="10.9176085"><ele>374.0</ele><time>2026-04-11T15:53:37.462Z</time></trkpt><trkpt lat="44.4675503" lon="10.9175142"><ele>372.0</ele><time>2026-04-11T15:53:38.452Z</time></trkpt><trkpt lat="44.4675946" lon="10.9174167"><ele>370.0</ele><time>2026-04-11T15:53:39.479Z</time></trkpt><trkpt lat="44.4676355" lon="10.917318"><ele>368.0</ele><time>2026-04-11T15:53:40.45Z</time></trkpt><trkpt lat="44.4676767" lon="10.9172162"><ele>367.42857142857144</ele><time>2026-04-11T15:53:41.475Z</time></trkpt><trkpt lat="44.4677183" lon="10.9171151"><ele>366.85714285714283</ele><time>2026-04-11T15:53:42.489Z</time></trkpt><trkpt lat="44.4677604" lon="10.9170189"><ele>366.2857142857143</ele><time>2026-04-11T15:53:43.467Z</time></trkpt><trkpt lat="44.4678026" lon="10.9169327"><ele>365.7142857142857</ele><time>2026-04-11T15:53:44.483Z</time></trkpt><trkpt lat="44.4678463" lon="10.9168578"><ele>365.1428571428571</ele><time>2026-04-11T15:53:45.476Z</time></trkpt><trkpt lat="44.4678909" lon="10.9167883"><ele>364.57142857142856</ele><time>2026-04-11T15:53:46.471Z</time></trkpt><trkpt lat="44.4679356" lon="10.9167202"><ele>364.0</ele><time>2026-04-11T15:53:47.471Z</time></trkpt><trkpt lat="44.4679817" lon="10.9166547"><ele>361.8333333333333</ele><time>2026-04-11T15:53:48.483Z</time></trkpt><trkpt lat="44.4680681" lon="10.9165285"><ele>359.66666666666663</ele><time>2026-04-11T15:53:50.523Z</time></trkpt><trkpt lat="44.4681139" lon="10.9164592"><ele>357.5</ele><time>2026-04-11T15:53:51.446Z</time></trkpt><trkpt lat="44.4681577" lon="10.9163856"><ele>355.3333333333333</ele><time>2026-04-11T15:53:52.478Z</time></trkpt><trkpt lat="44.4681968" lon="10.916316"><ele>353.1666666666667</ele><time>2026-04-11T15:53:53.453Z</time></trkpt><trkpt lat="44.4682694" lon="10.9161737"><ele>351.0</ele><time>2026-04-11T15:53:55.469Z</time></trkpt><trkpt lat="44.468339" lon="10.9160284"><ele>349.6666666666667</ele><time>2026-04-11T15:53:57.489Z</time></trkpt><trkpt lat="44.4684097" lon="10.9158794"><ele>348.3333333333333</ele><time>2026-04-11T15:53:59.485Z</time></trkpt><trkpt lat="44.4684457" lon="10.9158021"><ele>347.0</ele><time>2026-04-11T15:54:00.463Z</time></trkpt><trkpt lat="44.4684799" lon="10.9157239"><ele>345.66666666666663</ele><time>2026-04-11T15:54:01.485Z</time></trkpt><trkpt lat="44.4685157" lon="10.9156413"><ele>344.3333333333333</ele><time>2026-04-11T15:54:02.476Z</time></trkpt><trkpt lat="44.4685522" lon="10.9155538"><ele>343.0</ele><time>2026-04-11T15:54:03.452Z</time></trkpt><trkpt lat="44.4685866" lon="10.9154653"><ele>343.0</ele><time>2026-04-11T15:54:04.482Z</time></trkpt><trkpt lat="44.468619" lon="10.9153784"><ele>343.0</ele><time>2026-04-11T15:54:05.477Z</time></trkpt><trkpt lat="44.4686502" lon="10.915295"><ele>343.0</ele><time>2026-04-11T15:54:06.469Z</time></trkpt><trkpt lat="44.4686777" lon="10.9152116"><ele>343.0</ele><time>2026-04-11T15:54:07.469Z</time></trkpt><trkpt lat="44.4687032" lon="10.9151264"><ele>343.0</ele><time>2026-04-11T15:54:08.461Z</time></trkpt><trkpt lat="44.4687277" lon="10.9150421"><ele>343.0</ele><time>2026-04-11T15:54:09.452Z</time></trkpt><trkpt lat="44.4687494" lon="10.9149576"><ele>343.0</ele><time>2026-04-11T15:54:10.474Z</time></trkpt><trkpt lat="44.4687812" lon="10.9147996"><ele>339.0</ele><time>2026-04-11T15:54:12.45Z</time></trkpt><trkpt lat="44.468792" lon="10.9146436"><ele>335.0</ele><time>2026-04-11T15:54:14.458Z</time></trkpt><trkpt lat="44.4687897" lon="10.9144911"><ele>331.0</ele><time>2026-04-11T15:54:16.457Z</time></trkpt><trkpt lat="44.4687778" lon="10.9143371"><ele>327.0</ele><time>2026-04-11T15:54:18.444Z</time></trkpt><trkpt lat="44.4687642" lon="10.9141746"><ele>323.0</ele><time>2026-04-11T15:54:20.468Z</time></trkpt><trkpt lat="44.4687497" lon="10.9140073"><ele>320.2</ele><time>2026-04-11T15:54:22.485Z</time></trkpt><trkpt lat="44.4687345" lon="10.9138362"><ele>317.4</ele><time>2026-04-11T15:54:24.479Z</time></trkpt><trkpt lat="44.4687259" lon="10.9137475"><ele>314.59999999999997</ele><time>2026-04-11T15:54:25.457Z</time></trkpt><trkpt lat="44.4687106" lon="10.9135713"><ele>311.79999999999995</ele><time>2026-04-11T15:54:27.487Z</time></trkpt><trkpt lat="44.4686999" lon="10.9134114"><ele>309.0</ele><time>2026-04-11T15:54:29.496Z</time></trkpt><trkpt lat="44.468692" lon="10.9132406"><ele>305.8333333333333</ele><time>2026-04-11T15:54:31.482Z</time></trkpt><trkpt lat="44.4686883" lon="10.9131513"><ele>302.6666666666667</ele><time>2026-04-11T15:54:32.468Z</time></trkpt><trkpt lat="44.4686819" lon="10.9130596"><ele>299.5</ele><time>2026-04-11T15:54:33.426Z</time></trkpt><trkpt lat="44.4686709" lon="10.912898"><ele>296.33333333333337</ele><time>2026-04-11T15:54:35.468Z</time></trkpt><trkpt lat="44.468665" lon="10.9127551"><ele>293.1666666666667</ele><time>2026-04-11T15:54:37.461Z</time></trkpt><trkpt lat="44.4686582" lon="10.9126209"><ele>290.0</ele><time>2026-04-11T15:54:39.47Z</time></trkpt><trkpt lat="44.4686458" lon="10.9124914"><ele>289.1666666666667</ele><time>2026-04-11T15:54:41.43Z</time></trkpt><trkpt lat="44.4686505" lon="10.9123481"><ele>288.33333333333337</ele><time>2026-04-11T15:54:43.476Z</time></trkpt><trkpt lat="44.4686901" lon="10.9121971"><ele>287.5</ele><time>2026-04-11T15:54:45.463Z</time></trkpt><trkpt lat="44.4687189" lon="10.9121139"><ele>286.6666666666667</ele><time>2026-04-11T15:54:46.455Z</time></trkpt><trkpt lat="44.4687496" lon="10.9120323"><ele>285.8333333333333</ele><time>2026-04-11T15:54:47.445Z</time></trkpt><trkpt lat="44.4687764" lon="10.9119508"><ele>285.0</ele><time>2026-04-11T15:54:48.47Z</time></trkpt><trkpt lat="44.4687998" lon="10.9118654"><ele>280.5</ele><time>2026-04-11T15:54:49.486Z</time></trkpt><trkpt lat="44.4688369" lon="10.9116968"><ele>276.0</ele><time>2026-04-11T15:54:51.477Z</time></trkpt><trkpt lat="44.4688518" lon="10.9115292"><ele>271.5</ele><time>2026-04-11T15:54:53.434Z</time></trkpt><trkpt lat="44.468849" lon="10.911377"><ele>267.0</ele><time>2026-04-11T15:54:55.477Z</time></trkpt><trkpt lat="44.4688236" lon="10.9112362"><ele>267.0</ele><time>2026-04-11T15:54:57.472Z</time></trkpt><trkpt lat="44.468795" lon="10.9110997"><ele>267.0</ele><time>2026-04-11T15:54:59.47Z</time></trkpt><trkpt lat="44.4687673" lon="10.9109748"><ele>267.0</ele><time>2026-04-11T15:55:01.434Z</time></trkpt><trkpt lat="44.4687475" lon="10.9108537"><ele>267.0</ele><time>2026-04-11T15:55:03.463Z</time></trkpt><trkpt lat="44.4687291" lon="10.9107415"><ele>267.0</ele><time>2026-04-11T15:55:05.481Z</time></trkpt><trkpt lat="44.468722" lon="10.9106291"><ele>267.0</ele><time>2026-04-11T15:55:07.473Z</time></trkpt><trkpt lat="44.4687118" lon="10.9105161"><ele>263.0</ele><time>2026-04-11T15:55:09.434Z</time></trkpt><trkpt lat="44.4686754" lon="10.9104211"><ele>259.0</ele><time>2026-04-11T15:55:11.462Z</time></trkpt><trkpt lat="44.468632" lon="10.9103251"><ele>255.0</ele><time>2026-04-11T15:55:13.476Z</time></trkpt><trkpt lat="44.4685784" lon="10.9102164"><ele>251.0</ele><time>2026-04-11T15:55:15.444Z</time></trkpt><trkpt lat="44.4685133" lon="10.9101192"><ele>247.0</ele><time>2026-04-11T15:55:17.444Z</time></trkpt><trkpt lat="44.4684379" lon="10.9100144"><ele>243.6</ele><time>2026-04-11T15:55:19.453Z</time></trkpt><trkpt lat="44.4683593" lon="10.9098999"><ele>240.2</ele><time>2026-04-11T15:55:21.474Z</time></trkpt><trkpt lat="44.468284" lon="10.909793"><ele>236.8</ele><time>2026-04-11T15:55:23.448Z</time></trkpt><trkpt lat="44.4682093" lon="10.9096843"><ele>233.4</ele><time>2026-04-11T15:55:25.421Z</time></trkpt><trkpt lat="44.4681323" lon="10.9095711"><ele>230.0</ele><time>2026-04-11T15:55:27.415Z</time></trkpt><trkpt lat="44.4680515" lon="10.9094577"><ele>230.0</ele><time>2026-04-11T15:55:29.422Z</time></trkpt><trkpt lat="44.4679745" lon="10.9093619"><ele>230.0</ele><time>2026-04-11T15:55:31.477Z</time></trkpt><trkpt lat="44.4679013" lon="10.9092803"><ele>230.0</ele><time>2026-04-11T15:55:33.461Z</time></trkpt><trkpt lat="44.4678421" lon="10.9091848"><ele>230.0</ele><time>2026-04-11T15:55:35.451Z</time></trkpt><trkpt lat="44.4678101" lon="10.9090746"><ele>230.0</ele><time>2026-04-11T15:55:37.479Z</time></trkpt><trkpt lat="44.4678638" lon="10.9089782"><ele>227.0</ele><time>2026-04-11T15:55:40.472Z</time></trkpt><trkpt lat="44.4679766" lon="10.9089349"><ele>224.0</ele><time>2026-04-11T15:55:42.417Z</time></trkpt><trkpt lat="44.4680505" lon="10.9089244"><ele>221.0</ele><time>2026-04-11T15:55:43.47Z</time></trkpt><trkpt lat="44.4681352" lon="10.908907"><ele>218.0</ele><time>2026-04-11T15:55:44.435Z</time></trkpt><trkpt lat="44.4682241" lon="10.9088843"><ele>215.0</ele><time>2026-04-11T15:55:45.474Z</time></trkpt><trkpt lat="44.4683118" lon="10.9088614"><ele>215.0</ele><time>2026-04-11T15:55:46.463Z</time></trkpt><trkpt lat="44.4684007" lon="10.9088382"><ele>215.0</ele><time>2026-04-11T15:55:47.437Z</time></trkpt><trkpt lat="44.4684873" lon="10.9088221"><ele>215.0</ele><time>2026-04-11T15:55:48.465Z</time></trkpt><trkpt lat="44.4685772" lon="10.9088173"><ele>215.0</ele><time>2026-04-11T15:55:49.469Z</time></trkpt><trkpt lat="44.4686688" lon="10.9088317"><ele>215.0</ele><time>2026-04-11T15:55:50.482Z</time></trkpt><trkpt lat="44.4687615" lon="10.9088731"><ele>213.8</ele><time>2026-04-11T15:55:51.457Z</time></trkpt><trkpt lat="44.4688576" lon="10.9089374"><ele>212.6</ele><time>2026-04-11T15:55:52.46Z</time></trkpt><trkpt lat="44.4689583" lon="10.9090124"><ele>211.39999999999998</ele><time>2026-04-11T15:55:53.462Z</time></trkpt><trkpt lat="44.4690596" lon="10.9090825"><ele>210.2</ele><time>2026-04-11T15:55:54.473Z</time></trkpt><trkpt lat="44.4691609" lon="10.9091403"><ele>209.0</ele><time>2026-04-11T15:55:55.482Z</time></trkpt><trkpt lat="44.4692646" lon="10.9091864"><ele>209.0</ele><time>2026-04-11T15:55:56.471Z</time></trkpt><trkpt lat="44.4693739" lon="10.9092264"><ele>209.0</ele><time>2026-04-11T15:55:57.468Z</time></trkpt><trkpt lat="44.4694878" lon="10.9092585"><ele>209.0</ele><time>2026-04-11T15:55:58.413Z</time></trkpt><trkpt lat="44.4695997" lon="10.9092861"><ele>209.0</ele><time>2026-04-11T15:55:59.405Z</time></trkpt><trkpt lat="44.4697101" lon="10.9093129"><ele>210.79999999999998</ele><time>2026-04-11T15:56:00.438Z</time></trkpt><trkpt lat="44.469819" lon="10.9093374"><ele>212.6</ele><time>2026-04-11T15:56:01.436Z</time></trkpt><trkpt lat="44.469925" lon="10.9093601"><ele>214.4</ele><time>2026-04-11T15:56:02.477Z</time></trkpt><trkpt lat="44.4700299" lon="10.9093859"><ele>216.2</ele><time>2026-04-11T15:56:03.472Z</time></trkpt><trkpt lat="44.4701323" lon="10.909414"><ele>218.0</ele><time>2026-04-11T15:56:04.48Z</time></trkpt><trkpt lat="44.470234" lon="10.9094413"><ele>218.0</ele><time>2026-04-11T15:56:05.451Z</time></trkpt><trkpt lat="44.4703387" lon="10.9094641"><ele>218.0</ele><time>2026-04-11T15:56:06.472Z</time></trkpt><trkpt lat="44.4704447" lon="10.9094738"><ele>218.0</ele><time>2026-04-11T15:56:07.459Z</time></trkpt><trkpt lat="44.4705526" lon="10.9094698"><ele>218.0</ele><time>2026-04-11T15:56:08.459Z</time></trkpt><trkpt lat="44.4706581" lon="10.9094505"><ele>218.0</ele><time>2026-04-11T15:56:09.455Z</time></trkpt><trkpt lat="44.4707628" lon="10.9094171"><ele>216.60000000000002</ele><time>2026-04-11T15:56:10.45Z</time></trkpt><trkpt lat="44.4708617" lon="10.9093708"><ele>215.20000000000002</ele><time>2026-04-11T15:56:11.469Z</time></trkpt><trkpt lat="44.4709442" lon="10.9093041"><ele>213.8</ele><time>2026-04-11T15:56:12.443Z</time></trkpt><trkpt lat="44.4710121" lon="10.9092175"><ele>212.4</ele><time>2026-04-11T15:56:13.419Z</time></trkpt><trkpt lat="44.4710677" lon="10.9091192"><ele>211.0</ele><time>2026-04-11T15:56:14.46Z</time></trkpt><trkpt lat="44.4711175" lon="10.9090256"><ele>209.33333333333331</ele><time>2026-04-11T15:56:15.464Z</time></trkpt><trkpt lat="44.4711688" lon="10.9089532"><ele>207.66666666666666</ele><time>2026-04-11T15:56:16.43Z</time></trkpt><trkpt lat="44.4712355" lon="10.9089094"><ele>206.0</ele><time>2026-04-11T15:56:17.467Z</time></trkpt><trkpt lat="44.471316" lon="10.9089056"><ele>204.33333333333331</ele><time>2026-04-11T15:56:18.427Z</time></trkpt><trkpt lat="44.4714048" lon="10.9089387"><ele>202.66666666666666</ele><time>2026-04-11T15:56:19.434Z</time></trkpt><trkpt lat="44.4715092" lon="10.9089961"><ele>201.0</ele><time>2026-04-11T15:56:20.475Z</time></trkpt><trkpt lat="44.4716345" lon="10.9090621"><ele>200.75</ele><time>2026-04-11T15:56:21.453Z</time></trkpt><trkpt lat="44.4717635" lon="10.9091255"><ele>200.5</ele><time>2026-04-11T15:56:22.461Z</time></trkpt><trkpt lat="44.4718935" lon="10.9091881"><ele>200.25</ele><time>2026-04-11T15:56:23.421Z</time></trkpt><trkpt lat="44.4720283" lon="10.9092541"><ele>200.0</ele><time>2026-04-11T15:56:24.455Z</time></trkpt><trkpt lat="44.4721661" lon="10.9093226"><ele>199.0</ele><time>2026-04-11T15:56:25.457Z</time></trkpt><trkpt lat="44.4722983" lon="10.909388"><ele>198.0</ele><time>2026-04-11T15:56:26.461Z</time></trkpt><trkpt lat="44.4724291" lon="10.9094535"><ele>197.0</ele><time>2026-04-11T15:56:27.452Z</time></trkpt><trkpt lat="44.4725616" lon="10.9095186"><ele>196.0</ele><time>2026-04-11T15:56:28.454Z</time></trkpt><trkpt lat="44.4726985" lon="10.9095836"><ele>196.0</ele><time>2026-04-11T15:56:29.451Z</time></trkpt><trkpt lat="44.4728287" lon="10.909647"><ele>196.0</ele><time>2026-04-11T15:56:30.445Z</time></trkpt><trkpt lat="44.4729539" lon="10.9097093"><ele>196.0</ele><time>2026-04-11T15:56:31.462Z</time></trkpt><trkpt lat="44.4730743" lon="10.9097709"><ele>196.0</ele><time>2026-04-11T15:56:32.445Z</time></trkpt><trkpt lat="44.4731919" lon="10.9098317"><ele>195.0</ele><time>2026-04-11T15:56:33.424Z</time></trkpt><trkpt lat="44.473307" lon="10.9098891"><ele>194.0</ele><time>2026-04-11T15:56:34.451Z</time></trkpt><trkpt lat="44.4734253" lon="10.9099417"><ele>193.0</ele><time>2026-04-11T15:56:35.486Z</time></trkpt><trkpt lat="44.4735506" lon="10.9099898"><ele>192.0</ele><time>2026-04-11T15:56:36.476Z</time></trkpt><trkpt lat="44.4736798" lon="10.9100273"><ele>191.75</ele><time>2026-04-11T15:56:37.47Z</time></trkpt><trkpt lat="44.4738132" lon="10.9100524"><ele>191.5</ele><time>2026-04-11T15:56:38.481Z</time></trkpt><trkpt lat="44.4739484" lon="10.9100694"><ele>191.25</ele><time>2026-04-11T15:56:39.478Z</time></trkpt><trkpt lat="44.4740848" lon="10.9100824"><ele>191.0</ele><time>2026-04-11T15:56:40.477Z</time></trkpt><trkpt lat="44.4742182" lon="10.9100947"><ele>191.0</ele><time>2026-04-11T15:56:41.457Z</time></trkpt><trkpt lat="44.4743486" lon="10.9101062"><ele>191.0</ele><time>2026-04-11T15:56:42.477Z</time></trkpt><trkpt lat="44.474478" lon="10.9101136"><ele>191.0</ele><time>2026-04-11T15:56:43.45Z</time></trkpt><trkpt lat="44.4746061" lon="10.9101204"><ele>191.0</ele><time>2026-04-11T15:56:44.48Z</time></trkpt><trkpt lat="44.4747281" lon="10.9101154"><ele>190.8</ele><time>2026-04-11T15:56:45.472Z</time></trkpt><trkpt lat="44.4748412" lon="10.9101079"><ele>190.60000000000002</ele><time>2026-04-11T15:56:46.48Z</time></trkpt><trkpt lat="44.4749401" lon="10.9100996"><ele>190.4</ele><time>2026-04-11T15:56:47.438Z</time></trkpt><trkpt lat="44.4750243" lon="10.9100922"><ele>190.2</ele><time>2026-04-11T15:56:48.47Z</time></trkpt><trkpt lat="44.4750916" lon="10.910084"><ele>190.0</ele><time>2026-04-11T15:56:49.483Z</time></trkpt><trkpt lat="44.4751902" lon="10.9100685"><ele>190.0</ele><time>2026-04-11T15:56:51.447Z</time></trkpt><trkpt lat="44.4752545" lon="10.9100521"><ele>190.0</ele><time>2026-04-11T15:56:54.502Z</time></trkpt><trkpt lat="44.4752972" lon="10.909978"><ele>190.0</ele><time>2026-04-11T15:56:56.469Z</time></trkpt><trkpt lat="44.4752926" lon="10.9097944"><ele>190.0</ele><time>2026-04-11T15:56:58.475Z</time></trkpt><trkpt lat="44.475279" lon="10.9096749"><ele>190.0</ele><time>2026-04-11T15:56:59.47Z</time></trkpt><trkpt lat="44.4752624" lon="10.9095338"><ele>190.0</ele><time>2026-04-11T15:57:00.466Z</time></trkpt><trkpt lat="44.4752442" lon="10.9093826"><ele>190.0</ele><time>2026-04-11T15:57:01.476Z</time></trkpt><trkpt lat="44.4752252" lon="10.9092269"><ele>190.0</ele><time>2026-04-11T15:57:02.476Z</time></trkpt><trkpt lat="44.475201" lon="10.9090546"><ele>190.0</ele><time>2026-04-11T15:57:03.456Z</time></trkpt><trkpt lat="44.4751742" lon="10.9088806"><ele>190.0</ele><time>2026-04-11T15:57:04.464Z</time></trkpt><trkpt lat="44.4751462" lon="10.9087016"><ele>190.0</ele><time>2026-04-11T15:57:05.455Z</time></trkpt><trkpt lat="44.4751174" lon="10.9085116"><ele>190.0</ele><time>2026-04-11T15:57:06.461Z</time></trkpt><trkpt lat="44.4750889" lon="10.908321"><ele>190.0</ele><time>2026-04-11T15:57:07.457Z</time></trkpt><trkpt lat="44.4750612" lon="10.9081442"><ele>190.75</ele><time>2026-04-11T15:57:08.452Z</time></trkpt><trkpt lat="44.4750343" lon="10.9079713"><ele>191.5</ele><time>2026-04-11T15:57:09.453Z</time></trkpt><trkpt lat="44.4750094" lon="10.9078113"><ele>192.25</ele><time>2026-04-11T15:57:10.454Z</time></trkpt><trkpt lat="44.4749848" lon="10.9076531"><ele>193.0</ele><time>2026-04-11T15:57:11.468Z</time></trkpt><trkpt lat="44.4749595" lon="10.9074925"><ele>193.25</ele><time>2026-04-11T15:57:12.444Z</time></trkpt><trkpt lat="44.4749336" lon="10.9073322"><ele>193.5</ele><time>2026-04-11T15:57:13.457Z</time></trkpt><trkpt lat="44.4749072" lon="10.9071683"><ele>193.75</ele><time>2026-04-11T15:57:14.452Z</time></trkpt><trkpt lat="44.4748814" lon="10.9069986"><ele>194.0</ele><time>2026-04-11T15:57:15.467Z</time></trkpt><trkpt lat="44.4748547" lon="10.9068229"><ele>194.75</ele><time>2026-04-11T15:57:16.442Z</time></trkpt><trkpt lat="44.4748252" lon="10.9066373"><ele>195.5</ele><time>2026-04-11T15:57:17.458Z</time></trkpt><trkpt lat="44.4747944" lon="10.9064452"><ele>196.25</ele><time>2026-04-11T15:57:18.443Z</time></trkpt><trkpt lat="44.4747623" lon="10.9062458"><ele>197.0</ele><time>2026-04-11T15:57:19.447Z</time></trkpt><trkpt lat="44.4747295" lon="10.9060432"><ele>197.75</ele><time>2026-04-11T15:57:20.454Z</time></trkpt><trkpt lat="44.4746977" lon="10.9058409"><ele>198.5</ele><time>2026-04-11T15:57:21.436Z</time></trkpt><trkpt lat="44.4746648" lon="10.9056374"><ele>199.25</ele><time>2026-04-11T15:57:22.452Z</time></trkpt><trkpt lat="44.4746337" lon="10.9054412"><ele>200.0</ele><time>2026-04-11T15:57:23.475Z</time></trkpt><trkpt lat="44.4746073" lon="10.9052509"><ele>200.75</ele><time>2026-04-11T15:57:24.427Z</time></trkpt><trkpt lat="44.4745813" lon="10.9050612"><ele>201.5</ele><time>2026-04-11T15:57:25.475Z</time></trkpt><trkpt lat="44.4745592" lon="10.9048652"><ele>202.25</ele><time>2026-04-11T15:57:26.467Z</time></trkpt><trkpt lat="44.4745386" lon="10.9046707"><ele>203.0</ele><time>2026-04-11T15:57:27.474Z</time></trkpt><trkpt lat="44.47452" lon="10.9044843"><ele>203.0</ele><time>2026-04-11T15:57:28.451Z</time></trkpt><trkpt lat="44.4745007" lon="10.9043045"><ele>203.0</ele><time>2026-04-11T15:57:29.449Z</time></trkpt><trkpt lat="44.4744806" lon="10.9041263"><ele>203.0</ele><time>2026-04-11T15:57:30.465Z</time></trkpt><trkpt lat="44.474458" lon="10.9039426"><ele>203.0</ele><time>2026-04-11T15:57:31.468Z</time></trkpt><trkpt lat="44.4744311" lon="10.9037562"><ele>202.75</ele><time>2026-04-11T15:57:32.51Z</time></trkpt><trkpt lat="44.4743984" lon="10.9035617"><ele>202.5</ele><time>2026-04-11T15:57:33.473Z</time></trkpt><trkpt lat="44.4743597" lon="10.9033616"><ele>202.25</ele><time>2026-04-11T15:57:34.466Z</time></trkpt><trkpt lat="44.4743168" lon="10.903157"><ele>202.0</ele><time>2026-04-11T15:57:35.477Z</time></trkpt><trkpt lat="44.4742715" lon="10.9029465"><ele>201.33333333333331</ele><time>2026-04-11T15:57:36.48Z</time></trkpt><trkpt lat="44.4742248" lon="10.902733"><ele>200.66666666666669</ele><time>2026-04-11T15:57:37.444Z</time></trkpt><trkpt lat="44.4741811" lon="10.9025286"><ele>200.0</ele><time>2026-04-11T15:57:38.47Z</time></trkpt><trkpt lat="44.4741393" lon="10.9023313"><ele>201.0</ele><time>2026-04-11T15:57:39.446Z</time></trkpt><trkpt lat="44.4740981" lon="10.902144"><ele>202.0</ele><time>2026-04-11T15:57:40.475Z</time></trkpt><trkpt lat="44.4740545" lon="10.9019634"><ele>203.0</ele><time>2026-04-11T15:57:41.448Z</time></trkpt><trkpt lat="44.4740045" lon="10.9017861"><ele>204.0</ele><time>2026-04-11T15:57:42.465Z</time></trkpt><trkpt lat="44.4739464" lon="10.9016098"><ele>204.25</ele><time>2026-04-11T15:57:43.47Z</time></trkpt><trkpt lat="44.4738842" lon="10.9014357"><ele>204.5</ele><time>2026-04-11T15:57:44.47Z</time></trkpt><trkpt lat="44.4738214" lon="10.9012607"><ele>204.75</ele><time>2026-04-11T15:57:45.442Z</time></trkpt><trkpt lat="44.473761" lon="10.9010966"><ele>205.0</ele><time>2026-04-11T15:57:46.493Z</time></trkpt><trkpt lat="44.4736995" lon="10.9009401"><ele>204.75</ele><time>2026-04-11T15:57:47.467Z</time></trkpt><trkpt lat="44.4736337" lon="10.9007886"><ele>204.5</ele><time>2026-04-11T15:57:48.48Z</time></trkpt><trkpt lat="44.4735606" lon="10.9006477"><ele>204.25</ele><time>2026-04-11T15:57:49.464Z</time></trkpt><trkpt lat="44.4734786" lon="10.9005216"><ele>204.0</ele><time>2026-04-11T15:57:50.445Z</time></trkpt><trkpt lat="44.473385" lon="10.9004148"><ele>204.0</ele><time>2026-04-11T15:57:51.458Z</time></trkpt><trkpt lat="44.4732785" lon="10.9003261"><ele>204.0</ele><time>2026-04-11T15:57:52.427Z</time></trkpt><trkpt lat="44.4731717" lon="10.9002573"><ele>204.0</ele><time>2026-04-11T15:57:53.456Z</time></trkpt><trkpt lat="44.4730766" lon="10.9002023"><ele>204.0</ele><time>2026-04-11T15:57:54.459Z</time></trkpt><trkpt lat="44.472999" lon="10.9001605"><ele>204.0</ele><time>2026-04-11T15:57:55.442Z</time></trkpt><trkpt lat="44.4729347" lon="10.9001334"><ele>204.83333333333334</ele><time>2026-04-11T15:57:56.492Z</time></trkpt><trkpt lat="44.4728322" lon="10.9000923"><ele>205.66666666666669</ele><time>2026-04-11T15:57:58.453Z</time></trkpt><trkpt lat="44.4727687" lon="10.9000514"><ele>206.5</ele><time>2026-04-11T15:58:02.453Z</time></trkpt><trkpt lat="44.4726919" lon="10.9000347"><ele>207.33333333333334</ele><time>2026-04-11T15:58:06.447Z</time></trkpt><trkpt lat="44.4726187" lon="10.9000571"><ele>208.16666666666669</ele><time>2026-04-11T16:00:08.419Z</time></trkpt><trkpt lat="44.472571" lon="10.8999952"><ele>209.0</ele><time>2026-04-11T16:00:31.454Z</time></trkpt><trkpt lat="44.4726438" lon="10.9000602"><ele>209.00000000000003</ele><time>2026-04-11T16:06:59.46Z</time></trkpt><trkpt lat="44.4727297" lon="10.9000979"><ele>209.0</ele><time>2026-04-11T16:07:02.475Z</time></trkpt><trkpt lat="44.4728097" lon="10.900135"><ele>209.0</ele><time>2026-04-11T16:07:05.449Z</time></trkpt><trkpt lat="44.4728803" lon="10.9001642"><ele>209.0</ele><time>2026-04-11T16:07:08.402Z</time></trkpt><trkpt lat="44.4729419" lon="10.9001841"><ele>209.00000000000003</ele><time>2026-04-11T16:08:13.468Z</time></trkpt><trkpt lat="44.4730026" lon="10.900222"><ele>209.0</ele><time>2026-04-11T16:08:15.477Z</time></trkpt><trkpt lat="44.4730705" lon="10.9002654"><ele>208.16666666666669</ele><time>2026-04-11T16:08:18.464Z</time></trkpt><trkpt lat="44.4731476" lon="10.9003018"><ele>207.33333333333334</ele><time>2026-04-11T16:08:26.457Z</time></trkpt><trkpt lat="44.4732281" lon="10.9003487"><ele>206.5</ele><time>2026-04-11T16:08:28.43Z</time></trkpt><trkpt lat="44.4733369" lon="10.9004324"><ele>205.66666666666669</ele><time>2026-04-11T16:08:30.452Z</time></trkpt><trkpt lat="44.4733948" lon="10.9004921"><ele>204.83333333333334</ele><time>2026-04-11T16:08:31.445Z</time></trkpt><trkpt lat="44.4734535" lon="10.9005687"><ele>204.0</ele><time>2026-04-11T16:08:32.455Z</time></trkpt><trkpt lat="44.4735095" lon="10.9006578"><ele>204.0</ele><time>2026-04-11T16:08:33.443Z</time></trkpt><trkpt lat="44.4735621" lon="10.900758"><ele>204.0</ele><time>2026-04-11T16:08:34.463Z</time></trkpt><trkpt lat="44.4736134" lon="10.9008692"><ele>204.0</ele><time>2026-04-11T16:08:35.443Z</time></trkpt><trkpt lat="44.4736617" lon="10.9009916"><ele>204.0</ele><time>2026-04-11T16:08:36.463Z</time></trkpt><trkpt lat="44.473712" lon="10.9011208"><ele>204.0</ele><time>2026-04-11T16:08:37.478Z</time></trkpt><trkpt lat="44.4737652" lon="10.9012602"><ele>204.0</ele><time>2026-04-11T16:08:38.463Z</time></trkpt><trkpt lat="44.4738194" lon="10.9013995"><ele>204.0</ele><time>2026-04-11T16:08:39.455Z</time></trkpt><trkpt lat="44.4738735" lon="10.9015368"><ele>204.0</ele><time>2026-04-11T16:08:40.455Z</time></trkpt><trkpt lat="44.4739282" lon="10.9016837"><ele>204.0</ele><time>2026-04-11T16:08:41.446Z</time></trkpt><trkpt lat="44.4739791" lon="10.9018324"><ele>204.0</ele><time>2026-04-11T16:08:42.456Z</time></trkpt><trkpt lat="44.4740226" lon="10.9019878"><ele>204.0</ele><time>2026-04-11T16:08:43.454Z</time></trkpt><trkpt lat="44.4740607" lon="10.9021541"><ele>204.0</ele><time>2026-04-11T16:08:44.449Z</time></trkpt><trkpt lat="44.4740997" lon="10.9023261"><ele>204.0</ele><time>2026-04-11T16:08:45.459Z</time></trkpt><trkpt lat="44.4741361" lon="10.9024987"><ele>203.0</ele><time>2026-04-11T16:08:46.464Z</time></trkpt><trkpt lat="44.4741709" lon="10.9026719"><ele>202.0</ele><time>2026-04-11T16:08:47.474Z</time></trkpt><trkpt lat="44.4742076" lon="10.9028434"><ele>201.0</ele><time>2026-04-11T16:08:48.459Z</time></trkpt><trkpt lat="44.4742435" lon="10.9030091"><ele>200.0</ele><time>2026-04-11T16:08:49.462Z</time></trkpt><trkpt lat="44.4742803" lon="10.903173"><ele>200.0</ele><time>2026-04-11T16:08:50.466Z</time></trkpt><trkpt lat="44.4743159" lon="10.9033353"><ele>200.0</ele><time>2026-04-11T16:08:51.44Z</time></trkpt><trkpt lat="44.4743511" lon="10.9034953"><ele>200.0</ele><time>2026-04-11T16:08:52.466Z</time></trkpt><trkpt lat="44.4743851" lon="10.9036462"><ele>200.0</ele><time>2026-04-11T16:08:53.463Z</time></trkpt><trkpt lat="44.4744112" lon="10.903803"><ele>200.5</ele><time>2026-04-11T16:08:54.45Z</time></trkpt><trkpt lat="44.4744331" lon="10.9039593"><ele>201.0</ele><time>2026-04-11T16:08:55.431Z</time></trkpt><trkpt lat="44.4744569" lon="10.9041182"><ele>201.5</ele><time>2026-04-11T16:08:56.452Z</time></trkpt><trkpt lat="44.4744751" lon="10.9042814"><ele>202.0</ele><time>2026-04-11T16:08:57.42Z</time></trkpt><trkpt lat="44.4744914" lon="10.9044478"><ele>202.25</ele><time>2026-04-11T16:08:58.468Z</time></trkpt><trkpt lat="44.4745074" lon="10.9046267"><ele>202.5</ele><time>2026-04-11T16:08:59.451Z</time></trkpt><trkpt lat="44.4745255" lon="10.9048148"><ele>202.75</ele><time>2026-04-11T16:09:00.459Z</time></trkpt><trkpt lat="44.4745481" lon="10.905011"><ele>203.0</ele><time>2026-04-11T16:09:01.432Z</time></trkpt><trkpt lat="44.4745733" lon="10.9052126"><ele>203.25</ele><time>2026-04-11T16:09:02.479Z</time></trkpt><trkpt lat="44.4746033" lon="10.9054134"><ele>203.5</ele><time>2026-04-11T16:09:03.473Z</time></trkpt><trkpt lat="44.4746358" lon="10.9056178"><ele>203.75</ele><time>2026-04-11T16:09:04.477Z</time></trkpt><trkpt lat="44.4746709" lon="10.905827"><ele>204.0</ele><time>2026-04-11T16:09:05.44Z</time></trkpt><trkpt lat="44.4747071" lon="10.9060354"><ele>202.25</ele><time>2026-04-11T16:09:06.443Z</time></trkpt><trkpt lat="44.4747412" lon="10.9062423"><ele>200.5</ele><time>2026-04-11T16:09:07.467Z</time></trkpt><trkpt lat="44.4747741" lon="10.9064389"><ele>198.75</ele><time>2026-04-11T16:09:08.455Z</time></trkpt><trkpt lat="44.4748054" lon="10.9066465"><ele>197.0</ele><time>2026-04-11T16:09:09.486Z</time></trkpt><trkpt lat="44.4748367" lon="10.9068477"><ele>196.25</ele><time>2026-04-11T16:09:10.462Z</time></trkpt><trkpt lat="44.4748744" lon="10.9070466"><ele>195.5</ele><time>2026-04-11T16:09:11.481Z</time></trkpt><trkpt lat="44.4749135" lon="10.9072547"><ele>194.75</ele><time>2026-04-11T16:09:12.424Z</time></trkpt><trkpt lat="44.4749482" lon="10.9074549"><ele>194.0</ele><time>2026-04-11T16:09:13.461Z</time></trkpt><trkpt lat="44.4749825" lon="10.9076621"><ele>193.66666666666669</ele><time>2026-04-11T16:09:14.462Z</time></trkpt><trkpt lat="44.4750137" lon="10.907874"><ele>193.33333333333331</ele><time>2026-04-11T16:09:15.469Z</time></trkpt><trkpt lat="44.4750455" lon="10.9080892"><ele>193.0</ele><time>2026-04-11T16:09:16.449Z</time></trkpt><trkpt lat="44.4750798" lon="10.9082936"><ele>192.25</ele><time>2026-04-11T16:09:17.45Z</time></trkpt><trkpt lat="44.4751123" lon="10.9084871"><ele>191.5</ele><time>2026-04-11T16:09:18.452Z</time></trkpt><trkpt lat="44.4751404" lon="10.9086756"><ele>190.75</ele><time>2026-04-11T16:09:19.491Z</time></trkpt><trkpt lat="44.4751686" lon="10.9088505"><ele>190.0</ele><time>2026-04-11T16:09:20.453Z</time></trkpt><trkpt lat="44.4751906" lon="10.9090127"><ele>190.0</ele><time>2026-04-11T16:09:21.459Z</time></trkpt><trkpt lat="44.4752118" lon="10.9091665"><ele>190.0</ele><time>2026-04-11T16:09:22.448Z</time></trkpt><trkpt lat="44.4752305" lon="10.9093102"><ele>190.0</ele><time>2026-04-11T16:09:23.469Z</time></trkpt><trkpt lat="44.4752471" lon="10.9094477"><ele>190.0</ele><time>2026-04-11T16:09:24.449Z</time></trkpt><trkpt lat="44.4752629" lon="10.9095764"><ele>190.0</ele><time>2026-04-11T16:09:25.45Z</time></trkpt><trkpt lat="44.4752735" lon="10.9096927"><ele>190.0</ele><time>2026-04-11T16:09:26.445Z</time></trkpt><trkpt lat="44.4752806" lon="10.9097933"><ele>190.0</ele><time>2026-04-11T16:09:27.469Z</time></trkpt><trkpt lat="44.4753029" lon="10.909942"><ele>190.0</ele><time>2026-04-11T16:09:29.471Z</time></trkpt><trkpt lat="44.4753641" lon="10.9100232"><ele>190.0</ele><time>2026-04-11T16:09:31.476Z</time></trkpt><trkpt lat="44.4754952" lon="10.9099889"><ele>190.0</ele><time>2026-04-11T16:09:33.484Z</time></trkpt><trkpt lat="44.4755876" lon="10.9099974"><ele>190.2</ele><time>2026-04-11T16:09:34.469Z</time></trkpt><trkpt lat="44.4756725" lon="10.9100086"><ele>190.4</ele><time>2026-04-11T16:09:35.452Z</time></trkpt><trkpt lat="44.4757666" lon="10.9100413"><ele>190.60000000000002</ele><time>2026-04-11T16:09:36.471Z</time></trkpt><trkpt lat="44.4758439" lon="10.910106"><ele>190.8</ele><time>2026-04-11T16:09:37.456Z</time></trkpt><trkpt lat="44.4759129" lon="10.9101908"><ele>191.0</ele><time>2026-04-11T16:09:38.466Z</time></trkpt><trkpt lat="44.4759766" lon="10.9102872"><ele>191.0</ele><time>2026-04-11T16:09:39.468Z</time></trkpt><trkpt lat="44.4760392" lon="10.9103816"><ele>191.0</ele><time>2026-04-11T16:09:40.471Z</time></trkpt><trkpt lat="44.476101" lon="10.9104662"><ele>191.0</ele><time>2026-04-11T16:09:41.46Z</time></trkpt><trkpt lat="44.47617" lon="10.9105455"><ele>191.0</ele><time>2026-04-11T16:09:42.475Z</time></trkpt><trkpt lat="44.4762446" lon="10.9106178"><ele>191.0</ele><time>2026-04-11T16:09:43.421Z</time></trkpt><trkpt lat="44.4763191" lon="10.9106905"><ele>191.0</ele><time>2026-04-11T16:09:44.477Z</time></trkpt><trkpt lat="44.4763988" lon="10.9107643"><ele>192.0</ele><time>2026-04-11T16:09:45.471Z</time></trkpt><trkpt lat="44.4764781" lon="10.9108288"><ele>193.0</ele><time>2026-04-11T16:09:46.443Z</time></trkpt><trkpt lat="44.4765709" lon="10.910901"><ele>194.0</ele><time>2026-04-11T16:09:47.458Z</time></trkpt><trkpt lat="44.4766515" lon="10.9109768"><ele>195.0</ele><time>2026-04-11T16:09:48.45Z</time></trkpt><trkpt lat="44.476745" lon="10.9110634"><ele>196.0</ele><time>2026-04-11T16:09:49.447Z</time></trkpt><trkpt lat="44.4768367" lon="10.9111295"><ele>196.0</ele><time>2026-04-11T16:09:50.465Z</time></trkpt><trkpt lat="44.4769158" lon="10.9111904"><ele>196.0</ele><time>2026-04-11T16:09:51.464Z</time></trkpt><trkpt lat="44.4769947" lon="10.9112449"><ele>196.0</ele><time>2026-04-11T16:09:52.458Z</time></trkpt><trkpt lat="44.4770726" lon="10.9113255"><ele>196.0</ele><time>2026-04-11T16:09:53.43Z</time></trkpt><trkpt lat="44.4771385" lon="10.9114049"><ele>196.0</ele><time>2026-04-11T16:09:54.459Z</time></trkpt><trkpt lat="44.4772082" lon="10.9114812"><ele>197.60000000000002</ele><time>2026-04-11T16:09:55.405Z</time></trkpt><trkpt lat="44.4772555" lon="10.9116009"><ele>199.2</ele><time>2026-04-11T16:09:56.414Z</time></trkpt><trkpt lat="44.4773055" lon="10.9117121"><ele>200.8</ele><time>2026-04-11T16:09:57.464Z</time></trkpt><trkpt lat="44.477353" lon="10.9118449"><ele>202.39999999999998</ele><time>2026-04-11T16:09:58.461Z</time></trkpt><trkpt lat="44.4774075" lon="10.9119745"><ele>204.0</ele><time>2026-04-11T16:09:59.458Z</time></trkpt><trkpt lat="44.4774645" lon="10.9121005"><ele>204.0</ele><time>2026-04-11T16:10:00.448Z</time></trkpt><trkpt lat="44.4775246" lon="10.9122097"><ele>204.0</ele><time>2026-04-11T16:10:01.466Z</time></trkpt><trkpt lat="44.4775907" lon="10.9123087"><ele>204.0</ele><time>2026-04-11T16:10:02.451Z</time></trkpt><trkpt lat="44.4776638" lon="10.9124104"><ele>204.0</ele><time>2026-04-11T16:10:03.437Z</time></trkpt><trkpt lat="44.4777394" lon="10.9125107"><ele>204.0</ele><time>2026-04-11T16:10:04.462Z</time></trkpt><trkpt lat="44.4778158" lon="10.9126132"><ele>202.39999999999998</ele><time>2026-04-11T16:10:05.461Z</time></trkpt><trkpt lat="44.4778933" lon="10.9127145"><ele>200.8</ele><time>2026-04-11T16:10:06.463Z</time></trkpt><trkpt lat="44.4779723" lon="10.9128112"><ele>199.2</ele><time>2026-04-11T16:10:07.403Z</time></trkpt><trkpt lat="44.4780525" lon="10.9129026"><ele>197.60000000000002</ele><time>2026-04-11T16:10:08.443Z</time></trkpt><trkpt lat="44.478128" lon="10.9129921"><ele>196.0</ele><time>2026-04-11T16:10:09.443Z</time></trkpt><trkpt lat="44.4782142" lon="10.9130664"><ele>199.4</ele><time>2026-04-11T16:10:10.459Z</time></trkpt><trkpt lat="44.4783019" lon="10.9131277"><ele>202.8</ele><time>2026-04-11T16:10:11.466Z</time></trkpt><trkpt lat="44.4783924" lon="10.9131811"><ele>206.20000000000002</ele><time>2026-04-11T16:10:12.45Z</time></trkpt><trkpt lat="44.4784884" lon="10.9132415"><ele>209.60000000000002</ele><time>2026-04-11T16:10:13.487Z</time></trkpt><trkpt lat="44.478591" lon="10.9132847"><ele>213.0</ele><time>2026-04-11T16:10:14.457Z</time></trkpt><trkpt lat="44.4786862" lon="10.9133199"><ele>214.0</ele><time>2026-04-11T16:10:15.462Z</time></trkpt><trkpt lat="44.4787809" lon="10.9133526"><ele>215.0</ele><time>2026-04-11T16:10:16.446Z</time></trkpt><trkpt lat="44.4788781" lon="10.9133883"><ele>216.0</ele><time>2026-04-11T16:10:17.457Z</time></trkpt><trkpt lat="44.4789686" lon="10.9134389"><ele>217.0</ele><time>2026-04-11T16:10:18.442Z</time></trkpt><trkpt lat="44.4790502" lon="10.9135072"><ele>218.0</ele><time>2026-04-11T16:10:19.471Z</time></trkpt><trkpt lat="44.4791221" lon="10.9135971"><ele>218.0</ele><time>2026-04-11T16:10:20.482Z</time></trkpt><trkpt lat="44.4791876" lon="10.9136972"><ele>218.0</ele><time>2026-04-11T16:10:21.461Z</time></trkpt><trkpt lat="44.4792544" lon="10.9138021"><ele>218.0</ele><time>2026-04-11T16:10:22.467Z</time></trkpt><trkpt lat="44.4793208" lon="10.9138969"><ele>218.0</ele><time>2026-04-11T16:10:23.455Z</time></trkpt><trkpt lat="44.479386" lon="10.9139814"><ele>218.0</ele><time>2026-04-11T16:10:24.492Z</time></trkpt><trkpt lat="44.4794462" lon="10.9140522"><ele>218.0</ele><time>2026-04-11T16:10:25.448Z</time></trkpt><trkpt lat="44.479499" lon="10.9141091"><ele>218.0</ele><time>2026-04-11T16:10:26.471Z</time></trkpt><trkpt lat="44.4795795" lon="10.9141862"><ele>218.0</ele><time>2026-04-11T16:10:28.449Z</time></trkpt><trkpt lat="44.4796617" lon="10.9142355"><ele>218.0</ele><time>2026-04-11T16:10:37.459Z</time></trkpt><trkpt lat="44.4797463" lon="10.9142215"><ele>218.0</ele><time>2026-04-11T16:10:45.491Z</time></trkpt><trkpt lat="44.4798408" lon="10.9140737"><ele>220.8</ele><time>2026-04-11T16:10:47.485Z</time></trkpt><trkpt lat="44.4799043" lon="10.9139767"><ele>223.60000000000002</ele><time>2026-04-11T16:10:48.438Z</time></trkpt><trkpt lat="44.4799766" lon="10.9138818"><ele>226.39999999999998</ele><time>2026-04-11T16:10:49.478Z</time></trkpt><trkpt lat="44.4800546" lon="10.9138043"><ele>229.2</ele><time>2026-04-11T16:10:50.454Z</time></trkpt><trkpt lat="44.4801419" lon="10.9137534"><ele>232.0</ele><time>2026-04-11T16:10:51.465Z</time></trkpt><trkpt lat="44.4802399" lon="10.9137416"><ele>232.0</ele><time>2026-04-11T16:10:52.45Z</time></trkpt><trkpt lat="44.4803508" lon="10.913765"><ele>232.0</ele><time>2026-04-11T16:10:53.479Z</time></trkpt><trkpt lat="44.4804697" lon="10.9138145"><ele>232.0</ele><time>2026-04-11T16:10:54.455Z</time></trkpt><trkpt lat="44.4805877" lon="10.9138723"><ele>232.0</ele><time>2026-04-11T16:10:55.473Z</time></trkpt><trkpt lat="44.4807116" lon="10.9139379"><ele>233.0</ele><time>2026-04-11T16:10:56.479Z</time></trkpt><trkpt lat="44.4808439" lon="10.9140056"><ele>234.0</ele><time>2026-04-11T16:10:57.408Z</time></trkpt><trkpt lat="44.480975" lon="10.914065"><ele>235.0</ele><time>2026-04-11T16:10:58.486Z</time></trkpt><trkpt lat="44.4810989" lon="10.9141165"><ele>236.0</ele><time>2026-04-11T16:10:59.46Z</time></trkpt><trkpt lat="44.4812168" lon="10.9141581"><ele>237.20000000000002</ele><time>2026-04-11T16:11:00.457Z</time></trkpt><trkpt lat="44.4813275" lon="10.9141888"><ele>238.40000000000003</ele><time>2026-04-11T16:11:01.429Z</time></trkpt><trkpt lat="44.4814351" lon="10.914211"><ele>239.6</ele><time>2026-04-11T16:11:02.441Z</time></trkpt><trkpt lat="44.4815388" lon="10.914219"><ele>240.8</ele><time>2026-04-11T16:11:03.47Z</time></trkpt><trkpt lat="44.4816376" lon="10.9142036"><ele>242.0</ele><time>2026-04-11T16:11:04.471Z</time></trkpt><trkpt lat="44.4817289" lon="10.9141516"><ele>242.0</ele><time>2026-04-11T16:11:05.45Z</time></trkpt><trkpt lat="44.4818068" lon="10.9140659"><ele>242.0</ele><time>2026-04-11T16:11:06.463Z</time></trkpt><trkpt lat="44.481875" lon="10.9139546"><ele>242.0</ele><time>2026-04-11T16:11:07.46Z</time></trkpt><trkpt lat="44.4819387" lon="10.9138267"><ele>242.0</ele><time>2026-04-11T16:11:08.395Z</time></trkpt><trkpt lat="44.4819976" lon="10.9137058"><ele>242.0</ele><time>2026-04-11T16:11:09.46Z</time></trkpt><trkpt lat="44.4820514" lon="10.9135685"><ele>242.2</ele><time>2026-04-11T16:11:10.45Z</time></trkpt><trkpt lat="44.4821202" lon="10.9134623"><ele>242.39999999999998</ele><time>2026-04-11T16:11:11.435Z</time></trkpt><trkpt lat="44.4821774" lon="10.9133466"><ele>242.60000000000002</ele><time>2026-04-11T16:11:12.473Z</time></trkpt><trkpt lat="44.4822368" lon="10.9132401"><ele>242.8</ele><time>2026-04-11T16:11:13.418Z</time></trkpt><trkpt lat="44.4822846" lon="10.9131234"><ele>243.0</ele><time>2026-04-11T16:11:14.442Z</time></trkpt><trkpt lat="44.4823377" lon="10.9130049"><ele>243.2</ele><time>2026-04-11T16:11:15.447Z</time></trkpt><trkpt lat="44.482388" lon="10.9128896"><ele>243.4</ele><time>2026-04-11T16:11:16.462Z</time></trkpt><trkpt lat="44.4824253" lon="10.9127676"><ele>243.59999999999997</ele><time>2026-04-11T16:11:17.465Z</time></trkpt><trkpt lat="44.482458" lon="10.9126389"><ele>243.79999999999998</ele><time>2026-04-11T16:11:18.459Z</time></trkpt><trkpt lat="44.4824963" lon="10.9124942"><ele>244.0</ele><time>2026-04-11T16:11:19.463Z</time></trkpt><trkpt lat="44.4825381" lon="10.9123368"><ele>244.0</ele><time>2026-04-11T16:11:20.448Z</time></trkpt><trkpt lat="44.4825841" lon="10.9121676"><ele>244.0</ele><time>2026-04-11T16:11:21.481Z</time></trkpt><trkpt lat="44.4826281" lon="10.9119971"><ele>244.0</ele><time>2026-04-11T16:11:22.481Z</time></trkpt><trkpt lat="44.482668" lon="10.9118274"><ele>244.0</ele><time>2026-04-11T16:11:23.453Z</time></trkpt><trkpt lat="44.4827078" lon="10.9116555"><ele>243.0</ele><time>2026-04-11T16:11:24.452Z</time></trkpt><trkpt lat="44.482747" lon="10.9114851"><ele>242.0</ele><time>2026-04-11T16:11:25.465Z</time></trkpt><trkpt lat="44.4827894" lon="10.911322"><ele>241.0</ele><time>2026-04-11T16:11:26.48Z</time></trkpt><trkpt lat="44.4828339" lon="10.9111653"><ele>240.0</ele><time>2026-04-11T16:11:27.455Z</time></trkpt><trkpt lat="44.4828859" lon="10.9110216"><ele>238.25</ele><time>2026-04-11T16:11:28.462Z</time></trkpt><trkpt lat="44.4829493" lon="10.9108858"><ele>236.5</ele><time>2026-04-11T16:11:29.435Z</time></trkpt><trkpt lat="44.4830236" lon="10.9107605"><ele>234.75</ele><time>2026-04-11T16:11:30.47Z</time></trkpt><trkpt lat="44.483111" lon="10.9106526"><ele>233.0</ele><time>2026-04-11T16:11:31.471Z</time></trkpt><trkpt lat="44.4832116" lon="10.9105516"><ele>233.0</ele><time>2026-04-11T16:11:32.443Z</time></trkpt><trkpt lat="44.4833191" lon="10.9104593"><ele>233.0</ele><time>2026-04-11T16:11:33.47Z</time></trkpt><trkpt lat="44.4834315" lon="10.9103802"><ele>233.0</ele><time>2026-04-11T16:11:34.476Z</time></trkpt><trkpt lat="44.4835551" lon="10.9103214"><ele>233.0</ele><time>2026-04-11T16:11:35.433Z</time></trkpt><trkpt lat="44.4836869" lon="10.9102843"><ele>231.5</ele><time>2026-04-11T16:11:36.469Z</time></trkpt><trkpt lat="44.4838273" lon="10.910268"><ele>230.0</ele><time>2026-04-11T16:11:37.452Z</time></trkpt><trkpt lat="44.4839704" lon="10.9102581"><ele>228.5</ele><time>2026-04-11T16:11:38.444Z</time></trkpt><trkpt lat="44.4841084" lon="10.9102498"><ele>227.0</ele><time>2026-04-11T16:11:39.447Z</time></trkpt><trkpt lat="44.4842418" lon="10.9102417"><ele>227.0</ele><time>2026-04-11T16:11:40.473Z</time></trkpt><trkpt lat="44.4843721" lon="10.9102336"><ele>227.0</ele><time>2026-04-11T16:11:41.462Z</time></trkpt><trkpt lat="44.484505" lon="10.9102266"><ele>227.0</ele><time>2026-04-11T16:11:42.423Z</time></trkpt><trkpt lat="44.4846361" lon="10.9102193"><ele>227.0</ele><time>2026-04-11T16:11:43.45Z</time></trkpt><trkpt lat="44.4847615" lon="10.9102108"><ele>225.75</ele><time>2026-04-11T16:11:44.455Z</time></trkpt><trkpt lat="44.4848825" lon="10.9101996"><ele>224.5</ele><time>2026-04-11T16:11:45.452Z</time></trkpt><trkpt lat="44.4850003" lon="10.9101815"><ele>223.25</ele><time>2026-04-11T16:11:46.481Z</time></trkpt><trkpt lat="44.4851141" lon="10.9101517"><ele>222.0</ele><time>2026-04-11T16:11:47.469Z</time></trkpt><trkpt lat="44.4852233" lon="10.9101051"><ele>222.0</ele><time>2026-04-11T16:11:48.449Z</time></trkpt><trkpt lat="44.4853235" lon="10.9100389"><ele>222.0</ele><time>2026-04-11T16:11:49.417Z</time></trkpt><trkpt lat="44.485418" lon="10.9099558"><ele>222.0</ele><time>2026-04-11T16:11:50.463Z</time></trkpt><trkpt lat="44.4855044" lon="10.9098653"><ele>222.0</ele><time>2026-04-11T16:11:51.467Z</time></trkpt><trkpt lat="44.4855801" lon="10.9097667"><ele>222.0</ele><time>2026-04-11T16:11:52.466Z</time></trkpt><trkpt lat="44.4856422" lon="10.9096548"><ele>222.0</ele><time>2026-04-11T16:11:53.472Z</time></trkpt><trkpt lat="44.4856893" lon="10.9095266"><ele>222.0</ele><time>2026-04-11T16:11:54.479Z</time></trkpt><trkpt lat="44.4857237" lon="10.9093909"><ele>222.0</ele><time>2026-04-11T16:11:55.434Z</time></trkpt><trkpt lat="44.4857528" lon="10.9092546"><ele>222.0</ele><time>2026-04-11T16:11:56.443Z</time></trkpt><trkpt lat="44.4857803" lon="10.9091165"><ele>222.0</ele><time>2026-04-11T16:11:57.453Z</time></trkpt><trkpt lat="44.4858061" lon="10.9089775"><ele>222.8</ele><time>2026-04-11T16:11:58.477Z</time></trkpt><trkpt lat="44.4858308" lon="10.9088431"><ele>223.6</ele><time>2026-04-11T16:11:59.401Z</time></trkpt><trkpt lat="44.4858568" lon="10.9087113"><ele>224.40000000000003</ele><time>2026-04-11T16:12:00.47Z</time></trkpt><trkpt lat="44.4858818" lon="10.9085835"><ele>225.20000000000002</ele><time>2026-04-11T16:12:01.439Z</time></trkpt><trkpt lat="44.4859042" lon="10.9084615"><ele>226.0</ele><time>2026-04-11T16:12:02.459Z</time></trkpt><trkpt lat="44.4859239" lon="10.908348"><ele>226.16666666666666</ele><time>2026-04-11T16:12:03.474Z</time></trkpt><trkpt lat="44.4859427" lon="10.9082496"><ele>226.33333333333331</ele><time>2026-04-11T16:12:04.466Z</time></trkpt><trkpt lat="44.485972" lon="10.908086"><ele>226.5</ele><time>2026-04-11T16:12:06.477Z</time></trkpt><trkpt lat="44.4859984" lon="10.9079525"><ele>226.66666666666669</ele><time>2026-04-11T16:12:08.484Z</time></trkpt><trkpt lat="44.4860665" lon="10.9078718"><ele>226.83333333333334</ele><time>2026-04-11T16:12:10.397Z</time></trkpt><trkpt lat="44.4861305" lon="10.9078527"><ele>227.0</ele><time>2026-04-11T16:12:11.438Z</time></trkpt><trkpt lat="44.4862077" lon="10.9078471"><ele>225.0</ele><time>2026-04-11T16:12:12.424Z</time></trkpt><trkpt lat="44.4862977" lon="10.9078352"><ele>223.0</ele><time>2026-04-11T16:12:13.463Z</time></trkpt><trkpt lat="44.4863949" lon="10.9078281"><ele>221.0</ele><time>2026-04-11T16:12:14.465Z</time></trkpt><trkpt lat="44.4864978" lon="10.9078251"><ele>219.0</ele><time>2026-04-11T16:12:15.45Z</time></trkpt><trkpt lat="44.4866049" lon="10.9078252"><ele>217.0</ele><time>2026-04-11T16:12:16.441Z</time></trkpt><trkpt lat="44.4867104" lon="10.9078276"><ele>216.99999999999997</ele><time>2026-04-11T16:12:17.452Z</time></trkpt><trkpt lat="44.4868075" lon="10.9078303"><ele>217.0</ele><time>2026-04-11T16:12:18.439Z</time></trkpt><trkpt lat="44.4868967" lon="10.9078333"><ele>217.0</ele><time>2026-04-11T16:12:19.438Z</time></trkpt><trkpt lat="44.4869746" lon="10.907834"><ele>217.0</ele><time>2026-04-11T16:12:20.409Z</time></trkpt><trkpt lat="44.4870407" lon="10.9078315"><ele>216.99999999999997</ele><time>2026-04-11T16:12:21.441Z</time></trkpt><trkpt lat="44.4871361" lon="10.9077881"><ele>217.0</ele><time>2026-04-11T16:12:23.455Z</time></trkpt><trkpt lat="44.4871536" lon="10.9076392"><ele>216.2</ele><time>2026-04-11T16:12:25.425Z</time></trkpt><trkpt lat="44.4871227" lon="10.9075384"><ele>215.39999999999998</ele><time>2026-04-11T16:12:26.449Z</time></trkpt><trkpt lat="44.4870794" lon="10.9074239"><ele>214.60000000000002</ele><time>2026-04-11T16:12:27.478Z</time></trkpt><trkpt lat="44.4870417" lon="10.9073039"><ele>213.8</ele><time>2026-04-11T16:12:28.472Z</time></trkpt><trkpt lat="44.4870154" lon="10.9071744"><ele>213.0</ele><time>2026-04-11T16:12:29.399Z</time></trkpt><trkpt lat="44.4870051" lon="10.907037"><ele>213.0</ele><time>2026-04-11T16:12:30.456Z</time></trkpt><trkpt lat="44.4870105" lon="10.9068979"><ele>213.0</ele><time>2026-04-11T16:12:31.471Z</time></trkpt><trkpt lat="44.4870343" lon="10.9067615"><ele>213.0</ele><time>2026-04-11T16:12:32.461Z</time></trkpt><trkpt lat="44.4870797" lon="10.9066361"><ele>213.0</ele><time>2026-04-11T16:12:33.46Z</time></trkpt><trkpt lat="44.4871441" lon="10.9065332"><ele>213.0</ele><time>2026-04-11T16:12:34.445Z</time></trkpt><trkpt lat="44.4872295" lon="10.9064554"><ele>211.75</ele><time>2026-04-11T16:12:35.462Z</time></trkpt><trkpt lat="44.4873328" lon="10.906398"><ele>210.5</ele><time>2026-04-11T16:12:36.466Z</time></trkpt><trkpt lat="44.4874486" lon="10.9063587"><ele>209.25</ele><time>2026-04-11T16:12:37.479Z</time></trkpt><trkpt lat="44.487571" lon="10.9063327"><ele>208.0</ele><time>2026-04-11T16:12:38.462Z</time></trkpt><trkpt lat="44.4876988" lon="10.9063099"><ele>208.0</ele><time>2026-04-11T16:12:39.434Z</time></trkpt><trkpt lat="44.487831" lon="10.9062845"><ele>208.0</ele><time>2026-04-11T16:12:40.466Z</time></trkpt><trkpt lat="44.4879681" lon="10.9062571"><ele>208.0</ele><time>2026-04-11T16:12:41.47Z</time></trkpt><trkpt lat="44.4881021" lon="10.9062288"><ele>208.0</ele><time>2026-04-11T16:12:42.442Z</time></trkpt><trkpt lat="44.488226" lon="10.9062066"><ele>208.2</ele><time>2026-04-11T16:12:43.455Z</time></trkpt><trkpt lat="44.4883425" lon="10.9061928"><ele>208.4</ele><time>2026-04-11T16:12:44.47Z</time></trkpt><trkpt lat="44.4884503" lon="10.9061793"><ele>208.6</ele><time>2026-04-11T16:12:45.412Z</time></trkpt><trkpt lat="44.4885515" lon="10.9061943"><ele>208.79999999999998</ele><time>2026-04-11T16:12:46.449Z</time></trkpt><trkpt lat="44.4886492" lon="10.9062103"><ele>209.0</ele><time>2026-04-11T16:12:47.456Z</time></trkpt><trkpt lat="44.4887547" lon="10.9062249"><ele>210.0</ele><time>2026-04-11T16:12:48.468Z</time></trkpt><trkpt lat="44.4888596" lon="10.9062508"><ele>211.0</ele><time>2026-04-11T16:12:49.45Z</time></trkpt><trkpt lat="44.4889629" lon="10.9062995"><ele>212.0</ele><time>2026-04-11T16:12:50.441Z</time></trkpt><trkpt lat="44.4890618" lon="10.9063774"><ele>213.0</ele><time>2026-04-11T16:12:51.444Z</time></trkpt><trkpt lat="44.4891595" lon="10.9064824"><ele>213.0</ele><time>2026-04-11T16:12:52.47Z</time></trkpt><trkpt lat="44.4892574" lon="10.9065986"><ele>213.0</ele><time>2026-04-11T16:12:53.461Z</time></trkpt><trkpt lat="44.4893575" lon="10.9067185"><ele>213.0</ele><time>2026-04-11T16:12:54.463Z</time></trkpt><trkpt lat="44.4894615" lon="10.9068428"><ele>213.0</ele><time>2026-04-11T16:12:55.459Z</time></trkpt><trkpt lat="44.4895657" lon="10.9069686"><ele>213.75</ele><time>2026-04-11T16:12:56.481Z</time></trkpt><trkpt lat="44.4896719" lon="10.907098"><ele>214.5</ele><time>2026-04-11T16:12:57.458Z</time></trkpt><trkpt lat="44.4897788" lon="10.907229"><ele>215.25</ele><time>2026-04-11T16:12:58.451Z</time></trkpt><trkpt lat="44.489887" lon="10.9073603"><ele>216.0</ele><time>2026-04-11T16:12:59.481Z</time></trkpt><trkpt lat="44.4900024" lon="10.9075004"><ele>216.5</ele><time>2026-04-11T16:13:00.48Z</time></trkpt><trkpt lat="44.4901123" lon="10.9076369"><ele>217.0</ele><time>2026-04-11T16:13:01.488Z</time></trkpt><trkpt lat="44.4902175" lon="10.9077679"><ele>217.5</ele><time>2026-04-11T16:13:02.46Z</time></trkpt><trkpt lat="44.4903242" lon="10.9079016"><ele>218.0</ele><time>2026-04-11T16:13:03.468Z</time></trkpt><trkpt lat="44.4904335" lon="10.9080366"><ele>218.0</ele><time>2026-04-11T16:13:04.462Z</time></trkpt><trkpt lat="44.4905457" lon="10.9081735"><ele>218.0</ele><time>2026-04-11T16:13:05.483Z</time></trkpt><trkpt lat="44.4906615" lon="10.908318"><ele>218.0</ele><time>2026-04-11T16:13:06.48Z</time></trkpt><trkpt lat="44.4907799" lon="10.9084633"><ele>216.33333333333334</ele><time>2026-04-11T16:13:07.468Z</time></trkpt><trkpt lat="44.4908998" lon="10.9086113"><ele>214.66666666666669</ele><time>2026-04-11T16:13:08.462Z</time></trkpt><trkpt lat="44.4910206" lon="10.908759"><ele>213.0</ele><time>2026-04-11T16:13:09.466Z</time></trkpt><trkpt lat="44.4911414" lon="10.9089068"><ele>213.66666666666669</ele><time>2026-04-11T16:13:10.438Z</time></trkpt><trkpt lat="44.491264" lon="10.9090561"><ele>214.33333333333334</ele><time>2026-04-11T16:13:11.452Z</time></trkpt><trkpt lat="44.4913841" lon="10.909204"><ele>215.0</ele><time>2026-04-11T16:13:12.459Z</time></trkpt><trkpt lat="44.4914988" lon="10.9093444"><ele>215.0</ele><time>2026-04-11T16:13:13.449Z</time></trkpt><trkpt lat="44.491609" lon="10.9094809"><ele>215.0</ele><time>2026-04-11T16:13:14.451Z</time></trkpt><trkpt lat="44.4917184" lon="10.9096169"><ele>215.0</ele><time>2026-04-11T16:13:15.457Z</time></trkpt><trkpt lat="44.4918278" lon="10.9097544"><ele>215.0</ele><time>2026-04-11T16:13:16.478Z</time></trkpt><trkpt lat="44.4919342" lon="10.9098873"><ele>215.0</ele><time>2026-04-11T16:13:17.46Z</time></trkpt><trkpt lat="44.4920399" lon="10.9100103"><ele>215.0</ele><time>2026-04-11T16:13:18.475Z</time></trkpt><trkpt lat="44.4921453" lon="10.9101161"><ele>215.0</ele><time>2026-04-11T16:13:19.467Z</time></trkpt><trkpt lat="44.4922564" lon="10.9101948"><ele>215.0</ele><time>2026-04-11T16:13:20.449Z</time></trkpt><trkpt lat="44.4923746" lon="10.9102371"><ele>212.0</ele><time>2026-04-11T16:13:21.472Z</time></trkpt><trkpt lat="44.4925035" lon="10.9102511"><ele>209.0</ele><time>2026-04-11T16:13:22.46Z</time></trkpt><trkpt lat="44.4926394" lon="10.9102792"><ele>206.0</ele><time>2026-04-11T16:13:23.458Z</time></trkpt><trkpt lat="44.492789" lon="10.9102858"><ele>203.0</ele><time>2026-04-11T16:13:24.469Z</time></trkpt><trkpt lat="44.4929435" lon="10.9103044"><ele>202.5</ele><time>2026-04-11T16:13:25.455Z</time></trkpt><trkpt lat="44.4930944" lon="10.9103019"><ele>202.0</ele><time>2026-04-11T16:13:26.448Z</time></trkpt><trkpt lat="44.4932322" lon="10.9103007"><ele>201.5</ele><time>2026-04-11T16:13:27.472Z</time></trkpt><trkpt lat="44.4933623" lon="10.9102943"><ele>201.0</ele><time>2026-04-11T16:13:28.477Z</time></trkpt><trkpt lat="44.4935045" lon="10.9103044"><ele>201.0</ele><time>2026-04-11T16:13:29.481Z</time></trkpt><trkpt lat="44.493628" lon="10.9103037"><ele>201.0</ele><time>2026-04-11T16:13:30.413Z</time></trkpt><trkpt lat="44.4937616" lon="10.9103008"><ele>201.0</ele><time>2026-04-11T16:13:31.468Z</time></trkpt><trkpt lat="44.4939027" lon="10.9103064"><ele>201.0</ele><time>2026-04-11T16:13:32.445Z</time></trkpt><trkpt lat="44.4940379" lon="10.9103109"><ele>199.5</ele><time>2026-04-11T16:13:33.48Z</time></trkpt><trkpt lat="44.4941769" lon="10.9103062"><ele>198.0</ele><time>2026-04-11T16:13:34.455Z</time></trkpt><trkpt lat="44.4943192" lon="10.9103027"><ele>196.5</ele><time>2026-04-11T16:13:35.432Z</time></trkpt><trkpt lat="44.494466" lon="10.9102943"><ele>195.0</ele><time>2026-04-11T16:13:36.443Z</time></trkpt><trkpt lat="44.4946118" lon="10.9102731"><ele>193.5</ele><time>2026-04-11T16:13:37.474Z</time></trkpt><trkpt lat="44.4947568" lon="10.9102389"><ele>192.0</ele><time>2026-04-11T16:13:38.471Z</time></trkpt><trkpt lat="44.4948995" lon="10.9101902"><ele>190.5</ele><time>2026-04-11T16:13:39.418Z</time></trkpt><trkpt lat="44.4950434" lon="10.9101274"><ele>189.0</ele><time>2026-04-11T16:13:40.452Z</time></trkpt><trkpt lat="44.4951842" lon="10.9100481"><ele>190.5</ele><time>2026-04-11T16:13:41.455Z</time></trkpt><trkpt lat="44.4953182" lon="10.9099533"><ele>192.0</ele><time>2026-04-11T16:13:42.448Z</time></trkpt><trkpt lat="44.495445" lon="10.909853"><ele>193.5</ele><time>2026-04-11T16:13:43.45Z</time></trkpt><trkpt lat="44.495567" lon="10.9097509"><ele>195.0</ele><time>2026-04-11T16:13:44.456Z</time></trkpt><trkpt lat="44.495685" lon="10.9096567"><ele>195.0</ele><time>2026-04-11T16:13:45.442Z</time></trkpt><trkpt lat="44.495803" lon="10.9095708"><ele>195.0</ele><time>2026-04-11T16:13:46.484Z</time></trkpt><trkpt lat="44.4959203" lon="10.9094962"><ele>195.0</ele><time>2026-04-11T16:13:47.467Z</time></trkpt><trkpt lat="44.4960415" lon="10.9094439"><ele>195.0</ele><time>2026-04-11T16:13:48.465Z</time></trkpt><trkpt lat="44.4961697" lon="10.9094137"><ele>193.25</ele><time>2026-04-11T16:13:49.479Z</time></trkpt><trkpt lat="44.4963053" lon="10.9094026"><ele>191.5</ele><time>2026-04-11T16:13:50.474Z</time></trkpt><trkpt lat="44.4964436" lon="10.9093989"><ele>189.75</ele><time>2026-04-11T16:13:51.411Z</time></trkpt><trkpt lat="44.4965789" lon="10.9093988"><ele>188.0</ele><time>2026-04-11T16:13:52.473Z</time></trkpt><trkpt lat="44.4967085" lon="10.9093996"><ele>188.0</ele><time>2026-04-11T16:13:53.453Z</time></trkpt><trkpt lat="44.4968446" lon="10.9094085"><ele>188.0</ele><time>2026-04-11T16:13:54.464Z</time></trkpt><trkpt lat="44.4969812" lon="10.9094008"><ele>188.0</ele><time>2026-04-11T16:13:55.47Z</time></trkpt><trkpt lat="44.4971115" lon="10.9093942"><ele>188.0</ele><time>2026-04-11T16:13:56.435Z</time></trkpt><trkpt lat="44.4972474" lon="10.9093965"><ele>186.75</ele><time>2026-04-11T16:13:57.468Z</time></trkpt><trkpt lat="44.497379" lon="10.9094163"><ele>185.5</ele><time>2026-04-11T16:13:58.474Z</time></trkpt><trkpt lat="44.4975155" lon="10.9094569"><ele>184.25</ele><time>2026-04-11T16:13:59.455Z</time></trkpt><trkpt lat="44.4976557" lon="10.9095102"><ele>183.0</ele><time>2026-04-11T16:14:00.434Z</time></trkpt><trkpt lat="44.4978028" lon="10.9095722"><ele>183.33333333333334</ele><time>2026-04-11T16:14:01.422Z</time></trkpt><trkpt lat="44.4979549" lon="10.9096343"><ele>183.66666666666669</ele><time>2026-04-11T16:14:02.449Z</time></trkpt><trkpt lat="44.4981072" lon="10.9097007"><ele>184.0</ele><time>2026-04-11T16:14:03.429Z</time></trkpt><trkpt lat="44.4982385" lon="10.909753"><ele>184.0</ele><time>2026-04-11T16:14:04.462Z</time></trkpt><trkpt lat="44.4983866" lon="10.9098209"><ele>184.0</ele><time>2026-04-11T16:14:05.475Z</time></trkpt><trkpt lat="44.4985196" lon="10.9098729"><ele>184.0</ele><time>2026-04-11T16:14:06.449Z</time></trkpt><trkpt lat="44.4986624" lon="10.9099353"><ele>184.0</ele><time>2026-04-11T16:14:07.468Z</time></trkpt><trkpt lat="44.4988122" lon="10.9100054"><ele>180.66666666666669</ele><time>2026-04-11T16:14:08.455Z</time></trkpt><trkpt lat="44.4989676" lon="10.9100802"><ele>177.33333333333334</ele><time>2026-04-11T16:14:09.473Z</time></trkpt><trkpt lat="44.4991218" lon="10.910155"><ele>174.0</ele><time>2026-04-11T16:14:10.462Z</time></trkpt><trkpt lat="44.49928" lon="10.9102352"><ele>174.0</ele><time>2026-04-11T16:14:11.477Z</time></trkpt><trkpt lat="44.4994362" lon="10.9103161"><ele>174.0</ele><time>2026-04-11T16:14:12.416Z</time></trkpt><trkpt lat="44.4995863" lon="10.9103987"><ele>174.0</ele><time>2026-04-11T16:14:13.47Z</time></trkpt><trkpt lat="44.4997202" lon="10.9104731"><ele>175.0</ele><time>2026-04-11T16:14:14.432Z</time></trkpt><trkpt lat="44.4998501" lon="10.9105531"><ele>176.0</ele><time>2026-04-11T16:14:15.461Z</time></trkpt><trkpt lat="44.4999911" lon="10.9106319"><ele>177.0</ele><time>2026-04-11T16:14:16.476Z</time></trkpt><trkpt lat="44.5001359" lon="10.9107155"><ele>177.0</ele><time>2026-04-11T16:14:17.439Z</time></trkpt><trkpt lat="44.5002847" lon="10.9107939"><ele>177.0</ele><time>2026-04-11T16:14:18.46Z</time></trkpt><trkpt lat="44.5004392" lon="10.9108778"><ele>177.0</ele><time>2026-04-11T16:14:19.443Z</time></trkpt><trkpt lat="44.5005966" lon="10.9109609"><ele>172.33333333333334</ele><time>2026-04-11T16:14:20.486Z</time></trkpt><trkpt lat="44.5007417" lon="10.911041"><ele>167.66666666666669</ele><time>2026-04-11T16:14:21.462Z</time></trkpt><trkpt lat="44.5008837" lon="10.911121"><ele>163.0</ele><time>2026-04-11T16:14:22.438Z</time></trkpt><trkpt lat="44.5010325" lon="10.9112021"><ele>163.0</ele><time>2026-04-11T16:14:23.456Z</time></trkpt><trkpt lat="44.5011718" lon="10.9112906"><ele>163.0</ele><time>2026-04-11T16:14:24.471Z</time></trkpt><trkpt lat="44.5013124" lon="10.9113688"><ele>163.0</ele><time>2026-04-11T16:14:25.473Z</time></trkpt><trkpt lat="44.5014556" lon="10.9114521"><ele>165.0</ele><time>2026-04-11T16:14:26.443Z</time></trkpt><trkpt lat="44.5015874" lon="10.911524"><ele>167.0</ele><time>2026-04-11T16:14:27.473Z</time></trkpt><trkpt lat="44.5017137" lon="10.9115869"><ele>169.0</ele><time>2026-04-11T16:14:28.468Z</time></trkpt><trkpt lat="44.5018764" lon="10.9116847"><ele>164.0</ele><time>2026-04-11T16:14:29.458Z</time></trkpt><trkpt lat="44.5020431" lon="10.9117775"><ele>159.0</ele><time>2026-04-11T16:14:30.48Z</time></trkpt><trkpt lat="44.5022369" lon="10.9118889"><ele>154.0</ele><time>2026-04-11T16:14:31.424Z</time></trkpt><trkpt lat="44.5024142" lon="10.9119884"><ele>154.0</ele><time>2026-04-11T16:14:32.407Z</time></trkpt><trkpt lat="44.5025757" lon="10.9120792"><ele>154.0</ele><time>2026-04-11T16:14:33.441Z</time></trkpt><trkpt lat="44.5027369" lon="10.9121557"><ele>154.0</ele><time>2026-04-11T16:14:34.461Z</time></trkpt><trkpt lat="44.5028978" lon="10.9122274"><ele>153.66666666666669</ele><time>2026-04-11T16:14:35.447Z</time></trkpt><trkpt lat="44.5030599" lon="10.9122942"><ele>153.33333333333334</ele><time>2026-04-11T16:14:36.459Z</time></trkpt><trkpt lat="44.5032254" lon="10.9123614"><ele>153.0</ele><time>2026-04-11T16:14:37.476Z</time></trkpt><trkpt lat="44.5033849" lon="10.9124208"><ele>153.0</ele><time>2026-04-11T16:14:38.444Z</time></trkpt><trkpt lat="44.5035456" lon="10.9124786"><ele>153.0</ele><time>2026-04-11T16:14:39.457Z</time></trkpt><trkpt lat="44.5037037" lon="10.9125354"><ele>153.0</ele><time>2026-04-11T16:14:40.459Z</time></trkpt><trkpt lat="44.5038587" lon="10.9125924"><ele>148.0</ele><time>2026-04-11T16:14:41.454Z</time></trkpt><trkpt lat="44.5040081" lon="10.9126483"><ele>143.0</ele><time>2026-04-11T16:14:42.437Z</time></trkpt><trkpt lat="44.5041593" lon="10.9126923"><ele>138.0</ele><time>2026-04-11T16:14:43.471Z</time></trkpt><trkpt lat="44.5043029" lon="10.912721"><ele>138.0</ele><time>2026-04-11T16:14:44.455Z</time></trkpt><trkpt lat="44.5044429" lon="10.9127241"><ele>138.0</ele><time>2026-04-11T16:14:45.453Z</time></trkpt><trkpt lat="44.5045785" lon="10.9126998"><ele>138.0</ele><time>2026-04-11T16:14:46.483Z</time></trkpt><trkpt lat="44.5047168" lon="10.9126481"><ele>138.0</ele><time>2026-04-11T16:14:47.438Z</time></trkpt><trkpt lat="44.5048572" lon="10.9125697"><ele>138.33333333333334</ele><time>2026-04-11T16:14:48.46Z</time></trkpt><trkpt lat="44.5049995" lon="10.9124822"><ele>138.66666666666669</ele><time>2026-04-11T16:14:49.457Z</time></trkpt><trkpt lat="44.5051377" lon="10.9123958"><ele>139.0</ele><time>2026-04-11T16:14:50.439Z</time></trkpt><trkpt lat="44.505298" lon="10.9123063"><ele>137.0</ele><time>2026-04-11T16:14:51.49Z</time></trkpt><trkpt lat="44.5054586" lon="10.9122234"><ele>135.0</ele><time>2026-04-11T16:14:52.426Z</time></trkpt><trkpt lat="44.5056087" lon="10.912143"><ele>133.0</ele><time>2026-04-11T16:14:53.436Z</time></trkpt><trkpt lat="44.5057582" lon="10.9120417"><ele>133.0</ele><time>2026-04-11T16:14:54.48Z</time></trkpt><trkpt lat="44.5059036" lon="10.9119554"><ele>133.0</ele><time>2026-04-11T16:14:55.467Z</time></trkpt><trkpt lat="44.5060438" lon="10.9118615"><ele>133.0</ele><time>2026-04-11T16:14:56.475Z</time></trkpt><trkpt lat="44.5061845" lon="10.911773"><ele>132.5</ele><time>2026-04-11T16:14:57.442Z</time></trkpt><trkpt lat="44.5063104" lon="10.9116896"><ele>132.0</ele><time>2026-04-11T16:14:58.479Z</time></trkpt><trkpt lat="44.5064232" lon="10.9116159"><ele>131.5</ele><time>2026-04-11T16:14:59.469Z</time></trkpt><trkpt lat="44.5065227" lon="10.9115486"><ele>131.0</ele><time>2026-04-11T16:15:00.473Z</time></trkpt><trkpt lat="44.5066125" lon="10.9114986"><ele>131.0</ele><time>2026-04-11T16:15:01.406Z</time></trkpt><trkpt lat="44.5066982" lon="10.9114701"><ele>131.0</ele><time>2026-04-11T16:15:02.43Z</time></trkpt><trkpt lat="44.5067794" lon="10.9114813"><ele>131.0</ele><time>2026-04-11T16:15:03.466Z</time></trkpt><trkpt lat="44.5068477" lon="10.9115364"><ele>131.0</ele><time>2026-04-11T16:15:04.474Z</time></trkpt><trkpt lat="44.5069084" lon="10.9116286"><ele>131.0</ele><time>2026-04-11T16:15:05.482Z</time></trkpt><trkpt lat="44.5069662" lon="10.9117456"><ele>131.0</ele><time>2026-04-11T16:15:06.466Z</time></trkpt><trkpt lat="44.5070282" lon="10.9118857"><ele>130.75</ele><time>2026-04-11T16:15:07.434Z</time></trkpt><trkpt lat="44.5070956" lon="10.9120264"><ele>130.5</ele><time>2026-04-11T16:15:08.48Z</time></trkpt><trkpt lat="44.5071619" lon="10.9121666"><ele>130.25</ele><time>2026-04-11T16:15:09.454Z</time></trkpt><trkpt lat="44.5072274" lon="10.9123005"><ele>130.0</ele><time>2026-04-11T16:15:10.473Z</time></trkpt><trkpt lat="44.5072893" lon="10.91243"><ele>130.0</ele><time>2026-04-11T16:15:11.464Z</time></trkpt><trkpt lat="44.5073501" lon="10.9125564"><ele>130.0</ele><time>2026-04-11T16:15:12.475Z</time></trkpt><trkpt lat="44.5074093" lon="10.912684"><ele>130.0</ele><time>2026-04-11T16:15:13.465Z</time></trkpt><trkpt lat="44.5074714" lon="10.9128183"><ele>130.0</ele><time>2026-04-11T16:15:14.471Z</time></trkpt><trkpt lat="44.507537" lon="10.9129575"><ele>129.5</ele><time>2026-04-11T16:15:15.478Z</time></trkpt><trkpt lat="44.5076059" lon="10.9131013"><ele>129.0</ele><time>2026-04-11T16:15:16.471Z</time></trkpt><trkpt lat="44.5076756" lon="10.9132464"><ele>128.5</ele><time>2026-04-11T16:15:17.474Z</time></trkpt><trkpt lat="44.5077465" lon="10.9133963"><ele>128.0</ele><time>2026-04-11T16:15:18.466Z</time></trkpt><trkpt lat="44.5078189" lon="10.913546"><ele>127.75</ele><time>2026-04-11T16:15:19.459Z</time></trkpt><trkpt lat="44.5078954" lon="10.91369"><ele>127.5</ele><time>2026-04-11T16:15:20.404Z</time></trkpt><trkpt lat="44.5079758" lon="10.9138268"><ele>127.25</ele><time>2026-04-11T16:15:21.42Z</time></trkpt><trkpt lat="44.5080589" lon="10.9139609"><ele>127.0</ele><time>2026-04-11T16:15:22.43Z</time></trkpt><trkpt lat="44.50814" lon="10.914097"><ele>127.5</ele><time>2026-04-11T16:15:23.455Z</time></trkpt><trkpt lat="44.5082207" lon="10.9142385"><ele>128.0</ele><time>2026-04-11T16:15:24.448Z</time></trkpt><trkpt lat="44.5082988" lon="10.9143835"><ele>128.5</ele><time>2026-04-11T16:15:25.454Z</time></trkpt><trkpt lat="44.5083748" lon="10.9145387"><ele>129.0</ele><time>2026-04-11T16:15:26.435Z</time></trkpt><trkpt lat="44.5084449" lon="10.9147025"><ele>129.0</ele><time>2026-04-11T16:15:27.45Z</time></trkpt><trkpt lat="44.5085143" lon="10.914877"><ele>129.0</ele><time>2026-04-11T16:15:28.458Z</time></trkpt><trkpt lat="44.5085816" lon="10.9150421"><ele>129.0</ele><time>2026-04-11T16:15:29.463Z</time></trkpt><trkpt lat="44.508629" lon="10.9151842"><ele>129.0</ele><time>2026-04-11T16:15:30.471Z</time></trkpt><trkpt lat="44.5086861" lon="10.9153676"><ele>129.25</ele><time>2026-04-11T16:15:31.476Z</time></trkpt><trkpt lat="44.5087503" lon="10.9155253"><ele>129.5</ele><time>2026-04-11T16:15:32.47Z</time></trkpt><trkpt lat="44.5088138" lon="10.9156931"><ele>129.75</ele><time>2026-04-11T16:15:33.459Z</time></trkpt><trkpt lat="44.5088837" lon="10.9158608"><ele>130.0</ele><time>2026-04-11T16:15:34.467Z</time></trkpt><trkpt lat="44.5089514" lon="10.9160371"><ele>128.75</ele><time>2026-04-11T16:15:35.467Z</time></trkpt><trkpt lat="44.5090167" lon="10.9162138"><ele>127.5</ele><time>2026-04-11T16:15:36.457Z</time></trkpt><trkpt lat="44.5090921" lon="10.9163907"><ele>126.25</ele><time>2026-04-11T16:15:37.474Z</time></trkpt><trkpt lat="44.5091651" lon="10.9165764"><ele>125.0</ele><time>2026-04-11T16:15:38.442Z</time></trkpt><trkpt lat="44.5092383" lon="10.9167536"><ele>124.75</ele><time>2026-04-11T16:15:39.479Z</time></trkpt><trkpt lat="44.5093062" lon="10.9169174"><ele>124.5</ele><time>2026-04-11T16:15:40.474Z</time></trkpt><trkpt lat="44.5093674" lon="10.9170754"><ele>124.25</ele><time>2026-04-11T16:15:41.477Z</time></trkpt><trkpt lat="44.5094289" lon="10.9172239"><ele>124.0</ele><time>2026-04-11T16:15:42.461Z</time></trkpt><trkpt lat="44.509485" lon="10.9173678"><ele>124.0</ele><time>2026-04-11T16:15:43.445Z</time></trkpt><trkpt lat="44.5095365" lon="10.9175067"><ele>124.0</ele><time>2026-04-11T16:15:44.481Z</time></trkpt><trkpt lat="44.509583" lon="10.9176342"><ele>124.0</ele><time>2026-04-11T16:15:45.42Z</time></trkpt><trkpt lat="44.509626" lon="10.917751"><ele>124.0</ele><time>2026-04-11T16:15:46.425Z</time></trkpt><trkpt lat="44.5096716" lon="10.9178621"><ele>124.0</ele><time>2026-04-11T16:15:47.436Z</time></trkpt><trkpt lat="44.5097074" lon="10.9179597"><ele>124.50000000000001</ele><time>2026-04-11T16:15:48.432Z</time></trkpt><trkpt lat="44.5097355" lon="10.9180471"><ele>125.0</ele><time>2026-04-11T16:15:49.445Z</time></trkpt><trkpt lat="44.5097675" lon="10.9181534"><ele>125.5</ele><time>2026-04-11T16:15:51.472Z</time></trkpt><trkpt lat="44.5098133" lon="10.9182338"><ele>126.0</ele><time>2026-04-11T16:15:55.436Z</time></trkpt><trkpt lat="44.509896" lon="10.9181856"><ele>126.50000000000001</ele><time>2026-04-11T16:15:57.452Z</time></trkpt><trkpt lat="44.5099865" lon="10.918058"><ele>127.0</ele><time>2026-04-11T16:15:59.465Z</time></trkpt><trkpt lat="44.5100434" lon="10.917966"><ele>127.0</ele><time>2026-04-11T16:16:00.473Z</time></trkpt><trkpt lat="44.5100994" lon="10.9178922"><ele>126.99999999999999</ele><time>2026-04-11T16:16:01.456Z</time></trkpt><trkpt lat="44.5101509" lon="10.9178122"><ele>126.99999999999999</ele><time>2026-04-11T16:16:02.443Z</time></trkpt><trkpt lat="44.5102174" lon="10.9177246"><ele>127.0</ele><time>2026-04-11T16:16:03.414Z</time></trkpt><trkpt lat="44.5102942" lon="10.9175951"><ele>127.0</ele><time>2026-04-11T16:16:04.46Z</time></trkpt><trkpt lat="44.5103662" lon="10.9174521"><ele>130.0</ele><time>2026-04-11T16:16:05.434Z</time></trkpt><trkpt lat="44.5104374" lon="10.917322"><ele>133.0</ele><time>2026-04-11T16:16:06.451Z</time></trkpt><trkpt lat="44.5105067" lon="10.9171833"><ele>136.0</ele><time>2026-04-11T16:16:07.475Z</time></trkpt><trkpt lat="44.5105773" lon="10.9170383"><ele>139.0</ele><time>2026-04-11T16:16:08.476Z</time></trkpt><trkpt lat="44.510654" lon="10.9168836"><ele>139.75</ele><time>2026-04-11T16:16:09.454Z</time></trkpt><trkpt lat="44.5107339" lon="10.9167318"><ele>140.5</ele><time>2026-04-11T16:16:10.45Z</time></trkpt><trkpt lat="44.5108134" lon="10.9165718"><ele>141.25</ele><time>2026-04-11T16:16:11.472Z</time></trkpt><trkpt lat="44.510896" lon="10.9164046"><ele>142.0</ele><time>2026-04-11T16:16:12.481Z</time></trkpt><trkpt lat="44.5109749" lon="10.9162441"><ele>142.0</ele><time>2026-04-11T16:16:13.425Z</time></trkpt><trkpt lat="44.5110762" lon="10.9160725"><ele>142.0</ele><time>2026-04-11T16:16:14.471Z</time></trkpt><trkpt lat="44.5111602" lon="10.9159011"><ele>142.0</ele><time>2026-04-11T16:16:15.481Z</time></trkpt><trkpt lat="44.5112496" lon="10.9157269"><ele>141.33333333333334</ele><time>2026-04-11T16:16:16.476Z</time></trkpt><trkpt lat="44.5113354" lon="10.915548"><ele>140.66666666666666</ele><time>2026-04-11T16:16:17.455Z</time></trkpt><trkpt lat="44.5114193" lon="10.9153612"><ele>140.0</ele><time>2026-04-11T16:16:18.454Z</time></trkpt><trkpt lat="44.511512" lon="10.9151639"><ele>140.66666666666666</ele><time>2026-04-11T16:16:19.462Z</time></trkpt><trkpt lat="44.5116064" lon="10.9149621"><ele>141.33333333333334</ele><time>2026-04-11T16:16:20.44Z</time></trkpt><trkpt lat="44.5116951" lon="10.9147555"><ele>142.0</ele><time>2026-04-11T16:16:21.456Z</time></trkpt><trkpt lat="44.5117954" lon="10.914567"><ele>142.0</ele><time>2026-04-11T16:16:22.469Z</time></trkpt><trkpt lat="44.5118919" lon="10.9143784"><ele>142.0</ele><time>2026-04-11T16:16:23.455Z</time></trkpt><trkpt lat="44.511989" lon="10.9141915"><ele>142.0</ele><time>2026-04-11T16:16:24.47Z</time></trkpt><trkpt lat="44.5120759" lon="10.9140154"><ele>143.0</ele><time>2026-04-11T16:16:25.454Z</time></trkpt><trkpt lat="44.5121629" lon="10.9138511"><ele>144.0</ele><time>2026-04-11T16:16:26.474Z</time></trkpt><trkpt lat="44.5122738" lon="10.9137022"><ele>145.0</ele><time>2026-04-11T16:16:27.479Z</time></trkpt><trkpt lat="44.5123684" lon="10.9135495"><ele>146.0</ele><time>2026-04-11T16:16:28.441Z</time></trkpt><trkpt lat="44.5124769" lon="10.9133953"><ele>146.0</ele><time>2026-04-11T16:16:29.474Z</time></trkpt><trkpt lat="44.5125866" lon="10.9132331"><ele>146.0</ele><time>2026-04-11T16:16:30.431Z</time></trkpt><trkpt lat="44.5126962" lon="10.9130737"><ele>146.0</ele><time>2026-04-11T16:16:31.483Z</time></trkpt><trkpt lat="44.5128096" lon="10.912914"><ele>142.33333333333331</ele><time>2026-04-11T16:16:32.465Z</time></trkpt><trkpt lat="44.5129191" lon="10.9127552"><ele>138.66666666666666</ele><time>2026-04-11T16:16:33.466Z</time></trkpt><trkpt lat="44.5130253" lon="10.9126022"><ele>135.0</ele><time>2026-04-11T16:16:34.453Z</time></trkpt><trkpt lat="44.5131264" lon="10.9124616"><ele>133.5</ele><time>2026-04-11T16:16:35.464Z</time></trkpt><trkpt lat="44.5132265" lon="10.9123354"><ele>132.0</ele><time>2026-04-11T16:16:36.468Z</time></trkpt><trkpt lat="44.5133253" lon="10.9122299"><ele>130.5</ele><time>2026-04-11T16:16:37.444Z</time></trkpt><trkpt lat="44.513424" lon="10.9121575"><ele>129.0</ele><time>2026-04-11T16:16:38.449Z</time></trkpt><trkpt lat="44.5135282" lon="10.912097"><ele>129.0</ele><time>2026-04-11T16:16:39.476Z</time></trkpt><trkpt lat="44.5136127" lon="10.9121163"><ele>129.0</ele><time>2026-04-11T16:16:40.474Z</time></trkpt><trkpt lat="44.5137041" lon="10.9121779"><ele>129.0</ele><time>2026-04-11T16:16:41.441Z</time></trkpt><trkpt lat="44.5138014" lon="10.912276"><ele>129.0</ele><time>2026-04-11T16:16:42.456Z</time></trkpt><trkpt lat="44.513892" lon="10.9123856"><ele>129.0</ele><time>2026-04-11T16:16:43.465Z</time></trkpt><trkpt lat="44.5139883" lon="10.9124985"><ele>128.75</ele><time>2026-04-11T16:16:44.45Z</time></trkpt><trkpt lat="44.5140893" lon="10.9126154"><ele>128.5</ele><time>2026-04-11T16:16:45.483Z</time></trkpt><trkpt lat="44.5141896" lon="10.9127243"><ele>128.25</ele><time>2026-04-11T16:16:46.471Z</time></trkpt><trkpt lat="44.514289" lon="10.9128319"><ele>128.0</ele><time>2026-04-11T16:16:47.469Z</time></trkpt><trkpt lat="44.5143913" lon="10.9129395"><ele>128.0</ele><time>2026-04-11T16:16:48.472Z</time></trkpt><trkpt lat="44.5144968" lon="10.9130518"><ele>128.0</ele><time>2026-04-11T16:16:49.46Z</time></trkpt><trkpt lat="44.5146031" lon="10.913166"><ele>128.0</ele><time>2026-04-11T16:16:50.481Z</time></trkpt><trkpt lat="44.5147096" lon="10.9132748"><ele>128.0</ele><time>2026-04-11T16:16:51.486Z</time></trkpt><trkpt lat="44.5148147" lon="10.9133686"><ele>127.5</ele><time>2026-04-11T16:16:52.478Z</time></trkpt><trkpt lat="44.5149217" lon="10.9134478"><ele>127.0</ele><time>2026-04-11T16:16:53.43Z</time></trkpt><trkpt lat="44.5150267" lon="10.9135032"><ele>126.5</ele><time>2026-04-11T16:16:54.412Z</time></trkpt><trkpt lat="44.5151444" lon="10.9135461"><ele>126.0</ele><time>2026-04-11T16:16:55.474Z</time></trkpt><trkpt lat="44.5152486" lon="10.9135307"><ele>126.0</ele><time>2026-04-11T16:16:56.475Z</time></trkpt><trkpt lat="44.5153516" lon="10.9134884"><ele>126.0</ele><time>2026-04-11T16:16:57.445Z</time></trkpt><trkpt lat="44.5154463" lon="10.9134075"><ele>126.0</ele><time>2026-04-11T16:16:58.473Z</time></trkpt><trkpt lat="44.5155279" lon="10.913293"><ele>126.0</ele><time>2026-04-11T16:16:59.449Z</time></trkpt><trkpt lat="44.515606" lon="10.9131576"><ele>129.5</ele><time>2026-04-11T16:17:00.45Z</time></trkpt><trkpt lat="44.5156769" lon="10.9129977"><ele>133.0</ele><time>2026-04-11T16:17:01.447Z</time></trkpt><trkpt lat="44.515746" lon="10.912823"><ele>136.5</ele><time>2026-04-11T16:17:02.482Z</time></trkpt><trkpt lat="44.5158178" lon="10.9126374"><ele>140.0</ele><time>2026-04-11T16:17:03.425Z</time></trkpt><trkpt lat="44.5158906" lon="10.9124591"><ele>140.0</ele><time>2026-04-11T16:17:04.486Z</time></trkpt><trkpt lat="44.5159568" lon="10.9122866"><ele>140.0</ele><time>2026-04-11T16:17:05.468Z</time></trkpt><trkpt lat="44.5160176" lon="10.9121269"><ele>140.0</ele><time>2026-04-11T16:17:06.483Z</time></trkpt><trkpt lat="44.5160714" lon="10.9119883"><ele>140.0</ele><time>2026-04-11T16:17:07.466Z</time></trkpt><trkpt lat="44.5161265" lon="10.911875"><ele>140.0</ele><time>2026-04-11T16:17:08.447Z</time></trkpt><trkpt lat="44.5161932" lon="10.9117876"><ele>140.0</ele><time>2026-04-11T16:17:09.479Z</time></trkpt><trkpt lat="44.5162724" lon="10.9117326"><ele>140.0</ele><time>2026-04-11T16:17:10.467Z</time></trkpt><trkpt lat="44.5163606" lon="10.9117156"><ele>140.0</ele><time>2026-04-11T16:17:11.469Z</time></trkpt><trkpt lat="44.5164585" lon="10.9117399"><ele>140.0</ele><time>2026-04-11T16:17:12.457Z</time></trkpt><trkpt lat="44.5165635" lon="10.9117998"><ele>140.0</ele><time>2026-04-11T16:17:13.447Z</time></trkpt><trkpt lat="44.5166758" lon="10.9118787"><ele>140.0</ele><time>2026-04-11T16:17:14.453Z</time></trkpt><trkpt lat="44.5167963" lon="10.9119631"><ele>140.0</ele><time>2026-04-11T16:17:15.449Z</time></trkpt><trkpt lat="44.5169193" lon="10.9120483"><ele>140.0</ele><time>2026-04-11T16:17:16.461Z</time></trkpt><trkpt lat="44.5170361" lon="10.9121337"><ele>139.5</ele><time>2026-04-11T16:17:17.431Z</time></trkpt><trkpt lat="44.5171367" lon="10.9121947"><ele>139.0</ele><time>2026-04-11T16:17:18.446Z</time></trkpt><trkpt lat="44.5172461" lon="10.9122751"><ele>138.5</ele><time>2026-04-11T16:17:19.457Z</time></trkpt><trkpt lat="44.5173536" lon="10.9123564"><ele>138.0</ele><time>2026-04-11T16:17:20.454Z</time></trkpt><trkpt lat="44.51746" lon="10.9124249"><ele>138.0</ele><time>2026-04-11T16:17:21.46Z</time></trkpt><trkpt lat="44.5175589" lon="10.9124879"><ele>138.0</ele><time>2026-04-11T16:17:22.453Z</time></trkpt><trkpt lat="44.5176677" lon="10.9125417"><ele>138.0</ele><time>2026-04-11T16:17:23.453Z</time></trkpt><trkpt lat="44.5177814" lon="10.9125773"><ele>138.0</ele><time>2026-04-11T16:17:24.47Z</time></trkpt><trkpt lat="44.5179004" lon="10.9125904"><ele>137.75</ele><time>2026-04-11T16:17:25.443Z</time></trkpt><trkpt lat="44.5180204" lon="10.9125742"><ele>137.5</ele><time>2026-04-11T16:17:26.444Z</time></trkpt><trkpt lat="44.5181373" lon="10.9125361"><ele>137.25</ele><time>2026-04-11T16:17:27.438Z</time></trkpt><trkpt lat="44.5182435" lon="10.9124694"><ele>137.0</ele><time>2026-04-11T16:17:28.46Z</time></trkpt><trkpt lat="44.5183397" lon="10.9123759"><ele>137.0</ele><time>2026-04-11T16:17:29.476Z</time></trkpt><trkpt lat="44.5184246" lon="10.9122557"><ele>137.0</ele><time>2026-04-11T16:17:30.449Z</time></trkpt><trkpt lat="44.5184982" lon="10.912116"><ele>137.0</ele><time>2026-04-11T16:17:31.461Z</time></trkpt><trkpt lat="44.5185639" lon="10.9119578"><ele>137.0</ele><time>2026-04-11T16:17:32.462Z</time></trkpt><trkpt lat="44.5186276" lon="10.9117868"><ele>136.25</ele><time>2026-04-11T16:17:33.467Z</time></trkpt><trkpt lat="44.5186887" lon="10.911619"><ele>135.5</ele><time>2026-04-11T16:17:34.445Z</time></trkpt><trkpt lat="44.5187468" lon="10.9114527"><ele>134.75</ele><time>2026-04-11T16:17:35.437Z</time></trkpt><trkpt lat="44.5188027" lon="10.9112873"><ele>134.0</ele><time>2026-04-11T16:17:36.463Z</time></trkpt><trkpt lat="44.5188587" lon="10.9111253"><ele>134.0</ele><time>2026-04-11T16:17:37.472Z</time></trkpt><trkpt lat="44.5189187" lon="10.9109657"><ele>134.0</ele><time>2026-04-11T16:17:38.451Z</time></trkpt><trkpt lat="44.5189859" lon="10.9108105"><ele>134.0</ele><time>2026-04-11T16:17:39.49Z</time></trkpt><trkpt lat="44.5190657" lon="10.9106587"><ele>134.0</ele><time>2026-04-11T16:17:40.454Z</time></trkpt><trkpt lat="44.5191583" lon="10.9105051"><ele>132.66666666666666</ele><time>2026-04-11T16:17:41.442Z</time></trkpt><trkpt lat="44.5192575" lon="10.910349"><ele>131.33333333333334</ele><time>2026-04-11T16:17:42.429Z</time></trkpt><trkpt lat="44.5193612" lon="10.9101842"><ele>130.0</ele><time>2026-04-11T16:17:43.47Z</time></trkpt><trkpt lat="44.5194682" lon="10.910015"><ele>128.66666666666669</ele><time>2026-04-11T16:17:44.46Z</time></trkpt><trkpt lat="44.519577" lon="10.9098386"><ele>127.33333333333334</ele><time>2026-04-11T16:17:45.417Z</time></trkpt><trkpt lat="44.5196873" lon="10.9096583"><ele>126.0</ele><time>2026-04-11T16:17:46.476Z</time></trkpt><trkpt lat="44.5198009" lon="10.9094768"><ele>126.0</ele><time>2026-04-11T16:17:47.47Z</time></trkpt><trkpt lat="44.5199149" lon="10.9092949"><ele>126.0</ele><time>2026-04-11T16:17:48.464Z</time></trkpt><trkpt lat="44.5200285" lon="10.9091118"><ele>126.0</ele><time>2026-04-11T16:17:49.444Z</time></trkpt><trkpt lat="44.520141" lon="10.9089278"><ele>125.66666666666666</ele><time>2026-04-11T16:17:50.475Z</time></trkpt><trkpt lat="44.5202531" lon="10.9087413"><ele>125.33333333333333</ele><time>2026-04-11T16:17:51.46Z</time></trkpt><trkpt lat="44.5203645" lon="10.90855"><ele>125.0</ele><time>2026-04-11T16:17:52.465Z</time></trkpt><trkpt lat="44.5204744" lon="10.9083532"><ele>124.66666666666666</ele><time>2026-04-11T16:17:53.454Z</time></trkpt><trkpt lat="44.5205824" lon="10.9081498"><ele>124.33333333333334</ele><time>2026-04-11T16:17:54.47Z</time></trkpt><trkpt lat="44.5206884" lon="10.9079431"><ele>124.0</ele><time>2026-04-11T16:17:55.421Z</time></trkpt><trkpt lat="44.5207947" lon="10.9077358"><ele>124.33333333333334</ele><time>2026-04-11T16:17:56.462Z</time></trkpt><trkpt lat="44.5209011" lon="10.9075289"><ele>124.66666666666666</ele><time>2026-04-11T16:17:57.44Z</time></trkpt><trkpt lat="44.5210075" lon="10.9073208"><ele>125.0</ele><time>2026-04-11T16:17:58.436Z</time></trkpt><trkpt lat="44.5211128" lon="10.9071118"><ele>125.0</ele><time>2026-04-11T16:17:59.479Z</time></trkpt><trkpt lat="44.5212179" lon="10.906905"><ele>125.0</ele><time>2026-04-11T16:18:00.448Z</time></trkpt><trkpt lat="44.5213241" lon="10.9066964"><ele>125.0</ele><time>2026-04-11T16:18:01.469Z</time></trkpt><trkpt lat="44.5214299" lon="10.9064888"><ele>125.0</ele><time>2026-04-11T16:18:02.472Z</time></trkpt><trkpt lat="44.5215334" lon="10.9062806"><ele>125.0</ele><time>2026-04-11T16:18:03.452Z</time></trkpt><trkpt lat="44.5216313" lon="10.9060775"><ele>125.0</ele><time>2026-04-11T16:18:04.491Z</time></trkpt><trkpt lat="44.5217217" lon="10.9058763"><ele>125.66666666666666</ele><time>2026-04-11T16:18:05.424Z</time></trkpt><trkpt lat="44.5218053" lon="10.9056757"><ele>126.33333333333334</ele><time>2026-04-11T16:18:06.438Z</time></trkpt><trkpt lat="44.5218816" lon="10.9054722"><ele>127.0</ele><time>2026-04-11T16:18:07.46Z</time></trkpt><trkpt lat="44.52195" lon="10.9052756"><ele>127.0</ele><time>2026-04-11T16:18:08.482Z</time></trkpt><trkpt lat="44.5220331" lon="10.9050917"><ele>127.0</ele><time>2026-04-11T16:18:09.47Z</time></trkpt><trkpt lat="44.522111" lon="10.9049254"><ele>127.0</ele><time>2026-04-11T16:18:10.467Z</time></trkpt><trkpt lat="44.5221921" lon="10.9047657"><ele>127.0</ele><time>2026-04-11T16:18:11.45Z</time></trkpt><trkpt lat="44.5222697" lon="10.9046148"><ele>126.75</ele><time>2026-04-11T16:18:12.462Z</time></trkpt><trkpt lat="44.5223448" lon="10.9044634"><ele>126.5</ele><time>2026-04-11T16:18:13.465Z</time></trkpt><trkpt lat="44.522448" lon="10.9043283"><ele>126.25</ele><time>2026-04-11T16:18:14.462Z</time></trkpt><trkpt lat="44.5225366" lon="10.9041972"><ele>126.0</ele><time>2026-04-11T16:18:15.448Z</time></trkpt><trkpt lat="44.5226249" lon="10.9040883"><ele>126.0</ele><time>2026-04-11T16:18:16.451Z</time></trkpt><trkpt lat="44.5226999" lon="10.9039829"><ele>126.0</ele><time>2026-04-11T16:18:17.495Z</time></trkpt><trkpt lat="44.5227706" lon="10.9038981"><ele>126.0</ele><time>2026-04-11T16:18:18.44Z</time></trkpt><trkpt lat="44.5228301" lon="10.9038273"><ele>126.0</ele><time>2026-04-11T16:18:19.46Z</time></trkpt><trkpt lat="44.522882" lon="10.9037579"><ele>126.0</ele><time>2026-04-11T16:18:20.471Z</time></trkpt><trkpt lat="44.5229573" lon="10.9036618"><ele>126.16666666666667</ele><time>2026-04-11T16:18:22.482Z</time></trkpt><trkpt lat="44.5230041" lon="10.9036007"><ele>126.33333333333334</ele><time>2026-04-11T16:18:24.477Z</time></trkpt><trkpt lat="44.5230667" lon="10.9035431"><ele>126.5</ele><time>2026-04-11T16:18:31.471Z</time></trkpt><trkpt lat="44.5231254" lon="10.9034848"><ele>126.66666666666667</ele><time>2026-04-11T16:18:34.471Z</time></trkpt><trkpt lat="44.5231982" lon="10.9033689"><ele>126.83333333333334</ele><time>2026-04-11T16:18:37.449Z</time></trkpt><trkpt lat="44.5232203" lon="10.9032834"><ele>127.0</ele><time>2026-04-11T16:18:38.437Z</time></trkpt><trkpt lat="44.5232821" lon="10.9031009"><ele>127.0</ele><time>2026-04-11T16:18:40.478Z</time></trkpt><trkpt lat="44.5233264" lon="10.9029754"><ele>126.99999999999999</ele><time>2026-04-11T16:18:41.474Z</time></trkpt><trkpt lat="44.5233786" lon="10.9028439"><ele>126.99999999999999</ele><time>2026-04-11T16:18:42.473Z</time></trkpt><trkpt lat="44.5234353" lon="10.9027117"><ele>127.0</ele><time>2026-04-11T16:18:43.454Z</time></trkpt><trkpt lat="44.5234954" lon="10.902562"><ele>127.0</ele><time>2026-04-11T16:18:44.461Z</time></trkpt><trkpt lat="44.5235644" lon="10.9024047"><ele>127.0</ele><time>2026-04-11T16:18:45.471Z</time></trkpt><trkpt lat="44.5236313" lon="10.9022514"><ele>127.0</ele><time>2026-04-11T16:18:46.45Z</time></trkpt><trkpt lat="44.5236995" lon="10.9021067"><ele>127.0</ele><time>2026-04-11T16:18:47.424Z</time></trkpt><trkpt lat="44.5237681" lon="10.9019565"><ele>127.0</ele><time>2026-04-11T16:18:48.481Z</time></trkpt><trkpt lat="44.5238408" lon="10.9018002"><ele>125.5</ele><time>2026-04-11T16:18:49.486Z</time></trkpt><trkpt lat="44.5239146" lon="10.9016382"><ele>124.0</ele><time>2026-04-11T16:18:50.468Z</time></trkpt><trkpt lat="44.5239901" lon="10.9014695"><ele>122.5</ele><time>2026-04-11T16:18:51.486Z</time></trkpt><trkpt lat="44.5240676" lon="10.9012965"><ele>121.0</ele><time>2026-04-11T16:18:52.453Z</time></trkpt><trkpt lat="44.5241482" lon="10.9011141"><ele>121.0</ele><time>2026-04-11T16:18:53.463Z</time></trkpt><trkpt lat="44.524231" lon="10.9009301"><ele>121.0</ele><time>2026-04-11T16:18:54.456Z</time></trkpt><trkpt lat="44.5243108" lon="10.9007502"><ele>121.0</ele><time>2026-04-11T16:18:55.461Z</time></trkpt><trkpt lat="44.5243892" lon="10.9005692"><ele>120.33333333333334</ele><time>2026-04-11T16:18:56.424Z</time></trkpt><trkpt lat="44.5244683" lon="10.9003845"><ele>119.66666666666666</ele><time>2026-04-11T16:18:57.463Z</time></trkpt><trkpt lat="44.5245486" lon="10.9001992"><ele>119.0</ele><time>2026-04-11T16:18:58.462Z</time></trkpt><trkpt lat="44.52463" lon="10.9000167"><ele>118.75</ele><time>2026-04-11T16:18:59.483Z</time></trkpt><trkpt lat="44.5247062" lon="10.8998452"><ele>118.5</ele><time>2026-04-11T16:19:00.466Z</time></trkpt><trkpt lat="44.5247802" lon="10.8996736"><ele>118.25</ele><time>2026-04-11T16:19:01.475Z</time></trkpt><trkpt lat="44.5248534" lon="10.8994989"><ele>118.0</ele><time>2026-04-11T16:19:02.453Z</time></trkpt><trkpt lat="44.5249286" lon="10.8993213"><ele>118.25</ele><time>2026-04-11T16:19:03.463Z</time></trkpt><trkpt lat="44.5250066" lon="10.8991457"><ele>118.5</ele><time>2026-04-11T16:19:04.445Z</time></trkpt><trkpt lat="44.5250838" lon="10.8989714"><ele>118.75</ele><time>2026-04-11T16:19:05.421Z</time></trkpt><trkpt lat="44.5251618" lon="10.8987949"><ele>119.0</ele><time>2026-04-11T16:19:06.445Z</time></trkpt><trkpt lat="44.5252429" lon="10.8986157"><ele>119.0</ele><time>2026-04-11T16:19:07.476Z</time></trkpt><trkpt lat="44.525325" lon="10.8984342"><ele>119.0</ele><time>2026-04-11T16:19:08.464Z</time></trkpt><trkpt lat="44.5254038" lon="10.8982575"><ele>119.0</ele><time>2026-04-11T16:19:09.465Z</time></trkpt><trkpt lat="44.5254798" lon="10.8980894"><ele>119.0</ele><time>2026-04-11T16:19:10.467Z</time></trkpt><trkpt lat="44.5255524" lon="10.8979289"><ele>120.0</ele><time>2026-04-11T16:19:11.483Z</time></trkpt><trkpt lat="44.5256243" lon="10.8977815"><ele>121.0</ele><time>2026-04-11T16:19:12.452Z</time></trkpt><trkpt lat="44.5256919" lon="10.8976366"><ele>122.0</ele><time>2026-04-11T16:19:13.458Z</time></trkpt><trkpt lat="44.5257571" lon="10.8975035"><ele>123.0</ele><time>2026-04-11T16:19:14.455Z</time></trkpt><trkpt lat="44.5258148" lon="10.8973975"><ele>123.0</ele><time>2026-04-11T16:19:15.458Z</time></trkpt><trkpt lat="44.5258675" lon="10.8973117"><ele>123.0</ele><time>2026-04-11T16:19:16.491Z</time></trkpt><trkpt lat="44.5259128" lon="10.8972427"><ele>123.0</ele><time>2026-04-11T16:19:17.453Z</time></trkpt><trkpt lat="44.5259747" lon="10.8971615"><ele>123.0</ele><time>2026-04-11T16:19:19.432Z</time></trkpt><trkpt lat="44.526054" lon="10.8970998"><ele>123.0</ele><time>2026-04-11T16:19:23.467Z</time></trkpt><trkpt lat="44.526145" lon="10.8970489"><ele>123.0</ele><time>2026-04-11T16:19:25.463Z</time></trkpt><trkpt lat="44.5262039" lon="10.8970139"><ele>123.14285714285717</ele><time>2026-04-11T16:19:26.477Z</time></trkpt><trkpt lat="44.5262641" lon="10.8969645"><ele>123.28571428571429</ele><time>2026-04-11T16:19:27.439Z</time></trkpt><trkpt lat="44.5263166" lon="10.8968981"><ele>123.42857142857144</ele><time>2026-04-11T16:19:28.442Z</time></trkpt><trkpt lat="44.5263548" lon="10.8968134"><ele>123.57142857142858</ele><time>2026-04-11T16:19:29.442Z</time></trkpt><trkpt lat="44.5263768" lon="10.8967135"><ele>123.71428571428572</ele><time>2026-04-11T16:19:30.433Z</time></trkpt><trkpt lat="44.5263793" lon="10.8966035"><ele>123.85714285714286</ele><time>2026-04-11T16:19:31.407Z</time></trkpt><trkpt lat="44.52637" lon="10.8964864"><ele>124.0</ele><time>2026-04-11T16:19:32.429Z</time></trkpt><trkpt lat="44.5263648" lon="10.8963594"><ele>124.2</ele><time>2026-04-11T16:19:33.407Z</time></trkpt><trkpt lat="44.5263737" lon="10.8962342"><ele>124.4</ele><time>2026-04-11T16:19:34.438Z</time></trkpt><trkpt lat="44.5263999" lon="10.8961122"><ele>124.6</ele><time>2026-04-11T16:19:35.421Z</time></trkpt><trkpt lat="44.5264403" lon="10.8959886"><ele>124.8</ele><time>2026-04-11T16:19:36.428Z</time></trkpt><trkpt lat="44.5264911" lon="10.8958632"><ele>125.0</ele><time>2026-04-11T16:19:37.398Z</time></trkpt><trkpt lat="44.5265461" lon="10.895736"><ele>125.2</ele><time>2026-04-11T16:19:38.421Z</time></trkpt><trkpt lat="44.5266009" lon="10.8956068"><ele>125.4</ele><time>2026-04-11T16:19:39.413Z</time></trkpt><trkpt lat="44.5266575" lon="10.8954762"><ele>125.6</ele><time>2026-04-11T16:19:40.415Z</time></trkpt><trkpt lat="44.5267154" lon="10.8953426"><ele>125.8</ele><time>2026-04-11T16:19:41.408Z</time></trkpt><trkpt lat="44.5267753" lon="10.8952078"><ele>126.0</ele><time>2026-04-11T16:19:42.436Z</time></trkpt><trkpt lat="44.5268373" lon="10.8950676"><ele>126.0</ele><time>2026-04-11T16:19:43.427Z</time></trkpt><trkpt lat="44.5268988" lon="10.8949294"><ele>126.0</ele><time>2026-04-11T16:19:44.416Z</time></trkpt><trkpt lat="44.5269552" lon="10.8947953"><ele>126.0</ele><time>2026-04-11T16:19:45.467Z</time></trkpt><trkpt lat="44.527012" lon="10.894661"><ele>126.0</ele><time>2026-04-11T16:19:46.428Z</time></trkpt><trkpt lat="44.5270708" lon="10.8945287"><ele>126.0</ele><time>2026-04-11T16:19:47.409Z</time></trkpt><trkpt lat="44.5271292" lon="10.8943994"><ele>126.0</ele><time>2026-04-11T16:19:48.468Z</time></trkpt><trkpt lat="44.5271847" lon="10.8942647"><ele>126.0</ele><time>2026-04-11T16:19:49.436Z</time></trkpt><trkpt lat="44.5272391" lon="10.8941425"><ele>126.0</ele><time>2026-04-11T16:19:50.453Z</time></trkpt><trkpt lat="44.5272808" lon="10.8940349"><ele>126.0</ele><time>2026-04-11T16:19:51.429Z</time></trkpt><trkpt lat="44.5273264" lon="10.8939295"><ele>126.0</ele><time>2026-04-11T16:19:52.449Z</time></trkpt><trkpt lat="44.5273759" lon="10.8938154"><ele>126.0</ele><time>2026-04-11T16:19:53.478Z</time></trkpt><trkpt lat="44.5274267" lon="10.8937035"><ele>126.0</ele><time>2026-04-11T16:19:54.465Z</time></trkpt><trkpt lat="44.5274738" lon="10.8935952"><ele>126.0</ele><time>2026-04-11T16:19:55.402Z</time></trkpt><trkpt lat="44.5275215" lon="10.8934934"><ele>126.0</ele><time>2026-04-11T16:19:56.458Z</time></trkpt><trkpt lat="44.5275668" lon="10.8933924"><ele>126.16666666666667</ele><time>2026-04-11T16:19:57.431Z</time></trkpt><trkpt lat="44.5276088" lon="10.8932982"><ele>126.33333333333334</ele><time>2026-04-11T16:19:58.466Z</time></trkpt><trkpt lat="44.5276506" lon="10.8932077"><ele>126.5</ele><time>2026-04-11T16:19:59.456Z</time></trkpt><trkpt lat="44.5276857" lon="10.8931156"><ele>126.66666666666667</ele><time>2026-04-11T16:20:00.47Z</time></trkpt><trkpt lat="44.5277237" lon="10.8930352"><ele>126.83333333333334</ele><time>2026-04-11T16:20:01.459Z</time></trkpt><trkpt lat="44.5277586" lon="10.8929574"><ele>127.0</ele><time>2026-04-11T16:20:02.458Z</time></trkpt><trkpt lat="44.5278162" lon="10.8928068"><ele>127.0</ele><time>2026-04-11T16:20:04.46Z</time></trkpt><trkpt lat="44.5278459" lon="10.8926863"><ele>126.99999999999999</ele><time>2026-04-11T16:20:06.449Z</time></trkpt><trkpt lat="44.5278871" lon="10.8925298"><ele>126.99999999999999</ele><time>2026-04-11T16:20:16.453Z</time></trkpt><trkpt lat="44.5278838" lon="10.8923901"><ele>127.0</ele><time>2026-04-11T16:20:18.473Z</time></trkpt><trkpt lat="44.5278537" lon="10.8922171"><ele>127.0</ele><time>2026-04-11T16:20:20.467Z</time></trkpt><trkpt lat="44.5278309" lon="10.8921192"><ele>127.16666666666667</ele><time>2026-04-11T16:20:21.494Z</time></trkpt><trkpt lat="44.527806" lon="10.8920233"><ele>127.33333333333334</ele><time>2026-04-11T16:20:22.453Z</time></trkpt><trkpt lat="44.5277805" lon="10.8919225"><ele>127.5</ele><time>2026-04-11T16:20:23.446Z</time></trkpt><trkpt lat="44.5277542" lon="10.8918144"><ele>127.66666666666666</ele><time>2026-04-11T16:20:24.448Z</time></trkpt><trkpt lat="44.5277257" lon="10.8917001"><ele>127.83333333333333</ele><time>2026-04-11T16:20:25.467Z</time></trkpt><trkpt lat="44.5276954" lon="10.8915812"><ele>128.0</ele><time>2026-04-11T16:20:26.456Z</time></trkpt><trkpt lat="44.527667" lon="10.8914646"><ele>127.49999999999999</ele><time>2026-04-11T16:20:27.492Z</time></trkpt><trkpt lat="44.5276429" lon="10.891352"><ele>127.0</ele><time>2026-04-11T16:20:28.415Z</time></trkpt><trkpt lat="44.5276267" lon="10.8912434"><ele>126.5</ele><time>2026-04-11T16:20:29.457Z</time></trkpt><trkpt lat="44.5276189" lon="10.8911383"><ele>126.0</ele><time>2026-04-11T16:20:30.479Z</time></trkpt><trkpt lat="44.5276165" lon="10.8910356"><ele>125.49999999999999</ele><time>2026-04-11T16:20:31.482Z</time></trkpt><trkpt lat="44.5276193" lon="10.890943"><ele>125.0</ele><time>2026-04-11T16:20:32.458Z</time></trkpt><trkpt lat="44.5276382" lon="10.8907818"><ele>124.99999999999999</ele><time>2026-04-11T16:20:34.469Z</time></trkpt><trkpt lat="44.5276703" lon="10.8906065"><ele>125.0</ele><time>2026-04-11T16:20:36.458Z</time></trkpt><trkpt lat="44.5276903" lon="10.890514"><ele>125.0</ele><time>2026-04-11T16:20:37.46Z</time></trkpt><trkpt lat="44.5277108" lon="10.8904167"><ele>125.0</ele><time>2026-04-11T16:20:38.432Z</time></trkpt><trkpt lat="44.5277347" lon="10.8903116"><ele>124.99999999999999</ele><time>2026-04-11T16:20:39.457Z</time></trkpt><trkpt lat="44.527765" lon="10.8901966"><ele>125.0</ele><time>2026-04-11T16:20:40.408Z</time></trkpt><trkpt lat="44.5277997" lon="10.8900689"><ele>125.2</ele><time>2026-04-11T16:20:41.429Z</time></trkpt><trkpt lat="44.5278328" lon="10.8899398"><ele>125.4</ele><time>2026-04-11T16:20:42.45Z</time></trkpt><trkpt lat="44.527867" lon="10.8898042"><ele>125.6</ele><time>2026-04-11T16:20:43.459Z</time></trkpt><trkpt lat="44.5279031" lon="10.8896617"><ele>125.8</ele><time>2026-04-11T16:20:44.47Z</time></trkpt><trkpt lat="44.5279415" lon="10.8895108"><ele>126.0</ele><time>2026-04-11T16:20:45.478Z</time></trkpt><trkpt lat="44.527982" lon="10.8893523"><ele>125.5</ele><time>2026-04-11T16:20:46.471Z</time></trkpt><trkpt lat="44.5280214" lon="10.8891978"><ele>125.0</ele><time>2026-04-11T16:20:47.468Z</time></trkpt><trkpt lat="44.5280597" lon="10.8890414"><ele>124.5</ele><time>2026-04-11T16:20:48.417Z</time></trkpt><trkpt lat="44.5281" lon="10.8888782"><ele>124.0</ele><time>2026-04-11T16:20:49.462Z</time></trkpt><trkpt lat="44.5281433" lon="10.8887107"><ele>124.0</ele><time>2026-04-11T16:20:50.44Z</time></trkpt><trkpt lat="44.5281895" lon="10.8885355"><ele>124.0</ele><time>2026-04-11T16:20:51.452Z</time></trkpt><trkpt lat="44.5282371" lon="10.8883551"><ele>124.0</ele><time>2026-04-11T16:20:52.454Z</time></trkpt><trkpt lat="44.5282832" lon="10.8881728"><ele>124.0</ele><time>2026-04-11T16:20:53.487Z</time></trkpt><trkpt lat="44.5283071" lon="10.8879887"><ele>124.0</ele><time>2026-04-11T16:20:54.445Z</time></trkpt><trkpt lat="44.528344" lon="10.8878073"><ele>124.0</ele><time>2026-04-11T16:20:55.421Z</time></trkpt><trkpt lat="44.5283883" lon="10.8876159"><ele>124.0</ele><time>2026-04-11T16:20:56.486Z</time></trkpt><trkpt lat="44.5284368" lon="10.8874244"><ele>124.0</ele><time>2026-04-11T16:20:57.455Z</time></trkpt><trkpt lat="44.5284877" lon="10.8872445"><ele>124.5</ele><time>2026-04-11T16:20:58.458Z</time></trkpt><trkpt lat="44.5285374" lon="10.8870608"><ele>125.0</ele><time>2026-04-11T16:20:59.439Z</time></trkpt><trkpt lat="44.5285833" lon="10.8868756"><ele>125.5</ele><time>2026-04-11T16:21:00.452Z</time></trkpt><trkpt lat="44.528631" lon="10.886689"><ele>126.0</ele><time>2026-04-11T16:21:01.464Z</time></trkpt><trkpt lat="44.5286819" lon="10.8864987"><ele>125.5</ele><time>2026-04-11T16:21:02.455Z</time></trkpt><trkpt lat="44.5287344" lon="10.8863059"><ele>125.0</ele><time>2026-04-11T16:21:03.444Z</time></trkpt><trkpt lat="44.5287867" lon="10.8861139"><ele>124.5</ele><time>2026-04-11T16:21:04.478Z</time></trkpt><trkpt lat="44.5288464" lon="10.8859266"><ele>124.0</ele><time>2026-04-11T16:21:05.436Z</time></trkpt><trkpt lat="44.5288948" lon="10.8857372"><ele>124.0</ele><time>2026-04-11T16:21:06.476Z</time></trkpt><trkpt lat="44.5289494" lon="10.8855536"><ele>124.0</ele><time>2026-04-11T16:21:07.477Z</time></trkpt><trkpt lat="44.5289994" lon="10.8853696"><ele>124.0</ele><time>2026-04-11T16:21:08.489Z</time></trkpt><trkpt lat="44.5290627" lon="10.8851909"><ele>124.0</ele><time>2026-04-11T16:21:09.457Z</time></trkpt><trkpt lat="44.5291125" lon="10.8850052"><ele>125.0</ele><time>2026-04-11T16:21:10.401Z</time></trkpt><trkpt lat="44.5291624" lon="10.884806"><ele>126.0</ele><time>2026-04-11T16:21:11.47Z</time></trkpt><trkpt lat="44.5292123" lon="10.8846074"><ele>127.0</ele><time>2026-04-11T16:21:12.435Z</time></trkpt><trkpt lat="44.5292505" lon="10.8843993"><ele>127.66666666666667</ele><time>2026-04-11T16:21:13.445Z</time></trkpt><trkpt lat="44.5292802" lon="10.8841812"><ele>128.33333333333334</ele><time>2026-04-11T16:21:14.465Z</time></trkpt><trkpt lat="44.5292889" lon="10.8839559"><ele>129.0</ele><time>2026-04-11T16:21:15.476Z</time></trkpt><trkpt lat="44.529277" lon="10.8837379"><ele>129.0</ele><time>2026-04-11T16:21:16.472Z</time></trkpt><trkpt lat="44.5292725" lon="10.8835247"><ele>129.0</ele><time>2026-04-11T16:21:17.46Z</time></trkpt><trkpt lat="44.5292665" lon="10.883315"><ele>129.0</ele><time>2026-04-11T16:21:18.45Z</time></trkpt><trkpt lat="44.5292762" lon="10.8831105"><ele>129.0</ele><time>2026-04-11T16:21:19.465Z</time></trkpt><trkpt lat="44.5292823" lon="10.8829364"><ele>128.75</ele><time>2026-04-11T16:21:20.453Z</time></trkpt><trkpt lat="44.5292888" lon="10.8827538"><ele>128.5</ele><time>2026-04-11T16:21:21.467Z</time></trkpt><trkpt lat="44.5292991" lon="10.8825755"><ele>128.25</ele><time>2026-04-11T16:21:22.451Z</time></trkpt><trkpt lat="44.5293295" lon="10.8824252"><ele>128.0</ele><time>2026-04-11T16:21:23.483Z</time></trkpt><trkpt lat="44.5293261" lon="10.8822503"><ele>127.99999999999999</ele><time>2026-04-11T16:21:24.458Z</time></trkpt><trkpt lat="44.5293274" lon="10.8821029"><ele>128.0</ele><time>2026-04-11T16:21:25.477Z</time></trkpt><trkpt lat="44.529323" lon="10.881973"><ele>128.0</ele><time>2026-04-11T16:21:26.425Z</time></trkpt><trkpt lat="44.5293141" lon="10.8818516"><ele>128.0</ele><time>2026-04-11T16:21:27.446Z</time></trkpt><trkpt lat="44.5293126" lon="10.881742"><ele>127.99999999999999</ele><time>2026-04-11T16:21:28.454Z</time></trkpt><trkpt lat="44.529322" lon="10.8816451"><ele>128.0</ele><time>2026-04-11T16:21:29.47Z</time></trkpt><trkpt lat="44.5293446" lon="10.8815499"><ele>127.99999999999999</ele><time>2026-04-11T16:21:30.423Z</time></trkpt><trkpt lat="44.5293634" lon="10.8814528"><ele>128.0</ele><time>2026-04-11T16:21:31.476Z</time></trkpt><trkpt lat="44.5293593" lon="10.8813514"><ele>128.0</ele><time>2026-04-11T16:21:32.456Z</time></trkpt><trkpt lat="44.5293325" lon="10.8812393"><ele>128.0</ele><time>2026-04-11T16:21:33.467Z</time></trkpt><trkpt lat="44.5293023" lon="10.8811212"><ele>127.99999999999999</ele><time>2026-04-11T16:21:34.453Z</time></trkpt><trkpt lat="44.5292838" lon="10.8809861"><ele>128.0</ele><time>2026-04-11T16:21:35.494Z</time></trkpt><trkpt lat="44.5292739" lon="10.8808372"><ele>128.20000000000002</ele><time>2026-04-11T16:21:36.476Z</time></trkpt><trkpt lat="44.5292576" lon="10.8806833"><ele>128.4</ele><time>2026-04-11T16:21:37.471Z</time></trkpt><trkpt lat="44.5292341" lon="10.8805416"><ele>128.60000000000002</ele><time>2026-04-11T16:21:38.457Z</time></trkpt><trkpt lat="44.5292053" lon="10.8804059"><ele>128.8</ele><time>2026-04-11T16:21:39.464Z</time></trkpt><trkpt lat="44.529175" lon="10.8802723"><ele>129.0</ele><time>2026-04-11T16:21:40.447Z</time></trkpt><trkpt lat="44.5291469" lon="10.8801412"><ele>128.6</ele><time>2026-04-11T16:21:41.465Z</time></trkpt><trkpt lat="44.5291163" lon="10.8800062"><ele>128.2</ele><time>2026-04-11T16:21:42.477Z</time></trkpt><trkpt lat="44.5290966" lon="10.8798747"><ele>127.79999999999998</ele><time>2026-04-11T16:21:43.461Z</time></trkpt><trkpt lat="44.5290687" lon="10.8797661"><ele>127.39999999999999</ele><time>2026-04-11T16:21:44.458Z</time></trkpt><trkpt lat="44.5290355" lon="10.8796274"><ele>127.0</ele><time>2026-04-11T16:21:45.45Z</time></trkpt><trkpt lat="44.5290092" lon="10.8794946"><ele>127.00000000000001</ele><time>2026-04-11T16:21:46.471Z</time></trkpt><trkpt lat="44.528992" lon="10.8793749"><ele>127.0</ele><time>2026-04-11T16:21:47.467Z</time></trkpt><trkpt lat="44.5289741" lon="10.8792546"><ele>127.0</ele><time>2026-04-11T16:21:48.467Z</time></trkpt><trkpt lat="44.5289623" lon="10.8791448"><ele>127.0</ele><time>2026-04-11T16:21:49.421Z</time></trkpt><trkpt lat="44.5289373" lon="10.8790327"><ele>127.00000000000001</ele><time>2026-04-11T16:21:50.462Z</time></trkpt><trkpt lat="44.5289079" lon="10.8789176"><ele>127.0</ele><time>2026-04-11T16:21:51.453Z</time></trkpt><trkpt lat="44.5288794" lon="10.8788027"><ele>127.0</ele><time>2026-04-11T16:21:52.485Z</time></trkpt><trkpt lat="44.5288536" lon="10.8786834"><ele>126.99999999999999</ele><time>2026-04-11T16:21:53.453Z</time></trkpt><trkpt lat="44.528825" lon="10.8785622"><ele>126.99999999999999</ele><time>2026-04-11T16:21:54.471Z</time></trkpt><trkpt lat="44.5287971" lon="10.8784305"><ele>127.0</ele><time>2026-04-11T16:21:55.464Z</time></trkpt><trkpt lat="44.5287653" lon="10.8782916"><ele>127.0</ele><time>2026-04-11T16:21:56.492Z</time></trkpt><trkpt lat="44.5287296" lon="10.8781416"><ele>127.5</ele><time>2026-04-11T16:21:57.461Z</time></trkpt><trkpt lat="44.5286881" lon="10.8779859"><ele>128.0</ele><time>2026-04-11T16:21:58.462Z</time></trkpt><trkpt lat="44.5286455" lon="10.8778196"><ele>128.5</ele><time>2026-04-11T16:21:59.476Z</time></trkpt><trkpt lat="44.5285919" lon="10.8776675"><ele>129.0</ele><time>2026-04-11T16:22:00.463Z</time></trkpt><trkpt lat="44.5285561" lon="10.877519"><ele>129.0</ele><time>2026-04-11T16:22:01.459Z</time></trkpt><trkpt lat="44.5285164" lon="10.8773591"><ele>129.0</ele><time>2026-04-11T16:22:02.459Z</time></trkpt><trkpt lat="44.5284715" lon="10.8772105"><ele>129.0</ele><time>2026-04-11T16:22:03.453Z</time></trkpt><trkpt lat="44.5284307" lon="10.8770709"><ele>129.0</ele><time>2026-04-11T16:22:04.447Z</time></trkpt><trkpt lat="44.5283978" lon="10.87694"><ele>129.0</ele><time>2026-04-11T16:22:05.45Z</time></trkpt><trkpt lat="44.5283691" lon="10.8768293"><ele>128.6</ele><time>2026-04-11T16:22:06.442Z</time></trkpt><trkpt lat="44.5283477" lon="10.8767223"><ele>128.2</ele><time>2026-04-11T16:22:07.455Z</time></trkpt><trkpt lat="44.5283391" lon="10.876626"><ele>127.79999999999998</ele><time>2026-04-11T16:22:08.468Z</time></trkpt><trkpt lat="44.5283403" lon="10.8764772"><ele>127.39999999999999</ele><time>2026-04-11T16:22:10.486Z</time></trkpt><trkpt lat="44.5283512" lon="10.8763109"><ele>127.0</ele><time>2026-04-11T16:22:12.478Z</time></trkpt><trkpt lat="44.5283223" lon="10.8761515"><ele>127.0</ele><time>2026-04-11T16:22:14.467Z</time></trkpt><trkpt lat="44.5282262" lon="10.8760905"><ele>126.99999999999999</ele><time>2026-04-11T16:22:16.439Z</time></trkpt><trkpt lat="44.5281212" lon="10.8761815"><ele>126.99999999999999</ele><time>2026-04-11T16:22:18.445Z</time></trkpt><trkpt lat="44.5280646" lon="10.8762529"><ele>127.0</ele><time>2026-04-11T16:22:19.465Z</time></trkpt><trkpt lat="44.5279922" lon="10.8763"><ele>127.0</ele><time>2026-04-11T16:22:20.451Z</time></trkpt><trkpt lat="44.5279046" lon="10.8763164"><ele>127.5</ele><time>2026-04-11T16:22:21.464Z</time></trkpt><trkpt lat="44.5278021" lon="10.8763091"><ele>128.0</ele><time>2026-04-11T16:22:22.446Z</time></trkpt><trkpt lat="44.5276928" lon="10.876287"><ele>128.5</ele><time>2026-04-11T16:22:23.434Z</time></trkpt><trkpt lat="44.5275782" lon="10.8762594"><ele>129.0</ele><time>2026-04-11T16:22:24.472Z</time></trkpt><trkpt lat="44.5274582" lon="10.8762361"><ele>129.0</ele><time>2026-04-11T16:22:25.461Z</time></trkpt><trkpt lat="44.5273313" lon="10.8762266"><ele>129.0</ele><time>2026-04-11T16:22:26.458Z</time></trkpt><trkpt lat="44.5271964" lon="10.8762251"><ele>129.0</ele><time>2026-04-11T16:22:27.448Z</time></trkpt><trkpt lat="44.5270519" lon="10.8762265"><ele>129.0</ele><time>2026-04-11T16:22:28.47Z</time></trkpt><trkpt lat="44.5269047" lon="10.8762293"><ele>129.25</ele><time>2026-04-11T16:22:29.461Z</time></trkpt><trkpt lat="44.5267614" lon="10.8762233"><ele>129.5</ele><time>2026-04-11T16:22:30.444Z</time></trkpt><trkpt lat="44.5266215" lon="10.876228"><ele>129.75</ele><time>2026-04-11T16:22:31.451Z</time></trkpt><trkpt lat="44.526471" lon="10.8762342"><ele>130.0</ele><time>2026-04-11T16:22:32.466Z</time></trkpt><trkpt lat="44.5263198" lon="10.8762407"><ele>130.0</ele><time>2026-04-11T16:22:33.441Z</time></trkpt><trkpt lat="44.5261641" lon="10.8762452"><ele>130.0</ele><time>2026-04-11T16:22:34.469Z</time></trkpt><trkpt lat="44.5260077" lon="10.8762562"><ele>130.0</ele><time>2026-04-11T16:22:35.479Z</time></trkpt><trkpt lat="44.5258554" lon="10.8762583"><ele>130.0</ele><time>2026-04-11T16:22:36.464Z</time></trkpt><trkpt lat="44.5257025" lon="10.8762641"><ele>130.0</ele><time>2026-04-11T16:22:37.431Z</time></trkpt><trkpt lat="44.5255435" lon="10.8762676"><ele>130.0</ele><time>2026-04-11T16:22:38.444Z</time></trkpt><trkpt lat="44.5253814" lon="10.8762702"><ele>131.0</ele><time>2026-04-11T16:22:39.465Z</time></trkpt><trkpt lat="44.5252123" lon="10.8762686"><ele>132.0</ele><time>2026-04-11T16:22:40.404Z</time></trkpt><trkpt lat="44.5250584" lon="10.8762788"><ele>133.0</ele><time>2026-04-11T16:22:41.453Z</time></trkpt><trkpt lat="44.5249078" lon="10.876278"><ele>133.0</ele><time>2026-04-11T16:22:42.452Z</time></trkpt><trkpt lat="44.5247622" lon="10.8762853"><ele>133.0</ele><time>2026-04-11T16:22:43.455Z</time></trkpt><trkpt lat="44.5246212" lon="10.876294"><ele>133.0</ele><time>2026-04-11T16:22:44.436Z</time></trkpt><trkpt lat="44.5244825" lon="10.8763015"><ele>133.0</ele><time>2026-04-11T16:22:45.462Z</time></trkpt><trkpt lat="44.524349" lon="10.8763089"><ele>133.20000000000002</ele><time>2026-04-11T16:22:46.452Z</time></trkpt><trkpt lat="44.5242236" lon="10.8763149"><ele>133.4</ele><time>2026-04-11T16:22:47.469Z</time></trkpt><trkpt lat="44.524107" lon="10.8763169"><ele>133.60000000000002</ele><time>2026-04-11T16:22:48.426Z</time></trkpt><trkpt lat="44.5240075" lon="10.8763027"><ele>133.8</ele><time>2026-04-11T16:22:49.447Z</time></trkpt><trkpt lat="44.5239236" lon="10.876269"><ele>134.0</ele><time>2026-04-11T16:22:50.433Z</time></trkpt><trkpt lat="44.5238546" lon="10.8762264"><ele>134.0</ele><time>2026-04-11T16:22:51.464Z</time></trkpt><trkpt lat="44.5237938" lon="10.8761537"><ele>134.0</ele><time>2026-04-11T16:22:52.481Z</time></trkpt><trkpt lat="44.5237358" lon="10.8760823"><ele>134.0</ele><time>2026-04-11T16:22:53.448Z</time></trkpt><trkpt lat="44.5236878" lon="10.8759821"><ele>134.0</ele><time>2026-04-11T16:22:54.45Z</time></trkpt><trkpt lat="44.5236706" lon="10.8758727"><ele>134.0</ele><time>2026-04-11T16:22:55.479Z</time></trkpt><trkpt lat="44.5236734" lon="10.8757522"><ele>134.0</ele><time>2026-04-11T16:22:56.458Z</time></trkpt><trkpt lat="44.5236932" lon="10.8756251"><ele>134.0</ele><time>2026-04-11T16:22:57.424Z</time></trkpt><trkpt lat="44.5237078" lon="10.8755035"><ele>134.0</ele><time>2026-04-11T16:22:58.445Z</time></trkpt><trkpt lat="44.5237231" lon="10.8753856"><ele>134.0</ele><time>2026-04-11T16:22:59.453Z</time></trkpt><trkpt lat="44.5237372" lon="10.8752676"><ele>134.0</ele><time>2026-04-11T16:23:00.441Z</time></trkpt><trkpt lat="44.5237508" lon="10.8751498"><ele>134.0</ele><time>2026-04-11T16:23:01.464Z</time></trkpt><trkpt lat="44.5237644" lon="10.8750357"><ele>134.0</ele><time>2026-04-11T16:23:02.463Z</time></trkpt><trkpt lat="44.5237802" lon="10.8749283"><ele>134.0</ele><time>2026-04-11T16:23:03.466Z</time></trkpt><trkpt lat="44.5237954" lon="10.8748275"><ele>134.0</ele><time>2026-04-11T16:23:04.412Z</time></trkpt><trkpt lat="44.5238076" lon="10.8747305"><ele>134.0</ele><time>2026-04-11T16:23:05.451Z</time></trkpt><trkpt lat="44.5238161" lon="10.8746375"><ele>134.0</ele><time>2026-04-11T16:23:06.454Z</time></trkpt><trkpt lat="44.5238261" lon="10.8745476"><ele>134.0</ele><time>2026-04-11T16:23:07.469Z</time></trkpt><trkpt lat="44.5238373" lon="10.8744572"><ele>134.0</ele><time>2026-04-11T16:23:08.443Z</time></trkpt><trkpt lat="44.5238484" lon="10.8743613"><ele>134.0</ele><time>2026-04-11T16:23:09.468Z</time></trkpt><trkpt lat="44.5238587" lon="10.8742587"><ele>134.0</ele><time>2026-04-11T16:23:10.453Z</time></trkpt><trkpt lat="44.5238707" lon="10.8741498"><ele>134.0</ele><time>2026-04-11T16:23:11.456Z</time></trkpt><trkpt lat="44.5238841" lon="10.8740407"><ele>134.0</ele><time>2026-04-11T16:23:12.466Z</time></trkpt><trkpt lat="44.5238987" lon="10.8739234"><ele>134.0</ele><time>2026-04-11T16:23:13.46Z</time></trkpt><trkpt lat="44.5239127" lon="10.8737996"><ele>134.0</ele><time>2026-04-11T16:23:14.455Z</time></trkpt><trkpt lat="44.5239275" lon="10.8736706"><ele>134.0</ele><time>2026-04-11T16:23:15.444Z</time></trkpt><trkpt lat="44.5239433" lon="10.8735392"><ele>134.0</ele><time>2026-04-11T16:23:16.468Z</time></trkpt><trkpt lat="44.5239582" lon="10.8734073"><ele>134.0</ele><time>2026-04-11T16:23:17.462Z</time></trkpt><trkpt lat="44.5239818" lon="10.8732728"><ele>134.0</ele><time>2026-04-11T16:23:18.444Z</time></trkpt><trkpt lat="44.5240042" lon="10.873144"><ele>134.0</ele><time>2026-04-11T16:23:19.466Z</time></trkpt><trkpt lat="44.5240153" lon="10.873017"><ele>134.0</ele><time>2026-04-11T16:23:20.444Z</time></trkpt><trkpt lat="44.5240263" lon="10.8728913"><ele>134.0</ele><time>2026-04-11T16:23:21.419Z</time></trkpt><trkpt lat="44.5240397" lon="10.8727678"><ele>134.0</ele><time>2026-04-11T16:23:22.461Z</time></trkpt><trkpt lat="44.5240408" lon="10.872641"><ele>134.0</ele><time>2026-04-11T16:23:23.47Z</time></trkpt><trkpt lat="44.5240509" lon="10.8725411"><ele>134.0</ele><time>2026-04-11T16:23:24.444Z</time></trkpt><trkpt lat="44.5240554" lon="10.872453"><ele>134.0</ele><time>2026-04-11T16:23:25.48Z</time></trkpt><trkpt lat="44.524084" lon="10.8723097"><ele>134.0</ele><time>2026-04-11T16:23:27.482Z</time></trkpt><trkpt lat="44.5241239" lon="10.8722021"><ele>134.0</ele><time>2026-04-11T16:23:29.463Z</time></trkpt><trkpt lat="44.5241355" lon="10.872099"><ele>134.0</ele><time>2026-04-11T16:23:31.446Z</time></trkpt><trkpt lat="44.5241618" lon="10.8719889"><ele>134.0</ele><time>2026-04-11T16:23:33.45Z</time></trkpt><trkpt lat="44.5241898" lon="10.8718589"><ele>134.0</ele><time>2026-04-11T16:23:35.487Z</time></trkpt><trkpt lat="44.5241681" lon="10.8716991"><ele>134.0</ele><time>2026-04-11T16:23:37.462Z</time></trkpt><trkpt lat="44.5241509" lon="10.8716077"><ele>134.0</ele><time>2026-04-11T16:23:38.459Z</time></trkpt><trkpt lat="44.5241419" lon="10.871511"><ele>134.0</ele><time>2026-04-11T16:23:39.465Z</time></trkpt><trkpt lat="44.5241413" lon="10.871412"><ele>134.0</ele><time>2026-04-11T16:23:40.475Z</time></trkpt><trkpt lat="44.5241411" lon="10.8713127"><ele>134.0</ele><time>2026-04-11T16:23:41.4Z</time></trkpt><trkpt lat="44.5241438" lon="10.8712164"><ele>134.0</ele><time>2026-04-11T16:23:42.436Z</time></trkpt><trkpt lat="44.5241457" lon="10.8711199"><ele>134.0</ele><time>2026-04-11T16:23:43.451Z</time></trkpt><trkpt lat="44.5241487" lon="10.8710258"><ele>134.0</ele><time>2026-04-11T16:23:44.474Z</time></trkpt><trkpt lat="44.524152" lon="10.87093"><ele>134.0</ele><time>2026-04-11T16:23:45.449Z</time></trkpt><trkpt lat="44.524154" lon="10.8708299"><ele>133.83333333333331</ele><time>2026-04-11T16:23:46.484Z</time></trkpt><trkpt lat="44.5241564" lon="10.8707242"><ele>133.66666666666666</ele><time>2026-04-11T16:23:47.46Z</time></trkpt><trkpt lat="44.5241612" lon="10.8706178"><ele>133.5</ele><time>2026-04-11T16:23:48.446Z</time></trkpt><trkpt lat="44.5241647" lon="10.8705035"><ele>133.33333333333334</ele><time>2026-04-11T16:23:49.438Z</time></trkpt><trkpt lat="44.5241683" lon="10.8703783"><ele>133.16666666666669</ele><time>2026-04-11T16:23:50.471Z</time></trkpt><trkpt lat="44.5241721" lon="10.8702421"><ele>133.0</ele><time>2026-04-11T16:23:51.485Z</time></trkpt><trkpt lat="44.5241757" lon="10.8701061"><ele>133.5</ele><time>2026-04-11T16:23:52.46Z</time></trkpt><trkpt lat="44.5241787" lon="10.8699762"><ele>134.0</ele><time>2026-04-11T16:23:53.467Z</time></trkpt><trkpt lat="44.5241819" lon="10.8698523"><ele>134.5</ele><time>2026-04-11T16:23:54.455Z</time></trkpt><trkpt lat="44.5241846" lon="10.8697354"><ele>135.0</ele><time>2026-04-11T16:23:55.446Z</time></trkpt><trkpt lat="44.5241873" lon="10.8696211"><ele>135.5</ele><time>2026-04-11T16:23:56.47Z</time></trkpt><trkpt lat="44.5241907" lon="10.8695033"><ele>136.0</ele><time>2026-04-11T16:23:57.433Z</time></trkpt><trkpt lat="44.5241965" lon="10.8693821"><ele>136.16666666666669</ele><time>2026-04-11T16:23:58.479Z</time></trkpt><trkpt lat="44.5242067" lon="10.8692592"><ele>136.33333333333334</ele><time>2026-04-11T16:23:59.438Z</time></trkpt><trkpt lat="44.5242223" lon="10.8691375"><ele>136.5</ele><time>2026-04-11T16:24:00.478Z</time></trkpt><trkpt lat="44.5242424" lon="10.8690192"><ele>136.66666666666666</ele><time>2026-04-11T16:24:01.464Z</time></trkpt><trkpt lat="44.5242697" lon="10.8689125"><ele>136.83333333333331</ele><time>2026-04-11T16:24:02.474Z</time></trkpt><trkpt lat="44.5242908" lon="10.8688135"><ele>137.0</ele><time>2026-04-11T16:24:03.456Z</time></trkpt><trkpt lat="44.5243141" lon="10.8687117"><ele>137.0</ele><time>2026-04-11T16:24:04.431Z</time></trkpt><trkpt lat="44.5243344" lon="10.8686103"><ele>137.0</ele><time>2026-04-11T16:24:05.445Z</time></trkpt><trkpt lat="44.5243489" lon="10.8685175"><ele>137.0</ele><time>2026-04-11T16:24:06.475Z</time></trkpt><trkpt lat="44.5243874" lon="10.868368"><ele>137.0</ele><time>2026-04-11T16:24:08.467Z</time></trkpt><trkpt lat="44.5244233" lon="10.8682167"><ele>137.0</ele><time>2026-04-11T16:24:10.469Z</time></trkpt><trkpt lat="44.5244605" lon="10.8680607"><ele>137.0</ele><time>2026-04-11T16:24:12.44Z</time></trkpt><trkpt lat="44.5244816" lon="10.8679758"><ele>137.0</ele><time>2026-04-11T16:24:13.447Z</time></trkpt><trkpt lat="44.5244992" lon="10.8678841"><ele>137.0</ele><time>2026-04-11T16:24:14.483Z</time></trkpt><trkpt lat="44.524518" lon="10.867794"><ele>137.0</ele><time>2026-04-11T16:24:15.474Z</time></trkpt><trkpt lat="44.5245556" lon="10.8676307"><ele>137.0</ele><time>2026-04-11T16:24:17.45Z</time></trkpt><trkpt lat="44.5245744" lon="10.8674854"><ele>137.0</ele><time>2026-04-11T16:24:19.433Z</time></trkpt><trkpt lat="44.524597" lon="10.8673978"><ele>136.33333333333331</ele><time>2026-04-11T16:24:20.465Z</time></trkpt><trkpt lat="44.5246247" lon="10.8672416"><ele>135.66666666666666</ele><time>2026-04-11T16:24:22.466Z</time></trkpt><trkpt lat="44.5246283" lon="10.8671473"><ele>135.0</ele><time>2026-04-11T16:24:23.481Z</time></trkpt><trkpt lat="44.5246501" lon="10.8670532"><ele>134.33333333333334</ele><time>2026-04-11T16:24:24.477Z</time></trkpt><trkpt lat="44.5246666" lon="10.8669643"><ele>133.66666666666669</ele><time>2026-04-11T16:24:25.475Z</time></trkpt><trkpt lat="44.5246821" lon="10.8668749"><ele>133.0</ele><time>2026-04-11T16:24:26.45Z</time></trkpt><trkpt lat="44.5247081" lon="10.8667891"><ele>133.16666666666669</ele><time>2026-04-11T16:24:27.455Z</time></trkpt><trkpt lat="44.5246772" lon="10.8666649"><ele>133.33333333333334</ele><time>2026-04-11T16:24:29.471Z</time></trkpt><trkpt lat="44.5245604" lon="10.8666149"><ele>133.5</ele><time>2026-04-11T16:24:31.443Z</time></trkpt><trkpt lat="44.5244944" lon="10.8665583"><ele>133.66666666666666</ele><time>2026-04-11T16:24:32.466Z</time></trkpt><trkpt lat="44.5244242" lon="10.8665221"><ele>133.83333333333331</ele><time>2026-04-11T16:24:33.466Z</time></trkpt><trkpt lat="44.5243481" lon="10.8664819"><ele>134.0</ele><time>2026-04-11T16:24:34.464Z</time></trkpt><trkpt lat="44.5242792" lon="10.8664542"><ele>134.2</ele><time>2026-04-11T16:24:35.46Z</time></trkpt><trkpt lat="44.5242052" lon="10.8664225"><ele>134.4</ele><time>2026-04-11T16:24:36.465Z</time></trkpt><trkpt lat="44.5241354" lon="10.8663766"><ele>134.6</ele><time>2026-04-11T16:24:37.468Z</time></trkpt><trkpt lat="44.5240571" lon="10.8662921"><ele>134.8</ele><time>2026-04-11T16:24:39.425Z</time></trkpt><trkpt lat="44.5240631" lon="10.8661196"><ele>135.0</ele><time>2026-04-11T16:24:41.412Z</time></trkpt><trkpt lat="44.5240915" lon="10.866014"><ele>135.42857142857142</ele><time>2026-04-11T16:24:42.425Z</time></trkpt><trkpt lat="44.5241258" lon="10.8659119"><ele>135.85714285714283</ele><time>2026-04-11T16:24:43.408Z</time></trkpt><trkpt lat="44.5241572" lon="10.8658177"><ele>136.28571428571428</ele><time>2026-04-11T16:24:44.435Z</time></trkpt><trkpt lat="44.5241921" lon="10.8657348"><ele>136.71428571428572</ele><time>2026-04-11T16:24:45.477Z</time></trkpt><trkpt lat="44.5242274" lon="10.8656492"><ele>137.14285714285717</ele><time>2026-04-11T16:24:46.467Z</time></trkpt><trkpt lat="44.5242661" lon="10.8655543"><ele>137.57142857142858</ele><time>2026-04-11T16:24:47.416Z</time></trkpt><trkpt lat="44.5243012" lon="10.8654616"><ele>138.0</ele><time>2026-04-11T16:24:48.426Z</time></trkpt><trkpt lat="44.5243304" lon="10.8653774"><ele>138.0</ele><time>2026-04-11T16:24:49.398Z</time></trkpt><trkpt lat="44.5243787" lon="10.8652325"><ele>138.0</ele><time>2026-04-11T16:24:51.426Z</time></trkpt><trkpt lat="44.5243862" lon="10.8650844"><ele>138.0</ele><time>2026-04-11T16:24:53.425Z</time></trkpt><trkpt lat="44.5243174" lon="10.8649399"><ele>138.0</ele><time>2026-04-11T16:24:55.469Z</time></trkpt><trkpt lat="44.5242643" lon="10.8648673"><ele>138.0</ele><time>2026-04-11T16:24:56.451Z</time></trkpt><trkpt lat="44.5242184" lon="10.8648047"><ele>138.83333333333334</ele><time>2026-04-11T16:24:57.472Z</time></trkpt><trkpt lat="44.5241698" lon="10.8647366"><ele>139.66666666666666</ele><time>2026-04-11T16:24:59.449Z</time></trkpt><trkpt lat="44.5241236" lon="10.8646486"><ele>140.5</ele><time>2026-04-11T16:25:03.468Z</time></trkpt><trkpt lat="44.524097" lon="10.8645685"><ele>141.33333333333331</ele><time>2026-04-11T16:25:05.495Z</time></trkpt><trkpt lat="44.5240353" lon="10.8645336"><ele>142.16666666666666</ele><time>2026-04-11T16:28:06.445Z</time></trkpt><trkpt lat="44.5240676" lon="10.8646389"><ele>143.0</ele><time>2026-04-11T16:28:28.458Z</time></trkpt><trkpt lat="44.524146" lon="10.8647494"><ele>143.0</ele><time>2026-04-11T16:28:30.461Z</time></trkpt><trkpt lat="44.5242322" lon="10.8648609"><ele>143.0</ele><time>2026-04-11T16:28:32.423Z</time></trkpt><trkpt lat="44.5242951" lon="10.8649474"><ele>143.0</ele><time>2026-04-11T16:28:34.471Z</time></trkpt><trkpt lat="44.524353" lon="10.8649908"><ele>143.0</ele><time>2026-04-11T16:28:37.454Z</time></trkpt><trkpt lat="44.5244158" lon="10.8649304"><ele>143.0</ele><time>2026-04-11T16:28:39.455Z</time></trkpt><trkpt lat="44.5244831" lon="10.8648378"><ele>143.0</ele><time>2026-04-11T16:28:41.46Z</time></trkpt><trkpt lat="44.5245739" lon="10.8647701"><ele>142.0</ele><time>2026-04-11T16:28:43.434Z</time></trkpt><trkpt lat="44.524647" lon="10.8647469"><ele>141.0</ele><time>2026-04-11T16:28:45.455Z</time></trkpt><trkpt lat="44.5247107" lon="10.8648379"><ele>140.0</ele><time>2026-04-11T16:28:51.478Z</time></trkpt><trkpt lat="44.5247298" lon="10.8650285"><ele>139.0</ele><time>2026-04-11T16:28:53.441Z</time></trkpt><trkpt lat="44.5247351" lon="10.8651498"><ele>138.0</ele><time>2026-04-11T16:28:54.45Z</time></trkpt><trkpt lat="44.5247405" lon="10.8652847"><ele>137.6</ele><time>2026-04-11T16:28:55.44Z</time></trkpt><trkpt lat="44.5247479" lon="10.8654196"><ele>137.20000000000002</ele><time>2026-04-11T16:28:56.462Z</time></trkpt><trkpt lat="44.5247613" lon="10.8655533"><ele>136.8</ele><time>2026-04-11T16:28:57.471Z</time></trkpt><trkpt lat="44.5247841" lon="10.865679"><ele>136.4</ele><time>2026-04-11T16:28:58.464Z</time></trkpt><trkpt lat="44.5248168" lon="10.8657888"><ele>136.0</ele><time>2026-04-11T16:28:59.446Z</time></trkpt><trkpt lat="44.5248626" lon="10.8658809"><ele>135.66666666666669</ele><time>2026-04-11T16:29:00.451Z</time></trkpt><trkpt lat="44.5249198" lon="10.8659519"><ele>135.33333333333334</ele><time>2026-04-11T16:29:01.433Z</time></trkpt><trkpt lat="44.5249836" lon="10.8660062"><ele>135.0</ele><time>2026-04-11T16:29:02.439Z</time></trkpt><trkpt lat="44.5250413" lon="10.8660448"><ele>134.66666666666666</ele><time>2026-04-11T16:29:03.466Z</time></trkpt><trkpt lat="44.525125" lon="10.8661023"><ele>134.33333333333331</ele><time>2026-04-11T16:29:05.439Z</time></trkpt><trkpt lat="44.5252217" lon="10.8661616"><ele>134.0</ele><time>2026-04-11T16:29:07.422Z</time></trkpt><trkpt lat="44.5252928" lon="10.8662085"><ele>134.0</ele><time>2026-04-11T16:29:08.426Z</time></trkpt><trkpt lat="44.5253795" lon="10.8662686"><ele>134.0</ele><time>2026-04-11T16:29:09.463Z</time></trkpt><trkpt lat="44.5254748" lon="10.8663326"><ele>134.0</ele><time>2026-04-11T16:29:10.463Z</time></trkpt><trkpt lat="44.5255665" lon="10.866387"><ele>134.0</ele><time>2026-04-11T16:29:11.442Z</time></trkpt><trkpt lat="44.5256458" lon="10.8664325"><ele>134.0</ele><time>2026-04-11T16:29:12.45Z</time></trkpt><trkpt lat="44.5257163" lon="10.8664762"><ele>133.66666666666666</ele><time>2026-04-11T16:29:13.427Z</time></trkpt><trkpt lat="44.525781" lon="10.8665253"><ele>133.33333333333331</ele><time>2026-04-11T16:29:14.461Z</time></trkpt><trkpt lat="44.5258483" lon="10.8665772"><ele>133.0</ele><time>2026-04-11T16:29:15.438Z</time></trkpt><trkpt lat="44.525919" lon="10.8666222"><ele>132.66666666666666</ele><time>2026-04-11T16:29:16.446Z</time></trkpt><trkpt lat="44.5259841" lon="10.8666651"><ele>132.33333333333334</ele><time>2026-04-11T16:29:17.461Z</time></trkpt><trkpt lat="44.5260544" lon="10.8666982"><ele>132.0</ele><time>2026-04-11T16:29:18.449Z</time></trkpt><trkpt lat="44.5261541" lon="10.8667408"><ele>131.79999999999998</ele><time>2026-04-11T16:29:20.448Z</time></trkpt><trkpt lat="44.5262753" lon="10.8667757"><ele>131.6</ele><time>2026-04-11T16:29:22.444Z</time></trkpt><trkpt lat="44.5263462" lon="10.8667532"><ele>131.39999999999998</ele><time>2026-04-11T16:29:23.45Z</time></trkpt><trkpt lat="44.5264279" lon="10.8667075"><ele>131.2</ele><time>2026-04-11T16:29:24.457Z</time></trkpt><trkpt lat="44.5265254" lon="10.8666456"><ele>131.0</ele><time>2026-04-11T16:29:25.45Z</time></trkpt><trkpt lat="44.5266432" lon="10.866581"><ele>131.0</ele><time>2026-04-11T16:29:26.483Z</time></trkpt><trkpt lat="44.526776" lon="10.8665202"><ele>131.0</ele><time>2026-04-11T16:29:27.436Z</time></trkpt><trkpt lat="44.5269054" lon="10.8664632"><ele>131.0</ele><time>2026-04-11T16:29:28.457Z</time></trkpt><trkpt lat="44.5270328" lon="10.8664094"><ele>131.0</ele><time>2026-04-11T16:29:29.455Z</time></trkpt><trkpt lat="44.527163" lon="10.8663523"><ele>130.5</ele><time>2026-04-11T16:29:30.393Z</time></trkpt><trkpt lat="44.5272927" lon="10.8662941"><ele>130.0</ele><time>2026-04-11T16:29:31.389Z</time></trkpt><trkpt lat="44.5274195" lon="10.8662374"><ele>129.5</ele><time>2026-04-11T16:29:32.445Z</time></trkpt><trkpt lat="44.527546" lon="10.8661805"><ele>129.0</ele><time>2026-04-11T16:29:33.489Z</time></trkpt><trkpt lat="44.5276728" lon="10.8661213"><ele>129.0</ele><time>2026-04-11T16:29:34.458Z</time></trkpt><trkpt lat="44.527803" lon="10.8660649"><ele>129.0</ele><time>2026-04-11T16:29:35.463Z</time></trkpt><trkpt lat="44.5279298" lon="10.8660109"><ele>129.0</ele><time>2026-04-11T16:29:36.431Z</time></trkpt><trkpt lat="44.5280508" lon="10.8659606"><ele>129.0</ele><time>2026-04-11T16:29:37.452Z</time></trkpt><trkpt lat="44.5281701" lon="10.8659138"><ele>129.0</ele><time>2026-04-11T16:29:38.421Z</time></trkpt><trkpt lat="44.5282828" lon="10.8658681"><ele>129.0</ele><time>2026-04-11T16:29:39.399Z</time></trkpt><trkpt lat="44.528391" lon="10.8658202"><ele>129.0</ele><time>2026-04-11T16:29:40.402Z</time></trkpt><trkpt lat="44.5284941" lon="10.8657777"><ele>129.0</ele><time>2026-04-11T16:29:41.449Z</time></trkpt><trkpt lat="44.5285947" lon="10.8657364"><ele>129.0</ele><time>2026-04-11T16:29:42.452Z</time></trkpt><trkpt lat="44.5286918" lon="10.8656947"><ele>129.0</ele><time>2026-04-11T16:29:43.426Z</time></trkpt><trkpt lat="44.5287844" lon="10.8656539"><ele>129.0</ele><time>2026-04-11T16:29:44.433Z</time></trkpt><trkpt lat="44.5288734" lon="10.8656142"><ele>129.0</ele><time>2026-04-11T16:29:45.452Z</time></trkpt><trkpt lat="44.5289623" lon="10.8655744"><ele>129.0</ele><time>2026-04-11T16:29:46.432Z</time></trkpt><trkpt lat="44.5290526" lon="10.8655385"><ele>129.0</ele><time>2026-04-11T16:29:47.486Z</time></trkpt><trkpt lat="44.5291365" lon="10.8655021"><ele>129.0</ele><time>2026-04-11T16:29:48.448Z</time></trkpt><trkpt lat="44.5292154" lon="10.8654685"><ele>129.0</ele><time>2026-04-11T16:29:49.432Z</time></trkpt><trkpt lat="44.5292917" lon="10.865437"><ele>129.0</ele><time>2026-04-11T16:29:50.449Z</time></trkpt><trkpt lat="44.5293684" lon="10.8654029"><ele>129.0</ele><time>2026-04-11T16:29:51.475Z</time></trkpt><trkpt lat="44.5294412" lon="10.8653689"><ele>129.0</ele><time>2026-04-11T16:29:52.48Z</time></trkpt><trkpt lat="44.5295131" lon="10.8653389"><ele>129.0</ele><time>2026-04-11T16:29:53.454Z</time></trkpt><trkpt lat="44.5295796" lon="10.8653046"><ele>128.66666666666666</ele><time>2026-04-11T16:29:54.461Z</time></trkpt><trkpt lat="44.5296403" lon="10.8652703"><ele>128.33333333333334</ele><time>2026-04-11T16:29:55.443Z</time></trkpt><trkpt lat="44.5297149" lon="10.8652252"><ele>128.0</ele><time>2026-04-11T16:29:57.457Z</time></trkpt><trkpt lat="44.5298213" lon="10.8651912"><ele>127.66666666666667</ele><time>2026-04-11T16:30:01.449Z</time></trkpt><trkpt lat="44.52994" lon="10.8651603"><ele>127.33333333333334</ele><time>2026-04-11T16:30:03.451Z</time></trkpt><trkpt lat="44.5300059" lon="10.8651456"><ele>127.0</ele><time>2026-04-11T16:30:04.441Z</time></trkpt><trkpt lat="44.5300753" lon="10.8651305"><ele>127.00000000000001</ele><time>2026-04-11T16:30:05.459Z</time></trkpt><trkpt lat="44.5301497" lon="10.865102"><ele>127.0</ele><time>2026-04-11T16:30:06.446Z</time></trkpt><trkpt lat="44.5302318" lon="10.865068"><ele>127.0</ele><time>2026-04-11T16:30:07.465Z</time></trkpt><trkpt lat="44.5303198" lon="10.8650308"><ele>127.0</ele><time>2026-04-11T16:30:08.479Z</time></trkpt><trkpt lat="44.5304065" lon="10.8649947"><ele>127.00000000000001</ele><time>2026-04-11T16:30:09.463Z</time></trkpt><trkpt lat="44.530496" lon="10.864957"><ele>127.0</ele><time>2026-04-11T16:30:10.447Z</time></trkpt><trkpt lat="44.5305922" lon="10.8649182"><ele>127.0</ele><time>2026-04-11T16:30:11.459Z</time></trkpt><trkpt lat="44.5306948" lon="10.8648754"><ele>127.0</ele><time>2026-04-11T16:30:12.466Z</time></trkpt><trkpt lat="44.5308052" lon="10.8648299"><ele>127.0</ele><time>2026-04-11T16:30:13.418Z</time></trkpt><trkpt lat="44.5309134" lon="10.8647846"><ele>127.0</ele><time>2026-04-11T16:30:14.469Z</time></trkpt><trkpt lat="44.5310236" lon="10.8647378"><ele>127.0</ele><time>2026-04-11T16:30:15.447Z</time></trkpt><trkpt lat="44.5311394" lon="10.8646886"><ele>127.0</ele><time>2026-04-11T16:30:16.463Z</time></trkpt><trkpt lat="44.5312623" lon="10.8646354"><ele>127.0</ele><time>2026-04-11T16:30:17.442Z</time></trkpt><trkpt lat="44.5313916" lon="10.8645805"><ele>127.0</ele><time>2026-04-11T16:30:18.395Z</time></trkpt><trkpt lat="44.5315264" lon="10.8645228"><ele>127.0</ele><time>2026-04-11T16:30:19.459Z</time></trkpt><trkpt lat="44.5316574" lon="10.8644649"><ele>127.0</ele><time>2026-04-11T16:30:20.474Z</time></trkpt><trkpt lat="44.5317843" lon="10.8644113"><ele>127.0</ele><time>2026-04-11T16:30:21.472Z</time></trkpt><trkpt lat="44.5319072" lon="10.8643577"><ele>127.0</ele><time>2026-04-11T16:30:22.463Z</time></trkpt><trkpt lat="44.5320292" lon="10.8643027"><ele>126.5</ele><time>2026-04-11T16:30:23.466Z</time></trkpt><trkpt lat="44.5321587" lon="10.8642548"><ele>126.0</ele><time>2026-04-11T16:30:24.463Z</time></trkpt><trkpt lat="44.5322822" lon="10.8642007"><ele>125.5</ele><time>2026-04-11T16:30:25.469Z</time></trkpt><trkpt lat="44.5324112" lon="10.8641486"><ele>125.0</ele><time>2026-04-11T16:30:26.472Z</time></trkpt><trkpt lat="44.5325458" lon="10.8640956"><ele>125.0</ele><time>2026-04-11T16:30:27.465Z</time></trkpt><trkpt lat="44.5326783" lon="10.864046"><ele>125.0</ele><time>2026-04-11T16:30:28.445Z</time></trkpt><trkpt lat="44.532807" lon="10.8639961"><ele>125.0</ele><time>2026-04-11T16:30:29.435Z</time></trkpt><trkpt lat="44.5329368" lon="10.8639438"><ele>125.0</ele><time>2026-04-11T16:30:30.408Z</time></trkpt><trkpt lat="44.5330641" lon="10.8638909"><ele>124.5</ele><time>2026-04-11T16:30:31.422Z</time></trkpt><trkpt lat="44.5331866" lon="10.863841"><ele>124.0</ele><time>2026-04-11T16:30:32.409Z</time></trkpt><trkpt lat="44.5333055" lon="10.8637923"><ele>123.5</ele><time>2026-04-11T16:30:33.476Z</time></trkpt><trkpt lat="44.5334236" lon="10.8637404"><ele>123.0</ele><time>2026-04-11T16:30:34.458Z</time></trkpt><trkpt lat="44.5335409" lon="10.8636887"><ele>123.0</ele><time>2026-04-11T16:30:35.434Z</time></trkpt><trkpt lat="44.5336568" lon="10.8636382"><ele>123.0</ele><time>2026-04-11T16:30:36.463Z</time></trkpt><trkpt lat="44.5337715" lon="10.8635891"><ele>123.0</ele><time>2026-04-11T16:30:37.47Z</time></trkpt><trkpt lat="44.5338882" lon="10.863538"><ele>123.0</ele><time>2026-04-11T16:30:38.446Z</time></trkpt><trkpt lat="44.5340137" lon="10.8634857"><ele>122.75</ele><time>2026-04-11T16:30:39.488Z</time></trkpt><trkpt lat="44.5341448" lon="10.8634322"><ele>122.5</ele><time>2026-04-11T16:30:40.472Z</time></trkpt><trkpt lat="44.5342805" lon="10.8633769"><ele>122.25</ele><time>2026-04-11T16:30:41.451Z</time></trkpt><trkpt lat="44.5344198" lon="10.8633168"><ele>122.0</ele><time>2026-04-11T16:30:42.467Z</time></trkpt><trkpt lat="44.5345634" lon="10.8632571"><ele>122.0</ele><time>2026-04-11T16:30:43.435Z</time></trkpt><trkpt lat="44.5347051" lon="10.8631973"><ele>122.0</ele><time>2026-04-11T16:30:44.487Z</time></trkpt><trkpt lat="44.5348416" lon="10.8631414"><ele>122.0</ele><time>2026-04-11T16:30:45.487Z</time></trkpt><trkpt lat="44.5349712" lon="10.8630869"><ele>122.0</ele><time>2026-04-11T16:30:46.441Z</time></trkpt><trkpt lat="44.5350993" lon="10.8630339"><ele>122.0</ele><time>2026-04-11T16:30:47.467Z</time></trkpt><trkpt lat="44.5352321" lon="10.862979"><ele>122.0</ele><time>2026-04-11T16:30:48.457Z</time></trkpt><trkpt lat="44.535359" lon="10.8629248"><ele>122.0</ele><time>2026-04-11T16:30:49.479Z</time></trkpt><trkpt lat="44.5354815" lon="10.8628756"><ele>122.0</ele><time>2026-04-11T16:30:50.451Z</time></trkpt><trkpt lat="44.5355971" lon="10.8628304"><ele>122.25</ele><time>2026-04-11T16:30:51.447Z</time></trkpt><trkpt lat="44.5357107" lon="10.8627857"><ele>122.5</ele><time>2026-04-11T16:30:52.458Z</time></trkpt><trkpt lat="44.5358274" lon="10.8627342"><ele>122.75</ele><time>2026-04-11T16:30:53.453Z</time></trkpt><trkpt lat="44.5359521" lon="10.8626883"><ele>123.0</ele><time>2026-04-11T16:30:54.469Z</time></trkpt><trkpt lat="44.5360651" lon="10.8626487"><ele>122.60000000000001</ele><time>2026-04-11T16:30:55.449Z</time></trkpt><trkpt lat="44.5361763" lon="10.8626094"><ele>122.20000000000002</ele><time>2026-04-11T16:30:56.449Z</time></trkpt><trkpt lat="44.5362764" lon="10.8625708"><ele>121.8</ele><time>2026-04-11T16:30:57.451Z</time></trkpt><trkpt lat="44.5363826" lon="10.862538"><ele>121.4</ele><time>2026-04-11T16:30:58.465Z</time></trkpt><trkpt lat="44.5364799" lon="10.8625104"><ele>121.0</ele><time>2026-04-11T16:30:59.465Z</time></trkpt><trkpt lat="44.5365742" lon="10.8624832"><ele>120.83333333333334</ele><time>2026-04-11T16:31:00.433Z</time></trkpt><trkpt lat="44.5366569" lon="10.8624762"><ele>120.66666666666667</ele><time>2026-04-11T16:31:01.461Z</time></trkpt><trkpt lat="44.536731" lon="10.8624894"><ele>120.5</ele><time>2026-04-11T16:31:02.468Z</time></trkpt><trkpt lat="44.5367923" lon="10.8625188"><ele>120.33333333333334</ele><time>2026-04-11T16:31:03.475Z</time></trkpt><trkpt lat="44.5368698" lon="10.8626597"><ele>120.16666666666667</ele><time>2026-04-11T16:31:05.464Z</time></trkpt><trkpt lat="44.5369091" lon="10.862731"><ele>120.0</ele><time>2026-04-11T16:31:06.453Z</time></trkpt><trkpt lat="44.5369601" lon="10.8627839"><ele>120.0</ele><time>2026-04-11T16:31:07.473Z</time></trkpt><trkpt lat="44.5370207" lon="10.8628096"><ele>120.0</ele><time>2026-04-11T16:31:08.434Z</time></trkpt><trkpt lat="44.5371398" lon="10.862804"><ele>116.0</ele><time>2026-04-11T16:31:10.454Z</time></trkpt><trkpt lat="44.5372269" lon="10.8627577"><ele>116.0</ele><time>2026-04-11T16:31:12.477Z</time></trkpt><trkpt lat="44.5372975" lon="10.8627036"><ele>116.0</ele><time>2026-04-11T16:31:35.454Z</time></trkpt><trkpt lat="44.537371" lon="10.8626646"><ele>116.0</ele><time>2026-04-11T16:32:44.471Z</time></trkpt></trkseg></trk></gpx>